<?xml version="1.0" encoding="UTF-8" standalone="no" ?>
<gpx xmlns="http://www.topografix.com/GPX/1/1" xmlns:xsi="http://www.w3.org/2001/XMLSchema-instance" xsi:schemaLocation="http://www.topografix.com/GPX/1/1 http://www.topografix.com/GPX/1/1/gpx.xsd" version="1.1" creator="VisuGPX - https://www.visugpx.com">
  <metadata>
    <name>22-06-25</name>
    <desc><![CDATA[Méral]]></desc>
  </metadata>
  <trk>
    <name><![CDATA[22-06-25]]></name>
    <trkseg>
      <trkpt lat="46.88408" lon="3.14835">
        <ele>207</ele>
        <time>2022-06-25T03:48:08.000Z</time>
      </trkpt>
      <trkpt lat="46.88407" lon="3.14839">
        <ele>206.60000610352</ele>
        <time>2022-06-25T03:48:25.000Z</time>
      </trkpt>
      <trkpt lat="46.88405" lon="3.14841">
        <ele>206.60000610352</ele>
        <time>2022-06-25T03:48:32.000Z</time>
      </trkpt>
      <trkpt lat="46.88406" lon="3.14842">
        <ele>206.60000610352</ele>
        <time>2022-06-25T03:48:47.000Z</time>
      </trkpt>
      <trkpt lat="46.88407" lon="3.14843">
        <ele>206.60000610352</ele>
        <time>2022-06-25T03:48:54.000Z</time>
      </trkpt>
      <trkpt lat="46.8841" lon="3.14845">
        <ele>206.60000610352</ele>
        <time>2022-06-25T03:48:56.000Z</time>
      </trkpt>
      <trkpt lat="46.88423" lon="3.14856">
        <ele>206.60000610352</ele>
        <time>2022-06-25T03:49:01.000Z</time>
      </trkpt>
      <trkpt lat="46.8843" lon="3.14875">
        <ele>206.19999694824</ele>
        <time>2022-06-25T03:49:05.000Z</time>
      </trkpt>
      <trkpt lat="46.88431" lon="3.14881">
        <ele>206</ele>
        <time>2022-06-25T03:49:06.000Z</time>
      </trkpt>
      <trkpt lat="46.88432" lon="3.14907">
        <ele>205.19999694824</ele>
        <time>2022-06-25T03:49:10.000Z</time>
      </trkpt>
      <trkpt lat="46.88433" lon="3.14942">
        <ele>205</ele>
        <time>2022-06-25T03:49:16.000Z</time>
      </trkpt>
      <trkpt lat="46.88434" lon="3.14948">
        <ele>205</ele>
        <time>2022-06-25T03:49:17.000Z</time>
      </trkpt>
      <trkpt lat="46.88436" lon="3.14959">
        <ele>205</ele>
        <time>2022-06-25T03:49:19.000Z</time>
      </trkpt>
      <trkpt lat="46.88439" lon="3.14975">
        <ele>205</ele>
        <time>2022-06-25T03:49:22.000Z</time>
      </trkpt>
      <trkpt lat="46.88436" lon="3.14991">
        <ele>205</ele>
        <time>2022-06-25T03:49:25.000Z</time>
      </trkpt>
      <trkpt lat="46.88435" lon="3.14996">
        <ele>205</ele>
        <time>2022-06-25T03:49:26.000Z</time>
      </trkpt>
      <trkpt lat="46.8842" lon="3.15048">
        <ele>204.39999389648</ele>
        <time>2022-06-25T03:49:34.000Z</time>
      </trkpt>
      <trkpt lat="46.88418" lon="3.15055">
        <ele>204.60000610352</ele>
        <time>2022-06-25T03:49:35.000Z</time>
      </trkpt>
      <trkpt lat="46.88412" lon="3.15079">
        <ele>205.60000610352</ele>
        <time>2022-06-25T03:49:39.000Z</time>
      </trkpt>
      <trkpt lat="46.88406" lon="3.15111">
        <ele>206.19999694824</ele>
        <time>2022-06-25T03:49:45.000Z</time>
      </trkpt>
      <trkpt lat="46.88397" lon="3.15132">
        <ele>207</ele>
        <time>2022-06-25T03:49:50.000Z</time>
      </trkpt>
      <trkpt lat="46.88396" lon="3.15141">
        <ele>207.19999694824</ele>
        <time>2022-06-25T03:49:52.000Z</time>
      </trkpt>
      <trkpt lat="46.88398" lon="3.15154">
        <ele>207</ele>
        <time>2022-06-25T03:49:55.000Z</time>
      </trkpt>
      <trkpt lat="46.88401" lon="3.15159">
        <ele>206.80000305176</ele>
        <time>2022-06-25T03:49:56.000Z</time>
      </trkpt>
      <trkpt lat="46.88403" lon="3.15171">
        <ele>206.39999389648</ele>
        <time>2022-06-25T03:49:58.000Z</time>
      </trkpt>
      <trkpt lat="46.88402" lon="3.15185">
        <ele>205.80000305176</ele>
        <time>2022-06-25T03:50:01.000Z</time>
      </trkpt>
      <trkpt lat="46.88404" lon="3.15201">
        <ele>205.80000305176</ele>
        <time>2022-06-25T03:50:02.000Z</time>
      </trkpt>
      <trkpt lat="46.88405" lon="3.15209">
        <ele>205.60000610352</ele>
        <time>2022-06-25T03:50:03.000Z</time>
      </trkpt>
      <trkpt lat="46.88411" lon="3.15252">
        <ele>205.60000610352</ele>
        <time>2022-06-25T03:50:08.000Z</time>
      </trkpt>
      <trkpt lat="46.88413" lon="3.1527">
        <ele>205.39999389648</ele>
        <time>2022-06-25T03:50:10.000Z</time>
      </trkpt>
      <trkpt lat="46.88415" lon="3.15285">
        <ele>204.80000305176</ele>
        <time>2022-06-25T03:50:12.000Z</time>
      </trkpt>
      <trkpt lat="46.88416" lon="3.15295">
        <ele>204.39999389648</ele>
        <time>2022-06-25T03:50:13.000Z</time>
      </trkpt>
      <trkpt lat="46.88417" lon="3.15313">
        <ele>204.39999389648</ele>
        <time>2022-06-25T03:50:15.000Z</time>
      </trkpt>
      <trkpt lat="46.88417" lon="3.15357">
        <ele>203</ele>
        <time>2022-06-25T03:50:20.000Z</time>
      </trkpt>
      <trkpt lat="46.88416" lon="3.15374">
        <ele>203</ele>
        <time>2022-06-25T03:50:22.000Z</time>
      </trkpt>
      <trkpt lat="46.88411" lon="3.15429">
        <ele>202</ele>
        <time>2022-06-25T03:50:29.000Z</time>
      </trkpt>
      <trkpt lat="46.88409" lon="3.15445">
        <ele>201.19999694824</ele>
        <time>2022-06-25T03:50:32.000Z</time>
      </trkpt>
      <trkpt lat="46.88407" lon="3.15453">
        <ele>201</ele>
        <time>2022-06-25T03:50:34.000Z</time>
      </trkpt>
      <trkpt lat="46.88402" lon="3.15477">
        <ele>200.39999389648</ele>
        <time>2022-06-25T03:50:40.000Z</time>
      </trkpt>
      <trkpt lat="46.88399" lon="3.15504">
        <ele>199.60000610352</ele>
        <time>2022-06-25T03:50:44.000Z</time>
      </trkpt>
      <trkpt lat="46.88393" lon="3.15534">
        <ele>198.80000305176</ele>
        <time>2022-06-25T03:50:48.000Z</time>
      </trkpt>
      <trkpt lat="46.88389" lon="3.15551">
        <ele>198.60000610352</ele>
        <time>2022-06-25T03:50:50.000Z</time>
      </trkpt>
      <trkpt lat="46.88377" lon="3.1559">
        <ele>198.80000305176</ele>
        <time>2022-06-25T03:50:55.000Z</time>
      </trkpt>
      <trkpt lat="46.88374" lon="3.15598">
        <ele>199</ele>
        <time>2022-06-25T03:50:56.000Z</time>
      </trkpt>
      <trkpt lat="46.88371" lon="3.15605">
        <ele>199</ele>
        <time>2022-06-25T03:50:57.000Z</time>
      </trkpt>
      <trkpt lat="46.88365" lon="3.15637">
        <ele>199</ele>
        <time>2022-06-25T03:51:01.000Z</time>
      </trkpt>
      <trkpt lat="46.88364" lon="3.15645">
        <ele>199</ele>
        <time>2022-06-25T03:51:02.000Z</time>
      </trkpt>
      <trkpt lat="46.88364" lon="3.15669">
        <ele>199</ele>
        <time>2022-06-25T03:51:05.000Z</time>
      </trkpt>
      <trkpt lat="46.88362" lon="3.15692">
        <ele>199</ele>
        <time>2022-06-25T03:51:08.000Z</time>
      </trkpt>
      <trkpt lat="46.88359" lon="3.15712">
        <ele>199</ele>
        <time>2022-06-25T03:51:11.000Z</time>
      </trkpt>
      <trkpt lat="46.88357" lon="3.15727">
        <ele>199.39999389648</ele>
        <time>2022-06-25T03:51:13.000Z</time>
      </trkpt>
      <trkpt lat="46.88357" lon="3.15745">
        <ele>199.60000610352</ele>
        <time>2022-06-25T03:51:15.000Z</time>
      </trkpt>
      <trkpt lat="46.88357" lon="3.15763">
        <ele>200.19999694824</ele>
        <time>2022-06-25T03:51:17.000Z</time>
      </trkpt>
      <trkpt lat="46.88356" lon="3.15789">
        <ele>201.60000610352</ele>
        <time>2022-06-25T03:51:20.000Z</time>
      </trkpt>
      <trkpt lat="46.88355" lon="3.15815">
        <ele>202.39999389648</ele>
        <time>2022-06-25T03:51:23.000Z</time>
      </trkpt>
      <trkpt lat="46.88348" lon="3.15885">
        <ele>204.19999694824</ele>
        <time>2022-06-25T03:51:31.000Z</time>
      </trkpt>
      <trkpt lat="46.88346" lon="3.15923">
        <ele>202.60000610352</ele>
        <time>2022-06-25T03:51:36.000Z</time>
      </trkpt>
      <trkpt lat="46.88346" lon="3.15931">
        <ele>202.19999694824</ele>
        <time>2022-06-25T03:51:37.000Z</time>
      </trkpt>
      <trkpt lat="46.88346" lon="3.15954">
        <ele>201.39999389648</ele>
        <time>2022-06-25T03:51:40.000Z</time>
      </trkpt>
      <trkpt lat="46.88345" lon="3.15978">
        <ele>200.39999389648</ele>
        <time>2022-06-25T03:51:44.000Z</time>
      </trkpt>
      <trkpt lat="46.88345" lon="3.15986">
        <ele>200.19999694824</ele>
        <time>2022-06-25T03:51:45.000Z</time>
      </trkpt>
      <trkpt lat="46.88345" lon="3.16024">
        <ele>198.60000610352</ele>
        <time>2022-06-25T03:51:50.000Z</time>
      </trkpt>
      <trkpt lat="46.88345" lon="3.16069">
        <ele>197.19999694824</ele>
        <time>2022-06-25T03:51:56.000Z</time>
      </trkpt>
      <trkpt lat="46.88345" lon="3.161">
        <ele>196</ele>
        <time>2022-06-25T03:52:00.000Z</time>
      </trkpt>
      <trkpt lat="46.88344" lon="3.16176">
        <ele>196.60000610352</ele>
        <time>2022-06-25T03:52:09.000Z</time>
      </trkpt>
      <trkpt lat="46.88349" lon="3.16235">
        <ele>197</ele>
        <time>2022-06-25T03:52:15.000Z</time>
      </trkpt>
      <trkpt lat="46.88359" lon="3.16276">
        <ele>196</ele>
        <time>2022-06-25T03:52:19.000Z</time>
      </trkpt>
      <trkpt lat="46.88364" lon="3.16285">
        <ele>196</ele>
        <time>2022-06-25T03:52:20.000Z</time>
      </trkpt>
      <trkpt lat="46.88384" lon="3.1632">
        <ele>195.19999694824</ele>
        <time>2022-06-25T03:52:24.000Z</time>
      </trkpt>
      <trkpt lat="46.8839" lon="3.16327">
        <ele>194.80000305176</ele>
        <time>2022-06-25T03:52:25.000Z</time>
      </trkpt>
      <trkpt lat="46.88403" lon="3.1634">
        <ele>194.60000610352</ele>
        <time>2022-06-25T03:52:27.000Z</time>
      </trkpt>
      <trkpt lat="46.88409" lon="3.16345">
        <ele>194.60000610352</ele>
        <time>2022-06-25T03:52:28.000Z</time>
      </trkpt>
      <trkpt lat="46.88427" lon="3.16359">
        <ele>195</ele>
        <time>2022-06-25T03:52:31.000Z</time>
      </trkpt>
      <trkpt lat="46.88433" lon="3.16364">
        <ele>195.19999694824</ele>
        <time>2022-06-25T03:52:32.000Z</time>
      </trkpt>
      <trkpt lat="46.88472" lon="3.16393">
        <ele>196</ele>
        <time>2022-06-25T03:52:39.000Z</time>
      </trkpt>
      <trkpt lat="46.88524" lon="3.16432">
        <ele>196.39999389648</ele>
        <time>2022-06-25T03:52:49.000Z</time>
      </trkpt>
      <trkpt lat="46.8853" lon="3.16436">
        <ele>196.60000610352</ele>
        <time>2022-06-25T03:52:50.000Z</time>
      </trkpt>
      <trkpt lat="46.8854" lon="3.16443">
        <ele>196.80000305176</ele>
        <time>2022-06-25T03:52:52.000Z</time>
      </trkpt>
      <trkpt lat="46.8858" lon="3.16472">
        <ele>197.19999694824</ele>
        <time>2022-06-25T03:53:00.000Z</time>
      </trkpt>
      <trkpt lat="46.8863" lon="3.16508">
        <ele>198.60000610352</ele>
        <time>2022-06-25T03:53:10.000Z</time>
      </trkpt>
      <trkpt lat="46.88646" lon="3.16519">
        <ele>198.80000305176</ele>
        <time>2022-06-25T03:53:13.000Z</time>
      </trkpt>
      <trkpt lat="46.88683" lon="3.16544">
        <ele>199</ele>
        <time>2022-06-25T03:53:20.000Z</time>
      </trkpt>
      <trkpt lat="46.88716" lon="3.16567">
        <ele>199</ele>
        <time>2022-06-25T03:53:26.000Z</time>
      </trkpt>
      <trkpt lat="46.88747" lon="3.16588">
        <ele>199</ele>
        <time>2022-06-25T03:53:32.000Z</time>
      </trkpt>
      <trkpt lat="46.88777" lon="3.16613">
        <ele>199</ele>
        <time>2022-06-25T03:53:38.000Z</time>
      </trkpt>
      <trkpt lat="46.88817" lon="3.16661">
        <ele>199</ele>
        <time>2022-06-25T03:53:47.000Z</time>
      </trkpt>
      <trkpt lat="46.88854" lon="3.1671">
        <ele>199.60000610352</ele>
        <time>2022-06-25T03:53:56.000Z</time>
      </trkpt>
      <trkpt lat="46.88858" lon="3.16715">
        <ele>199.60000610352</ele>
        <time>2022-06-25T03:53:57.000Z</time>
      </trkpt>
      <trkpt lat="46.88898" lon="3.16767">
        <ele>200</ele>
        <time>2022-06-25T03:54:07.000Z</time>
      </trkpt>
      <trkpt lat="46.88939" lon="3.16821">
        <ele>199.60000610352</ele>
        <time>2022-06-25T03:54:17.000Z</time>
      </trkpt>
      <trkpt lat="46.8895" lon="3.16839">
        <ele>199.19999694824</ele>
        <time>2022-06-25T03:54:20.000Z</time>
      </trkpt>
      <trkpt lat="46.88958" lon="3.16851">
        <ele>199</ele>
        <time>2022-06-25T03:54:22.000Z</time>
      </trkpt>
      <trkpt lat="46.88995" lon="3.16911">
        <ele>199.60000610352</ele>
        <time>2022-06-25T03:54:32.000Z</time>
      </trkpt>
      <trkpt lat="46.89001" lon="3.16922">
        <ele>200.19999694824</ele>
        <time>2022-06-25T03:54:34.000Z</time>
      </trkpt>
      <trkpt lat="46.89017" lon="3.16948">
        <ele>201.19999694824</ele>
        <time>2022-06-25T03:54:38.000Z</time>
      </trkpt>
      <trkpt lat="46.89046" lon="3.16996">
        <ele>202</ele>
        <time>2022-06-25T03:54:46.000Z</time>
      </trkpt>
      <trkpt lat="46.89082" lon="3.17056">
        <ele>202.60000610352</ele>
        <time>2022-06-25T03:54:56.000Z</time>
      </trkpt>
      <trkpt lat="46.8909" lon="3.17068">
        <ele>202.80000305176</ele>
        <time>2022-06-25T03:54:58.000Z</time>
      </trkpt>
      <trkpt lat="46.89115" lon="3.17109">
        <ele>202</ele>
        <time>2022-06-25T03:55:05.000Z</time>
      </trkpt>
      <trkpt lat="46.89137" lon="3.17145">
        <ele>202</ele>
        <time>2022-06-25T03:55:11.000Z</time>
      </trkpt>
      <trkpt lat="46.8916" lon="3.17181">
        <ele>202</ele>
        <time>2022-06-25T03:55:18.000Z</time>
      </trkpt>
      <trkpt lat="46.89161" lon="3.17181">
        <ele>202</ele>
        <time>2022-06-25T03:55:19.000Z</time>
      </trkpt>
      <trkpt lat="46.89162" lon="3.17179">
        <ele>202</ele>
        <time>2022-06-25T03:55:20.000Z</time>
      </trkpt>
      <trkpt lat="46.89156" lon="3.17167">
        <ele>202</ele>
        <time>2022-06-25T03:55:23.000Z</time>
      </trkpt>
      <trkpt lat="46.89141" lon="3.17142">
        <ele>202</ele>
        <time>2022-06-25T03:55:27.000Z</time>
      </trkpt>
      <trkpt lat="46.89112" lon="3.17095">
        <ele>202.19999694824</ele>
        <time>2022-06-25T03:55:34.000Z</time>
      </trkpt>
      <trkpt lat="46.89072" lon="3.17032">
        <ele>202.19999694824</ele>
        <time>2022-06-25T03:55:43.000Z</time>
      </trkpt>
      <trkpt lat="46.89068" lon="3.17024">
        <ele>202</ele>
        <time>2022-06-25T03:55:44.000Z</time>
      </trkpt>
      <trkpt lat="46.89028" lon="3.16959">
        <ele>201.60000610352</ele>
        <time>2022-06-25T03:55:53.000Z</time>
      </trkpt>
      <trkpt lat="46.8902" lon="3.16945">
        <ele>201.39999389648</ele>
        <time>2022-06-25T03:55:55.000Z</time>
      </trkpt>
      <trkpt lat="46.89011" lon="3.16931">
        <ele>200.80000305176</ele>
        <time>2022-06-25T03:55:57.000Z</time>
      </trkpt>
      <trkpt lat="46.88976" lon="3.16873">
        <ele>198.19999694824</ele>
        <time>2022-06-25T03:56:05.000Z</time>
      </trkpt>
      <trkpt lat="46.88936" lon="3.1681">
        <ele>199.80000305176</ele>
        <time>2022-06-25T03:56:14.000Z</time>
      </trkpt>
      <trkpt lat="46.88927" lon="3.16797">
        <ele>200</ele>
        <time>2022-06-25T03:56:16.000Z</time>
      </trkpt>
      <trkpt lat="46.88882" lon="3.16737">
        <ele>199.80000305176</ele>
        <time>2022-06-25T03:56:25.000Z</time>
      </trkpt>
      <trkpt lat="46.88876" lon="3.1673">
        <ele>199.60000610352</ele>
        <time>2022-06-25T03:56:26.000Z</time>
      </trkpt>
      <trkpt lat="46.8885" lon="3.16695">
        <ele>199.19999694824</ele>
        <time>2022-06-25T03:56:31.000Z</time>
      </trkpt>
      <trkpt lat="46.88816" lon="3.16652">
        <ele>199</ele>
        <time>2022-06-25T03:56:37.000Z</time>
      </trkpt>
      <trkpt lat="46.88805" lon="3.16638">
        <ele>199</ele>
        <time>2022-06-25T03:56:39.000Z</time>
      </trkpt>
      <trkpt lat="46.88763" lon="3.16594">
        <ele>199.19999694824</ele>
        <time>2022-06-25T03:56:46.000Z</time>
      </trkpt>
      <trkpt lat="46.88719" lon="3.16562">
        <ele>199</ele>
        <time>2022-06-25T03:56:53.000Z</time>
      </trkpt>
      <trkpt lat="46.88706" lon="3.16554">
        <ele>199</ele>
        <time>2022-06-25T03:56:55.000Z</time>
      </trkpt>
      <trkpt lat="46.88674" lon="3.16532">
        <ele>199.39999389648</ele>
        <time>2022-06-25T03:57:00.000Z</time>
      </trkpt>
      <trkpt lat="46.88642" lon="3.1651">
        <ele>199</ele>
        <time>2022-06-25T03:57:05.000Z</time>
      </trkpt>
      <trkpt lat="46.88591" lon="3.16474">
        <ele>197.39999389648</ele>
        <time>2022-06-25T03:57:13.000Z</time>
      </trkpt>
      <trkpt lat="46.88578" lon="3.16464">
        <ele>197.39999389648</ele>
        <time>2022-06-25T03:57:15.000Z</time>
      </trkpt>
      <trkpt lat="46.88527" lon="3.16426">
        <ele>196.60000610352</ele>
        <time>2022-06-25T03:57:23.000Z</time>
      </trkpt>
      <trkpt lat="46.88507" lon="3.16411">
        <ele>196</ele>
        <time>2022-06-25T03:57:26.000Z</time>
      </trkpt>
      <trkpt lat="46.88468" lon="3.16382">
        <ele>196</ele>
        <time>2022-06-25T03:57:32.000Z</time>
      </trkpt>
      <trkpt lat="46.88429" lon="3.1635">
        <ele>195.19999694824</ele>
        <time>2022-06-25T03:57:38.000Z</time>
      </trkpt>
      <trkpt lat="46.88386" lon="3.1631">
        <ele>195.60000610352</ele>
        <time>2022-06-25T03:57:45.000Z</time>
      </trkpt>
      <trkpt lat="46.88365" lon="3.16272">
        <ele>196</ele>
        <time>2022-06-25T03:57:50.000Z</time>
      </trkpt>
      <trkpt lat="46.88356" lon="3.16241">
        <ele>197</ele>
        <time>2022-06-25T03:57:54.000Z</time>
      </trkpt>
      <trkpt lat="46.88354" lon="3.16233">
        <ele>197</ele>
        <time>2022-06-25T03:57:55.000Z</time>
      </trkpt>
      <trkpt lat="46.88349" lon="3.16203">
        <ele>197</ele>
        <time>2022-06-25T03:57:59.000Z</time>
      </trkpt>
      <trkpt lat="46.88349" lon="3.16187">
        <ele>197</ele>
        <time>2022-06-25T03:58:01.000Z</time>
      </trkpt>
      <trkpt lat="46.88348" lon="3.16172">
        <ele>196.60000610352</ele>
        <time>2022-06-25T03:58:03.000Z</time>
      </trkpt>
      <trkpt lat="46.88348" lon="3.16141">
        <ele>196</ele>
        <time>2022-06-25T03:58:07.000Z</time>
      </trkpt>
      <trkpt lat="46.88348" lon="3.16117">
        <ele>196</ele>
        <time>2022-06-25T03:58:10.000Z</time>
      </trkpt>
      <trkpt lat="46.88349" lon="3.16085">
        <ele>196.60000610352</ele>
        <time>2022-06-25T03:58:14.000Z</time>
      </trkpt>
      <trkpt lat="46.88349" lon="3.16032">
        <ele>198.19999694824</ele>
        <time>2022-06-25T03:58:20.000Z</time>
      </trkpt>
      <trkpt lat="46.88351" lon="3.15944">
        <ele>201.60000610352</ele>
        <time>2022-06-25T03:58:29.000Z</time>
      </trkpt>
      <trkpt lat="46.88356" lon="3.15871">
        <ele>204.60000610352</ele>
        <time>2022-06-25T03:58:36.000Z</time>
      </trkpt>
      <trkpt lat="46.88363" lon="3.15818">
        <ele>203.19999694824</ele>
        <time>2022-06-25T03:58:41.000Z</time>
      </trkpt>
      <trkpt lat="46.88366" lon="3.15786">
        <ele>202</ele>
        <time>2022-06-25T03:58:44.000Z</time>
      </trkpt>
      <trkpt lat="46.88367" lon="3.15766">
        <ele>200.80000305176</ele>
        <time>2022-06-25T03:58:46.000Z</time>
      </trkpt>
      <trkpt lat="46.88367" lon="3.15756">
        <ele>200.39999389648</ele>
        <time>2022-06-25T03:58:47.000Z</time>
      </trkpt>
      <trkpt lat="46.88368" lon="3.15718">
        <ele>199.19999694824</ele>
        <time>2022-06-25T03:58:51.000Z</time>
      </trkpt>
      <trkpt lat="46.88369" lon="3.15673">
        <ele>199</ele>
        <time>2022-06-25T03:58:56.000Z</time>
      </trkpt>
      <trkpt lat="46.88373" lon="3.15628">
        <ele>199</ele>
        <time>2022-06-25T03:59:01.000Z</time>
      </trkpt>
      <trkpt lat="46.88388" lon="3.15575">
        <ele>199</ele>
        <time>2022-06-25T03:59:07.000Z</time>
      </trkpt>
      <trkpt lat="46.88405" lon="3.15508">
        <ele>199.19999694824</ele>
        <time>2022-06-25T03:59:15.000Z</time>
      </trkpt>
      <trkpt lat="46.88411" lon="3.15476">
        <ele>200</ele>
        <time>2022-06-25T03:59:20.000Z</time>
      </trkpt>
      <trkpt lat="46.88416" lon="3.15442">
        <ele>201.39999389648</ele>
        <time>2022-06-25T03:59:25.000Z</time>
      </trkpt>
      <trkpt lat="46.88422" lon="3.15383">
        <ele>203</ele>
        <time>2022-06-25T03:59:32.000Z</time>
      </trkpt>
      <trkpt lat="46.88424" lon="3.15366">
        <ele>203</ele>
        <time>2022-06-25T03:59:34.000Z</time>
      </trkpt>
      <trkpt lat="46.88427" lon="3.15324">
        <ele>204</ele>
        <time>2022-06-25T03:59:39.000Z</time>
      </trkpt>
      <trkpt lat="46.88425" lon="3.15307">
        <ele>204</ele>
        <time>2022-06-25T03:59:41.000Z</time>
      </trkpt>
      <trkpt lat="46.88418" lon="3.15259">
        <ele>205.39999389648</ele>
        <time>2022-06-25T03:59:47.000Z</time>
      </trkpt>
      <trkpt lat="46.88415" lon="3.15237">
        <ele>205</ele>
        <time>2022-06-25T03:59:50.000Z</time>
      </trkpt>
      <trkpt lat="46.8841" lon="3.15215">
        <ele>205.19999694824</ele>
        <time>2022-06-25T03:59:53.000Z</time>
      </trkpt>
      <trkpt lat="46.88408" lon="3.15201">
        <ele>205.39999389648</ele>
        <time>2022-06-25T03:59:55.000Z</time>
      </trkpt>
      <trkpt lat="46.88407" lon="3.15193">
        <ele>205.39999389648</ele>
        <time>2022-06-25T03:59:56.000Z</time>
      </trkpt>
      <trkpt lat="46.88405" lon="3.15171">
        <ele>206.39999389648</ele>
        <time>2022-06-25T03:59:59.000Z</time>
      </trkpt>
      <trkpt lat="46.88402" lon="3.15153">
        <ele>206.80000305176</ele>
        <time>2022-06-25T04:00:02.000Z</time>
      </trkpt>
      <trkpt lat="46.88399" lon="3.15137">
        <ele>207</ele>
        <time>2022-06-25T04:00:06.000Z</time>
      </trkpt>
      <trkpt lat="46.884" lon="3.15132">
        <ele>207</ele>
        <time>2022-06-25T04:00:07.000Z</time>
      </trkpt>
      <trkpt lat="46.88404" lon="3.15122">
        <ele>206.60000610352</ele>
        <time>2022-06-25T04:00:09.000Z</time>
      </trkpt>
      <trkpt lat="46.88406" lon="3.15116">
        <ele>206.19999694824</ele>
        <time>2022-06-25T04:00:10.000Z</time>
      </trkpt>
      <trkpt lat="46.88414" lon="3.15077">
        <ele>205.39999389648</ele>
        <time>2022-06-25T04:00:16.000Z</time>
      </trkpt>
      <trkpt lat="46.88418" lon="3.15063">
        <ele>205</ele>
        <time>2022-06-25T04:00:18.000Z</time>
      </trkpt>
      <trkpt lat="46.88428" lon="3.15024">
        <ele>204</ele>
        <time>2022-06-25T04:00:23.000Z</time>
      </trkpt>
      <trkpt lat="46.88439" lon="3.14975">
        <ele>205</ele>
        <time>2022-06-25T04:00:29.000Z</time>
      </trkpt>
      <trkpt lat="46.88438" lon="3.14966">
        <ele>205</ele>
        <time>2022-06-25T04:00:30.000Z</time>
      </trkpt>
      <trkpt lat="46.88434" lon="3.14891">
        <ele>205.80000305176</ele>
        <time>2022-06-25T04:00:39.000Z</time>
      </trkpt>
      <trkpt lat="46.88433" lon="3.14875">
        <ele>206.39999389648</ele>
        <time>2022-06-25T04:00:41.000Z</time>
      </trkpt>
      <trkpt lat="46.88429" lon="3.14862">
        <ele>206.60000610352</ele>
        <time>2022-06-25T04:00:43.000Z</time>
      </trkpt>
      <trkpt lat="46.88426" lon="3.14857">
        <ele>206.80000305176</ele>
        <time>2022-06-25T04:00:44.000Z</time>
      </trkpt>
      <trkpt lat="46.88423" lon="3.14853">
        <ele>206.80000305176</ele>
        <time>2022-06-25T04:00:45.000Z</time>
      </trkpt>
      <trkpt lat="46.88415" lon="3.14847">
        <ele>206.80000305176</ele>
        <time>2022-06-25T04:00:47.000Z</time>
      </trkpt>
      <trkpt lat="46.88411" lon="3.14845">
        <ele>206.60000610352</ele>
        <time>2022-06-25T04:00:48.000Z</time>
      </trkpt>
      <trkpt lat="46.88407" lon="3.14844">
        <ele>206.60000610352</ele>
        <time>2022-06-25T04:00:49.000Z</time>
      </trkpt>
      <trkpt lat="46.88403" lon="3.14843">
        <ele>206.39999389648</ele>
        <time>2022-06-25T04:00:51.000Z</time>
      </trkpt>
      <trkpt lat="46.88403" lon="3.14843">
        <ele>206.39999389648</ele>
        <time>2022-06-25T04:00:52.000Z</time>
      </trkpt>
      <trkpt lat="46.88401" lon="3.14842">
        <ele>206.39999389648</ele>
        <time>2022-06-25T04:00:55.000Z</time>
      </trkpt>
      <trkpt lat="46.88399" lon="3.14842">
        <ele>206.39999389648</ele>
        <time>2022-06-25T04:00:57.000Z</time>
      </trkpt>
      <trkpt lat="46.88399" lon="3.14842">
        <ele>206.39999389648</ele>
        <time>2022-06-25T04:01:05.000Z</time>
      </trkpt>
      <trkpt lat="46.884" lon="3.14843">
        <ele>206.39999389648</ele>
        <time>2022-06-25T04:02:26.000Z</time>
      </trkpt>
      <trkpt lat="46.88406" lon="3.14846">
        <ele>206.39999389648</ele>
        <time>2022-06-25T04:02:29.000Z</time>
      </trkpt>
      <trkpt lat="46.8842" lon="3.14854">
        <ele>206.60000610352</ele>
        <time>2022-06-25T04:02:35.000Z</time>
      </trkpt>
      <trkpt lat="46.88427" lon="3.14868">
        <ele>206.39999389648</ele>
        <time>2022-06-25T04:02:41.000Z</time>
      </trkpt>
      <trkpt lat="46.8843" lon="3.14891">
        <ele>205.60000610352</ele>
        <time>2022-06-25T04:02:48.000Z</time>
      </trkpt>
      <trkpt lat="46.88431" lon="3.14916">
        <ele>205.19999694824</ele>
        <time>2022-06-25T04:02:53.000Z</time>
      </trkpt>
      <trkpt lat="46.88433" lon="3.14956">
        <ele>205</ele>
        <time>2022-06-25T04:02:59.000Z</time>
      </trkpt>
      <trkpt lat="46.88437" lon="3.14977">
        <ele>205</ele>
        <time>2022-06-25T04:03:02.000Z</time>
      </trkpt>
      <trkpt lat="46.88437" lon="3.14984">
        <ele>205</ele>
        <time>2022-06-25T04:03:03.000Z</time>
      </trkpt>
      <trkpt lat="46.88435" lon="3.14991">
        <ele>205</ele>
        <time>2022-06-25T04:03:04.000Z</time>
      </trkpt>
      <trkpt lat="46.88427" lon="3.15018">
        <ele>204</ele>
        <time>2022-06-25T04:03:08.000Z</time>
      </trkpt>
      <trkpt lat="46.88414" lon="3.15068">
        <ele>205.19999694824</ele>
        <time>2022-06-25T04:03:15.000Z</time>
      </trkpt>
      <trkpt lat="46.88409" lon="3.15095">
        <ele>205.60000610352</ele>
        <time>2022-06-25T04:03:19.000Z</time>
      </trkpt>
      <trkpt lat="46.88405" lon="3.15114">
        <ele>206.19999694824</ele>
        <time>2022-06-25T04:03:22.000Z</time>
      </trkpt>
      <trkpt lat="46.88401" lon="3.15124">
        <ele>206.80000305176</ele>
        <time>2022-06-25T04:03:24.000Z</time>
      </trkpt>
      <trkpt lat="46.88396" lon="3.15138">
        <ele>207.19999694824</ele>
        <time>2022-06-25T04:03:27.000Z</time>
      </trkpt>
      <trkpt lat="46.88395" lon="3.15143">
        <ele>207.19999694824</ele>
        <time>2022-06-25T04:03:28.000Z</time>
      </trkpt>
      <trkpt lat="46.88396" lon="3.15148">
        <ele>207.19999694824</ele>
        <time>2022-06-25T04:03:29.000Z</time>
      </trkpt>
      <trkpt lat="46.88397" lon="3.15153">
        <ele>207</ele>
        <time>2022-06-25T04:03:30.000Z</time>
      </trkpt>
      <trkpt lat="46.88402" lon="3.15165">
        <ele>206.60000610352</ele>
        <time>2022-06-25T04:03:32.000Z</time>
      </trkpt>
      <trkpt lat="46.88404" lon="3.15181">
        <ele>206</ele>
        <time>2022-06-25T04:03:34.000Z</time>
      </trkpt>
      <trkpt lat="46.88409" lon="3.15227">
        <ele>205.39999389648</ele>
        <time>2022-06-25T04:03:39.000Z</time>
      </trkpt>
      <trkpt lat="46.88411" lon="3.15237">
        <ele>205.19999694824</ele>
        <time>2022-06-25T04:03:40.000Z</time>
      </trkpt>
      <trkpt lat="46.88415" lon="3.15257">
        <ele>205.39999389648</ele>
        <time>2022-06-25T04:03:42.000Z</time>
      </trkpt>
      <trkpt lat="46.88416" lon="3.15267">
        <ele>205.39999389648</ele>
        <time>2022-06-25T04:03:43.000Z</time>
      </trkpt>
      <trkpt lat="46.88417" lon="3.15277">
        <ele>205</ele>
        <time>2022-06-25T04:03:44.000Z</time>
      </trkpt>
      <trkpt lat="46.8842" lon="3.15297">
        <ele>204.19999694824</ele>
        <time>2022-06-25T04:03:46.000Z</time>
      </trkpt>
      <trkpt lat="46.88423" lon="3.15328">
        <ele>203.80000305176</ele>
        <time>2022-06-25T04:03:49.000Z</time>
      </trkpt>
      <trkpt lat="46.88422" lon="3.15338">
        <ele>203.39999389648</ele>
        <time>2022-06-25T04:03:50.000Z</time>
      </trkpt>
      <trkpt lat="46.88419" lon="3.15387">
        <ele>203</ele>
        <time>2022-06-25T04:03:55.000Z</time>
      </trkpt>
      <trkpt lat="46.88416" lon="3.15414">
        <ele>202.39999389648</ele>
        <time>2022-06-25T04:03:58.000Z</time>
      </trkpt>
      <trkpt lat="46.88412" lon="3.15446">
        <ele>201.19999694824</ele>
        <time>2022-06-25T04:04:02.000Z</time>
      </trkpt>
      <trkpt lat="46.88411" lon="3.15452">
        <ele>201</ele>
        <time>2022-06-25T04:04:03.000Z</time>
      </trkpt>
      <trkpt lat="46.8841" lon="3.15455">
        <ele>200.80000305176</ele>
        <time>2022-06-25T04:04:04.000Z</time>
      </trkpt>
      <trkpt lat="46.88408" lon="3.15461">
        <ele>200.80000305176</ele>
        <time>2022-06-25T04:04:06.000Z</time>
      </trkpt>
      <trkpt lat="46.88403" lon="3.15482">
        <ele>200.19999694824</ele>
        <time>2022-06-25T04:04:10.000Z</time>
      </trkpt>
      <trkpt lat="46.88399" lon="3.15516">
        <ele>199</ele>
        <time>2022-06-25T04:04:14.000Z</time>
      </trkpt>
      <trkpt lat="46.88385" lon="3.15572">
        <ele>199</ele>
        <time>2022-06-25T04:04:20.000Z</time>
      </trkpt>
      <trkpt lat="46.88382" lon="3.15581">
        <ele>198.80000305176</ele>
        <time>2022-06-25T04:04:21.000Z</time>
      </trkpt>
      <trkpt lat="46.88368" lon="3.15632">
        <ele>199</ele>
        <time>2022-06-25T04:04:27.000Z</time>
      </trkpt>
      <trkpt lat="46.88365" lon="3.15678">
        <ele>199</ele>
        <time>2022-06-25T04:04:32.000Z</time>
      </trkpt>
      <trkpt lat="46.88362" lon="3.15739">
        <ele>199.60000610352</ele>
        <time>2022-06-25T04:04:39.000Z</time>
      </trkpt>
      <trkpt lat="46.88359" lon="3.15813">
        <ele>202.60000610352</ele>
        <time>2022-06-25T04:04:47.000Z</time>
      </trkpt>
      <trkpt lat="46.88351" lon="3.15878">
        <ele>204.39999389648</ele>
        <time>2022-06-25T04:04:55.000Z</time>
      </trkpt>
      <trkpt lat="46.88348" lon="3.15917">
        <ele>202.80000305176</ele>
        <time>2022-06-25T04:05:00.000Z</time>
      </trkpt>
      <trkpt lat="46.88347" lon="3.15925">
        <ele>202.39999389648</ele>
        <time>2022-06-25T04:05:01.000Z</time>
      </trkpt>
      <trkpt lat="46.88346" lon="3.15941">
        <ele>201.80000305176</ele>
        <time>2022-06-25T04:05:03.000Z</time>
      </trkpt>
      <trkpt lat="46.88346" lon="3.15956">
        <ele>201.19999694824</ele>
        <time>2022-06-25T04:05:05.000Z</time>
      </trkpt>
      <trkpt lat="46.88345" lon="3.15972">
        <ele>200.60000610352</ele>
        <time>2022-06-25T04:05:07.000Z</time>
      </trkpt>
      <trkpt lat="46.88345" lon="3.15996">
        <ele>199.80000305176</ele>
        <time>2022-06-25T04:05:10.000Z</time>
      </trkpt>
      <trkpt lat="46.88345" lon="3.16004">
        <ele>199.39999389648</ele>
        <time>2022-06-25T04:05:11.000Z</time>
      </trkpt>
      <trkpt lat="46.88345" lon="3.16035">
        <ele>198.39999389648</ele>
        <time>2022-06-25T04:05:15.000Z</time>
      </trkpt>
      <trkpt lat="46.88345" lon="3.16043">
        <ele>198</ele>
        <time>2022-06-25T04:05:16.000Z</time>
      </trkpt>
      <trkpt lat="46.88345" lon="3.16098">
        <ele>196.19999694824</ele>
        <time>2022-06-25T04:05:23.000Z</time>
      </trkpt>
      <trkpt lat="46.88345" lon="3.16141">
        <ele>196</ele>
        <time>2022-06-25T04:05:28.000Z</time>
      </trkpt>
      <trkpt lat="46.88346" lon="3.16217">
        <ele>197</ele>
        <time>2022-06-25T04:05:36.000Z</time>
      </trkpt>
      <trkpt lat="46.88349" lon="3.16237">
        <ele>197</ele>
        <time>2022-06-25T04:05:38.000Z</time>
      </trkpt>
      <trkpt lat="46.88357" lon="3.16266">
        <ele>196</ele>
        <time>2022-06-25T04:05:41.000Z</time>
      </trkpt>
      <trkpt lat="46.88364" lon="3.16285">
        <ele>196</ele>
        <time>2022-06-25T04:05:43.000Z</time>
      </trkpt>
      <trkpt lat="46.88379" lon="3.16311">
        <ele>195.39999389648</ele>
        <time>2022-06-25T04:05:46.000Z</time>
      </trkpt>
      <trkpt lat="46.88402" lon="3.16338">
        <ele>194.60000610352</ele>
        <time>2022-06-25T04:05:50.000Z</time>
      </trkpt>
      <trkpt lat="46.88409" lon="3.16343">
        <ele>194.60000610352</ele>
        <time>2022-06-25T04:05:51.000Z</time>
      </trkpt>
      <trkpt lat="46.88433" lon="3.16362">
        <ele>195.19999694824</ele>
        <time>2022-06-25T04:05:55.000Z</time>
      </trkpt>
      <trkpt lat="46.8845" lon="3.16375">
        <ele>195.80000305176</ele>
        <time>2022-06-25T04:05:58.000Z</time>
      </trkpt>
      <trkpt lat="46.88493" lon="3.16408">
        <ele>196</ele>
        <time>2022-06-25T04:06:06.000Z</time>
      </trkpt>
      <trkpt lat="46.88547" lon="3.16447">
        <ele>196.80000305176</ele>
        <time>2022-06-25T04:06:16.000Z</time>
      </trkpt>
      <trkpt lat="46.88552" lon="3.16451">
        <ele>196.80000305176</ele>
        <time>2022-06-25T04:06:17.000Z</time>
      </trkpt>
      <trkpt lat="46.88599" lon="3.16486">
        <ele>197.60000610352</ele>
        <time>2022-06-25T04:06:26.000Z</time>
      </trkpt>
      <trkpt lat="46.88648" lon="3.1652">
        <ele>198.80000305176</ele>
        <time>2022-06-25T04:06:35.000Z</time>
      </trkpt>
      <trkpt lat="46.88654" lon="3.16524">
        <ele>199</ele>
        <time>2022-06-25T04:06:36.000Z</time>
      </trkpt>
      <trkpt lat="46.88659" lon="3.16528">
        <ele>199</ele>
        <time>2022-06-25T04:06:37.000Z</time>
      </trkpt>
      <trkpt lat="46.88712" lon="3.16564">
        <ele>199</ele>
        <time>2022-06-25T04:06:47.000Z</time>
      </trkpt>
      <trkpt lat="46.88753" lon="3.16593">
        <ele>199</ele>
        <time>2022-06-25T04:06:55.000Z</time>
      </trkpt>
      <trkpt lat="46.88778" lon="3.16615">
        <ele>199</ele>
        <time>2022-06-25T04:07:00.000Z</time>
      </trkpt>
      <trkpt lat="46.88793" lon="3.16631">
        <ele>199</ele>
        <time>2022-06-25T04:07:03.000Z</time>
      </trkpt>
      <trkpt lat="46.88828" lon="3.16676">
        <ele>199</ele>
        <time>2022-06-25T04:07:11.000Z</time>
      </trkpt>
      <trkpt lat="46.88855" lon="3.16709">
        <ele>199.39999389648</ele>
        <time>2022-06-25T04:07:17.000Z</time>
      </trkpt>
      <trkpt lat="46.88859" lon="3.16715">
        <ele>199.60000610352</ele>
        <time>2022-06-25T04:07:18.000Z</time>
      </trkpt>
      <trkpt lat="46.88876" lon="3.16737">
        <ele>199.80000305176</ele>
        <time>2022-06-25T04:07:22.000Z</time>
      </trkpt>
      <trkpt lat="46.88901" lon="3.16769">
        <ele>200</ele>
        <time>2022-06-25T04:07:28.000Z</time>
      </trkpt>
      <trkpt lat="46.88917" lon="3.16791">
        <ele>199.80000305176</ele>
        <time>2022-06-25T04:07:32.000Z</time>
      </trkpt>
      <trkpt lat="46.88945" lon="3.16831">
        <ele>199.39999389648</ele>
        <time>2022-06-25T04:07:39.000Z</time>
      </trkpt>
      <trkpt lat="46.88983" lon="3.16894">
        <ele>198.60000610352</ele>
        <time>2022-06-25T04:07:49.000Z</time>
      </trkpt>
      <trkpt lat="46.88991" lon="3.16906">
        <ele>199.19999694824</ele>
        <time>2022-06-25T04:07:51.000Z</time>
      </trkpt>
      <trkpt lat="46.89029" lon="3.16968">
        <ele>201.60000610352</ele>
        <time>2022-06-25T04:08:01.000Z</time>
      </trkpt>
      <trkpt lat="46.89044" lon="3.16993">
        <ele>202</ele>
        <time>2022-06-25T04:08:05.000Z</time>
      </trkpt>
      <trkpt lat="46.89048" lon="3.17">
        <ele>202</ele>
        <time>2022-06-25T04:08:06.000Z</time>
      </trkpt>
      <trkpt lat="46.89085" lon="3.1706">
        <ele>202.60000610352</ele>
        <time>2022-06-25T04:08:16.000Z</time>
      </trkpt>
      <trkpt lat="46.89096" lon="3.17078">
        <ele>202.80000305176</ele>
        <time>2022-06-25T04:08:19.000Z</time>
      </trkpt>
      <trkpt lat="46.89132" lon="3.17138">
        <ele>202</ele>
        <time>2022-06-25T04:08:29.000Z</time>
      </trkpt>
      <trkpt lat="46.89143" lon="3.17156">
        <ele>201.80000305176</ele>
        <time>2022-06-25T04:08:32.000Z</time>
      </trkpt>
      <trkpt lat="46.89173" lon="3.17205">
        <ele>202</ele>
        <time>2022-06-25T04:08:40.000Z</time>
      </trkpt>
      <trkpt lat="46.89211" lon="3.17268">
        <ele>202.19999694824</ele>
        <time>2022-06-25T04:08:50.000Z</time>
      </trkpt>
      <trkpt lat="46.89223" lon="3.17286">
        <ele>202.60000610352</ele>
        <time>2022-06-25T04:08:53.000Z</time>
      </trkpt>
      <trkpt lat="46.89257" lon="3.17343">
        <ele>203</ele>
        <time>2022-06-25T04:09:02.000Z</time>
      </trkpt>
      <trkpt lat="46.89295" lon="3.17405">
        <ele>201.39999389648</ele>
        <time>2022-06-25T04:09:12.000Z</time>
      </trkpt>
      <trkpt lat="46.89306" lon="3.17423">
        <ele>201.60000610352</ele>
        <time>2022-06-25T04:09:15.000Z</time>
      </trkpt>
      <trkpt lat="46.89315" lon="3.17444">
        <ele>201.60000610352</ele>
        <time>2022-06-25T04:09:18.000Z</time>
      </trkpt>
      <trkpt lat="46.89324" lon="3.17466">
        <ele>201.39999389648</ele>
        <time>2022-06-25T04:09:21.000Z</time>
      </trkpt>
      <trkpt lat="46.89347" lon="3.17534">
        <ele>203</ele>
        <time>2022-06-25T04:09:30.000Z</time>
      </trkpt>
      <trkpt lat="46.89362" lon="3.17606">
        <ele>204.80000305176</ele>
        <time>2022-06-25T04:09:39.000Z</time>
      </trkpt>
      <trkpt lat="46.89367" lon="3.17656">
        <ele>205.60000610352</ele>
        <time>2022-06-25T04:09:45.000Z</time>
      </trkpt>
      <trkpt lat="46.89368" lon="3.17672">
        <ele>205.60000610352</ele>
        <time>2022-06-25T04:09:47.000Z</time>
      </trkpt>
      <trkpt lat="46.89367" lon="3.17746">
        <ele>203.80000305176</ele>
        <time>2022-06-25T04:09:56.000Z</time>
      </trkpt>
      <trkpt lat="46.89359" lon="3.17813">
        <ele>205</ele>
        <time>2022-06-25T04:10:04.000Z</time>
      </trkpt>
      <trkpt lat="46.89348" lon="3.17877">
        <ele>206</ele>
        <time>2022-06-25T04:10:12.000Z</time>
      </trkpt>
      <trkpt lat="46.89346" lon="3.17885">
        <ele>206.19999694824</ele>
        <time>2022-06-25T04:10:13.000Z</time>
      </trkpt>
      <trkpt lat="46.89334" lon="3.17948">
        <ele>207.39999389648</ele>
        <time>2022-06-25T04:10:21.000Z</time>
      </trkpt>
      <trkpt lat="46.89319" lon="3.18028">
        <ele>207.60000610352</ele>
        <time>2022-06-25T04:10:31.000Z</time>
      </trkpt>
      <trkpt lat="46.89312" lon="3.18093">
        <ele>206.19999694824</ele>
        <time>2022-06-25T04:10:39.000Z</time>
      </trkpt>
      <trkpt lat="46.89311" lon="3.18102">
        <ele>206</ele>
        <time>2022-06-25T04:10:40.000Z</time>
      </trkpt>
      <trkpt lat="46.89313" lon="3.1817">
        <ele>205.39999389648</ele>
        <time>2022-06-25T04:10:48.000Z</time>
      </trkpt>
      <trkpt lat="46.89322" lon="3.18236">
        <ele>206.80000305176</ele>
        <time>2022-06-25T04:10:56.000Z</time>
      </trkpt>
      <trkpt lat="46.89342" lon="3.18305">
        <ele>207.39999389648</ele>
        <time>2022-06-25T04:11:05.000Z</time>
      </trkpt>
      <trkpt lat="46.89345" lon="3.18313">
        <ele>207.60000610352</ele>
        <time>2022-06-25T04:11:06.000Z</time>
      </trkpt>
      <trkpt lat="46.89364" lon="3.18353">
        <ele>208.39999389648</ele>
        <time>2022-06-25T04:11:12.000Z</time>
      </trkpt>
      <trkpt lat="46.89381" lon="3.18384">
        <ele>209.60000610352</ele>
        <time>2022-06-25T04:11:17.000Z</time>
      </trkpt>
      <trkpt lat="46.89395" lon="3.18408">
        <ele>209.19999694824</ele>
        <time>2022-06-25T04:11:21.000Z</time>
      </trkpt>
      <trkpt lat="46.89408" lon="3.18432">
        <ele>209.19999694824</ele>
        <time>2022-06-25T04:11:25.000Z</time>
      </trkpt>
      <trkpt lat="46.89425" lon="3.18462">
        <ele>210</ele>
        <time>2022-06-25T04:11:30.000Z</time>
      </trkpt>
      <trkpt lat="46.89428" lon="3.18469">
        <ele>210.39999389648</ele>
        <time>2022-06-25T04:11:31.000Z</time>
      </trkpt>
      <trkpt lat="46.89446" lon="3.185">
        <ele>213</ele>
        <time>2022-06-25T04:11:36.000Z</time>
      </trkpt>
      <trkpt lat="46.89453" lon="3.18512">
        <ele>213.60000610352</ele>
        <time>2022-06-25T04:11:38.000Z</time>
      </trkpt>
      <trkpt lat="46.89466" lon="3.18534">
        <ele>215</ele>
        <time>2022-06-25T04:11:42.000Z</time>
      </trkpt>
      <trkpt lat="46.89469" lon="3.1854">
        <ele>215.60000610352</ele>
        <time>2022-06-25T04:11:43.000Z</time>
      </trkpt>
      <trkpt lat="46.89478" lon="3.18556">
        <ele>216.60000610352</ele>
        <time>2022-06-25T04:11:46.000Z</time>
      </trkpt>
      <trkpt lat="46.89485" lon="3.18566">
        <ele>217.39999389648</ele>
        <time>2022-06-25T04:11:48.000Z</time>
      </trkpt>
      <trkpt lat="46.89491" lon="3.18576">
        <ele>218.19999694824</ele>
        <time>2022-06-25T04:11:50.000Z</time>
      </trkpt>
      <trkpt lat="46.895" lon="3.18593">
        <ele>219.39999389648</ele>
        <time>2022-06-25T04:11:53.000Z</time>
      </trkpt>
      <trkpt lat="46.89511" lon="3.18614">
        <ele>220.39999389648</ele>
        <time>2022-06-25T04:11:57.000Z</time>
      </trkpt>
      <trkpt lat="46.89526" lon="3.18641">
        <ele>221.39999389648</ele>
        <time>2022-06-25T04:12:02.000Z</time>
      </trkpt>
      <trkpt lat="46.89539" lon="3.18662">
        <ele>222</ele>
        <time>2022-06-25T04:12:06.000Z</time>
      </trkpt>
      <trkpt lat="46.89558" lon="3.18698">
        <ele>221.80000305176</ele>
        <time>2022-06-25T04:12:12.000Z</time>
      </trkpt>
      <trkpt lat="46.89564" lon="3.18709">
        <ele>222</ele>
        <time>2022-06-25T04:12:14.000Z</time>
      </trkpt>
      <trkpt lat="46.89581" lon="3.18738">
        <ele>223.19999694824</ele>
        <time>2022-06-25T04:12:19.000Z</time>
      </trkpt>
      <trkpt lat="46.89612" lon="3.18792">
        <ele>223.39999389648</ele>
        <time>2022-06-25T04:12:28.000Z</time>
      </trkpt>
      <trkpt lat="46.89644" lon="3.18849">
        <ele>221.19999694824</ele>
        <time>2022-06-25T04:12:37.000Z</time>
      </trkpt>
      <trkpt lat="46.89682" lon="3.18916">
        <ele>221.19999694824</ele>
        <time>2022-06-25T04:12:47.000Z</time>
      </trkpt>
      <trkpt lat="46.89686" lon="3.18923">
        <ele>221.60000610352</ele>
        <time>2022-06-25T04:12:48.000Z</time>
      </trkpt>
      <trkpt lat="46.89725" lon="3.18989">
        <ele>222</ele>
        <time>2022-06-25T04:12:58.000Z</time>
      </trkpt>
      <trkpt lat="46.89759" lon="3.1905">
        <ele>221.80000305176</ele>
        <time>2022-06-25T04:13:07.000Z</time>
      </trkpt>
      <trkpt lat="46.89763" lon="3.19057">
        <ele>221.60000610352</ele>
        <time>2022-06-25T04:13:08.000Z</time>
      </trkpt>
      <trkpt lat="46.89775" lon="3.19079">
        <ele>221</ele>
        <time>2022-06-25T04:13:11.000Z</time>
      </trkpt>
      <trkpt lat="46.89811" lon="3.19142">
        <ele>221</ele>
        <time>2022-06-25T04:13:20.000Z</time>
      </trkpt>
      <trkpt lat="46.89816" lon="3.19149">
        <ele>221</ele>
        <time>2022-06-25T04:13:21.000Z</time>
      </trkpt>
      <trkpt lat="46.89845" lon="3.19199">
        <ele>220</ele>
        <time>2022-06-25T04:13:28.000Z</time>
      </trkpt>
      <trkpt lat="46.89866" lon="3.19237">
        <ele>220</ele>
        <time>2022-06-25T04:13:33.000Z</time>
      </trkpt>
      <trkpt lat="46.89879" lon="3.19259">
        <ele>219.39999389648</ele>
        <time>2022-06-25T04:13:36.000Z</time>
      </trkpt>
      <trkpt lat="46.89904" lon="3.19308">
        <ele>218.19999694824</ele>
        <time>2022-06-25T04:13:42.000Z</time>
      </trkpt>
      <trkpt lat="46.89908" lon="3.19317">
        <ele>217.60000610352</ele>
        <time>2022-06-25T04:13:43.000Z</time>
      </trkpt>
      <trkpt lat="46.89922" lon="3.19352">
        <ele>216</ele>
        <time>2022-06-25T04:13:47.000Z</time>
      </trkpt>
      <trkpt lat="46.89935" lon="3.19388">
        <ele>215</ele>
        <time>2022-06-25T04:13:51.000Z</time>
      </trkpt>
      <trkpt lat="46.89939" lon="3.19399">
        <ele>215</ele>
        <time>2022-06-25T04:13:52.000Z</time>
      </trkpt>
      <trkpt lat="46.89956" lon="3.19446">
        <ele>213.60000610352</ele>
        <time>2022-06-25T04:13:57.000Z</time>
      </trkpt>
      <trkpt lat="46.89973" lon="3.19495">
        <ele>211.39999389648</ele>
        <time>2022-06-25T04:14:02.000Z</time>
      </trkpt>
      <trkpt lat="46.89977" lon="3.19504">
        <ele>211.19999694824</ele>
        <time>2022-06-25T04:14:03.000Z</time>
      </trkpt>
      <trkpt lat="46.89994" lon="3.19551">
        <ele>211</ele>
        <time>2022-06-25T04:14:08.000Z</time>
      </trkpt>
      <trkpt lat="46.90004" lon="3.19579">
        <ele>211</ele>
        <time>2022-06-25T04:14:11.000Z</time>
      </trkpt>
      <trkpt lat="46.90022" lon="3.19628">
        <ele>212</ele>
        <time>2022-06-25T04:14:17.000Z</time>
      </trkpt>
      <trkpt lat="46.90039" lon="3.19678">
        <ele>212.80000305176</ele>
        <time>2022-06-25T04:14:24.000Z</time>
      </trkpt>
      <trkpt lat="46.90049" lon="3.19703">
        <ele>213.39999389648</ele>
        <time>2022-06-25T04:14:28.000Z</time>
      </trkpt>
      <trkpt lat="46.90054" lon="3.19719">
        <ele>213.80000305176</ele>
        <time>2022-06-25T04:14:30.000Z</time>
      </trkpt>
      <trkpt lat="46.90057" lon="3.19726">
        <ele>214</ele>
        <time>2022-06-25T04:14:31.000Z</time>
      </trkpt>
      <trkpt lat="46.90062" lon="3.1974">
        <ele>214.80000305176</ele>
        <time>2022-06-25T04:14:33.000Z</time>
      </trkpt>
      <trkpt lat="46.90067" lon="3.19754">
        <ele>215</ele>
        <time>2022-06-25T04:14:35.000Z</time>
      </trkpt>
      <trkpt lat="46.9008" lon="3.19789">
        <ele>215</ele>
        <time>2022-06-25T04:14:40.000Z</time>
      </trkpt>
      <trkpt lat="46.9009" lon="3.19819">
        <ele>214.19999694824</ele>
        <time>2022-06-25T04:14:44.000Z</time>
      </trkpt>
      <trkpt lat="46.90117" lon="3.19893">
        <ele>212.19999694824</ele>
        <time>2022-06-25T04:14:53.000Z</time>
      </trkpt>
      <trkpt lat="46.90123" lon="3.19909">
        <ele>212</ele>
        <time>2022-06-25T04:14:55.000Z</time>
      </trkpt>
      <trkpt lat="46.90134" lon="3.1994">
        <ele>212.80000305176</ele>
        <time>2022-06-25T04:14:59.000Z</time>
      </trkpt>
      <trkpt lat="46.90157" lon="3.20003">
        <ele>213.60000610352</ele>
        <time>2022-06-25T04:15:06.000Z</time>
      </trkpt>
      <trkpt lat="46.90163" lon="3.2002">
        <ele>213.19999694824</ele>
        <time>2022-06-25T04:15:08.000Z</time>
      </trkpt>
      <trkpt lat="46.90188" lon="3.2009">
        <ele>213</ele>
        <time>2022-06-25T04:15:16.000Z</time>
      </trkpt>
      <trkpt lat="46.90195" lon="3.20108">
        <ele>213.19999694824</ele>
        <time>2022-06-25T04:15:18.000Z</time>
      </trkpt>
      <trkpt lat="46.90204" lon="3.20134">
        <ele>214</ele>
        <time>2022-06-25T04:15:21.000Z</time>
      </trkpt>
      <trkpt lat="46.90208" lon="3.20143">
        <ele>214.19999694824</ele>
        <time>2022-06-25T04:15:22.000Z</time>
      </trkpt>
      <trkpt lat="46.90216" lon="3.2016">
        <ele>214.80000305176</ele>
        <time>2022-06-25T04:15:24.000Z</time>
      </trkpt>
      <trkpt lat="46.90226" lon="3.20187">
        <ele>215.80000305176</ele>
        <time>2022-06-25T04:15:27.000Z</time>
      </trkpt>
      <trkpt lat="46.90236" lon="3.20212">
        <ele>215</ele>
        <time>2022-06-25T04:15:30.000Z</time>
      </trkpt>
      <trkpt lat="46.90247" lon="3.20239">
        <ele>213.19999694824</ele>
        <time>2022-06-25T04:15:33.000Z</time>
      </trkpt>
      <trkpt lat="46.90256" lon="3.20259">
        <ele>213</ele>
        <time>2022-06-25T04:15:35.000Z</time>
      </trkpt>
      <trkpt lat="46.90259" lon="3.2027">
        <ele>213</ele>
        <time>2022-06-25T04:15:36.000Z</time>
      </trkpt>
      <trkpt lat="46.90274" lon="3.20313">
        <ele>212.39999389648</ele>
        <time>2022-06-25T04:15:40.000Z</time>
      </trkpt>
      <trkpt lat="46.90279" lon="3.20323">
        <ele>212</ele>
        <time>2022-06-25T04:15:41.000Z</time>
      </trkpt>
      <trkpt lat="46.90289" lon="3.20344">
        <ele>210</ele>
        <time>2022-06-25T04:15:43.000Z</time>
      </trkpt>
      <trkpt lat="46.90293" lon="3.20355">
        <ele>209</ele>
        <time>2022-06-25T04:15:44.000Z</time>
      </trkpt>
      <trkpt lat="46.903" lon="3.20378">
        <ele>207.39999389648</ele>
        <time>2022-06-25T04:15:46.000Z</time>
      </trkpt>
      <trkpt lat="46.90303" lon="3.20389">
        <ele>207</ele>
        <time>2022-06-25T04:15:47.000Z</time>
      </trkpt>
      <trkpt lat="46.90314" lon="3.20422">
        <ele>205.80000305176</ele>
        <time>2022-06-25T04:15:50.000Z</time>
      </trkpt>
      <trkpt lat="46.90326" lon="3.20456">
        <ele>205</ele>
        <time>2022-06-25T04:15:53.000Z</time>
      </trkpt>
      <trkpt lat="46.90333" lon="3.2048">
        <ele>204.60000610352</ele>
        <time>2022-06-25T04:15:55.000Z</time>
      </trkpt>
      <trkpt lat="46.9034" lon="3.20502">
        <ele>204.80000305176</ele>
        <time>2022-06-25T04:15:57.000Z</time>
      </trkpt>
      <trkpt lat="46.90352" lon="3.20532">
        <ele>205.19999694824</ele>
        <time>2022-06-25T04:16:00.000Z</time>
      </trkpt>
      <trkpt lat="46.90363" lon="3.20561">
        <ele>205.80000305176</ele>
        <time>2022-06-25T04:16:03.000Z</time>
      </trkpt>
      <trkpt lat="46.90383" lon="3.20603">
        <ele>204.80000305176</ele>
        <time>2022-06-25T04:16:08.000Z</time>
      </trkpt>
      <trkpt lat="46.90387" lon="3.2061">
        <ele>204.39999389648</ele>
        <time>2022-06-25T04:16:09.000Z</time>
      </trkpt>
      <trkpt lat="46.90406" lon="3.20637">
        <ele>202.39999389648</ele>
        <time>2022-06-25T04:16:13.000Z</time>
      </trkpt>
      <trkpt lat="46.90448" lon="3.20691">
        <ele>201.80000305176</ele>
        <time>2022-06-25T04:16:21.000Z</time>
      </trkpt>
      <trkpt lat="46.90458" lon="3.20704">
        <ele>203.39999389648</ele>
        <time>2022-06-25T04:16:23.000Z</time>
      </trkpt>
      <trkpt lat="46.90503" lon="3.20751">
        <ele>207.60000610352</ele>
        <time>2022-06-25T04:16:31.000Z</time>
      </trkpt>
      <trkpt lat="46.90547" lon="3.20779">
        <ele>206</ele>
        <time>2022-06-25T04:16:38.000Z</time>
      </trkpt>
      <trkpt lat="46.9059" lon="3.20805">
        <ele>205.60000610352</ele>
        <time>2022-06-25T04:16:45.000Z</time>
      </trkpt>
      <trkpt lat="46.90612" lon="3.20819">
        <ele>205.39999389648</ele>
        <time>2022-06-25T04:16:49.000Z</time>
      </trkpt>
      <trkpt lat="46.90627" lon="3.20828">
        <ele>204.80000305176</ele>
        <time>2022-06-25T04:16:52.000Z</time>
      </trkpt>
      <trkpt lat="46.90658" lon="3.20846">
        <ele>204</ele>
        <time>2022-06-25T04:16:58.000Z</time>
      </trkpt>
      <trkpt lat="46.90694" lon="3.20868">
        <ele>205.19999694824</ele>
        <time>2022-06-25T04:17:05.000Z</time>
      </trkpt>
      <trkpt lat="46.9071" lon="3.20877">
        <ele>205.60000610352</ele>
        <time>2022-06-25T04:17:08.000Z</time>
      </trkpt>
      <trkpt lat="46.90765" lon="3.20909">
        <ele>204.80000305176</ele>
        <time>2022-06-25T04:17:18.000Z</time>
      </trkpt>
      <trkpt lat="46.90815" lon="3.20938">
        <ele>203.19999694824</ele>
        <time>2022-06-25T04:17:27.000Z</time>
      </trkpt>
      <trkpt lat="46.90826" lon="3.20946">
        <ele>202.39999389648</ele>
        <time>2022-06-25T04:17:29.000Z</time>
      </trkpt>
      <trkpt lat="46.90872" lon="3.20973">
        <ele>200.60000610352</ele>
        <time>2022-06-25T04:17:37.000Z</time>
      </trkpt>
      <trkpt lat="46.90929" lon="3.21007">
        <ele>201.39999389648</ele>
        <time>2022-06-25T04:17:46.000Z</time>
      </trkpt>
      <trkpt lat="46.90957" lon="3.21024">
        <ele>199</ele>
        <time>2022-06-25T04:17:50.000Z</time>
      </trkpt>
      <trkpt lat="46.90971" lon="3.21033">
        <ele>197.80000305176</ele>
        <time>2022-06-25T04:17:52.000Z</time>
      </trkpt>
      <trkpt lat="46.90987" lon="3.21042">
        <ele>196.60000610352</ele>
        <time>2022-06-25T04:17:54.000Z</time>
      </trkpt>
      <trkpt lat="46.91008" lon="3.2106">
        <ele>195.19999694824</ele>
        <time>2022-06-25T04:17:57.000Z</time>
      </trkpt>
      <trkpt lat="46.91014" lon="3.21067">
        <ele>194.80000305176</ele>
        <time>2022-06-25T04:17:58.000Z</time>
      </trkpt>
      <trkpt lat="46.91047" lon="3.21104">
        <ele>193</ele>
        <time>2022-06-25T04:18:04.000Z</time>
      </trkpt>
      <trkpt lat="46.91073" lon="3.21135">
        <ele>194.39999389648</ele>
        <time>2022-06-25T04:18:09.000Z</time>
      </trkpt>
      <trkpt lat="46.91078" lon="3.21142">
        <ele>194.80000305176</ele>
        <time>2022-06-25T04:18:10.000Z</time>
      </trkpt>
      <trkpt lat="46.91082" lon="3.2115">
        <ele>195.19999694824</ele>
        <time>2022-06-25T04:18:11.000Z</time>
      </trkpt>
      <trkpt lat="46.9109" lon="3.21176">
        <ele>196.39999389648</ele>
        <time>2022-06-25T04:18:14.000Z</time>
      </trkpt>
      <trkpt lat="46.91097" lon="3.21229">
        <ele>196.19999694824</ele>
        <time>2022-06-25T04:18:20.000Z</time>
      </trkpt>
      <trkpt lat="46.911" lon="3.21269">
        <ele>196.60000610352</ele>
        <time>2022-06-25T04:18:25.000Z</time>
      </trkpt>
      <trkpt lat="46.91104" lon="3.21309">
        <ele>197</ele>
        <time>2022-06-25T04:18:30.000Z</time>
      </trkpt>
      <trkpt lat="46.91106" lon="3.21334">
        <ele>197.60000610352</ele>
        <time>2022-06-25T04:18:33.000Z</time>
      </trkpt>
      <trkpt lat="46.91113" lon="3.21408">
        <ele>197.39999389648</ele>
        <time>2022-06-25T04:18:42.000Z</time>
      </trkpt>
      <trkpt lat="46.91117" lon="3.2145">
        <ele>196.39999389648</ele>
        <time>2022-06-25T04:18:47.000Z</time>
      </trkpt>
      <trkpt lat="46.91122" lon="3.215">
        <ele>197</ele>
        <time>2022-06-25T04:18:53.000Z</time>
      </trkpt>
      <trkpt lat="46.9113" lon="3.21583">
        <ele>199.80000305176</ele>
        <time>2022-06-25T04:19:03.000Z</time>
      </trkpt>
      <trkpt lat="46.91135" lon="3.21622">
        <ele>202</ele>
        <time>2022-06-25T04:19:08.000Z</time>
      </trkpt>
      <trkpt lat="46.91141" lon="3.21653">
        <ele>201.60000610352</ele>
        <time>2022-06-25T04:19:12.000Z</time>
      </trkpt>
      <trkpt lat="46.91145" lon="3.21667">
        <ele>201.19999694824</ele>
        <time>2022-06-25T04:19:14.000Z</time>
      </trkpt>
      <trkpt lat="46.91147" lon="3.21675">
        <ele>201.19999694824</ele>
        <time>2022-06-25T04:19:15.000Z</time>
      </trkpt>
      <trkpt lat="46.91154" lon="3.21695">
        <ele>201</ele>
        <time>2022-06-25T04:19:18.000Z</time>
      </trkpt>
      <trkpt lat="46.9116" lon="3.21715">
        <ele>201</ele>
        <time>2022-06-25T04:19:21.000Z</time>
      </trkpt>
      <trkpt lat="46.91171" lon="3.21739">
        <ele>202.19999694824</ele>
        <time>2022-06-25T04:19:25.000Z</time>
      </trkpt>
      <trkpt lat="46.9118" lon="3.21757">
        <ele>203.80000305176</ele>
        <time>2022-06-25T04:19:28.000Z</time>
      </trkpt>
      <trkpt lat="46.91197" lon="3.21783">
        <ele>206.60000610352</ele>
        <time>2022-06-25T04:19:33.000Z</time>
      </trkpt>
      <trkpt lat="46.91201" lon="3.21787">
        <ele>207</ele>
        <time>2022-06-25T04:19:34.000Z</time>
      </trkpt>
      <trkpt lat="46.91218" lon="3.2181">
        <ele>209.60000610352</ele>
        <time>2022-06-25T04:19:39.000Z</time>
      </trkpt>
      <trkpt lat="46.91222" lon="3.21814">
        <ele>210.19999694824</ele>
        <time>2022-06-25T04:19:40.000Z</time>
      </trkpt>
      <trkpt lat="46.91232" lon="3.21825">
        <ele>211.80000305176</ele>
        <time>2022-06-25T04:19:43.000Z</time>
      </trkpt>
      <trkpt lat="46.91243" lon="3.21832">
        <ele>212.60000610352</ele>
        <time>2022-06-25T04:19:46.000Z</time>
      </trkpt>
      <trkpt lat="46.9125" lon="3.21838">
        <ele>213.19999694824</ele>
        <time>2022-06-25T04:19:48.000Z</time>
      </trkpt>
      <trkpt lat="46.91261" lon="3.21845">
        <ele>214</ele>
        <time>2022-06-25T04:19:51.000Z</time>
      </trkpt>
      <trkpt lat="46.91264" lon="3.21848">
        <ele>214.39999389648</ele>
        <time>2022-06-25T04:19:52.000Z</time>
      </trkpt>
      <trkpt lat="46.91279" lon="3.21859">
        <ele>216.60000610352</ele>
        <time>2022-06-25T04:19:56.000Z</time>
      </trkpt>
      <trkpt lat="46.91289" lon="3.21867">
        <ele>218.60000610352</ele>
        <time>2022-06-25T04:19:59.000Z</time>
      </trkpt>
      <trkpt lat="46.91301" lon="3.21877">
        <ele>219.60000610352</ele>
        <time>2022-06-25T04:20:02.000Z</time>
      </trkpt>
      <trkpt lat="46.91311" lon="3.21885">
        <ele>220.60000610352</ele>
        <time>2022-06-25T04:20:05.000Z</time>
      </trkpt>
      <trkpt lat="46.91314" lon="3.21887">
        <ele>220.80000305176</ele>
        <time>2022-06-25T04:20:06.000Z</time>
      </trkpt>
      <trkpt lat="46.91334" lon="3.21901">
        <ele>221.60000610352</ele>
        <time>2022-06-25T04:20:11.000Z</time>
      </trkpt>
      <trkpt lat="46.91337" lon="3.21904">
        <ele>221.80000305176</ele>
        <time>2022-06-25T04:20:12.000Z</time>
      </trkpt>
      <trkpt lat="46.91345" lon="3.21909">
        <ele>222</ele>
        <time>2022-06-25T04:20:14.000Z</time>
      </trkpt>
      <trkpt lat="46.91358" lon="3.2192">
        <ele>223.39999389648</ele>
        <time>2022-06-25T04:20:17.000Z</time>
      </trkpt>
      <trkpt lat="46.91373" lon="3.21932">
        <ele>224.80000305176</ele>
        <time>2022-06-25T04:20:20.000Z</time>
      </trkpt>
      <trkpt lat="46.91393" lon="3.2195">
        <ele>227.60000610352</ele>
        <time>2022-06-25T04:20:24.000Z</time>
      </trkpt>
      <trkpt lat="46.91397" lon="3.21955">
        <ele>228.39999389648</ele>
        <time>2022-06-25T04:20:25.000Z</time>
      </trkpt>
      <trkpt lat="46.91409" lon="3.21967">
        <ele>229.19999694824</ele>
        <time>2022-06-25T04:20:28.000Z</time>
      </trkpt>
      <trkpt lat="46.91413" lon="3.21972">
        <ele>229.19999694824</ele>
        <time>2022-06-25T04:20:29.000Z</time>
      </trkpt>
      <trkpt lat="46.91422" lon="3.21983">
        <ele>229.19999694824</ele>
        <time>2022-06-25T04:20:31.000Z</time>
      </trkpt>
      <trkpt lat="46.91434" lon="3.21997">
        <ele>228.39999389648</ele>
        <time>2022-06-25T04:20:34.000Z</time>
      </trkpt>
      <trkpt lat="46.91453" lon="3.22016">
        <ele>226.39999389648</ele>
        <time>2022-06-25T04:20:38.000Z</time>
      </trkpt>
      <trkpt lat="46.91462" lon="3.22027">
        <ele>225.39999389648</ele>
        <time>2022-06-25T04:20:40.000Z</time>
      </trkpt>
      <trkpt lat="46.91476" lon="3.22046">
        <ele>223.39999389648</ele>
        <time>2022-06-25T04:20:43.000Z</time>
      </trkpt>
      <trkpt lat="46.91505" lon="3.22084">
        <ele>220.19999694824</ele>
        <time>2022-06-25T04:20:49.000Z</time>
      </trkpt>
      <trkpt lat="46.91528" lon="3.22111">
        <ele>218.39999389648</ele>
        <time>2022-06-25T04:20:53.000Z</time>
      </trkpt>
      <trkpt lat="46.91545" lon="3.22133">
        <ele>217</ele>
        <time>2022-06-25T04:20:56.000Z</time>
      </trkpt>
      <trkpt lat="46.91551" lon="3.22141">
        <ele>216.80000305176</ele>
        <time>2022-06-25T04:20:57.000Z</time>
      </trkpt>
      <trkpt lat="46.91562" lon="3.22156">
        <ele>216</ele>
        <time>2022-06-25T04:20:59.000Z</time>
      </trkpt>
      <trkpt lat="46.91583" lon="3.22187">
        <ele>214</ele>
        <time>2022-06-25T04:21:03.000Z</time>
      </trkpt>
      <trkpt lat="46.91592" lon="3.22202">
        <ele>213.39999389648</ele>
        <time>2022-06-25T04:21:05.000Z</time>
      </trkpt>
      <trkpt lat="46.91629" lon="3.22262">
        <ele>212.80000305176</ele>
        <time>2022-06-25T04:21:13.000Z</time>
      </trkpt>
      <trkpt lat="46.9166" lon="3.22316">
        <ele>212.60000610352</ele>
        <time>2022-06-25T04:21:20.000Z</time>
      </trkpt>
      <trkpt lat="46.91672" lon="3.2234">
        <ele>212.19999694824</ele>
        <time>2022-06-25T04:21:23.000Z</time>
      </trkpt>
      <trkpt lat="46.91705" lon="3.22402">
        <ele>211.39999389648</ele>
        <time>2022-06-25T04:21:31.000Z</time>
      </trkpt>
      <trkpt lat="46.91734" lon="3.22461">
        <ele>210.19999694824</ele>
        <time>2022-06-25T04:21:38.000Z</time>
      </trkpt>
      <trkpt lat="46.91762" lon="3.22514">
        <ele>209.19999694824</ele>
        <time>2022-06-25T04:21:44.000Z</time>
      </trkpt>
      <trkpt lat="46.91771" lon="3.22531">
        <ele>209</ele>
        <time>2022-06-25T04:21:46.000Z</time>
      </trkpt>
      <trkpt lat="46.91795" lon="3.22576">
        <ele>207.19999694824</ele>
        <time>2022-06-25T04:21:51.000Z</time>
      </trkpt>
      <trkpt lat="46.91814" lon="3.22612">
        <ele>206.19999694824</ele>
        <time>2022-06-25T04:21:55.000Z</time>
      </trkpt>
      <trkpt lat="46.91832" lon="3.22647">
        <ele>205</ele>
        <time>2022-06-25T04:21:59.000Z</time>
      </trkpt>
      <trkpt lat="46.91851" lon="3.22684">
        <ele>205</ele>
        <time>2022-06-25T04:22:03.000Z</time>
      </trkpt>
      <trkpt lat="46.91855" lon="3.22691">
        <ele>204.80000305176</ele>
        <time>2022-06-25T04:22:04.000Z</time>
      </trkpt>
      <trkpt lat="46.91871" lon="3.22729">
        <ele>203.39999389648</ele>
        <time>2022-06-25T04:22:08.000Z</time>
      </trkpt>
      <trkpt lat="46.91874" lon="3.2274">
        <ele>203.19999694824</ele>
        <time>2022-06-25T04:22:09.000Z</time>
      </trkpt>
      <trkpt lat="46.91878" lon="3.22775">
        <ele>203</ele>
        <time>2022-06-25T04:22:12.000Z</time>
      </trkpt>
      <trkpt lat="46.91878" lon="3.22787">
        <ele>202.60000610352</ele>
        <time>2022-06-25T04:22:13.000Z</time>
      </trkpt>
      <trkpt lat="46.91878" lon="3.22799">
        <ele>202.19999694824</ele>
        <time>2022-06-25T04:22:14.000Z</time>
      </trkpt>
      <trkpt lat="46.91879" lon="3.22823">
        <ele>202.19999694824</ele>
        <time>2022-06-25T04:22:16.000Z</time>
      </trkpt>
      <trkpt lat="46.9188" lon="3.2286">
        <ele>201</ele>
        <time>2022-06-25T04:22:19.000Z</time>
      </trkpt>
      <trkpt lat="46.91881" lon="3.22908">
        <ele>198</ele>
        <time>2022-06-25T04:22:23.000Z</time>
      </trkpt>
      <trkpt lat="46.91881" lon="3.2292">
        <ele>197.19999694824</ele>
        <time>2022-06-25T04:22:24.000Z</time>
      </trkpt>
      <trkpt lat="46.91883" lon="3.22945">
        <ele>196.39999389648</ele>
        <time>2022-06-25T04:22:26.000Z</time>
      </trkpt>
      <trkpt lat="46.91885" lon="3.22957">
        <ele>196.19999694824</ele>
        <time>2022-06-25T04:22:27.000Z</time>
      </trkpt>
      <trkpt lat="46.91888" lon="3.22967">
        <ele>196</ele>
        <time>2022-06-25T04:22:28.000Z</time>
      </trkpt>
      <trkpt lat="46.91893" lon="3.22977">
        <ele>195.60000610352</ele>
        <time>2022-06-25T04:22:29.000Z</time>
      </trkpt>
      <trkpt lat="46.91899" lon="3.22985">
        <ele>195.39999389648</ele>
        <time>2022-06-25T04:22:30.000Z</time>
      </trkpt>
      <trkpt lat="46.91905" lon="3.22991">
        <ele>195.39999389648</ele>
        <time>2022-06-25T04:22:31.000Z</time>
      </trkpt>
      <trkpt lat="46.91919" lon="3.22999">
        <ele>195.80000305176</ele>
        <time>2022-06-25T04:22:33.000Z</time>
      </trkpt>
      <trkpt lat="46.91925" lon="3.23">
        <ele>196.19999694824</ele>
        <time>2022-06-25T04:22:34.000Z</time>
      </trkpt>
      <trkpt lat="46.91961" lon="3.23009">
        <ele>197.60000610352</ele>
        <time>2022-06-25T04:22:40.000Z</time>
      </trkpt>
      <trkpt lat="46.91998" lon="3.2301">
        <ele>197.80000305176</ele>
        <time>2022-06-25T04:22:46.000Z</time>
      </trkpt>
      <trkpt lat="46.92004" lon="3.23008">
        <ele>197.80000305176</ele>
        <time>2022-06-25T04:22:47.000Z</time>
      </trkpt>
      <trkpt lat="46.92021" lon="3.23001">
        <ele>197.39999389648</ele>
        <time>2022-06-25T04:22:50.000Z</time>
      </trkpt>
      <trkpt lat="46.92027" lon="3.22997">
        <ele>197.39999389648</ele>
        <time>2022-06-25T04:22:51.000Z</time>
      </trkpt>
      <trkpt lat="46.92037" lon="3.22988">
        <ele>197.19999694824</ele>
        <time>2022-06-25T04:22:53.000Z</time>
      </trkpt>
      <trkpt lat="46.92047" lon="3.22984">
        <ele>196.80000305176</ele>
        <time>2022-06-25T04:22:55.000Z</time>
      </trkpt>
      <trkpt lat="46.92052" lon="3.22985">
        <ele>196.39999389648</ele>
        <time>2022-06-25T04:22:56.000Z</time>
      </trkpt>
      <trkpt lat="46.92071" lon="3.22988">
        <ele>194.80000305176</ele>
        <time>2022-06-25T04:22:59.000Z</time>
      </trkpt>
      <trkpt lat="46.92078" lon="3.22984">
        <ele>194.60000610352</ele>
        <time>2022-06-25T04:23:00.000Z</time>
      </trkpt>
      <trkpt lat="46.92085" lon="3.2298">
        <ele>194</ele>
        <time>2022-06-25T04:23:01.000Z</time>
      </trkpt>
      <trkpt lat="46.92094" lon="3.22974">
        <ele>193.19999694824</ele>
        <time>2022-06-25T04:23:02.000Z</time>
      </trkpt>
      <trkpt lat="46.92102" lon="3.22969">
        <ele>192</ele>
        <time>2022-06-25T04:23:03.000Z</time>
      </trkpt>
      <trkpt lat="46.92111" lon="3.22964">
        <ele>190.80000305176</ele>
        <time>2022-06-25T04:23:04.000Z</time>
      </trkpt>
      <trkpt lat="46.92129" lon="3.22961">
        <ele>188.19999694824</ele>
        <time>2022-06-25T04:23:06.000Z</time>
      </trkpt>
      <trkpt lat="46.92139" lon="3.22962">
        <ele>187.19999694824</ele>
        <time>2022-06-25T04:23:07.000Z</time>
      </trkpt>
      <trkpt lat="46.92158" lon="3.22966">
        <ele>185.19999694824</ele>
        <time>2022-06-25T04:23:09.000Z</time>
      </trkpt>
      <trkpt lat="46.92178" lon="3.22968">
        <ele>183</ele>
        <time>2022-06-25T04:23:11.000Z</time>
      </trkpt>
      <trkpt lat="46.92188" lon="3.22969">
        <ele>183</ele>
        <time>2022-06-25T04:23:12.000Z</time>
      </trkpt>
      <trkpt lat="46.92206" lon="3.22973">
        <ele>183</ele>
        <time>2022-06-25T04:23:14.000Z</time>
      </trkpt>
      <trkpt lat="46.92215" lon="3.22977">
        <ele>183</ele>
        <time>2022-06-25T04:23:15.000Z</time>
      </trkpt>
      <trkpt lat="46.9223" lon="3.2299">
        <ele>183</ele>
        <time>2022-06-25T04:23:17.000Z</time>
      </trkpt>
      <trkpt lat="46.92236" lon="3.22998">
        <ele>183</ele>
        <time>2022-06-25T04:23:18.000Z</time>
      </trkpt>
      <trkpt lat="46.92241" lon="3.23008">
        <ele>183</ele>
        <time>2022-06-25T04:23:19.000Z</time>
      </trkpt>
      <trkpt lat="46.92257" lon="3.23044">
        <ele>183</ele>
        <time>2022-06-25T04:23:23.000Z</time>
      </trkpt>
      <trkpt lat="46.92267" lon="3.23071">
        <ele>183.19999694824</ele>
        <time>2022-06-25T04:23:26.000Z</time>
      </trkpt>
      <trkpt lat="46.92271" lon="3.2308">
        <ele>183.39999389648</ele>
        <time>2022-06-25T04:23:27.000Z</time>
      </trkpt>
      <trkpt lat="46.92275" lon="3.23087">
        <ele>183.80000305176</ele>
        <time>2022-06-25T04:23:28.000Z</time>
      </trkpt>
      <trkpt lat="46.9229" lon="3.23101">
        <ele>185</ele>
        <time>2022-06-25T04:23:31.000Z</time>
      </trkpt>
      <trkpt lat="46.923" lon="3.2311">
        <ele>185</ele>
        <time>2022-06-25T04:23:33.000Z</time>
      </trkpt>
      <trkpt lat="46.92308" lon="3.23123">
        <ele>185</ele>
        <time>2022-06-25T04:23:35.000Z</time>
      </trkpt>
      <trkpt lat="46.92313" lon="3.23128">
        <ele>185</ele>
        <time>2022-06-25T04:23:36.000Z</time>
      </trkpt>
      <trkpt lat="46.92324" lon="3.2313">
        <ele>185</ele>
        <time>2022-06-25T04:23:38.000Z</time>
      </trkpt>
      <trkpt lat="46.92337" lon="3.23128">
        <ele>185</ele>
        <time>2022-06-25T04:23:40.000Z</time>
      </trkpt>
      <trkpt lat="46.92349" lon="3.2313">
        <ele>185.19999694824</ele>
        <time>2022-06-25T04:23:42.000Z</time>
      </trkpt>
      <trkpt lat="46.92355" lon="3.23132">
        <ele>185.39999389648</ele>
        <time>2022-06-25T04:23:43.000Z</time>
      </trkpt>
      <trkpt lat="46.9236" lon="3.23136">
        <ele>185.39999389648</ele>
        <time>2022-06-25T04:23:44.000Z</time>
      </trkpt>
      <trkpt lat="46.92369" lon="3.23149">
        <ele>185.19999694824</ele>
        <time>2022-06-25T04:23:46.000Z</time>
      </trkpt>
      <trkpt lat="46.92375" lon="3.23167">
        <ele>185</ele>
        <time>2022-06-25T04:23:48.000Z</time>
      </trkpt>
      <trkpt lat="46.92379" lon="3.23187">
        <ele>185</ele>
        <time>2022-06-25T04:23:50.000Z</time>
      </trkpt>
      <trkpt lat="46.92388" lon="3.23254">
        <ele>183.60000610352</ele>
        <time>2022-06-25T04:23:56.000Z</time>
      </trkpt>
      <trkpt lat="46.92392" lon="3.23278">
        <ele>183</ele>
        <time>2022-06-25T04:23:58.000Z</time>
      </trkpt>
      <trkpt lat="46.924" lon="3.23312">
        <ele>182</ele>
        <time>2022-06-25T04:24:01.000Z</time>
      </trkpt>
      <trkpt lat="46.92404" lon="3.23322">
        <ele>181.80000305176</ele>
        <time>2022-06-25T04:24:02.000Z</time>
      </trkpt>
      <trkpt lat="46.92415" lon="3.2334">
        <ele>181</ele>
        <time>2022-06-25T04:24:04.000Z</time>
      </trkpt>
      <trkpt lat="46.92427" lon="3.23355">
        <ele>180.19999694824</ele>
        <time>2022-06-25T04:24:06.000Z</time>
      </trkpt>
      <trkpt lat="46.92433" lon="3.23362">
        <ele>180.39999389648</ele>
        <time>2022-06-25T04:24:07.000Z</time>
      </trkpt>
      <trkpt lat="46.92475" lon="3.23408">
        <ele>179.60000610352</ele>
        <time>2022-06-25T04:24:14.000Z</time>
      </trkpt>
      <trkpt lat="46.92508" lon="3.23447">
        <ele>179.19999694824</ele>
        <time>2022-06-25T04:24:20.000Z</time>
      </trkpt>
      <trkpt lat="46.92513" lon="3.23452">
        <ele>179</ele>
        <time>2022-06-25T04:24:21.000Z</time>
      </trkpt>
      <trkpt lat="46.92528" lon="3.23464">
        <ele>179.60000610352</ele>
        <time>2022-06-25T04:24:24.000Z</time>
      </trkpt>
      <trkpt lat="46.92542" lon="3.23472">
        <ele>180.19999694824</ele>
        <time>2022-06-25T04:24:27.000Z</time>
      </trkpt>
      <trkpt lat="46.92551" lon="3.23475">
        <ele>180.80000305176</ele>
        <time>2022-06-25T04:24:29.000Z</time>
      </trkpt>
      <trkpt lat="46.92569" lon="3.23481">
        <ele>181.60000610352</ele>
        <time>2022-06-25T04:24:33.000Z</time>
      </trkpt>
      <trkpt lat="46.92578" lon="3.23486">
        <ele>181.39999389648</ele>
        <time>2022-06-25T04:24:35.000Z</time>
      </trkpt>
      <trkpt lat="46.92603" lon="3.23497">
        <ele>180.19999694824</ele>
        <time>2022-06-25T04:24:39.000Z</time>
      </trkpt>
      <trkpt lat="46.92642" lon="3.23515">
        <ele>177.39999389648</ele>
        <time>2022-06-25T04:24:44.000Z</time>
      </trkpt>
      <trkpt lat="46.92666" lon="3.23533">
        <ele>176.39999389648</ele>
        <time>2022-06-25T04:24:47.000Z</time>
      </trkpt>
      <trkpt lat="46.92673" lon="3.2354">
        <ele>176.19999694824</ele>
        <time>2022-06-25T04:24:48.000Z</time>
      </trkpt>
      <trkpt lat="46.92679" lon="3.23549">
        <ele>176</ele>
        <time>2022-06-25T04:24:49.000Z</time>
      </trkpt>
      <trkpt lat="46.92702" lon="3.23581">
        <ele>176</ele>
        <time>2022-06-25T04:24:53.000Z</time>
      </trkpt>
      <trkpt lat="46.92707" lon="3.23588">
        <ele>176.39999389648</ele>
        <time>2022-06-25T04:24:54.000Z</time>
      </trkpt>
      <trkpt lat="46.92738" lon="3.2363">
        <ele>178.19999694824</ele>
        <time>2022-06-25T04:25:00.000Z</time>
      </trkpt>
      <trkpt lat="46.92751" lon="3.23639">
        <ele>178.39999389648</ele>
        <time>2022-06-25T04:25:02.000Z</time>
      </trkpt>
      <trkpt lat="46.92763" lon="3.23644">
        <ele>178.60000610352</ele>
        <time>2022-06-25T04:25:04.000Z</time>
      </trkpt>
      <trkpt lat="46.92769" lon="3.23646">
        <ele>178.80000305176</ele>
        <time>2022-06-25T04:25:05.000Z</time>
      </trkpt>
      <trkpt lat="46.92796" lon="3.23647">
        <ele>179.60000610352</ele>
        <time>2022-06-25T04:25:09.000Z</time>
      </trkpt>
      <trkpt lat="46.92851" lon="3.23647">
        <ele>182.39999389648</ele>
        <time>2022-06-25T04:25:17.000Z</time>
      </trkpt>
      <trkpt lat="46.92858" lon="3.23647">
        <ele>182.39999389648</ele>
        <time>2022-06-25T04:25:18.000Z</time>
      </trkpt>
      <trkpt lat="46.92918" lon="3.23645">
        <ele>179</ele>
        <time>2022-06-25T04:25:27.000Z</time>
      </trkpt>
      <trkpt lat="46.92977" lon="3.23643">
        <ele>176.19999694824</ele>
        <time>2022-06-25T04:25:36.000Z</time>
      </trkpt>
      <trkpt lat="46.9299" lon="3.23643">
        <ele>175.80000305176</ele>
        <time>2022-06-25T04:25:38.000Z</time>
      </trkpt>
      <trkpt lat="46.93003" lon="3.23643">
        <ele>175.60000610352</ele>
        <time>2022-06-25T04:25:40.000Z</time>
      </trkpt>
      <trkpt lat="46.93043" lon="3.23645">
        <ele>176</ele>
        <time>2022-06-25T04:25:46.000Z</time>
      </trkpt>
      <trkpt lat="46.93087" lon="3.23664">
        <ele>176.19999694824</ele>
        <time>2022-06-25T04:25:53.000Z</time>
      </trkpt>
      <trkpt lat="46.93115" lon="3.23691">
        <ele>177</ele>
        <time>2022-06-25T04:25:58.000Z</time>
      </trkpt>
      <trkpt lat="46.93145" lon="3.23741">
        <ele>177</ele>
        <time>2022-06-25T04:26:05.000Z</time>
      </trkpt>
      <trkpt lat="46.93167" lon="3.23799">
        <ele>177</ele>
        <time>2022-06-25T04:26:12.000Z</time>
      </trkpt>
      <trkpt lat="46.93196" lon="3.23876">
        <ele>175.39999389648</ele>
        <time>2022-06-25T04:26:21.000Z</time>
      </trkpt>
      <trkpt lat="46.93224" lon="3.23954">
        <ele>177</ele>
        <time>2022-06-25T04:26:30.000Z</time>
      </trkpt>
      <trkpt lat="46.93252" lon="3.24031">
        <ele>177</ele>
        <time>2022-06-25T04:26:39.000Z</time>
      </trkpt>
      <trkpt lat="46.93255" lon="3.24039">
        <ele>177</ele>
        <time>2022-06-25T04:26:40.000Z</time>
      </trkpt>
      <trkpt lat="46.93284" lon="3.24117">
        <ele>177</ele>
        <time>2022-06-25T04:26:49.000Z</time>
      </trkpt>
      <trkpt lat="46.9329" lon="3.24134">
        <ele>177</ele>
        <time>2022-06-25T04:26:51.000Z</time>
      </trkpt>
      <trkpt lat="46.93318" lon="3.24211">
        <ele>176</ele>
        <time>2022-06-25T04:27:00.000Z</time>
      </trkpt>
      <trkpt lat="46.93346" lon="3.24288">
        <ele>175.60000610352</ele>
        <time>2022-06-25T04:27:09.000Z</time>
      </trkpt>
      <trkpt lat="46.93356" lon="3.24314">
        <ele>176</ele>
        <time>2022-06-25T04:27:12.000Z</time>
      </trkpt>
      <trkpt lat="46.93384" lon="3.24392">
        <ele>177</ele>
        <time>2022-06-25T04:27:21.000Z</time>
      </trkpt>
      <trkpt lat="46.93412" lon="3.24469">
        <ele>177</ele>
        <time>2022-06-25T04:27:30.000Z</time>
      </trkpt>
      <trkpt lat="46.93421" lon="3.24494">
        <ele>177</ele>
        <time>2022-06-25T04:27:33.000Z</time>
      </trkpt>
      <trkpt lat="46.93449" lon="3.24569">
        <ele>177</ele>
        <time>2022-06-25T04:27:42.000Z</time>
      </trkpt>
      <trkpt lat="46.93459" lon="3.24594">
        <ele>176.39999389648</ele>
        <time>2022-06-25T04:27:45.000Z</time>
      </trkpt>
      <trkpt lat="46.93487" lon="3.24671">
        <ele>177</ele>
        <time>2022-06-25T04:27:54.000Z</time>
      </trkpt>
      <trkpt lat="46.9349" lon="3.24679">
        <ele>177</ele>
        <time>2022-06-25T04:27:55.000Z</time>
      </trkpt>
      <trkpt lat="46.93514" lon="3.24756">
        <ele>176.60000610352</ele>
        <time>2022-06-25T04:28:04.000Z</time>
      </trkpt>
      <trkpt lat="46.93516" lon="3.24765">
        <ele>176.19999694824</ele>
        <time>2022-06-25T04:28:05.000Z</time>
      </trkpt>
      <trkpt lat="46.93535" lon="3.24841">
        <ele>177</ele>
        <time>2022-06-25T04:28:14.000Z</time>
      </trkpt>
      <trkpt lat="46.93554" lon="3.24917">
        <ele>177.80000305176</ele>
        <time>2022-06-25T04:28:24.000Z</time>
      </trkpt>
      <trkpt lat="46.9357" lon="3.24966">
        <ele>179</ele>
        <time>2022-06-25T04:28:31.000Z</time>
      </trkpt>
      <trkpt lat="46.93573" lon="3.24972">
        <ele>179</ele>
        <time>2022-06-25T04:28:32.000Z</time>
      </trkpt>
      <trkpt lat="46.93585" lon="3.25005">
        <ele>179</ele>
        <time>2022-06-25T04:28:37.000Z</time>
      </trkpt>
      <trkpt lat="46.93595" lon="3.25033">
        <ele>177.60000610352</ele>
        <time>2022-06-25T04:28:41.000Z</time>
      </trkpt>
      <trkpt lat="46.93609" lon="3.25071">
        <ele>176.19999694824</ele>
        <time>2022-06-25T04:28:46.000Z</time>
      </trkpt>
      <trkpt lat="46.93616" lon="3.25091">
        <ele>176</ele>
        <time>2022-06-25T04:28:49.000Z</time>
      </trkpt>
      <trkpt lat="46.93644" lon="3.25165">
        <ele>175.19999694824</ele>
        <time>2022-06-25T04:28:59.000Z</time>
      </trkpt>
      <trkpt lat="46.93671" lon="3.2524">
        <ele>174.19999694824</ele>
        <time>2022-06-25T04:29:09.000Z</time>
      </trkpt>
      <trkpt lat="46.93696" lon="3.25306">
        <ele>176</ele>
        <time>2022-06-25T04:29:18.000Z</time>
      </trkpt>
      <trkpt lat="46.9371" lon="3.25344">
        <ele>179.80000305176</ele>
        <time>2022-06-25T04:29:23.000Z</time>
      </trkpt>
      <trkpt lat="46.93711" lon="3.25352">
        <ele>181.19999694824</ele>
        <time>2022-06-25T04:29:24.000Z</time>
      </trkpt>
      <trkpt lat="46.9371" lon="3.2536">
        <ele>182.19999694824</ele>
        <time>2022-06-25T04:29:25.000Z</time>
      </trkpt>
      <trkpt lat="46.93705" lon="3.25375">
        <ele>184</ele>
        <time>2022-06-25T04:29:27.000Z</time>
      </trkpt>
      <trkpt lat="46.93685" lon="3.25402">
        <ele>184.80000305176</ele>
        <time>2022-06-25T04:29:32.000Z</time>
      </trkpt>
      <trkpt lat="46.93681" lon="3.25408">
        <ele>185</ele>
        <time>2022-06-25T04:29:33.000Z</time>
      </trkpt>
      <trkpt lat="46.93668" lon="3.25432">
        <ele>186.80000305176</ele>
        <time>2022-06-25T04:29:37.000Z</time>
      </trkpt>
      <trkpt lat="46.93666" lon="3.25438">
        <ele>187</ele>
        <time>2022-06-25T04:29:38.000Z</time>
      </trkpt>
      <trkpt lat="46.93664" lon="3.25445">
        <ele>187.19999694824</ele>
        <time>2022-06-25T04:29:39.000Z</time>
      </trkpt>
      <trkpt lat="46.93663" lon="3.25467">
        <ele>188</ele>
        <time>2022-06-25T04:29:42.000Z</time>
      </trkpt>
      <trkpt lat="46.93664" lon="3.25504">
        <ele>189.39999389648</ele>
        <time>2022-06-25T04:29:47.000Z</time>
      </trkpt>
      <trkpt lat="46.93663" lon="3.25512">
        <ele>189.39999389648</ele>
        <time>2022-06-25T04:29:48.000Z</time>
      </trkpt>
      <trkpt lat="46.93663" lon="3.25536">
        <ele>189.39999389648</ele>
        <time>2022-06-25T04:29:51.000Z</time>
      </trkpt>
      <trkpt lat="46.93667" lon="3.25568">
        <ele>188.80000305176</ele>
        <time>2022-06-25T04:29:55.000Z</time>
      </trkpt>
      <trkpt lat="46.93673" lon="3.25598">
        <ele>188.80000305176</ele>
        <time>2022-06-25T04:29:59.000Z</time>
      </trkpt>
      <trkpt lat="46.93678" lon="3.25614">
        <ele>189</ele>
        <time>2022-06-25T04:30:01.000Z</time>
      </trkpt>
      <trkpt lat="46.93701" lon="3.25693">
        <ele>188.80000305176</ele>
        <time>2022-06-25T04:30:11.000Z</time>
      </trkpt>
      <trkpt lat="46.93702" lon="3.25701">
        <ele>188.80000305176</ele>
        <time>2022-06-25T04:30:12.000Z</time>
      </trkpt>
      <trkpt lat="46.93705" lon="3.25712">
        <ele>189</ele>
        <time>2022-06-25T04:30:14.000Z</time>
      </trkpt>
      <trkpt lat="46.93706" lon="3.25715">
        <ele>189</ele>
        <time>2022-06-25T04:30:15.000Z</time>
      </trkpt>
      <trkpt lat="46.93707" lon="3.25717">
        <ele>188.80000305176</ele>
        <time>2022-06-25T04:30:16.000Z</time>
      </trkpt>
      <trkpt lat="46.93709" lon="3.25724">
        <ele>188.60000610352</ele>
        <time>2022-06-25T04:30:20.000Z</time>
      </trkpt>
      <trkpt lat="46.93709" lon="3.25726">
        <ele>188.39999389648</ele>
        <time>2022-06-25T04:30:22.000Z</time>
      </trkpt>
      <trkpt lat="46.93709" lon="3.25729">
        <ele>188.19999694824</ele>
        <time>2022-06-25T04:30:26.000Z</time>
      </trkpt>
      <trkpt lat="46.93712" lon="3.25734">
        <ele>188</ele>
        <time>2022-06-25T04:30:33.000Z</time>
      </trkpt>
      <trkpt lat="46.93712" lon="3.25735">
        <ele>188</ele>
        <time>2022-06-25T04:30:38.000Z</time>
      </trkpt>
      <trkpt lat="46.93713" lon="3.25743">
        <ele>187.60000610352</ele>
        <time>2022-06-25T04:30:47.000Z</time>
      </trkpt>
      <trkpt lat="46.9372" lon="3.25766">
        <ele>187.39999389648</ele>
        <time>2022-06-25T04:30:51.000Z</time>
      </trkpt>
      <trkpt lat="46.93725" lon="3.2578">
        <ele>187.60000610352</ele>
        <time>2022-06-25T04:30:53.000Z</time>
      </trkpt>
      <trkpt lat="46.93733" lon="3.25787">
        <ele>188</ele>
        <time>2022-06-25T04:30:55.000Z</time>
      </trkpt>
      <trkpt lat="46.93742" lon="3.25788">
        <ele>188.60000610352</ele>
        <time>2022-06-25T04:30:57.000Z</time>
      </trkpt>
      <trkpt lat="46.93751" lon="3.25787">
        <ele>189.19999694824</ele>
        <time>2022-06-25T04:30:59.000Z</time>
      </trkpt>
      <trkpt lat="46.93791" lon="3.25786">
        <ele>191</ele>
        <time>2022-06-25T04:31:07.000Z</time>
      </trkpt>
      <trkpt lat="46.93803" lon="3.25786">
        <ele>191.39999389648</ele>
        <time>2022-06-25T04:31:10.000Z</time>
      </trkpt>
      <trkpt lat="46.93807" lon="3.25786">
        <ele>191.60000610352</ele>
        <time>2022-06-25T04:31:11.000Z</time>
      </trkpt>
      <trkpt lat="46.93816" lon="3.25785">
        <ele>192</ele>
        <time>2022-06-25T04:31:13.000Z</time>
      </trkpt>
      <trkpt lat="46.93825" lon="3.25785">
        <ele>192.19999694824</ele>
        <time>2022-06-25T04:31:15.000Z</time>
      </trkpt>
      <trkpt lat="46.93828" lon="3.25785">
        <ele>192.39999389648</ele>
        <time>2022-06-25T04:31:16.000Z</time>
      </trkpt>
      <trkpt lat="46.93838" lon="3.25785">
        <ele>192.80000305176</ele>
        <time>2022-06-25T04:31:18.000Z</time>
      </trkpt>
      <trkpt lat="46.93842" lon="3.25785">
        <ele>192.80000305176</ele>
        <time>2022-06-25T04:31:19.000Z</time>
      </trkpt>
      <trkpt lat="46.93847" lon="3.25785">
        <ele>193</ele>
        <time>2022-06-25T04:31:20.000Z</time>
      </trkpt>
      <trkpt lat="46.93865" lon="3.25785">
        <ele>193.19999694824</ele>
        <time>2022-06-25T04:31:24.000Z</time>
      </trkpt>
      <trkpt lat="46.9387" lon="3.25785">
        <ele>193.39999389648</ele>
        <time>2022-06-25T04:31:25.000Z</time>
      </trkpt>
      <trkpt lat="46.9388" lon="3.25785">
        <ele>194</ele>
        <time>2022-06-25T04:31:27.000Z</time>
      </trkpt>
      <trkpt lat="46.93894" lon="3.25783">
        <ele>194.80000305176</ele>
        <time>2022-06-25T04:31:30.000Z</time>
      </trkpt>
      <trkpt lat="46.93919" lon="3.25784">
        <ele>195.60000610352</ele>
        <time>2022-06-25T04:31:35.000Z</time>
      </trkpt>
      <trkpt lat="46.93924" lon="3.25784">
        <ele>195.80000305176</ele>
        <time>2022-06-25T04:31:36.000Z</time>
      </trkpt>
      <trkpt lat="46.93929" lon="3.25784">
        <ele>196</ele>
        <time>2022-06-25T04:31:37.000Z</time>
      </trkpt>
      <trkpt lat="46.93938" lon="3.25783">
        <ele>196.60000610352</ele>
        <time>2022-06-25T04:31:39.000Z</time>
      </trkpt>
      <trkpt lat="46.9395" lon="3.25784">
        <ele>197.60000610352</ele>
        <time>2022-06-25T04:31:41.000Z</time>
      </trkpt>
      <trkpt lat="46.93954" lon="3.25784">
        <ele>197.80000305176</ele>
        <time>2022-06-25T04:31:42.000Z</time>
      </trkpt>
      <trkpt lat="46.93963" lon="3.25784">
        <ele>198.39999389648</ele>
        <time>2022-06-25T04:31:44.000Z</time>
      </trkpt>
      <trkpt lat="46.93978" lon="3.25785">
        <ele>199.60000610352</ele>
        <time>2022-06-25T04:31:47.000Z</time>
      </trkpt>
      <trkpt lat="46.9399" lon="3.25786">
        <ele>200.39999389648</ele>
        <time>2022-06-25T04:31:50.000Z</time>
      </trkpt>
      <trkpt lat="46.94008" lon="3.25787">
        <ele>202</ele>
        <time>2022-06-25T04:31:54.000Z</time>
      </trkpt>
      <trkpt lat="46.94023" lon="3.2579">
        <ele>202.60000610352</ele>
        <time>2022-06-25T04:31:57.000Z</time>
      </trkpt>
      <trkpt lat="46.94052" lon="3.25801">
        <ele>203.39999389648</ele>
        <time>2022-06-25T04:32:03.000Z</time>
      </trkpt>
      <trkpt lat="46.94067" lon="3.25807">
        <ele>203.60000610352</ele>
        <time>2022-06-25T04:32:06.000Z</time>
      </trkpt>
      <trkpt lat="46.94082" lon="3.25813">
        <ele>204</ele>
        <time>2022-06-25T04:32:09.000Z</time>
      </trkpt>
      <trkpt lat="46.94102" lon="3.25822">
        <ele>204</ele>
        <time>2022-06-25T04:32:13.000Z</time>
      </trkpt>
      <trkpt lat="46.94155" lon="3.25847">
        <ele>204.80000305176</ele>
        <time>2022-06-25T04:32:23.000Z</time>
      </trkpt>
      <trkpt lat="46.94161" lon="3.25849">
        <ele>204.80000305176</ele>
        <time>2022-06-25T04:32:24.000Z</time>
      </trkpt>
      <trkpt lat="46.94205" lon="3.25866">
        <ele>205.60000610352</ele>
        <time>2022-06-25T04:32:32.000Z</time>
      </trkpt>
      <trkpt lat="46.9426" lon="3.25886">
        <ele>205</ele>
        <time>2022-06-25T04:32:42.000Z</time>
      </trkpt>
      <trkpt lat="46.94282" lon="3.25895">
        <ele>204.19999694824</ele>
        <time>2022-06-25T04:32:46.000Z</time>
      </trkpt>
      <trkpt lat="46.94315" lon="3.25908">
        <ele>204</ele>
        <time>2022-06-25T04:32:52.000Z</time>
      </trkpt>
      <trkpt lat="46.94351" lon="3.25924">
        <ele>205</ele>
        <time>2022-06-25T04:32:59.000Z</time>
      </trkpt>
      <trkpt lat="46.94366" lon="3.2593">
        <ele>205.39999389648</ele>
        <time>2022-06-25T04:33:02.000Z</time>
      </trkpt>
      <trkpt lat="46.94389" lon="3.25941">
        <ele>206.60000610352</ele>
        <time>2022-06-25T04:33:07.000Z</time>
      </trkpt>
      <trkpt lat="46.94393" lon="3.25942">
        <ele>206.80000305176</ele>
        <time>2022-06-25T04:33:08.000Z</time>
      </trkpt>
      <trkpt lat="46.94411" lon="3.25948">
        <ele>208</ele>
        <time>2022-06-25T04:33:12.000Z</time>
      </trkpt>
      <trkpt lat="46.9443" lon="3.25956">
        <ele>209.80000305176</ele>
        <time>2022-06-25T04:33:16.000Z</time>
      </trkpt>
      <trkpt lat="46.94435" lon="3.25958">
        <ele>210.60000610352</ele>
        <time>2022-06-25T04:33:17.000Z</time>
      </trkpt>
      <trkpt lat="46.94453" lon="3.25966">
        <ele>213.39999389648</ele>
        <time>2022-06-25T04:33:21.000Z</time>
      </trkpt>
      <trkpt lat="46.94462" lon="3.25969">
        <ele>214.60000610352</ele>
        <time>2022-06-25T04:33:23.000Z</time>
      </trkpt>
      <trkpt lat="46.94478" lon="3.25978">
        <ele>216.39999389648</ele>
        <time>2022-06-25T04:33:28.000Z</time>
      </trkpt>
      <trkpt lat="46.94495" lon="3.25985">
        <ele>217.80000305176</ele>
        <time>2022-06-25T04:33:32.000Z</time>
      </trkpt>
      <trkpt lat="46.94507" lon="3.25991">
        <ele>218.60000610352</ele>
        <time>2022-06-25T04:33:35.000Z</time>
      </trkpt>
      <trkpt lat="46.94515" lon="3.25995">
        <ele>219</ele>
        <time>2022-06-25T04:33:37.000Z</time>
      </trkpt>
      <trkpt lat="46.94535" lon="3.26003">
        <ele>219.80000305176</ele>
        <time>2022-06-25T04:33:41.000Z</time>
      </trkpt>
      <trkpt lat="46.94549" lon="3.26009">
        <ele>220.60000610352</ele>
        <time>2022-06-25T04:33:44.000Z</time>
      </trkpt>
      <trkpt lat="46.94565" lon="3.26015">
        <ele>221.60000610352</ele>
        <time>2022-06-25T04:33:47.000Z</time>
      </trkpt>
      <trkpt lat="46.94584" lon="3.26023">
        <ele>223</ele>
        <time>2022-06-25T04:33:51.000Z</time>
      </trkpt>
      <trkpt lat="46.94589" lon="3.26025">
        <ele>223.39999389648</ele>
        <time>2022-06-25T04:33:52.000Z</time>
      </trkpt>
      <trkpt lat="46.94612" lon="3.26034">
        <ele>224</ele>
        <time>2022-06-25T04:33:57.000Z</time>
      </trkpt>
      <trkpt lat="46.94627" lon="3.26042">
        <ele>224.19999694824</ele>
        <time>2022-06-25T04:34:00.000Z</time>
      </trkpt>
      <trkpt lat="46.94645" lon="3.26048">
        <ele>225.60000610352</ele>
        <time>2022-06-25T04:34:04.000Z</time>
      </trkpt>
      <trkpt lat="46.94664" lon="3.26058">
        <ele>227</ele>
        <time>2022-06-25T04:34:08.000Z</time>
      </trkpt>
      <trkpt lat="46.94678" lon="3.26064">
        <ele>227.80000305176</ele>
        <time>2022-06-25T04:34:11.000Z</time>
      </trkpt>
      <trkpt lat="46.94694" lon="3.26071">
        <ele>228</ele>
        <time>2022-06-25T04:34:14.000Z</time>
      </trkpt>
      <trkpt lat="46.94699" lon="3.26074">
        <ele>228</ele>
        <time>2022-06-25T04:34:15.000Z</time>
      </trkpt>
      <trkpt lat="46.94713" lon="3.26081">
        <ele>227.60000610352</ele>
        <time>2022-06-25T04:34:18.000Z</time>
      </trkpt>
      <trkpt lat="46.94718" lon="3.26084">
        <ele>227.39999389648</ele>
        <time>2022-06-25T04:34:19.000Z</time>
      </trkpt>
      <trkpt lat="46.94749" lon="3.26111">
        <ele>225.80000305176</ele>
        <time>2022-06-25T04:34:26.000Z</time>
      </trkpt>
      <trkpt lat="46.94757" lon="3.26121">
        <ele>225.39999389648</ele>
        <time>2022-06-25T04:34:28.000Z</time>
      </trkpt>
      <trkpt lat="46.94761" lon="3.26127">
        <ele>225.19999694824</ele>
        <time>2022-06-25T04:34:29.000Z</time>
      </trkpt>
      <trkpt lat="46.94771" lon="3.26145">
        <ele>224.80000305176</ele>
        <time>2022-06-25T04:34:32.000Z</time>
      </trkpt>
      <trkpt lat="46.94776" lon="3.26159">
        <ele>224.60000610352</ele>
        <time>2022-06-25T04:34:34.000Z</time>
      </trkpt>
      <trkpt lat="46.94779" lon="3.26174">
        <ele>224</ele>
        <time>2022-06-25T04:34:36.000Z</time>
      </trkpt>
      <trkpt lat="46.94777" lon="3.26197">
        <ele>224.39999389648</ele>
        <time>2022-06-25T04:34:39.000Z</time>
      </trkpt>
      <trkpt lat="46.9478" lon="3.26213">
        <ele>225</ele>
        <time>2022-06-25T04:34:41.000Z</time>
      </trkpt>
      <trkpt lat="46.94785" lon="3.26228">
        <ele>225.39999389648</ele>
        <time>2022-06-25T04:34:43.000Z</time>
      </trkpt>
      <trkpt lat="46.94794" lon="3.26239">
        <ele>225.60000610352</ele>
        <time>2022-06-25T04:34:45.000Z</time>
      </trkpt>
      <trkpt lat="46.94804" lon="3.26244">
        <ele>225</ele>
        <time>2022-06-25T04:34:47.000Z</time>
      </trkpt>
      <trkpt lat="46.9481" lon="3.26245">
        <ele>224.60000610352</ele>
        <time>2022-06-25T04:34:48.000Z</time>
      </trkpt>
      <trkpt lat="46.94816" lon="3.26244">
        <ele>224.19999694824</ele>
        <time>2022-06-25T04:34:49.000Z</time>
      </trkpt>
      <trkpt lat="46.94826" lon="3.2624">
        <ele>224</ele>
        <time>2022-06-25T04:34:51.000Z</time>
      </trkpt>
      <trkpt lat="46.94832" lon="3.26236">
        <ele>224</ele>
        <time>2022-06-25T04:34:52.000Z</time>
      </trkpt>
      <trkpt lat="46.94837" lon="3.26233">
        <ele>224</ele>
        <time>2022-06-25T04:34:53.000Z</time>
      </trkpt>
      <trkpt lat="46.94849" lon="3.26231">
        <ele>224</ele>
        <time>2022-06-25T04:34:55.000Z</time>
      </trkpt>
      <trkpt lat="46.94854" lon="3.26233">
        <ele>224</ele>
        <time>2022-06-25T04:34:56.000Z</time>
      </trkpt>
      <trkpt lat="46.94871" lon="3.26241">
        <ele>224</ele>
        <time>2022-06-25T04:34:59.000Z</time>
      </trkpt>
      <trkpt lat="46.94883" lon="3.26244">
        <ele>224</ele>
        <time>2022-06-25T04:35:01.000Z</time>
      </trkpt>
      <trkpt lat="46.94901" lon="3.26244">
        <ele>224</ele>
        <time>2022-06-25T04:35:04.000Z</time>
      </trkpt>
      <trkpt lat="46.94913" lon="3.26239">
        <ele>223.60000610352</ele>
        <time>2022-06-25T04:35:06.000Z</time>
      </trkpt>
      <trkpt lat="46.94918" lon="3.26235">
        <ele>223.39999389648</ele>
        <time>2022-06-25T04:35:07.000Z</time>
      </trkpt>
      <trkpt lat="46.94928" lon="3.26226">
        <ele>223</ele>
        <time>2022-06-25T04:35:09.000Z</time>
      </trkpt>
      <trkpt lat="46.94936" lon="3.26214">
        <ele>223</ele>
        <time>2022-06-25T04:35:11.000Z</time>
      </trkpt>
      <trkpt lat="46.94943" lon="3.262">
        <ele>223.60000610352</ele>
        <time>2022-06-25T04:35:13.000Z</time>
      </trkpt>
      <trkpt lat="46.94946" lon="3.26184">
        <ele>224.19999694824</ele>
        <time>2022-06-25T04:35:15.000Z</time>
      </trkpt>
      <trkpt lat="46.94948" lon="3.26176">
        <ele>224.39999389648</ele>
        <time>2022-06-25T04:35:16.000Z</time>
      </trkpt>
      <trkpt lat="46.94952" lon="3.26142">
        <ele>225.60000610352</ele>
        <time>2022-06-25T04:35:20.000Z</time>
      </trkpt>
      <trkpt lat="46.94956" lon="3.26101">
        <ele>226</ele>
        <time>2022-06-25T04:35:25.000Z</time>
      </trkpt>
      <trkpt lat="46.94958" lon="3.26084">
        <ele>225.39999389648</ele>
        <time>2022-06-25T04:35:27.000Z</time>
      </trkpt>
      <trkpt lat="46.94962" lon="3.26069">
        <ele>225.39999389648</ele>
        <time>2022-06-25T04:35:29.000Z</time>
      </trkpt>
      <trkpt lat="46.94979" lon="3.26034">
        <ele>225.80000305176</ele>
        <time>2022-06-25T04:35:34.000Z</time>
      </trkpt>
      <trkpt lat="46.95009" lon="3.25994">
        <ele>225.80000305176</ele>
        <time>2022-06-25T04:35:41.000Z</time>
      </trkpt>
      <trkpt lat="46.95049" lon="3.25946">
        <ele>226.39999389648</ele>
        <time>2022-06-25T04:35:50.000Z</time>
      </trkpt>
      <trkpt lat="46.95058" lon="3.25936">
        <ele>226.60000610352</ele>
        <time>2022-06-25T04:35:52.000Z</time>
      </trkpt>
      <trkpt lat="46.95093" lon="3.25896">
        <ele>227.39999389648</ele>
        <time>2022-06-25T04:36:00.000Z</time>
      </trkpt>
      <trkpt lat="46.95132" lon="3.25861">
        <ele>228.80000305176</ele>
        <time>2022-06-25T04:36:08.000Z</time>
      </trkpt>
      <trkpt lat="46.95156" lon="3.25849">
        <ele>228.19999694824</ele>
        <time>2022-06-25T04:36:12.000Z</time>
      </trkpt>
      <trkpt lat="46.95174" lon="3.25844">
        <ele>228.39999389648</ele>
        <time>2022-06-25T04:36:15.000Z</time>
      </trkpt>
      <trkpt lat="46.95217" lon="3.25843">
        <ele>228.39999389648</ele>
        <time>2022-06-25T04:36:22.000Z</time>
      </trkpt>
      <trkpt lat="46.95256" lon="3.25857">
        <ele>228</ele>
        <time>2022-06-25T04:36:28.000Z</time>
      </trkpt>
      <trkpt lat="46.9529" lon="3.25884">
        <ele>227</ele>
        <time>2022-06-25T04:36:34.000Z</time>
      </trkpt>
      <trkpt lat="46.95297" lon="3.25891">
        <ele>227.39999389648</ele>
        <time>2022-06-25T04:36:35.000Z</time>
      </trkpt>
      <trkpt lat="46.95328" lon="3.2594">
        <ele>229</ele>
        <time>2022-06-25T04:36:42.000Z</time>
      </trkpt>
      <trkpt lat="46.95337" lon="3.25956">
        <ele>229.39999389648</ele>
        <time>2022-06-25T04:36:44.000Z</time>
      </trkpt>
      <trkpt lat="46.95365" lon="3.26013">
        <ele>227.19999694824</ele>
        <time>2022-06-25T04:36:51.000Z</time>
      </trkpt>
      <trkpt lat="46.9537" lon="3.26021">
        <ele>226.80000305176</ele>
        <time>2022-06-25T04:36:52.000Z</time>
      </trkpt>
      <trkpt lat="46.95379" lon="3.26036">
        <ele>226.39999389648</ele>
        <time>2022-06-25T04:36:54.000Z</time>
      </trkpt>
      <trkpt lat="46.95397" lon="3.26054">
        <ele>225.80000305176</ele>
        <time>2022-06-25T04:36:57.000Z</time>
      </trkpt>
      <trkpt lat="46.95435" lon="3.26082">
        <ele>224.60000610352</ele>
        <time>2022-06-25T04:37:03.000Z</time>
      </trkpt>
      <trkpt lat="46.95449" lon="3.2609">
        <ele>223.80000305176</ele>
        <time>2022-06-25T04:37:05.000Z</time>
      </trkpt>
      <trkpt lat="46.95497" lon="3.26123">
        <ele>221.80000305176</ele>
        <time>2022-06-25T04:37:12.000Z</time>
      </trkpt>
      <trkpt lat="46.95529" lon="3.26144">
        <ele>222.39999389648</ele>
        <time>2022-06-25T04:37:17.000Z</time>
      </trkpt>
      <trkpt lat="46.95543" lon="3.26154">
        <ele>222.60000610352</ele>
        <time>2022-06-25T04:37:19.000Z</time>
      </trkpt>
      <trkpt lat="46.95583" lon="3.26181">
        <ele>220.39999389648</ele>
        <time>2022-06-25T04:37:25.000Z</time>
      </trkpt>
      <trkpt lat="46.95597" lon="3.2619">
        <ele>220</ele>
        <time>2022-06-25T04:37:27.000Z</time>
      </trkpt>
      <trkpt lat="46.95649" lon="3.26225">
        <ele>218</ele>
        <time>2022-06-25T04:37:35.000Z</time>
      </trkpt>
      <trkpt lat="46.95669" lon="3.26238">
        <ele>218</ele>
        <time>2022-06-25T04:37:38.000Z</time>
      </trkpt>
      <trkpt lat="46.95718" lon="3.26277">
        <ele>220.60000610352</ele>
        <time>2022-06-25T04:37:46.000Z</time>
      </trkpt>
      <trkpt lat="46.95724" lon="3.26283">
        <ele>220.80000305176</ele>
        <time>2022-06-25T04:37:47.000Z</time>
      </trkpt>
      <trkpt lat="46.95748" lon="3.26305">
        <ele>222</ele>
        <time>2022-06-25T04:37:51.000Z</time>
      </trkpt>
      <trkpt lat="46.95797" lon="3.26349">
        <ele>224.60000610352</ele>
        <time>2022-06-25T04:37:59.000Z</time>
      </trkpt>
      <trkpt lat="46.95809" lon="3.2636">
        <ele>224.60000610352</ele>
        <time>2022-06-25T04:38:01.000Z</time>
      </trkpt>
      <trkpt lat="46.95836" lon="3.26386">
        <ele>223.80000305176</ele>
        <time>2022-06-25T04:38:06.000Z</time>
      </trkpt>
      <trkpt lat="46.95868" lon="3.26421">
        <ele>223.80000305176</ele>
        <time>2022-06-25T04:38:12.000Z</time>
      </trkpt>
      <trkpt lat="46.95905" lon="3.26461">
        <ele>227</ele>
        <time>2022-06-25T04:38:19.000Z</time>
      </trkpt>
      <trkpt lat="46.95935" lon="3.26496">
        <ele>226.80000305176</ele>
        <time>2022-06-25T04:38:25.000Z</time>
      </trkpt>
      <trkpt lat="46.9594" lon="3.26502">
        <ele>226.39999389648</ele>
        <time>2022-06-25T04:38:26.000Z</time>
      </trkpt>
      <trkpt lat="46.95945" lon="3.26507">
        <ele>226</ele>
        <time>2022-06-25T04:38:27.000Z</time>
      </trkpt>
      <trkpt lat="46.95954" lon="3.26517">
        <ele>225.19999694824</ele>
        <time>2022-06-25T04:38:29.000Z</time>
      </trkpt>
      <trkpt lat="46.95963" lon="3.2653">
        <ele>224.80000305176</ele>
        <time>2022-06-25T04:38:31.000Z</time>
      </trkpt>
      <trkpt lat="46.95985" lon="3.26562">
        <ele>224.39999389648</ele>
        <time>2022-06-25T04:38:36.000Z</time>
      </trkpt>
      <trkpt lat="46.96007" lon="3.266">
        <ele>225.80000305176</ele>
        <time>2022-06-25T04:38:42.000Z</time>
      </trkpt>
      <trkpt lat="46.9601" lon="3.26607">
        <ele>226</ele>
        <time>2022-06-25T04:38:43.000Z</time>
      </trkpt>
      <trkpt lat="46.96024" lon="3.26633">
        <ele>227</ele>
        <time>2022-06-25T04:38:47.000Z</time>
      </trkpt>
      <trkpt lat="46.96028" lon="3.2664">
        <ele>227</ele>
        <time>2022-06-25T04:38:48.000Z</time>
      </trkpt>
      <trkpt lat="46.96038" lon="3.26662">
        <ele>227</ele>
        <time>2022-06-25T04:38:51.000Z</time>
      </trkpt>
      <trkpt lat="46.96044" lon="3.26678">
        <ele>226.39999389648</ele>
        <time>2022-06-25T04:38:53.000Z</time>
      </trkpt>
      <trkpt lat="46.96071" lon="3.26725">
        <ele>224.80000305176</ele>
        <time>2022-06-25T04:38:59.000Z</time>
      </trkpt>
      <trkpt lat="46.96102" lon="3.26779">
        <ele>222.19999694824</ele>
        <time>2022-06-25T04:39:06.000Z</time>
      </trkpt>
      <trkpt lat="46.96125" lon="3.26822">
        <ele>216</ele>
        <time>2022-06-25T04:39:11.000Z</time>
      </trkpt>
      <trkpt lat="46.96134" lon="3.2684">
        <ele>213.80000305176</ele>
        <time>2022-06-25T04:39:13.000Z</time>
      </trkpt>
      <trkpt lat="46.96149" lon="3.26867">
        <ele>212</ele>
        <time>2022-06-25T04:39:16.000Z</time>
      </trkpt>
      <trkpt lat="46.96172" lon="3.26902">
        <ele>211.19999694824</ele>
        <time>2022-06-25T04:39:20.000Z</time>
      </trkpt>
      <trkpt lat="46.96197" lon="3.26933">
        <ele>211.19999694824</ele>
        <time>2022-06-25T04:39:24.000Z</time>
      </trkpt>
      <trkpt lat="46.9623" lon="3.26969">
        <ele>210.39999389648</ele>
        <time>2022-06-25T04:39:29.000Z</time>
      </trkpt>
      <trkpt lat="46.96251" lon="3.26993">
        <ele>209.19999694824</ele>
        <time>2022-06-25T04:39:32.000Z</time>
      </trkpt>
      <trkpt lat="46.96272" lon="3.27016">
        <ele>207.39999389648</ele>
        <time>2022-06-25T04:39:35.000Z</time>
      </trkpt>
      <trkpt lat="46.96292" lon="3.27039">
        <ele>206.60000610352</ele>
        <time>2022-06-25T04:39:38.000Z</time>
      </trkpt>
      <trkpt lat="46.96317" lon="3.27067">
        <ele>206.80000305176</ele>
        <time>2022-06-25T04:39:42.000Z</time>
      </trkpt>
      <trkpt lat="46.96334" lon="3.27088">
        <ele>206.39999389648</ele>
        <time>2022-06-25T04:39:45.000Z</time>
      </trkpt>
      <trkpt lat="46.96364" lon="3.27123">
        <ele>204.60000610352</ele>
        <time>2022-06-25T04:39:50.000Z</time>
      </trkpt>
      <trkpt lat="46.96383" lon="3.27144">
        <ele>203.39999389648</ele>
        <time>2022-06-25T04:39:53.000Z</time>
      </trkpt>
      <trkpt lat="46.96396" lon="3.27159">
        <ele>202.60000610352</ele>
        <time>2022-06-25T04:39:55.000Z</time>
      </trkpt>
      <trkpt lat="46.96415" lon="3.2718">
        <ele>201.60000610352</ele>
        <time>2022-06-25T04:39:58.000Z</time>
      </trkpt>
      <trkpt lat="46.96433" lon="3.27201">
        <ele>201.39999389648</ele>
        <time>2022-06-25T04:40:01.000Z</time>
      </trkpt>
      <trkpt lat="46.96444" lon="3.27215">
        <ele>202</ele>
        <time>2022-06-25T04:40:03.000Z</time>
      </trkpt>
      <trkpt lat="46.96461" lon="3.27235">
        <ele>202.60000610352</ele>
        <time>2022-06-25T04:40:06.000Z</time>
      </trkpt>
      <trkpt lat="46.96479" lon="3.27252">
        <ele>203</ele>
        <time>2022-06-25T04:40:09.000Z</time>
      </trkpt>
      <trkpt lat="46.96485" lon="3.27257">
        <ele>203</ele>
        <time>2022-06-25T04:40:10.000Z</time>
      </trkpt>
      <trkpt lat="46.9651" lon="3.27271">
        <ele>203</ele>
        <time>2022-06-25T04:40:14.000Z</time>
      </trkpt>
      <trkpt lat="46.96553" lon="3.27285">
        <ele>204</ele>
        <time>2022-06-25T04:40:21.000Z</time>
      </trkpt>
      <trkpt lat="46.96582" lon="3.27295">
        <ele>204.60000610352</ele>
        <time>2022-06-25T04:40:27.000Z</time>
      </trkpt>
      <trkpt lat="46.96587" lon="3.27297">
        <ele>204.60000610352</ele>
        <time>2022-06-25T04:40:28.000Z</time>
      </trkpt>
      <trkpt lat="46.96609" lon="3.27305">
        <ele>205.60000610352</ele>
        <time>2022-06-25T04:40:33.000Z</time>
      </trkpt>
      <trkpt lat="46.96613" lon="3.27307">
        <ele>205.80000305176</ele>
        <time>2022-06-25T04:40:34.000Z</time>
      </trkpt>
      <trkpt lat="46.96624" lon="3.27313">
        <ele>206.60000610352</ele>
        <time>2022-06-25T04:40:37.000Z</time>
      </trkpt>
      <trkpt lat="46.96641" lon="3.27326">
        <ele>208.19999694824</ele>
        <time>2022-06-25T04:40:42.000Z</time>
      </trkpt>
      <trkpt lat="46.96651" lon="3.27334">
        <ele>209</ele>
        <time>2022-06-25T04:40:45.000Z</time>
      </trkpt>
      <trkpt lat="46.96661" lon="3.27341">
        <ele>210</ele>
        <time>2022-06-25T04:40:48.000Z</time>
      </trkpt>
      <trkpt lat="46.96665" lon="3.27342">
        <ele>210.39999389648</ele>
        <time>2022-06-25T04:40:49.000Z</time>
      </trkpt>
      <trkpt lat="46.96676" lon="3.27342">
        <ele>211.60000610352</ele>
        <time>2022-06-25T04:40:52.000Z</time>
      </trkpt>
      <trkpt lat="46.96686" lon="3.27337">
        <ele>213</ele>
        <time>2022-06-25T04:40:55.000Z</time>
      </trkpt>
      <trkpt lat="46.9669" lon="3.27336">
        <ele>213.39999389648</ele>
        <time>2022-06-25T04:40:56.000Z</time>
      </trkpt>
      <trkpt lat="46.967" lon="3.27331">
        <ele>214.39999389648</ele>
        <time>2022-06-25T04:40:59.000Z</time>
      </trkpt>
      <trkpt lat="46.9671" lon="3.27325">
        <ele>215.19999694824</ele>
        <time>2022-06-25T04:41:02.000Z</time>
      </trkpt>
      <trkpt lat="46.96713" lon="3.27324">
        <ele>215.60000610352</ele>
        <time>2022-06-25T04:41:03.000Z</time>
      </trkpt>
      <trkpt lat="46.96724" lon="3.27319">
        <ele>216.60000610352</ele>
        <time>2022-06-25T04:41:06.000Z</time>
      </trkpt>
      <trkpt lat="46.96738" lon="3.27311">
        <ele>217.60000610352</ele>
        <time>2022-06-25T04:41:10.000Z</time>
      </trkpt>
      <trkpt lat="46.96745" lon="3.27309">
        <ele>218</ele>
        <time>2022-06-25T04:41:12.000Z</time>
      </trkpt>
      <trkpt lat="46.96748" lon="3.27309">
        <ele>218.39999389648</ele>
        <time>2022-06-25T04:41:13.000Z</time>
      </trkpt>
      <trkpt lat="46.96753" lon="3.27314">
        <ele>219</ele>
        <time>2022-06-25T04:41:15.000Z</time>
      </trkpt>
      <trkpt lat="46.96758" lon="3.2732">
        <ele>219.39999389648</ele>
        <time>2022-06-25T04:41:17.000Z</time>
      </trkpt>
      <trkpt lat="46.96764" lon="3.27318">
        <ele>220</ele>
        <time>2022-06-25T04:41:19.000Z</time>
      </trkpt>
      <trkpt lat="46.96767" lon="3.27314">
        <ele>220.19999694824</ele>
        <time>2022-06-25T04:41:20.000Z</time>
      </trkpt>
      <trkpt lat="46.96778" lon="3.27297">
        <ele>221</ele>
        <time>2022-06-25T04:41:24.000Z</time>
      </trkpt>
      <trkpt lat="46.96799" lon="3.27274">
        <ele>223</ele>
        <time>2022-06-25T04:41:31.000Z</time>
      </trkpt>
      <trkpt lat="46.96806" lon="3.27278">
        <ele>223</ele>
        <time>2022-06-25T04:41:33.000Z</time>
      </trkpt>
      <trkpt lat="46.96808" lon="3.27283">
        <ele>223</ele>
        <time>2022-06-25T04:41:34.000Z</time>
      </trkpt>
      <trkpt lat="46.96812" lon="3.2732">
        <ele>222.80000305176</ele>
        <time>2022-06-25T04:41:40.000Z</time>
      </trkpt>
      <trkpt lat="46.96814" lon="3.27334">
        <ele>222.80000305176</ele>
        <time>2022-06-25T04:41:42.000Z</time>
      </trkpt>
      <trkpt lat="46.96817" lon="3.27354">
        <ele>223</ele>
        <time>2022-06-25T04:41:45.000Z</time>
      </trkpt>
      <trkpt lat="46.9682" lon="3.27375">
        <ele>223</ele>
        <time>2022-06-25T04:41:48.000Z</time>
      </trkpt>
      <trkpt lat="46.96824" lon="3.27389">
        <ele>222.80000305176</ele>
        <time>2022-06-25T04:41:50.000Z</time>
      </trkpt>
      <trkpt lat="46.96831" lon="3.27411">
        <ele>222.60000610352</ele>
        <time>2022-06-25T04:41:53.000Z</time>
      </trkpt>
      <trkpt lat="46.96834" lon="3.27417">
        <ele>222.39999389648</ele>
        <time>2022-06-25T04:41:54.000Z</time>
      </trkpt>
      <trkpt lat="46.96845" lon="3.27437">
        <ele>222</ele>
        <time>2022-06-25T04:41:57.000Z</time>
      </trkpt>
      <trkpt lat="46.96854" lon="3.27457">
        <ele>222</ele>
        <time>2022-06-25T04:42:00.000Z</time>
      </trkpt>
      <trkpt lat="46.96858" lon="3.27464">
        <ele>222</ele>
        <time>2022-06-25T04:42:01.000Z</time>
      </trkpt>
      <trkpt lat="46.96867" lon="3.27472">
        <ele>222</ele>
        <time>2022-06-25T04:42:03.000Z</time>
      </trkpt>
      <trkpt lat="46.96879" lon="3.27474">
        <ele>222.19999694824</ele>
        <time>2022-06-25T04:42:05.000Z</time>
      </trkpt>
      <trkpt lat="46.96885" lon="3.27474">
        <ele>222.19999694824</ele>
        <time>2022-06-25T04:42:06.000Z</time>
      </trkpt>
      <trkpt lat="46.96905" lon="3.27471">
        <ele>222</ele>
        <time>2022-06-25T04:42:09.000Z</time>
      </trkpt>
      <trkpt lat="46.96928" lon="3.27468">
        <ele>221</ele>
        <time>2022-06-25T04:42:12.000Z</time>
      </trkpt>
      <trkpt lat="46.96935" lon="3.27466">
        <ele>220.39999389648</ele>
        <time>2022-06-25T04:42:13.000Z</time>
      </trkpt>
      <trkpt lat="46.96958" lon="3.27462">
        <ele>218</ele>
        <time>2022-06-25T04:42:16.000Z</time>
      </trkpt>
      <trkpt lat="46.96994" lon="3.27452">
        <ele>215.60000610352</ele>
        <time>2022-06-25T04:42:21.000Z</time>
      </trkpt>
      <trkpt lat="46.97036" lon="3.2744">
        <ele>215</ele>
        <time>2022-06-25T04:42:27.000Z</time>
      </trkpt>
      <trkpt lat="46.97056" lon="3.27438">
        <ele>215.60000610352</ele>
        <time>2022-06-25T04:42:30.000Z</time>
      </trkpt>
      <trkpt lat="46.97087" lon="3.27449">
        <ele>216.60000610352</ele>
        <time>2022-06-25T04:42:35.000Z</time>
      </trkpt>
      <trkpt lat="46.97112" lon="3.27466">
        <ele>218.19999694824</ele>
        <time>2022-06-25T04:42:40.000Z</time>
      </trkpt>
      <trkpt lat="46.97133" lon="3.27484">
        <ele>218.60000610352</ele>
        <time>2022-06-25T04:42:45.000Z</time>
      </trkpt>
      <trkpt lat="46.97149" lon="3.27499">
        <ele>219.39999389648</ele>
        <time>2022-06-25T04:42:49.000Z</time>
      </trkpt>
      <trkpt lat="46.97166" lon="3.27516">
        <ele>220</ele>
        <time>2022-06-25T04:42:53.000Z</time>
      </trkpt>
      <trkpt lat="46.97175" lon="3.27524">
        <ele>220.19999694824</ele>
        <time>2022-06-25T04:42:55.000Z</time>
      </trkpt>
      <trkpt lat="46.972" lon="3.27548">
        <ele>219.60000610352</ele>
        <time>2022-06-25T04:43:01.000Z</time>
      </trkpt>
      <trkpt lat="46.97213" lon="3.27561">
        <ele>219.80000305176</ele>
        <time>2022-06-25T04:43:04.000Z</time>
      </trkpt>
      <trkpt lat="46.97245" lon="3.2759">
        <ele>220.80000305176</ele>
        <time>2022-06-25T04:43:12.000Z</time>
      </trkpt>
      <trkpt lat="46.97249" lon="3.27594">
        <ele>220.80000305176</ele>
        <time>2022-06-25T04:43:13.000Z</time>
      </trkpt>
      <trkpt lat="46.97272" lon="3.2761">
        <ele>221.19999694824</ele>
        <time>2022-06-25T04:43:18.000Z</time>
      </trkpt>
      <trkpt lat="46.97285" lon="3.27619">
        <ele>221.60000610352</ele>
        <time>2022-06-25T04:43:21.000Z</time>
      </trkpt>
      <trkpt lat="46.97312" lon="3.27636">
        <ele>222.39999389648</ele>
        <time>2022-06-25T04:43:27.000Z</time>
      </trkpt>
      <trkpt lat="46.9733" lon="3.27647">
        <ele>223.39999389648</ele>
        <time>2022-06-25T04:43:31.000Z</time>
      </trkpt>
      <trkpt lat="46.97354" lon="3.27661">
        <ele>224.80000305176</ele>
        <time>2022-06-25T04:43:36.000Z</time>
      </trkpt>
      <trkpt lat="46.97386" lon="3.2768">
        <ele>226.80000305176</ele>
        <time>2022-06-25T04:43:43.000Z</time>
      </trkpt>
      <trkpt lat="46.97424" lon="3.27703">
        <ele>226.39999389648</ele>
        <time>2022-06-25T04:43:51.000Z</time>
      </trkpt>
      <trkpt lat="46.97445" lon="3.27715">
        <ele>226</ele>
        <time>2022-06-25T04:43:55.000Z</time>
      </trkpt>
      <trkpt lat="46.97498" lon="3.2774">
        <ele>227</ele>
        <time>2022-06-25T04:44:05.000Z</time>
      </trkpt>
      <trkpt lat="46.97509" lon="3.27745">
        <ele>227.60000610352</ele>
        <time>2022-06-25T04:44:07.000Z</time>
      </trkpt>
      <trkpt lat="46.97555" lon="3.27767">
        <ele>228.60000610352</ele>
        <time>2022-06-25T04:44:16.000Z</time>
      </trkpt>
      <trkpt lat="46.97596" lon="3.27786">
        <ele>229.39999389648</ele>
        <time>2022-06-25T04:44:24.000Z</time>
      </trkpt>
      <trkpt lat="46.97618" lon="3.27795">
        <ele>229.19999694824</ele>
        <time>2022-06-25T04:44:28.000Z</time>
      </trkpt>
      <trkpt lat="46.9767" lon="3.27819">
        <ele>227.60000610352</ele>
        <time>2022-06-25T04:44:37.000Z</time>
      </trkpt>
      <trkpt lat="46.97711" lon="3.27838">
        <ele>227.60000610352</ele>
        <time>2022-06-25T04:44:44.000Z</time>
      </trkpt>
      <trkpt lat="46.97734" lon="3.27848">
        <ele>227.19999694824</ele>
        <time>2022-06-25T04:44:48.000Z</time>
      </trkpt>
      <trkpt lat="46.97769" lon="3.27864">
        <ele>226.39999389648</ele>
        <time>2022-06-25T04:44:54.000Z</time>
      </trkpt>
      <trkpt lat="46.97825" lon="3.27891">
        <ele>224.60000610352</ele>
        <time>2022-06-25T04:45:04.000Z</time>
      </trkpt>
      <trkpt lat="46.97837" lon="3.27896">
        <ele>224.60000610352</ele>
        <time>2022-06-25T04:45:06.000Z</time>
      </trkpt>
      <trkpt lat="46.97876" lon="3.27913">
        <ele>225</ele>
        <time>2022-06-25T04:45:13.000Z</time>
      </trkpt>
      <trkpt lat="46.97925" lon="3.27936">
        <ele>226.80000305176</ele>
        <time>2022-06-25T04:45:22.000Z</time>
      </trkpt>
      <trkpt lat="46.97978" lon="3.27964">
        <ele>228.80000305176</ele>
        <time>2022-06-25T04:45:32.000Z</time>
      </trkpt>
      <trkpt lat="46.98016" lon="3.27999">
        <ele>229</ele>
        <time>2022-06-25T04:45:40.000Z</time>
      </trkpt>
      <trkpt lat="46.98059" lon="3.28053">
        <ele>229</ele>
        <time>2022-06-25T04:45:50.000Z</time>
      </trkpt>
      <trkpt lat="46.98086" lon="3.28093">
        <ele>229</ele>
        <time>2022-06-25T04:45:57.000Z</time>
      </trkpt>
      <trkpt lat="46.98089" lon="3.28099">
        <ele>229</ele>
        <time>2022-06-25T04:45:58.000Z</time>
      </trkpt>
      <trkpt lat="46.98103" lon="3.28132">
        <ele>229.19999694824</ele>
        <time>2022-06-25T04:46:03.000Z</time>
      </trkpt>
      <trkpt lat="46.9811" lon="3.28153">
        <ele>229.39999389648</ele>
        <time>2022-06-25T04:46:06.000Z</time>
      </trkpt>
      <trkpt lat="46.98124" lon="3.28179">
        <ele>229.39999389648</ele>
        <time>2022-06-25T04:46:10.000Z</time>
      </trkpt>
      <trkpt lat="46.98151" lon="3.28207">
        <ele>230.60000610352</ele>
        <time>2022-06-25T04:46:16.000Z</time>
      </trkpt>
      <trkpt lat="46.98164" lon="3.28218">
        <ele>231.80000305176</ele>
        <time>2022-06-25T04:46:19.000Z</time>
      </trkpt>
      <trkpt lat="46.98186" lon="3.28234">
        <ele>233.80000305176</ele>
        <time>2022-06-25T04:46:24.000Z</time>
      </trkpt>
      <trkpt lat="46.9819" lon="3.28238">
        <ele>234.19999694824</ele>
        <time>2022-06-25T04:46:25.000Z</time>
      </trkpt>
      <trkpt lat="46.98207" lon="3.28251">
        <ele>235</ele>
        <time>2022-06-25T04:46:29.000Z</time>
      </trkpt>
      <trkpt lat="46.98229" lon="3.28267">
        <ele>235</ele>
        <time>2022-06-25T04:46:34.000Z</time>
      </trkpt>
      <trkpt lat="46.98242" lon="3.28276">
        <ele>235.39999389648</ele>
        <time>2022-06-25T04:46:37.000Z</time>
      </trkpt>
      <trkpt lat="46.98263" lon="3.28291">
        <ele>237</ele>
        <time>2022-06-25T04:46:42.000Z</time>
      </trkpt>
      <trkpt lat="46.98268" lon="3.28294">
        <ele>237.19999694824</ele>
        <time>2022-06-25T04:46:43.000Z</time>
      </trkpt>
      <trkpt lat="46.98281" lon="3.28301">
        <ele>237.60000610352</ele>
        <time>2022-06-25T04:46:46.000Z</time>
      </trkpt>
      <trkpt lat="46.98295" lon="3.28306">
        <ele>238.19999694824</ele>
        <time>2022-06-25T04:46:49.000Z</time>
      </trkpt>
      <trkpt lat="46.98311" lon="3.2831">
        <ele>238.80000305176</ele>
        <time>2022-06-25T04:46:52.000Z</time>
      </trkpt>
      <trkpt lat="46.98342" lon="3.28312">
        <ele>239.80000305176</ele>
        <time>2022-06-25T04:46:57.000Z</time>
      </trkpt>
      <trkpt lat="46.98385" lon="3.28306">
        <ele>241.80000305176</ele>
        <time>2022-06-25T04:47:04.000Z</time>
      </trkpt>
      <trkpt lat="46.98418" lon="3.283">
        <ele>244.19999694824</ele>
        <time>2022-06-25T04:47:10.000Z</time>
      </trkpt>
      <trkpt lat="46.98448" lon="3.28294">
        <ele>246.19999694824</ele>
        <time>2022-06-25T04:47:16.000Z</time>
      </trkpt>
      <trkpt lat="46.98472" lon="3.2829">
        <ele>247</ele>
        <time>2022-06-25T04:47:21.000Z</time>
      </trkpt>
      <trkpt lat="46.98488" lon="3.28287">
        <ele>247</ele>
        <time>2022-06-25T04:47:24.000Z</time>
      </trkpt>
      <trkpt lat="46.98526" lon="3.28279">
        <ele>246.39999389648</ele>
        <time>2022-06-25T04:47:30.000Z</time>
      </trkpt>
      <trkpt lat="46.98575" lon="3.28271">
        <ele>248.19999694824</ele>
        <time>2022-06-25T04:47:38.000Z</time>
      </trkpt>
      <trkpt lat="46.98603" lon="3.28268">
        <ele>249</ele>
        <time>2022-06-25T04:47:44.000Z</time>
      </trkpt>
      <trkpt lat="46.98624" lon="3.28265">
        <ele>249.80000305176</ele>
        <time>2022-06-25T04:47:49.000Z</time>
      </trkpt>
      <trkpt lat="46.98633" lon="3.28264">
        <ele>250.39999389648</ele>
        <time>2022-06-25T04:47:51.000Z</time>
      </trkpt>
      <trkpt lat="46.98637" lon="3.28263">
        <ele>250.60000610352</ele>
        <time>2022-06-25T04:47:52.000Z</time>
      </trkpt>
      <trkpt lat="46.98646" lon="3.28262">
        <ele>251.19999694824</ele>
        <time>2022-06-25T04:47:54.000Z</time>
      </trkpt>
      <trkpt lat="46.98657" lon="3.28259">
        <ele>252</ele>
        <time>2022-06-25T04:47:57.000Z</time>
      </trkpt>
      <trkpt lat="46.98688" lon="3.28252">
        <ele>253.80000305176</ele>
        <time>2022-06-25T04:48:03.000Z</time>
      </trkpt>
      <trkpt lat="46.98718" lon="3.28243">
        <ele>255.39999389648</ele>
        <time>2022-06-25T04:48:08.000Z</time>
      </trkpt>
      <trkpt lat="46.98739" lon="3.28243">
        <ele>256.20001220703</ele>
        <time>2022-06-25T04:48:12.000Z</time>
      </trkpt>
      <trkpt lat="46.98744" lon="3.28242">
        <ele>256.60000610352</ele>
        <time>2022-06-25T04:48:13.000Z</time>
      </trkpt>
      <trkpt lat="46.98749" lon="3.28241">
        <ele>256.79998779297</ele>
        <time>2022-06-25T04:48:14.000Z</time>
      </trkpt>
      <trkpt lat="46.98764" lon="3.28237">
        <ele>257.79998779297</ele>
        <time>2022-06-25T04:48:17.000Z</time>
      </trkpt>
      <trkpt lat="46.98781" lon="3.28233">
        <ele>258.20001220703</ele>
        <time>2022-06-25T04:48:20.000Z</time>
      </trkpt>
      <trkpt lat="46.98788" lon="3.28231">
        <ele>258.79998779297</ele>
        <time>2022-06-25T04:48:21.000Z</time>
      </trkpt>
      <trkpt lat="46.98808" lon="3.28227">
        <ele>259</ele>
        <time>2022-06-25T04:48:26.000Z</time>
      </trkpt>
      <trkpt lat="46.98817" lon="3.28226">
        <ele>259</ele>
        <time>2022-06-25T04:48:28.000Z</time>
      </trkpt>
      <trkpt lat="46.9883" lon="3.28223">
        <ele>259.39999389648</ele>
        <time>2022-06-25T04:48:31.000Z</time>
      </trkpt>
      <trkpt lat="46.98849" lon="3.28218">
        <ele>260</ele>
        <time>2022-06-25T04:48:35.000Z</time>
      </trkpt>
      <trkpt lat="46.98852" lon="3.28218">
        <ele>260.20001220703</ele>
        <time>2022-06-25T04:48:36.000Z</time>
      </trkpt>
      <trkpt lat="46.98868" lon="3.28215">
        <ele>260.79998779297</ele>
        <time>2022-06-25T04:48:40.000Z</time>
      </trkpt>
      <trkpt lat="46.98897" lon="3.28212">
        <ele>261.79998779297</ele>
        <time>2022-06-25T04:48:46.000Z</time>
      </trkpt>
      <trkpt lat="46.98914" lon="3.28207">
        <ele>262.39999389648</ele>
        <time>2022-06-25T04:48:50.000Z</time>
      </trkpt>
      <trkpt lat="46.98924" lon="3.28204">
        <ele>262.79998779297</ele>
        <time>2022-06-25T04:48:52.000Z</time>
      </trkpt>
      <trkpt lat="46.98939" lon="3.28199">
        <ele>263.39999389648</ele>
        <time>2022-06-25T04:48:55.000Z</time>
      </trkpt>
      <trkpt lat="46.98949" lon="3.28199">
        <ele>264</ele>
        <time>2022-06-25T04:48:57.000Z</time>
      </trkpt>
      <trkpt lat="46.98968" lon="3.28195">
        <ele>265.39999389648</ele>
        <time>2022-06-25T04:49:00.000Z</time>
      </trkpt>
      <trkpt lat="46.98973" lon="3.28194">
        <ele>265.60000610352</ele>
        <time>2022-06-25T04:49:01.000Z</time>
      </trkpt>
      <trkpt lat="46.98984" lon="3.28192">
        <ele>266</ele>
        <time>2022-06-25T04:49:03.000Z</time>
      </trkpt>
      <trkpt lat="46.98994" lon="3.28194">
        <ele>266.20001220703</ele>
        <time>2022-06-25T04:49:06.000Z</time>
      </trkpt>
      <trkpt lat="46.99021" lon="3.28188">
        <ele>267.20001220703</ele>
        <time>2022-06-25T04:49:11.000Z</time>
      </trkpt>
      <trkpt lat="46.99041" lon="3.28184">
        <ele>268</ele>
        <time>2022-06-25T04:49:14.000Z</time>
      </trkpt>
      <trkpt lat="46.99052" lon="3.2818">
        <ele>268</ele>
        <time>2022-06-25T04:49:16.000Z</time>
      </trkpt>
      <trkpt lat="46.99065" lon="3.28179">
        <ele>268</ele>
        <time>2022-06-25T04:49:18.000Z</time>
      </trkpt>
      <trkpt lat="46.9908" lon="3.28177">
        <ele>268</ele>
        <time>2022-06-25T04:49:20.000Z</time>
      </trkpt>
      <trkpt lat="46.99094" lon="3.28173">
        <ele>268</ele>
        <time>2022-06-25T04:49:22.000Z</time>
      </trkpt>
      <trkpt lat="46.99101" lon="3.28171">
        <ele>268</ele>
        <time>2022-06-25T04:49:23.000Z</time>
      </trkpt>
      <trkpt lat="46.99128" lon="3.28166">
        <ele>267</ele>
        <time>2022-06-25T04:49:26.000Z</time>
      </trkpt>
      <trkpt lat="46.99135" lon="3.28166">
        <ele>266.39999389648</ele>
        <time>2022-06-25T04:49:27.000Z</time>
      </trkpt>
      <trkpt lat="46.99174" lon="3.2816">
        <ele>264.20001220703</ele>
        <time>2022-06-25T04:49:31.000Z</time>
      </trkpt>
      <trkpt lat="46.99181" lon="3.28159">
        <ele>264</ele>
        <time>2022-06-25T04:49:32.000Z</time>
      </trkpt>
      <trkpt lat="46.99199" lon="3.28156">
        <ele>263.39999389648</ele>
        <time>2022-06-25T04:49:34.000Z</time>
      </trkpt>
      <trkpt lat="46.99224" lon="3.28152">
        <ele>262.79998779297</ele>
        <time>2022-06-25T04:49:37.000Z</time>
      </trkpt>
      <trkpt lat="46.99234" lon="3.28151">
        <ele>262.20001220703</ele>
        <time>2022-06-25T04:49:38.000Z</time>
      </trkpt>
      <trkpt lat="46.99245" lon="3.28148">
        <ele>261.39999389648</ele>
        <time>2022-06-25T04:49:39.000Z</time>
      </trkpt>
      <trkpt lat="46.99265" lon="3.28143">
        <ele>260</ele>
        <time>2022-06-25T04:49:41.000Z</time>
      </trkpt>
      <trkpt lat="46.99292" lon="3.28137">
        <ele>258</ele>
        <time>2022-06-25T04:49:44.000Z</time>
      </trkpt>
      <trkpt lat="46.99312" lon="3.28133">
        <ele>256.60000610352</ele>
        <time>2022-06-25T04:49:46.000Z</time>
      </trkpt>
      <trkpt lat="46.99344" lon="3.28123">
        <ele>254.39999389648</ele>
        <time>2022-06-25T04:49:49.000Z</time>
      </trkpt>
      <trkpt lat="46.9936" lon="3.28119">
        <ele>254</ele>
        <time>2022-06-25T04:49:51.000Z</time>
      </trkpt>
      <trkpt lat="46.99369" lon="3.28118">
        <ele>253.39999389648</ele>
        <time>2022-06-25T04:49:52.000Z</time>
      </trkpt>
      <trkpt lat="46.99395" lon="3.28115">
        <ele>251.60000610352</ele>
        <time>2022-06-25T04:49:55.000Z</time>
      </trkpt>
      <trkpt lat="46.99422" lon="3.28109">
        <ele>248.80000305176</ele>
        <time>2022-06-25T04:49:58.000Z</time>
      </trkpt>
      <trkpt lat="46.99437" lon="3.28106">
        <ele>247</ele>
        <time>2022-06-25T04:50:00.000Z</time>
      </trkpt>
      <trkpt lat="46.9949" lon="3.28096">
        <ele>241.60000610352</ele>
        <time>2022-06-25T04:50:07.000Z</time>
      </trkpt>
      <trkpt lat="46.99534" lon="3.28088">
        <ele>241.39999389648</ele>
        <time>2022-06-25T04:50:14.000Z</time>
      </trkpt>
      <trkpt lat="46.99593" lon="3.28077">
        <ele>239.39999389648</ele>
        <time>2022-06-25T04:50:23.000Z</time>
      </trkpt>
      <trkpt lat="46.99613" lon="3.28073">
        <ele>238.39999389648</ele>
        <time>2022-06-25T04:50:26.000Z</time>
      </trkpt>
      <trkpt lat="46.99642" lon="3.28068">
        <ele>238</ele>
        <time>2022-06-25T04:50:30.000Z</time>
      </trkpt>
      <trkpt lat="46.99679" lon="3.28061">
        <ele>238.60000610352</ele>
        <time>2022-06-25T04:50:35.000Z</time>
      </trkpt>
      <trkpt lat="46.99709" lon="3.28055">
        <ele>237</ele>
        <time>2022-06-25T04:50:39.000Z</time>
      </trkpt>
      <trkpt lat="46.99762" lon="3.28044">
        <ele>235</ele>
        <time>2022-06-25T04:50:46.000Z</time>
      </trkpt>
      <trkpt lat="46.99769" lon="3.28042">
        <ele>234.80000305176</ele>
        <time>2022-06-25T04:50:47.000Z</time>
      </trkpt>
      <trkpt lat="46.99793" lon="3.28037">
        <ele>234</ele>
        <time>2022-06-25T04:50:50.000Z</time>
      </trkpt>
      <trkpt lat="46.99819" lon="3.28032">
        <ele>233</ele>
        <time>2022-06-25T04:50:53.000Z</time>
      </trkpt>
      <trkpt lat="46.99844" lon="3.28027">
        <ele>231.19999694824</ele>
        <time>2022-06-25T04:50:56.000Z</time>
      </trkpt>
      <trkpt lat="46.99866" lon="3.28023">
        <ele>231.60000610352</ele>
        <time>2022-06-25T04:50:59.000Z</time>
      </trkpt>
      <trkpt lat="46.99879" lon="3.28021">
        <ele>232.60000610352</ele>
        <time>2022-06-25T04:51:01.000Z</time>
      </trkpt>
      <trkpt lat="46.99898" lon="3.28018">
        <ele>235.60000610352</ele>
        <time>2022-06-25T04:51:05.000Z</time>
      </trkpt>
      <trkpt lat="46.99902" lon="3.28019">
        <ele>236</ele>
        <time>2022-06-25T04:51:06.000Z</time>
      </trkpt>
      <trkpt lat="46.99918" lon="3.2803">
        <ele>238.80000305176</ele>
        <time>2022-06-25T04:51:11.000Z</time>
      </trkpt>
      <trkpt lat="46.99922" lon="3.28032">
        <ele>239.39999389648</ele>
        <time>2022-06-25T04:51:12.000Z</time>
      </trkpt>
      <trkpt lat="46.99931" lon="3.28033">
        <ele>241</ele>
        <time>2022-06-25T04:51:14.000Z</time>
      </trkpt>
      <trkpt lat="46.99935" lon="3.28032">
        <ele>241.60000610352</ele>
        <time>2022-06-25T04:51:15.000Z</time>
      </trkpt>
      <trkpt lat="46.9994" lon="3.28032">
        <ele>242.39999389648</ele>
        <time>2022-06-25T04:51:16.000Z</time>
      </trkpt>
      <trkpt lat="46.99949" lon="3.28038">
        <ele>243.60000610352</ele>
        <time>2022-06-25T04:51:18.000Z</time>
      </trkpt>
      <trkpt lat="46.99968" lon="3.28058">
        <ele>245.39999389648</ele>
        <time>2022-06-25T04:51:23.000Z</time>
      </trkpt>
      <trkpt lat="46.99974" lon="3.28066">
        <ele>245.60000610352</ele>
        <time>2022-06-25T04:51:25.000Z</time>
      </trkpt>
      <trkpt lat="46.99986" lon="3.28081">
        <ele>246</ele>
        <time>2022-06-25T04:51:29.000Z</time>
      </trkpt>
      <trkpt lat="46.99989" lon="3.28085">
        <ele>248</ele>
        <time>2022-06-25T04:51:30.000Z</time>
      </trkpt>
      <trkpt lat="47.00002" lon="3.28101">
        <ele>248</ele>
        <time>2022-06-25T04:51:34.000Z</time>
      </trkpt>
      <trkpt lat="47.00005" lon="3.28104">
        <ele>248</ele>
        <time>2022-06-25T04:51:35.000Z</time>
      </trkpt>
      <trkpt lat="47.00017" lon="3.28114">
        <ele>248.19999694824</ele>
        <time>2022-06-25T04:51:38.000Z</time>
      </trkpt>
      <trkpt lat="47.00031" lon="3.28126">
        <ele>248.60000610352</ele>
        <time>2022-06-25T04:51:41.000Z</time>
      </trkpt>
      <trkpt lat="47.00044" lon="3.28138">
        <ele>249.19999694824</ele>
        <time>2022-06-25T04:51:44.000Z</time>
      </trkpt>
      <trkpt lat="47.00048" lon="3.28143">
        <ele>249.39999389648</ele>
        <time>2022-06-25T04:51:45.000Z</time>
      </trkpt>
      <trkpt lat="47.00072" lon="3.28169">
        <ele>250.80000305176</ele>
        <time>2022-06-25T04:51:52.000Z</time>
      </trkpt>
      <trkpt lat="47.00091" lon="3.28189">
        <ele>250.80000305176</ele>
        <time>2022-06-25T04:51:57.000Z</time>
      </trkpt>
      <trkpt lat="47.00095" lon="3.28193">
        <ele>250.60000610352</ele>
        <time>2022-06-25T04:51:58.000Z</time>
      </trkpt>
      <trkpt lat="47.00099" lon="3.28196">
        <ele>250.60000610352</ele>
        <time>2022-06-25T04:51:59.000Z</time>
      </trkpt>
      <trkpt lat="47.00103" lon="3.282">
        <ele>250.60000610352</ele>
        <time>2022-06-25T04:52:00.000Z</time>
      </trkpt>
      <trkpt lat="47.00112" lon="3.28209">
        <ele>250.60000610352</ele>
        <time>2022-06-25T04:52:02.000Z</time>
      </trkpt>
      <trkpt lat="47.00116" lon="3.28213">
        <ele>250.60000610352</ele>
        <time>2022-06-25T04:52:03.000Z</time>
      </trkpt>
      <trkpt lat="47.00123" lon="3.28222">
        <ele>250.60000610352</ele>
        <time>2022-06-25T04:52:05.000Z</time>
      </trkpt>
      <trkpt lat="47.00128" lon="3.28226">
        <ele>250.80000305176</ele>
        <time>2022-06-25T04:52:06.000Z</time>
      </trkpt>
      <trkpt lat="47.00158" lon="3.28253">
        <ele>252.19999694824</ele>
        <time>2022-06-25T04:52:12.000Z</time>
      </trkpt>
      <trkpt lat="47.00169" lon="3.28263">
        <ele>253</ele>
        <time>2022-06-25T04:52:14.000Z</time>
      </trkpt>
      <trkpt lat="47.00178" lon="3.28273">
        <ele>253.60000610352</ele>
        <time>2022-06-25T04:52:16.000Z</time>
      </trkpt>
      <trkpt lat="47.00182" lon="3.28279">
        <ele>253.80000305176</ele>
        <time>2022-06-25T04:52:17.000Z</time>
      </trkpt>
      <trkpt lat="47.00213" lon="3.2831">
        <ele>254.80000305176</ele>
        <time>2022-06-25T04:52:24.000Z</time>
      </trkpt>
      <trkpt lat="47.00229" lon="3.28328">
        <ele>254.80000305176</ele>
        <time>2022-06-25T04:52:28.000Z</time>
      </trkpt>
      <trkpt lat="47.00236" lon="3.28336">
        <ele>254.60000610352</ele>
        <time>2022-06-25T04:52:30.000Z</time>
      </trkpt>
      <trkpt lat="47.00266" lon="3.28365">
        <ele>255.80000305176</ele>
        <time>2022-06-25T04:52:37.000Z</time>
      </trkpt>
      <trkpt lat="47.0027" lon="3.28369">
        <ele>256</ele>
        <time>2022-06-25T04:52:38.000Z</time>
      </trkpt>
      <trkpt lat="47.0029" lon="3.28391">
        <ele>256.60000610352</ele>
        <time>2022-06-25T04:52:43.000Z</time>
      </trkpt>
      <trkpt lat="47.00297" lon="3.284">
        <ele>256.79998779297</ele>
        <time>2022-06-25T04:52:45.000Z</time>
      </trkpt>
      <trkpt lat="47.00311" lon="3.28413">
        <ele>257.39999389648</ele>
        <time>2022-06-25T04:52:48.000Z</time>
      </trkpt>
      <trkpt lat="47.00317" lon="3.28418">
        <ele>257.79998779297</ele>
        <time>2022-06-25T04:52:49.000Z</time>
      </trkpt>
      <trkpt lat="47.00348" lon="3.28448">
        <ele>258.60000610352</ele>
        <time>2022-06-25T04:52:56.000Z</time>
      </trkpt>
      <trkpt lat="47.00351" lon="3.28453">
        <ele>258.39999389648</ele>
        <time>2022-06-25T04:52:57.000Z</time>
      </trkpt>
      <trkpt lat="47.00356" lon="3.28458">
        <ele>258.20001220703</ele>
        <time>2022-06-25T04:52:58.000Z</time>
      </trkpt>
      <trkpt lat="47.00365" lon="3.28467">
        <ele>258</ele>
        <time>2022-06-25T04:53:00.000Z</time>
      </trkpt>
      <trkpt lat="47.00369" lon="3.28471">
        <ele>257.79998779297</ele>
        <time>2022-06-25T04:53:01.000Z</time>
      </trkpt>
      <trkpt lat="47.00381" lon="3.28484">
        <ele>257.39999389648</ele>
        <time>2022-06-25T04:53:04.000Z</time>
      </trkpt>
      <trkpt lat="47.00388" lon="3.28493">
        <ele>257</ele>
        <time>2022-06-25T04:53:06.000Z</time>
      </trkpt>
      <trkpt lat="47.004" lon="3.28509">
        <ele>256.39999389648</ele>
        <time>2022-06-25T04:53:09.000Z</time>
      </trkpt>
      <trkpt lat="47.00414" lon="3.28525">
        <ele>256</ele>
        <time>2022-06-25T04:53:12.000Z</time>
      </trkpt>
      <trkpt lat="47.00418" lon="3.28532">
        <ele>256</ele>
        <time>2022-06-25T04:53:13.000Z</time>
      </trkpt>
      <trkpt lat="47.00437" lon="3.28565">
        <ele>256.20001220703</ele>
        <time>2022-06-25T04:53:18.000Z</time>
      </trkpt>
      <trkpt lat="47.00442" lon="3.28579">
        <ele>256.39999389648</ele>
        <time>2022-06-25T04:53:20.000Z</time>
      </trkpt>
      <trkpt lat="47.0045" lon="3.28602">
        <ele>256.79998779297</ele>
        <time>2022-06-25T04:53:23.000Z</time>
      </trkpt>
      <trkpt lat="47.00465" lon="3.2864">
        <ele>257.39999389648</ele>
        <time>2022-06-25T04:53:28.000Z</time>
      </trkpt>
      <trkpt lat="47.00481" lon="3.28696">
        <ele>259.79998779297</ele>
        <time>2022-06-25T04:53:36.000Z</time>
      </trkpt>
      <trkpt lat="47.00503" lon="3.28755">
        <ele>260.20001220703</ele>
        <time>2022-06-25T04:53:45.000Z</time>
      </trkpt>
      <trkpt lat="47.00506" lon="3.28761">
        <ele>260.39999389648</ele>
        <time>2022-06-25T04:53:46.000Z</time>
      </trkpt>
      <trkpt lat="47.00512" lon="3.28781">
        <ele>261.20001220703</ele>
        <time>2022-06-25T04:53:49.000Z</time>
      </trkpt>
      <trkpt lat="47.00516" lon="3.28797">
        <ele>262</ele>
        <time>2022-06-25T04:53:51.000Z</time>
      </trkpt>
      <trkpt lat="47.0053" lon="3.28842">
        <ele>263.60000610352</ele>
        <time>2022-06-25T04:53:57.000Z</time>
      </trkpt>
      <trkpt lat="47.00534" lon="3.28857">
        <ele>263.79998779297</ele>
        <time>2022-06-25T04:53:58.000Z</time>
      </trkpt>
      <trkpt lat="47.0054" lon="3.28871">
        <ele>264</ele>
        <time>2022-06-25T04:54:00.000Z</time>
      </trkpt>
      <trkpt lat="47.00557" lon="3.28903">
        <ele>264.60000610352</ele>
        <time>2022-06-25T04:54:05.000Z</time>
      </trkpt>
      <trkpt lat="47.0056" lon="3.28909">
        <ele>264.60000610352</ele>
        <time>2022-06-25T04:54:07.000Z</time>
      </trkpt>
      <trkpt lat="47.00567" lon="3.28921">
        <ele>265.20001220703</ele>
        <time>2022-06-25T04:54:08.000Z</time>
      </trkpt>
      <trkpt lat="47.00573" lon="3.28933">
        <ele>265.60000610352</ele>
        <time>2022-06-25T04:54:10.000Z</time>
      </trkpt>
      <trkpt lat="47.00584" lon="3.28952">
        <ele>266.39999389648</ele>
        <time>2022-06-25T04:54:13.000Z</time>
      </trkpt>
      <trkpt lat="47.00599" lon="3.28978">
        <ele>267.79998779297</ele>
        <time>2022-06-25T04:54:18.000Z</time>
      </trkpt>
      <trkpt lat="47.00609" lon="3.28997">
        <ele>268.79998779297</ele>
        <time>2022-06-25T04:54:20.000Z</time>
      </trkpt>
      <trkpt lat="47.00624" lon="3.2902">
        <ele>270</ele>
        <time>2022-06-25T04:54:24.000Z</time>
      </trkpt>
      <trkpt lat="47.00627" lon="3.29026">
        <ele>270.20001220703</ele>
        <time>2022-06-25T04:54:25.000Z</time>
      </trkpt>
      <trkpt lat="47.00634" lon="3.29037">
        <ele>270.60000610352</ele>
        <time>2022-06-25T04:54:27.000Z</time>
      </trkpt>
      <trkpt lat="47.00637" lon="3.29049">
        <ele>271</ele>
        <time>2022-06-25T04:54:29.000Z</time>
      </trkpt>
      <trkpt lat="47.00642" lon="3.29061">
        <ele>271.39999389648</ele>
        <time>2022-06-25T04:54:31.000Z</time>
      </trkpt>
      <trkpt lat="47.00649" lon="3.29072">
        <ele>271.79998779297</ele>
        <time>2022-06-25T04:54:33.000Z</time>
      </trkpt>
      <trkpt lat="47.00659" lon="3.29088">
        <ele>272.39999389648</ele>
        <time>2022-06-25T04:54:36.000Z</time>
      </trkpt>
      <trkpt lat="47.00676" lon="3.29115">
        <ele>272.39999389648</ele>
        <time>2022-06-25T04:54:41.000Z</time>
      </trkpt>
      <trkpt lat="47.00685" lon="3.29131">
        <ele>271.79998779297</ele>
        <time>2022-06-25T04:54:44.000Z</time>
      </trkpt>
      <trkpt lat="47.00694" lon="3.29147">
        <ele>271.60000610352</ele>
        <time>2022-06-25T04:54:47.000Z</time>
      </trkpt>
      <trkpt lat="47.00697" lon="3.29153">
        <ele>271.39999389648</ele>
        <time>2022-06-25T04:54:49.000Z</time>
      </trkpt>
      <trkpt lat="47.00703" lon="3.29163">
        <ele>271.20001220703</ele>
        <time>2022-06-25T04:54:50.000Z</time>
      </trkpt>
      <trkpt lat="47.00707" lon="3.29169">
        <ele>271.39999389648</ele>
        <time>2022-06-25T04:54:51.000Z</time>
      </trkpt>
      <trkpt lat="47.00714" lon="3.2918">
        <ele>271.39999389648</ele>
        <time>2022-06-25T04:54:53.000Z</time>
      </trkpt>
      <trkpt lat="47.00717" lon="3.29186">
        <ele>271.60000610352</ele>
        <time>2022-06-25T04:54:54.000Z</time>
      </trkpt>
      <trkpt lat="47.00721" lon="3.29192">
        <ele>271.60000610352</ele>
        <time>2022-06-25T04:54:55.000Z</time>
      </trkpt>
      <trkpt lat="47.00729" lon="3.29203">
        <ele>271.20001220703</ele>
        <time>2022-06-25T04:54:57.000Z</time>
      </trkpt>
      <trkpt lat="47.00732" lon="3.29209">
        <ele>271.20001220703</ele>
        <time>2022-06-25T04:54:58.000Z</time>
      </trkpt>
      <trkpt lat="47.00739" lon="3.29221">
        <ele>271</ele>
        <time>2022-06-25T04:55:00.000Z</time>
      </trkpt>
      <trkpt lat="47.00753" lon="3.29244">
        <ele>270.79998779297</ele>
        <time>2022-06-25T04:55:04.000Z</time>
      </trkpt>
      <trkpt lat="47.00758" lon="3.2926">
        <ele>271.60000610352</ele>
        <time>2022-06-25T04:55:07.000Z</time>
      </trkpt>
      <trkpt lat="47.00764" lon="3.29271">
        <ele>272</ele>
        <time>2022-06-25T04:55:09.000Z</time>
      </trkpt>
      <trkpt lat="47.00767" lon="3.29276">
        <ele>272.20001220703</ele>
        <time>2022-06-25T04:55:10.000Z</time>
      </trkpt>
      <trkpt lat="47.00779" lon="3.29292">
        <ele>273</ele>
        <time>2022-06-25T04:55:13.000Z</time>
      </trkpt>
      <trkpt lat="47.00789" lon="3.29309">
        <ele>273.79998779297</ele>
        <time>2022-06-25T04:55:16.000Z</time>
      </trkpt>
      <trkpt lat="47.00801" lon="3.29333">
        <ele>275.39999389648</ele>
        <time>2022-06-25T04:55:20.000Z</time>
      </trkpt>
      <trkpt lat="47.0081" lon="3.2935">
        <ele>276</ele>
        <time>2022-06-25T04:55:23.000Z</time>
      </trkpt>
      <trkpt lat="47.0083" lon="3.29392">
        <ele>275.60000610352</ele>
        <time>2022-06-25T04:55:30.000Z</time>
      </trkpt>
      <trkpt lat="47.00839" lon="3.29411">
        <ele>275.60000610352</ele>
        <time>2022-06-25T04:55:33.000Z</time>
      </trkpt>
      <trkpt lat="47.00877" lon="3.29479">
        <ele>270.60000610352</ele>
        <time>2022-06-25T04:55:44.000Z</time>
      </trkpt>
      <trkpt lat="47.00887" lon="3.29498">
        <ele>269</ele>
        <time>2022-06-25T04:55:47.000Z</time>
      </trkpt>
      <trkpt lat="47.0089" lon="3.29504">
        <ele>268.60000610352</ele>
        <time>2022-06-25T04:55:48.000Z</time>
      </trkpt>
      <trkpt lat="47.00915" lon="3.29554">
        <ele>269.60000610352</ele>
        <time>2022-06-25T04:55:56.000Z</time>
      </trkpt>
      <trkpt lat="47.00919" lon="3.2956">
        <ele>269.60000610352</ele>
        <time>2022-06-25T04:55:57.000Z</time>
      </trkpt>
      <trkpt lat="47.00948" lon="3.29612">
        <ele>270.60000610352</ele>
        <time>2022-06-25T04:56:05.000Z</time>
      </trkpt>
      <trkpt lat="47.00952" lon="3.29618">
        <ele>270.60000610352</ele>
        <time>2022-06-25T04:56:06.000Z</time>
      </trkpt>
      <trkpt lat="47.0097" lon="3.2965">
        <ele>271.60000610352</ele>
        <time>2022-06-25T04:56:11.000Z</time>
      </trkpt>
      <trkpt lat="47.00991" lon="3.29687">
        <ele>272.60000610352</ele>
        <time>2022-06-25T04:56:17.000Z</time>
      </trkpt>
      <trkpt lat="47.00998" lon="3.29699">
        <ele>272.60000610352</ele>
        <time>2022-06-25T04:56:19.000Z</time>
      </trkpt>
      <trkpt lat="47.01018" lon="3.29734">
        <ele>273.20001220703</ele>
        <time>2022-06-25T04:56:25.000Z</time>
      </trkpt>
      <trkpt lat="47.01021" lon="3.2974">
        <ele>273.60000610352</ele>
        <time>2022-06-25T04:56:26.000Z</time>
      </trkpt>
      <trkpt lat="47.01042" lon="3.29779">
        <ele>275.79998779297</ele>
        <time>2022-06-25T04:56:33.000Z</time>
      </trkpt>
      <trkpt lat="47.01045" lon="3.29784">
        <ele>276.39999389648</ele>
        <time>2022-06-25T04:56:34.000Z</time>
      </trkpt>
      <trkpt lat="47.01053" lon="3.29801">
        <ele>278</ele>
        <time>2022-06-25T04:56:37.000Z</time>
      </trkpt>
      <trkpt lat="47.01059" lon="3.29812">
        <ele>278.79998779297</ele>
        <time>2022-06-25T04:56:39.000Z</time>
      </trkpt>
      <trkpt lat="47.01062" lon="3.29818">
        <ele>279.20001220703</ele>
        <time>2022-06-25T04:56:40.000Z</time>
      </trkpt>
      <trkpt lat="47.01062" lon="3.29818">
        <ele>279.20001220703</ele>
        <time>2022-06-25T04:56:41.000Z</time>
      </trkpt>
      <trkpt lat="47.01073" lon="3.29841">
        <ele>281</ele>
        <time>2022-06-25T04:56:44.000Z</time>
      </trkpt>
      <trkpt lat="47.01077" lon="3.29846">
        <ele>281.39999389648</ele>
        <time>2022-06-25T04:56:45.000Z</time>
      </trkpt>
      <trkpt lat="47.01087" lon="3.29862">
        <ele>282.39999389648</ele>
        <time>2022-06-25T04:56:49.000Z</time>
      </trkpt>
      <trkpt lat="47.01093" lon="3.29872">
        <ele>283.20001220703</ele>
        <time>2022-06-25T04:56:50.000Z</time>
      </trkpt>
      <trkpt lat="47.01096" lon="3.29877">
        <ele>283.60000610352</ele>
        <time>2022-06-25T04:56:51.000Z</time>
      </trkpt>
      <trkpt lat="47.01111" lon="3.29904">
        <ele>285.39999389648</ele>
        <time>2022-06-25T04:56:56.000Z</time>
      </trkpt>
      <trkpt lat="47.01126" lon="3.2993">
        <ele>287.39999389648</ele>
        <time>2022-06-25T04:57:01.000Z</time>
      </trkpt>
      <trkpt lat="47.01132" lon="3.29941">
        <ele>287.79998779297</ele>
        <time>2022-06-25T04:57:03.000Z</time>
      </trkpt>
      <trkpt lat="47.0114" lon="3.29956">
        <ele>288</ele>
        <time>2022-06-25T04:57:06.000Z</time>
      </trkpt>
      <trkpt lat="47.01151" lon="3.29976">
        <ele>288.79998779297</ele>
        <time>2022-06-25T04:57:10.000Z</time>
      </trkpt>
      <trkpt lat="47.01153" lon="3.29981">
        <ele>289</ele>
        <time>2022-06-25T04:57:11.000Z</time>
      </trkpt>
      <trkpt lat="47.01158" lon="3.29991">
        <ele>289.79998779297</ele>
        <time>2022-06-25T04:57:14.000Z</time>
      </trkpt>
      <trkpt lat="47.01164" lon="3.30001">
        <ele>290.39999389648</ele>
        <time>2022-06-25T04:57:15.000Z</time>
      </trkpt>
      <trkpt lat="47.01172" lon="3.30017">
        <ele>291.60000610352</ele>
        <time>2022-06-25T04:57:18.000Z</time>
      </trkpt>
      <trkpt lat="47.01174" lon="3.30023">
        <ele>292</ele>
        <time>2022-06-25T04:57:19.000Z</time>
      </trkpt>
      <trkpt lat="47.0118" lon="3.30033">
        <ele>292.39999389648</ele>
        <time>2022-06-25T04:57:21.000Z</time>
      </trkpt>
      <trkpt lat="47.01189" lon="3.30049">
        <ele>292.60000610352</ele>
        <time>2022-06-25T04:57:24.000Z</time>
      </trkpt>
      <trkpt lat="47.01196" lon="3.3006">
        <ele>292.39999389648</ele>
        <time>2022-06-25T04:57:26.000Z</time>
      </trkpt>
      <trkpt lat="47.01208" lon="3.30081">
        <ele>292</ele>
        <time>2022-06-25T04:57:30.000Z</time>
      </trkpt>
      <trkpt lat="47.01224" lon="3.30108">
        <ele>291.39999389648</ele>
        <time>2022-06-25T04:57:35.000Z</time>
      </trkpt>
      <trkpt lat="47.01232" lon="3.30125">
        <ele>291.20001220703</ele>
        <time>2022-06-25T04:57:38.000Z</time>
      </trkpt>
      <trkpt lat="47.01236" lon="3.30131">
        <ele>291</ele>
        <time>2022-06-25T04:57:39.000Z</time>
      </trkpt>
      <trkpt lat="47.01249" lon="3.30153">
        <ele>290.20001220703</ele>
        <time>2022-06-25T04:57:43.000Z</time>
      </trkpt>
      <trkpt lat="47.01252" lon="3.30158">
        <ele>290.20001220703</ele>
        <time>2022-06-25T04:57:44.000Z</time>
      </trkpt>
      <trkpt lat="47.01266" lon="3.30184">
        <ele>289.20001220703</ele>
        <time>2022-06-25T04:57:48.000Z</time>
      </trkpt>
      <trkpt lat="47.01276" lon="3.30205">
        <ele>289.20001220703</ele>
        <time>2022-06-25T04:57:51.000Z</time>
      </trkpt>
      <trkpt lat="47.01295" lon="3.30239">
        <ele>288.60000610352</ele>
        <time>2022-06-25T04:57:56.000Z</time>
      </trkpt>
      <trkpt lat="47.01299" lon="3.30245">
        <ele>288.20001220703</ele>
        <time>2022-06-25T04:57:57.000Z</time>
      </trkpt>
      <trkpt lat="47.01308" lon="3.30259">
        <ele>287.60000610352</ele>
        <time>2022-06-25T04:57:59.000Z</time>
      </trkpt>
      <trkpt lat="47.01318" lon="3.30281">
        <ele>286.39999389648</ele>
        <time>2022-06-25T04:58:02.000Z</time>
      </trkpt>
      <trkpt lat="47.01327" lon="3.30302">
        <ele>285.79998779297</ele>
        <time>2022-06-25T04:58:05.000Z</time>
      </trkpt>
      <trkpt lat="47.01338" lon="3.30324">
        <ele>287</ele>
        <time>2022-06-25T04:58:08.000Z</time>
      </trkpt>
      <trkpt lat="47.01348" lon="3.30377">
        <ele>287.20001220703</ele>
        <time>2022-06-25T04:58:15.000Z</time>
      </trkpt>
      <trkpt lat="47.01353" lon="3.30413">
        <ele>288.39999389648</ele>
        <time>2022-06-25T04:58:20.000Z</time>
      </trkpt>
      <trkpt lat="47.01356" lon="3.30434">
        <ele>288.60000610352</ele>
        <time>2022-06-25T04:58:23.000Z</time>
      </trkpt>
      <trkpt lat="47.01358" lon="3.30447">
        <ele>288.79998779297</ele>
        <time>2022-06-25T04:58:25.000Z</time>
      </trkpt>
      <trkpt lat="47.01362" lon="3.30474">
        <ele>288.79998779297</ele>
        <time>2022-06-25T04:58:29.000Z</time>
      </trkpt>
      <trkpt lat="47.01367" lon="3.3051">
        <ele>289</ele>
        <time>2022-06-25T04:58:34.000Z</time>
      </trkpt>
      <trkpt lat="47.01368" lon="3.30517">
        <ele>289</ele>
        <time>2022-06-25T04:58:35.000Z</time>
      </trkpt>
      <trkpt lat="47.01378" lon="3.30588">
        <ele>288.60000610352</ele>
        <time>2022-06-25T04:58:44.000Z</time>
      </trkpt>
      <trkpt lat="47.0139" lon="3.30666">
        <ele>286.79998779297</ele>
        <time>2022-06-25T04:58:53.000Z</time>
      </trkpt>
      <trkpt lat="47.01399" lon="3.30731">
        <ele>286</ele>
        <time>2022-06-25T04:58:59.000Z</time>
      </trkpt>
      <trkpt lat="47.01402" lon="3.30782">
        <ele>287</ele>
        <time>2022-06-25T04:59:03.000Z</time>
      </trkpt>
      <trkpt lat="47.01401" lon="3.30795">
        <ele>287</ele>
        <time>2022-06-25T04:59:04.000Z</time>
      </trkpt>
      <trkpt lat="47.01398" lon="3.30823">
        <ele>286</ele>
        <time>2022-06-25T04:59:06.000Z</time>
      </trkpt>
      <trkpt lat="47.01396" lon="3.30837">
        <ele>285.60000610352</ele>
        <time>2022-06-25T04:59:08.000Z</time>
      </trkpt>
      <trkpt lat="47.01391" lon="3.30865">
        <ele>283.20001220703</ele>
        <time>2022-06-25T04:59:09.000Z</time>
      </trkpt>
      <trkpt lat="47.01387" lon="3.30879">
        <ele>282</ele>
        <time>2022-06-25T04:59:10.000Z</time>
      </trkpt>
      <trkpt lat="47.0138" lon="3.30907">
        <ele>279.79998779297</ele>
        <time>2022-06-25T04:59:12.000Z</time>
      </trkpt>
      <trkpt lat="47.01372" lon="3.30935">
        <ele>277.79998779297</ele>
        <time>2022-06-25T04:59:14.000Z</time>
      </trkpt>
      <trkpt lat="47.01369" lon="3.30948">
        <ele>277</ele>
        <time>2022-06-25T04:59:16.000Z</time>
      </trkpt>
      <trkpt lat="47.01358" lon="3.30988">
        <ele>272.60000610352</ele>
        <time>2022-06-25T04:59:18.000Z</time>
      </trkpt>
      <trkpt lat="47.01351" lon="3.31011">
        <ele>269.79998779297</ele>
        <time>2022-06-25T04:59:20.000Z</time>
      </trkpt>
      <trkpt lat="47.01345" lon="3.31042">
        <ele>268.20001220703</ele>
        <time>2022-06-25T04:59:22.000Z</time>
      </trkpt>
      <trkpt lat="47.01343" lon="3.31057">
        <ele>267</ele>
        <time>2022-06-25T04:59:23.000Z</time>
      </trkpt>
      <trkpt lat="47.01342" lon="3.31069">
        <ele>266.20001220703</ele>
        <time>2022-06-25T04:59:24.000Z</time>
      </trkpt>
      <trkpt lat="47.01342" lon="3.31085">
        <ele>265</ele>
        <time>2022-06-25T04:59:25.000Z</time>
      </trkpt>
      <trkpt lat="47.01344" lon="3.31103">
        <ele>263.39999389648</ele>
        <time>2022-06-25T04:59:26.000Z</time>
      </trkpt>
      <trkpt lat="47.01349" lon="3.31135">
        <ele>260.79998779297</ele>
        <time>2022-06-25T04:59:28.000Z</time>
      </trkpt>
      <trkpt lat="47.01353" lon="3.3115">
        <ele>260</ele>
        <time>2022-06-25T04:59:29.000Z</time>
      </trkpt>
      <trkpt lat="47.01359" lon="3.31165">
        <ele>259</ele>
        <time>2022-06-25T04:59:30.000Z</time>
      </trkpt>
      <trkpt lat="47.01365" lon="3.31179">
        <ele>257.79998779297</ele>
        <time>2022-06-25T04:59:31.000Z</time>
      </trkpt>
      <trkpt lat="47.01372" lon="3.31192">
        <ele>256.60000610352</ele>
        <time>2022-06-25T04:59:32.000Z</time>
      </trkpt>
      <trkpt lat="47.01386" lon="3.31214">
        <ele>255.60000610352</ele>
        <time>2022-06-25T04:59:34.000Z</time>
      </trkpt>
      <trkpt lat="47.01401" lon="3.31232">
        <ele>254.80000305176</ele>
        <time>2022-06-25T04:59:36.000Z</time>
      </trkpt>
      <trkpt lat="47.01414" lon="3.31248">
        <ele>255.19999694824</ele>
        <time>2022-06-25T04:59:38.000Z</time>
      </trkpt>
      <trkpt lat="47.01421" lon="3.31256">
        <ele>255.39999389648</ele>
        <time>2022-06-25T04:59:39.000Z</time>
      </trkpt>
      <trkpt lat="47.01428" lon="3.31263">
        <ele>255.60000610352</ele>
        <time>2022-06-25T04:59:40.000Z</time>
      </trkpt>
      <trkpt lat="47.01434" lon="3.3127">
        <ele>255.60000610352</ele>
        <time>2022-06-25T04:59:41.000Z</time>
      </trkpt>
      <trkpt lat="47.0144" lon="3.31277">
        <ele>255.19999694824</ele>
        <time>2022-06-25T04:59:42.000Z</time>
      </trkpt>
      <trkpt lat="47.01446" lon="3.3128">
        <ele>254.60000610352</ele>
        <time>2022-06-25T04:59:43.000Z</time>
      </trkpt>
      <trkpt lat="47.01452" lon="3.3128">
        <ele>254</ele>
        <time>2022-06-25T04:59:44.000Z</time>
      </trkpt>
      <trkpt lat="47.01457" lon="3.31275">
        <ele>253.39999389648</ele>
        <time>2022-06-25T04:59:45.000Z</time>
      </trkpt>
      <trkpt lat="47.01461" lon="3.31268">
        <ele>252.80000305176</ele>
        <time>2022-06-25T04:59:46.000Z</time>
      </trkpt>
      <trkpt lat="47.01481" lon="3.31234">
        <ele>250.39999389648</ele>
        <time>2022-06-25T04:59:50.000Z</time>
      </trkpt>
      <trkpt lat="47.01498" lon="3.31206">
        <ele>249.60000610352</ele>
        <time>2022-06-25T04:59:54.000Z</time>
      </trkpt>
      <trkpt lat="47.0151" lon="3.31187">
        <ele>249.19999694824</ele>
        <time>2022-06-25T04:59:55.000Z</time>
      </trkpt>
      <trkpt lat="47.01516" lon="3.31179">
        <ele>249</ele>
        <time>2022-06-25T04:59:56.000Z</time>
      </trkpt>
      <trkpt lat="47.01523" lon="3.3117">
        <ele>249</ele>
        <time>2022-06-25T04:59:57.000Z</time>
      </trkpt>
      <trkpt lat="47.0153" lon="3.31163">
        <ele>248.39999389648</ele>
        <time>2022-06-25T04:59:58.000Z</time>
      </trkpt>
      <trkpt lat="47.01545" lon="3.3115">
        <ele>248</ele>
        <time>2022-06-25T05:00:00.000Z</time>
      </trkpt>
      <trkpt lat="47.01567" lon="3.31132">
        <ele>248</ele>
        <time>2022-06-25T05:00:03.000Z</time>
      </trkpt>
      <trkpt lat="47.01603" lon="3.31109">
        <ele>247.60000610352</ele>
        <time>2022-06-25T05:00:08.000Z</time>
      </trkpt>
      <trkpt lat="47.01637" lon="3.31085">
        <ele>246.80000305176</ele>
        <time>2022-06-25T05:00:13.000Z</time>
      </trkpt>
      <trkpt lat="47.01657" lon="3.31071">
        <ele>244.80000305176</ele>
        <time>2022-06-25T05:00:16.000Z</time>
      </trkpt>
      <trkpt lat="47.01679" lon="3.31056">
        <ele>243.80000305176</ele>
        <time>2022-06-25T05:00:19.000Z</time>
      </trkpt>
      <trkpt lat="47.01708" lon="3.31039">
        <ele>243.80000305176</ele>
        <time>2022-06-25T05:00:23.000Z</time>
      </trkpt>
      <trkpt lat="47.01723" lon="3.31032">
        <ele>244.19999694824</ele>
        <time>2022-06-25T05:00:25.000Z</time>
      </trkpt>
      <trkpt lat="47.01746" lon="3.31025">
        <ele>243.80000305176</ele>
        <time>2022-06-25T05:00:28.000Z</time>
      </trkpt>
      <trkpt lat="47.01768" lon="3.31018">
        <ele>243.80000305176</ele>
        <time>2022-06-25T05:00:31.000Z</time>
      </trkpt>
      <trkpt lat="47.01781" lon="3.31011">
        <ele>242.80000305176</ele>
        <time>2022-06-25T05:00:33.000Z</time>
      </trkpt>
      <trkpt lat="47.018" lon="3.30995">
        <ele>241.39999389648</ele>
        <time>2022-06-25T05:00:36.000Z</time>
      </trkpt>
      <trkpt lat="47.01832" lon="3.30952">
        <ele>239.19999694824</ele>
        <time>2022-06-25T05:00:42.000Z</time>
      </trkpt>
      <trkpt lat="47.01869" lon="3.30893">
        <ele>236.60000610352</ele>
        <time>2022-06-25T05:00:49.000Z</time>
      </trkpt>
      <trkpt lat="47.01894" lon="3.30854">
        <ele>235.39999389648</ele>
        <time>2022-06-25T05:00:53.000Z</time>
      </trkpt>
      <trkpt lat="47.01907" lon="3.30834">
        <ele>234.80000305176</ele>
        <time>2022-06-25T05:00:55.000Z</time>
      </trkpt>
      <trkpt lat="47.01913" lon="3.30824">
        <ele>234.60000610352</ele>
        <time>2022-06-25T05:00:56.000Z</time>
      </trkpt>
      <trkpt lat="47.01932" lon="3.30794">
        <ele>233.80000305176</ele>
        <time>2022-06-25T05:00:59.000Z</time>
      </trkpt>
      <trkpt lat="47.01938" lon="3.30784">
        <ele>233.39999389648</ele>
        <time>2022-06-25T05:01:01.000Z</time>
      </trkpt>
      <trkpt lat="47.0197" lon="3.30733">
        <ele>231.60000610352</ele>
        <time>2022-06-25T05:01:05.000Z</time>
      </trkpt>
      <trkpt lat="47.01989" lon="3.30703">
        <ele>230</ele>
        <time>2022-06-25T05:01:08.000Z</time>
      </trkpt>
      <trkpt lat="47.02007" lon="3.30675">
        <ele>229.19999694824</ele>
        <time>2022-06-25T05:01:11.000Z</time>
      </trkpt>
      <trkpt lat="47.02019" lon="3.30657">
        <ele>228.19999694824</ele>
        <time>2022-06-25T05:01:13.000Z</time>
      </trkpt>
      <trkpt lat="47.02029" lon="3.3064">
        <ele>228.19999694824</ele>
        <time>2022-06-25T05:01:15.000Z</time>
      </trkpt>
      <trkpt lat="47.02055" lon="3.30599">
        <ele>228.60000610352</ele>
        <time>2022-06-25T05:01:20.000Z</time>
      </trkpt>
      <trkpt lat="47.02091" lon="3.30549">
        <ele>230</ele>
        <time>2022-06-25T05:01:27.000Z</time>
      </trkpt>
      <trkpt lat="47.02097" lon="3.30542">
        <ele>230</ele>
        <time>2022-06-25T05:01:28.000Z</time>
      </trkpt>
      <trkpt lat="47.02133" lon="3.30502">
        <ele>227.80000305176</ele>
        <time>2022-06-25T05:01:35.000Z</time>
      </trkpt>
      <trkpt lat="47.02181" lon="3.30449">
        <ele>228.39999389648</ele>
        <time>2022-06-25T05:01:44.000Z</time>
      </trkpt>
      <trkpt lat="47.02198" lon="3.3043">
        <ele>229</ele>
        <time>2022-06-25T05:01:47.000Z</time>
      </trkpt>
      <trkpt lat="47.02238" lon="3.30385">
        <ele>229</ele>
        <time>2022-06-25T05:01:54.000Z</time>
      </trkpt>
      <trkpt lat="47.02279" lon="3.30339">
        <ele>229.60000610352</ele>
        <time>2022-06-25T05:02:01.000Z</time>
      </trkpt>
      <trkpt lat="47.02291" lon="3.30327">
        <ele>230</ele>
        <time>2022-06-25T05:02:03.000Z</time>
      </trkpt>
      <trkpt lat="47.02338" lon="3.30276">
        <ele>228.80000305176</ele>
        <time>2022-06-25T05:02:12.000Z</time>
      </trkpt>
      <trkpt lat="47.02372" lon="3.30238">
        <ele>228.39999389648</ele>
        <time>2022-06-25T05:02:19.000Z</time>
      </trkpt>
      <trkpt lat="47.02386" lon="3.30222">
        <ele>229.60000610352</ele>
        <time>2022-06-25T05:02:22.000Z</time>
      </trkpt>
      <trkpt lat="47.02407" lon="3.30193">
        <ele>231.60000610352</ele>
        <time>2022-06-25T05:02:27.000Z</time>
      </trkpt>
      <trkpt lat="47.0242" lon="3.30173">
        <ele>231.19999694824</ele>
        <time>2022-06-25T05:02:30.000Z</time>
      </trkpt>
      <trkpt lat="47.02438" lon="3.30141">
        <ele>230.19999694824</ele>
        <time>2022-06-25T05:02:35.000Z</time>
      </trkpt>
      <trkpt lat="47.02452" lon="3.30116">
        <ele>229.39999389648</ele>
        <time>2022-06-25T05:02:39.000Z</time>
      </trkpt>
      <trkpt lat="47.02473" lon="3.30077">
        <ele>229</ele>
        <time>2022-06-25T05:02:45.000Z</time>
      </trkpt>
      <trkpt lat="47.02482" lon="3.30054">
        <ele>228.60000610352</ele>
        <time>2022-06-25T05:02:48.000Z</time>
      </trkpt>
      <trkpt lat="47.02485" lon="3.30046">
        <ele>228.39999389648</ele>
        <time>2022-06-25T05:02:49.000Z</time>
      </trkpt>
      <trkpt lat="47.02499" lon="3.30001">
        <ele>228.19999694824</ele>
        <time>2022-06-25T05:02:54.000Z</time>
      </trkpt>
      <trkpt lat="47.02508" lon="3.2997">
        <ele>227.80000305176</ele>
        <time>2022-06-25T05:02:57.000Z</time>
      </trkpt>
      <trkpt lat="47.02518" lon="3.29937">
        <ele>227.80000305176</ele>
        <time>2022-06-25T05:03:00.000Z</time>
      </trkpt>
      <trkpt lat="47.02528" lon="3.29901">
        <ele>227.19999694824</ele>
        <time>2022-06-25T05:03:03.000Z</time>
      </trkpt>
      <trkpt lat="47.02538" lon="3.29865">
        <ele>224.19999694824</ele>
        <time>2022-06-25T05:03:06.000Z</time>
      </trkpt>
      <trkpt lat="47.02541" lon="3.29854">
        <ele>223.19999694824</ele>
        <time>2022-06-25T05:03:07.000Z</time>
      </trkpt>
      <trkpt lat="47.02548" lon="3.29832">
        <ele>222.60000610352</ele>
        <time>2022-06-25T05:03:09.000Z</time>
      </trkpt>
      <trkpt lat="47.02557" lon="3.298">
        <ele>223</ele>
        <time>2022-06-25T05:03:12.000Z</time>
      </trkpt>
      <trkpt lat="47.02563" lon="3.2978">
        <ele>223.39999389648</ele>
        <time>2022-06-25T05:03:14.000Z</time>
      </trkpt>
      <trkpt lat="47.02585" lon="3.29712">
        <ele>221.80000305176</ele>
        <time>2022-06-25T05:03:21.000Z</time>
      </trkpt>
      <trkpt lat="47.026" lon="3.29664">
        <ele>220.80000305176</ele>
        <time>2022-06-25T05:03:26.000Z</time>
      </trkpt>
      <trkpt lat="47.02613" lon="3.29614">
        <ele>219</ele>
        <time>2022-06-25T05:03:31.000Z</time>
      </trkpt>
      <trkpt lat="47.02619" lon="3.29584">
        <ele>218.80000305176</ele>
        <time>2022-06-25T05:03:34.000Z</time>
      </trkpt>
      <trkpt lat="47.02624" lon="3.29543">
        <ele>218.39999389648</ele>
        <time>2022-06-25T05:03:38.000Z</time>
      </trkpt>
      <trkpt lat="47.0263" lon="3.2949">
        <ele>218.39999389648</ele>
        <time>2022-06-25T05:03:43.000Z</time>
      </trkpt>
      <trkpt lat="47.02631" lon="3.29469">
        <ele>217.60000610352</ele>
        <time>2022-06-25T05:03:45.000Z</time>
      </trkpt>
      <trkpt lat="47.02634" lon="3.29425">
        <ele>216.39999389648</ele>
        <time>2022-06-25T05:03:49.000Z</time>
      </trkpt>
      <trkpt lat="47.02634" lon="3.29415">
        <ele>216.39999389648</ele>
        <time>2022-06-25T05:03:50.000Z</time>
      </trkpt>
      <trkpt lat="47.02633" lon="3.29365">
        <ele>218.19999694824</ele>
        <time>2022-06-25T05:03:55.000Z</time>
      </trkpt>
      <trkpt lat="47.02633" lon="3.29355">
        <ele>218.60000610352</ele>
        <time>2022-06-25T05:03:56.000Z</time>
      </trkpt>
      <trkpt lat="47.02632" lon="3.29308">
        <ele>218.60000610352</ele>
        <time>2022-06-25T05:04:01.000Z</time>
      </trkpt>
      <trkpt lat="47.02633" lon="3.2929">
        <ele>218.19999694824</ele>
        <time>2022-06-25T05:04:03.000Z</time>
      </trkpt>
      <trkpt lat="47.02644" lon="3.29221">
        <ele>217.60000610352</ele>
        <time>2022-06-25T05:04:11.000Z</time>
      </trkpt>
      <trkpt lat="47.02658" lon="3.29163">
        <ele>218.80000305176</ele>
        <time>2022-06-25T05:04:18.000Z</time>
      </trkpt>
      <trkpt lat="47.02672" lon="3.29111">
        <ele>219.19999694824</ele>
        <time>2022-06-25T05:04:24.000Z</time>
      </trkpt>
      <trkpt lat="47.02675" lon="3.29103">
        <ele>219.19999694824</ele>
        <time>2022-06-25T05:04:25.000Z</time>
      </trkpt>
      <trkpt lat="47.02685" lon="3.29093">
        <ele>218.60000610352</ele>
        <time>2022-06-25T05:04:27.000Z</time>
      </trkpt>
      <trkpt lat="47.02703" lon="3.29087">
        <ele>216.60000610352</ele>
        <time>2022-06-25T05:04:30.000Z</time>
      </trkpt>
      <trkpt lat="47.02712" lon="3.29083">
        <ele>215.80000305176</ele>
        <time>2022-06-25T05:04:32.000Z</time>
      </trkpt>
      <trkpt lat="47.02717" lon="3.29082">
        <ele>215.39999389648</ele>
        <time>2022-06-25T05:04:33.000Z</time>
      </trkpt>
      <trkpt lat="47.02721" lon="3.29079">
        <ele>215.19999694824</ele>
        <time>2022-06-25T05:04:34.000Z</time>
      </trkpt>
      <trkpt lat="47.02728" lon="3.29069">
        <ele>214.60000610352</ele>
        <time>2022-06-25T05:04:36.000Z</time>
      </trkpt>
      <trkpt lat="47.02742" lon="3.29045">
        <ele>214</ele>
        <time>2022-06-25T05:04:40.000Z</time>
      </trkpt>
      <trkpt lat="47.02746" lon="3.2904">
        <ele>214</ele>
        <time>2022-06-25T05:04:41.000Z</time>
      </trkpt>
      <trkpt lat="47.0275" lon="3.29036">
        <ele>214</ele>
        <time>2022-06-25T05:04:42.000Z</time>
      </trkpt>
      <trkpt lat="47.02755" lon="3.29034">
        <ele>213.80000305176</ele>
        <time>2022-06-25T05:04:43.000Z</time>
      </trkpt>
      <trkpt lat="47.02764" lon="3.29034">
        <ele>213</ele>
        <time>2022-06-25T05:04:45.000Z</time>
      </trkpt>
      <trkpt lat="47.02776" lon="3.29053">
        <ele>213.19999694824</ele>
        <time>2022-06-25T05:04:48.000Z</time>
      </trkpt>
      <trkpt lat="47.02802" lon="3.29089">
        <ele>214.39999389648</ele>
        <time>2022-06-25T05:04:54.000Z</time>
      </trkpt>
      <trkpt lat="47.02817" lon="3.29101">
        <ele>214.80000305176</ele>
        <time>2022-06-25T05:04:57.000Z</time>
      </trkpt>
      <trkpt lat="47.02831" lon="3.29109">
        <ele>215.19999694824</ele>
        <time>2022-06-25T05:05:00.000Z</time>
      </trkpt>
      <trkpt lat="47.02855" lon="3.29119">
        <ele>216</ele>
        <time>2022-06-25T05:05:05.000Z</time>
      </trkpt>
      <trkpt lat="47.02885" lon="3.29129">
        <ele>216.80000305176</ele>
        <time>2022-06-25T05:05:11.000Z</time>
      </trkpt>
      <trkpt lat="47.02891" lon="3.29131">
        <ele>217.39999389648</ele>
        <time>2022-06-25T05:05:12.000Z</time>
      </trkpt>
      <trkpt lat="47.02895" lon="3.29134">
        <ele>217.80000305176</ele>
        <time>2022-06-25T05:05:13.000Z</time>
      </trkpt>
      <trkpt lat="47.02914" lon="3.29148">
        <ele>218.19999694824</ele>
        <time>2022-06-25T05:05:17.000Z</time>
      </trkpt>
      <trkpt lat="47.02923" lon="3.29156">
        <ele>218.19999694824</ele>
        <time>2022-06-25T05:05:20.000Z</time>
      </trkpt>
      <trkpt lat="47.02931" lon="3.29164">
        <ele>218.19999694824</ele>
        <time>2022-06-25T05:05:21.000Z</time>
      </trkpt>
      <trkpt lat="47.02951" lon="3.29189">
        <ele>220</ele>
        <time>2022-06-25T05:05:26.000Z</time>
      </trkpt>
      <trkpt lat="47.0299" lon="3.2924">
        <ele>219.60000610352</ele>
        <time>2022-06-25T05:05:35.000Z</time>
      </trkpt>
      <trkpt lat="47.0303" lon="3.29294">
        <ele>217</ele>
        <time>2022-06-25T05:05:44.000Z</time>
      </trkpt>
      <trkpt lat="47.03034" lon="3.29299">
        <ele>217</ele>
        <time>2022-06-25T05:05:45.000Z</time>
      </trkpt>
      <trkpt lat="47.03038" lon="3.29304">
        <ele>216.60000610352</ele>
        <time>2022-06-25T05:05:46.000Z</time>
      </trkpt>
      <trkpt lat="47.03081" lon="3.29355">
        <ele>216.19999694824</ele>
        <time>2022-06-25T05:05:55.000Z</time>
      </trkpt>
      <trkpt lat="47.03086" lon="3.2936">
        <ele>216</ele>
        <time>2022-06-25T05:05:56.000Z</time>
      </trkpt>
      <trkpt lat="47.03127" lon="3.29387">
        <ele>214.19999694824</ele>
        <time>2022-06-25T05:06:03.000Z</time>
      </trkpt>
      <trkpt lat="47.0315" lon="3.29398">
        <ele>215</ele>
        <time>2022-06-25T05:06:07.000Z</time>
      </trkpt>
      <trkpt lat="47.03183" lon="3.29412">
        <ele>217</ele>
        <time>2022-06-25T05:06:13.000Z</time>
      </trkpt>
      <trkpt lat="47.03233" lon="3.29433">
        <ele>217.80000305176</ele>
        <time>2022-06-25T05:06:22.000Z</time>
      </trkpt>
      <trkpt lat="47.03287" lon="3.29459">
        <ele>217</ele>
        <time>2022-06-25T05:06:32.000Z</time>
      </trkpt>
      <trkpt lat="47.03322" lon="3.29483">
        <ele>217.60000610352</ele>
        <time>2022-06-25T05:06:39.000Z</time>
      </trkpt>
      <trkpt lat="47.03336" lon="3.29495">
        <ele>218.60000610352</ele>
        <time>2022-06-25T05:06:42.000Z</time>
      </trkpt>
      <trkpt lat="47.03384" lon="3.29534">
        <ele>220.80000305176</ele>
        <time>2022-06-25T05:06:52.000Z</time>
      </trkpt>
      <trkpt lat="47.03399" lon="3.29546">
        <ele>220.19999694824</ele>
        <time>2022-06-25T05:06:55.000Z</time>
      </trkpt>
      <trkpt lat="47.03428" lon="3.2957">
        <ele>219.60000610352</ele>
        <time>2022-06-25T05:07:01.000Z</time>
      </trkpt>
      <trkpt lat="47.03452" lon="3.2959">
        <ele>220.19999694824</ele>
        <time>2022-06-25T05:07:06.000Z</time>
      </trkpt>
      <trkpt lat="47.03477" lon="3.2961">
        <ele>220.60000610352</ele>
        <time>2022-06-25T05:07:11.000Z</time>
      </trkpt>
      <trkpt lat="47.03526" lon="3.29651">
        <ele>220.39999389648</ele>
        <time>2022-06-25T05:07:21.000Z</time>
      </trkpt>
      <trkpt lat="47.03537" lon="3.2966">
        <ele>220.39999389648</ele>
        <time>2022-06-25T05:07:23.000Z</time>
      </trkpt>
      <trkpt lat="47.03567" lon="3.29685">
        <ele>222.60000610352</ele>
        <time>2022-06-25T05:07:29.000Z</time>
      </trkpt>
      <trkpt lat="47.03587" lon="3.29702">
        <ele>222.80000305176</ele>
        <time>2022-06-25T05:07:33.000Z</time>
      </trkpt>
      <trkpt lat="47.03638" lon="3.29743">
        <ele>222</ele>
        <time>2022-06-25T05:07:43.000Z</time>
      </trkpt>
      <trkpt lat="47.03681" lon="3.29767">
        <ele>223.39999389648</ele>
        <time>2022-06-25T05:07:51.000Z</time>
      </trkpt>
      <trkpt lat="47.03704" lon="3.29769">
        <ele>222</ele>
        <time>2022-06-25T05:07:55.000Z</time>
      </trkpt>
      <trkpt lat="47.03716" lon="3.29767">
        <ele>221.39999389648</ele>
        <time>2022-06-25T05:07:57.000Z</time>
      </trkpt>
      <trkpt lat="47.03756" lon="3.29749">
        <ele>219.80000305176</ele>
        <time>2022-06-25T05:08:04.000Z</time>
      </trkpt>
      <trkpt lat="47.03809" lon="3.29717">
        <ele>223.19999694824</ele>
        <time>2022-06-25T05:08:14.000Z</time>
      </trkpt>
      <trkpt lat="47.0382" lon="3.29712">
        <ele>223.80000305176</ele>
        <time>2022-06-25T05:08:16.000Z</time>
      </trkpt>
      <trkpt lat="47.03869" lon="3.29695">
        <ele>223.19999694824</ele>
        <time>2022-06-25T05:08:25.000Z</time>
      </trkpt>
      <trkpt lat="47.0388" lon="3.29692">
        <ele>223.19999694824</ele>
        <time>2022-06-25T05:08:27.000Z</time>
      </trkpt>
      <trkpt lat="47.03913" lon="3.29686">
        <ele>223.19999694824</ele>
        <time>2022-06-25T05:08:33.000Z</time>
      </trkpt>
      <trkpt lat="47.0393" lon="3.29683">
        <ele>223.60000610352</ele>
        <time>2022-06-25T05:08:36.000Z</time>
      </trkpt>
      <trkpt lat="47.03967" lon="3.29676">
        <ele>225.60000610352</ele>
        <time>2022-06-25T05:08:43.000Z</time>
      </trkpt>
      <trkpt lat="47.03994" lon="3.29671">
        <ele>225.80000305176</ele>
        <time>2022-06-25T05:08:48.000Z</time>
      </trkpt>
      <trkpt lat="47.04011" lon="3.29669">
        <ele>225.60000610352</ele>
        <time>2022-06-25T05:08:51.000Z</time>
      </trkpt>
      <trkpt lat="47.04061" lon="3.29668">
        <ele>224.19999694824</ele>
        <time>2022-06-25T05:09:00.000Z</time>
      </trkpt>
      <trkpt lat="47.04112" lon="3.29678">
        <ele>221.60000610352</ele>
        <time>2022-06-25T05:09:09.000Z</time>
      </trkpt>
      <trkpt lat="47.04164" lon="3.29689">
        <ele>223.39999389648</ele>
        <time>2022-06-25T05:09:18.000Z</time>
      </trkpt>
      <trkpt lat="47.04222" lon="3.29702">
        <ele>224.39999389648</ele>
        <time>2022-06-25T05:09:28.000Z</time>
      </trkpt>
      <trkpt lat="47.04233" lon="3.29705">
        <ele>224.60000610352</ele>
        <time>2022-06-25T05:09:30.000Z</time>
      </trkpt>
      <trkpt lat="47.04245" lon="3.29707">
        <ele>224.60000610352</ele>
        <time>2022-06-25T05:09:32.000Z</time>
      </trkpt>
      <trkpt lat="47.04297" lon="3.29711">
        <ele>225.80000305176</ele>
        <time>2022-06-25T05:09:41.000Z</time>
      </trkpt>
      <trkpt lat="47.04343" lon="3.29709">
        <ele>226.60000610352</ele>
        <time>2022-06-25T05:09:49.000Z</time>
      </trkpt>
      <trkpt lat="47.04398" lon="3.29704">
        <ele>225.60000610352</ele>
        <time>2022-06-25T05:09:59.000Z</time>
      </trkpt>
      <trkpt lat="47.04404" lon="3.29704">
        <ele>225.39999389648</ele>
        <time>2022-06-25T05:10:00.000Z</time>
      </trkpt>
      <trkpt lat="47.04426" lon="3.29705">
        <ele>226.80000305176</ele>
        <time>2022-06-25T05:10:04.000Z</time>
      </trkpt>
      <trkpt lat="47.04437" lon="3.2971">
        <ele>227.60000610352</ele>
        <time>2022-06-25T05:10:06.000Z</time>
      </trkpt>
      <trkpt lat="47.04447" lon="3.29717">
        <ele>228.60000610352</ele>
        <time>2022-06-25T05:10:08.000Z</time>
      </trkpt>
      <trkpt lat="47.04462" lon="3.2973">
        <ele>230.60000610352</ele>
        <time>2022-06-25T05:10:12.000Z</time>
      </trkpt>
      <trkpt lat="47.0447" lon="3.29737">
        <ele>231.19999694824</ele>
        <time>2022-06-25T05:10:14.000Z</time>
      </trkpt>
      <trkpt lat="47.04477" lon="3.29744">
        <ele>231.60000610352</ele>
        <time>2022-06-25T05:10:16.000Z</time>
      </trkpt>
      <trkpt lat="47.0448" lon="3.29748">
        <ele>231.80000305176</ele>
        <time>2022-06-25T05:10:17.000Z</time>
      </trkpt>
      <trkpt lat="47.0449" lon="3.29758">
        <ele>232.60000610352</ele>
        <time>2022-06-25T05:10:20.000Z</time>
      </trkpt>
      <trkpt lat="47.04498" lon="3.2977">
        <ele>233.19999694824</ele>
        <time>2022-06-25T05:10:23.000Z</time>
      </trkpt>
      <trkpt lat="47.04501" lon="3.29774">
        <ele>233.60000610352</ele>
        <time>2022-06-25T05:10:24.000Z</time>
      </trkpt>
      <trkpt lat="47.04503" lon="3.29778">
        <ele>234</ele>
        <time>2022-06-25T05:10:25.000Z</time>
      </trkpt>
      <trkpt lat="47.04513" lon="3.29795">
        <ele>235.60000610352</ele>
        <time>2022-06-25T05:10:29.000Z</time>
      </trkpt>
      <trkpt lat="47.04518" lon="3.29805">
        <ele>236.19999694824</ele>
        <time>2022-06-25T05:10:31.000Z</time>
      </trkpt>
      <trkpt lat="47.0452" lon="3.2981">
        <ele>236.60000610352</ele>
        <time>2022-06-25T05:10:32.000Z</time>
      </trkpt>
      <trkpt lat="47.04525" lon="3.29825">
        <ele>237.39999389648</ele>
        <time>2022-06-25T05:10:35.000Z</time>
      </trkpt>
      <trkpt lat="47.04533" lon="3.29847">
        <ele>238</ele>
        <time>2022-06-25T05:10:39.000Z</time>
      </trkpt>
      <trkpt lat="47.04534" lon="3.29853">
        <ele>238.19999694824</ele>
        <time>2022-06-25T05:10:40.000Z</time>
      </trkpt>
      <trkpt lat="47.04537" lon="3.29874">
        <ele>238.80000305176</ele>
        <time>2022-06-25T05:10:44.000Z</time>
      </trkpt>
      <trkpt lat="47.04541" lon="3.2989">
        <ele>239.19999694824</ele>
        <time>2022-06-25T05:10:47.000Z</time>
      </trkpt>
      <trkpt lat="47.04543" lon="3.29908">
        <ele>239.80000305176</ele>
        <time>2022-06-25T05:10:50.000Z</time>
      </trkpt>
      <trkpt lat="47.04545" lon="3.29919">
        <ele>240</ele>
        <time>2022-06-25T05:10:52.000Z</time>
      </trkpt>
      <trkpt lat="47.04548" lon="3.29944">
        <ele>240.19999694824</ele>
        <time>2022-06-25T05:10:56.000Z</time>
      </trkpt>
      <trkpt lat="47.04552" lon="3.29974">
        <ele>241.19999694824</ele>
        <time>2022-06-25T05:11:01.000Z</time>
      </trkpt>
      <trkpt lat="47.04552" lon="3.2998">
        <ele>241.39999389648</ele>
        <time>2022-06-25T05:11:02.000Z</time>
      </trkpt>
      <trkpt lat="47.04561" lon="3.30049">
        <ele>243.60000610352</ele>
        <time>2022-06-25T05:11:12.000Z</time>
      </trkpt>
      <trkpt lat="47.04562" lon="3.30056">
        <ele>243.60000610352</ele>
        <time>2022-06-25T05:11:13.000Z</time>
      </trkpt>
      <trkpt lat="47.04568" lon="3.3011">
        <ele>244.80000305176</ele>
        <time>2022-06-25T05:11:20.000Z</time>
      </trkpt>
      <trkpt lat="47.04576" lon="3.3017">
        <ele>245</ele>
        <time>2022-06-25T05:11:28.000Z</time>
      </trkpt>
      <trkpt lat="47.04579" lon="3.30193">
        <ele>245</ele>
        <time>2022-06-25T05:11:31.000Z</time>
      </trkpt>
      <trkpt lat="47.04582" lon="3.3022">
        <ele>245</ele>
        <time>2022-06-25T05:11:35.000Z</time>
      </trkpt>
      <trkpt lat="47.04586" lon="3.30254">
        <ele>244.60000610352</ele>
        <time>2022-06-25T05:11:40.000Z</time>
      </trkpt>
      <trkpt lat="47.0459" lon="3.30283">
        <ele>244.60000610352</ele>
        <time>2022-06-25T05:11:44.000Z</time>
      </trkpt>
      <trkpt lat="47.04595" lon="3.30331">
        <ele>244.60000610352</ele>
        <time>2022-06-25T05:11:50.000Z</time>
      </trkpt>
      <trkpt lat="47.04604" lon="3.304">
        <ele>243</ele>
        <time>2022-06-25T05:11:58.000Z</time>
      </trkpt>
      <trkpt lat="47.04614" lon="3.30483">
        <ele>242.19999694824</ele>
        <time>2022-06-25T05:12:07.000Z</time>
      </trkpt>
      <trkpt lat="47.04619" lon="3.3052">
        <ele>242.60000610352</ele>
        <time>2022-06-25T05:12:11.000Z</time>
      </trkpt>
      <trkpt lat="47.04623" lon="3.30556">
        <ele>242.80000305176</ele>
        <time>2022-06-25T05:12:15.000Z</time>
      </trkpt>
      <trkpt lat="47.04629" lon="3.30601">
        <ele>243.19999694824</ele>
        <time>2022-06-25T05:12:20.000Z</time>
      </trkpt>
      <trkpt lat="47.04632" lon="3.30628">
        <ele>244</ele>
        <time>2022-06-25T05:12:23.000Z</time>
      </trkpt>
      <trkpt lat="47.04639" lon="3.30687">
        <ele>244.39999389648</ele>
        <time>2022-06-25T05:12:30.000Z</time>
      </trkpt>
      <trkpt lat="47.04646" lon="3.30745">
        <ele>244.60000610352</ele>
        <time>2022-06-25T05:12:37.000Z</time>
      </trkpt>
      <trkpt lat="47.04656" lon="3.30824">
        <ele>247.80000305176</ele>
        <time>2022-06-25T05:12:47.000Z</time>
      </trkpt>
      <trkpt lat="47.0466" lon="3.30854">
        <ele>249.39999389648</ele>
        <time>2022-06-25T05:12:51.000Z</time>
      </trkpt>
      <trkpt lat="47.04661" lon="3.30862">
        <ele>249.60000610352</ele>
        <time>2022-06-25T05:12:52.000Z</time>
      </trkpt>
      <trkpt lat="47.04664" lon="3.30884">
        <ele>251.39999389648</ele>
        <time>2022-06-25T05:12:55.000Z</time>
      </trkpt>
      <trkpt lat="47.04666" lon="3.30898">
        <ele>250.80000305176</ele>
        <time>2022-06-25T05:12:57.000Z</time>
      </trkpt>
      <trkpt lat="47.04667" lon="3.3092">
        <ele>250.39999389648</ele>
        <time>2022-06-25T05:13:00.000Z</time>
      </trkpt>
      <trkpt lat="47.04668" lon="3.30926">
        <ele>250.60000610352</ele>
        <time>2022-06-25T05:13:01.000Z</time>
      </trkpt>
      <trkpt lat="47.0467" lon="3.30976">
        <ele>250.80000305176</ele>
        <time>2022-06-25T05:13:08.000Z</time>
      </trkpt>
      <trkpt lat="47.0467" lon="3.30983">
        <ele>251.19999694824</ele>
        <time>2022-06-25T05:13:09.000Z</time>
      </trkpt>
      <trkpt lat="47.04668" lon="3.31054">
        <ele>251.60000610352</ele>
        <time>2022-06-25T05:13:18.000Z</time>
      </trkpt>
      <trkpt lat="47.04667" lon="3.3114">
        <ele>249.80000305176</ele>
        <time>2022-06-25T05:13:28.000Z</time>
      </trkpt>
      <trkpt lat="47.04671" lon="3.312">
        <ele>248.19999694824</ele>
        <time>2022-06-25T05:13:35.000Z</time>
      </trkpt>
      <trkpt lat="47.04676" lon="3.31218">
        <ele>248.39999389648</ele>
        <time>2022-06-25T05:13:37.000Z</time>
      </trkpt>
      <trkpt lat="47.04685" lon="3.31239">
        <ele>249.19999694824</ele>
        <time>2022-06-25T05:13:40.000Z</time>
      </trkpt>
      <trkpt lat="47.04711" lon="3.31275">
        <ele>249.80000305176</ele>
        <time>2022-06-25T05:13:46.000Z</time>
      </trkpt>
      <trkpt lat="47.04752" lon="3.31323">
        <ele>249.19999694824</ele>
        <time>2022-06-25T05:13:55.000Z</time>
      </trkpt>
      <trkpt lat="47.04795" lon="3.31373">
        <ele>247.39999389648</ele>
        <time>2022-06-25T05:14:05.000Z</time>
      </trkpt>
      <trkpt lat="47.04807" lon="3.31392">
        <ele>247</ele>
        <time>2022-06-25T05:14:09.000Z</time>
      </trkpt>
      <trkpt lat="47.0481" lon="3.31395">
        <ele>247</ele>
        <time>2022-06-25T05:14:10.000Z</time>
      </trkpt>
      <trkpt lat="47.04819" lon="3.31402">
        <ele>247</ele>
        <time>2022-06-25T05:14:12.000Z</time>
      </trkpt>
      <trkpt lat="47.04823" lon="3.31407">
        <ele>247</ele>
        <time>2022-06-25T05:14:13.000Z</time>
      </trkpt>
      <trkpt lat="47.04847" lon="3.31434">
        <ele>247</ele>
        <time>2022-06-25T05:14:18.000Z</time>
      </trkpt>
      <trkpt lat="47.04863" lon="3.31452">
        <ele>246</ele>
        <time>2022-06-25T05:14:21.000Z</time>
      </trkpt>
      <trkpt lat="47.04879" lon="3.3147">
        <ele>244.80000305176</ele>
        <time>2022-06-25T05:14:24.000Z</time>
      </trkpt>
      <trkpt lat="47.04895" lon="3.31489">
        <ele>244.19999694824</ele>
        <time>2022-06-25T05:14:27.000Z</time>
      </trkpt>
      <trkpt lat="47.04925" lon="3.31524">
        <ele>244.80000305176</ele>
        <time>2022-06-25T05:14:33.000Z</time>
      </trkpt>
      <trkpt lat="47.04957" lon="3.31562">
        <ele>245.80000305176</ele>
        <time>2022-06-25T05:14:40.000Z</time>
      </trkpt>
      <trkpt lat="47.04965" lon="3.31572">
        <ele>246.19999694824</ele>
        <time>2022-06-25T05:14:42.000Z</time>
      </trkpt>
      <trkpt lat="47.04974" lon="3.31591">
        <ele>246.60000610352</ele>
        <time>2022-06-25T05:14:45.000Z</time>
      </trkpt>
      <trkpt lat="47.04988" lon="3.31633">
        <ele>248</ele>
        <time>2022-06-25T05:14:51.000Z</time>
      </trkpt>
      <trkpt lat="47.04985" lon="3.31656">
        <ele>248</ele>
        <time>2022-06-25T05:14:54.000Z</time>
      </trkpt>
      <trkpt lat="47.04984" lon="3.31664">
        <ele>248.19999694824</ele>
        <time>2022-06-25T05:14:55.000Z</time>
      </trkpt>
      <trkpt lat="47.04983" lon="3.31697">
        <ele>249</ele>
        <time>2022-06-25T05:14:59.000Z</time>
      </trkpt>
      <trkpt lat="47.04984" lon="3.31745">
        <ele>248.80000305176</ele>
        <time>2022-06-25T05:15:05.000Z</time>
      </trkpt>
      <trkpt lat="47.04984" lon="3.3177">
        <ele>248.80000305176</ele>
        <time>2022-06-25T05:15:08.000Z</time>
      </trkpt>
      <trkpt lat="47.04986" lon="3.31832">
        <ele>249.19999694824</ele>
        <time>2022-06-25T05:15:16.000Z</time>
      </trkpt>
      <trkpt lat="47.04987" lon="3.31872">
        <ele>250</ele>
        <time>2022-06-25T05:15:21.000Z</time>
      </trkpt>
      <trkpt lat="47.04988" lon="3.31889">
        <ele>250</ele>
        <time>2022-06-25T05:15:23.000Z</time>
      </trkpt>
      <trkpt lat="47.0499" lon="3.31948">
        <ele>249.80000305176</ele>
        <time>2022-06-25T05:15:30.000Z</time>
      </trkpt>
      <trkpt lat="47.04997" lon="3.32026">
        <ele>248.39999389648</ele>
        <time>2022-06-25T05:15:39.000Z</time>
      </trkpt>
      <trkpt lat="47.05001" lon="3.32042">
        <ele>248.39999389648</ele>
        <time>2022-06-25T05:15:41.000Z</time>
      </trkpt>
      <trkpt lat="47.05011" lon="3.32064">
        <ele>248.60000610352</ele>
        <time>2022-06-25T05:15:44.000Z</time>
      </trkpt>
      <trkpt lat="47.05021" lon="3.32083">
        <ele>249.39999389648</ele>
        <time>2022-06-25T05:15:47.000Z</time>
      </trkpt>
      <trkpt lat="47.05035" lon="3.32108">
        <ele>250.80000305176</ele>
        <time>2022-06-25T05:15:51.000Z</time>
      </trkpt>
      <trkpt lat="47.05056" lon="3.32155">
        <ele>251</ele>
        <time>2022-06-25T05:15:58.000Z</time>
      </trkpt>
      <trkpt lat="47.05057" lon="3.32163">
        <ele>251</ele>
        <time>2022-06-25T05:15:59.000Z</time>
      </trkpt>
      <trkpt lat="47.0506" lon="3.32186">
        <ele>251</ele>
        <time>2022-06-25T05:16:02.000Z</time>
      </trkpt>
      <trkpt lat="47.05061" lon="3.32193">
        <ele>251</ele>
        <time>2022-06-25T05:16:03.000Z</time>
      </trkpt>
      <trkpt lat="47.05067" lon="3.32262">
        <ele>251.60000610352</ele>
        <time>2022-06-25T05:16:12.000Z</time>
      </trkpt>
      <trkpt lat="47.05075" lon="3.32313">
        <ele>252.19999694824</ele>
        <time>2022-06-25T05:16:19.000Z</time>
      </trkpt>
      <trkpt lat="47.05083" lon="3.32359">
        <ele>252.39999389648</ele>
        <time>2022-06-25T05:16:25.000Z</time>
      </trkpt>
      <trkpt lat="47.05086" lon="3.32376">
        <ele>252.60000610352</ele>
        <time>2022-06-25T05:16:27.000Z</time>
      </trkpt>
      <trkpt lat="47.051" lon="3.32448">
        <ele>254.19999694824</ele>
        <time>2022-06-25T05:16:36.000Z</time>
      </trkpt>
      <trkpt lat="47.05109" lon="3.32502">
        <ele>256.20001220703</ele>
        <time>2022-06-25T05:16:43.000Z</time>
      </trkpt>
      <trkpt lat="47.05111" lon="3.32539">
        <ele>257.39999389648</ele>
        <time>2022-06-25T05:16:48.000Z</time>
      </trkpt>
      <trkpt lat="47.05113" lon="3.32566">
        <ele>258</ele>
        <time>2022-06-25T05:16:52.000Z</time>
      </trkpt>
      <trkpt lat="47.05113" lon="3.32573">
        <ele>258.39999389648</ele>
        <time>2022-06-25T05:16:53.000Z</time>
      </trkpt>
      <trkpt lat="47.05116" lon="3.32609">
        <ele>259.20001220703</ele>
        <time>2022-06-25T05:16:58.000Z</time>
      </trkpt>
      <trkpt lat="47.05117" lon="3.32617">
        <ele>259</ele>
        <time>2022-06-25T05:16:59.000Z</time>
      </trkpt>
      <trkpt lat="47.05129" lon="3.32667">
        <ele>257.79998779297</ele>
        <time>2022-06-25T05:17:06.000Z</time>
      </trkpt>
      <trkpt lat="47.05148" lon="3.32714">
        <ele>257.60000610352</ele>
        <time>2022-06-25T05:17:13.000Z</time>
      </trkpt>
      <trkpt lat="47.05171" lon="3.32747">
        <ele>259.20001220703</ele>
        <time>2022-06-25T05:17:19.000Z</time>
      </trkpt>
      <trkpt lat="47.05175" lon="3.32751">
        <ele>259.60000610352</ele>
        <time>2022-06-25T05:17:20.000Z</time>
      </trkpt>
      <trkpt lat="47.05203" lon="3.32787">
        <ele>260.79998779297</ele>
        <time>2022-06-25T05:17:27.000Z</time>
      </trkpt>
      <trkpt lat="47.05222" lon="3.32811">
        <ele>261.60000610352</ele>
        <time>2022-06-25T05:17:32.000Z</time>
      </trkpt>
      <trkpt lat="47.0523" lon="3.32821">
        <ele>261.79998779297</ele>
        <time>2022-06-25T05:17:34.000Z</time>
      </trkpt>
      <trkpt lat="47.05248" lon="3.32846">
        <ele>263</ele>
        <time>2022-06-25T05:17:39.000Z</time>
      </trkpt>
      <trkpt lat="47.05254" lon="3.32856">
        <ele>263.60000610352</ele>
        <time>2022-06-25T05:17:41.000Z</time>
      </trkpt>
      <trkpt lat="47.05271" lon="3.3288">
        <ele>265.20001220703</ele>
        <time>2022-06-25T05:17:46.000Z</time>
      </trkpt>
      <trkpt lat="47.05277" lon="3.3289">
        <ele>265.60000610352</ele>
        <time>2022-06-25T05:17:48.000Z</time>
      </trkpt>
      <trkpt lat="47.05292" lon="3.32913">
        <ele>266</ele>
        <time>2022-06-25T05:17:53.000Z</time>
      </trkpt>
      <trkpt lat="47.053" lon="3.32928">
        <ele>266.39999389648</ele>
        <time>2022-06-25T05:17:56.000Z</time>
      </trkpt>
      <trkpt lat="47.05305" lon="3.32937">
        <ele>266.79998779297</ele>
        <time>2022-06-25T05:17:58.000Z</time>
      </trkpt>
      <trkpt lat="47.05314" lon="3.32952">
        <ele>267</ele>
        <time>2022-06-25T05:18:01.000Z</time>
      </trkpt>
      <trkpt lat="47.05322" lon="3.32966">
        <ele>267.20001220703</ele>
        <time>2022-06-25T05:18:04.000Z</time>
      </trkpt>
      <trkpt lat="47.05328" lon="3.32974">
        <ele>267.20001220703</ele>
        <time>2022-06-25T05:18:06.000Z</time>
      </trkpt>
      <trkpt lat="47.05334" lon="3.32982">
        <ele>267.60000610352</ele>
        <time>2022-06-25T05:18:08.000Z</time>
      </trkpt>
      <trkpt lat="47.05344" lon="3.32993">
        <ele>268</ele>
        <time>2022-06-25T05:18:11.000Z</time>
      </trkpt>
      <trkpt lat="47.05347" lon="3.32997">
        <ele>268</ele>
        <time>2022-06-25T05:18:12.000Z</time>
      </trkpt>
      <trkpt lat="47.05359" lon="3.33013">
        <ele>269</ele>
        <time>2022-06-25T05:18:16.000Z</time>
      </trkpt>
      <trkpt lat="47.05374" lon="3.33036">
        <ele>270.39999389648</ele>
        <time>2022-06-25T05:18:21.000Z</time>
      </trkpt>
      <trkpt lat="47.05376" lon="3.33041">
        <ele>270.60000610352</ele>
        <time>2022-06-25T05:18:22.000Z</time>
      </trkpt>
      <trkpt lat="47.0538" lon="3.33052">
        <ele>271.39999389648</ele>
        <time>2022-06-25T05:18:24.000Z</time>
      </trkpt>
      <trkpt lat="47.05382" lon="3.33058">
        <ele>271.39999389648</ele>
        <time>2022-06-25T05:18:25.000Z</time>
      </trkpt>
      <trkpt lat="47.05385" lon="3.33069">
        <ele>271.60000610352</ele>
        <time>2022-06-25T05:18:27.000Z</time>
      </trkpt>
      <trkpt lat="47.05389" lon="3.33093">
        <ele>272</ele>
        <time>2022-06-25T05:18:31.000Z</time>
      </trkpt>
      <trkpt lat="47.05389" lon="3.33117">
        <ele>272.39999389648</ele>
        <time>2022-06-25T05:18:35.000Z</time>
      </trkpt>
      <trkpt lat="47.05388" lon="3.33128">
        <ele>272.39999389648</ele>
        <time>2022-06-25T05:18:37.000Z</time>
      </trkpt>
      <trkpt lat="47.05387" lon="3.33134">
        <ele>272.39999389648</ele>
        <time>2022-06-25T05:18:38.000Z</time>
      </trkpt>
      <trkpt lat="47.05386" lon="3.33146">
        <ele>272.39999389648</ele>
        <time>2022-06-25T05:18:40.000Z</time>
      </trkpt>
      <trkpt lat="47.05386" lon="3.33152">
        <ele>272.60000610352</ele>
        <time>2022-06-25T05:18:41.000Z</time>
      </trkpt>
      <trkpt lat="47.05391" lon="3.3318">
        <ele>273.60000610352</ele>
        <time>2022-06-25T05:18:46.000Z</time>
      </trkpt>
      <trkpt lat="47.05394" lon="3.3319">
        <ele>274</ele>
        <time>2022-06-25T05:18:48.000Z</time>
      </trkpt>
      <trkpt lat="47.05405" lon="3.33222">
        <ele>276.20001220703</ele>
        <time>2022-06-25T05:18:54.000Z</time>
      </trkpt>
      <trkpt lat="47.0541" lon="3.33238">
        <ele>276.79998779297</ele>
        <time>2022-06-25T05:18:57.000Z</time>
      </trkpt>
      <trkpt lat="47.05417" lon="3.33258">
        <ele>277</ele>
        <time>2022-06-25T05:19:01.000Z</time>
      </trkpt>
      <trkpt lat="47.05423" lon="3.3328">
        <ele>277.39999389648</ele>
        <time>2022-06-25T05:19:05.000Z</time>
      </trkpt>
      <trkpt lat="47.05429" lon="3.33301">
        <ele>277.20001220703</ele>
        <time>2022-06-25T05:19:09.000Z</time>
      </trkpt>
      <trkpt lat="47.05441" lon="3.33344">
        <ele>278.20001220703</ele>
        <time>2022-06-25T05:19:17.000Z</time>
      </trkpt>
      <trkpt lat="47.05442" lon="3.3335">
        <ele>278.39999389648</ele>
        <time>2022-06-25T05:19:18.000Z</time>
      </trkpt>
      <trkpt lat="47.05448" lon="3.33375">
        <ele>279.20001220703</ele>
        <time>2022-06-25T05:19:23.000Z</time>
      </trkpt>
      <trkpt lat="47.05449" lon="3.33381">
        <ele>279.20001220703</ele>
        <time>2022-06-25T05:19:24.000Z</time>
      </trkpt>
      <trkpt lat="47.05454" lon="3.33409">
        <ele>280.20001220703</ele>
        <time>2022-06-25T05:19:29.000Z</time>
      </trkpt>
      <trkpt lat="47.05458" lon="3.33432">
        <ele>281.60000610352</ele>
        <time>2022-06-25T05:19:33.000Z</time>
      </trkpt>
      <trkpt lat="47.0546" lon="3.33447">
        <ele>282.60000610352</ele>
        <time>2022-06-25T05:19:36.000Z</time>
      </trkpt>
      <trkpt lat="47.05462" lon="3.33469">
        <ele>284</ele>
        <time>2022-06-25T05:19:40.000Z</time>
      </trkpt>
      <trkpt lat="47.05463" lon="3.33487">
        <ele>284.60000610352</ele>
        <time>2022-06-25T05:19:43.000Z</time>
      </trkpt>
      <trkpt lat="47.05464" lon="3.33492">
        <ele>284.79998779297</ele>
        <time>2022-06-25T05:19:44.000Z</time>
      </trkpt>
      <trkpt lat="47.05463" lon="3.33518">
        <ele>286.60000610352</ele>
        <time>2022-06-25T05:19:49.000Z</time>
      </trkpt>
      <trkpt lat="47.05461" lon="3.33528">
        <ele>287.20001220703</ele>
        <time>2022-06-25T05:19:51.000Z</time>
      </trkpt>
      <trkpt lat="47.0546" lon="3.33533">
        <ele>287.39999389648</ele>
        <time>2022-06-25T05:19:52.000Z</time>
      </trkpt>
      <trkpt lat="47.05457" lon="3.33557">
        <ele>288.39999389648</ele>
        <time>2022-06-25T05:19:57.000Z</time>
      </trkpt>
      <trkpt lat="47.05455" lon="3.33561">
        <ele>288.60000610352</ele>
        <time>2022-06-25T05:19:58.000Z</time>
      </trkpt>
      <trkpt lat="47.05454" lon="3.3357">
        <ele>289</ele>
        <time>2022-06-25T05:20:00.000Z</time>
      </trkpt>
      <trkpt lat="47.05451" lon="3.33588">
        <ele>290</ele>
        <time>2022-06-25T05:20:04.000Z</time>
      </trkpt>
      <trkpt lat="47.05449" lon="3.33602">
        <ele>291</ele>
        <time>2022-06-25T05:20:07.000Z</time>
      </trkpt>
      <trkpt lat="47.05447" lon="3.3362">
        <ele>292.39999389648</ele>
        <time>2022-06-25T05:20:11.000Z</time>
      </trkpt>
      <trkpt lat="47.05445" lon="3.33632">
        <ele>293</ele>
        <time>2022-06-25T05:20:14.000Z</time>
      </trkpt>
      <trkpt lat="47.05444" lon="3.3364">
        <ele>293.20001220703</ele>
        <time>2022-06-25T05:20:16.000Z</time>
      </trkpt>
      <trkpt lat="47.0544" lon="3.33658">
        <ele>294.39999389648</ele>
        <time>2022-06-25T05:20:20.000Z</time>
      </trkpt>
      <trkpt lat="47.05436" lon="3.33674">
        <ele>295.79998779297</ele>
        <time>2022-06-25T05:20:24.000Z</time>
      </trkpt>
      <trkpt lat="47.05429" lon="3.33696">
        <ele>297.39999389648</ele>
        <time>2022-06-25T05:20:29.000Z</time>
      </trkpt>
      <trkpt lat="47.05426" lon="3.33707">
        <ele>298.20001220703</ele>
        <time>2022-06-25T05:20:32.000Z</time>
      </trkpt>
      <trkpt lat="47.05419" lon="3.33723">
        <ele>299.39999389648</ele>
        <time>2022-06-25T05:20:36.000Z</time>
      </trkpt>
      <trkpt lat="47.05418" lon="3.33727">
        <ele>299.60000610352</ele>
        <time>2022-06-25T05:20:37.000Z</time>
      </trkpt>
      <trkpt lat="47.05415" lon="3.33738">
        <ele>300.39999389648</ele>
        <time>2022-06-25T05:20:40.000Z</time>
      </trkpt>
      <trkpt lat="47.05413" lon="3.33756">
        <ele>301.79998779297</ele>
        <time>2022-06-25T05:20:44.000Z</time>
      </trkpt>
      <trkpt lat="47.05414" lon="3.3376">
        <ele>301.79998779297</ele>
        <time>2022-06-25T05:20:45.000Z</time>
      </trkpt>
      <trkpt lat="47.05419" lon="3.33784">
        <ele>303</ele>
        <time>2022-06-25T05:20:50.000Z</time>
      </trkpt>
      <trkpt lat="47.0542" lon="3.33788">
        <ele>303.20001220703</ele>
        <time>2022-06-25T05:20:51.000Z</time>
      </trkpt>
      <trkpt lat="47.05424" lon="3.33801">
        <ele>303.79998779297</ele>
        <time>2022-06-25T05:20:54.000Z</time>
      </trkpt>
      <trkpt lat="47.0543" lon="3.33823">
        <ele>304.79998779297</ele>
        <time>2022-06-25T05:20:59.000Z</time>
      </trkpt>
      <trkpt lat="47.05437" lon="3.33844">
        <ele>305.79998779297</ele>
        <time>2022-06-25T05:21:04.000Z</time>
      </trkpt>
      <trkpt lat="47.05443" lon="3.33867">
        <ele>307.20001220703</ele>
        <time>2022-06-25T05:21:09.000Z</time>
      </trkpt>
      <trkpt lat="47.05444" lon="3.33871">
        <ele>307.60000610352</ele>
        <time>2022-06-25T05:21:10.000Z</time>
      </trkpt>
      <trkpt lat="47.05448" lon="3.33885">
        <ele>309</ele>
        <time>2022-06-25T05:21:13.000Z</time>
      </trkpt>
      <trkpt lat="47.05451" lon="3.33898">
        <ele>310</ele>
        <time>2022-06-25T05:21:16.000Z</time>
      </trkpt>
      <trkpt lat="47.05453" lon="3.33906">
        <ele>310.60000610352</ele>
        <time>2022-06-25T05:21:18.000Z</time>
      </trkpt>
      <trkpt lat="47.05457" lon="3.33919">
        <ele>311.60000610352</ele>
        <time>2022-06-25T05:21:21.000Z</time>
      </trkpt>
      <trkpt lat="47.05463" lon="3.33936">
        <ele>313</ele>
        <time>2022-06-25T05:21:25.000Z</time>
      </trkpt>
      <trkpt lat="47.05468" lon="3.33946">
        <ele>314</ele>
        <time>2022-06-25T05:21:28.000Z</time>
      </trkpt>
      <trkpt lat="47.05471" lon="3.33953">
        <ele>314.79998779297</ele>
        <time>2022-06-25T05:21:30.000Z</time>
      </trkpt>
      <trkpt lat="47.0548" lon="3.33966">
        <ele>316.60000610352</ele>
        <time>2022-06-25T05:21:34.000Z</time>
      </trkpt>
      <trkpt lat="47.05482" lon="3.33969">
        <ele>316.79998779297</ele>
        <time>2022-06-25T05:21:35.000Z</time>
      </trkpt>
      <trkpt lat="47.05492" lon="3.33979">
        <ele>317.60000610352</ele>
        <time>2022-06-25T05:21:39.000Z</time>
      </trkpt>
      <trkpt lat="47.05497" lon="3.33984">
        <ele>318</ele>
        <time>2022-06-25T05:21:41.000Z</time>
      </trkpt>
      <trkpt lat="47.05502" lon="3.3399">
        <ele>318.20001220703</ele>
        <time>2022-06-25T05:21:43.000Z</time>
      </trkpt>
      <trkpt lat="47.05518" lon="3.34004">
        <ele>319</ele>
        <time>2022-06-25T05:21:49.000Z</time>
      </trkpt>
      <trkpt lat="47.05528" lon="3.34015">
        <ele>319.39999389648</ele>
        <time>2022-06-25T05:21:53.000Z</time>
      </trkpt>
      <trkpt lat="47.05537" lon="3.34024">
        <ele>319.79998779297</ele>
        <time>2022-06-25T05:21:56.000Z</time>
      </trkpt>
      <trkpt lat="47.05539" lon="3.34026">
        <ele>320</ele>
        <time>2022-06-25T05:21:57.000Z</time>
      </trkpt>
      <trkpt lat="47.0555" lon="3.34043">
        <ele>320.79998779297</ele>
        <time>2022-06-25T05:22:02.000Z</time>
      </trkpt>
      <trkpt lat="47.05562" lon="3.34075">
        <ele>321</ele>
        <time>2022-06-25T05:22:09.000Z</time>
      </trkpt>
      <trkpt lat="47.0557" lon="3.34123">
        <ele>320</ele>
        <time>2022-06-25T05:22:17.000Z</time>
      </trkpt>
      <trkpt lat="47.05575" lon="3.34146">
        <ele>319.60000610352</ele>
        <time>2022-06-25T05:22:20.000Z</time>
      </trkpt>
      <trkpt lat="47.05581" lon="3.34161">
        <ele>319</ele>
        <time>2022-06-25T05:22:22.000Z</time>
      </trkpt>
      <trkpt lat="47.0559" lon="3.34172">
        <ele>318</ele>
        <time>2022-06-25T05:22:24.000Z</time>
      </trkpt>
      <trkpt lat="47.05595" lon="3.34176">
        <ele>317.39999389648</ele>
        <time>2022-06-25T05:22:25.000Z</time>
      </trkpt>
      <trkpt lat="47.05602" lon="3.3418">
        <ele>316.60000610352</ele>
        <time>2022-06-25T05:22:26.000Z</time>
      </trkpt>
      <trkpt lat="47.05616" lon="3.34181">
        <ele>314.60000610352</ele>
        <time>2022-06-25T05:22:28.000Z</time>
      </trkpt>
      <trkpt lat="47.05623" lon="3.3418">
        <ele>313.79998779297</ele>
        <time>2022-06-25T05:22:29.000Z</time>
      </trkpt>
      <trkpt lat="47.05638" lon="3.34175">
        <ele>312.79998779297</ele>
        <time>2022-06-25T05:22:31.000Z</time>
      </trkpt>
      <trkpt lat="47.05653" lon="3.34169">
        <ele>311.79998779297</ele>
        <time>2022-06-25T05:22:33.000Z</time>
      </trkpt>
      <trkpt lat="47.05666" lon="3.34163">
        <ele>311.60000610352</ele>
        <time>2022-06-25T05:22:35.000Z</time>
      </trkpt>
      <trkpt lat="47.05673" lon="3.34161">
        <ele>311.39999389648</ele>
        <time>2022-06-25T05:22:36.000Z</time>
      </trkpt>
      <trkpt lat="47.05692" lon="3.34156">
        <ele>310.39999389648</ele>
        <time>2022-06-25T05:22:39.000Z</time>
      </trkpt>
      <trkpt lat="47.05696" lon="3.34157">
        <ele>310</ele>
        <time>2022-06-25T05:22:40.000Z</time>
      </trkpt>
      <trkpt lat="47.05699" lon="3.3416">
        <ele>309.39999389648</ele>
        <time>2022-06-25T05:22:41.000Z</time>
      </trkpt>
      <trkpt lat="47.05701" lon="3.34172">
        <ele>308.20001220703</ele>
        <time>2022-06-25T05:22:43.000Z</time>
      </trkpt>
      <trkpt lat="47.05698" lon="3.34187">
        <ele>307.79998779297</ele>
        <time>2022-06-25T05:22:45.000Z</time>
      </trkpt>
      <trkpt lat="47.05692" lon="3.34202">
        <ele>308</ele>
        <time>2022-06-25T05:22:47.000Z</time>
      </trkpt>
      <trkpt lat="47.05674" lon="3.34249">
        <ele>305.20001220703</ele>
        <time>2022-06-25T05:22:53.000Z</time>
      </trkpt>
      <trkpt lat="47.05663" lon="3.34274">
        <ele>303.20001220703</ele>
        <time>2022-06-25T05:22:56.000Z</time>
      </trkpt>
      <trkpt lat="47.0566" lon="3.34283">
        <ele>302.60000610352</ele>
        <time>2022-06-25T05:22:57.000Z</time>
      </trkpt>
      <trkpt lat="47.05646" lon="3.34321">
        <ele>303.20001220703</ele>
        <time>2022-06-25T05:23:01.000Z</time>
      </trkpt>
      <trkpt lat="47.05632" lon="3.34363">
        <ele>302.79998779297</ele>
        <time>2022-06-25T05:23:05.000Z</time>
      </trkpt>
      <trkpt lat="47.05625" lon="3.34385">
        <ele>301</ele>
        <time>2022-06-25T05:23:07.000Z</time>
      </trkpt>
      <trkpt lat="47.05621" lon="3.34397">
        <ele>300</ele>
        <time>2022-06-25T05:23:08.000Z</time>
      </trkpt>
      <trkpt lat="47.05609" lon="3.34432">
        <ele>297.79998779297</ele>
        <time>2022-06-25T05:23:11.000Z</time>
      </trkpt>
      <trkpt lat="47.05601" lon="3.34456">
        <ele>297.20001220703</ele>
        <time>2022-06-25T05:23:13.000Z</time>
      </trkpt>
      <trkpt lat="47.05597" lon="3.34467">
        <ele>297</ele>
        <time>2022-06-25T05:23:14.000Z</time>
      </trkpt>
      <trkpt lat="47.05585" lon="3.34503">
        <ele>295</ele>
        <time>2022-06-25T05:23:17.000Z</time>
      </trkpt>
      <trkpt lat="47.05577" lon="3.34525">
        <ele>294.39999389648</ele>
        <time>2022-06-25T05:23:19.000Z</time>
      </trkpt>
      <trkpt lat="47.05571" lon="3.34544">
        <ele>293.60000610352</ele>
        <time>2022-06-25T05:23:21.000Z</time>
      </trkpt>
      <trkpt lat="47.05565" lon="3.34561">
        <ele>292.60000610352</ele>
        <time>2022-06-25T05:23:23.000Z</time>
      </trkpt>
      <trkpt lat="47.05562" lon="3.34569">
        <ele>292</ele>
        <time>2022-06-25T05:23:24.000Z</time>
      </trkpt>
      <trkpt lat="47.05556" lon="3.34583">
        <ele>290.60000610352</ele>
        <time>2022-06-25T05:23:26.000Z</time>
      </trkpt>
      <trkpt lat="47.05554" lon="3.34592">
        <ele>290</ele>
        <time>2022-06-25T05:23:27.000Z</time>
      </trkpt>
      <trkpt lat="47.05553" lon="3.34601">
        <ele>289.39999389648</ele>
        <time>2022-06-25T05:23:28.000Z</time>
      </trkpt>
      <trkpt lat="47.05553" lon="3.34612">
        <ele>288.79998779297</ele>
        <time>2022-06-25T05:23:29.000Z</time>
      </trkpt>
      <trkpt lat="47.05554" lon="3.34622">
        <ele>288.20001220703</ele>
        <time>2022-06-25T05:23:30.000Z</time>
      </trkpt>
      <trkpt lat="47.05559" lon="3.34656">
        <ele>286.79998779297</ele>
        <time>2022-06-25T05:23:33.000Z</time>
      </trkpt>
      <trkpt lat="47.05559" lon="3.34668">
        <ele>286.60000610352</ele>
        <time>2022-06-25T05:23:34.000Z</time>
      </trkpt>
      <trkpt lat="47.05558" lon="3.3468">
        <ele>286.39999389648</ele>
        <time>2022-06-25T05:23:35.000Z</time>
      </trkpt>
      <trkpt lat="47.05554" lon="3.34703">
        <ele>285.79998779297</ele>
        <time>2022-06-25T05:23:37.000Z</time>
      </trkpt>
      <trkpt lat="47.05551" lon="3.34714">
        <ele>285.60000610352</ele>
        <time>2022-06-25T05:23:38.000Z</time>
      </trkpt>
      <trkpt lat="47.05548" lon="3.34724">
        <ele>285.60000610352</ele>
        <time>2022-06-25T05:23:39.000Z</time>
      </trkpt>
      <trkpt lat="47.05537" lon="3.3476">
        <ele>286.39999389648</ele>
        <time>2022-06-25T05:23:43.000Z</time>
      </trkpt>
      <trkpt lat="47.05536" lon="3.34769">
        <ele>286.60000610352</ele>
        <time>2022-06-25T05:23:44.000Z</time>
      </trkpt>
      <trkpt lat="47.05535" lon="3.34777">
        <ele>287.20001220703</ele>
        <time>2022-06-25T05:23:45.000Z</time>
      </trkpt>
      <trkpt lat="47.05534" lon="3.34793">
        <ele>288.39999389648</ele>
        <time>2022-06-25T05:23:47.000Z</time>
      </trkpt>
      <trkpt lat="47.05534" lon="3.34808">
        <ele>289</ele>
        <time>2022-06-25T05:23:49.000Z</time>
      </trkpt>
      <trkpt lat="47.05534" lon="3.34822">
        <ele>289.39999389648</ele>
        <time>2022-06-25T05:23:51.000Z</time>
      </trkpt>
      <trkpt lat="47.05536" lon="3.34859">
        <ele>289.60000610352</ele>
        <time>2022-06-25T05:23:56.000Z</time>
      </trkpt>
      <trkpt lat="47.05535" lon="3.34867">
        <ele>289.39999389648</ele>
        <time>2022-06-25T05:23:57.000Z</time>
      </trkpt>
      <trkpt lat="47.05536" lon="3.34903">
        <ele>287.39999389648</ele>
        <time>2022-06-25T05:24:01.000Z</time>
      </trkpt>
      <trkpt lat="47.05537" lon="3.34935">
        <ele>286.20001220703</ele>
        <time>2022-06-25T05:24:04.000Z</time>
      </trkpt>
      <trkpt lat="47.05536" lon="3.34957">
        <ele>284.60000610352</ele>
        <time>2022-06-25T05:24:06.000Z</time>
      </trkpt>
      <trkpt lat="47.05532" lon="3.35003">
        <ele>282.39999389648</ele>
        <time>2022-06-25T05:24:10.000Z</time>
      </trkpt>
      <trkpt lat="47.0553" lon="3.35026">
        <ele>281</ele>
        <time>2022-06-25T05:24:12.000Z</time>
      </trkpt>
      <trkpt lat="47.05524" lon="3.35048">
        <ele>279.20001220703</ele>
        <time>2022-06-25T05:24:14.000Z</time>
      </trkpt>
      <trkpt lat="47.0552" lon="3.35058">
        <ele>278.20001220703</ele>
        <time>2022-06-25T05:24:15.000Z</time>
      </trkpt>
      <trkpt lat="47.05508" lon="3.35071">
        <ele>277</ele>
        <time>2022-06-25T05:24:17.000Z</time>
      </trkpt>
      <trkpt lat="47.055" lon="3.35074">
        <ele>276.20001220703</ele>
        <time>2022-06-25T05:24:18.000Z</time>
      </trkpt>
      <trkpt lat="47.05482" lon="3.35076">
        <ele>275</ele>
        <time>2022-06-25T05:24:20.000Z</time>
      </trkpt>
      <trkpt lat="47.05465" lon="3.35079">
        <ele>274.20001220703</ele>
        <time>2022-06-25T05:24:22.000Z</time>
      </trkpt>
      <trkpt lat="47.05457" lon="3.35079">
        <ele>273.60000610352</ele>
        <time>2022-06-25T05:24:23.000Z</time>
      </trkpt>
      <trkpt lat="47.05441" lon="3.35082">
        <ele>271.79998779297</ele>
        <time>2022-06-25T05:24:25.000Z</time>
      </trkpt>
      <trkpt lat="47.05434" lon="3.35086">
        <ele>270.79998779297</ele>
        <time>2022-06-25T05:24:26.000Z</time>
      </trkpt>
      <trkpt lat="47.05428" lon="3.35092">
        <ele>269.79998779297</ele>
        <time>2022-06-25T05:24:27.000Z</time>
      </trkpt>
      <trkpt lat="47.05419" lon="3.3511">
        <ele>267.79998779297</ele>
        <time>2022-06-25T05:24:29.000Z</time>
      </trkpt>
      <trkpt lat="47.05419" lon="3.35148">
        <ele>265</ele>
        <time>2022-06-25T05:24:32.000Z</time>
      </trkpt>
      <trkpt lat="47.05422" lon="3.35176">
        <ele>263.60000610352</ele>
        <time>2022-06-25T05:24:34.000Z</time>
      </trkpt>
      <trkpt lat="47.05424" lon="3.35205">
        <ele>261.60000610352</ele>
        <time>2022-06-25T05:24:36.000Z</time>
      </trkpt>
      <trkpt lat="47.05425" lon="3.35219">
        <ele>261</ele>
        <time>2022-06-25T05:24:37.000Z</time>
      </trkpt>
      <trkpt lat="47.05425" lon="3.35234">
        <ele>260.39999389648</ele>
        <time>2022-06-25T05:24:38.000Z</time>
      </trkpt>
      <trkpt lat="47.05423" lon="3.35263">
        <ele>260.60000610352</ele>
        <time>2022-06-25T05:24:40.000Z</time>
      </trkpt>
      <trkpt lat="47.05422" lon="3.35277">
        <ele>260.60000610352</ele>
        <time>2022-06-25T05:24:41.000Z</time>
      </trkpt>
      <trkpt lat="47.0542" lon="3.35291">
        <ele>260.60000610352</ele>
        <time>2022-06-25T05:24:42.000Z</time>
      </trkpt>
      <trkpt lat="47.05417" lon="3.35318">
        <ele>262.60000610352</ele>
        <time>2022-06-25T05:24:44.000Z</time>
      </trkpt>
      <trkpt lat="47.05417" lon="3.35331">
        <ele>263</ele>
        <time>2022-06-25T05:24:45.000Z</time>
      </trkpt>
      <trkpt lat="47.05417" lon="3.35344">
        <ele>263.60000610352</ele>
        <time>2022-06-25T05:24:46.000Z</time>
      </trkpt>
      <trkpt lat="47.05421" lon="3.35365">
        <ele>264.79998779297</ele>
        <time>2022-06-25T05:24:48.000Z</time>
      </trkpt>
      <trkpt lat="47.05428" lon="3.35382">
        <ele>266.60000610352</ele>
        <time>2022-06-25T05:24:50.000Z</time>
      </trkpt>
      <trkpt lat="47.05435" lon="3.35396">
        <ele>267.79998779297</ele>
        <time>2022-06-25T05:24:52.000Z</time>
      </trkpt>
      <trkpt lat="47.05454" lon="3.35424">
        <ele>269</ele>
        <time>2022-06-25T05:24:57.000Z</time>
      </trkpt>
      <trkpt lat="47.05457" lon="3.35429">
        <ele>269.20001220703</ele>
        <time>2022-06-25T05:24:58.000Z</time>
      </trkpt>
      <trkpt lat="47.05467" lon="3.35443">
        <ele>269.60000610352</ele>
        <time>2022-06-25T05:25:01.000Z</time>
      </trkpt>
      <trkpt lat="47.0547" lon="3.35448">
        <ele>269.60000610352</ele>
        <time>2022-06-25T05:25:02.000Z</time>
      </trkpt>
      <trkpt lat="47.0548" lon="3.35461">
        <ele>269.20001220703</ele>
        <time>2022-06-25T05:25:05.000Z</time>
      </trkpt>
      <trkpt lat="47.05493" lon="3.35479">
        <ele>269.60000610352</ele>
        <time>2022-06-25T05:25:09.000Z</time>
      </trkpt>
      <trkpt lat="47.055" lon="3.35488">
        <ele>270</ele>
        <time>2022-06-25T05:25:11.000Z</time>
      </trkpt>
      <trkpt lat="47.05514" lon="3.35504">
        <ele>271</ele>
        <time>2022-06-25T05:25:15.000Z</time>
      </trkpt>
      <trkpt lat="47.05524" lon="3.35518">
        <ele>272</ele>
        <time>2022-06-25T05:25:18.000Z</time>
      </trkpt>
      <trkpt lat="47.05527" lon="3.35522">
        <ele>272.39999389648</ele>
        <time>2022-06-25T05:25:19.000Z</time>
      </trkpt>
      <trkpt lat="47.05534" lon="3.35528">
        <ele>272.79998779297</ele>
        <time>2022-06-25T05:25:21.000Z</time>
      </trkpt>
      <trkpt lat="47.0554" lon="3.35536">
        <ele>273.39999389648</ele>
        <time>2022-06-25T05:25:23.000Z</time>
      </trkpt>
      <trkpt lat="47.05544" lon="3.3554">
        <ele>273.79998779297</ele>
        <time>2022-06-25T05:25:24.000Z</time>
      </trkpt>
      <trkpt lat="47.05554" lon="3.35553">
        <ele>275.20001220703</ele>
        <time>2022-06-25T05:25:27.000Z</time>
      </trkpt>
      <trkpt lat="47.05569" lon="3.35568">
        <ele>276.20001220703</ele>
        <time>2022-06-25T05:25:31.000Z</time>
      </trkpt>
      <trkpt lat="47.05573" lon="3.35572">
        <ele>276.39999389648</ele>
        <time>2022-06-25T05:25:32.000Z</time>
      </trkpt>
      <trkpt lat="47.05582" lon="3.35585">
        <ele>276.79998779297</ele>
        <time>2022-06-25T05:25:35.000Z</time>
      </trkpt>
      <trkpt lat="47.0559" lon="3.35601">
        <ele>277.20001220703</ele>
        <time>2022-06-25T05:25:38.000Z</time>
      </trkpt>
      <trkpt lat="47.05592" lon="3.35606">
        <ele>277.39999389648</ele>
        <time>2022-06-25T05:25:39.000Z</time>
      </trkpt>
      <trkpt lat="47.05596" lon="3.35618">
        <ele>277.60000610352</ele>
        <time>2022-06-25T05:25:41.000Z</time>
      </trkpt>
      <trkpt lat="47.05598" lon="3.35631">
        <ele>278</ele>
        <time>2022-06-25T05:25:43.000Z</time>
      </trkpt>
      <trkpt lat="47.05598" lon="3.35638">
        <ele>278.20001220703</ele>
        <time>2022-06-25T05:25:44.000Z</time>
      </trkpt>
      <trkpt lat="47.05598" lon="3.35645">
        <ele>278.39999389648</ele>
        <time>2022-06-25T05:25:45.000Z</time>
      </trkpt>
      <trkpt lat="47.05594" lon="3.35657">
        <ele>279.20001220703</ele>
        <time>2022-06-25T05:25:47.000Z</time>
      </trkpt>
      <trkpt lat="47.05591" lon="3.35662">
        <ele>279.20001220703</ele>
        <time>2022-06-25T05:25:48.000Z</time>
      </trkpt>
      <trkpt lat="47.05587" lon="3.35667">
        <ele>279.60000610352</ele>
        <time>2022-06-25T05:25:49.000Z</time>
      </trkpt>
      <trkpt lat="47.05578" lon="3.35673">
        <ele>280.20001220703</ele>
        <time>2022-06-25T05:25:51.000Z</time>
      </trkpt>
      <trkpt lat="47.05574" lon="3.35675">
        <ele>280.39999389648</ele>
        <time>2022-06-25T05:25:52.000Z</time>
      </trkpt>
      <trkpt lat="47.05569" lon="3.35676">
        <ele>280.60000610352</ele>
        <time>2022-06-25T05:25:53.000Z</time>
      </trkpt>
      <trkpt lat="47.05544" lon="3.3568">
        <ele>281.60000610352</ele>
        <time>2022-06-25T05:25:58.000Z</time>
      </trkpt>
      <trkpt lat="47.05534" lon="3.35679">
        <ele>281.60000610352</ele>
        <time>2022-06-25T05:26:00.000Z</time>
      </trkpt>
      <trkpt lat="47.05515" lon="3.35675">
        <ele>281.39999389648</ele>
        <time>2022-06-25T05:26:04.000Z</time>
      </trkpt>
      <trkpt lat="47.05496" lon="3.35668">
        <ele>281.20001220703</ele>
        <time>2022-06-25T05:26:08.000Z</time>
      </trkpt>
      <trkpt lat="47.05486" lon="3.35664">
        <ele>281.20001220703</ele>
        <time>2022-06-25T05:26:10.000Z</time>
      </trkpt>
      <trkpt lat="47.05438" lon="3.35643">
        <ele>282</ele>
        <time>2022-06-25T05:26:20.000Z</time>
      </trkpt>
      <trkpt lat="47.054" lon="3.35623">
        <ele>282.20001220703</ele>
        <time>2022-06-25T05:26:28.000Z</time>
      </trkpt>
      <trkpt lat="47.0536" lon="3.35596">
        <ele>283.60000610352</ele>
        <time>2022-06-25T05:26:36.000Z</time>
      </trkpt>
      <trkpt lat="47.05318" lon="3.35556">
        <ele>285</ele>
        <time>2022-06-25T05:26:45.000Z</time>
      </trkpt>
      <trkpt lat="47.05286" lon="3.35522">
        <ele>285.20001220703</ele>
        <time>2022-06-25T05:26:52.000Z</time>
      </trkpt>
      <trkpt lat="47.05272" lon="3.35508">
        <ele>285.79998779297</ele>
        <time>2022-06-25T05:26:55.000Z</time>
      </trkpt>
      <trkpt lat="47.05263" lon="3.35499">
        <ele>286</ele>
        <time>2022-06-25T05:26:57.000Z</time>
      </trkpt>
      <trkpt lat="47.05259" lon="3.35492">
        <ele>285.79998779297</ele>
        <time>2022-06-25T05:26:58.000Z</time>
      </trkpt>
      <trkpt lat="47.05251" lon="3.3548">
        <ele>285.39999389648</ele>
        <time>2022-06-25T05:27:00.000Z</time>
      </trkpt>
      <trkpt lat="47.05241" lon="3.35472">
        <ele>285.20001220703</ele>
        <time>2022-06-25T05:27:02.000Z</time>
      </trkpt>
      <trkpt lat="47.05204" lon="3.35458">
        <ele>285</ele>
        <time>2022-06-25T05:27:09.000Z</time>
      </trkpt>
      <trkpt lat="47.05184" lon="3.35454">
        <ele>286.39999389648</ele>
        <time>2022-06-25T05:27:13.000Z</time>
      </trkpt>
      <trkpt lat="47.05179" lon="3.35456">
        <ele>286.79998779297</ele>
        <time>2022-06-25T05:27:14.000Z</time>
      </trkpt>
      <trkpt lat="47.05174" lon="3.35459">
        <ele>287.20001220703</ele>
        <time>2022-06-25T05:27:15.000Z</time>
      </trkpt>
      <trkpt lat="47.0517" lon="3.35462">
        <ele>287.39999389648</ele>
        <time>2022-06-25T05:27:16.000Z</time>
      </trkpt>
      <trkpt lat="47.05153" lon="3.35478">
        <ele>288</ele>
        <time>2022-06-25T05:27:20.000Z</time>
      </trkpt>
      <trkpt lat="47.05128" lon="3.35516">
        <ele>286.39999389648</ele>
        <time>2022-06-25T05:27:26.000Z</time>
      </trkpt>
      <trkpt lat="47.05109" lon="3.35564">
        <ele>283</ele>
        <time>2022-06-25T05:27:31.000Z</time>
      </trkpt>
      <trkpt lat="47.05105" lon="3.35575">
        <ele>282.39999389648</ele>
        <time>2022-06-25T05:27:32.000Z</time>
      </trkpt>
      <trkpt lat="47.05095" lon="3.35611">
        <ele>279.79998779297</ele>
        <time>2022-06-25T05:27:35.000Z</time>
      </trkpt>
      <trkpt lat="47.05091" lon="3.35623">
        <ele>279.20001220703</ele>
        <time>2022-06-25T05:27:36.000Z</time>
      </trkpt>
      <trkpt lat="47.05087" lon="3.35636">
        <ele>278</ele>
        <time>2022-06-25T05:27:37.000Z</time>
      </trkpt>
      <trkpt lat="47.05075" lon="3.35677">
        <ele>276.20001220703</ele>
        <time>2022-06-25T05:27:40.000Z</time>
      </trkpt>
      <trkpt lat="47.05068" lon="3.35705">
        <ele>276</ele>
        <time>2022-06-25T05:27:42.000Z</time>
      </trkpt>
      <trkpt lat="47.05063" lon="3.35734">
        <ele>275.39999389648</ele>
        <time>2022-06-25T05:27:44.000Z</time>
      </trkpt>
      <trkpt lat="47.05059" lon="3.35761">
        <ele>274.60000610352</ele>
        <time>2022-06-25T05:27:46.000Z</time>
      </trkpt>
      <trkpt lat="47.05053" lon="3.35793">
        <ele>272.39999389648</ele>
        <time>2022-06-25T05:27:48.000Z</time>
      </trkpt>
      <trkpt lat="47.05051" lon="3.35809">
        <ele>271.39999389648</ele>
        <time>2022-06-25T05:27:49.000Z</time>
      </trkpt>
      <trkpt lat="47.05046" lon="3.35839">
        <ele>268.79998779297</ele>
        <time>2022-06-25T05:27:51.000Z</time>
      </trkpt>
      <trkpt lat="47.05042" lon="3.3587">
        <ele>266.79998779297</ele>
        <time>2022-06-25T05:27:53.000Z</time>
      </trkpt>
      <trkpt lat="47.05037" lon="3.35899">
        <ele>264.20001220703</ele>
        <time>2022-06-25T05:27:55.000Z</time>
      </trkpt>
      <trkpt lat="47.05032" lon="3.35913">
        <ele>263.20001220703</ele>
        <time>2022-06-25T05:27:56.000Z</time>
      </trkpt>
      <trkpt lat="47.05022" lon="3.35941">
        <ele>262.20001220703</ele>
        <time>2022-06-25T05:27:58.000Z</time>
      </trkpt>
      <trkpt lat="47.05016" lon="3.35953">
        <ele>261.20001220703</ele>
        <time>2022-06-25T05:27:59.000Z</time>
      </trkpt>
      <trkpt lat="47.05009" lon="3.35965">
        <ele>260.20001220703</ele>
        <time>2022-06-25T05:28:00.000Z</time>
      </trkpt>
      <trkpt lat="47.04988" lon="3.36001">
        <ele>259</ele>
        <time>2022-06-25T05:28:03.000Z</time>
      </trkpt>
      <trkpt lat="47.04967" lon="3.36037">
        <ele>258.20001220703</ele>
        <time>2022-06-25T05:28:06.000Z</time>
      </trkpt>
      <trkpt lat="47.04953" lon="3.36061">
        <ele>258.39999389648</ele>
        <time>2022-06-25T05:28:08.000Z</time>
      </trkpt>
      <trkpt lat="47.0494" lon="3.36085">
        <ele>257.60000610352</ele>
        <time>2022-06-25T05:28:10.000Z</time>
      </trkpt>
      <trkpt lat="47.04925" lon="3.36107">
        <ele>256</ele>
        <time>2022-06-25T05:28:12.000Z</time>
      </trkpt>
      <trkpt lat="47.04909" lon="3.36125">
        <ele>255.60000610352</ele>
        <time>2022-06-25T05:28:14.000Z</time>
      </trkpt>
      <trkpt lat="47.04884" lon="3.36149">
        <ele>255.19999694824</ele>
        <time>2022-06-25T05:28:17.000Z</time>
      </trkpt>
      <trkpt lat="47.0487" lon="3.36168">
        <ele>253.80000305176</ele>
        <time>2022-06-25T05:28:19.000Z</time>
      </trkpt>
      <trkpt lat="47.04863" lon="3.36177">
        <ele>253.39999389648</ele>
        <time>2022-06-25T05:28:20.000Z</time>
      </trkpt>
      <trkpt lat="47.0484" lon="3.36216">
        <ele>252</ele>
        <time>2022-06-25T05:28:24.000Z</time>
      </trkpt>
      <trkpt lat="47.04809" lon="3.36266">
        <ele>252.60000610352</ele>
        <time>2022-06-25T05:28:30.000Z</time>
      </trkpt>
      <trkpt lat="47.04797" lon="3.36276">
        <ele>253.19999694824</ele>
        <time>2022-06-25T05:28:32.000Z</time>
      </trkpt>
      <trkpt lat="47.04784" lon="3.36283">
        <ele>253.39999389648</ele>
        <time>2022-06-25T05:28:34.000Z</time>
      </trkpt>
      <trkpt lat="47.0475" lon="3.36302">
        <ele>254.60000610352</ele>
        <time>2022-06-25T05:28:40.000Z</time>
      </trkpt>
      <trkpt lat="47.04727" lon="3.36311">
        <ele>256.39999389648</ele>
        <time>2022-06-25T05:28:44.000Z</time>
      </trkpt>
      <trkpt lat="47.04715" lon="3.36312">
        <ele>257</ele>
        <time>2022-06-25T05:28:46.000Z</time>
      </trkpt>
      <trkpt lat="47.04702" lon="3.36308">
        <ele>256.39999389648</ele>
        <time>2022-06-25T05:28:48.000Z</time>
      </trkpt>
      <trkpt lat="47.0469" lon="3.363">
        <ele>255.19999694824</ele>
        <time>2022-06-25T05:28:50.000Z</time>
      </trkpt>
      <trkpt lat="47.04671" lon="3.36289">
        <ele>254</ele>
        <time>2022-06-25T05:28:53.000Z</time>
      </trkpt>
      <trkpt lat="47.04657" lon="3.36288">
        <ele>253.60000610352</ele>
        <time>2022-06-25T05:28:55.000Z</time>
      </trkpt>
      <trkpt lat="47.04646" lon="3.36293">
        <ele>253.60000610352</ele>
        <time>2022-06-25T05:28:57.000Z</time>
      </trkpt>
      <trkpt lat="47.04641" lon="3.36298">
        <ele>253.80000305176</ele>
        <time>2022-06-25T05:28:58.000Z</time>
      </trkpt>
      <trkpt lat="47.04637" lon="3.36304">
        <ele>254.19999694824</ele>
        <time>2022-06-25T05:28:59.000Z</time>
      </trkpt>
      <trkpt lat="47.04629" lon="3.36323">
        <ele>254.80000305176</ele>
        <time>2022-06-25T05:29:02.000Z</time>
      </trkpt>
      <trkpt lat="47.04619" lon="3.36349">
        <ele>256.20001220703</ele>
        <time>2022-06-25T05:29:07.000Z</time>
      </trkpt>
      <trkpt lat="47.04611" lon="3.36372">
        <ele>258</ele>
        <time>2022-06-25T05:29:12.000Z</time>
      </trkpt>
      <trkpt lat="47.04608" lon="3.36381">
        <ele>258.60000610352</ele>
        <time>2022-06-25T05:29:14.000Z</time>
      </trkpt>
      <trkpt lat="47.04606" lon="3.36386">
        <ele>258.79998779297</ele>
        <time>2022-06-25T05:29:15.000Z</time>
      </trkpt>
      <trkpt lat="47.04599" lon="3.36404">
        <ele>259.60000610352</ele>
        <time>2022-06-25T05:29:19.000Z</time>
      </trkpt>
      <trkpt lat="47.04594" lon="3.36418">
        <ele>260.60000610352</ele>
        <time>2022-06-25T05:29:22.000Z</time>
      </trkpt>
      <trkpt lat="47.04592" lon="3.36423">
        <ele>260.79998779297</ele>
        <time>2022-06-25T05:29:23.000Z</time>
      </trkpt>
      <trkpt lat="47.04587" lon="3.36435">
        <ele>261.60000610352</ele>
        <time>2022-06-25T05:29:26.000Z</time>
      </trkpt>
      <trkpt lat="47.0458" lon="3.36451">
        <ele>262.39999389648</ele>
        <time>2022-06-25T05:29:30.000Z</time>
      </trkpt>
      <trkpt lat="47.04575" lon="3.36464">
        <ele>262.79998779297</ele>
        <time>2022-06-25T05:29:33.000Z</time>
      </trkpt>
      <trkpt lat="47.04573" lon="3.3647">
        <ele>262.79998779297</ele>
        <time>2022-06-25T05:29:34.000Z</time>
      </trkpt>
      <trkpt lat="47.04563" lon="3.36495">
        <ele>263.39999389648</ele>
        <time>2022-06-25T05:29:39.000Z</time>
      </trkpt>
      <trkpt lat="47.04557" lon="3.36509">
        <ele>264.39999389648</ele>
        <time>2022-06-25T05:29:42.000Z</time>
      </trkpt>
      <trkpt lat="47.04553" lon="3.36518">
        <ele>265.20001220703</ele>
        <time>2022-06-25T05:29:44.000Z</time>
      </trkpt>
      <trkpt lat="47.04542" lon="3.36546">
        <ele>267.20001220703</ele>
        <time>2022-06-25T05:29:50.000Z</time>
      </trkpt>
      <trkpt lat="47.04538" lon="3.36555">
        <ele>267.60000610352</ele>
        <time>2022-06-25T05:29:52.000Z</time>
      </trkpt>
      <trkpt lat="47.04533" lon="3.36569">
        <ele>268.20001220703</ele>
        <time>2022-06-25T05:29:55.000Z</time>
      </trkpt>
      <trkpt lat="47.04526" lon="3.36587">
        <ele>268.79998779297</ele>
        <time>2022-06-25T05:29:59.000Z</time>
      </trkpt>
      <trkpt lat="47.04522" lon="3.36601">
        <ele>269.20001220703</ele>
        <time>2022-06-25T05:30:02.000Z</time>
      </trkpt>
      <trkpt lat="47.04521" lon="3.36606">
        <ele>269.39999389648</ele>
        <time>2022-06-25T05:30:03.000Z</time>
      </trkpt>
      <trkpt lat="47.04518" lon="3.36626">
        <ele>271</ele>
        <time>2022-06-25T05:30:07.000Z</time>
      </trkpt>
      <trkpt lat="47.04517" lon="3.3664">
        <ele>272.20001220703</ele>
        <time>2022-06-25T05:30:10.000Z</time>
      </trkpt>
      <trkpt lat="47.04518" lon="3.3665">
        <ele>272.79998779297</ele>
        <time>2022-06-25T05:30:12.000Z</time>
      </trkpt>
      <trkpt lat="47.04519" lon="3.36675">
        <ele>274.60000610352</ele>
        <time>2022-06-25T05:30:17.000Z</time>
      </trkpt>
      <trkpt lat="47.04519" lon="3.36695">
        <ele>275.79998779297</ele>
        <time>2022-06-25T05:30:21.000Z</time>
      </trkpt>
      <trkpt lat="47.04519" lon="3.367">
        <ele>275.79998779297</ele>
        <time>2022-06-25T05:30:22.000Z</time>
      </trkpt>
      <trkpt lat="47.04521" lon="3.36719">
        <ele>276.39999389648</ele>
        <time>2022-06-25T05:30:26.000Z</time>
      </trkpt>
      <trkpt lat="47.04524" lon="3.36743">
        <ele>277</ele>
        <time>2022-06-25T05:30:31.000Z</time>
      </trkpt>
      <trkpt lat="47.04525" lon="3.36758">
        <ele>277.39999389648</ele>
        <time>2022-06-25T05:30:34.000Z</time>
      </trkpt>
      <trkpt lat="47.04525" lon="3.36768">
        <ele>278</ele>
        <time>2022-06-25T05:30:36.000Z</time>
      </trkpt>
      <trkpt lat="47.04527" lon="3.36783">
        <ele>279</ele>
        <time>2022-06-25T05:30:39.000Z</time>
      </trkpt>
      <trkpt lat="47.04529" lon="3.36802">
        <ele>279.60000610352</ele>
        <time>2022-06-25T05:30:43.000Z</time>
      </trkpt>
      <trkpt lat="47.04529" lon="3.36812">
        <ele>280.20001220703</ele>
        <time>2022-06-25T05:30:45.000Z</time>
      </trkpt>
      <trkpt lat="47.0453" lon="3.36821">
        <ele>281</ele>
        <time>2022-06-25T05:30:47.000Z</time>
      </trkpt>
      <trkpt lat="47.04532" lon="3.3684">
        <ele>282.79998779297</ele>
        <time>2022-06-25T05:30:51.000Z</time>
      </trkpt>
      <trkpt lat="47.04532" lon="3.3685">
        <ele>283.60000610352</ele>
        <time>2022-06-25T05:30:53.000Z</time>
      </trkpt>
      <trkpt lat="47.04532" lon="3.36865">
        <ele>284.79998779297</ele>
        <time>2022-06-25T05:30:56.000Z</time>
      </trkpt>
      <trkpt lat="47.0453" lon="3.3689">
        <ele>286</ele>
        <time>2022-06-25T05:31:01.000Z</time>
      </trkpt>
      <trkpt lat="47.04526" lon="3.36909">
        <ele>286.20001220703</ele>
        <time>2022-06-25T05:31:05.000Z</time>
      </trkpt>
      <trkpt lat="47.0452" lon="3.36927">
        <ele>286.60000610352</ele>
        <time>2022-06-25T05:31:09.000Z</time>
      </trkpt>
      <trkpt lat="47.04519" lon="3.36932">
        <ele>286.79998779297</ele>
        <time>2022-06-25T05:31:10.000Z</time>
      </trkpt>
      <trkpt lat="47.04515" lon="3.36946">
        <ele>287</ele>
        <time>2022-06-25T05:31:13.000Z</time>
      </trkpt>
      <trkpt lat="47.04509" lon="3.36964">
        <ele>287.60000610352</ele>
        <time>2022-06-25T05:31:17.000Z</time>
      </trkpt>
      <trkpt lat="47.04507" lon="3.36969">
        <ele>287.79998779297</ele>
        <time>2022-06-25T05:31:18.000Z</time>
      </trkpt>
      <trkpt lat="47.04498" lon="3.36995">
        <ele>289.79998779297</ele>
        <time>2022-06-25T05:31:24.000Z</time>
      </trkpt>
      <trkpt lat="47.04494" lon="3.37009">
        <ele>291</ele>
        <time>2022-06-25T05:31:27.000Z</time>
      </trkpt>
      <trkpt lat="47.04491" lon="3.37019">
        <ele>292.20001220703</ele>
        <time>2022-06-25T05:31:29.000Z</time>
      </trkpt>
      <trkpt lat="47.04486" lon="3.37043">
        <ele>294.39999389648</ele>
        <time>2022-06-25T05:31:34.000Z</time>
      </trkpt>
      <trkpt lat="47.04486" lon="3.37047">
        <ele>295</ele>
        <time>2022-06-25T05:31:35.000Z</time>
      </trkpt>
      <trkpt lat="47.04483" lon="3.37061">
        <ele>296.20001220703</ele>
        <time>2022-06-25T05:31:38.000Z</time>
      </trkpt>
      <trkpt lat="47.04481" lon="3.37076">
        <ele>297.60000610352</ele>
        <time>2022-06-25T05:31:41.000Z</time>
      </trkpt>
      <trkpt lat="47.0448" lon="3.37085">
        <ele>298.60000610352</ele>
        <time>2022-06-25T05:31:43.000Z</time>
      </trkpt>
      <trkpt lat="47.04477" lon="3.37102">
        <ele>300.79998779297</ele>
        <time>2022-06-25T05:31:47.000Z</time>
      </trkpt>
      <trkpt lat="47.04476" lon="3.37107">
        <ele>301.20001220703</ele>
        <time>2022-06-25T05:31:48.000Z</time>
      </trkpt>
      <trkpt lat="47.04474" lon="3.37124">
        <ele>302.60000610352</ele>
        <time>2022-06-25T05:31:52.000Z</time>
      </trkpt>
      <trkpt lat="47.04471" lon="3.37145">
        <ele>303.60000610352</ele>
        <time>2022-06-25T05:31:56.000Z</time>
      </trkpt>
      <trkpt lat="47.0447" lon="3.37166">
        <ele>303</ele>
        <time>2022-06-25T05:32:00.000Z</time>
      </trkpt>
      <trkpt lat="47.04468" lon="3.37181">
        <ele>302.60000610352</ele>
        <time>2022-06-25T05:32:03.000Z</time>
      </trkpt>
      <trkpt lat="47.04466" lon="3.37189">
        <ele>302.20001220703</ele>
        <time>2022-06-25T05:32:05.000Z</time>
      </trkpt>
      <trkpt lat="47.04464" lon="3.37201">
        <ele>302</ele>
        <time>2022-06-25T05:32:08.000Z</time>
      </trkpt>
      <trkpt lat="47.04466" lon="3.37206">
        <ele>301.79998779297</ele>
        <time>2022-06-25T05:32:09.000Z</time>
      </trkpt>
      <trkpt lat="47.04472" lon="3.37223">
        <ele>301.79998779297</ele>
        <time>2022-06-25T05:32:12.000Z</time>
      </trkpt>
      <trkpt lat="47.0448" lon="3.37241">
        <ele>301.79998779297</ele>
        <time>2022-06-25T05:32:15.000Z</time>
      </trkpt>
      <trkpt lat="47.04493" lon="3.3727">
        <ele>302</ele>
        <time>2022-06-25T05:32:20.000Z</time>
      </trkpt>
      <trkpt lat="47.04499" lon="3.37282">
        <ele>302</ele>
        <time>2022-06-25T05:32:22.000Z</time>
      </trkpt>
      <trkpt lat="47.04503" lon="3.37296">
        <ele>302</ele>
        <time>2022-06-25T05:32:24.000Z</time>
      </trkpt>
      <trkpt lat="47.04503" lon="3.37304">
        <ele>302</ele>
        <time>2022-06-25T05:32:25.000Z</time>
      </trkpt>
      <trkpt lat="47.04502" lon="3.37312">
        <ele>302.39999389648</ele>
        <time>2022-06-25T05:32:26.000Z</time>
      </trkpt>
      <trkpt lat="47.04497" lon="3.37348">
        <ele>302.39999389648</ele>
        <time>2022-06-25T05:32:30.000Z</time>
      </trkpt>
      <trkpt lat="47.04489" lon="3.37401">
        <ele>302.60000610352</ele>
        <time>2022-06-25T05:32:36.000Z</time>
      </trkpt>
      <trkpt lat="47.04482" lon="3.37472">
        <ele>303.79998779297</ele>
        <time>2022-06-25T05:32:44.000Z</time>
      </trkpt>
      <trkpt lat="47.0448" lon="3.3754">
        <ele>305.60000610352</ele>
        <time>2022-06-25T05:32:52.000Z</time>
      </trkpt>
      <trkpt lat="47.0448" lon="3.37555">
        <ele>306</ele>
        <time>2022-06-25T05:32:54.000Z</time>
      </trkpt>
      <trkpt lat="47.04481" lon="3.3757">
        <ele>306</ele>
        <time>2022-06-25T05:32:56.000Z</time>
      </trkpt>
      <trkpt lat="47.0448" lon="3.37584">
        <ele>306</ele>
        <time>2022-06-25T05:32:58.000Z</time>
      </trkpt>
      <trkpt lat="47.04479" lon="3.37619">
        <ele>306.39999389648</ele>
        <time>2022-06-25T05:33:03.000Z</time>
      </trkpt>
      <trkpt lat="47.0448" lon="3.37645">
        <ele>306.79998779297</ele>
        <time>2022-06-25T05:33:07.000Z</time>
      </trkpt>
      <trkpt lat="47.04481" lon="3.37664">
        <ele>306.79998779297</ele>
        <time>2022-06-25T05:33:10.000Z</time>
      </trkpt>
      <trkpt lat="47.04484" lon="3.37695">
        <ele>309</ele>
        <time>2022-06-25T05:33:15.000Z</time>
      </trkpt>
      <trkpt lat="47.04485" lon="3.37707">
        <ele>309.39999389648</ele>
        <time>2022-06-25T05:33:17.000Z</time>
      </trkpt>
      <trkpt lat="47.04489" lon="3.37747">
        <ele>311</ele>
        <time>2022-06-25T05:33:23.000Z</time>
      </trkpt>
      <trkpt lat="47.0449" lon="3.37759">
        <ele>311.39999389648</ele>
        <time>2022-06-25T05:33:25.000Z</time>
      </trkpt>
      <trkpt lat="47.04493" lon="3.37785">
        <ele>312.20001220703</ele>
        <time>2022-06-25T05:33:29.000Z</time>
      </trkpt>
      <trkpt lat="47.04493" lon="3.37792">
        <ele>312.20001220703</ele>
        <time>2022-06-25T05:33:30.000Z</time>
      </trkpt>
      <trkpt lat="47.04494" lon="3.37813">
        <ele>312.60000610352</ele>
        <time>2022-06-25T05:33:33.000Z</time>
      </trkpt>
      <trkpt lat="47.04495" lon="3.37833">
        <ele>313.39999389648</ele>
        <time>2022-06-25T05:33:36.000Z</time>
      </trkpt>
      <trkpt lat="47.04494" lon="3.37866">
        <ele>314.20001220703</ele>
        <time>2022-06-25T05:33:41.000Z</time>
      </trkpt>
      <trkpt lat="47.04493" lon="3.37885">
        <ele>315</ele>
        <time>2022-06-25T05:33:44.000Z</time>
      </trkpt>
      <trkpt lat="47.04491" lon="3.37907">
        <ele>315.79998779297</ele>
        <time>2022-06-25T05:33:47.000Z</time>
      </trkpt>
      <trkpt lat="47.0449" lon="3.37912">
        <ele>316</ele>
        <time>2022-06-25T05:33:48.000Z</time>
      </trkpt>
      <trkpt lat="47.04488" lon="3.37971">
        <ele>316</ele>
        <time>2022-06-25T05:33:56.000Z</time>
      </trkpt>
      <trkpt lat="47.04488" lon="3.37978">
        <ele>316.20001220703</ele>
        <time>2022-06-25T05:33:57.000Z</time>
      </trkpt>
      <trkpt lat="47.04489" lon="3.38005">
        <ele>317</ele>
        <time>2022-06-25T05:34:01.000Z</time>
      </trkpt>
      <trkpt lat="47.04489" lon="3.38016">
        <ele>317</ele>
        <time>2022-06-25T05:34:03.000Z</time>
      </trkpt>
      <trkpt lat="47.04489" lon="3.38037">
        <ele>317.39999389648</ele>
        <time>2022-06-25T05:34:06.000Z</time>
      </trkpt>
      <trkpt lat="47.0449" lon="3.38064">
        <ele>317.79998779297</ele>
        <time>2022-06-25T05:34:10.000Z</time>
      </trkpt>
      <trkpt lat="47.0449" lon="3.38077">
        <ele>317.79998779297</ele>
        <time>2022-06-25T05:34:12.000Z</time>
      </trkpt>
      <trkpt lat="47.04491" lon="3.38084">
        <ele>317.79998779297</ele>
        <time>2022-06-25T05:34:13.000Z</time>
      </trkpt>
      <trkpt lat="47.04491" lon="3.38138">
        <ele>316.79998779297</ele>
        <time>2022-06-25T05:34:20.000Z</time>
      </trkpt>
      <trkpt lat="47.0449" lon="3.38156">
        <ele>316.20001220703</ele>
        <time>2022-06-25T05:34:22.000Z</time>
      </trkpt>
      <trkpt lat="47.04488" lon="3.38174">
        <ele>315.60000610352</ele>
        <time>2022-06-25T05:34:24.000Z</time>
      </trkpt>
      <trkpt lat="47.04486" lon="3.38184">
        <ele>315.20001220703</ele>
        <time>2022-06-25T05:34:25.000Z</time>
      </trkpt>
      <trkpt lat="47.04484" lon="3.38195">
        <ele>314.60000610352</ele>
        <time>2022-06-25T05:34:26.000Z</time>
      </trkpt>
      <trkpt lat="47.04476" lon="3.38238">
        <ele>311.60000610352</ele>
        <time>2022-06-25T05:34:30.000Z</time>
      </trkpt>
      <trkpt lat="47.0447" lon="3.38275">
        <ele>309</ele>
        <time>2022-06-25T05:34:33.000Z</time>
      </trkpt>
      <trkpt lat="47.04464" lon="3.38302">
        <ele>307</ele>
        <time>2022-06-25T05:34:35.000Z</time>
      </trkpt>
      <trkpt lat="47.04453" lon="3.38342">
        <ele>303</ele>
        <time>2022-06-25T05:34:38.000Z</time>
      </trkpt>
      <trkpt lat="47.04448" lon="3.38356">
        <ele>301.79998779297</ele>
        <time>2022-06-25T05:34:39.000Z</time>
      </trkpt>
      <trkpt lat="47.04443" lon="3.3837">
        <ele>300.20001220703</ele>
        <time>2022-06-25T05:34:40.000Z</time>
      </trkpt>
      <trkpt lat="47.04438" lon="3.38383">
        <ele>299.79998779297</ele>
        <time>2022-06-25T05:34:41.000Z</time>
      </trkpt>
      <trkpt lat="47.0443" lon="3.3841">
        <ele>298.20001220703</ele>
        <time>2022-06-25T05:34:43.000Z</time>
      </trkpt>
      <trkpt lat="47.04425" lon="3.38424">
        <ele>297.20001220703</ele>
        <time>2022-06-25T05:34:44.000Z</time>
      </trkpt>
      <trkpt lat="47.04421" lon="3.38438">
        <ele>296.20001220703</ele>
        <time>2022-06-25T05:34:45.000Z</time>
      </trkpt>
      <trkpt lat="47.04412" lon="3.38465">
        <ele>294.79998779297</ele>
        <time>2022-06-25T05:34:47.000Z</time>
      </trkpt>
      <trkpt lat="47.04403" lon="3.38492">
        <ele>294.20001220703</ele>
        <time>2022-06-25T05:34:49.000Z</time>
      </trkpt>
      <trkpt lat="47.04393" lon="3.38519">
        <ele>293.39999389648</ele>
        <time>2022-06-25T05:34:51.000Z</time>
      </trkpt>
      <trkpt lat="47.04385" lon="3.38545">
        <ele>293</ele>
        <time>2022-06-25T05:34:53.000Z</time>
      </trkpt>
      <trkpt lat="47.04377" lon="3.38571">
        <ele>292.39999389648</ele>
        <time>2022-06-25T05:34:55.000Z</time>
      </trkpt>
      <trkpt lat="47.04365" lon="3.38608">
        <ele>291.79998779297</ele>
        <time>2022-06-25T05:34:58.000Z</time>
      </trkpt>
      <trkpt lat="47.04352" lon="3.38642">
        <ele>290.60000610352</ele>
        <time>2022-06-25T05:35:01.000Z</time>
      </trkpt>
      <trkpt lat="47.04347" lon="3.38653">
        <ele>290.39999389648</ele>
        <time>2022-06-25T05:35:02.000Z</time>
      </trkpt>
      <trkpt lat="47.0433" lon="3.38685">
        <ele>289.20001220703</ele>
        <time>2022-06-25T05:35:05.000Z</time>
      </trkpt>
      <trkpt lat="47.04315" lon="3.38717">
        <ele>288.39999389648</ele>
        <time>2022-06-25T05:35:08.000Z</time>
      </trkpt>
      <trkpt lat="47.0431" lon="3.38728">
        <ele>288.39999389648</ele>
        <time>2022-06-25T05:35:09.000Z</time>
      </trkpt>
      <trkpt lat="47.04306" lon="3.38739">
        <ele>288.20001220703</ele>
        <time>2022-06-25T05:35:10.000Z</time>
      </trkpt>
      <trkpt lat="47.04302" lon="3.38752">
        <ele>287.79998779297</ele>
        <time>2022-06-25T05:35:11.000Z</time>
      </trkpt>
      <trkpt lat="47.04298" lon="3.38778">
        <ele>287.60000610352</ele>
        <time>2022-06-25T05:35:13.000Z</time>
      </trkpt>
      <trkpt lat="47.04296" lon="3.38792">
        <ele>286.79998779297</ele>
        <time>2022-06-25T05:35:14.000Z</time>
      </trkpt>
      <trkpt lat="47.04291" lon="3.38834">
        <ele>285</ele>
        <time>2022-06-25T05:35:17.000Z</time>
      </trkpt>
      <trkpt lat="47.04285" lon="3.38876">
        <ele>284.20001220703</ele>
        <time>2022-06-25T05:35:20.000Z</time>
      </trkpt>
      <trkpt lat="47.04284" lon="3.3889">
        <ele>283.79998779297</ele>
        <time>2022-06-25T05:35:21.000Z</time>
      </trkpt>
      <trkpt lat="47.04283" lon="3.38918">
        <ele>282.79998779297</ele>
        <time>2022-06-25T05:35:23.000Z</time>
      </trkpt>
      <trkpt lat="47.04285" lon="3.38946">
        <ele>281.79998779297</ele>
        <time>2022-06-25T05:35:25.000Z</time>
      </trkpt>
      <trkpt lat="47.04287" lon="3.38959">
        <ele>281.39999389648</ele>
        <time>2022-06-25T05:35:26.000Z</time>
      </trkpt>
      <trkpt lat="47.04289" lon="3.38972">
        <ele>280.79998779297</ele>
        <time>2022-06-25T05:35:27.000Z</time>
      </trkpt>
      <trkpt lat="47.04295" lon="3.3901">
        <ele>279.60000610352</ele>
        <time>2022-06-25T05:35:30.000Z</time>
      </trkpt>
      <trkpt lat="47.04299" lon="3.39033">
        <ele>279.39999389648</ele>
        <time>2022-06-25T05:35:32.000Z</time>
      </trkpt>
      <trkpt lat="47.04301" lon="3.39043">
        <ele>279.60000610352</ele>
        <time>2022-06-25T05:35:33.000Z</time>
      </trkpt>
      <trkpt lat="47.04309" lon="3.39093">
        <ele>280.60000610352</ele>
        <time>2022-06-25T05:35:38.000Z</time>
      </trkpt>
      <trkpt lat="47.04311" lon="3.39131">
        <ele>281.60000610352</ele>
        <time>2022-06-25T05:35:42.000Z</time>
      </trkpt>
      <trkpt lat="47.0431" lon="3.3914">
        <ele>281.79998779297</ele>
        <time>2022-06-25T05:35:43.000Z</time>
      </trkpt>
      <trkpt lat="47.04307" lon="3.39158">
        <ele>282</ele>
        <time>2022-06-25T05:35:45.000Z</time>
      </trkpt>
      <trkpt lat="47.04301" lon="3.39182">
        <ele>282.20001220703</ele>
        <time>2022-06-25T05:35:48.000Z</time>
      </trkpt>
      <trkpt lat="47.04297" lon="3.392">
        <ele>282.60000610352</ele>
        <time>2022-06-25T05:35:50.000Z</time>
      </trkpt>
      <trkpt lat="47.0429" lon="3.39221">
        <ele>282.60000610352</ele>
        <time>2022-06-25T05:35:53.000Z</time>
      </trkpt>
      <trkpt lat="47.04277" lon="3.39284">
        <ele>282</ele>
        <time>2022-06-25T05:36:00.000Z</time>
      </trkpt>
      <trkpt lat="47.04268" lon="3.39348">
        <ele>283</ele>
        <time>2022-06-25T05:36:07.000Z</time>
      </trkpt>
      <trkpt lat="47.04258" lon="3.39412">
        <ele>283.39999389648</ele>
        <time>2022-06-25T05:36:15.000Z</time>
      </trkpt>
      <trkpt lat="47.04252" lon="3.39453">
        <ele>283.60000610352</ele>
        <time>2022-06-25T05:36:21.000Z</time>
      </trkpt>
      <trkpt lat="47.04247" lon="3.39487">
        <ele>283</ele>
        <time>2022-06-25T05:36:24.000Z</time>
      </trkpt>
      <trkpt lat="47.04245" lon="3.39547">
        <ele>282.79998779297</ele>
        <time>2022-06-25T05:36:31.000Z</time>
      </trkpt>
      <trkpt lat="47.0424" lon="3.39614">
        <ele>282.39999389648</ele>
        <time>2022-06-25T05:36:39.000Z</time>
      </trkpt>
      <trkpt lat="47.04231" lon="3.39671">
        <ele>281.39999389648</ele>
        <time>2022-06-25T05:36:46.000Z</time>
      </trkpt>
      <trkpt lat="47.04227" lon="3.39703">
        <ele>280.79998779297</ele>
        <time>2022-06-25T05:36:50.000Z</time>
      </trkpt>
      <trkpt lat="47.04221" lon="3.39737">
        <ele>280</ele>
        <time>2022-06-25T05:36:54.000Z</time>
      </trkpt>
      <trkpt lat="47.04217" lon="3.39766">
        <ele>278.79998779297</ele>
        <time>2022-06-25T05:36:57.000Z</time>
      </trkpt>
      <trkpt lat="47.04214" lon="3.39787">
        <ele>278.39999389648</ele>
        <time>2022-06-25T05:36:59.000Z</time>
      </trkpt>
      <trkpt lat="47.04208" lon="3.39821">
        <ele>277.20001220703</ele>
        <time>2022-06-25T05:37:02.000Z</time>
      </trkpt>
      <trkpt lat="47.04203" lon="3.39858">
        <ele>275.60000610352</ele>
        <time>2022-06-25T05:37:05.000Z</time>
      </trkpt>
      <trkpt lat="47.04197" lon="3.39894">
        <ele>274</ele>
        <time>2022-06-25T05:37:08.000Z</time>
      </trkpt>
      <trkpt lat="47.04193" lon="3.39917">
        <ele>273.79998779297</ele>
        <time>2022-06-25T05:37:10.000Z</time>
      </trkpt>
      <trkpt lat="47.0419" lon="3.39938">
        <ele>273.60000610352</ele>
        <time>2022-06-25T05:37:12.000Z</time>
      </trkpt>
      <trkpt lat="47.04183" lon="3.39991">
        <ele>274.79998779297</ele>
        <time>2022-06-25T05:37:18.000Z</time>
      </trkpt>
      <trkpt lat="47.04179" lon="3.40038">
        <ele>275.39999389648</ele>
        <time>2022-06-25T05:37:24.000Z</time>
      </trkpt>
      <trkpt lat="47.04174" lon="3.40104">
        <ele>275.79998779297</ele>
        <time>2022-06-25T05:37:32.000Z</time>
      </trkpt>
      <trkpt lat="47.04174" lon="3.40113">
        <ele>275.79998779297</ele>
        <time>2022-06-25T05:37:33.000Z</time>
      </trkpt>
      <trkpt lat="47.04169" lon="3.40176">
        <ele>275.20001220703</ele>
        <time>2022-06-25T05:37:40.000Z</time>
      </trkpt>
      <trkpt lat="47.04163" lon="3.40244">
        <ele>273.39999389648</ele>
        <time>2022-06-25T05:37:47.000Z</time>
      </trkpt>
      <trkpt lat="47.04162" lon="3.40254">
        <ele>273</ele>
        <time>2022-06-25T05:37:48.000Z</time>
      </trkpt>
      <trkpt lat="47.04156" lon="3.40286">
        <ele>271.60000610352</ele>
        <time>2022-06-25T05:37:51.000Z</time>
      </trkpt>
      <trkpt lat="47.04151" lon="3.40307">
        <ele>270.79998779297</ele>
        <time>2022-06-25T05:37:53.000Z</time>
      </trkpt>
      <trkpt lat="47.04144" lon="3.40329">
        <ele>270.20001220703</ele>
        <time>2022-06-25T05:37:55.000Z</time>
      </trkpt>
      <trkpt lat="47.04131" lon="3.40362">
        <ele>269.39999389648</ele>
        <time>2022-06-25T05:37:58.000Z</time>
      </trkpt>
      <trkpt lat="47.04127" lon="3.40373">
        <ele>269</ele>
        <time>2022-06-25T05:37:59.000Z</time>
      </trkpt>
      <trkpt lat="47.04119" lon="3.40395">
        <ele>268</ele>
        <time>2022-06-25T05:38:01.000Z</time>
      </trkpt>
      <trkpt lat="47.04108" lon="3.40429">
        <ele>266.39999389648</ele>
        <time>2022-06-25T05:38:04.000Z</time>
      </trkpt>
      <trkpt lat="47.04106" lon="3.40441">
        <ele>266</ele>
        <time>2022-06-25T05:38:05.000Z</time>
      </trkpt>
      <trkpt lat="47.04102" lon="3.40465">
        <ele>264.79998779297</ele>
        <time>2022-06-25T05:38:07.000Z</time>
      </trkpt>
      <trkpt lat="47.04095" lon="3.40512">
        <ele>262.20001220703</ele>
        <time>2022-06-25T05:38:11.000Z</time>
      </trkpt>
      <trkpt lat="47.04092" lon="3.40548">
        <ele>261.79998779297</ele>
        <time>2022-06-25T05:38:14.000Z</time>
      </trkpt>
      <trkpt lat="47.04092" lon="3.40584">
        <ele>261.60000610352</ele>
        <time>2022-06-25T05:38:17.000Z</time>
      </trkpt>
      <trkpt lat="47.04092" lon="3.40618">
        <ele>261.79998779297</ele>
        <time>2022-06-25T05:38:20.000Z</time>
      </trkpt>
      <trkpt lat="47.0409" lon="3.4065">
        <ele>262.39999389648</ele>
        <time>2022-06-25T05:38:23.000Z</time>
      </trkpt>
      <trkpt lat="47.04088" lon="3.40671">
        <ele>262</ele>
        <time>2022-06-25T05:38:25.000Z</time>
      </trkpt>
      <trkpt lat="47.04084" lon="3.40713">
        <ele>260.20001220703</ele>
        <time>2022-06-25T05:38:29.000Z</time>
      </trkpt>
      <trkpt lat="47.04078" lon="3.40764">
        <ele>259</ele>
        <time>2022-06-25T05:38:34.000Z</time>
      </trkpt>
      <trkpt lat="47.04077" lon="3.40775">
        <ele>258.60000610352</ele>
        <time>2022-06-25T05:38:35.000Z</time>
      </trkpt>
      <trkpt lat="47.04074" lon="3.4085">
        <ele>257</ele>
        <time>2022-06-25T05:38:42.000Z</time>
      </trkpt>
      <trkpt lat="47.04074" lon="3.40861">
        <ele>257</ele>
        <time>2022-06-25T05:38:43.000Z</time>
      </trkpt>
      <trkpt lat="47.04072" lon="3.40941">
        <ele>257</ele>
        <time>2022-06-25T05:38:51.000Z</time>
      </trkpt>
      <trkpt lat="47.04071" lon="3.4096">
        <ele>257</ele>
        <time>2022-06-25T05:38:53.000Z</time>
      </trkpt>
      <trkpt lat="47.04068" lon="3.40989">
        <ele>257.60000610352</ele>
        <time>2022-06-25T05:38:56.000Z</time>
      </trkpt>
      <trkpt lat="47.04061" lon="3.41059">
        <ele>260.20001220703</ele>
        <time>2022-06-25T05:39:04.000Z</time>
      </trkpt>
      <trkpt lat="47.04058" lon="3.41097">
        <ele>261.60000610352</ele>
        <time>2022-06-25T05:39:10.000Z</time>
      </trkpt>
      <trkpt lat="47.04057" lon="3.41109">
        <ele>262.60000610352</ele>
        <time>2022-06-25T05:39:12.000Z</time>
      </trkpt>
      <trkpt lat="47.04054" lon="3.41137">
        <ele>264</ele>
        <time>2022-06-25T05:39:17.000Z</time>
      </trkpt>
      <trkpt lat="47.04052" lon="3.41146">
        <ele>264.39999389648</ele>
        <time>2022-06-25T05:39:20.000Z</time>
      </trkpt>
      <trkpt lat="47.04047" lon="3.41168">
        <ele>265.20001220703</ele>
        <time>2022-06-25T05:39:24.000Z</time>
      </trkpt>
      <trkpt lat="47.04038" lon="3.41191">
        <ele>265.79998779297</ele>
        <time>2022-06-25T05:39:28.000Z</time>
      </trkpt>
      <trkpt lat="47.04028" lon="3.4121">
        <ele>266.20001220703</ele>
        <time>2022-06-25T05:39:32.000Z</time>
      </trkpt>
      <trkpt lat="47.04011" lon="3.41235">
        <ele>266.39999389648</ele>
        <time>2022-06-25T05:39:38.000Z</time>
      </trkpt>
      <trkpt lat="47.04006" lon="3.41244">
        <ele>266.60000610352</ele>
        <time>2022-06-25T05:39:41.000Z</time>
      </trkpt>
      <trkpt lat="47.03992" lon="3.41268">
        <ele>266.20001220703</ele>
        <time>2022-06-25T05:39:45.000Z</time>
      </trkpt>
      <trkpt lat="47.03988" lon="3.41282">
        <ele>265.79998779297</ele>
        <time>2022-06-25T05:39:47.000Z</time>
      </trkpt>
      <trkpt lat="47.03983" lon="3.41306">
        <ele>264.79998779297</ele>
        <time>2022-06-25T05:39:50.000Z</time>
      </trkpt>
      <trkpt lat="47.03982" lon="3.41324">
        <ele>264.79998779297</ele>
        <time>2022-06-25T05:39:52.000Z</time>
      </trkpt>
      <trkpt lat="47.03983" lon="3.41343">
        <ele>263.79998779297</ele>
        <time>2022-06-25T05:39:54.000Z</time>
      </trkpt>
      <trkpt lat="47.03988" lon="3.41364">
        <ele>262.39999389648</ele>
        <time>2022-06-25T05:39:56.000Z</time>
      </trkpt>
      <trkpt lat="47.03991" lon="3.41374">
        <ele>261.60000610352</ele>
        <time>2022-06-25T05:39:57.000Z</time>
      </trkpt>
      <trkpt lat="47.04007" lon="3.41418">
        <ele>258.20001220703</ele>
        <time>2022-06-25T05:40:01.000Z</time>
      </trkpt>
      <trkpt lat="47.04022" lon="3.41452">
        <ele>257.20001220703</ele>
        <time>2022-06-25T05:40:04.000Z</time>
      </trkpt>
      <trkpt lat="47.04032" lon="3.41474">
        <ele>256.79998779297</ele>
        <time>2022-06-25T05:40:06.000Z</time>
      </trkpt>
      <trkpt lat="47.04037" lon="3.41486">
        <ele>256.39999389648</ele>
        <time>2022-06-25T05:40:07.000Z</time>
      </trkpt>
      <trkpt lat="47.04041" lon="3.41497">
        <ele>256</ele>
        <time>2022-06-25T05:40:08.000Z</time>
      </trkpt>
      <trkpt lat="47.04047" lon="3.41523">
        <ele>255.19999694824</ele>
        <time>2022-06-25T05:40:10.000Z</time>
      </trkpt>
      <trkpt lat="47.04047" lon="3.41549">
        <ele>253.39999389648</ele>
        <time>2022-06-25T05:40:12.000Z</time>
      </trkpt>
      <trkpt lat="47.04045" lon="3.41562">
        <ele>252.39999389648</ele>
        <time>2022-06-25T05:40:13.000Z</time>
      </trkpt>
      <trkpt lat="47.04043" lon="3.41574">
        <ele>251.60000610352</ele>
        <time>2022-06-25T05:40:14.000Z</time>
      </trkpt>
      <trkpt lat="47.0404" lon="3.41595">
        <ele>251.19999694824</ele>
        <time>2022-06-25T05:40:16.000Z</time>
      </trkpt>
      <trkpt lat="47.04036" lon="3.41615">
        <ele>251.19999694824</ele>
        <time>2022-06-25T05:40:18.000Z</time>
      </trkpt>
      <trkpt lat="47.04028" lon="3.41643">
        <ele>251.80000305176</ele>
        <time>2022-06-25T05:40:21.000Z</time>
      </trkpt>
      <trkpt lat="47.04021" lon="3.4166">
        <ele>252.60000610352</ele>
        <time>2022-06-25T05:40:23.000Z</time>
      </trkpt>
      <trkpt lat="47.04006" lon="3.41696">
        <ele>254.39999389648</ele>
        <time>2022-06-25T05:40:28.000Z</time>
      </trkpt>
      <trkpt lat="47.03996" lon="3.41719">
        <ele>255.60000610352</ele>
        <time>2022-06-25T05:40:32.000Z</time>
      </trkpt>
      <trkpt lat="47.03989" lon="3.41732">
        <ele>256.39999389648</ele>
        <time>2022-06-25T05:40:34.000Z</time>
      </trkpt>
      <trkpt lat="47.03987" lon="3.41738">
        <ele>256.60000610352</ele>
        <time>2022-06-25T05:40:35.000Z</time>
      </trkpt>
      <trkpt lat="47.03984" lon="3.41743">
        <ele>256.79998779297</ele>
        <time>2022-06-25T05:40:36.000Z</time>
      </trkpt>
      <trkpt lat="47.03976" lon="3.41766">
        <ele>258.20001220703</ele>
        <time>2022-06-25T05:40:40.000Z</time>
      </trkpt>
      <trkpt lat="47.03974" lon="3.41771">
        <ele>258.39999389648</ele>
        <time>2022-06-25T05:40:41.000Z</time>
      </trkpt>
      <trkpt lat="47.03963" lon="3.41799">
        <ele>259</ele>
        <time>2022-06-25T05:40:47.000Z</time>
      </trkpt>
      <trkpt lat="47.03959" lon="3.41803">
        <ele>259</ele>
        <time>2022-06-25T05:40:48.000Z</time>
      </trkpt>
      <trkpt lat="47.0394" lon="3.41824">
        <ele>257.79998779297</ele>
        <time>2022-06-25T05:40:53.000Z</time>
      </trkpt>
      <trkpt lat="47.03923" lon="3.41841">
        <ele>257.60000610352</ele>
        <time>2022-06-25T05:40:57.000Z</time>
      </trkpt>
      <trkpt lat="47.03915" lon="3.41851">
        <ele>258</ele>
        <time>2022-06-25T05:40:59.000Z</time>
      </trkpt>
      <trkpt lat="47.03889" lon="3.41865">
        <ele>258.60000610352</ele>
        <time>2022-06-25T05:41:04.000Z</time>
      </trkpt>
      <trkpt lat="47.03884" lon="3.41866">
        <ele>258.79998779297</ele>
        <time>2022-06-25T05:41:05.000Z</time>
      </trkpt>
      <trkpt lat="47.03855" lon="3.41867">
        <ele>259.79998779297</ele>
        <time>2022-06-25T05:41:11.000Z</time>
      </trkpt>
      <trkpt lat="47.0384" lon="3.41865">
        <ele>260.20001220703</ele>
        <time>2022-06-25T05:41:14.000Z</time>
      </trkpt>
      <trkpt lat="47.03826" lon="3.41863">
        <ele>260.79998779297</ele>
        <time>2022-06-25T05:41:17.000Z</time>
      </trkpt>
      <trkpt lat="47.03822" lon="3.41864">
        <ele>261</ele>
        <time>2022-06-25T05:41:18.000Z</time>
      </trkpt>
      <trkpt lat="47.03818" lon="3.41867">
        <ele>261.20001220703</ele>
        <time>2022-06-25T05:41:19.000Z</time>
      </trkpt>
      <trkpt lat="47.03815" lon="3.41872">
        <ele>261.20001220703</ele>
        <time>2022-06-25T05:41:20.000Z</time>
      </trkpt>
      <trkpt lat="47.03812" lon="3.41885">
        <ele>261.39999389648</ele>
        <time>2022-06-25T05:41:22.000Z</time>
      </trkpt>
      <trkpt lat="47.03807" lon="3.419">
        <ele>261.39999389648</ele>
        <time>2022-06-25T05:41:25.000Z</time>
      </trkpt>
      <trkpt lat="47.03804" lon="3.41905">
        <ele>262</ele>
        <time>2022-06-25T05:41:26.000Z</time>
      </trkpt>
      <trkpt lat="47.03802" lon="3.4191">
        <ele>262.60000610352</ele>
        <time>2022-06-25T05:41:27.000Z</time>
      </trkpt>
      <trkpt lat="47.03797" lon="3.41925">
        <ele>264</ele>
        <time>2022-06-25T05:41:30.000Z</time>
      </trkpt>
      <trkpt lat="47.03789" lon="3.41943">
        <ele>265.39999389648</ele>
        <time>2022-06-25T05:41:34.000Z</time>
      </trkpt>
      <trkpt lat="47.03787" lon="3.41947">
        <ele>265.79998779297</ele>
        <time>2022-06-25T05:41:35.000Z</time>
      </trkpt>
      <trkpt lat="47.03782" lon="3.41956">
        <ele>266.79998779297</ele>
        <time>2022-06-25T05:41:37.000Z</time>
      </trkpt>
      <trkpt lat="47.03766" lon="3.4197">
        <ele>269</ele>
        <time>2022-06-25T05:41:42.000Z</time>
      </trkpt>
      <trkpt lat="47.03757" lon="3.41975">
        <ele>269.39999389648</ele>
        <time>2022-06-25T05:41:45.000Z</time>
      </trkpt>
      <trkpt lat="47.03748" lon="3.41979">
        <ele>270</ele>
        <time>2022-06-25T05:41:48.000Z</time>
      </trkpt>
      <trkpt lat="47.03745" lon="3.41981">
        <ele>270</ele>
        <time>2022-06-25T05:41:49.000Z</time>
      </trkpt>
      <trkpt lat="47.03734" lon="3.41987">
        <ele>270.79998779297</ele>
        <time>2022-06-25T05:41:53.000Z</time>
      </trkpt>
      <trkpt lat="47.03726" lon="3.41992">
        <ele>271.20001220703</ele>
        <time>2022-06-25T05:41:56.000Z</time>
      </trkpt>
      <trkpt lat="47.03721" lon="3.41996">
        <ele>271.60000610352</ele>
        <time>2022-06-25T05:41:58.000Z</time>
      </trkpt>
      <trkpt lat="47.03709" lon="3.42002">
        <ele>272.39999389648</ele>
        <time>2022-06-25T05:42:02.000Z</time>
      </trkpt>
      <trkpt lat="47.03701" lon="3.42007">
        <ele>273.60000610352</ele>
        <time>2022-06-25T05:42:05.000Z</time>
      </trkpt>
      <trkpt lat="47.03691" lon="3.42012">
        <ele>274.79998779297</ele>
        <time>2022-06-25T05:42:09.000Z</time>
      </trkpt>
      <trkpt lat="47.03685" lon="3.42015">
        <ele>275.39999389648</ele>
        <time>2022-06-25T05:42:11.000Z</time>
      </trkpt>
      <trkpt lat="47.0368" lon="3.42019">
        <ele>275.79998779297</ele>
        <time>2022-06-25T05:42:13.000Z</time>
      </trkpt>
      <trkpt lat="47.0367" lon="3.42026">
        <ele>276.79998779297</ele>
        <time>2022-06-25T05:42:17.000Z</time>
      </trkpt>
      <trkpt lat="47.03663" lon="3.4203">
        <ele>277.60000610352</ele>
        <time>2022-06-25T05:42:20.000Z</time>
      </trkpt>
      <trkpt lat="47.03648" lon="3.42039">
        <ele>279</ele>
        <time>2022-06-25T05:42:25.000Z</time>
      </trkpt>
      <trkpt lat="47.03637" lon="3.42048">
        <ele>280</ele>
        <time>2022-06-25T05:42:29.000Z</time>
      </trkpt>
      <trkpt lat="47.03635" lon="3.4205">
        <ele>280.20001220703</ele>
        <time>2022-06-25T05:42:30.000Z</time>
      </trkpt>
      <trkpt lat="47.03621" lon="3.4206">
        <ele>281.79998779297</ele>
        <time>2022-06-25T05:42:35.000Z</time>
      </trkpt>
      <trkpt lat="47.03618" lon="3.42062">
        <ele>282.20001220703</ele>
        <time>2022-06-25T05:42:36.000Z</time>
      </trkpt>
      <trkpt lat="47.03614" lon="3.42068">
        <ele>282.79998779297</ele>
        <time>2022-06-25T05:42:38.000Z</time>
      </trkpt>
      <trkpt lat="47.03613" lon="3.42072">
        <ele>283</ele>
        <time>2022-06-25T05:42:39.000Z</time>
      </trkpt>
      <trkpt lat="47.03617" lon="3.42094">
        <ele>283.39999389648</ele>
        <time>2022-06-25T05:42:44.000Z</time>
      </trkpt>
      <trkpt lat="47.0362" lon="3.42116">
        <ele>284.20001220703</ele>
        <time>2022-06-25T05:42:49.000Z</time>
      </trkpt>
      <trkpt lat="47.03621" lon="3.42131">
        <ele>285.20001220703</ele>
        <time>2022-06-25T05:42:52.000Z</time>
      </trkpt>
      <trkpt lat="47.03621" lon="3.42136">
        <ele>285.60000610352</ele>
        <time>2022-06-25T05:42:53.000Z</time>
      </trkpt>
      <trkpt lat="47.0362" lon="3.42167">
        <ele>287</ele>
        <time>2022-06-25T05:42:59.000Z</time>
      </trkpt>
      <trkpt lat="47.0362" lon="3.42172">
        <ele>287.39999389648</ele>
        <time>2022-06-25T05:43:00.000Z</time>
      </trkpt>
      <trkpt lat="47.03619" lon="3.42199">
        <ele>288.79998779297</ele>
        <time>2022-06-25T05:43:05.000Z</time>
      </trkpt>
      <trkpt lat="47.03618" lon="3.42205">
        <ele>288.79998779297</ele>
        <time>2022-06-25T05:43:06.000Z</time>
      </trkpt>
      <trkpt lat="47.03619" lon="3.42239">
        <ele>289</ele>
        <time>2022-06-25T05:43:12.000Z</time>
      </trkpt>
      <trkpt lat="47.03619" lon="3.42251">
        <ele>288.60000610352</ele>
        <time>2022-06-25T05:43:14.000Z</time>
      </trkpt>
      <trkpt lat="47.03621" lon="3.42297">
        <ele>287.60000610352</ele>
        <time>2022-06-25T05:43:21.000Z</time>
      </trkpt>
      <trkpt lat="47.03618" lon="3.42346">
        <ele>288.79998779297</ele>
        <time>2022-06-25T05:43:28.000Z</time>
      </trkpt>
      <trkpt lat="47.03611" lon="3.42378">
        <ele>288.60000610352</ele>
        <time>2022-06-25T05:43:33.000Z</time>
      </trkpt>
      <trkpt lat="47.03605" lon="3.42396">
        <ele>289.20001220703</ele>
        <time>2022-06-25T05:43:36.000Z</time>
      </trkpt>
      <trkpt lat="47.03584" lon="3.42447">
        <ele>289.79998779297</ele>
        <time>2022-06-25T05:43:44.000Z</time>
      </trkpt>
      <trkpt lat="47.0358" lon="3.42453">
        <ele>289.79998779297</ele>
        <time>2022-06-25T05:43:45.000Z</time>
      </trkpt>
      <trkpt lat="47.03561" lon="3.42485">
        <ele>289.79998779297</ele>
        <time>2022-06-25T05:43:51.000Z</time>
      </trkpt>
      <trkpt lat="47.03525" lon="3.42541">
        <ele>288</ele>
        <time>2022-06-25T05:43:58.000Z</time>
      </trkpt>
      <trkpt lat="47.03505" lon="3.42563">
        <ele>288.79998779297</ele>
        <time>2022-06-25T05:44:02.000Z</time>
      </trkpt>
      <trkpt lat="47.0349" lon="3.42577">
        <ele>289</ele>
        <time>2022-06-25T05:44:05.000Z</time>
      </trkpt>
      <trkpt lat="47.03466" lon="3.42601">
        <ele>289.39999389648</ele>
        <time>2022-06-25T05:44:12.000Z</time>
      </trkpt>
      <trkpt lat="47.03448" lon="3.42616">
        <ele>290</ele>
        <time>2022-06-25T05:44:16.000Z</time>
      </trkpt>
      <trkpt lat="47.03435" lon="3.4263">
        <ele>290.79998779297</ele>
        <time>2022-06-25T05:44:20.000Z</time>
      </trkpt>
      <trkpt lat="47.03435" lon="3.4263">
        <ele>290.79998779297</ele>
        <time>2022-06-25T05:44:21.000Z</time>
      </trkpt>
      <trkpt lat="47.03413" lon="3.42651">
        <ele>293.20001220703</ele>
        <time>2022-06-25T05:44:26.000Z</time>
      </trkpt>
      <trkpt lat="47.03398" lon="3.4267">
        <ele>294.39999389648</ele>
        <time>2022-06-25T05:44:31.000Z</time>
      </trkpt>
      <trkpt lat="47.03384" lon="3.42687">
        <ele>295.39999389648</ele>
        <time>2022-06-25T05:44:36.000Z</time>
      </trkpt>
      <trkpt lat="47.03369" lon="3.42708">
        <ele>296.60000610352</ele>
        <time>2022-06-25T05:44:41.000Z</time>
      </trkpt>
      <trkpt lat="47.03363" lon="3.42716">
        <ele>297</ele>
        <time>2022-06-25T05:44:43.000Z</time>
      </trkpt>
      <trkpt lat="47.03343" lon="3.42743">
        <ele>297.60000610352</ele>
        <time>2022-06-25T05:44:49.000Z</time>
      </trkpt>
      <trkpt lat="47.03317" lon="3.42784">
        <ele>298</ele>
        <time>2022-06-25T05:44:58.000Z</time>
      </trkpt>
      <trkpt lat="47.03297" lon="3.42819">
        <ele>298.60000610352</ele>
        <time>2022-06-25T05:45:05.000Z</time>
      </trkpt>
      <trkpt lat="47.03294" lon="3.42824">
        <ele>298.79998779297</ele>
        <time>2022-06-25T05:45:06.000Z</time>
      </trkpt>
      <trkpt lat="47.03278" lon="3.42853">
        <ele>300.39999389648</ele>
        <time>2022-06-25T05:45:13.000Z</time>
      </trkpt>
      <trkpt lat="47.03269" lon="3.42868">
        <ele>301.60000610352</ele>
        <time>2022-06-25T05:45:17.000Z</time>
      </trkpt>
      <trkpt lat="47.03258" lon="3.42888">
        <ele>302.79998779297</ele>
        <time>2022-06-25T05:45:22.000Z</time>
      </trkpt>
      <trkpt lat="47.03256" lon="3.42892">
        <ele>303.20001220703</ele>
        <time>2022-06-25T05:45:23.000Z</time>
      </trkpt>
      <trkpt lat="47.03249" lon="3.42904">
        <ele>304.39999389648</ele>
        <time>2022-06-25T05:45:26.000Z</time>
      </trkpt>
      <trkpt lat="47.03242" lon="3.42916">
        <ele>306.39999389648</ele>
        <time>2022-06-25T05:45:29.000Z</time>
      </trkpt>
      <trkpt lat="47.03234" lon="3.42927">
        <ele>308</ele>
        <time>2022-06-25T05:45:32.000Z</time>
      </trkpt>
      <trkpt lat="47.03232" lon="3.42931">
        <ele>308.39999389648</ele>
        <time>2022-06-25T05:45:33.000Z</time>
      </trkpt>
      <trkpt lat="47.03225" lon="3.42945">
        <ele>309.60000610352</ele>
        <time>2022-06-25T05:45:36.000Z</time>
      </trkpt>
      <trkpt lat="47.03219" lon="3.42957">
        <ele>310.60000610352</ele>
        <time>2022-06-25T05:45:39.000Z</time>
      </trkpt>
      <trkpt lat="47.03217" lon="3.42961">
        <ele>311</ele>
        <time>2022-06-25T05:45:40.000Z</time>
      </trkpt>
      <trkpt lat="47.032" lon="3.42993">
        <ele>312.60000610352</ele>
        <time>2022-06-25T05:45:47.000Z</time>
      </trkpt>
      <trkpt lat="47.03198" lon="3.42998">
        <ele>312.60000610352</ele>
        <time>2022-06-25T05:45:48.000Z</time>
      </trkpt>
      <trkpt lat="47.0318" lon="3.43038">
        <ele>312.39999389648</ele>
        <time>2022-06-25T05:45:55.000Z</time>
      </trkpt>
      <trkpt lat="47.03164" lon="3.43062">
        <ele>312</ele>
        <time>2022-06-25T05:45:59.000Z</time>
      </trkpt>
      <trkpt lat="47.03127" lon="3.43102">
        <ele>312</ele>
        <time>2022-06-25T05:46:07.000Z</time>
      </trkpt>
      <trkpt lat="47.03106" lon="3.43119">
        <ele>314.20001220703</ele>
        <time>2022-06-25T05:46:12.000Z</time>
      </trkpt>
      <trkpt lat="47.03093" lon="3.43129">
        <ele>315</ele>
        <time>2022-06-25T05:46:15.000Z</time>
      </trkpt>
      <trkpt lat="47.03083" lon="3.43138">
        <ele>315.60000610352</ele>
        <time>2022-06-25T05:46:17.000Z</time>
      </trkpt>
      <trkpt lat="47.0308" lon="3.43141">
        <ele>315.60000610352</ele>
        <time>2022-06-25T05:46:18.000Z</time>
      </trkpt>
      <trkpt lat="47.03058" lon="3.43169">
        <ele>314.39999389648</ele>
        <time>2022-06-25T05:46:23.000Z</time>
      </trkpt>
      <trkpt lat="47.03049" lon="3.43181">
        <ele>313.20001220703</ele>
        <time>2022-06-25T05:46:25.000Z</time>
      </trkpt>
      <trkpt lat="47.03036" lon="3.43199">
        <ele>312.20001220703</ele>
        <time>2022-06-25T05:46:28.000Z</time>
      </trkpt>
      <trkpt lat="47.03028" lon="3.43212">
        <ele>312.20001220703</ele>
        <time>2022-06-25T05:46:30.000Z</time>
      </trkpt>
      <trkpt lat="47.0301" lon="3.43244">
        <ele>311.60000610352</ele>
        <time>2022-06-25T05:46:35.000Z</time>
      </trkpt>
      <trkpt lat="47.03004" lon="3.4326">
        <ele>311.79998779297</ele>
        <time>2022-06-25T05:46:37.000Z</time>
      </trkpt>
      <trkpt lat="47.02997" lon="3.43292">
        <ele>311.79998779297</ele>
        <time>2022-06-25T05:46:41.000Z</time>
      </trkpt>
      <trkpt lat="47.02987" lon="3.43353">
        <ele>310.20001220703</ele>
        <time>2022-06-25T05:46:48.000Z</time>
      </trkpt>
      <trkpt lat="47.02985" lon="3.43371">
        <ele>309.20001220703</ele>
        <time>2022-06-25T05:46:50.000Z</time>
      </trkpt>
      <trkpt lat="47.02986" lon="3.4339">
        <ele>308</ele>
        <time>2022-06-25T05:46:52.000Z</time>
      </trkpt>
      <trkpt lat="47.02996" lon="3.43437">
        <ele>306.60000610352</ele>
        <time>2022-06-25T05:46:57.000Z</time>
      </trkpt>
      <trkpt lat="47.03012" lon="3.43477">
        <ele>306.39999389648</ele>
        <time>2022-06-25T05:47:02.000Z</time>
      </trkpt>
      <trkpt lat="47.03016" lon="3.43484">
        <ele>306.39999389648</ele>
        <time>2022-06-25T05:47:03.000Z</time>
      </trkpt>
      <trkpt lat="47.03043" lon="3.43527">
        <ele>308</ele>
        <time>2022-06-25T05:47:10.000Z</time>
      </trkpt>
      <trkpt lat="47.03053" lon="3.43544">
        <ele>308.20001220703</ele>
        <time>2022-06-25T05:47:13.000Z</time>
      </trkpt>
      <trkpt lat="47.03064" lon="3.43559">
        <ele>308.60000610352</ele>
        <time>2022-06-25T05:47:16.000Z</time>
      </trkpt>
      <trkpt lat="47.03071" lon="3.4357">
        <ele>309.20001220703</ele>
        <time>2022-06-25T05:47:18.000Z</time>
      </trkpt>
      <trkpt lat="47.0308" lon="3.43587">
        <ele>310.39999389648</ele>
        <time>2022-06-25T05:47:21.000Z</time>
      </trkpt>
      <trkpt lat="47.03086" lon="3.43599">
        <ele>311.20001220703</ele>
        <time>2022-06-25T05:47:23.000Z</time>
      </trkpt>
      <trkpt lat="47.03088" lon="3.43605">
        <ele>311.39999389648</ele>
        <time>2022-06-25T05:47:24.000Z</time>
      </trkpt>
      <trkpt lat="47.0309" lon="3.43612">
        <ele>311.79998779297</ele>
        <time>2022-06-25T05:47:25.000Z</time>
      </trkpt>
      <trkpt lat="47.03094" lon="3.43625">
        <ele>313</ele>
        <time>2022-06-25T05:47:27.000Z</time>
      </trkpt>
      <trkpt lat="47.03095" lon="3.43632">
        <ele>313.39999389648</ele>
        <time>2022-06-25T05:47:28.000Z</time>
      </trkpt>
      <trkpt lat="47.03096" lon="3.43647">
        <ele>314.60000610352</ele>
        <time>2022-06-25T05:47:30.000Z</time>
      </trkpt>
      <trkpt lat="47.03097" lon="3.43675">
        <ele>316.39999389648</ele>
        <time>2022-06-25T05:47:34.000Z</time>
      </trkpt>
      <trkpt lat="47.03097" lon="3.43682">
        <ele>316.60000610352</ele>
        <time>2022-06-25T05:47:35.000Z</time>
      </trkpt>
      <trkpt lat="47.03096" lon="3.43695">
        <ele>317</ele>
        <time>2022-06-25T05:47:37.000Z</time>
      </trkpt>
      <trkpt lat="47.03094" lon="3.43722">
        <ele>316.79998779297</ele>
        <time>2022-06-25T05:47:41.000Z</time>
      </trkpt>
      <trkpt lat="47.03094" lon="3.43744">
        <ele>316.79998779297</ele>
        <time>2022-06-25T05:47:44.000Z</time>
      </trkpt>
      <trkpt lat="47.03093" lon="3.43752">
        <ele>316.79998779297</ele>
        <time>2022-06-25T05:47:45.000Z</time>
      </trkpt>
      <trkpt lat="47.03092" lon="3.43803">
        <ele>316.60000610352</ele>
        <time>2022-06-25T05:47:52.000Z</time>
      </trkpt>
      <trkpt lat="47.03091" lon="3.43826">
        <ele>316.60000610352</ele>
        <time>2022-06-25T05:47:55.000Z</time>
      </trkpt>
      <trkpt lat="47.03089" lon="3.43893">
        <ele>318.79998779297</ele>
        <time>2022-06-25T05:48:04.000Z</time>
      </trkpt>
      <trkpt lat="47.03087" lon="3.43916">
        <ele>319.39999389648</ele>
        <time>2022-06-25T05:48:07.000Z</time>
      </trkpt>
      <trkpt lat="47.0308" lon="3.43948">
        <ele>319.20001220703</ele>
        <time>2022-06-25T05:48:11.000Z</time>
      </trkpt>
      <trkpt lat="47.0306" lon="3.43999">
        <ele>317.60000610352</ele>
        <time>2022-06-25T05:48:17.000Z</time>
      </trkpt>
      <trkpt lat="47.03051" lon="3.44019">
        <ele>315.60000610352</ele>
        <time>2022-06-25T05:48:19.000Z</time>
      </trkpt>
      <trkpt lat="47.03035" lon="3.44052">
        <ele>313</ele>
        <time>2022-06-25T05:48:22.000Z</time>
      </trkpt>
      <trkpt lat="47.0303" lon="3.44064">
        <ele>312.60000610352</ele>
        <time>2022-06-25T05:48:23.000Z</time>
      </trkpt>
      <trkpt lat="47.03019" lon="3.44087">
        <ele>311.20001220703</ele>
        <time>2022-06-25T05:48:25.000Z</time>
      </trkpt>
      <trkpt lat="47.03009" lon="3.44113">
        <ele>308.79998779297</ele>
        <time>2022-06-25T05:48:27.000Z</time>
      </trkpt>
      <trkpt lat="47.03005" lon="3.44126">
        <ele>307.79998779297</ele>
        <time>2022-06-25T05:48:28.000Z</time>
      </trkpt>
      <trkpt lat="47.03002" lon="3.44139">
        <ele>306.79998779297</ele>
        <time>2022-06-25T05:48:29.000Z</time>
      </trkpt>
      <trkpt lat="47.03" lon="3.44153">
        <ele>306.39999389648</ele>
        <time>2022-06-25T05:48:30.000Z</time>
      </trkpt>
      <trkpt lat="47.02997" lon="3.44184">
        <ele>306.20001220703</ele>
        <time>2022-06-25T05:48:32.000Z</time>
      </trkpt>
      <trkpt lat="47.02997" lon="3.44198">
        <ele>306</ele>
        <time>2022-06-25T05:48:33.000Z</time>
      </trkpt>
      <trkpt lat="47.02993" lon="3.44225">
        <ele>305.60000610352</ele>
        <time>2022-06-25T05:48:35.000Z</time>
      </trkpt>
      <trkpt lat="47.02989" lon="3.44236">
        <ele>305.20001220703</ele>
        <time>2022-06-25T05:48:36.000Z</time>
      </trkpt>
      <trkpt lat="47.02984" lon="3.44245">
        <ele>304.79998779297</ele>
        <time>2022-06-25T05:48:37.000Z</time>
      </trkpt>
      <trkpt lat="47.02978" lon="3.4425">
        <ele>305</ele>
        <time>2022-06-25T05:48:38.000Z</time>
      </trkpt>
      <trkpt lat="47.02971" lon="3.44253">
        <ele>305</ele>
        <time>2022-06-25T05:48:39.000Z</time>
      </trkpt>
      <trkpt lat="47.02964" lon="3.44252">
        <ele>305</ele>
        <time>2022-06-25T05:48:40.000Z</time>
      </trkpt>
      <trkpt lat="47.02937" lon="3.44242">
        <ele>305.39999389648</ele>
        <time>2022-06-25T05:48:44.000Z</time>
      </trkpt>
      <trkpt lat="47.02931" lon="3.44238">
        <ele>305.20001220703</ele>
        <time>2022-06-25T05:48:45.000Z</time>
      </trkpt>
      <trkpt lat="47.02883" lon="3.44196">
        <ele>302.39999389648</ele>
        <time>2022-06-25T05:48:53.000Z</time>
      </trkpt>
      <trkpt lat="47.02848" lon="3.44174">
        <ele>299</ele>
        <time>2022-06-25T05:48:58.000Z</time>
      </trkpt>
      <trkpt lat="47.02794" lon="3.44148">
        <ele>298.39999389648</ele>
        <time>2022-06-25T05:49:06.000Z</time>
      </trkpt>
      <trkpt lat="47.02755" lon="3.44137">
        <ele>298</ele>
        <time>2022-06-25T05:49:12.000Z</time>
      </trkpt>
      <trkpt lat="47.02719" lon="3.44141">
        <ele>298.39999389648</ele>
        <time>2022-06-25T05:49:18.000Z</time>
      </trkpt>
      <trkpt lat="47.02673" lon="3.44151">
        <ele>298.20001220703</ele>
        <time>2022-06-25T05:49:25.000Z</time>
      </trkpt>
      <trkpt lat="47.0263" lon="3.4416">
        <ele>297.60000610352</ele>
        <time>2022-06-25T05:49:32.000Z</time>
      </trkpt>
      <trkpt lat="47.02597" lon="3.44167">
        <ele>296.20001220703</ele>
        <time>2022-06-25T05:49:37.000Z</time>
      </trkpt>
      <trkpt lat="47.02584" lon="3.44175">
        <ele>297</ele>
        <time>2022-06-25T05:49:39.000Z</time>
      </trkpt>
      <trkpt lat="47.02566" lon="3.44201">
        <ele>298.20001220703</ele>
        <time>2022-06-25T05:49:43.000Z</time>
      </trkpt>
      <trkpt lat="47.02548" lon="3.44244">
        <ele>300.39999389648</ele>
        <time>2022-06-25T05:49:49.000Z</time>
      </trkpt>
      <trkpt lat="47.02534" lon="3.44283">
        <ele>303.79998779297</ele>
        <time>2022-06-25T05:49:55.000Z</time>
      </trkpt>
      <trkpt lat="47.0253" lon="3.44296">
        <ele>304.79998779297</ele>
        <time>2022-06-25T05:49:57.000Z</time>
      </trkpt>
      <trkpt lat="47.02513" lon="3.44336">
        <ele>306.20001220703</ele>
        <time>2022-06-25T05:50:03.000Z</time>
      </trkpt>
      <trkpt lat="47.02495" lon="3.44368">
        <ele>305.60000610352</ele>
        <time>2022-06-25T05:50:08.000Z</time>
      </trkpt>
      <trkpt lat="47.02491" lon="3.44372">
        <ele>305.60000610352</ele>
        <time>2022-06-25T05:50:09.000Z</time>
      </trkpt>
      <trkpt lat="47.02463" lon="3.44389">
        <ele>305.39999389648</ele>
        <time>2022-06-25T05:50:15.000Z</time>
      </trkpt>
      <trkpt lat="47.02438" lon="3.44401">
        <ele>305.20001220703</ele>
        <time>2022-06-25T05:50:21.000Z</time>
      </trkpt>
      <trkpt lat="47.02424" lon="3.44408">
        <ele>306.20001220703</ele>
        <time>2022-06-25T05:50:25.000Z</time>
      </trkpt>
      <trkpt lat="47.02413" lon="3.44415">
        <ele>307.60000610352</ele>
        <time>2022-06-25T05:50:28.000Z</time>
      </trkpt>
      <trkpt lat="47.0241" lon="3.44417">
        <ele>308</ele>
        <time>2022-06-25T05:50:29.000Z</time>
      </trkpt>
      <trkpt lat="47.02397" lon="3.44426">
        <ele>309.79998779297</ele>
        <time>2022-06-25T05:50:33.000Z</time>
      </trkpt>
      <trkpt lat="47.02386" lon="3.44432">
        <ele>310.60000610352</ele>
        <time>2022-06-25T05:50:36.000Z</time>
      </trkpt>
      <trkpt lat="47.02382" lon="3.44434">
        <ele>310.60000610352</ele>
        <time>2022-06-25T05:50:37.000Z</time>
      </trkpt>
      <trkpt lat="47.02368" lon="3.44445">
        <ele>310.60000610352</ele>
        <time>2022-06-25T05:50:41.000Z</time>
      </trkpt>
      <trkpt lat="47.02356" lon="3.44454">
        <ele>310.39999389648</ele>
        <time>2022-06-25T05:50:44.000Z</time>
      </trkpt>
      <trkpt lat="47.02338" lon="3.44469">
        <ele>310.20001220703</ele>
        <time>2022-06-25T05:50:49.000Z</time>
      </trkpt>
      <trkpt lat="47.02327" lon="3.44479">
        <ele>310.20001220703</ele>
        <time>2022-06-25T05:50:52.000Z</time>
      </trkpt>
      <trkpt lat="47.02303" lon="3.44507">
        <ele>311</ele>
        <time>2022-06-25T05:50:59.000Z</time>
      </trkpt>
      <trkpt lat="47.02295" lon="3.44517">
        <ele>311.39999389648</ele>
        <time>2022-06-25T05:51:01.000Z</time>
      </trkpt>
      <trkpt lat="47.02264" lon="3.44563">
        <ele>310.20001220703</ele>
        <time>2022-06-25T05:51:09.000Z</time>
      </trkpt>
      <trkpt lat="47.0226" lon="3.44568">
        <ele>310.20001220703</ele>
        <time>2022-06-25T05:51:10.000Z</time>
      </trkpt>
      <trkpt lat="47.02238" lon="3.44599">
        <ele>311.39999389648</ele>
        <time>2022-06-25T05:51:16.000Z</time>
      </trkpt>
      <trkpt lat="47.02225" lon="3.44616">
        <ele>312.79998779297</ele>
        <time>2022-06-25T05:51:20.000Z</time>
      </trkpt>
      <trkpt lat="47.0222" lon="3.44624">
        <ele>313.39999389648</ele>
        <time>2022-06-25T05:51:22.000Z</time>
      </trkpt>
      <trkpt lat="47.02207" lon="3.44642">
        <ele>314.20001220703</ele>
        <time>2022-06-25T05:51:27.000Z</time>
      </trkpt>
      <trkpt lat="47.02201" lon="3.44649">
        <ele>314.60000610352</ele>
        <time>2022-06-25T05:51:29.000Z</time>
      </trkpt>
      <trkpt lat="47.02196" lon="3.44656">
        <ele>314.79998779297</ele>
        <time>2022-06-25T05:51:31.000Z</time>
      </trkpt>
      <trkpt lat="47.02186" lon="3.44672">
        <ele>315.60000610352</ele>
        <time>2022-06-25T05:51:35.000Z</time>
      </trkpt>
      <trkpt lat="47.02169" lon="3.44692">
        <ele>316.60000610352</ele>
        <time>2022-06-25T05:51:40.000Z</time>
      </trkpt>
      <trkpt lat="47.02162" lon="3.44699">
        <ele>316.79998779297</ele>
        <time>2022-06-25T05:51:42.000Z</time>
      </trkpt>
      <trkpt lat="47.02154" lon="3.44703">
        <ele>316.79998779297</ele>
        <time>2022-06-25T05:51:44.000Z</time>
      </trkpt>
      <trkpt lat="47.0214" lon="3.44706">
        <ele>317</ele>
        <time>2022-06-25T05:51:47.000Z</time>
      </trkpt>
      <trkpt lat="47.02129" lon="3.44706">
        <ele>316.20001220703</ele>
        <time>2022-06-25T05:51:49.000Z</time>
      </trkpt>
      <trkpt lat="47.0211" lon="3.44701">
        <ele>314.79998779297</ele>
        <time>2022-06-25T05:51:52.000Z</time>
      </trkpt>
      <trkpt lat="47.02075" lon="3.44689">
        <ele>312.39999389648</ele>
        <time>2022-06-25T05:51:58.000Z</time>
      </trkpt>
      <trkpt lat="47.02062" lon="3.44684">
        <ele>311.79998779297</ele>
        <time>2022-06-25T05:52:00.000Z</time>
      </trkpt>
      <trkpt lat="47.02026" lon="3.44672">
        <ele>309.79998779297</ele>
        <time>2022-06-25T05:52:06.000Z</time>
      </trkpt>
      <trkpt lat="47.0202" lon="3.4467">
        <ele>309.39999389648</ele>
        <time>2022-06-25T05:52:07.000Z</time>
      </trkpt>
      <trkpt lat="47.01996" lon="3.44661">
        <ele>308.20001220703</ele>
        <time>2022-06-25T05:52:11.000Z</time>
      </trkpt>
      <trkpt lat="47.01959" lon="3.44648">
        <ele>308</ele>
        <time>2022-06-25T05:52:17.000Z</time>
      </trkpt>
      <trkpt lat="47.0191" lon="3.44633">
        <ele>309.79998779297</ele>
        <time>2022-06-25T05:52:25.000Z</time>
      </trkpt>
      <trkpt lat="47.01904" lon="3.44633">
        <ele>310</ele>
        <time>2022-06-25T05:52:26.000Z</time>
      </trkpt>
      <trkpt lat="47.01892" lon="3.44635">
        <ele>310</ele>
        <time>2022-06-25T05:52:28.000Z</time>
      </trkpt>
      <trkpt lat="47.01886" lon="3.44639">
        <ele>309.79998779297</ele>
        <time>2022-06-25T05:52:29.000Z</time>
      </trkpt>
      <trkpt lat="47.0188" lon="3.44643">
        <ele>309.60000610352</ele>
        <time>2022-06-25T05:52:30.000Z</time>
      </trkpt>
      <trkpt lat="47.01866" lon="3.44663">
        <ele>308</ele>
        <time>2022-06-25T05:52:33.000Z</time>
      </trkpt>
      <trkpt lat="47.01847" lon="3.44698">
        <ele>305.39999389648</ele>
        <time>2022-06-25T05:52:37.000Z</time>
      </trkpt>
      <trkpt lat="47.01842" lon="3.44707">
        <ele>304.39999389648</ele>
        <time>2022-06-25T05:52:38.000Z</time>
      </trkpt>
      <trkpt lat="47.01832" lon="3.44729">
        <ele>303</ele>
        <time>2022-06-25T05:52:40.000Z</time>
      </trkpt>
      <trkpt lat="47.01817" lon="3.44765">
        <ele>300</ele>
        <time>2022-06-25T05:52:43.000Z</time>
      </trkpt>
      <trkpt lat="47.01812" lon="3.44778">
        <ele>299.20001220703</ele>
        <time>2022-06-25T05:52:44.000Z</time>
      </trkpt>
      <trkpt lat="47.01803" lon="3.44805">
        <ele>297.60000610352</ele>
        <time>2022-06-25T05:52:46.000Z</time>
      </trkpt>
      <trkpt lat="47.01795" lon="3.44834">
        <ele>296.79998779297</ele>
        <time>2022-06-25T05:52:48.000Z</time>
      </trkpt>
      <trkpt lat="47.01791" lon="3.44849">
        <ele>296.39999389648</ele>
        <time>2022-06-25T05:52:49.000Z</time>
      </trkpt>
      <trkpt lat="47.01787" lon="3.44863">
        <ele>295.79998779297</ele>
        <time>2022-06-25T05:52:50.000Z</time>
      </trkpt>
      <trkpt lat="47.01779" lon="3.44894">
        <ele>293.20001220703</ele>
        <time>2022-06-25T05:52:52.000Z</time>
      </trkpt>
      <trkpt lat="47.01771" lon="3.44924">
        <ele>292</ele>
        <time>2022-06-25T05:52:54.000Z</time>
      </trkpt>
      <trkpt lat="47.01763" lon="3.44953">
        <ele>291.39999389648</ele>
        <time>2022-06-25T05:52:56.000Z</time>
      </trkpt>
      <trkpt lat="47.0176" lon="3.44967">
        <ele>291.60000610352</ele>
        <time>2022-06-25T05:52:57.000Z</time>
      </trkpt>
      <trkpt lat="47.01756" lon="3.4498">
        <ele>291.60000610352</ele>
        <time>2022-06-25T05:52:58.000Z</time>
      </trkpt>
      <trkpt lat="47.01745" lon="3.45018">
        <ele>291.20001220703</ele>
        <time>2022-06-25T05:53:01.000Z</time>
      </trkpt>
      <trkpt lat="47.01742" lon="3.45027">
        <ele>291.20001220703</ele>
        <time>2022-06-25T05:53:02.000Z</time>
      </trkpt>
      <trkpt lat="47.01728" lon="3.4508">
        <ele>291.60000610352</ele>
        <time>2022-06-25T05:53:07.000Z</time>
      </trkpt>
      <trkpt lat="47.01724" lon="3.45092">
        <ele>291.60000610352</ele>
        <time>2022-06-25T05:53:08.000Z</time>
      </trkpt>
      <trkpt lat="47.01707" lon="3.45145">
        <ele>292</ele>
        <time>2022-06-25T05:53:14.000Z</time>
      </trkpt>
      <trkpt lat="47.01689" lon="3.45189">
        <ele>291.79998779297</ele>
        <time>2022-06-25T05:53:20.000Z</time>
      </trkpt>
      <trkpt lat="47.01685" lon="3.45194">
        <ele>292</ele>
        <time>2022-06-25T05:53:21.000Z</time>
      </trkpt>
      <trkpt lat="47.01676" lon="3.45204">
        <ele>292.20001220703</ele>
        <time>2022-06-25T05:53:23.000Z</time>
      </trkpt>
      <trkpt lat="47.01671" lon="3.45207">
        <ele>292.20001220703</ele>
        <time>2022-06-25T05:53:24.000Z</time>
      </trkpt>
      <trkpt lat="47.0166" lon="3.45213">
        <ele>292</ele>
        <time>2022-06-25T05:53:26.000Z</time>
      </trkpt>
      <trkpt lat="47.01636" lon="3.45221">
        <ele>291.39999389648</ele>
        <time>2022-06-25T05:53:30.000Z</time>
      </trkpt>
      <trkpt lat="47.016" lon="3.45229">
        <ele>289.39999389648</ele>
        <time>2022-06-25T05:53:35.000Z</time>
      </trkpt>
      <trkpt lat="47.01593" lon="3.45231">
        <ele>289.20001220703</ele>
        <time>2022-06-25T05:53:36.000Z</time>
      </trkpt>
      <trkpt lat="47.01569" lon="3.45239">
        <ele>288</ele>
        <time>2022-06-25T05:53:39.000Z</time>
      </trkpt>
      <trkpt lat="47.01561" lon="3.45242">
        <ele>287.39999389648</ele>
        <time>2022-06-25T05:53:40.000Z</time>
      </trkpt>
      <trkpt lat="47.01554" lon="3.45247">
        <ele>287.39999389648</ele>
        <time>2022-06-25T05:53:41.000Z</time>
      </trkpt>
      <trkpt lat="47.01548" lon="3.45252">
        <ele>287.20001220703</ele>
        <time>2022-06-25T05:53:42.000Z</time>
      </trkpt>
      <trkpt lat="47.01529" lon="3.45266">
        <ele>286.60000610352</ele>
        <time>2022-06-25T05:53:45.000Z</time>
      </trkpt>
      <trkpt lat="47.01523" lon="3.45272">
        <ele>286.39999389648</ele>
        <time>2022-06-25T05:53:46.000Z</time>
      </trkpt>
      <trkpt lat="47.01517" lon="3.45277">
        <ele>286</ele>
        <time>2022-06-25T05:53:47.000Z</time>
      </trkpt>
      <trkpt lat="47.01496" lon="3.45301">
        <ele>286</ele>
        <time>2022-06-25T05:53:51.000Z</time>
      </trkpt>
      <trkpt lat="47.01491" lon="3.45307">
        <ele>286</ele>
        <time>2022-06-25T05:53:52.000Z</time>
      </trkpt>
      <trkpt lat="47.0146" lon="3.45342">
        <ele>287</ele>
        <time>2022-06-25T05:53:59.000Z</time>
      </trkpt>
      <trkpt lat="47.01456" lon="3.45346">
        <ele>287</ele>
        <time>2022-06-25T05:54:00.000Z</time>
      </trkpt>
      <trkpt lat="47.01434" lon="3.45363">
        <ele>288</ele>
        <time>2022-06-25T05:54:05.000Z</time>
      </trkpt>
      <trkpt lat="47.01429" lon="3.45366">
        <ele>288.20001220703</ele>
        <time>2022-06-25T05:54:06.000Z</time>
      </trkpt>
      <trkpt lat="47.01404" lon="3.45376">
        <ele>287.60000610352</ele>
        <time>2022-06-25T05:54:11.000Z</time>
      </trkpt>
      <trkpt lat="47.01388" lon="3.4538">
        <ele>287.20001220703</ele>
        <time>2022-06-25T05:54:14.000Z</time>
      </trkpt>
      <trkpt lat="47.01372" lon="3.45379">
        <ele>286.60000610352</ele>
        <time>2022-06-25T05:54:17.000Z</time>
      </trkpt>
      <trkpt lat="47.0136" lon="3.45379">
        <ele>286.20001220703</ele>
        <time>2022-06-25T05:54:19.000Z</time>
      </trkpt>
      <trkpt lat="47.01336" lon="3.45385">
        <ele>285.39999389648</ele>
        <time>2022-06-25T05:54:23.000Z</time>
      </trkpt>
      <trkpt lat="47.01312" lon="3.4539">
        <ele>284.79998779297</ele>
        <time>2022-06-25T05:54:27.000Z</time>
      </trkpt>
      <trkpt lat="47.01301" lon="3.45393">
        <ele>284.60000610352</ele>
        <time>2022-06-25T05:54:29.000Z</time>
      </trkpt>
      <trkpt lat="47.0125" lon="3.45404">
        <ele>284.60000610352</ele>
        <time>2022-06-25T05:54:38.000Z</time>
      </trkpt>
      <trkpt lat="47.01214" lon="3.45412">
        <ele>285.60000610352</ele>
        <time>2022-06-25T05:54:45.000Z</time>
      </trkpt>
      <trkpt lat="47.01196" lon="3.45414">
        <ele>286.39999389648</ele>
        <time>2022-06-25T05:54:50.000Z</time>
      </trkpt>
      <trkpt lat="47.01192" lon="3.45412">
        <ele>286.39999389648</ele>
        <time>2022-06-25T05:54:52.000Z</time>
      </trkpt>
      <trkpt lat="47.01187" lon="3.45415">
        <ele>286.79998779297</ele>
        <time>2022-06-25T05:54:54.000Z</time>
      </trkpt>
      <trkpt lat="47.01182" lon="3.45425">
        <ele>287.20001220703</ele>
        <time>2022-06-25T05:54:56.000Z</time>
      </trkpt>
      <trkpt lat="47.01182" lon="3.45432">
        <ele>287.60000610352</ele>
        <time>2022-06-25T05:54:57.000Z</time>
      </trkpt>
      <trkpt lat="47.01182" lon="3.45452">
        <ele>287.60000610352</ele>
        <time>2022-06-25T05:55:00.000Z</time>
      </trkpt>
      <trkpt lat="47.0118" lon="3.45469">
        <ele>287</ele>
        <time>2022-06-25T05:55:02.000Z</time>
      </trkpt>
      <trkpt lat="47.01174" lon="3.45545">
        <ele>287</ele>
        <time>2022-06-25T05:55:12.000Z</time>
      </trkpt>
      <trkpt lat="47.0117" lon="3.45584">
        <ele>288</ele>
        <time>2022-06-25T05:55:17.000Z</time>
      </trkpt>
      <trkpt lat="47.01167" lon="3.45624">
        <ele>287.60000610352</ele>
        <time>2022-06-25T05:55:22.000Z</time>
      </trkpt>
      <trkpt lat="47.01163" lon="3.45679">
        <ele>287</ele>
        <time>2022-06-25T05:55:29.000Z</time>
      </trkpt>
      <trkpt lat="47.01161" lon="3.45695">
        <ele>287</ele>
        <time>2022-06-25T05:55:31.000Z</time>
      </trkpt>
      <trkpt lat="47.01155" lon="3.45769">
        <ele>287</ele>
        <time>2022-06-25T05:55:40.000Z</time>
      </trkpt>
      <trkpt lat="47.01147" lon="3.45856">
        <ele>287.79998779297</ele>
        <time>2022-06-25T05:55:50.000Z</time>
      </trkpt>
      <trkpt lat="47.0114" lon="3.45922">
        <ele>287.79998779297</ele>
        <time>2022-06-25T05:55:57.000Z</time>
      </trkpt>
      <trkpt lat="47.01132" lon="3.46003">
        <ele>284</ele>
        <time>2022-06-25T05:56:05.000Z</time>
      </trkpt>
      <trkpt lat="47.0113" lon="3.46023">
        <ele>283.39999389648</ele>
        <time>2022-06-25T05:56:07.000Z</time>
      </trkpt>
      <trkpt lat="47.01125" lon="3.46077">
        <ele>282</ele>
        <time>2022-06-25T05:56:12.000Z</time>
      </trkpt>
      <trkpt lat="47.01122" lon="3.46111">
        <ele>281.79998779297</ele>
        <time>2022-06-25T05:56:15.000Z</time>
      </trkpt>
      <trkpt lat="47.01116" lon="3.46173">
        <ele>281.60000610352</ele>
        <time>2022-06-25T05:56:21.000Z</time>
      </trkpt>
      <trkpt lat="47.01113" lon="3.46205">
        <ele>281.20001220703</ele>
        <time>2022-06-25T05:56:24.000Z</time>
      </trkpt>
      <trkpt lat="47.01105" lon="3.46283">
        <ele>279.60000610352</ele>
        <time>2022-06-25T05:56:32.000Z</time>
      </trkpt>
      <trkpt lat="47.01104" lon="3.46294">
        <ele>279.20001220703</ele>
        <time>2022-06-25T05:56:33.000Z</time>
      </trkpt>
      <trkpt lat="47.01102" lon="3.46318">
        <ele>278.79998779297</ele>
        <time>2022-06-25T05:56:36.000Z</time>
      </trkpt>
      <trkpt lat="47.01098" lon="3.46359">
        <ele>280.79998779297</ele>
        <time>2022-06-25T05:56:41.000Z</time>
      </trkpt>
      <trkpt lat="47.01097" lon="3.46367">
        <ele>281.39999389648</ele>
        <time>2022-06-25T05:56:42.000Z</time>
      </trkpt>
      <trkpt lat="47.01092" lon="3.46422">
        <ele>286.60000610352</ele>
        <time>2022-06-25T05:56:49.000Z</time>
      </trkpt>
      <trkpt lat="47.01089" lon="3.46453">
        <ele>289</ele>
        <time>2022-06-25T05:56:53.000Z</time>
      </trkpt>
      <trkpt lat="47.01086" lon="3.46485">
        <ele>291.39999389648</ele>
        <time>2022-06-25T05:56:57.000Z</time>
      </trkpt>
      <trkpt lat="47.01081" lon="3.46534">
        <ele>292.39999389648</ele>
        <time>2022-06-25T05:57:03.000Z</time>
      </trkpt>
      <trkpt lat="47.01073" lon="3.4662">
        <ele>289.60000610352</ele>
        <time>2022-06-25T05:57:13.000Z</time>
      </trkpt>
      <trkpt lat="47.01064" lon="3.46706">
        <ele>285</ele>
        <time>2022-06-25T05:57:22.000Z</time>
      </trkpt>
      <trkpt lat="47.01059" lon="3.46757">
        <ele>283.79998779297</ele>
        <time>2022-06-25T05:57:27.000Z</time>
      </trkpt>
      <trkpt lat="47.01056" lon="3.46788">
        <ele>282.60000610352</ele>
        <time>2022-06-25T05:57:30.000Z</time>
      </trkpt>
      <trkpt lat="47.01051" lon="3.46838">
        <ele>282.60000610352</ele>
        <time>2022-06-25T05:57:35.000Z</time>
      </trkpt>
      <trkpt lat="47.01046" lon="3.46886">
        <ele>283.20001220703</ele>
        <time>2022-06-25T05:57:40.000Z</time>
      </trkpt>
      <trkpt lat="47.01038" lon="3.46971">
        <ele>283.79998779297</ele>
        <time>2022-06-25T05:57:49.000Z</time>
      </trkpt>
      <trkpt lat="47.0103" lon="3.47047">
        <ele>286.79998779297</ele>
        <time>2022-06-25T05:57:58.000Z</time>
      </trkpt>
      <trkpt lat="47.01023" lon="3.47113">
        <ele>286.60000610352</ele>
        <time>2022-06-25T05:58:06.000Z</time>
      </trkpt>
      <trkpt lat="47.01019" lon="3.47167">
        <ele>288.79998779297</ele>
        <time>2022-06-25T05:58:13.000Z</time>
      </trkpt>
      <trkpt lat="47.01018" lon="3.47174">
        <ele>289.20001220703</ele>
        <time>2022-06-25T05:58:14.000Z</time>
      </trkpt>
      <trkpt lat="47.01015" lon="3.47203">
        <ele>290.20001220703</ele>
        <time>2022-06-25T05:58:18.000Z</time>
      </trkpt>
      <trkpt lat="47.01012" lon="3.4723">
        <ele>291.39999389648</ele>
        <time>2022-06-25T05:58:22.000Z</time>
      </trkpt>
      <trkpt lat="47.01009" lon="3.47264">
        <ele>292.79998779297</ele>
        <time>2022-06-25T05:58:27.000Z</time>
      </trkpt>
      <trkpt lat="47.01009" lon="3.47278">
        <ele>293</ele>
        <time>2022-06-25T05:58:29.000Z</time>
      </trkpt>
      <trkpt lat="47.01008" lon="3.47285">
        <ele>293</ele>
        <time>2022-06-25T05:58:30.000Z</time>
      </trkpt>
      <trkpt lat="47.01007" lon="3.473">
        <ele>293</ele>
        <time>2022-06-25T05:58:32.000Z</time>
      </trkpt>
      <trkpt lat="47.01003" lon="3.47339">
        <ele>294.60000610352</ele>
        <time>2022-06-25T05:58:37.000Z</time>
      </trkpt>
      <trkpt lat="47.01002" lon="3.47345">
        <ele>294.79998779297</ele>
        <time>2022-06-25T05:58:38.000Z</time>
      </trkpt>
      <trkpt lat="47.00997" lon="3.47392">
        <ele>295</ele>
        <time>2022-06-25T05:58:44.000Z</time>
      </trkpt>
      <trkpt lat="47.00994" lon="3.47423">
        <ele>295</ele>
        <time>2022-06-25T05:58:48.000Z</time>
      </trkpt>
      <trkpt lat="47.0099" lon="3.47462">
        <ele>294.39999389648</ele>
        <time>2022-06-25T05:58:53.000Z</time>
      </trkpt>
      <trkpt lat="47.00986" lon="3.47502">
        <ele>294</ele>
        <time>2022-06-25T05:58:58.000Z</time>
      </trkpt>
      <trkpt lat="47.00978" lon="3.47586">
        <ele>291.60000610352</ele>
        <time>2022-06-25T05:59:08.000Z</time>
      </trkpt>
      <trkpt lat="47.0097" lon="3.47662">
        <ele>289.60000610352</ele>
        <time>2022-06-25T05:59:16.000Z</time>
      </trkpt>
      <trkpt lat="47.00967" lon="3.47703">
        <ele>288.60000610352</ele>
        <time>2022-06-25T05:59:20.000Z</time>
      </trkpt>
      <trkpt lat="47.00963" lon="3.47744">
        <ele>287.79998779297</ele>
        <time>2022-06-25T05:59:24.000Z</time>
      </trkpt>
      <trkpt lat="47.0096" lon="3.47775">
        <ele>287</ele>
        <time>2022-06-25T05:59:27.000Z</time>
      </trkpt>
      <trkpt lat="47.00955" lon="3.47828">
        <ele>287</ele>
        <time>2022-06-25T05:59:32.000Z</time>
      </trkpt>
      <trkpt lat="47.00954" lon="3.47838">
        <ele>287.20001220703</ele>
        <time>2022-06-25T05:59:33.000Z</time>
      </trkpt>
      <trkpt lat="47.0095" lon="3.47878">
        <ele>288.60000610352</ele>
        <time>2022-06-25T05:59:37.000Z</time>
      </trkpt>
      <trkpt lat="47.00944" lon="3.47946">
        <ele>289.60000610352</ele>
        <time>2022-06-25T05:59:44.000Z</time>
      </trkpt>
      <trkpt lat="47.00943" lon="3.47965">
        <ele>289.20001220703</ele>
        <time>2022-06-25T05:59:46.000Z</time>
      </trkpt>
      <trkpt lat="47.00941" lon="3.4802">
        <ele>289</ele>
        <time>2022-06-25T05:59:52.000Z</time>
      </trkpt>
      <trkpt lat="47.00944" lon="3.48091">
        <ele>288.20001220703</ele>
        <time>2022-06-25T06:00:00.000Z</time>
      </trkpt>
      <trkpt lat="47.00945" lon="3.48098">
        <ele>288</ele>
        <time>2022-06-25T06:00:01.000Z</time>
      </trkpt>
      <trkpt lat="47.0094" lon="3.48112">
        <ele>287.20001220703</ele>
        <time>2022-06-25T06:00:03.000Z</time>
      </trkpt>
      <trkpt lat="47.00934" lon="3.48117">
        <ele>286.79998779297</ele>
        <time>2022-06-25T06:00:05.000Z</time>
      </trkpt>
      <trkpt lat="47.00929" lon="3.48118">
        <ele>286.79998779297</ele>
        <time>2022-06-25T06:00:06.000Z</time>
      </trkpt>
      <trkpt lat="47.00925" lon="3.4812">
        <ele>286.60000610352</ele>
        <time>2022-06-25T06:00:07.000Z</time>
      </trkpt>
      <trkpt lat="47.00918" lon="3.48127">
        <ele>286.39999389648</ele>
        <time>2022-06-25T06:00:09.000Z</time>
      </trkpt>
      <trkpt lat="47.00916" lon="3.48132">
        <ele>286.20001220703</ele>
        <time>2022-06-25T06:00:10.000Z</time>
      </trkpt>
      <trkpt lat="47.00899" lon="3.48168">
        <ele>285</ele>
        <time>2022-06-25T06:00:15.000Z</time>
      </trkpt>
      <trkpt lat="47.00882" lon="3.48206">
        <ele>284.39999389648</ele>
        <time>2022-06-25T06:00:20.000Z</time>
      </trkpt>
      <trkpt lat="47.0088" lon="3.48214">
        <ele>284.20001220703</ele>
        <time>2022-06-25T06:00:21.000Z</time>
      </trkpt>
      <trkpt lat="47.00865" lon="3.48266">
        <ele>282.79998779297</ele>
        <time>2022-06-25T06:00:27.000Z</time>
      </trkpt>
      <trkpt lat="47.00859" lon="3.48292">
        <ele>282.60000610352</ele>
        <time>2022-06-25T06:00:30.000Z</time>
      </trkpt>
      <trkpt lat="47.00852" lon="3.48319">
        <ele>282.20001220703</ele>
        <time>2022-06-25T06:00:33.000Z</time>
      </trkpt>
      <trkpt lat="47.00839" lon="3.48357">
        <ele>281.20001220703</ele>
        <time>2022-06-25T06:00:37.000Z</time>
      </trkpt>
      <trkpt lat="47.00836" lon="3.48366">
        <ele>280.79998779297</ele>
        <time>2022-06-25T06:00:38.000Z</time>
      </trkpt>
      <trkpt lat="47.00826" lon="3.48393">
        <ele>280.79998779297</ele>
        <time>2022-06-25T06:00:41.000Z</time>
      </trkpt>
      <trkpt lat="47.00806" lon="3.48446">
        <ele>280</ele>
        <time>2022-06-25T06:00:47.000Z</time>
      </trkpt>
      <trkpt lat="47.00781" lon="3.48499">
        <ele>281</ele>
        <time>2022-06-25T06:00:54.000Z</time>
      </trkpt>
      <trkpt lat="47.00759" lon="3.48536">
        <ele>282.39999389648</ele>
        <time>2022-06-25T06:01:00.000Z</time>
      </trkpt>
      <trkpt lat="47.00738" lon="3.4857">
        <ele>283.39999389648</ele>
        <time>2022-06-25T06:01:06.000Z</time>
      </trkpt>
      <trkpt lat="47.0073" lon="3.4858">
        <ele>284</ele>
        <time>2022-06-25T06:01:08.000Z</time>
      </trkpt>
      <trkpt lat="47.00696" lon="3.48616">
        <ele>283.39999389648</ele>
        <time>2022-06-25T06:01:15.000Z</time>
      </trkpt>
      <trkpt lat="47.00645" lon="3.48658">
        <ele>280.39999389648</ele>
        <time>2022-06-25T06:01:24.000Z</time>
      </trkpt>
      <trkpt lat="47.00608" lon="3.48687">
        <ele>280.60000610352</ele>
        <time>2022-06-25T06:01:31.000Z</time>
      </trkpt>
      <trkpt lat="47.00562" lon="3.48723">
        <ele>281</ele>
        <time>2022-06-25T06:01:40.000Z</time>
      </trkpt>
      <trkpt lat="47.00528" lon="3.48747">
        <ele>279.60000610352</ele>
        <time>2022-06-25T06:01:46.000Z</time>
      </trkpt>
      <trkpt lat="47.00508" lon="3.48761">
        <ele>279.39999389648</ele>
        <time>2022-06-25T06:01:49.000Z</time>
      </trkpt>
      <trkpt lat="47.00481" lon="3.4878">
        <ele>278.60000610352</ele>
        <time>2022-06-25T06:01:53.000Z</time>
      </trkpt>
      <trkpt lat="47.00453" lon="3.48799">
        <ele>276.79998779297</ele>
        <time>2022-06-25T06:01:57.000Z</time>
      </trkpt>
      <trkpt lat="47.00431" lon="3.48812">
        <ele>274.79998779297</ele>
        <time>2022-06-25T06:02:00.000Z</time>
      </trkpt>
      <trkpt lat="47.0041" lon="3.48829">
        <ele>273.39999389648</ele>
        <time>2022-06-25T06:02:03.000Z</time>
      </trkpt>
      <trkpt lat="47.00403" lon="3.48836">
        <ele>273</ele>
        <time>2022-06-25T06:02:04.000Z</time>
      </trkpt>
      <trkpt lat="47.00397" lon="3.48843">
        <ele>273</ele>
        <time>2022-06-25T06:02:05.000Z</time>
      </trkpt>
      <trkpt lat="47.00392" lon="3.48851">
        <ele>273</ele>
        <time>2022-06-25T06:02:06.000Z</time>
      </trkpt>
      <trkpt lat="47.00373" lon="3.48882">
        <ele>273</ele>
        <time>2022-06-25T06:02:10.000Z</time>
      </trkpt>
      <trkpt lat="47.00369" lon="3.48891">
        <ele>273</ele>
        <time>2022-06-25T06:02:11.000Z</time>
      </trkpt>
      <trkpt lat="47.00342" lon="3.48946">
        <ele>272.20001220703</ele>
        <time>2022-06-25T06:02:18.000Z</time>
      </trkpt>
      <trkpt lat="47.00334" lon="3.48961">
        <ele>272.39999389648</ele>
        <time>2022-06-25T06:02:20.000Z</time>
      </trkpt>
      <trkpt lat="47.00314" lon="3.48994">
        <ele>271.39999389648</ele>
        <time>2022-06-25T06:02:25.000Z</time>
      </trkpt>
      <trkpt lat="47.00297" lon="3.49019">
        <ele>272</ele>
        <time>2022-06-25T06:02:29.000Z</time>
      </trkpt>
      <trkpt lat="47.00288" lon="3.49029">
        <ele>272.20001220703</ele>
        <time>2022-06-25T06:02:31.000Z</time>
      </trkpt>
      <trkpt lat="47.00261" lon="3.49054">
        <ele>274.20001220703</ele>
        <time>2022-06-25T06:02:37.000Z</time>
      </trkpt>
      <trkpt lat="47.00256" lon="3.49058">
        <ele>274.20001220703</ele>
        <time>2022-06-25T06:02:38.000Z</time>
      </trkpt>
      <trkpt lat="47.00251" lon="3.49062">
        <ele>274.20001220703</ele>
        <time>2022-06-25T06:02:39.000Z</time>
      </trkpt>
      <trkpt lat="47.00214" lon="3.49093">
        <ele>274.60000610352</ele>
        <time>2022-06-25T06:02:46.000Z</time>
      </trkpt>
      <trkpt lat="47.00186" lon="3.49129">
        <ele>274.20001220703</ele>
        <time>2022-06-25T06:02:52.000Z</time>
      </trkpt>
      <trkpt lat="47.00155" lon="3.49181">
        <ele>274.39999389648</ele>
        <time>2022-06-25T06:03:00.000Z</time>
      </trkpt>
      <trkpt lat="47.0013" lon="3.49236">
        <ele>274.39999389648</ele>
        <time>2022-06-25T06:03:08.000Z</time>
      </trkpt>
      <trkpt lat="47.00105" lon="3.49283">
        <ele>274.79998779297</ele>
        <time>2022-06-25T06:03:15.000Z</time>
      </trkpt>
      <trkpt lat="47.00094" lon="3.49296">
        <ele>274.39999389648</ele>
        <time>2022-06-25T06:03:17.000Z</time>
      </trkpt>
      <trkpt lat="47.00078" lon="3.4931">
        <ele>273.79998779297</ele>
        <time>2022-06-25T06:03:20.000Z</time>
      </trkpt>
      <trkpt lat="47.00032" lon="3.49351">
        <ele>273</ele>
        <time>2022-06-25T06:03:28.000Z</time>
      </trkpt>
      <trkpt lat="47.0002" lon="3.49362">
        <ele>273</ele>
        <time>2022-06-25T06:03:30.000Z</time>
      </trkpt>
      <trkpt lat="46.99994" lon="3.49388">
        <ele>272</ele>
        <time>2022-06-25T06:03:34.000Z</time>
      </trkpt>
      <trkpt lat="46.99982" lon="3.49401">
        <ele>269.39999389648</ele>
        <time>2022-06-25T06:03:36.000Z</time>
      </trkpt>
      <trkpt lat="46.99965" lon="3.49424">
        <ele>268.79998779297</ele>
        <time>2022-06-25T06:03:39.000Z</time>
      </trkpt>
      <trkpt lat="46.9996" lon="3.49432">
        <ele>268.39999389648</ele>
        <time>2022-06-25T06:03:40.000Z</time>
      </trkpt>
      <trkpt lat="46.9995" lon="3.49449">
        <ele>267.79998779297</ele>
        <time>2022-06-25T06:03:42.000Z</time>
      </trkpt>
      <trkpt lat="46.99943" lon="3.49468">
        <ele>267.20001220703</ele>
        <time>2022-06-25T06:03:44.000Z</time>
      </trkpt>
      <trkpt lat="46.9994" lon="3.4948">
        <ele>266.79998779297</ele>
        <time>2022-06-25T06:03:45.000Z</time>
      </trkpt>
      <trkpt lat="46.99933" lon="3.49518">
        <ele>265.39999389648</ele>
        <time>2022-06-25T06:03:49.000Z</time>
      </trkpt>
      <trkpt lat="46.99931" lon="3.49538">
        <ele>265</ele>
        <time>2022-06-25T06:03:51.000Z</time>
      </trkpt>
      <trkpt lat="46.99931" lon="3.49589">
        <ele>266</ele>
        <time>2022-06-25T06:03:56.000Z</time>
      </trkpt>
      <trkpt lat="46.99931" lon="3.49621">
        <ele>266</ele>
        <time>2022-06-25T06:03:59.000Z</time>
      </trkpt>
      <trkpt lat="46.99932" lon="3.4969">
        <ele>264.20001220703</ele>
        <time>2022-06-25T06:04:06.000Z</time>
      </trkpt>
      <trkpt lat="46.99933" lon="3.49734">
        <ele>264</ele>
        <time>2022-06-25T06:04:10.000Z</time>
      </trkpt>
      <trkpt lat="46.99931" lon="3.49767">
        <ele>264.60000610352</ele>
        <time>2022-06-25T06:04:13.000Z</time>
      </trkpt>
      <trkpt lat="46.99929" lon="3.49799">
        <ele>264.20001220703</ele>
        <time>2022-06-25T06:04:16.000Z</time>
      </trkpt>
      <trkpt lat="46.99925" lon="3.49853">
        <ele>263.20001220703</ele>
        <time>2022-06-25T06:04:21.000Z</time>
      </trkpt>
      <trkpt lat="46.99924" lon="3.49875">
        <ele>262.39999389648</ele>
        <time>2022-06-25T06:04:23.000Z</time>
      </trkpt>
      <trkpt lat="46.99921" lon="3.49929">
        <ele>259.60000610352</ele>
        <time>2022-06-25T06:04:28.000Z</time>
      </trkpt>
      <trkpt lat="46.99914" lon="3.49995">
        <ele>259</ele>
        <time>2022-06-25T06:04:34.000Z</time>
      </trkpt>
      <trkpt lat="46.99913" lon="3.50005">
        <ele>259</ele>
        <time>2022-06-25T06:04:35.000Z</time>
      </trkpt>
      <trkpt lat="46.99907" lon="3.50081">
        <ele>258.79998779297</ele>
        <time>2022-06-25T06:04:42.000Z</time>
      </trkpt>
      <trkpt lat="46.99903" lon="3.50122">
        <ele>258.60000610352</ele>
        <time>2022-06-25T06:04:46.000Z</time>
      </trkpt>
      <trkpt lat="46.99894" lon="3.50171">
        <ele>256.79998779297</ele>
        <time>2022-06-25T06:04:51.000Z</time>
      </trkpt>
      <trkpt lat="46.99888" lon="3.50201">
        <ele>256.39999389648</ele>
        <time>2022-06-25T06:04:54.000Z</time>
      </trkpt>
      <trkpt lat="46.99875" lon="3.50258">
        <ele>258.60000610352</ele>
        <time>2022-06-25T06:05:01.000Z</time>
      </trkpt>
      <trkpt lat="46.99872" lon="3.50278">
        <ele>260.20001220703</ele>
        <time>2022-06-25T06:05:04.000Z</time>
      </trkpt>
      <trkpt lat="46.99868" lon="3.503">
        <ele>261</ele>
        <time>2022-06-25T06:05:08.000Z</time>
      </trkpt>
      <trkpt lat="46.99867" lon="3.50306">
        <ele>261.20001220703</ele>
        <time>2022-06-25T06:05:09.000Z</time>
      </trkpt>
      <trkpt lat="46.99867" lon="3.50311">
        <ele>261.39999389648</ele>
        <time>2022-06-25T06:05:10.000Z</time>
      </trkpt>
      <trkpt lat="46.99865" lon="3.50322">
        <ele>262</ele>
        <time>2022-06-25T06:05:12.000Z</time>
      </trkpt>
      <trkpt lat="46.99863" lon="3.50332">
        <ele>262.79998779297</ele>
        <time>2022-06-25T06:05:14.000Z</time>
      </trkpt>
      <trkpt lat="46.99862" lon="3.50338">
        <ele>263</ele>
        <time>2022-06-25T06:05:15.000Z</time>
      </trkpt>
      <trkpt lat="46.99857" lon="3.50363">
        <ele>264.39999389648</ele>
        <time>2022-06-25T06:05:20.000Z</time>
      </trkpt>
      <trkpt lat="46.99853" lon="3.50383">
        <ele>265.79998779297</ele>
        <time>2022-06-25T06:05:24.000Z</time>
      </trkpt>
      <trkpt lat="46.99849" lon="3.50402">
        <ele>267</ele>
        <time>2022-06-25T06:05:28.000Z</time>
      </trkpt>
      <trkpt lat="46.99846" lon="3.50416">
        <ele>268</ele>
        <time>2022-06-25T06:05:31.000Z</time>
      </trkpt>
      <trkpt lat="46.99845" lon="3.50421">
        <ele>268.39999389648</ele>
        <time>2022-06-25T06:05:32.000Z</time>
      </trkpt>
      <trkpt lat="46.99842" lon="3.50442">
        <ele>269.79998779297</ele>
        <time>2022-06-25T06:05:36.000Z</time>
      </trkpt>
      <trkpt lat="46.9984" lon="3.50463">
        <ele>270.39999389648</ele>
        <time>2022-06-25T06:05:40.000Z</time>
      </trkpt>
      <trkpt lat="46.99839" lon="3.50473">
        <ele>270.79998779297</ele>
        <time>2022-06-25T06:05:42.000Z</time>
      </trkpt>
      <trkpt lat="46.99839" lon="3.50482">
        <ele>271</ele>
        <time>2022-06-25T06:05:44.000Z</time>
      </trkpt>
      <trkpt lat="46.99839" lon="3.5051">
        <ele>272</ele>
        <time>2022-06-25T06:05:49.000Z</time>
      </trkpt>
      <trkpt lat="46.99838" lon="3.50516">
        <ele>272.20001220703</ele>
        <time>2022-06-25T06:05:50.000Z</time>
      </trkpt>
      <trkpt lat="46.99836" lon="3.50551">
        <ele>273.39999389648</ele>
        <time>2022-06-25T06:05:56.000Z</time>
      </trkpt>
      <trkpt lat="46.99834" lon="3.50574">
        <ele>273.60000610352</ele>
        <time>2022-06-25T06:06:00.000Z</time>
      </trkpt>
      <trkpt lat="46.99832" lon="3.50592">
        <ele>274</ele>
        <time>2022-06-25T06:06:03.000Z</time>
      </trkpt>
      <trkpt lat="46.99829" lon="3.50615">
        <ele>274</ele>
        <time>2022-06-25T06:06:07.000Z</time>
      </trkpt>
      <trkpt lat="46.99828" lon="3.50621">
        <ele>274</ele>
        <time>2022-06-25T06:06:08.000Z</time>
      </trkpt>
      <trkpt lat="46.99825" lon="3.50645">
        <ele>274.20001220703</ele>
        <time>2022-06-25T06:06:12.000Z</time>
      </trkpt>
      <trkpt lat="46.99818" lon="3.5068">
        <ele>275</ele>
        <time>2022-06-25T06:06:18.000Z</time>
      </trkpt>
      <trkpt lat="46.99813" lon="3.5072">
        <ele>275.20001220703</ele>
        <time>2022-06-25T06:06:24.000Z</time>
      </trkpt>
      <trkpt lat="46.99812" lon="3.50726">
        <ele>275.39999389648</ele>
        <time>2022-06-25T06:06:25.000Z</time>
      </trkpt>
      <trkpt lat="46.9981" lon="3.50733">
        <ele>275.79998779297</ele>
        <time>2022-06-25T06:06:26.000Z</time>
      </trkpt>
      <trkpt lat="46.99809" lon="3.5074">
        <ele>276</ele>
        <time>2022-06-25T06:06:27.000Z</time>
      </trkpt>
      <trkpt lat="46.99804" lon="3.50768">
        <ele>276.20001220703</ele>
        <time>2022-06-25T06:06:31.000Z</time>
      </trkpt>
      <trkpt lat="46.99802" lon="3.50782">
        <ele>277</ele>
        <time>2022-06-25T06:06:33.000Z</time>
      </trkpt>
      <trkpt lat="46.99793" lon="3.50839">
        <ele>279</ele>
        <time>2022-06-25T06:06:41.000Z</time>
      </trkpt>
      <trkpt lat="46.9979" lon="3.50853">
        <ele>279</ele>
        <time>2022-06-25T06:06:43.000Z</time>
      </trkpt>
      <trkpt lat="46.99782" lon="3.50903">
        <ele>279.39999389648</ele>
        <time>2022-06-25T06:06:50.000Z</time>
      </trkpt>
      <trkpt lat="46.99779" lon="3.50923">
        <ele>279.60000610352</ele>
        <time>2022-06-25T06:06:53.000Z</time>
      </trkpt>
      <trkpt lat="46.99778" lon="3.50948">
        <ele>280.20001220703</ele>
        <time>2022-06-25T06:06:57.000Z</time>
      </trkpt>
      <trkpt lat="46.99778" lon="3.50954">
        <ele>280.39999389648</ele>
        <time>2022-06-25T06:06:58.000Z</time>
      </trkpt>
      <trkpt lat="46.99778" lon="3.50968">
        <ele>280.60000610352</ele>
        <time>2022-06-25T06:07:00.000Z</time>
      </trkpt>
      <trkpt lat="46.9978" lon="3.50989">
        <ele>281.20001220703</ele>
        <time>2022-06-25T06:07:03.000Z</time>
      </trkpt>
      <trkpt lat="46.99786" lon="3.51015">
        <ele>281.39999389648</ele>
        <time>2022-06-25T06:07:07.000Z</time>
      </trkpt>
      <trkpt lat="46.99788" lon="3.51028">
        <ele>281.60000610352</ele>
        <time>2022-06-25T06:07:09.000Z</time>
      </trkpt>
      <trkpt lat="46.99796" lon="3.51036">
        <ele>282.39999389648</ele>
        <time>2022-06-25T06:07:11.000Z</time>
      </trkpt>
      <trkpt lat="46.998" lon="3.51039">
        <ele>283</ele>
        <time>2022-06-25T06:07:12.000Z</time>
      </trkpt>
      <trkpt lat="46.99804" lon="3.51043">
        <ele>283.39999389648</ele>
        <time>2022-06-25T06:07:13.000Z</time>
      </trkpt>
      <trkpt lat="46.99809" lon="3.51054">
        <ele>283.79998779297</ele>
        <time>2022-06-25T06:07:15.000Z</time>
      </trkpt>
      <trkpt lat="46.99811" lon="3.5106">
        <ele>284</ele>
        <time>2022-06-25T06:07:16.000Z</time>
      </trkpt>
      <trkpt lat="46.9982" lon="3.51096">
        <ele>284.60000610352</ele>
        <time>2022-06-25T06:07:22.000Z</time>
      </trkpt>
      <trkpt lat="46.99825" lon="3.51114">
        <ele>284.39999389648</ele>
        <time>2022-06-25T06:07:25.000Z</time>
      </trkpt>
      <trkpt lat="46.99829" lon="3.51139">
        <ele>284</ele>
        <time>2022-06-25T06:07:29.000Z</time>
      </trkpt>
      <trkpt lat="46.99832" lon="3.51171">
        <ele>284.39999389648</ele>
        <time>2022-06-25T06:07:34.000Z</time>
      </trkpt>
      <trkpt lat="46.99833" lon="3.51184">
        <ele>284.60000610352</ele>
        <time>2022-06-25T06:07:36.000Z</time>
      </trkpt>
      <trkpt lat="46.99835" lon="3.51198">
        <ele>284.79998779297</ele>
        <time>2022-06-25T06:07:38.000Z</time>
      </trkpt>
      <trkpt lat="46.99836" lon="3.51204">
        <ele>285.20001220703</ele>
        <time>2022-06-25T06:07:39.000Z</time>
      </trkpt>
      <trkpt lat="46.99843" lon="3.51245">
        <ele>288.39999389648</ele>
        <time>2022-06-25T06:07:45.000Z</time>
      </trkpt>
      <trkpt lat="46.99845" lon="3.5125">
        <ele>288.79998779297</ele>
        <time>2022-06-25T06:07:46.000Z</time>
      </trkpt>
      <trkpt lat="46.9985" lon="3.51277">
        <ele>290</ele>
        <time>2022-06-25T06:07:50.000Z</time>
      </trkpt>
      <trkpt lat="46.99857" lon="3.51301">
        <ele>289.79998779297</ele>
        <time>2022-06-25T06:07:54.000Z</time>
      </trkpt>
      <trkpt lat="46.99858" lon="3.51308">
        <ele>289.79998779297</ele>
        <time>2022-06-25T06:07:55.000Z</time>
      </trkpt>
      <trkpt lat="46.99866" lon="3.51335">
        <ele>290.39999389648</ele>
        <time>2022-06-25T06:07:59.000Z</time>
      </trkpt>
      <trkpt lat="46.99872" lon="3.51361">
        <ele>290.79998779297</ele>
        <time>2022-06-25T06:08:03.000Z</time>
      </trkpt>
      <trkpt lat="46.99876" lon="3.51382">
        <ele>291</ele>
        <time>2022-06-25T06:08:06.000Z</time>
      </trkpt>
      <trkpt lat="46.99875" lon="3.51401">
        <ele>291</ele>
        <time>2022-06-25T06:08:08.000Z</time>
      </trkpt>
      <trkpt lat="46.9987" lon="3.51417">
        <ele>290.60000610352</ele>
        <time>2022-06-25T06:08:10.000Z</time>
      </trkpt>
      <trkpt lat="46.99863" lon="3.51433">
        <ele>290</ele>
        <time>2022-06-25T06:08:12.000Z</time>
      </trkpt>
      <trkpt lat="46.99839" lon="3.51479">
        <ele>287.20001220703</ele>
        <time>2022-06-25T06:08:17.000Z</time>
      </trkpt>
      <trkpt lat="46.9983" lon="3.51495">
        <ele>286.39999389648</ele>
        <time>2022-06-25T06:08:19.000Z</time>
      </trkpt>
      <trkpt lat="46.99815" lon="3.51524">
        <ele>285.79998779297</ele>
        <time>2022-06-25T06:08:22.000Z</time>
      </trkpt>
      <trkpt lat="46.99805" lon="3.51544">
        <ele>285.39999389648</ele>
        <time>2022-06-25T06:08:24.000Z</time>
      </trkpt>
      <trkpt lat="46.998" lon="3.51553">
        <ele>285.39999389648</ele>
        <time>2022-06-25T06:08:25.000Z</time>
      </trkpt>
      <trkpt lat="46.99787" lon="3.51583">
        <ele>283.79998779297</ele>
        <time>2022-06-25T06:08:28.000Z</time>
      </trkpt>
      <trkpt lat="46.99774" lon="3.51611">
        <ele>282.39999389648</ele>
        <time>2022-06-25T06:08:31.000Z</time>
      </trkpt>
      <trkpt lat="46.9977" lon="3.51621">
        <ele>282</ele>
        <time>2022-06-25T06:08:32.000Z</time>
      </trkpt>
      <trkpt lat="46.99756" lon="3.51671">
        <ele>282.60000610352</ele>
        <time>2022-06-25T06:08:37.000Z</time>
      </trkpt>
      <trkpt lat="46.99754" lon="3.51681">
        <ele>282.79998779297</ele>
        <time>2022-06-25T06:08:38.000Z</time>
      </trkpt>
      <trkpt lat="46.99741" lon="3.5174">
        <ele>284.20001220703</ele>
        <time>2022-06-25T06:08:44.000Z</time>
      </trkpt>
      <trkpt lat="46.99735" lon="3.51758">
        <ele>284.39999389648</ele>
        <time>2022-06-25T06:08:46.000Z</time>
      </trkpt>
      <trkpt lat="46.99727" lon="3.51775">
        <ele>284.79998779297</ele>
        <time>2022-06-25T06:08:48.000Z</time>
      </trkpt>
      <trkpt lat="46.99722" lon="3.51782">
        <ele>284.79998779297</ele>
        <time>2022-06-25T06:08:49.000Z</time>
      </trkpt>
      <trkpt lat="46.99717" lon="3.51791">
        <ele>284.79998779297</ele>
        <time>2022-06-25T06:08:50.000Z</time>
      </trkpt>
      <trkpt lat="46.99701" lon="3.51808">
        <ele>284.60000610352</ele>
        <time>2022-06-25T06:08:53.000Z</time>
      </trkpt>
      <trkpt lat="46.99695" lon="3.51813">
        <ele>284.60000610352</ele>
        <time>2022-06-25T06:08:54.000Z</time>
      </trkpt>
      <trkpt lat="46.99682" lon="3.51819">
        <ele>284</ele>
        <time>2022-06-25T06:08:56.000Z</time>
      </trkpt>
      <trkpt lat="46.99668" lon="3.51823">
        <ele>284.20001220703</ele>
        <time>2022-06-25T06:08:58.000Z</time>
      </trkpt>
      <trkpt lat="46.99662" lon="3.51823">
        <ele>284</ele>
        <time>2022-06-25T06:08:59.000Z</time>
      </trkpt>
      <trkpt lat="46.99636" lon="3.51819">
        <ele>282.79998779297</ele>
        <time>2022-06-25T06:09:03.000Z</time>
      </trkpt>
      <trkpt lat="46.99622" lon="3.51816">
        <ele>282.20001220703</ele>
        <time>2022-06-25T06:09:05.000Z</time>
      </trkpt>
      <trkpt lat="46.9957" lon="3.51809">
        <ele>280.20001220703</ele>
        <time>2022-06-25T06:09:13.000Z</time>
      </trkpt>
      <trkpt lat="46.99558" lon="3.51812">
        <ele>280.20001220703</ele>
        <time>2022-06-25T06:09:15.000Z</time>
      </trkpt>
      <trkpt lat="46.99552" lon="3.51815">
        <ele>280.39999389648</ele>
        <time>2022-06-25T06:09:16.000Z</time>
      </trkpt>
      <trkpt lat="46.99541" lon="3.51822">
        <ele>280</ele>
        <time>2022-06-25T06:09:18.000Z</time>
      </trkpt>
      <trkpt lat="46.99507" lon="3.51845">
        <ele>279.79998779297</ele>
        <time>2022-06-25T06:09:24.000Z</time>
      </trkpt>
      <trkpt lat="46.99501" lon="3.51847">
        <ele>279.60000610352</ele>
        <time>2022-06-25T06:09:25.000Z</time>
      </trkpt>
      <trkpt lat="46.99458" lon="3.51852">
        <ele>278.60000610352</ele>
        <time>2022-06-25T06:09:32.000Z</time>
      </trkpt>
      <trkpt lat="46.99407" lon="3.51856">
        <ele>276.39999389648</ele>
        <time>2022-06-25T06:09:40.000Z</time>
      </trkpt>
      <trkpt lat="46.994" lon="3.51856">
        <ele>275.79998779297</ele>
        <time>2022-06-25T06:09:41.000Z</time>
      </trkpt>
      <trkpt lat="46.99379" lon="3.51857">
        <ele>274.20001220703</ele>
        <time>2022-06-25T06:09:44.000Z</time>
      </trkpt>
      <trkpt lat="46.99356" lon="3.51859">
        <ele>273.20001220703</ele>
        <time>2022-06-25T06:09:47.000Z</time>
      </trkpt>
      <trkpt lat="46.9934" lon="3.51864">
        <ele>273</ele>
        <time>2022-06-25T06:09:49.000Z</time>
      </trkpt>
      <trkpt lat="46.99325" lon="3.51875">
        <ele>273.39999389648</ele>
        <time>2022-06-25T06:09:51.000Z</time>
      </trkpt>
      <trkpt lat="46.99305" lon="3.51895">
        <ele>274.79998779297</ele>
        <time>2022-06-25T06:09:54.000Z</time>
      </trkpt>
      <trkpt lat="46.99293" lon="3.51907">
        <ele>275.60000610352</ele>
        <time>2022-06-25T06:09:56.000Z</time>
      </trkpt>
      <trkpt lat="46.99289" lon="3.51913">
        <ele>275.79998779297</ele>
        <time>2022-06-25T06:09:57.000Z</time>
      </trkpt>
      <trkpt lat="46.99282" lon="3.51926">
        <ele>276.60000610352</ele>
        <time>2022-06-25T06:09:59.000Z</time>
      </trkpt>
      <trkpt lat="46.99279" lon="3.51933">
        <ele>277.20001220703</ele>
        <time>2022-06-25T06:10:00.000Z</time>
      </trkpt>
      <trkpt lat="46.99279" lon="3.51941">
        <ele>277.39999389648</ele>
        <time>2022-06-25T06:10:01.000Z</time>
      </trkpt>
      <trkpt lat="46.99281" lon="3.51956">
        <ele>277.60000610352</ele>
        <time>2022-06-25T06:10:03.000Z</time>
      </trkpt>
      <trkpt lat="46.99288" lon="3.51978">
        <ele>277.79998779297</ele>
        <time>2022-06-25T06:10:06.000Z</time>
      </trkpt>
      <trkpt lat="46.99298" lon="3.51998">
        <ele>278</ele>
        <time>2022-06-25T06:10:09.000Z</time>
      </trkpt>
      <trkpt lat="46.99315" lon="3.52029">
        <ele>278.79998779297</ele>
        <time>2022-06-25T06:10:14.000Z</time>
      </trkpt>
      <trkpt lat="46.99328" lon="3.52055">
        <ele>279.39999389648</ele>
        <time>2022-06-25T06:10:18.000Z</time>
      </trkpt>
      <trkpt lat="46.99335" lon="3.52067">
        <ele>280</ele>
        <time>2022-06-25T06:10:20.000Z</time>
      </trkpt>
      <trkpt lat="46.99353" lon="3.52098">
        <ele>281.20001220703</ele>
        <time>2022-06-25T06:10:25.000Z</time>
      </trkpt>
      <trkpt lat="46.9936" lon="3.5211">
        <ele>281.39999389648</ele>
        <time>2022-06-25T06:10:27.000Z</time>
      </trkpt>
      <trkpt lat="46.99371" lon="3.52128">
        <ele>282.39999389648</ele>
        <time>2022-06-25T06:10:30.000Z</time>
      </trkpt>
      <trkpt lat="46.99389" lon="3.52157">
        <ele>283.60000610352</ele>
        <time>2022-06-25T06:10:35.000Z</time>
      </trkpt>
      <trkpt lat="46.99392" lon="3.52164">
        <ele>283.79998779297</ele>
        <time>2022-06-25T06:10:36.000Z</time>
      </trkpt>
      <trkpt lat="46.99394" lon="3.5217">
        <ele>284</ele>
        <time>2022-06-25T06:10:37.000Z</time>
      </trkpt>
      <trkpt lat="46.99397" lon="3.52177">
        <ele>284</ele>
        <time>2022-06-25T06:10:38.000Z</time>
      </trkpt>
      <trkpt lat="46.99399" lon="3.52192">
        <ele>284</ele>
        <time>2022-06-25T06:10:40.000Z</time>
      </trkpt>
      <trkpt lat="46.994" lon="3.522">
        <ele>284</ele>
        <time>2022-06-25T06:10:41.000Z</time>
      </trkpt>
      <trkpt lat="46.994" lon="3.52208">
        <ele>284</ele>
        <time>2022-06-25T06:10:42.000Z</time>
      </trkpt>
      <trkpt lat="46.99396" lon="3.52224">
        <ele>284</ele>
        <time>2022-06-25T06:10:44.000Z</time>
      </trkpt>
      <trkpt lat="46.99394" lon="3.52231">
        <ele>284</ele>
        <time>2022-06-25T06:10:45.000Z</time>
      </trkpt>
      <trkpt lat="46.9939" lon="3.52238">
        <ele>284</ele>
        <time>2022-06-25T06:10:46.000Z</time>
      </trkpt>
      <trkpt lat="46.99379" lon="3.52253">
        <ele>284.79998779297</ele>
        <time>2022-06-25T06:10:49.000Z</time>
      </trkpt>
      <trkpt lat="46.99351" lon="3.52277">
        <ele>284.20001220703</ele>
        <time>2022-06-25T06:10:55.000Z</time>
      </trkpt>
      <trkpt lat="46.99312" lon="3.52315">
        <ele>283.79998779297</ele>
        <time>2022-06-25T06:11:03.000Z</time>
      </trkpt>
      <trkpt lat="46.99289" lon="3.52356">
        <ele>283</ele>
        <time>2022-06-25T06:11:09.000Z</time>
      </trkpt>
      <trkpt lat="46.99266" lon="3.524">
        <ele>281.79998779297</ele>
        <time>2022-06-25T06:11:15.000Z</time>
      </trkpt>
      <trkpt lat="46.99258" lon="3.52416">
        <ele>281</ele>
        <time>2022-06-25T06:11:17.000Z</time>
      </trkpt>
      <trkpt lat="46.99246" lon="3.52441">
        <ele>279</ele>
        <time>2022-06-25T06:11:20.000Z</time>
      </trkpt>
      <trkpt lat="46.99225" lon="3.52482">
        <ele>276.60000610352</ele>
        <time>2022-06-25T06:11:25.000Z</time>
      </trkpt>
      <trkpt lat="46.99203" lon="3.52525">
        <ele>275</ele>
        <time>2022-06-25T06:11:30.000Z</time>
      </trkpt>
      <trkpt lat="46.99198" lon="3.52534">
        <ele>274.39999389648</ele>
        <time>2022-06-25T06:11:31.000Z</time>
      </trkpt>
      <trkpt lat="46.99185" lon="3.5256">
        <ele>273</ele>
        <time>2022-06-25T06:11:34.000Z</time>
      </trkpt>
      <trkpt lat="46.99178" lon="3.52578">
        <ele>273</ele>
        <time>2022-06-25T06:11:36.000Z</time>
      </trkpt>
      <trkpt lat="46.99175" lon="3.52587">
        <ele>273.20001220703</ele>
        <time>2022-06-25T06:11:37.000Z</time>
      </trkpt>
      <trkpt lat="46.99169" lon="3.52616">
        <ele>273</ele>
        <time>2022-06-25T06:11:40.000Z</time>
      </trkpt>
      <trkpt lat="46.99165" lon="3.52645">
        <ele>273</ele>
        <time>2022-06-25T06:11:43.000Z</time>
      </trkpt>
      <trkpt lat="46.99161" lon="3.52672">
        <ele>273</ele>
        <time>2022-06-25T06:11:46.000Z</time>
      </trkpt>
      <trkpt lat="46.99157" lon="3.527">
        <ele>273.79998779297</ele>
        <time>2022-06-25T06:11:49.000Z</time>
      </trkpt>
      <trkpt lat="46.99156" lon="3.52709">
        <ele>273.39999389648</ele>
        <time>2022-06-25T06:11:50.000Z</time>
      </trkpt>
      <trkpt lat="46.99154" lon="3.52718">
        <ele>273.20001220703</ele>
        <time>2022-06-25T06:11:51.000Z</time>
      </trkpt>
      <trkpt lat="46.99141" lon="3.52768">
        <ele>272.39999389648</ele>
        <time>2022-06-25T06:11:57.000Z</time>
      </trkpt>
      <trkpt lat="46.99131" lon="3.5279">
        <ele>271.60000610352</ele>
        <time>2022-06-25T06:12:00.000Z</time>
      </trkpt>
      <trkpt lat="46.99114" lon="3.52827">
        <ele>270</ele>
        <time>2022-06-25T06:12:05.000Z</time>
      </trkpt>
      <trkpt lat="46.99103" lon="3.5285">
        <ele>270</ele>
        <time>2022-06-25T06:12:08.000Z</time>
      </trkpt>
      <trkpt lat="46.99085" lon="3.5289">
        <ele>269</ele>
        <time>2022-06-25T06:12:13.000Z</time>
      </trkpt>
      <trkpt lat="46.99071" lon="3.52922">
        <ele>268</ele>
        <time>2022-06-25T06:12:17.000Z</time>
      </trkpt>
      <trkpt lat="46.99049" lon="3.5297">
        <ele>269</ele>
        <time>2022-06-25T06:12:23.000Z</time>
      </trkpt>
      <trkpt lat="46.99014" lon="3.5303">
        <ele>268</ele>
        <time>2022-06-25T06:12:31.000Z</time>
      </trkpt>
      <trkpt lat="46.99009" lon="3.53036">
        <ele>268</ele>
        <time>2022-06-25T06:12:32.000Z</time>
      </trkpt>
      <trkpt lat="46.98981" lon="3.53065">
        <ele>268.39999389648</ele>
        <time>2022-06-25T06:12:37.000Z</time>
      </trkpt>
      <trkpt lat="46.98941" lon="3.53098">
        <ele>269</ele>
        <time>2022-06-25T06:12:44.000Z</time>
      </trkpt>
      <trkpt lat="46.98907" lon="3.53125">
        <ele>268.20001220703</ele>
        <time>2022-06-25T06:12:50.000Z</time>
      </trkpt>
      <trkpt lat="46.98884" lon="3.53145">
        <ele>267.39999389648</ele>
        <time>2022-06-25T06:12:54.000Z</time>
      </trkpt>
      <trkpt lat="46.98879" lon="3.5315">
        <ele>267.20001220703</ele>
        <time>2022-06-25T06:12:55.000Z</time>
      </trkpt>
      <trkpt lat="46.98861" lon="3.53179">
        <ele>265.60000610352</ele>
        <time>2022-06-25T06:12:59.000Z</time>
      </trkpt>
      <trkpt lat="46.98839" lon="3.53238">
        <ele>266</ele>
        <time>2022-06-25T06:13:06.000Z</time>
      </trkpt>
      <trkpt lat="46.98827" lon="3.53293">
        <ele>266</ele>
        <time>2022-06-25T06:13:12.000Z</time>
      </trkpt>
      <trkpt lat="46.98825" lon="3.53302">
        <ele>266</ele>
        <time>2022-06-25T06:13:13.000Z</time>
      </trkpt>
      <trkpt lat="46.98813" lon="3.53366">
        <ele>265</ele>
        <time>2022-06-25T06:13:20.000Z</time>
      </trkpt>
      <trkpt lat="46.98803" lon="3.53408">
        <ele>263.79998779297</ele>
        <time>2022-06-25T06:13:25.000Z</time>
      </trkpt>
      <trkpt lat="46.98799" lon="3.53416">
        <ele>263.39999389648</ele>
        <time>2022-06-25T06:13:26.000Z</time>
      </trkpt>
      <trkpt lat="46.98795" lon="3.53423">
        <ele>263</ele>
        <time>2022-06-25T06:13:27.000Z</time>
      </trkpt>
      <trkpt lat="46.98789" lon="3.53428">
        <ele>263</ele>
        <time>2022-06-25T06:13:28.000Z</time>
      </trkpt>
      <trkpt lat="46.98784" lon="3.53433">
        <ele>263</ele>
        <time>2022-06-25T06:13:29.000Z</time>
      </trkpt>
      <trkpt lat="46.98771" lon="3.53437">
        <ele>263</ele>
        <time>2022-06-25T06:13:31.000Z</time>
      </trkpt>
      <trkpt lat="46.98765" lon="3.53437">
        <ele>263</ele>
        <time>2022-06-25T06:13:32.000Z</time>
      </trkpt>
      <trkpt lat="46.98758" lon="3.53435">
        <ele>263.20001220703</ele>
        <time>2022-06-25T06:13:33.000Z</time>
      </trkpt>
      <trkpt lat="46.98734" lon="3.53424">
        <ele>263.79998779297</ele>
        <time>2022-06-25T06:13:37.000Z</time>
      </trkpt>
      <trkpt lat="46.98717" lon="3.53413">
        <ele>264.79998779297</ele>
        <time>2022-06-25T06:13:40.000Z</time>
      </trkpt>
      <trkpt lat="46.987" lon="3.53402">
        <ele>265.60000610352</ele>
        <time>2022-06-25T06:13:43.000Z</time>
      </trkpt>
      <trkpt lat="46.98694" lon="3.53399">
        <ele>265.60000610352</ele>
        <time>2022-06-25T06:13:44.000Z</time>
      </trkpt>
      <trkpt lat="46.98673" lon="3.5339">
        <ele>266</ele>
        <time>2022-06-25T06:13:48.000Z</time>
      </trkpt>
      <trkpt lat="46.9864" lon="3.53385">
        <ele>266.39999389648</ele>
        <time>2022-06-25T06:13:54.000Z</time>
      </trkpt>
      <trkpt lat="46.9859" lon="3.53381">
        <ele>266</ele>
        <time>2022-06-25T06:14:03.000Z</time>
      </trkpt>
      <trkpt lat="46.98562" lon="3.53379">
        <ele>265.79998779297</ele>
        <time>2022-06-25T06:14:08.000Z</time>
      </trkpt>
      <trkpt lat="46.98527" lon="3.53378">
        <ele>265</ele>
        <time>2022-06-25T06:14:14.000Z</time>
      </trkpt>
      <trkpt lat="46.9847" lon="3.5338">
        <ele>265.60000610352</ele>
        <time>2022-06-25T06:14:24.000Z</time>
      </trkpt>
      <trkpt lat="46.98464" lon="3.5338">
        <ele>265.79998779297</ele>
        <time>2022-06-25T06:14:25.000Z</time>
      </trkpt>
      <trkpt lat="46.98436" lon="3.5338">
        <ele>266.39999389648</ele>
        <time>2022-06-25T06:14:30.000Z</time>
      </trkpt>
      <trkpt lat="46.98427" lon="3.53387">
        <ele>266.79998779297</ele>
        <time>2022-06-25T06:14:32.000Z</time>
      </trkpt>
      <trkpt lat="46.98421" lon="3.534">
        <ele>267</ele>
        <time>2022-06-25T06:14:34.000Z</time>
      </trkpt>
      <trkpt lat="46.98419" lon="3.53408">
        <ele>267</ele>
        <time>2022-06-25T06:14:35.000Z</time>
      </trkpt>
      <trkpt lat="46.98403" lon="3.53479">
        <ele>266</ele>
        <time>2022-06-25T06:14:44.000Z</time>
      </trkpt>
      <trkpt lat="46.98388" lon="3.53542">
        <ele>266.60000610352</ele>
        <time>2022-06-25T06:14:52.000Z</time>
      </trkpt>
      <trkpt lat="46.98371" lon="3.53614">
        <ele>266</ele>
        <time>2022-06-25T06:15:01.000Z</time>
      </trkpt>
      <trkpt lat="46.98363" lon="3.53658">
        <ele>266</ele>
        <time>2022-06-25T06:15:06.000Z</time>
      </trkpt>
      <trkpt lat="46.98362" lon="3.53668">
        <ele>266</ele>
        <time>2022-06-25T06:15:07.000Z</time>
      </trkpt>
      <trkpt lat="46.98364" lon="3.5372">
        <ele>262.79998779297</ele>
        <time>2022-06-25T06:15:12.000Z</time>
      </trkpt>
      <trkpt lat="46.9837" lon="3.53738">
        <ele>261.20001220703</ele>
        <time>2022-06-25T06:15:14.000Z</time>
      </trkpt>
      <trkpt lat="46.9838" lon="3.53757">
        <ele>259</ele>
        <time>2022-06-25T06:15:16.000Z</time>
      </trkpt>
      <trkpt lat="46.98402" lon="3.53785">
        <ele>254.60000610352</ele>
        <time>2022-06-25T06:15:19.000Z</time>
      </trkpt>
      <trkpt lat="46.9841" lon="3.53794">
        <ele>253.60000610352</ele>
        <time>2022-06-25T06:15:20.000Z</time>
      </trkpt>
      <trkpt lat="46.98418" lon="3.53803">
        <ele>252.60000610352</ele>
        <time>2022-06-25T06:15:21.000Z</time>
      </trkpt>
      <trkpt lat="46.98434" lon="3.53822">
        <ele>251</ele>
        <time>2022-06-25T06:15:23.000Z</time>
      </trkpt>
      <trkpt lat="46.98443" lon="3.53831">
        <ele>250.19999694824</ele>
        <time>2022-06-25T06:15:24.000Z</time>
      </trkpt>
      <trkpt lat="46.98462" lon="3.53847">
        <ele>249.60000610352</ele>
        <time>2022-06-25T06:15:26.000Z</time>
      </trkpt>
      <trkpt lat="46.9848" lon="3.53862">
        <ele>249</ele>
        <time>2022-06-25T06:15:28.000Z</time>
      </trkpt>
      <trkpt lat="46.98496" lon="3.53878">
        <ele>248.39999389648</ele>
        <time>2022-06-25T06:15:30.000Z</time>
      </trkpt>
      <trkpt lat="46.98503" lon="3.53887">
        <ele>248.19999694824</ele>
        <time>2022-06-25T06:15:31.000Z</time>
      </trkpt>
      <trkpt lat="46.98518" lon="3.53904">
        <ele>247.39999389648</ele>
        <time>2022-06-25T06:15:33.000Z</time>
      </trkpt>
      <trkpt lat="46.98534" lon="3.53922">
        <ele>247</ele>
        <time>2022-06-25T06:15:35.000Z</time>
      </trkpt>
      <trkpt lat="46.98549" lon="3.53934">
        <ele>246.80000305176</ele>
        <time>2022-06-25T06:15:37.000Z</time>
      </trkpt>
      <trkpt lat="46.98566" lon="3.53946">
        <ele>246.19999694824</ele>
        <time>2022-06-25T06:15:39.000Z</time>
      </trkpt>
      <trkpt lat="46.98594" lon="3.53961">
        <ele>246</ele>
        <time>2022-06-25T06:15:42.000Z</time>
      </trkpt>
      <trkpt lat="46.98602" lon="3.53967">
        <ele>246</ele>
        <time>2022-06-25T06:15:43.000Z</time>
      </trkpt>
      <trkpt lat="46.98619" lon="3.5398">
        <ele>246</ele>
        <time>2022-06-25T06:15:45.000Z</time>
      </trkpt>
      <trkpt lat="46.98632" lon="3.53997">
        <ele>245.39999389648</ele>
        <time>2022-06-25T06:15:47.000Z</time>
      </trkpt>
      <trkpt lat="46.98637" lon="3.54008">
        <ele>245.19999694824</ele>
        <time>2022-06-25T06:15:48.000Z</time>
      </trkpt>
      <trkpt lat="46.9864" lon="3.54019">
        <ele>244.80000305176</ele>
        <time>2022-06-25T06:15:49.000Z</time>
      </trkpt>
      <trkpt lat="46.98642" lon="3.54032">
        <ele>244.60000610352</ele>
        <time>2022-06-25T06:15:50.000Z</time>
      </trkpt>
      <trkpt lat="46.98643" lon="3.5407">
        <ele>242.80000305176</ele>
        <time>2022-06-25T06:15:53.000Z</time>
      </trkpt>
      <trkpt lat="46.98644" lon="3.54095">
        <ele>241.19999694824</ele>
        <time>2022-06-25T06:15:55.000Z</time>
      </trkpt>
      <trkpt lat="46.98644" lon="3.5412">
        <ele>239.80000305176</ele>
        <time>2022-06-25T06:15:57.000Z</time>
      </trkpt>
      <trkpt lat="46.98646" lon="3.54157">
        <ele>238.80000305176</ele>
        <time>2022-06-25T06:16:00.000Z</time>
      </trkpt>
      <trkpt lat="46.98647" lon="3.54193">
        <ele>238.80000305176</ele>
        <time>2022-06-25T06:16:03.000Z</time>
      </trkpt>
      <trkpt lat="46.98649" lon="3.54228">
        <ele>237.80000305176</ele>
        <time>2022-06-25T06:16:06.000Z</time>
      </trkpt>
      <trkpt lat="46.98653" lon="3.54287">
        <ele>235.80000305176</ele>
        <time>2022-06-25T06:16:11.000Z</time>
      </trkpt>
      <trkpt lat="46.98655" lon="3.543">
        <ele>235.39999389648</ele>
        <time>2022-06-25T06:16:12.000Z</time>
      </trkpt>
      <trkpt lat="46.98656" lon="3.54309">
        <ele>235.19999694824</ele>
        <time>2022-06-25T06:16:13.000Z</time>
      </trkpt>
      <trkpt lat="46.98664" lon="3.54339">
        <ele>235.19999694824</ele>
        <time>2022-06-25T06:16:16.000Z</time>
      </trkpt>
      <trkpt lat="46.98668" lon="3.54349">
        <ele>235</ele>
        <time>2022-06-25T06:16:17.000Z</time>
      </trkpt>
      <trkpt lat="46.98675" lon="3.54368">
        <ele>234.80000305176</ele>
        <time>2022-06-25T06:16:19.000Z</time>
      </trkpt>
      <trkpt lat="46.98698" lon="3.54421">
        <ele>234.60000610352</ele>
        <time>2022-06-25T06:16:25.000Z</time>
      </trkpt>
      <trkpt lat="46.98702" lon="3.5443">
        <ele>234.39999389648</ele>
        <time>2022-06-25T06:16:26.000Z</time>
      </trkpt>
      <trkpt lat="46.98737" lon="3.54497">
        <ele>233.19999694824</ele>
        <time>2022-06-25T06:16:35.000Z</time>
      </trkpt>
      <trkpt lat="46.98761" lon="3.54538">
        <ele>232.60000610352</ele>
        <time>2022-06-25T06:16:40.000Z</time>
      </trkpt>
      <trkpt lat="46.98774" lon="3.54564">
        <ele>232.39999389648</ele>
        <time>2022-06-25T06:16:43.000Z</time>
      </trkpt>
      <trkpt lat="46.98778" lon="3.54573">
        <ele>232.39999389648</ele>
        <time>2022-06-25T06:16:44.000Z</time>
      </trkpt>
      <trkpt lat="46.98781" lon="3.54583">
        <ele>232.39999389648</ele>
        <time>2022-06-25T06:16:45.000Z</time>
      </trkpt>
      <trkpt lat="46.98787" lon="3.54613">
        <ele>231.80000305176</ele>
        <time>2022-06-25T06:16:48.000Z</time>
      </trkpt>
      <trkpt lat="46.9879" lon="3.54634">
        <ele>232</ele>
        <time>2022-06-25T06:16:50.000Z</time>
      </trkpt>
      <trkpt lat="46.98794" lon="3.54695">
        <ele>232.80000305176</ele>
        <time>2022-06-25T06:16:56.000Z</time>
      </trkpt>
      <trkpt lat="46.98799" lon="3.54756">
        <ele>234</ele>
        <time>2022-06-25T06:17:02.000Z</time>
      </trkpt>
      <trkpt lat="46.98802" lon="3.54766">
        <ele>234.19999694824</ele>
        <time>2022-06-25T06:17:03.000Z</time>
      </trkpt>
      <trkpt lat="46.9882" lon="3.54808">
        <ele>233</ele>
        <time>2022-06-25T06:17:08.000Z</time>
      </trkpt>
      <trkpt lat="46.98853" lon="3.54856">
        <ele>232.80000305176</ele>
        <time>2022-06-25T06:17:15.000Z</time>
      </trkpt>
      <trkpt lat="46.98892" lon="3.54908">
        <ele>232.80000305176</ele>
        <time>2022-06-25T06:17:23.000Z</time>
      </trkpt>
      <trkpt lat="46.98932" lon="3.54964">
        <ele>229.80000305176</ele>
        <time>2022-06-25T06:17:31.000Z</time>
      </trkpt>
      <trkpt lat="46.98936" lon="3.54972">
        <ele>229.60000610352</ele>
        <time>2022-06-25T06:17:32.000Z</time>
      </trkpt>
      <trkpt lat="46.98955" lon="3.55023">
        <ele>228.80000305176</ele>
        <time>2022-06-25T06:17:38.000Z</time>
      </trkpt>
      <trkpt lat="46.98968" lon="3.55081">
        <ele>229.39999389648</ele>
        <time>2022-06-25T06:17:44.000Z</time>
      </trkpt>
      <trkpt lat="46.98976" lon="3.55122">
        <ele>228.60000610352</ele>
        <time>2022-06-25T06:17:48.000Z</time>
      </trkpt>
      <trkpt lat="46.98985" lon="3.55162">
        <ele>227.19999694824</ele>
        <time>2022-06-25T06:17:52.000Z</time>
      </trkpt>
      <trkpt lat="46.98987" lon="3.55172">
        <ele>227</ele>
        <time>2022-06-25T06:17:53.000Z</time>
      </trkpt>
      <trkpt lat="46.99001" lon="3.55238">
        <ele>227.60000610352</ele>
        <time>2022-06-25T06:18:00.000Z</time>
      </trkpt>
      <trkpt lat="46.9901" lon="3.5528">
        <ele>230</ele>
        <time>2022-06-25T06:18:05.000Z</time>
      </trkpt>
      <trkpt lat="46.99012" lon="3.55288">
        <ele>230.39999389648</ele>
        <time>2022-06-25T06:18:06.000Z</time>
      </trkpt>
      <trkpt lat="46.99016" lon="3.5531">
        <ele>231</ele>
        <time>2022-06-25T06:18:09.000Z</time>
      </trkpt>
      <trkpt lat="46.99017" lon="3.55325">
        <ele>231.60000610352</ele>
        <time>2022-06-25T06:18:11.000Z</time>
      </trkpt>
      <trkpt lat="46.99016" lon="3.55332">
        <ele>231.80000305176</ele>
        <time>2022-06-25T06:18:12.000Z</time>
      </trkpt>
      <trkpt lat="46.99015" lon="3.55339">
        <ele>232</ele>
        <time>2022-06-25T06:18:13.000Z</time>
      </trkpt>
      <trkpt lat="46.99011" lon="3.55366">
        <ele>233.19999694824</ele>
        <time>2022-06-25T06:18:17.000Z</time>
      </trkpt>
      <trkpt lat="46.99007" lon="3.55389">
        <ele>234.19999694824</ele>
        <time>2022-06-25T06:18:21.000Z</time>
      </trkpt>
      <trkpt lat="46.99006" lon="3.55398">
        <ele>234.19999694824</ele>
        <time>2022-06-25T06:18:23.000Z</time>
      </trkpt>
      <trkpt lat="46.99005" lon="3.55405">
        <ele>234.19999694824</ele>
        <time>2022-06-25T06:18:26.000Z</time>
      </trkpt>
      <trkpt lat="46.99005" lon="3.55406">
        <ele>234.39999389648</ele>
        <time>2022-06-25T06:18:27.000Z</time>
      </trkpt>
      <trkpt lat="46.99006" lon="3.55407">
        <ele>234.19999694824</ele>
        <time>2022-06-25T06:18:33.000Z</time>
      </trkpt>
      <trkpt lat="46.99006" lon="3.55407">
        <ele>234.19999694824</ele>
        <time>2022-06-25T06:19:17.000Z</time>
      </trkpt>
      <trkpt lat="46.99006" lon="3.55407">
        <ele>234.19999694824</ele>
        <time>2022-06-25T06:20:00.000Z</time>
      </trkpt>
      <trkpt lat="46.99006" lon="3.55407">
        <ele>234.19999694824</ele>
        <time>2022-06-25T06:20:59.000Z</time>
      </trkpt>
      <trkpt lat="46.99003" lon="3.55412">
        <ele>234.39999389648</ele>
        <time>2022-06-25T06:23:58.000Z</time>
      </trkpt>
      <trkpt lat="46.98997" lon="3.55436">
        <ele>234</ele>
        <time>2022-06-25T06:24:04.000Z</time>
      </trkpt>
      <trkpt lat="46.98991" lon="3.55467">
        <ele>233.60000610352</ele>
        <time>2022-06-25T06:24:09.000Z</time>
      </trkpt>
      <trkpt lat="46.98983" lon="3.55508">
        <ele>234.39999389648</ele>
        <time>2022-06-25T06:24:15.000Z</time>
      </trkpt>
      <trkpt lat="46.98981" lon="3.55515">
        <ele>234.80000305176</ele>
        <time>2022-06-25T06:24:16.000Z</time>
      </trkpt>
      <trkpt lat="46.98971" lon="3.55571">
        <ele>237.19999694824</ele>
        <time>2022-06-25T06:24:24.000Z</time>
      </trkpt>
      <trkpt lat="46.98967" lon="3.55585">
        <ele>237.39999389648</ele>
        <time>2022-06-25T06:24:26.000Z</time>
      </trkpt>
      <trkpt lat="46.98955" lon="3.5565">
        <ele>237.80000305176</ele>
        <time>2022-06-25T06:24:34.000Z</time>
      </trkpt>
      <trkpt lat="46.98945" lon="3.55701">
        <ele>236.60000610352</ele>
        <time>2022-06-25T06:24:40.000Z</time>
      </trkpt>
      <trkpt lat="46.9894" lon="3.55726">
        <ele>236.60000610352</ele>
        <time>2022-06-25T06:24:43.000Z</time>
      </trkpt>
      <trkpt lat="46.98933" lon="3.55752">
        <ele>235.60000610352</ele>
        <time>2022-06-25T06:24:46.000Z</time>
      </trkpt>
      <trkpt lat="46.98924" lon="3.55809">
        <ele>233.19999694824</ele>
        <time>2022-06-25T06:24:52.000Z</time>
      </trkpt>
      <trkpt lat="46.98921" lon="3.55837">
        <ele>231</ele>
        <time>2022-06-25T06:24:55.000Z</time>
      </trkpt>
      <trkpt lat="46.98922" lon="3.55867">
        <ele>230.19999694824</ele>
        <time>2022-06-25T06:24:58.000Z</time>
      </trkpt>
      <trkpt lat="46.98923" lon="3.5594">
        <ele>232</ele>
        <time>2022-06-25T06:25:05.000Z</time>
      </trkpt>
      <trkpt lat="46.98923" lon="3.5595">
        <ele>232.19999694824</ele>
        <time>2022-06-25T06:25:06.000Z</time>
      </trkpt>
      <trkpt lat="46.98926" lon="3.56017">
        <ele>232</ele>
        <time>2022-06-25T06:25:13.000Z</time>
      </trkpt>
      <trkpt lat="46.98927" lon="3.56062">
        <ele>231.39999389648</ele>
        <time>2022-06-25T06:25:18.000Z</time>
      </trkpt>
      <trkpt lat="46.98931" lon="3.56097">
        <ele>232</ele>
        <time>2022-06-25T06:25:22.000Z</time>
      </trkpt>
      <trkpt lat="46.98931" lon="3.56161">
        <ele>233.80000305176</ele>
        <time>2022-06-25T06:25:29.000Z</time>
      </trkpt>
      <trkpt lat="46.98924" lon="3.56205">
        <ele>236</ele>
        <time>2022-06-25T06:25:34.000Z</time>
      </trkpt>
      <trkpt lat="46.98914" lon="3.56276">
        <ele>235.39999389648</ele>
        <time>2022-06-25T06:25:42.000Z</time>
      </trkpt>
      <trkpt lat="46.9891" lon="3.56301">
        <ele>235</ele>
        <time>2022-06-25T06:25:45.000Z</time>
      </trkpt>
      <trkpt lat="46.98909" lon="3.56316">
        <ele>235</ele>
        <time>2022-06-25T06:25:47.000Z</time>
      </trkpt>
      <trkpt lat="46.98913" lon="3.5633">
        <ele>233.60000610352</ele>
        <time>2022-06-25T06:25:49.000Z</time>
      </trkpt>
      <trkpt lat="46.98916" lon="3.56335">
        <ele>233</ele>
        <time>2022-06-25T06:25:50.000Z</time>
      </trkpt>
      <trkpt lat="46.9892" lon="3.56339">
        <ele>232.60000610352</ele>
        <time>2022-06-25T06:25:51.000Z</time>
      </trkpt>
      <trkpt lat="46.98932" lon="3.56345">
        <ele>231.39999389648</ele>
        <time>2022-06-25T06:25:53.000Z</time>
      </trkpt>
      <trkpt lat="46.98952" lon="3.5635">
        <ele>228</ele>
        <time>2022-06-25T06:25:57.000Z</time>
      </trkpt>
      <trkpt lat="46.98969" lon="3.56351">
        <ele>226.19999694824</ele>
        <time>2022-06-25T06:26:00.000Z</time>
      </trkpt>
      <trkpt lat="46.9901" lon="3.56352">
        <ele>224</ele>
        <time>2022-06-25T06:26:07.000Z</time>
      </trkpt>
      <trkpt lat="46.9902" lon="3.56357">
        <ele>224.60000610352</ele>
        <time>2022-06-25T06:26:09.000Z</time>
      </trkpt>
      <trkpt lat="46.99028" lon="3.56367">
        <ele>225.39999389648</ele>
        <time>2022-06-25T06:26:11.000Z</time>
      </trkpt>
      <trkpt lat="46.99033" lon="3.56382">
        <ele>225.39999389648</ele>
        <time>2022-06-25T06:26:13.000Z</time>
      </trkpt>
      <trkpt lat="46.99034" lon="3.56391">
        <ele>225.39999389648</ele>
        <time>2022-06-25T06:26:14.000Z</time>
      </trkpt>
      <trkpt lat="46.99034" lon="3.56399">
        <ele>225.80000305176</ele>
        <time>2022-06-25T06:26:15.000Z</time>
      </trkpt>
      <trkpt lat="46.99034" lon="3.56444">
        <ele>227.19999694824</ele>
        <time>2022-06-25T06:26:20.000Z</time>
      </trkpt>
      <trkpt lat="46.99035" lon="3.56455">
        <ele>227.39999389648</ele>
        <time>2022-06-25T06:26:21.000Z</time>
      </trkpt>
      <trkpt lat="46.99041" lon="3.56488">
        <ele>227.39999389648</ele>
        <time>2022-06-25T06:26:25.000Z</time>
      </trkpt>
      <trkpt lat="46.99054" lon="3.56549">
        <ele>228.39999389648</ele>
        <time>2022-06-25T06:26:32.000Z</time>
      </trkpt>
      <trkpt lat="46.99066" lon="3.56616">
        <ele>229</ele>
        <time>2022-06-25T06:26:40.000Z</time>
      </trkpt>
      <trkpt lat="46.99072" lon="3.56654">
        <ele>230.80000305176</ele>
        <time>2022-06-25T06:26:45.000Z</time>
      </trkpt>
      <trkpt lat="46.99072" lon="3.56661">
        <ele>231.19999694824</ele>
        <time>2022-06-25T06:26:46.000Z</time>
      </trkpt>
      <trkpt lat="46.99074" lon="3.56675">
        <ele>232</ele>
        <time>2022-06-25T06:26:48.000Z</time>
      </trkpt>
      <trkpt lat="46.99077" lon="3.56701">
        <ele>233.19999694824</ele>
        <time>2022-06-25T06:26:52.000Z</time>
      </trkpt>
      <trkpt lat="46.99078" lon="3.56707">
        <ele>233.19999694824</ele>
        <time>2022-06-25T06:26:53.000Z</time>
      </trkpt>
      <trkpt lat="46.99078" lon="3.5672">
        <ele>233.80000305176</ele>
        <time>2022-06-25T06:26:55.000Z</time>
      </trkpt>
      <trkpt lat="46.99079" lon="3.56747">
        <ele>234.60000610352</ele>
        <time>2022-06-25T06:26:59.000Z</time>
      </trkpt>
      <trkpt lat="46.99079" lon="3.56761">
        <ele>234.80000305176</ele>
        <time>2022-06-25T06:27:01.000Z</time>
      </trkpt>
      <trkpt lat="46.9908" lon="3.56775">
        <ele>235.19999694824</ele>
        <time>2022-06-25T06:27:03.000Z</time>
      </trkpt>
      <trkpt lat="46.99083" lon="3.56816">
        <ele>236.80000305176</ele>
        <time>2022-06-25T06:27:08.000Z</time>
      </trkpt>
      <trkpt lat="46.99082" lon="3.56876">
        <ele>238</ele>
        <time>2022-06-25T06:27:15.000Z</time>
      </trkpt>
      <trkpt lat="46.99078" lon="3.56942">
        <ele>237</ele>
        <time>2022-06-25T06:27:23.000Z</time>
      </trkpt>
      <trkpt lat="46.99076" lon="3.56959">
        <ele>237</ele>
        <time>2022-06-25T06:27:25.000Z</time>
      </trkpt>
      <trkpt lat="46.99069" lon="3.57021">
        <ele>236.19999694824</ele>
        <time>2022-06-25T06:27:32.000Z</time>
      </trkpt>
      <trkpt lat="46.99061" lon="3.5707">
        <ele>236.19999694824</ele>
        <time>2022-06-25T06:27:38.000Z</time>
      </trkpt>
      <trkpt lat="46.99056" lon="3.57079">
        <ele>236</ele>
        <time>2022-06-25T06:27:40.000Z</time>
      </trkpt>
      <trkpt lat="46.99052" lon="3.5708">
        <ele>235.80000305176</ele>
        <time>2022-06-25T06:27:41.000Z</time>
      </trkpt>
      <trkpt lat="46.99035" lon="3.57081">
        <ele>234.80000305176</ele>
        <time>2022-06-25T06:27:44.000Z</time>
      </trkpt>
      <trkpt lat="46.98992" lon="3.57095">
        <ele>234.19999694824</ele>
        <time>2022-06-25T06:27:51.000Z</time>
      </trkpt>
      <trkpt lat="46.98943" lon="3.57117">
        <ele>235</ele>
        <time>2022-06-25T06:27:59.000Z</time>
      </trkpt>
      <trkpt lat="46.98897" lon="3.57129">
        <ele>235.60000610352</ele>
        <time>2022-06-25T06:28:07.000Z</time>
      </trkpt>
      <trkpt lat="46.98868" lon="3.57152">
        <ele>235.80000305176</ele>
        <time>2022-06-25T06:28:13.000Z</time>
      </trkpt>
      <trkpt lat="46.98859" lon="3.57162">
        <ele>235.39999389648</ele>
        <time>2022-06-25T06:28:15.000Z</time>
      </trkpt>
      <trkpt lat="46.98846" lon="3.57178">
        <ele>235</ele>
        <time>2022-06-25T06:28:18.000Z</time>
      </trkpt>
      <trkpt lat="46.98839" lon="3.57191">
        <ele>235</ele>
        <time>2022-06-25T06:28:20.000Z</time>
      </trkpt>
      <trkpt lat="46.98805" lon="3.57254">
        <ele>234.60000610352</ele>
        <time>2022-06-25T06:28:29.000Z</time>
      </trkpt>
      <trkpt lat="46.98802" lon="3.57262">
        <ele>234.39999389648</ele>
        <time>2022-06-25T06:28:30.000Z</time>
      </trkpt>
      <trkpt lat="46.98779" lon="3.57306">
        <ele>233.60000610352</ele>
        <time>2022-06-25T06:28:36.000Z</time>
      </trkpt>
      <trkpt lat="46.98762" lon="3.57337">
        <ele>233</ele>
        <time>2022-06-25T06:28:40.000Z</time>
      </trkpt>
      <trkpt lat="46.98731" lon="3.57397">
        <ele>233</ele>
        <time>2022-06-25T06:28:48.000Z</time>
      </trkpt>
      <trkpt lat="46.98724" lon="3.57412">
        <ele>233.39999389648</ele>
        <time>2022-06-25T06:28:50.000Z</time>
      </trkpt>
      <trkpt lat="46.98691" lon="3.57475">
        <ele>235.60000610352</ele>
        <time>2022-06-25T06:28:59.000Z</time>
      </trkpt>
      <trkpt lat="46.98685" lon="3.57488">
        <ele>236.39999389648</ele>
        <time>2022-06-25T06:29:01.000Z</time>
      </trkpt>
      <trkpt lat="46.98666" lon="3.57524">
        <ele>237.80000305176</ele>
        <time>2022-06-25T06:29:07.000Z</time>
      </trkpt>
      <trkpt lat="46.98663" lon="3.57529">
        <ele>238</ele>
        <time>2022-06-25T06:29:08.000Z</time>
      </trkpt>
      <trkpt lat="46.98645" lon="3.57564">
        <ele>238</ele>
        <time>2022-06-25T06:29:14.000Z</time>
      </trkpt>
      <trkpt lat="46.9864" lon="3.57575">
        <ele>238</ele>
        <time>2022-06-25T06:29:16.000Z</time>
      </trkpt>
      <trkpt lat="46.98632" lon="3.57593">
        <ele>238.19999694824</ele>
        <time>2022-06-25T06:29:19.000Z</time>
      </trkpt>
      <trkpt lat="46.98617" lon="3.5762">
        <ele>238.39999389648</ele>
        <time>2022-06-25T06:29:24.000Z</time>
      </trkpt>
      <trkpt lat="46.98614" lon="3.57626">
        <ele>238.80000305176</ele>
        <time>2022-06-25T06:29:25.000Z</time>
      </trkpt>
      <trkpt lat="46.98602" lon="3.57648">
        <ele>240.39999389648</ele>
        <time>2022-06-25T06:29:29.000Z</time>
      </trkpt>
      <trkpt lat="46.98588" lon="3.57676">
        <ele>242.80000305176</ele>
        <time>2022-06-25T06:29:34.000Z</time>
      </trkpt>
      <trkpt lat="46.98585" lon="3.57681">
        <ele>243.39999389648</ele>
        <time>2022-06-25T06:29:35.000Z</time>
      </trkpt>
      <trkpt lat="46.98573" lon="3.57702">
        <ele>245.60000610352</ele>
        <time>2022-06-25T06:29:39.000Z</time>
      </trkpt>
      <trkpt lat="46.9856" lon="3.57724">
        <ele>247.60000610352</ele>
        <time>2022-06-25T06:29:43.000Z</time>
      </trkpt>
      <trkpt lat="46.98552" lon="3.57733">
        <ele>248.19999694824</ele>
        <time>2022-06-25T06:29:45.000Z</time>
      </trkpt>
      <trkpt lat="46.98538" lon="3.57743">
        <ele>248.80000305176</ele>
        <time>2022-06-25T06:29:48.000Z</time>
      </trkpt>
      <trkpt lat="46.98528" lon="3.57748">
        <ele>248.80000305176</ele>
        <time>2022-06-25T06:29:50.000Z</time>
      </trkpt>
      <trkpt lat="46.98508" lon="3.57755">
        <ele>248.19999694824</ele>
        <time>2022-06-25T06:29:54.000Z</time>
      </trkpt>
      <trkpt lat="46.98503" lon="3.57756">
        <ele>248.39999389648</ele>
        <time>2022-06-25T06:29:55.000Z</time>
      </trkpt>
      <trkpt lat="46.98478" lon="3.57764">
        <ele>249.60000610352</ele>
        <time>2022-06-25T06:30:00.000Z</time>
      </trkpt>
      <trkpt lat="46.98463" lon="3.57768">
        <ele>251</ele>
        <time>2022-06-25T06:30:03.000Z</time>
      </trkpt>
      <trkpt lat="46.98443" lon="3.57774">
        <ele>252.39999389648</ele>
        <time>2022-06-25T06:30:07.000Z</time>
      </trkpt>
      <trkpt lat="46.98413" lon="3.57781">
        <ele>252</ele>
        <time>2022-06-25T06:30:13.000Z</time>
      </trkpt>
      <trkpt lat="46.98408" lon="3.57783">
        <ele>251.80000305176</ele>
        <time>2022-06-25T06:30:14.000Z</time>
      </trkpt>
      <trkpt lat="46.98368" lon="3.57794">
        <ele>251.60000610352</ele>
        <time>2022-06-25T06:30:22.000Z</time>
      </trkpt>
      <trkpt lat="46.98342" lon="3.57802">
        <ele>252.19999694824</ele>
        <time>2022-06-25T06:30:27.000Z</time>
      </trkpt>
      <trkpt lat="46.9831" lon="3.57812">
        <ele>252.39999389648</ele>
        <time>2022-06-25T06:30:33.000Z</time>
      </trkpt>
      <trkpt lat="46.98299" lon="3.57815">
        <ele>252.39999389648</ele>
        <time>2022-06-25T06:30:35.000Z</time>
      </trkpt>
      <trkpt lat="46.98245" lon="3.57831">
        <ele>253.60000610352</ele>
        <time>2022-06-25T06:30:45.000Z</time>
      </trkpt>
      <trkpt lat="46.98239" lon="3.57832">
        <ele>253.60000610352</ele>
        <time>2022-06-25T06:30:46.000Z</time>
      </trkpt>
      <trkpt lat="46.98228" lon="3.57835">
        <ele>253.60000610352</ele>
        <time>2022-06-25T06:30:48.000Z</time>
      </trkpt>
      <trkpt lat="46.98181" lon="3.57847">
        <ele>253.80000305176</ele>
        <time>2022-06-25T06:30:56.000Z</time>
      </trkpt>
      <trkpt lat="46.98137" lon="3.57861">
        <ele>257.20001220703</ele>
        <time>2022-06-25T06:31:04.000Z</time>
      </trkpt>
      <trkpt lat="46.98126" lon="3.57863">
        <ele>258</ele>
        <time>2022-06-25T06:31:06.000Z</time>
      </trkpt>
      <trkpt lat="46.98099" lon="3.5787">
        <ele>261.39999389648</ele>
        <time>2022-06-25T06:31:11.000Z</time>
      </trkpt>
      <trkpt lat="46.98084" lon="3.57876">
        <ele>262.79998779297</ele>
        <time>2022-06-25T06:31:14.000Z</time>
      </trkpt>
      <trkpt lat="46.98068" lon="3.57883">
        <ele>263.79998779297</ele>
        <time>2022-06-25T06:31:17.000Z</time>
      </trkpt>
      <trkpt lat="46.98047" lon="3.57889">
        <ele>264</ele>
        <time>2022-06-25T06:31:21.000Z</time>
      </trkpt>
      <trkpt lat="46.98036" lon="3.57891">
        <ele>264</ele>
        <time>2022-06-25T06:31:23.000Z</time>
      </trkpt>
      <trkpt lat="46.98" lon="3.579">
        <ele>265.20001220703</ele>
        <time>2022-06-25T06:31:29.000Z</time>
      </trkpt>
      <trkpt lat="46.97982" lon="3.57904">
        <ele>266.60000610352</ele>
        <time>2022-06-25T06:31:33.000Z</time>
      </trkpt>
      <trkpt lat="46.97976" lon="3.57906">
        <ele>267</ele>
        <time>2022-06-25T06:31:34.000Z</time>
      </trkpt>
      <trkpt lat="46.97957" lon="3.57914">
        <ele>267</ele>
        <time>2022-06-25T06:31:37.000Z</time>
      </trkpt>
      <trkpt lat="46.97952" lon="3.57916">
        <ele>266.79998779297</ele>
        <time>2022-06-25T06:31:38.000Z</time>
      </trkpt>
      <trkpt lat="46.97941" lon="3.5792">
        <ele>266.39999389648</ele>
        <time>2022-06-25T06:31:40.000Z</time>
      </trkpt>
      <trkpt lat="46.9792" lon="3.57929">
        <ele>266.39999389648</ele>
        <time>2022-06-25T06:31:44.000Z</time>
      </trkpt>
      <trkpt lat="46.97888" lon="3.57944">
        <ele>266.39999389648</ele>
        <time>2022-06-25T06:31:50.000Z</time>
      </trkpt>
      <trkpt lat="46.97864" lon="3.57951">
        <ele>266.20001220703</ele>
        <time>2022-06-25T06:31:54.000Z</time>
      </trkpt>
      <trkpt lat="46.97851" lon="3.57954">
        <ele>266.20001220703</ele>
        <time>2022-06-25T06:31:56.000Z</time>
      </trkpt>
      <trkpt lat="46.97845" lon="3.57955">
        <ele>266</ele>
        <time>2022-06-25T06:31:57.000Z</time>
      </trkpt>
      <trkpt lat="46.97834" lon="3.57955">
        <ele>265.60000610352</ele>
        <time>2022-06-25T06:31:59.000Z</time>
      </trkpt>
      <trkpt lat="46.97828" lon="3.57955">
        <ele>265.39999389648</ele>
        <time>2022-06-25T06:32:00.000Z</time>
      </trkpt>
      <trkpt lat="46.97783" lon="3.57955">
        <ele>264</ele>
        <time>2022-06-25T06:32:07.000Z</time>
      </trkpt>
      <trkpt lat="46.9777" lon="3.57954">
        <ele>264</ele>
        <time>2022-06-25T06:32:09.000Z</time>
      </trkpt>
      <trkpt lat="46.9775" lon="3.57954">
        <ele>262.79998779297</ele>
        <time>2022-06-25T06:32:12.000Z</time>
      </trkpt>
      <trkpt lat="46.97744" lon="3.57954">
        <ele>262.39999389648</ele>
        <time>2022-06-25T06:32:13.000Z</time>
      </trkpt>
      <trkpt lat="46.97722" lon="3.57956">
        <ele>260.60000610352</ele>
        <time>2022-06-25T06:32:17.000Z</time>
      </trkpt>
      <trkpt lat="46.97715" lon="3.57955">
        <ele>259.79998779297</ele>
        <time>2022-06-25T06:32:18.000Z</time>
      </trkpt>
      <trkpt lat="46.97709" lon="3.57956">
        <ele>259.20001220703</ele>
        <time>2022-06-25T06:32:19.000Z</time>
      </trkpt>
      <trkpt lat="46.9769" lon="3.5796">
        <ele>257</ele>
        <time>2022-06-25T06:32:22.000Z</time>
      </trkpt>
      <trkpt lat="46.97671" lon="3.57968">
        <ele>254</ele>
        <time>2022-06-25T06:32:25.000Z</time>
      </trkpt>
      <trkpt lat="46.97651" lon="3.57977">
        <ele>252</ele>
        <time>2022-06-25T06:32:28.000Z</time>
      </trkpt>
      <trkpt lat="46.97626" lon="3.5799">
        <ele>250.60000610352</ele>
        <time>2022-06-25T06:32:32.000Z</time>
      </trkpt>
      <trkpt lat="46.97604" lon="3.58001">
        <ele>251</ele>
        <time>2022-06-25T06:32:35.000Z</time>
      </trkpt>
      <trkpt lat="46.9757" lon="3.58018">
        <ele>251</ele>
        <time>2022-06-25T06:32:40.000Z</time>
      </trkpt>
      <trkpt lat="46.97528" lon="3.58039">
        <ele>249.19999694824</ele>
        <time>2022-06-25T06:32:46.000Z</time>
      </trkpt>
      <trkpt lat="46.97521" lon="3.58042">
        <ele>249</ele>
        <time>2022-06-25T06:32:47.000Z</time>
      </trkpt>
      <trkpt lat="46.97507" lon="3.5805">
        <ele>249</ele>
        <time>2022-06-25T06:32:49.000Z</time>
      </trkpt>
      <trkpt lat="46.9748" lon="3.58065">
        <ele>247.80000305176</ele>
        <time>2022-06-25T06:32:53.000Z</time>
      </trkpt>
      <trkpt lat="46.9746" lon="3.58076">
        <ele>247.39999389648</ele>
        <time>2022-06-25T06:32:56.000Z</time>
      </trkpt>
      <trkpt lat="46.97433" lon="3.58092">
        <ele>246.80000305176</ele>
        <time>2022-06-25T06:33:00.000Z</time>
      </trkpt>
      <trkpt lat="46.97406" lon="3.58108">
        <ele>247</ele>
        <time>2022-06-25T06:33:04.000Z</time>
      </trkpt>
      <trkpt lat="46.97393" lon="3.58117">
        <ele>246.80000305176</ele>
        <time>2022-06-25T06:33:06.000Z</time>
      </trkpt>
      <trkpt lat="46.97345" lon="3.58144">
        <ele>244.80000305176</ele>
        <time>2022-06-25T06:33:13.000Z</time>
      </trkpt>
      <trkpt lat="46.97332" lon="3.58153">
        <ele>244</ele>
        <time>2022-06-25T06:33:15.000Z</time>
      </trkpt>
      <trkpt lat="46.97277" lon="3.5819">
        <ele>242.80000305176</ele>
        <time>2022-06-25T06:33:23.000Z</time>
      </trkpt>
      <trkpt lat="46.97271" lon="3.58195">
        <ele>242.39999389648</ele>
        <time>2022-06-25T06:33:24.000Z</time>
      </trkpt>
      <trkpt lat="46.97232" lon="3.5823">
        <ele>239.80000305176</ele>
        <time>2022-06-25T06:33:30.000Z</time>
      </trkpt>
      <trkpt lat="46.97226" lon="3.58236">
        <ele>239.60000610352</ele>
        <time>2022-06-25T06:33:31.000Z</time>
      </trkpt>
      <trkpt lat="46.97203" lon="3.58263">
        <ele>238.39999389648</ele>
        <time>2022-06-25T06:33:35.000Z</time>
      </trkpt>
      <trkpt lat="46.97186" lon="3.58284">
        <ele>238</ele>
        <time>2022-06-25T06:33:38.000Z</time>
      </trkpt>
      <trkpt lat="46.97175" lon="3.58298">
        <ele>237.80000305176</ele>
        <time>2022-06-25T06:33:40.000Z</time>
      </trkpt>
      <trkpt lat="46.97135" lon="3.58348">
        <ele>236</ele>
        <time>2022-06-25T06:33:47.000Z</time>
      </trkpt>
      <trkpt lat="46.97123" lon="3.58362">
        <ele>236</ele>
        <time>2022-06-25T06:33:49.000Z</time>
      </trkpt>
      <trkpt lat="46.97094" lon="3.58398">
        <ele>236</ele>
        <time>2022-06-25T06:33:54.000Z</time>
      </trkpt>
      <trkpt lat="46.97072" lon="3.58425">
        <ele>236.19999694824</ele>
        <time>2022-06-25T06:33:58.000Z</time>
      </trkpt>
      <trkpt lat="46.97029" lon="3.58479">
        <ele>235.60000610352</ele>
        <time>2022-06-25T06:34:06.000Z</time>
      </trkpt>
      <trkpt lat="46.96986" lon="3.58531">
        <ele>236</ele>
        <time>2022-06-25T06:34:14.000Z</time>
      </trkpt>
      <trkpt lat="46.96981" lon="3.58537">
        <ele>235.80000305176</ele>
        <time>2022-06-25T06:34:15.000Z</time>
      </trkpt>
      <trkpt lat="46.9697" lon="3.5855">
        <ele>235.80000305176</ele>
        <time>2022-06-25T06:34:17.000Z</time>
      </trkpt>
      <trkpt lat="46.96929" lon="3.58604">
        <ele>235.60000610352</ele>
        <time>2022-06-25T06:34:25.000Z</time>
      </trkpt>
      <trkpt lat="46.96925" lon="3.58612">
        <ele>235</ele>
        <time>2022-06-25T06:34:26.000Z</time>
      </trkpt>
      <trkpt lat="46.96921" lon="3.58621">
        <ele>234.80000305176</ele>
        <time>2022-06-25T06:34:27.000Z</time>
      </trkpt>
      <trkpt lat="46.96919" lon="3.58632">
        <ele>234.39999389648</ele>
        <time>2022-06-25T06:34:28.000Z</time>
      </trkpt>
      <trkpt lat="46.96918" lon="3.58642">
        <ele>234</ele>
        <time>2022-06-25T06:34:29.000Z</time>
      </trkpt>
      <trkpt lat="46.96918" lon="3.58654">
        <ele>233.60000610352</ele>
        <time>2022-06-25T06:34:30.000Z</time>
      </trkpt>
      <trkpt lat="46.96921" lon="3.58678">
        <ele>232.60000610352</ele>
        <time>2022-06-25T06:34:32.000Z</time>
      </trkpt>
      <trkpt lat="46.96923" lon="3.58689">
        <ele>232.19999694824</ele>
        <time>2022-06-25T06:34:33.000Z</time>
      </trkpt>
      <trkpt lat="46.96925" lon="3.587">
        <ele>232</ele>
        <time>2022-06-25T06:34:34.000Z</time>
      </trkpt>
      <trkpt lat="46.96925" lon="3.58721">
        <ele>232</ele>
        <time>2022-06-25T06:34:36.000Z</time>
      </trkpt>
      <trkpt lat="46.96915" lon="3.58749">
        <ele>231.60000610352</ele>
        <time>2022-06-25T06:34:39.000Z</time>
      </trkpt>
      <trkpt lat="46.96903" lon="3.58775">
        <ele>232</ele>
        <time>2022-06-25T06:34:42.000Z</time>
      </trkpt>
      <trkpt lat="46.96894" lon="3.58791">
        <ele>231.80000305176</ele>
        <time>2022-06-25T06:34:44.000Z</time>
      </trkpt>
      <trkpt lat="46.96886" lon="3.58806">
        <ele>231.39999389648</ele>
        <time>2022-06-25T06:34:46.000Z</time>
      </trkpt>
      <trkpt lat="46.96864" lon="3.58849">
        <ele>229.80000305176</ele>
        <time>2022-06-25T06:34:52.000Z</time>
      </trkpt>
      <trkpt lat="46.96831" lon="3.58913">
        <ele>227.80000305176</ele>
        <time>2022-06-25T06:35:01.000Z</time>
      </trkpt>
      <trkpt lat="46.96801" lon="3.58969">
        <ele>227.19999694824</ele>
        <time>2022-06-25T06:35:09.000Z</time>
      </trkpt>
      <trkpt lat="46.96797" lon="3.58976">
        <ele>227</ele>
        <time>2022-06-25T06:35:10.000Z</time>
      </trkpt>
      <trkpt lat="46.96772" lon="3.59026">
        <ele>227.60000610352</ele>
        <time>2022-06-25T06:35:17.000Z</time>
      </trkpt>
      <trkpt lat="46.96766" lon="3.5904">
        <ele>227.60000610352</ele>
        <time>2022-06-25T06:35:19.000Z</time>
      </trkpt>
      <trkpt lat="46.96752" lon="3.5906">
        <ele>226</ele>
        <time>2022-06-25T06:35:22.000Z</time>
      </trkpt>
      <trkpt lat="46.96737" lon="3.59083">
        <ele>224.19999694824</ele>
        <time>2022-06-25T06:35:25.000Z</time>
      </trkpt>
      <trkpt lat="46.96727" lon="3.59099">
        <ele>223.19999694824</ele>
        <time>2022-06-25T06:35:27.000Z</time>
      </trkpt>
      <trkpt lat="46.96704" lon="3.59133">
        <ele>222</ele>
        <time>2022-06-25T06:35:31.000Z</time>
      </trkpt>
      <trkpt lat="46.96699" lon="3.59143">
        <ele>221.60000610352</ele>
        <time>2022-06-25T06:35:32.000Z</time>
      </trkpt>
      <trkpt lat="46.96694" lon="3.59153">
        <ele>221.60000610352</ele>
        <time>2022-06-25T06:35:33.000Z</time>
      </trkpt>
      <trkpt lat="46.9669" lon="3.59162">
        <ele>221</ele>
        <time>2022-06-25T06:35:34.000Z</time>
      </trkpt>
      <trkpt lat="46.96677" lon="3.59197">
        <ele>218.80000305176</ele>
        <time>2022-06-25T06:35:38.000Z</time>
      </trkpt>
      <trkpt lat="46.96669" lon="3.59213">
        <ele>217.60000610352</ele>
        <time>2022-06-25T06:35:40.000Z</time>
      </trkpt>
      <trkpt lat="46.96661" lon="3.59224">
        <ele>216.60000610352</ele>
        <time>2022-06-25T06:35:42.000Z</time>
      </trkpt>
      <trkpt lat="46.96652" lon="3.59234">
        <ele>216</ele>
        <time>2022-06-25T06:35:45.000Z</time>
      </trkpt>
      <trkpt lat="46.96648" lon="3.59243">
        <ele>215.80000305176</ele>
        <time>2022-06-25T06:35:47.000Z</time>
      </trkpt>
      <trkpt lat="46.96648" lon="3.5925">
        <ele>215.80000305176</ele>
        <time>2022-06-25T06:35:48.000Z</time>
      </trkpt>
      <trkpt lat="46.96649" lon="3.59257">
        <ele>215.80000305176</ele>
        <time>2022-06-25T06:35:49.000Z</time>
      </trkpt>
      <trkpt lat="46.96655" lon="3.59289">
        <ele>215.80000305176</ele>
        <time>2022-06-25T06:35:53.000Z</time>
      </trkpt>
      <trkpt lat="46.96662" lon="3.59344">
        <ele>215.60000610352</ele>
        <time>2022-06-25T06:35:59.000Z</time>
      </trkpt>
      <trkpt lat="46.96661" lon="3.59373">
        <ele>215.60000610352</ele>
        <time>2022-06-25T06:36:02.000Z</time>
      </trkpt>
      <trkpt lat="46.96658" lon="3.59391">
        <ele>215.80000305176</ele>
        <time>2022-06-25T06:36:04.000Z</time>
      </trkpt>
      <trkpt lat="46.96652" lon="3.59416">
        <ele>215.19999694824</ele>
        <time>2022-06-25T06:36:07.000Z</time>
      </trkpt>
      <trkpt lat="46.96644" lon="3.59441">
        <ele>215</ele>
        <time>2022-06-25T06:36:10.000Z</time>
      </trkpt>
      <trkpt lat="46.96623" lon="3.59509">
        <ele>213.19999694824</ele>
        <time>2022-06-25T06:36:18.000Z</time>
      </trkpt>
      <trkpt lat="46.9661" lon="3.59551">
        <ele>214.39999389648</ele>
        <time>2022-06-25T06:36:23.000Z</time>
      </trkpt>
      <trkpt lat="46.96602" lon="3.59577">
        <ele>214.60000610352</ele>
        <time>2022-06-25T06:36:26.000Z</time>
      </trkpt>
      <trkpt lat="46.96578" lon="3.5965">
        <ele>214.60000610352</ele>
        <time>2022-06-25T06:36:35.000Z</time>
      </trkpt>
      <trkpt lat="46.96576" lon="3.59658">
        <ele>214.80000305176</ele>
        <time>2022-06-25T06:36:36.000Z</time>
      </trkpt>
      <trkpt lat="46.96555" lon="3.5973">
        <ele>216.60000610352</ele>
        <time>2022-06-25T06:36:45.000Z</time>
      </trkpt>
      <trkpt lat="46.96532" lon="3.59804">
        <ele>217.39999389648</ele>
        <time>2022-06-25T06:36:54.000Z</time>
      </trkpt>
      <trkpt lat="46.96523" lon="3.59837">
        <ele>215.80000305176</ele>
        <time>2022-06-25T06:36:58.000Z</time>
      </trkpt>
      <trkpt lat="46.96513" lon="3.59898">
        <ele>213</ele>
        <time>2022-06-25T06:37:05.000Z</time>
      </trkpt>
      <trkpt lat="46.96509" lon="3.59979">
        <ele>213.80000305176</ele>
        <time>2022-06-25T06:37:14.000Z</time>
      </trkpt>
      <trkpt lat="46.96509" lon="3.59988">
        <ele>213.80000305176</ele>
        <time>2022-06-25T06:37:15.000Z</time>
      </trkpt>
      <trkpt lat="46.96507" lon="3.60068">
        <ele>214.19999694824</ele>
        <time>2022-06-25T06:37:24.000Z</time>
      </trkpt>
      <trkpt lat="46.96506" lon="3.60094">
        <ele>214.80000305176</ele>
        <time>2022-06-25T06:37:27.000Z</time>
      </trkpt>
      <trkpt lat="46.96503" lon="3.60162">
        <ele>215.19999694824</ele>
        <time>2022-06-25T06:37:35.000Z</time>
      </trkpt>
      <trkpt lat="46.965" lon="3.6017">
        <ele>215</ele>
        <time>2022-06-25T06:37:36.000Z</time>
      </trkpt>
      <trkpt lat="46.96496" lon="3.60175">
        <ele>214.80000305176</ele>
        <time>2022-06-25T06:37:37.000Z</time>
      </trkpt>
      <trkpt lat="46.96486" lon="3.6018">
        <ele>214</ele>
        <time>2022-06-25T06:37:39.000Z</time>
      </trkpt>
      <trkpt lat="46.96442" lon="3.60183">
        <ele>214</ele>
        <time>2022-06-25T06:37:46.000Z</time>
      </trkpt>
      <trkpt lat="46.96382" lon="3.6019">
        <ele>212.19999694824</ele>
        <time>2022-06-25T06:37:55.000Z</time>
      </trkpt>
      <trkpt lat="46.96334" lon="3.60195">
        <ele>212</ele>
        <time>2022-06-25T06:38:02.000Z</time>
      </trkpt>
      <trkpt lat="46.96279" lon="3.60201">
        <ele>212</ele>
        <time>2022-06-25T06:38:10.000Z</time>
      </trkpt>
      <trkpt lat="46.96259" lon="3.60203">
        <ele>211.60000610352</ele>
        <time>2022-06-25T06:38:13.000Z</time>
      </trkpt>
      <trkpt lat="46.96232" lon="3.60206">
        <ele>210.80000305176</ele>
        <time>2022-06-25T06:38:17.000Z</time>
      </trkpt>
      <trkpt lat="46.96187" lon="3.60212">
        <ele>212.19999694824</ele>
        <time>2022-06-25T06:38:24.000Z</time>
      </trkpt>
      <trkpt lat="46.96128" lon="3.60218">
        <ele>216.60000610352</ele>
        <time>2022-06-25T06:38:33.000Z</time>
      </trkpt>
      <trkpt lat="46.96109" lon="3.60221">
        <ele>219.60000610352</ele>
        <time>2022-06-25T06:38:36.000Z</time>
      </trkpt>
      <trkpt lat="46.96098" lon="3.60226">
        <ele>221.60000610352</ele>
        <time>2022-06-25T06:38:38.000Z</time>
      </trkpt>
      <trkpt lat="46.96092" lon="3.6023">
        <ele>221.80000305176</ele>
        <time>2022-06-25T06:38:39.000Z</time>
      </trkpt>
      <trkpt lat="46.96069" lon="3.6025">
        <ele>221.19999694824</ele>
        <time>2022-06-25T06:38:44.000Z</time>
      </trkpt>
      <trkpt lat="46.96065" lon="3.60255">
        <ele>221.19999694824</ele>
        <time>2022-06-25T06:38:45.000Z</time>
      </trkpt>
      <trkpt lat="46.96055" lon="3.60271">
        <ele>220.60000610352</ele>
        <time>2022-06-25T06:38:48.000Z</time>
      </trkpt>
      <trkpt lat="46.96044" lon="3.60287">
        <ele>220.19999694824</ele>
        <time>2022-06-25T06:38:51.000Z</time>
      </trkpt>
      <trkpt lat="46.9603" lon="3.60308">
        <ele>220.39999389648</ele>
        <time>2022-06-25T06:38:55.000Z</time>
      </trkpt>
      <trkpt lat="46.96024" lon="3.60319">
        <ele>221.39999389648</ele>
        <time>2022-06-25T06:38:57.000Z</time>
      </trkpt>
      <trkpt lat="46.96008" lon="3.60343">
        <ele>221.19999694824</ele>
        <time>2022-06-25T06:39:02.000Z</time>
      </trkpt>
      <trkpt lat="46.96005" lon="3.60348">
        <ele>221.39999389648</ele>
        <time>2022-06-25T06:39:03.000Z</time>
      </trkpt>
      <trkpt lat="46.95994" lon="3.60363">
        <ele>222</ele>
        <time>2022-06-25T06:39:06.000Z</time>
      </trkpt>
      <trkpt lat="46.95981" lon="3.60382">
        <ele>222.60000610352</ele>
        <time>2022-06-25T06:39:10.000Z</time>
      </trkpt>
      <trkpt lat="46.95977" lon="3.60388">
        <ele>222.80000305176</ele>
        <time>2022-06-25T06:39:11.000Z</time>
      </trkpt>
      <trkpt lat="46.95955" lon="3.60414">
        <ele>223.39999389648</ele>
        <time>2022-06-25T06:39:17.000Z</time>
      </trkpt>
      <trkpt lat="46.95935" lon="3.60443">
        <ele>224</ele>
        <time>2022-06-25T06:39:23.000Z</time>
      </trkpt>
      <trkpt lat="46.95932" lon="3.60449">
        <ele>223.80000305176</ele>
        <time>2022-06-25T06:39:24.000Z</time>
      </trkpt>
      <trkpt lat="46.9592" lon="3.60466">
        <ele>224.39999389648</ele>
        <time>2022-06-25T06:39:28.000Z</time>
      </trkpt>
      <trkpt lat="46.95913" lon="3.60477">
        <ele>224</ele>
        <time>2022-06-25T06:39:29.000Z</time>
      </trkpt>
      <trkpt lat="46.95883" lon="3.60525">
        <ele>223.19999694824</ele>
        <time>2022-06-25T06:39:36.000Z</time>
      </trkpt>
      <trkpt lat="46.95847" lon="3.60566">
        <ele>223</ele>
        <time>2022-06-25T06:39:44.000Z</time>
      </trkpt>
      <trkpt lat="46.95805" lon="3.60598">
        <ele>224.39999389648</ele>
        <time>2022-06-25T06:39:53.000Z</time>
      </trkpt>
      <trkpt lat="46.95782" lon="3.60616">
        <ele>225.19999694824</ele>
        <time>2022-06-25T06:39:58.000Z</time>
      </trkpt>
      <trkpt lat="46.95759" lon="3.60632">
        <ele>226.39999389648</ele>
        <time>2022-06-25T06:40:03.000Z</time>
      </trkpt>
      <trkpt lat="46.95736" lon="3.60649">
        <ele>226.80000305176</ele>
        <time>2022-06-25T06:40:08.000Z</time>
      </trkpt>
      <trkpt lat="46.95713" lon="3.60666">
        <ele>227</ele>
        <time>2022-06-25T06:40:13.000Z</time>
      </trkpt>
      <trkpt lat="46.95694" lon="3.6068">
        <ele>227.19999694824</ele>
        <time>2022-06-25T06:40:17.000Z</time>
      </trkpt>
      <trkpt lat="46.95673" lon="3.60692">
        <ele>227</ele>
        <time>2022-06-25T06:40:21.000Z</time>
      </trkpt>
      <trkpt lat="46.9565" lon="3.60697">
        <ele>226</ele>
        <time>2022-06-25T06:40:25.000Z</time>
      </trkpt>
      <trkpt lat="46.95644" lon="3.60696">
        <ele>226</ele>
        <time>2022-06-25T06:40:26.000Z</time>
      </trkpt>
      <trkpt lat="46.95638" lon="3.60694">
        <ele>226</ele>
        <time>2022-06-25T06:40:27.000Z</time>
      </trkpt>
      <trkpt lat="46.95628" lon="3.60686">
        <ele>226</ele>
        <time>2022-06-25T06:40:29.000Z</time>
      </trkpt>
      <trkpt lat="46.95623" lon="3.6068">
        <ele>226</ele>
        <time>2022-06-25T06:40:30.000Z</time>
      </trkpt>
      <trkpt lat="46.95598" lon="3.60638">
        <ele>227.39999389648</ele>
        <time>2022-06-25T06:40:37.000Z</time>
      </trkpt>
      <trkpt lat="46.95573" lon="3.60593">
        <ele>229.60000610352</ele>
        <time>2022-06-25T06:40:45.000Z</time>
      </trkpt>
      <trkpt lat="46.9556" lon="3.60573">
        <ele>230.60000610352</ele>
        <time>2022-06-25T06:40:49.000Z</time>
      </trkpt>
      <trkpt lat="46.95557" lon="3.60568">
        <ele>231</ele>
        <time>2022-06-25T06:40:50.000Z</time>
      </trkpt>
      <trkpt lat="46.95554" lon="3.60562">
        <ele>231.19999694824</ele>
        <time>2022-06-25T06:40:51.000Z</time>
      </trkpt>
      <trkpt lat="46.95541" lon="3.6054">
        <ele>231.60000610352</ele>
        <time>2022-06-25T06:40:55.000Z</time>
      </trkpt>
      <trkpt lat="46.95525" lon="3.60513">
        <ele>231.60000610352</ele>
        <time>2022-06-25T06:41:00.000Z</time>
      </trkpt>
      <trkpt lat="46.955" lon="3.6047">
        <ele>233</ele>
        <time>2022-06-25T06:41:07.000Z</time>
      </trkpt>
      <trkpt lat="46.95493" lon="3.60457">
        <ele>233.60000610352</ele>
        <time>2022-06-25T06:41:09.000Z</time>
      </trkpt>
      <trkpt lat="46.95462" lon="3.60404">
        <ele>234</ele>
        <time>2022-06-25T06:41:17.000Z</time>
      </trkpt>
      <trkpt lat="46.95436" lon="3.60359">
        <ele>233.19999694824</ele>
        <time>2022-06-25T06:41:24.000Z</time>
      </trkpt>
      <trkpt lat="46.95405" lon="3.60306">
        <ele>234.19999694824</ele>
        <time>2022-06-25T06:41:33.000Z</time>
      </trkpt>
      <trkpt lat="46.95393" lon="3.60283">
        <ele>234.60000610352</ele>
        <time>2022-06-25T06:41:37.000Z</time>
      </trkpt>
      <trkpt lat="46.95384" lon="3.60267">
        <ele>234.80000305176</ele>
        <time>2022-06-25T06:41:40.000Z</time>
      </trkpt>
      <trkpt lat="46.95377" lon="3.60256">
        <ele>235</ele>
        <time>2022-06-25T06:41:42.000Z</time>
      </trkpt>
      <trkpt lat="46.95359" lon="3.60224">
        <ele>235.39999389648</ele>
        <time>2022-06-25T06:41:48.000Z</time>
      </trkpt>
      <trkpt lat="46.95338" lon="3.60191">
        <ele>236</ele>
        <time>2022-06-25T06:41:54.000Z</time>
      </trkpt>
      <trkpt lat="46.95332" lon="3.6018">
        <ele>236.19999694824</ele>
        <time>2022-06-25T06:41:56.000Z</time>
      </trkpt>
      <trkpt lat="46.95319" lon="3.60159">
        <ele>236.80000305176</ele>
        <time>2022-06-25T06:42:00.000Z</time>
      </trkpt>
      <trkpt lat="46.95306" lon="3.60139">
        <ele>238.19999694824</ele>
        <time>2022-06-25T06:42:04.000Z</time>
      </trkpt>
      <trkpt lat="46.95302" lon="3.60134">
        <ele>238.60000610352</ele>
        <time>2022-06-25T06:42:05.000Z</time>
      </trkpt>
      <trkpt lat="46.9528" lon="3.60105">
        <ele>240.39999389648</ele>
        <time>2022-06-25T06:42:11.000Z</time>
      </trkpt>
      <trkpt lat="46.95276" lon="3.601">
        <ele>240.60000610352</ele>
        <time>2022-06-25T06:42:12.000Z</time>
      </trkpt>
      <trkpt lat="46.95251" lon="3.60073">
        <ele>241</ele>
        <time>2022-06-25T06:42:18.000Z</time>
      </trkpt>
      <trkpt lat="46.95222" lon="3.60042">
        <ele>241.60000610352</ele>
        <time>2022-06-25T06:42:25.000Z</time>
      </trkpt>
      <trkpt lat="46.95213" lon="3.60032">
        <ele>242</ele>
        <time>2022-06-25T06:42:27.000Z</time>
      </trkpt>
      <trkpt lat="46.95181" lon="3.59999">
        <ele>243</ele>
        <time>2022-06-25T06:42:34.000Z</time>
      </trkpt>
      <trkpt lat="46.9514" lon="3.59954">
        <ele>244.39999389648</ele>
        <time>2022-06-25T06:42:43.000Z</time>
      </trkpt>
      <trkpt lat="46.95095" lon="3.59907">
        <ele>243.60000610352</ele>
        <time>2022-06-25T06:42:52.000Z</time>
      </trkpt>
      <trkpt lat="46.95091" lon="3.59901">
        <ele>243.39999389648</ele>
        <time>2022-06-25T06:42:53.000Z</time>
      </trkpt>
      <trkpt lat="46.95059" lon="3.59869">
        <ele>243</ele>
        <time>2022-06-25T06:43:00.000Z</time>
      </trkpt>
      <trkpt lat="46.95033" lon="3.59843">
        <ele>243.60000610352</ele>
        <time>2022-06-25T06:43:06.000Z</time>
      </trkpt>
      <trkpt lat="46.95029" lon="3.59839">
        <ele>243.80000305176</ele>
        <time>2022-06-25T06:43:07.000Z</time>
      </trkpt>
      <trkpt lat="46.95009" lon="3.59817">
        <ele>245.19999694824</ele>
        <time>2022-06-25T06:43:12.000Z</time>
      </trkpt>
      <trkpt lat="46.94993" lon="3.59801">
        <ele>245.80000305176</ele>
        <time>2022-06-25T06:43:16.000Z</time>
      </trkpt>
      <trkpt lat="46.94977" lon="3.59783">
        <ele>246.60000610352</ele>
        <time>2022-06-25T06:43:20.000Z</time>
      </trkpt>
      <trkpt lat="46.94948" lon="3.59754">
        <ele>248.60000610352</ele>
        <time>2022-06-25T06:43:27.000Z</time>
      </trkpt>
      <trkpt lat="46.94927" lon="3.59732">
        <ele>250.19999694824</ele>
        <time>2022-06-25T06:43:32.000Z</time>
      </trkpt>
      <trkpt lat="46.94915" lon="3.59719">
        <ele>251</ele>
        <time>2022-06-25T06:43:35.000Z</time>
      </trkpt>
      <trkpt lat="46.94911" lon="3.59715">
        <ele>251.19999694824</ele>
        <time>2022-06-25T06:43:36.000Z</time>
      </trkpt>
      <trkpt lat="46.94892" lon="3.59694">
        <ele>252.39999389648</ele>
        <time>2022-06-25T06:43:41.000Z</time>
      </trkpt>
      <trkpt lat="46.94871" lon="3.59674">
        <ele>254</ele>
        <time>2022-06-25T06:43:46.000Z</time>
      </trkpt>
      <trkpt lat="46.94868" lon="3.5967">
        <ele>254.19999694824</ele>
        <time>2022-06-25T06:43:47.000Z</time>
      </trkpt>
      <trkpt lat="46.94848" lon="3.59647">
        <ele>255</ele>
        <time>2022-06-25T06:43:52.000Z</time>
      </trkpt>
      <trkpt lat="46.94831" lon="3.59631">
        <ele>255.60000610352</ele>
        <time>2022-06-25T06:43:56.000Z</time>
      </trkpt>
      <trkpt lat="46.94812" lon="3.5961">
        <ele>256.20001220703</ele>
        <time>2022-06-25T06:44:01.000Z</time>
      </trkpt>
      <trkpt lat="46.94796" lon="3.59593">
        <ele>256.79998779297</ele>
        <time>2022-06-25T06:44:05.000Z</time>
      </trkpt>
      <trkpt lat="46.94792" lon="3.59588">
        <ele>257</ele>
        <time>2022-06-25T06:44:06.000Z</time>
      </trkpt>
      <trkpt lat="46.94768" lon="3.59563">
        <ele>257.79998779297</ele>
        <time>2022-06-25T06:44:12.000Z</time>
      </trkpt>
      <trkpt lat="46.9476" lon="3.59556">
        <ele>258</ele>
        <time>2022-06-25T06:44:14.000Z</time>
      </trkpt>
      <trkpt lat="46.94727" lon="3.5952">
        <ele>258.20001220703</ele>
        <time>2022-06-25T06:44:22.000Z</time>
      </trkpt>
      <trkpt lat="46.94718" lon="3.59511">
        <ele>258.60000610352</ele>
        <time>2022-06-25T06:44:24.000Z</time>
      </trkpt>
      <trkpt lat="46.94682" lon="3.59474">
        <ele>258.20001220703</ele>
        <time>2022-06-25T06:44:32.000Z</time>
      </trkpt>
      <trkpt lat="46.9465" lon="3.59439">
        <ele>258</ele>
        <time>2022-06-25T06:44:39.000Z</time>
      </trkpt>
      <trkpt lat="46.94603" lon="3.59388">
        <ele>257.20001220703</ele>
        <time>2022-06-25T06:44:49.000Z</time>
      </trkpt>
      <trkpt lat="46.94597" lon="3.59383">
        <ele>257.39999389648</ele>
        <time>2022-06-25T06:44:50.000Z</time>
      </trkpt>
      <trkpt lat="46.9456" lon="3.59343">
        <ele>258.20001220703</ele>
        <time>2022-06-25T06:44:58.000Z</time>
      </trkpt>
      <trkpt lat="46.94512" lon="3.5929">
        <ele>257.39999389648</ele>
        <time>2022-06-25T06:45:08.000Z</time>
      </trkpt>
      <trkpt lat="46.94507" lon="3.59285">
        <ele>257.20001220703</ele>
        <time>2022-06-25T06:45:09.000Z</time>
      </trkpt>
      <trkpt lat="46.94502" lon="3.5928">
        <ele>257</ele>
        <time>2022-06-25T06:45:10.000Z</time>
      </trkpt>
      <trkpt lat="46.94493" lon="3.5927">
        <ele>257</ele>
        <time>2022-06-25T06:45:12.000Z</time>
      </trkpt>
      <trkpt lat="46.94478" lon="3.59254">
        <ele>257.20001220703</ele>
        <time>2022-06-25T06:45:15.000Z</time>
      </trkpt>
      <trkpt lat="46.94468" lon="3.59244">
        <ele>257.20001220703</ele>
        <time>2022-06-25T06:45:17.000Z</time>
      </trkpt>
      <trkpt lat="46.94436" lon="3.59209">
        <ele>257</ele>
        <time>2022-06-25T06:45:24.000Z</time>
      </trkpt>
      <trkpt lat="46.94422" lon="3.59195">
        <ele>257</ele>
        <time>2022-06-25T06:45:27.000Z</time>
      </trkpt>
      <trkpt lat="46.94407" lon="3.59187">
        <ele>257</ele>
        <time>2022-06-25T06:45:30.000Z</time>
      </trkpt>
      <trkpt lat="46.94397" lon="3.59184">
        <ele>256.79998779297</ele>
        <time>2022-06-25T06:45:32.000Z</time>
      </trkpt>
      <trkpt lat="46.9439" lon="3.59183">
        <ele>256.60000610352</ele>
        <time>2022-06-25T06:45:34.000Z</time>
      </trkpt>
      <trkpt lat="46.94387" lon="3.59183">
        <ele>256.60000610352</ele>
        <time>2022-06-25T06:45:37.000Z</time>
      </trkpt>
      <trkpt lat="46.94387" lon="3.59183">
        <ele>256.60000610352</ele>
        <time>2022-06-25T06:45:38.000Z</time>
      </trkpt>
      <trkpt lat="46.94387" lon="3.59183">
        <ele>256.60000610352</ele>
        <time>2022-06-25T06:45:58.000Z</time>
      </trkpt>
      <trkpt lat="46.94381" lon="3.59185">
        <ele>256.60000610352</ele>
        <time>2022-06-25T06:46:00.000Z</time>
      </trkpt>
      <trkpt lat="46.9436" lon="3.59198">
        <ele>256.60000610352</ele>
        <time>2022-06-25T06:46:05.000Z</time>
      </trkpt>
      <trkpt lat="46.94333" lon="3.59218">
        <ele>255</ele>
        <time>2022-06-25T06:46:10.000Z</time>
      </trkpt>
      <trkpt lat="46.94308" lon="3.59235">
        <ele>254.39999389648</ele>
        <time>2022-06-25T06:46:14.000Z</time>
      </trkpt>
      <trkpt lat="46.94291" lon="3.59247">
        <ele>254</ele>
        <time>2022-06-25T06:46:17.000Z</time>
      </trkpt>
      <trkpt lat="46.9428" lon="3.59254">
        <ele>254.39999389648</ele>
        <time>2022-06-25T06:46:19.000Z</time>
      </trkpt>
      <trkpt lat="46.94226" lon="3.59281">
        <ele>255</ele>
        <time>2022-06-25T06:46:28.000Z</time>
      </trkpt>
      <trkpt lat="46.94185" lon="3.59289">
        <ele>255.60000610352</ele>
        <time>2022-06-25T06:46:35.000Z</time>
      </trkpt>
      <trkpt lat="46.94139" lon="3.59286">
        <ele>255.19999694824</ele>
        <time>2022-06-25T06:46:43.000Z</time>
      </trkpt>
      <trkpt lat="46.94096" lon="3.59273">
        <ele>255.19999694824</ele>
        <time>2022-06-25T06:46:51.000Z</time>
      </trkpt>
      <trkpt lat="46.94075" lon="3.59262">
        <ele>255.60000610352</ele>
        <time>2022-06-25T06:46:55.000Z</time>
      </trkpt>
      <trkpt lat="46.94059" lon="3.59253">
        <ele>255.60000610352</ele>
        <time>2022-06-25T06:46:58.000Z</time>
      </trkpt>
      <trkpt lat="46.9401" lon="3.59222">
        <ele>254</ele>
        <time>2022-06-25T06:47:07.000Z</time>
      </trkpt>
      <trkpt lat="46.93957" lon="3.59188">
        <ele>254.60000610352</ele>
        <time>2022-06-25T06:47:16.000Z</time>
      </trkpt>
      <trkpt lat="46.93951" lon="3.59184">
        <ele>255</ele>
        <time>2022-06-25T06:47:17.000Z</time>
      </trkpt>
      <trkpt lat="46.93904" lon="3.59156">
        <ele>256.60000610352</ele>
        <time>2022-06-25T06:47:24.000Z</time>
      </trkpt>
      <trkpt lat="46.93897" lon="3.59151">
        <ele>256.79998779297</ele>
        <time>2022-06-25T06:47:25.000Z</time>
      </trkpt>
      <trkpt lat="46.93871" lon="3.59135">
        <ele>257.60000610352</ele>
        <time>2022-06-25T06:47:29.000Z</time>
      </trkpt>
      <trkpt lat="46.93845" lon="3.59119">
        <ele>258.20001220703</ele>
        <time>2022-06-25T06:47:33.000Z</time>
      </trkpt>
      <trkpt lat="46.9379" lon="3.59086">
        <ele>255.19999694824</ele>
        <time>2022-06-25T06:47:42.000Z</time>
      </trkpt>
      <trkpt lat="46.93742" lon="3.59056">
        <ele>253.60000610352</ele>
        <time>2022-06-25T06:47:50.000Z</time>
      </trkpt>
      <trkpt lat="46.93724" lon="3.59045">
        <ele>253.60000610352</ele>
        <time>2022-06-25T06:47:53.000Z</time>
      </trkpt>
      <trkpt lat="46.93696" lon="3.59028">
        <ele>253.80000305176</ele>
        <time>2022-06-25T06:47:58.000Z</time>
      </trkpt>
      <trkpt lat="46.93663" lon="3.59006">
        <ele>253.80000305176</ele>
        <time>2022-06-25T06:48:04.000Z</time>
      </trkpt>
      <trkpt lat="46.93619" lon="3.58979">
        <ele>255</ele>
        <time>2022-06-25T06:48:12.000Z</time>
      </trkpt>
      <trkpt lat="46.93608" lon="3.58971">
        <ele>255</ele>
        <time>2022-06-25T06:48:14.000Z</time>
      </trkpt>
      <trkpt lat="46.9356" lon="3.58939">
        <ele>253.39999389648</ele>
        <time>2022-06-25T06:48:22.000Z</time>
      </trkpt>
      <trkpt lat="46.93507" lon="3.58912">
        <ele>250.60000610352</ele>
        <time>2022-06-25T06:48:30.000Z</time>
      </trkpt>
      <trkpt lat="46.9347" lon="3.58898">
        <ele>248</ele>
        <time>2022-06-25T06:48:35.000Z</time>
      </trkpt>
      <trkpt lat="46.93446" lon="3.5889">
        <ele>246.80000305176</ele>
        <time>2022-06-25T06:48:38.000Z</time>
      </trkpt>
      <trkpt lat="46.93431" lon="3.58884">
        <ele>246.60000610352</ele>
        <time>2022-06-25T06:48:40.000Z</time>
      </trkpt>
      <trkpt lat="46.93383" lon="3.58865">
        <ele>248</ele>
        <time>2022-06-25T06:48:47.000Z</time>
      </trkpt>
      <trkpt lat="46.93332" lon="3.58845">
        <ele>249.39999389648</ele>
        <time>2022-06-25T06:48:55.000Z</time>
      </trkpt>
      <trkpt lat="46.93275" lon="3.58822">
        <ele>251</ele>
        <time>2022-06-25T06:49:05.000Z</time>
      </trkpt>
      <trkpt lat="46.93222" lon="3.58801">
        <ele>252.39999389648</ele>
        <time>2022-06-25T06:49:14.000Z</time>
      </trkpt>
      <trkpt lat="46.93217" lon="3.58799">
        <ele>252.60000610352</ele>
        <time>2022-06-25T06:49:15.000Z</time>
      </trkpt>
      <trkpt lat="46.93163" lon="3.58776">
        <ele>251.80000305176</ele>
        <time>2022-06-25T06:49:24.000Z</time>
      </trkpt>
      <trkpt lat="46.93112" lon="3.58743">
        <ele>247.60000610352</ele>
        <time>2022-06-25T06:49:32.000Z</time>
      </trkpt>
      <trkpt lat="46.93085" lon="3.58724">
        <ele>246.19999694824</ele>
        <time>2022-06-25T06:49:36.000Z</time>
      </trkpt>
      <trkpt lat="46.93063" lon="3.58708">
        <ele>244.60000610352</ele>
        <time>2022-06-25T06:49:39.000Z</time>
      </trkpt>
      <trkpt lat="46.93039" lon="3.58692">
        <ele>242.80000305176</ele>
        <time>2022-06-25T06:49:42.000Z</time>
      </trkpt>
      <trkpt lat="46.93023" lon="3.58681">
        <ele>241.80000305176</ele>
        <time>2022-06-25T06:49:44.000Z</time>
      </trkpt>
      <trkpt lat="46.93009" lon="3.58671">
        <ele>241</ele>
        <time>2022-06-25T06:49:46.000Z</time>
      </trkpt>
      <trkpt lat="46.92995" lon="3.58662">
        <ele>241.19999694824</ele>
        <time>2022-06-25T06:49:48.000Z</time>
      </trkpt>
      <trkpt lat="46.92962" lon="3.5864">
        <ele>241.39999389648</ele>
        <time>2022-06-25T06:49:53.000Z</time>
      </trkpt>
      <trkpt lat="46.92911" lon="3.58605">
        <ele>242</ele>
        <time>2022-06-25T06:50:02.000Z</time>
      </trkpt>
      <trkpt lat="46.9286" lon="3.5857">
        <ele>241.19999694824</ele>
        <time>2022-06-25T06:50:11.000Z</time>
      </trkpt>
      <trkpt lat="46.92809" lon="3.58535">
        <ele>242.39999389648</ele>
        <time>2022-06-25T06:50:20.000Z</time>
      </trkpt>
      <trkpt lat="46.92803" lon="3.58531">
        <ele>242.60000610352</ele>
        <time>2022-06-25T06:50:21.000Z</time>
      </trkpt>
      <trkpt lat="46.92781" lon="3.58514">
        <ele>243.60000610352</ele>
        <time>2022-06-25T06:50:25.000Z</time>
      </trkpt>
      <trkpt lat="46.92755" lon="3.5849">
        <ele>244.39999389648</ele>
        <time>2022-06-25T06:50:30.000Z</time>
      </trkpt>
      <trkpt lat="46.92726" lon="3.58459">
        <ele>244.60000610352</ele>
        <time>2022-06-25T06:50:36.000Z</time>
      </trkpt>
      <trkpt lat="46.92721" lon="3.58453">
        <ele>244.60000610352</ele>
        <time>2022-06-25T06:50:37.000Z</time>
      </trkpt>
      <trkpt lat="46.92689" lon="3.58414">
        <ele>246.19999694824</ele>
        <time>2022-06-25T06:50:44.000Z</time>
      </trkpt>
      <trkpt lat="46.92675" lon="3.58397">
        <ele>247.19999694824</ele>
        <time>2022-06-25T06:50:47.000Z</time>
      </trkpt>
      <trkpt lat="46.92643" lon="3.5836">
        <ele>247.39999389648</ele>
        <time>2022-06-25T06:50:54.000Z</time>
      </trkpt>
      <trkpt lat="46.9263" lon="3.58343">
        <ele>245.80000305176</ele>
        <time>2022-06-25T06:50:57.000Z</time>
      </trkpt>
      <trkpt lat="46.92589" lon="3.58294">
        <ele>242.80000305176</ele>
        <time>2022-06-25T06:51:05.000Z</time>
      </trkpt>
      <trkpt lat="46.92561" lon="3.58261">
        <ele>242.39999389648</ele>
        <time>2022-06-25T06:51:10.000Z</time>
      </trkpt>
      <trkpt lat="46.92538" lon="3.58234">
        <ele>243.19999694824</ele>
        <time>2022-06-25T06:51:14.000Z</time>
      </trkpt>
      <trkpt lat="46.9252" lon="3.58213">
        <ele>244.19999694824</ele>
        <time>2022-06-25T06:51:18.000Z</time>
      </trkpt>
      <trkpt lat="46.92515" lon="3.58209">
        <ele>244.60000610352</ele>
        <time>2022-06-25T06:51:19.000Z</time>
      </trkpt>
      <trkpt lat="46.92483" lon="3.58181">
        <ele>246</ele>
        <time>2022-06-25T06:51:26.000Z</time>
      </trkpt>
      <trkpt lat="46.92478" lon="3.58178">
        <ele>246.19999694824</ele>
        <time>2022-06-25T06:51:27.000Z</time>
      </trkpt>
      <trkpt lat="46.92441" lon="3.58152">
        <ele>246.60000610352</ele>
        <time>2022-06-25T06:51:34.000Z</time>
      </trkpt>
      <trkpt lat="46.9243" lon="3.58144">
        <ele>246.80000305176</ele>
        <time>2022-06-25T06:51:36.000Z</time>
      </trkpt>
      <trkpt lat="46.9239" lon="3.58118">
        <ele>247.39999389648</ele>
        <time>2022-06-25T06:51:43.000Z</time>
      </trkpt>
      <trkpt lat="46.92364" lon="3.58107">
        <ele>247.19999694824</ele>
        <time>2022-06-25T06:51:47.000Z</time>
      </trkpt>
      <trkpt lat="46.92346" lon="3.58103">
        <ele>247.39999389648</ele>
        <time>2022-06-25T06:51:50.000Z</time>
      </trkpt>
      <trkpt lat="46.92339" lon="3.58103">
        <ele>247.19999694824</ele>
        <time>2022-06-25T06:51:51.000Z</time>
      </trkpt>
      <trkpt lat="46.92298" lon="3.581">
        <ele>245.60000610352</ele>
        <time>2022-06-25T06:51:57.000Z</time>
      </trkpt>
      <trkpt lat="46.92279" lon="3.58099">
        <ele>243.80000305176</ele>
        <time>2022-06-25T06:52:00.000Z</time>
      </trkpt>
      <trkpt lat="46.92245" lon="3.58098">
        <ele>241.39999389648</ele>
        <time>2022-06-25T06:52:05.000Z</time>
      </trkpt>
      <trkpt lat="46.92204" lon="3.58096">
        <ele>239.80000305176</ele>
        <time>2022-06-25T06:52:11.000Z</time>
      </trkpt>
      <trkpt lat="46.9219" lon="3.58095">
        <ele>240.19999694824</ele>
        <time>2022-06-25T06:52:13.000Z</time>
      </trkpt>
      <trkpt lat="46.9213" lon="3.58093">
        <ele>241.39999389648</ele>
        <time>2022-06-25T06:52:22.000Z</time>
      </trkpt>
      <trkpt lat="46.92088" lon="3.58087">
        <ele>243</ele>
        <time>2022-06-25T06:52:29.000Z</time>
      </trkpt>
      <trkpt lat="46.92062" lon="3.58075">
        <ele>242.80000305176</ele>
        <time>2022-06-25T06:52:34.000Z</time>
      </trkpt>
      <trkpt lat="46.92052" lon="3.58066">
        <ele>242.39999389648</ele>
        <time>2022-06-25T06:52:36.000Z</time>
      </trkpt>
      <trkpt lat="46.92036" lon="3.58052">
        <ele>241.80000305176</ele>
        <time>2022-06-25T06:52:39.000Z</time>
      </trkpt>
      <trkpt lat="46.92002" lon="3.58018">
        <ele>239.39999389648</ele>
        <time>2022-06-25T06:52:45.000Z</time>
      </trkpt>
      <trkpt lat="46.91985" lon="3.57996">
        <ele>238.19999694824</ele>
        <time>2022-06-25T06:52:48.000Z</time>
      </trkpt>
      <trkpt lat="46.91974" lon="3.57981">
        <ele>237.60000610352</ele>
        <time>2022-06-25T06:52:50.000Z</time>
      </trkpt>
      <trkpt lat="46.91954" lon="3.57947">
        <ele>238</ele>
        <time>2022-06-25T06:52:54.000Z</time>
      </trkpt>
      <trkpt lat="46.91929" lon="3.57895">
        <ele>238</ele>
        <time>2022-06-25T06:53:00.000Z</time>
      </trkpt>
      <trkpt lat="46.91922" lon="3.57877">
        <ele>238.19999694824</ele>
        <time>2022-06-25T06:53:02.000Z</time>
      </trkpt>
      <trkpt lat="46.91905" lon="3.57828">
        <ele>240.19999694824</ele>
        <time>2022-06-25T06:53:08.000Z</time>
      </trkpt>
      <trkpt lat="46.91889" lon="3.57779">
        <ele>241.80000305176</ele>
        <time>2022-06-25T06:53:15.000Z</time>
      </trkpt>
      <trkpt lat="46.91887" lon="3.57772">
        <ele>242.19999694824</ele>
        <time>2022-06-25T06:53:16.000Z</time>
      </trkpt>
      <trkpt lat="46.91878" lon="3.57744">
        <ele>243.60000610352</ele>
        <time>2022-06-25T06:53:20.000Z</time>
      </trkpt>
      <trkpt lat="46.91875" lon="3.57732">
        <ele>243.80000305176</ele>
        <time>2022-06-25T06:53:22.000Z</time>
      </trkpt>
      <trkpt lat="46.91873" lon="3.57726">
        <ele>244</ele>
        <time>2022-06-25T06:53:23.000Z</time>
      </trkpt>
      <trkpt lat="46.91864" lon="3.57694">
        <ele>246</ele>
        <time>2022-06-25T06:53:28.000Z</time>
      </trkpt>
      <trkpt lat="46.91859" lon="3.57682">
        <ele>247</ele>
        <time>2022-06-25T06:53:30.000Z</time>
      </trkpt>
      <trkpt lat="46.91857" lon="3.57676">
        <ele>247.39999389648</ele>
        <time>2022-06-25T06:53:31.000Z</time>
      </trkpt>
      <trkpt lat="46.91851" lon="3.57652">
        <ele>249</ele>
        <time>2022-06-25T06:53:35.000Z</time>
      </trkpt>
      <trkpt lat="46.91846" lon="3.57633">
        <ele>250</ele>
        <time>2022-06-25T06:53:38.000Z</time>
      </trkpt>
      <trkpt lat="46.91844" lon="3.57627">
        <ele>250</ele>
        <time>2022-06-25T06:53:39.000Z</time>
      </trkpt>
      <trkpt lat="46.91836" lon="3.576">
        <ele>251.19999694824</ele>
        <time>2022-06-25T06:53:43.000Z</time>
      </trkpt>
      <trkpt lat="46.91832" lon="3.5759">
        <ele>251.80000305176</ele>
        <time>2022-06-25T06:53:45.000Z</time>
      </trkpt>
      <trkpt lat="46.91826" lon="3.57578">
        <ele>252.39999389648</ele>
        <time>2022-06-25T06:53:47.000Z</time>
      </trkpt>
      <trkpt lat="46.9181" lon="3.57541">
        <ele>254</ele>
        <time>2022-06-25T06:53:53.000Z</time>
      </trkpt>
      <trkpt lat="46.91805" lon="3.5753">
        <ele>254.80000305176</ele>
        <time>2022-06-25T06:53:55.000Z</time>
      </trkpt>
      <trkpt lat="46.91799" lon="3.57519">
        <ele>256.20001220703</ele>
        <time>2022-06-25T06:53:57.000Z</time>
      </trkpt>
      <trkpt lat="46.91782" lon="3.57484">
        <ele>259.39999389648</ele>
        <time>2022-06-25T06:54:03.000Z</time>
      </trkpt>
      <trkpt lat="46.9178" lon="3.57478">
        <ele>259.79998779297</ele>
        <time>2022-06-25T06:54:04.000Z</time>
      </trkpt>
      <trkpt lat="46.91759" lon="3.57434">
        <ele>261.20001220703</ele>
        <time>2022-06-25T06:54:12.000Z</time>
      </trkpt>
      <trkpt lat="46.91742" lon="3.57401">
        <ele>261.20001220703</ele>
        <time>2022-06-25T06:54:18.000Z</time>
      </trkpt>
      <trkpt lat="46.91739" lon="3.57396">
        <ele>261.20001220703</ele>
        <time>2022-06-25T06:54:19.000Z</time>
      </trkpt>
      <trkpt lat="46.91719" lon="3.57356">
        <ele>262</ele>
        <time>2022-06-25T06:54:26.000Z</time>
      </trkpt>
      <trkpt lat="46.91711" lon="3.57338">
        <ele>263</ele>
        <time>2022-06-25T06:54:29.000Z</time>
      </trkpt>
      <trkpt lat="46.91705" lon="3.57326">
        <ele>263.60000610352</ele>
        <time>2022-06-25T06:54:31.000Z</time>
      </trkpt>
      <trkpt lat="46.91693" lon="3.57302">
        <ele>265.20001220703</ele>
        <time>2022-06-25T06:54:35.000Z</time>
      </trkpt>
      <trkpt lat="46.91667" lon="3.57251">
        <ele>266.60000610352</ele>
        <time>2022-06-25T06:54:43.000Z</time>
      </trkpt>
      <trkpt lat="46.91644" lon="3.57204">
        <ele>265.60000610352</ele>
        <time>2022-06-25T06:54:50.000Z</time>
      </trkpt>
      <trkpt lat="46.91619" lon="3.57154">
        <ele>264.39999389648</ele>
        <time>2022-06-25T06:54:57.000Z</time>
      </trkpt>
      <trkpt lat="46.91594" lon="3.57105">
        <ele>264</ele>
        <time>2022-06-25T06:55:04.000Z</time>
      </trkpt>
      <trkpt lat="46.9158" lon="3.57076">
        <ele>264.39999389648</ele>
        <time>2022-06-25T06:55:09.000Z</time>
      </trkpt>
      <trkpt lat="46.91579" lon="3.57055">
        <ele>264.60000610352</ele>
        <time>2022-06-25T06:55:13.000Z</time>
      </trkpt>
      <trkpt lat="46.91584" lon="3.57023">
        <ele>264.39999389648</ele>
        <time>2022-06-25T06:55:18.000Z</time>
      </trkpt>
      <trkpt lat="46.91586" lon="3.57007">
        <ele>264.39999389648</ele>
        <time>2022-06-25T06:55:20.000Z</time>
      </trkpt>
      <trkpt lat="46.91589" lon="3.56961">
        <ele>264</ele>
        <time>2022-06-25T06:55:26.000Z</time>
      </trkpt>
      <trkpt lat="46.91588" lon="3.56947">
        <ele>264</ele>
        <time>2022-06-25T06:55:28.000Z</time>
      </trkpt>
      <trkpt lat="46.91587" lon="3.56918">
        <ele>264.20001220703</ele>
        <time>2022-06-25T06:55:32.000Z</time>
      </trkpt>
      <trkpt lat="46.91584" lon="3.56894">
        <ele>264.39999389648</ele>
        <time>2022-06-25T06:55:35.000Z</time>
      </trkpt>
      <trkpt lat="46.91583" lon="3.56872">
        <ele>264.39999389648</ele>
        <time>2022-06-25T06:55:38.000Z</time>
      </trkpt>
      <trkpt lat="46.91578" lon="3.5685">
        <ele>264.60000610352</ele>
        <time>2022-06-25T06:55:41.000Z</time>
      </trkpt>
      <trkpt lat="46.91576" lon="3.56842">
        <ele>264.79998779297</ele>
        <time>2022-06-25T06:55:42.000Z</time>
      </trkpt>
      <trkpt lat="46.91575" lon="3.56827">
        <ele>265.39999389648</ele>
        <time>2022-06-25T06:55:44.000Z</time>
      </trkpt>
      <trkpt lat="46.91573" lon="3.56819">
        <ele>265.60000610352</ele>
        <time>2022-06-25T06:55:45.000Z</time>
      </trkpt>
      <trkpt lat="46.91572" lon="3.56803">
        <ele>266</ele>
        <time>2022-06-25T06:55:47.000Z</time>
      </trkpt>
      <trkpt lat="46.91571" lon="3.56795">
        <ele>266</ele>
        <time>2022-06-25T06:55:48.000Z</time>
      </trkpt>
      <trkpt lat="46.91565" lon="3.56739">
        <ele>265</ele>
        <time>2022-06-25T06:55:55.000Z</time>
      </trkpt>
      <trkpt lat="46.91563" lon="3.56732">
        <ele>265.20001220703</ele>
        <time>2022-06-25T06:55:56.000Z</time>
      </trkpt>
      <trkpt lat="46.91561" lon="3.56725">
        <ele>265.20001220703</ele>
        <time>2022-06-25T06:55:57.000Z</time>
      </trkpt>
      <trkpt lat="46.91559" lon="3.56717">
        <ele>265.39999389648</ele>
        <time>2022-06-25T06:55:58.000Z</time>
      </trkpt>
      <trkpt lat="46.91555" lon="3.56703">
        <ele>265.79998779297</ele>
        <time>2022-06-25T06:56:00.000Z</time>
      </trkpt>
      <trkpt lat="46.91549" lon="3.56667">
        <ele>266</ele>
        <time>2022-06-25T06:56:05.000Z</time>
      </trkpt>
      <trkpt lat="46.91545" lon="3.56643">
        <ele>266</ele>
        <time>2022-06-25T06:56:08.000Z</time>
      </trkpt>
      <trkpt lat="46.91542" lon="3.5662">
        <ele>266</ele>
        <time>2022-06-25T06:56:11.000Z</time>
      </trkpt>
      <trkpt lat="46.91539" lon="3.56604">
        <ele>266.39999389648</ele>
        <time>2022-06-25T06:56:13.000Z</time>
      </trkpt>
      <trkpt lat="46.91537" lon="3.56596">
        <ele>266.60000610352</ele>
        <time>2022-06-25T06:56:14.000Z</time>
      </trkpt>
      <trkpt lat="46.91528" lon="3.56543">
        <ele>268</ele>
        <time>2022-06-25T06:56:21.000Z</time>
      </trkpt>
      <trkpt lat="46.91519" lon="3.56483">
        <ele>268.20001220703</ele>
        <time>2022-06-25T06:56:28.000Z</time>
      </trkpt>
      <trkpt lat="46.91518" lon="3.56474">
        <ele>268.39999389648</ele>
        <time>2022-06-25T06:56:29.000Z</time>
      </trkpt>
      <trkpt lat="46.91517" lon="3.56438">
        <ele>269.39999389648</ele>
        <time>2022-06-25T06:56:33.000Z</time>
      </trkpt>
      <trkpt lat="46.91515" lon="3.5642">
        <ele>269.20001220703</ele>
        <time>2022-06-25T06:56:35.000Z</time>
      </trkpt>
      <trkpt lat="46.91511" lon="3.56393">
        <ele>268</ele>
        <time>2022-06-25T06:56:38.000Z</time>
      </trkpt>
      <trkpt lat="46.91509" lon="3.56376">
        <ele>267</ele>
        <time>2022-06-25T06:56:40.000Z</time>
      </trkpt>
      <trkpt lat="46.91507" lon="3.56359">
        <ele>265.79998779297</ele>
        <time>2022-06-25T06:56:42.000Z</time>
      </trkpt>
      <trkpt lat="46.91506" lon="3.56349">
        <ele>265.79998779297</ele>
        <time>2022-06-25T06:56:43.000Z</time>
      </trkpt>
      <trkpt lat="46.915" lon="3.56312">
        <ele>266</ele>
        <time>2022-06-25T06:56:47.000Z</time>
      </trkpt>
      <trkpt lat="46.91497" lon="3.56305">
        <ele>266</ele>
        <time>2022-06-25T06:56:48.000Z</time>
      </trkpt>
      <trkpt lat="46.91497" lon="3.56297">
        <ele>266</ele>
        <time>2022-06-25T06:56:49.000Z</time>
      </trkpt>
      <trkpt lat="46.91498" lon="3.56279">
        <ele>266.60000610352</ele>
        <time>2022-06-25T06:56:51.000Z</time>
      </trkpt>
      <trkpt lat="46.91492" lon="3.56263">
        <ele>267</ele>
        <time>2022-06-25T06:56:53.000Z</time>
      </trkpt>
      <trkpt lat="46.91489" lon="3.56245">
        <ele>267.39999389648</ele>
        <time>2022-06-25T06:56:55.000Z</time>
      </trkpt>
      <trkpt lat="46.91489" lon="3.56235">
        <ele>267.79998779297</ele>
        <time>2022-06-25T06:56:56.000Z</time>
      </trkpt>
      <trkpt lat="46.91488" lon="3.56227">
        <ele>268</ele>
        <time>2022-06-25T06:56:57.000Z</time>
      </trkpt>
      <trkpt lat="46.91482" lon="3.56189">
        <ele>269.20001220703</ele>
        <time>2022-06-25T06:57:02.000Z</time>
      </trkpt>
      <trkpt lat="46.9148" lon="3.56171">
        <ele>269.79998779297</ele>
        <time>2022-06-25T06:57:04.000Z</time>
      </trkpt>
      <trkpt lat="46.91473" lon="3.56116">
        <ele>270.39999389648</ele>
        <time>2022-06-25T06:57:11.000Z</time>
      </trkpt>
      <trkpt lat="46.91471" lon="3.56108">
        <ele>270.79998779297</ele>
        <time>2022-06-25T06:57:12.000Z</time>
      </trkpt>
      <trkpt lat="46.91468" lon="3.56093">
        <ele>271.20001220703</ele>
        <time>2022-06-25T06:57:14.000Z</time>
      </trkpt>
      <trkpt lat="46.91465" lon="3.56077">
        <ele>271.60000610352</ele>
        <time>2022-06-25T06:57:16.000Z</time>
      </trkpt>
      <trkpt lat="46.91464" lon="3.56069">
        <ele>271.79998779297</ele>
        <time>2022-06-25T06:57:17.000Z</time>
      </trkpt>
      <trkpt lat="46.91449" lon="3.55989">
        <ele>274</ele>
        <time>2022-06-25T06:57:27.000Z</time>
      </trkpt>
      <trkpt lat="46.91447" lon="3.55974">
        <ele>274</ele>
        <time>2022-06-25T06:57:29.000Z</time>
      </trkpt>
      <trkpt lat="46.91444" lon="3.55933">
        <ele>274.60000610352</ele>
        <time>2022-06-25T06:57:34.000Z</time>
      </trkpt>
      <trkpt lat="46.91436" lon="3.55866">
        <ele>273.79998779297</ele>
        <time>2022-06-25T06:57:42.000Z</time>
      </trkpt>
      <trkpt lat="46.91434" lon="3.55841">
        <ele>273.79998779297</ele>
        <time>2022-06-25T06:57:45.000Z</time>
      </trkpt>
      <trkpt lat="46.91432" lon="3.55816">
        <ele>273.79998779297</ele>
        <time>2022-06-25T06:57:48.000Z</time>
      </trkpt>
      <trkpt lat="46.91425" lon="3.5577">
        <ele>274</ele>
        <time>2022-06-25T06:57:53.000Z</time>
      </trkpt>
      <trkpt lat="46.91423" lon="3.55762">
        <ele>273.79998779297</ele>
        <time>2022-06-25T06:57:54.000Z</time>
      </trkpt>
      <trkpt lat="46.91409" lon="3.55692">
        <ele>270.39999389648</ele>
        <time>2022-06-25T06:58:02.000Z</time>
      </trkpt>
      <trkpt lat="46.914" lon="3.55617">
        <ele>265.20001220703</ele>
        <time>2022-06-25T06:58:10.000Z</time>
      </trkpt>
      <trkpt lat="46.91398" lon="3.55607">
        <ele>265.20001220703</ele>
        <time>2022-06-25T06:58:11.000Z</time>
      </trkpt>
      <trkpt lat="46.91392" lon="3.55557">
        <ele>264.20001220703</ele>
        <time>2022-06-25T06:58:16.000Z</time>
      </trkpt>
      <trkpt lat="46.91389" lon="3.55537">
        <ele>262.79998779297</ele>
        <time>2022-06-25T06:58:18.000Z</time>
      </trkpt>
      <trkpt lat="46.9138" lon="3.55477">
        <ele>259.79998779297</ele>
        <time>2022-06-25T06:58:24.000Z</time>
      </trkpt>
      <trkpt lat="46.91373" lon="3.55425">
        <ele>259.20001220703</ele>
        <time>2022-06-25T06:58:29.000Z</time>
      </trkpt>
      <trkpt lat="46.91371" lon="3.55415">
        <ele>259</ele>
        <time>2022-06-25T06:58:30.000Z</time>
      </trkpt>
      <trkpt lat="46.91365" lon="3.55371">
        <ele>257.20001220703</ele>
        <time>2022-06-25T06:58:34.000Z</time>
      </trkpt>
      <trkpt lat="46.9136" lon="3.55335">
        <ele>255.39999389648</ele>
        <time>2022-06-25T06:58:37.000Z</time>
      </trkpt>
      <trkpt lat="46.91355" lon="3.55298">
        <ele>255</ele>
        <time>2022-06-25T06:58:40.000Z</time>
      </trkpt>
      <trkpt lat="46.91351" lon="3.55273">
        <ele>254.39999389648</ele>
        <time>2022-06-25T06:58:42.000Z</time>
      </trkpt>
      <trkpt lat="46.9135" lon="3.5526">
        <ele>254</ele>
        <time>2022-06-25T06:58:43.000Z</time>
      </trkpt>
      <trkpt lat="46.91344" lon="3.55222">
        <ele>253</ele>
        <time>2022-06-25T06:58:46.000Z</time>
      </trkpt>
      <trkpt lat="46.91337" lon="3.55171">
        <ele>249.80000305176</ele>
        <time>2022-06-25T06:58:50.000Z</time>
      </trkpt>
      <trkpt lat="46.91335" lon="3.55159">
        <ele>249</ele>
        <time>2022-06-25T06:58:51.000Z</time>
      </trkpt>
      <trkpt lat="46.91332" lon="3.55136">
        <ele>248.39999389648</ele>
        <time>2022-06-25T06:58:53.000Z</time>
      </trkpt>
      <trkpt lat="46.91328" lon="3.55114">
        <ele>247.60000610352</ele>
        <time>2022-06-25T06:58:55.000Z</time>
      </trkpt>
      <trkpt lat="46.91325" lon="3.55093">
        <ele>247</ele>
        <time>2022-06-25T06:58:57.000Z</time>
      </trkpt>
      <trkpt lat="46.91323" lon="3.55083">
        <ele>246.60000610352</ele>
        <time>2022-06-25T06:58:58.000Z</time>
      </trkpt>
      <trkpt lat="46.91321" lon="3.55073">
        <ele>246.39999389648</ele>
        <time>2022-06-25T06:58:59.000Z</time>
      </trkpt>
      <trkpt lat="46.91313" lon="3.5506">
        <ele>246.39999389648</ele>
        <time>2022-06-25T06:59:01.000Z</time>
      </trkpt>
      <trkpt lat="46.91308" lon="3.55058">
        <ele>246.60000610352</ele>
        <time>2022-06-25T06:59:02.000Z</time>
      </trkpt>
      <trkpt lat="46.91303" lon="3.55058">
        <ele>247</ele>
        <time>2022-06-25T06:59:03.000Z</time>
      </trkpt>
      <trkpt lat="46.91297" lon="3.55058">
        <ele>247.60000610352</ele>
        <time>2022-06-25T06:59:04.000Z</time>
      </trkpt>
      <trkpt lat="46.91276" lon="3.55059">
        <ele>249</ele>
        <time>2022-06-25T06:59:08.000Z</time>
      </trkpt>
      <trkpt lat="46.91266" lon="3.5506">
        <ele>249.60000610352</ele>
        <time>2022-06-25T06:59:10.000Z</time>
      </trkpt>
      <trkpt lat="46.91242" lon="3.55061">
        <ele>252.80000305176</ele>
        <time>2022-06-25T06:59:15.000Z</time>
      </trkpt>
      <trkpt lat="46.91225" lon="3.55064">
        <ele>255</ele>
        <time>2022-06-25T06:59:19.000Z</time>
      </trkpt>
      <trkpt lat="46.91213" lon="3.55063">
        <ele>256.20001220703</ele>
        <time>2022-06-25T06:59:22.000Z</time>
      </trkpt>
      <trkpt lat="46.91202" lon="3.55064">
        <ele>257.60000610352</ele>
        <time>2022-06-25T06:59:25.000Z</time>
      </trkpt>
      <trkpt lat="46.91198" lon="3.55064">
        <ele>257.79998779297</ele>
        <time>2022-06-25T06:59:26.000Z</time>
      </trkpt>
      <trkpt lat="46.91187" lon="3.55065">
        <ele>258.60000610352</ele>
        <time>2022-06-25T06:59:29.000Z</time>
      </trkpt>
      <trkpt lat="46.91172" lon="3.55065">
        <ele>259.79998779297</ele>
        <time>2022-06-25T06:59:33.000Z</time>
      </trkpt>
      <trkpt lat="46.9116" lon="3.55066">
        <ele>260.60000610352</ele>
        <time>2022-06-25T06:59:36.000Z</time>
      </trkpt>
      <trkpt lat="46.91153" lon="3.55066">
        <ele>261.60000610352</ele>
        <time>2022-06-25T06:59:38.000Z</time>
      </trkpt>
      <trkpt lat="46.91134" lon="3.55065">
        <ele>263.60000610352</ele>
        <time>2022-06-25T06:59:43.000Z</time>
      </trkpt>
      <trkpt lat="46.91127" lon="3.55065">
        <ele>264.60000610352</ele>
        <time>2022-06-25T06:59:45.000Z</time>
      </trkpt>
      <trkpt lat="46.91116" lon="3.55065">
        <ele>265.60000610352</ele>
        <time>2022-06-25T06:59:48.000Z</time>
      </trkpt>
      <trkpt lat="46.91101" lon="3.55067">
        <ele>266.79998779297</ele>
        <time>2022-06-25T06:59:52.000Z</time>
      </trkpt>
      <trkpt lat="46.91094" lon="3.55068">
        <ele>267.20001220703</ele>
        <time>2022-06-25T06:59:54.000Z</time>
      </trkpt>
      <trkpt lat="46.9108" lon="3.55069">
        <ele>267.79998779297</ele>
        <time>2022-06-25T06:59:58.000Z</time>
      </trkpt>
      <trkpt lat="46.91063" lon="3.55069">
        <ele>268.39999389648</ele>
        <time>2022-06-25T07:00:02.000Z</time>
      </trkpt>
      <trkpt lat="46.91044" lon="3.5507">
        <ele>269.20001220703</ele>
        <time>2022-06-25T07:00:07.000Z</time>
      </trkpt>
      <trkpt lat="46.91034" lon="3.55071">
        <ele>269.39999389648</ele>
        <time>2022-06-25T07:00:10.000Z</time>
      </trkpt>
      <trkpt lat="46.9102" lon="3.5507">
        <ele>269.20001220703</ele>
        <time>2022-06-25T07:00:14.000Z</time>
      </trkpt>
      <trkpt lat="46.91" lon="3.55069">
        <ele>268.79998779297</ele>
        <time>2022-06-25T07:00:18.000Z</time>
      </trkpt>
      <trkpt lat="46.90997" lon="3.55068">
        <ele>268.79998779297</ele>
        <time>2022-06-25T07:00:20.000Z</time>
      </trkpt>
      <trkpt lat="46.90967" lon="3.55063">
        <ele>268</ele>
        <time>2022-06-25T07:00:27.000Z</time>
      </trkpt>
      <trkpt lat="46.9096" lon="3.55062">
        <ele>268</ele>
        <time>2022-06-25T07:00:30.000Z</time>
      </trkpt>
      <trkpt lat="46.90938" lon="3.55058">
        <ele>268.60000610352</ele>
        <time>2022-06-25T07:00:35.000Z</time>
      </trkpt>
      <trkpt lat="46.9093" lon="3.55056">
        <ele>269</ele>
        <time>2022-06-25T07:00:38.000Z</time>
      </trkpt>
      <trkpt lat="46.90912" lon="3.55053">
        <ele>269.60000610352</ele>
        <time>2022-06-25T07:00:43.000Z</time>
      </trkpt>
      <trkpt lat="46.90898" lon="3.55049">
        <ele>270</ele>
        <time>2022-06-25T07:00:47.000Z</time>
      </trkpt>
      <trkpt lat="46.90875" lon="3.55044">
        <ele>270.79998779297</ele>
        <time>2022-06-25T07:00:53.000Z</time>
      </trkpt>
      <trkpt lat="46.90857" lon="3.55042">
        <ele>272.20001220703</ele>
        <time>2022-06-25T07:00:57.000Z</time>
      </trkpt>
      <trkpt lat="46.90849" lon="3.5504">
        <ele>272.60000610352</ele>
        <time>2022-06-25T07:00:59.000Z</time>
      </trkpt>
      <trkpt lat="46.90828" lon="3.55037">
        <ele>274.20001220703</ele>
        <time>2022-06-25T07:01:05.000Z</time>
      </trkpt>
      <trkpt lat="46.90825" lon="3.55036">
        <ele>274.39999389648</ele>
        <time>2022-06-25T07:01:06.000Z</time>
      </trkpt>
      <trkpt lat="46.90817" lon="3.55034">
        <ele>274.79998779297</ele>
        <time>2022-06-25T07:01:09.000Z</time>
      </trkpt>
      <trkpt lat="46.90799" lon="3.5503">
        <ele>275</ele>
        <time>2022-06-25T07:01:13.000Z</time>
      </trkpt>
      <trkpt lat="46.9078" lon="3.55025">
        <ele>275.39999389648</ele>
        <time>2022-06-25T07:01:19.000Z</time>
      </trkpt>
      <trkpt lat="46.90773" lon="3.55024">
        <ele>275.79998779297</ele>
        <time>2022-06-25T07:01:20.000Z</time>
      </trkpt>
      <trkpt lat="46.90754" lon="3.55023">
        <ele>276.60000610352</ele>
        <time>2022-06-25T07:01:25.000Z</time>
      </trkpt>
      <trkpt lat="46.90739" lon="3.55026">
        <ele>277.60000610352</ele>
        <time>2022-06-25T07:01:29.000Z</time>
      </trkpt>
      <trkpt lat="46.90739" lon="3.55026">
        <ele>277.60000610352</ele>
        <time>2022-06-25T07:01:30.000Z</time>
      </trkpt>
      <trkpt lat="46.90714" lon="3.55043">
        <ele>279.39999389648</ele>
        <time>2022-06-25T07:01:36.000Z</time>
      </trkpt>
      <trkpt lat="46.90711" lon="3.55045">
        <ele>279.60000610352</ele>
        <time>2022-06-25T07:01:37.000Z</time>
      </trkpt>
      <trkpt lat="46.90694" lon="3.55059">
        <ele>280</ele>
        <time>2022-06-25T07:01:42.000Z</time>
      </trkpt>
      <trkpt lat="46.9069" lon="3.5506">
        <ele>280</ele>
        <time>2022-06-25T07:01:44.000Z</time>
      </trkpt>
      <trkpt lat="46.90687" lon="3.5506">
        <ele>280</ele>
        <time>2022-06-25T07:01:45.000Z</time>
      </trkpt>
      <trkpt lat="46.90664" lon="3.55045">
        <ele>280</ele>
        <time>2022-06-25T07:01:50.000Z</time>
      </trkpt>
      <trkpt lat="46.90656" lon="3.55038">
        <ele>280</ele>
        <time>2022-06-25T07:01:52.000Z</time>
      </trkpt>
      <trkpt lat="46.90648" lon="3.55031">
        <ele>280</ele>
        <time>2022-06-25T07:01:54.000Z</time>
      </trkpt>
      <trkpt lat="46.90635" lon="3.5502">
        <ele>280.39999389648</ele>
        <time>2022-06-25T07:01:57.000Z</time>
      </trkpt>
      <trkpt lat="46.90598" lon="3.54988">
        <ele>280.20001220703</ele>
        <time>2022-06-25T07:02:05.000Z</time>
      </trkpt>
      <trkpt lat="46.90555" lon="3.54952">
        <ele>277.60000610352</ele>
        <time>2022-06-25T07:02:13.000Z</time>
      </trkpt>
      <trkpt lat="46.9055" lon="3.54947">
        <ele>277.39999389648</ele>
        <time>2022-06-25T07:02:14.000Z</time>
      </trkpt>
      <trkpt lat="46.90514" lon="3.54917">
        <ele>276.20001220703</ele>
        <time>2022-06-25T07:02:20.000Z</time>
      </trkpt>
      <trkpt lat="46.90502" lon="3.54907">
        <ele>275.39999389648</ele>
        <time>2022-06-25T07:02:22.000Z</time>
      </trkpt>
      <trkpt lat="46.9049" lon="3.54896">
        <ele>274.39999389648</ele>
        <time>2022-06-25T07:02:24.000Z</time>
      </trkpt>
      <trkpt lat="46.90472" lon="3.54881">
        <ele>274</ele>
        <time>2022-06-25T07:02:28.000Z</time>
      </trkpt>
      <trkpt lat="46.90448" lon="3.5486">
        <ele>273.79998779297</ele>
        <time>2022-06-25T07:02:32.000Z</time>
      </trkpt>
      <trkpt lat="46.90435" lon="3.54849">
        <ele>273.79998779297</ele>
        <time>2022-06-25T07:02:33.000Z</time>
      </trkpt>
      <trkpt lat="46.90408" lon="3.5483">
        <ele>272.79998779297</ele>
        <time>2022-06-25T07:02:37.000Z</time>
      </trkpt>
      <trkpt lat="46.90387" lon="3.54818">
        <ele>271.60000610352</ele>
        <time>2022-06-25T07:02:40.000Z</time>
      </trkpt>
      <trkpt lat="46.9038" lon="3.54814">
        <ele>271.39999389648</ele>
        <time>2022-06-25T07:02:42.000Z</time>
      </trkpt>
      <trkpt lat="46.90345" lon="3.54797">
        <ele>269.39999389648</ele>
        <time>2022-06-25T07:02:46.000Z</time>
      </trkpt>
      <trkpt lat="46.90309" lon="3.54779">
        <ele>268.39999389648</ele>
        <time>2022-06-25T07:02:51.000Z</time>
      </trkpt>
      <trkpt lat="46.90302" lon="3.54776">
        <ele>268</ele>
        <time>2022-06-25T07:02:52.000Z</time>
      </trkpt>
      <trkpt lat="46.90274" lon="3.54762">
        <ele>266.60000610352</ele>
        <time>2022-06-25T07:02:56.000Z</time>
      </trkpt>
      <trkpt lat="46.90238" lon="3.54745">
        <ele>265.20001220703</ele>
        <time>2022-06-25T07:03:01.000Z</time>
      </trkpt>
      <trkpt lat="46.90204" lon="3.54726">
        <ele>265</ele>
        <time>2022-06-25T07:03:06.000Z</time>
      </trkpt>
      <trkpt lat="46.90175" lon="3.54712">
        <ele>265</ele>
        <time>2022-06-25T07:03:10.000Z</time>
      </trkpt>
      <trkpt lat="46.90133" lon="3.54692">
        <ele>264.60000610352</ele>
        <time>2022-06-25T07:03:16.000Z</time>
      </trkpt>
      <trkpt lat="46.90119" lon="3.54689">
        <ele>264.20001220703</ele>
        <time>2022-06-25T07:03:18.000Z</time>
      </trkpt>
      <trkpt lat="46.90104" lon="3.54688">
        <ele>264.60000610352</ele>
        <time>2022-06-25T07:03:20.000Z</time>
      </trkpt>
      <trkpt lat="46.90089" lon="3.54689">
        <ele>265.20001220703</ele>
        <time>2022-06-25T07:03:22.000Z</time>
      </trkpt>
      <trkpt lat="46.90082" lon="3.5469">
        <ele>265.39999389648</ele>
        <time>2022-06-25T07:03:23.000Z</time>
      </trkpt>
      <trkpt lat="46.90061" lon="3.54694">
        <ele>265.79998779297</ele>
        <time>2022-06-25T07:03:26.000Z</time>
      </trkpt>
      <trkpt lat="46.90041" lon="3.54695">
        <ele>265</ele>
        <time>2022-06-25T07:03:29.000Z</time>
      </trkpt>
      <trkpt lat="46.90021" lon="3.54692">
        <ele>265.20001220703</ele>
        <time>2022-06-25T07:03:32.000Z</time>
      </trkpt>
      <trkpt lat="46.90007" lon="3.54685">
        <ele>265.20001220703</ele>
        <time>2022-06-25T07:03:34.000Z</time>
      </trkpt>
      <trkpt lat="46.89995" lon="3.54676">
        <ele>265.20001220703</ele>
        <time>2022-06-25T07:03:36.000Z</time>
      </trkpt>
      <trkpt lat="46.89952" lon="3.54649">
        <ele>264</ele>
        <time>2022-06-25T07:03:43.000Z</time>
      </trkpt>
      <trkpt lat="46.89939" lon="3.5464">
        <ele>264</ele>
        <time>2022-06-25T07:03:45.000Z</time>
      </trkpt>
      <trkpt lat="46.89906" lon="3.54619">
        <ele>265.60000610352</ele>
        <time>2022-06-25T07:03:51.000Z</time>
      </trkpt>
      <trkpt lat="46.89868" lon="3.54593">
        <ele>265.60000610352</ele>
        <time>2022-06-25T07:03:56.000Z</time>
      </trkpt>
      <trkpt lat="46.89837" lon="3.54573">
        <ele>265</ele>
        <time>2022-06-25T07:04:01.000Z</time>
      </trkpt>
      <trkpt lat="46.89787" lon="3.54538">
        <ele>262.79998779297</ele>
        <time>2022-06-25T07:04:09.000Z</time>
      </trkpt>
      <trkpt lat="46.89776" lon="3.54529">
        <ele>262</ele>
        <time>2022-06-25T07:04:11.000Z</time>
      </trkpt>
      <trkpt lat="46.89759" lon="3.54514">
        <ele>261.39999389648</ele>
        <time>2022-06-25T07:04:14.000Z</time>
      </trkpt>
      <trkpt lat="46.89748" lon="3.54502">
        <ele>261</ele>
        <time>2022-06-25T07:04:16.000Z</time>
      </trkpt>
      <trkpt lat="46.89721" lon="3.54474">
        <ele>260.60000610352</ele>
        <time>2022-06-25T07:04:21.000Z</time>
      </trkpt>
      <trkpt lat="46.8971" lon="3.54462">
        <ele>261</ele>
        <time>2022-06-25T07:04:23.000Z</time>
      </trkpt>
      <trkpt lat="46.89664" lon="3.54416">
        <ele>261</ele>
        <time>2022-06-25T07:04:31.000Z</time>
      </trkpt>
      <trkpt lat="46.89654" lon="3.54405">
        <ele>261</ele>
        <time>2022-06-25T07:04:33.000Z</time>
      </trkpt>
      <trkpt lat="46.89637" lon="3.54388">
        <ele>260.60000610352</ele>
        <time>2022-06-25T07:04:36.000Z</time>
      </trkpt>
      <trkpt lat="46.89626" lon="3.54375">
        <ele>260.20001220703</ele>
        <time>2022-06-25T07:04:38.000Z</time>
      </trkpt>
      <trkpt lat="46.89614" lon="3.54362">
        <ele>260</ele>
        <time>2022-06-25T07:04:40.000Z</time>
      </trkpt>
      <trkpt lat="46.89586" lon="3.5433">
        <ele>259</ele>
        <time>2022-06-25T07:04:45.000Z</time>
      </trkpt>
      <trkpt lat="46.89573" lon="3.54318">
        <ele>259</ele>
        <time>2022-06-25T07:04:47.000Z</time>
      </trkpt>
      <trkpt lat="46.89541" lon="3.54283">
        <ele>258</ele>
        <time>2022-06-25T07:04:52.000Z</time>
      </trkpt>
      <trkpt lat="46.89536" lon="3.54279">
        <ele>257.79998779297</ele>
        <time>2022-06-25T07:04:53.000Z</time>
      </trkpt>
      <trkpt lat="46.89501" lon="3.54237">
        <ele>257</ele>
        <time>2022-06-25T07:04:59.000Z</time>
      </trkpt>
      <trkpt lat="46.89486" lon="3.54218">
        <ele>256.79998779297</ele>
        <time>2022-06-25T07:05:02.000Z</time>
      </trkpt>
      <trkpt lat="46.89473" lon="3.54195">
        <ele>255.60000610352</ele>
        <time>2022-06-25T07:05:05.000Z</time>
      </trkpt>
      <trkpt lat="46.89469" lon="3.54186">
        <ele>255.19999694824</ele>
        <time>2022-06-25T07:05:06.000Z</time>
      </trkpt>
      <trkpt lat="46.89447" lon="3.54129">
        <ele>252.19999694824</ele>
        <time>2022-06-25T07:05:12.000Z</time>
      </trkpt>
      <trkpt lat="46.89444" lon="3.54118">
        <ele>251.39999389648</ele>
        <time>2022-06-25T07:05:13.000Z</time>
      </trkpt>
      <trkpt lat="46.89435" lon="3.54081">
        <ele>248</ele>
        <time>2022-06-25T07:05:16.000Z</time>
      </trkpt>
      <trkpt lat="46.89423" lon="3.54038">
        <ele>244.60000610352</ele>
        <time>2022-06-25T07:05:19.000Z</time>
      </trkpt>
      <trkpt lat="46.89415" lon="3.54007">
        <ele>242.80000305176</ele>
        <time>2022-06-25T07:05:21.000Z</time>
      </trkpt>
      <trkpt lat="46.89408" lon="3.53976">
        <ele>242</ele>
        <time>2022-06-25T07:05:23.000Z</time>
      </trkpt>
      <trkpt lat="46.894" lon="3.53945">
        <ele>242</ele>
        <time>2022-06-25T07:05:25.000Z</time>
      </trkpt>
      <trkpt lat="46.89395" lon="3.53927">
        <ele>242</ele>
        <time>2022-06-25T07:05:26.000Z</time>
      </trkpt>
      <trkpt lat="46.8939" lon="3.53905">
        <ele>242.39999389648</ele>
        <time>2022-06-25T07:05:28.000Z</time>
      </trkpt>
      <trkpt lat="46.89385" lon="3.53882">
        <ele>242.80000305176</ele>
        <time>2022-06-25T07:05:30.000Z</time>
      </trkpt>
      <trkpt lat="46.89375" lon="3.53845">
        <ele>242.19999694824</ele>
        <time>2022-06-25T07:05:34.000Z</time>
      </trkpt>
      <trkpt lat="46.89363" lon="3.53805">
        <ele>240.60000610352</ele>
        <time>2022-06-25T07:05:39.000Z</time>
      </trkpt>
      <trkpt lat="46.89361" lon="3.53796">
        <ele>240.60000610352</ele>
        <time>2022-06-25T07:05:40.000Z</time>
      </trkpt>
      <trkpt lat="46.89355" lon="3.53774">
        <ele>240.19999694824</ele>
        <time>2022-06-25T07:05:44.000Z</time>
      </trkpt>
      <trkpt lat="46.89342" lon="3.53726">
        <ele>238</ele>
        <time>2022-06-25T07:05:49.000Z</time>
      </trkpt>
      <trkpt lat="46.8933" lon="3.53678">
        <ele>235.80000305176</ele>
        <time>2022-06-25T07:05:54.000Z</time>
      </trkpt>
      <trkpt lat="46.89314" lon="3.5362">
        <ele>232.19999694824</ele>
        <time>2022-06-25T07:05:59.000Z</time>
      </trkpt>
      <trkpt lat="46.89311" lon="3.53607">
        <ele>231.60000610352</ele>
        <time>2022-06-25T07:06:00.000Z</time>
      </trkpt>
      <trkpt lat="46.89311" lon="3.53607">
        <ele>231.60000610352</ele>
        <time>2022-06-25T07:06:01.000Z</time>
      </trkpt>
      <trkpt lat="46.89301" lon="3.5357">
        <ele>229.39999389648</ele>
        <time>2022-06-25T07:06:03.000Z</time>
      </trkpt>
      <trkpt lat="46.89295" lon="3.53543">
        <ele>228.39999389648</ele>
        <time>2022-06-25T07:06:05.000Z</time>
      </trkpt>
      <trkpt lat="46.89291" lon="3.5353">
        <ele>228</ele>
        <time>2022-06-25T07:06:06.000Z</time>
      </trkpt>
      <trkpt lat="46.89284" lon="3.53502">
        <ele>226.80000305176</ele>
        <time>2022-06-25T07:06:08.000Z</time>
      </trkpt>
      <trkpt lat="46.89273" lon="3.53458">
        <ele>223.80000305176</ele>
        <time>2022-06-25T07:06:11.000Z</time>
      </trkpt>
      <trkpt lat="46.89265" lon="3.53429">
        <ele>221.80000305176</ele>
        <time>2022-06-25T07:06:13.000Z</time>
      </trkpt>
      <trkpt lat="46.89261" lon="3.53414">
        <ele>220.80000305176</ele>
        <time>2022-06-25T07:06:15.000Z</time>
      </trkpt>
      <trkpt lat="46.89253" lon="3.53383">
        <ele>218.60000610352</ele>
        <time>2022-06-25T07:06:16.000Z</time>
      </trkpt>
      <trkpt lat="46.8925" lon="3.53369">
        <ele>217.80000305176</ele>
        <time>2022-06-25T07:06:18.000Z</time>
      </trkpt>
      <trkpt lat="46.89238" lon="3.53325">
        <ele>215.60000610352</ele>
        <time>2022-06-25T07:06:20.000Z</time>
      </trkpt>
      <trkpt lat="46.89235" lon="3.5331">
        <ele>215.19999694824</ele>
        <time>2022-06-25T07:06:21.000Z</time>
      </trkpt>
      <trkpt lat="46.89228" lon="3.53281">
        <ele>215</ele>
        <time>2022-06-25T07:06:23.000Z</time>
      </trkpt>
      <trkpt lat="46.8922" lon="3.53253">
        <ele>214</ele>
        <time>2022-06-25T07:06:25.000Z</time>
      </trkpt>
      <trkpt lat="46.89213" lon="3.53224">
        <ele>212</ele>
        <time>2022-06-25T07:06:27.000Z</time>
      </trkpt>
      <trkpt lat="46.89202" lon="3.53182">
        <ele>210.80000305176</ele>
        <time>2022-06-25T07:06:30.000Z</time>
      </trkpt>
      <trkpt lat="46.89194" lon="3.53154">
        <ele>210.19999694824</ele>
        <time>2022-06-25T07:06:32.000Z</time>
      </trkpt>
      <trkpt lat="46.89189" lon="3.53141">
        <ele>209.39999389648</ele>
        <time>2022-06-25T07:06:33.000Z</time>
      </trkpt>
      <trkpt lat="46.89177" lon="3.53118">
        <ele>208.19999694824</ele>
        <time>2022-06-25T07:06:35.000Z</time>
      </trkpt>
      <trkpt lat="46.8916" lon="3.53099">
        <ele>206.39999389648</ele>
        <time>2022-06-25T07:06:37.000Z</time>
      </trkpt>
      <trkpt lat="46.89141" lon="3.53083">
        <ele>204.60000610352</ele>
        <time>2022-06-25T07:06:39.000Z</time>
      </trkpt>
      <trkpt lat="46.89132" lon="3.53074">
        <ele>203.60000610352</ele>
        <time>2022-06-25T07:06:40.000Z</time>
      </trkpt>
      <trkpt lat="46.89124" lon="3.53064">
        <ele>202.60000610352</ele>
        <time>2022-06-25T07:06:41.000Z</time>
      </trkpt>
      <trkpt lat="46.89116" lon="3.53052">
        <ele>201.80000305176</ele>
        <time>2022-06-25T07:06:42.000Z</time>
      </trkpt>
      <trkpt lat="46.8911" lon="3.53039">
        <ele>201.39999389648</ele>
        <time>2022-06-25T07:06:43.000Z</time>
      </trkpt>
      <trkpt lat="46.891" lon="3.53012">
        <ele>201</ele>
        <time>2022-06-25T07:06:45.000Z</time>
      </trkpt>
      <trkpt lat="46.89092" lon="3.52984">
        <ele>200.39999389648</ele>
        <time>2022-06-25T07:06:47.000Z</time>
      </trkpt>
      <trkpt lat="46.89082" lon="3.52945">
        <ele>199</ele>
        <time>2022-06-25T07:06:50.000Z</time>
      </trkpt>
      <trkpt lat="46.89078" lon="3.52932">
        <ele>199</ele>
        <time>2022-06-25T07:06:51.000Z</time>
      </trkpt>
      <trkpt lat="46.89071" lon="3.52907">
        <ele>199</ele>
        <time>2022-06-25T07:06:53.000Z</time>
      </trkpt>
      <trkpt lat="46.89062" lon="3.52873">
        <ele>199</ele>
        <time>2022-06-25T07:06:56.000Z</time>
      </trkpt>
      <trkpt lat="46.8906" lon="3.52863">
        <ele>199</ele>
        <time>2022-06-25T07:06:57.000Z</time>
      </trkpt>
      <trkpt lat="46.89054" lon="3.52842">
        <ele>199.80000305176</ele>
        <time>2022-06-25T07:06:59.000Z</time>
      </trkpt>
      <trkpt lat="46.89037" lon="3.52782">
        <ele>200.80000305176</ele>
        <time>2022-06-25T07:07:05.000Z</time>
      </trkpt>
      <trkpt lat="46.89031" lon="3.52764">
        <ele>201.80000305176</ele>
        <time>2022-06-25T07:07:07.000Z</time>
      </trkpt>
      <trkpt lat="46.89019" lon="3.52731">
        <ele>202.80000305176</ele>
        <time>2022-06-25T07:07:11.000Z</time>
      </trkpt>
      <trkpt lat="46.89005" lon="3.527">
        <ele>203.80000305176</ele>
        <time>2022-06-25T07:07:16.000Z</time>
      </trkpt>
      <trkpt lat="46.88997" lon="3.52684">
        <ele>204.80000305176</ele>
        <time>2022-06-25T07:07:19.000Z</time>
      </trkpt>
      <trkpt lat="46.88991" lon="3.52675">
        <ele>205.39999389648</ele>
        <time>2022-06-25T07:07:21.000Z</time>
      </trkpt>
      <trkpt lat="46.88988" lon="3.5267">
        <ele>205.80000305176</ele>
        <time>2022-06-25T07:07:23.000Z</time>
      </trkpt>
      <trkpt lat="46.88975" lon="3.52648">
        <ele>207.39999389648</ele>
        <time>2022-06-25T07:07:27.000Z</time>
      </trkpt>
      <trkpt lat="46.88972" lon="3.52645">
        <ele>207.60000610352</ele>
        <time>2022-06-25T07:07:29.000Z</time>
      </trkpt>
      <trkpt lat="46.88967" lon="3.52637">
        <ele>208.19999694824</ele>
        <time>2022-06-25T07:07:30.000Z</time>
      </trkpt>
      <trkpt lat="46.88956" lon="3.52621">
        <ele>209.39999389648</ele>
        <time>2022-06-25T07:07:34.000Z</time>
      </trkpt>
      <trkpt lat="46.88942" lon="3.52606">
        <ele>210</ele>
        <time>2022-06-25T07:07:38.000Z</time>
      </trkpt>
      <trkpt lat="46.88939" lon="3.52602">
        <ele>210</ele>
        <time>2022-06-25T07:07:39.000Z</time>
      </trkpt>
      <trkpt lat="46.88923" lon="3.52585">
        <ele>211</ele>
        <time>2022-06-25T07:07:44.000Z</time>
      </trkpt>
      <trkpt lat="46.88913" lon="3.52577">
        <ele>211.19999694824</ele>
        <time>2022-06-25T07:07:47.000Z</time>
      </trkpt>
      <trkpt lat="46.88907" lon="3.52571">
        <ele>211.39999389648</ele>
        <time>2022-06-25T07:07:49.000Z</time>
      </trkpt>
      <trkpt lat="46.88889" lon="3.52556">
        <ele>212</ele>
        <time>2022-06-25T07:07:54.000Z</time>
      </trkpt>
      <trkpt lat="46.88876" lon="3.52545">
        <ele>212.80000305176</ele>
        <time>2022-06-25T07:07:58.000Z</time>
      </trkpt>
      <trkpt lat="46.88865" lon="3.52537">
        <ele>213.39999389648</ele>
        <time>2022-06-25T07:08:01.000Z</time>
      </trkpt>
      <trkpt lat="46.88847" lon="3.52523">
        <ele>214.60000610352</ele>
        <time>2022-06-25T07:08:06.000Z</time>
      </trkpt>
      <trkpt lat="46.88834" lon="3.5251">
        <ele>215.60000610352</ele>
        <time>2022-06-25T07:08:10.000Z</time>
      </trkpt>
      <trkpt lat="46.88831" lon="3.52507">
        <ele>215.80000305176</ele>
        <time>2022-06-25T07:08:11.000Z</time>
      </trkpt>
      <trkpt lat="46.88827" lon="3.52503">
        <ele>216.19999694824</ele>
        <time>2022-06-25T07:08:12.000Z</time>
      </trkpt>
      <trkpt lat="46.88815" lon="3.52488">
        <ele>217.80000305176</ele>
        <time>2022-06-25T07:08:16.000Z</time>
      </trkpt>
      <trkpt lat="46.88807" lon="3.52476">
        <ele>218.80000305176</ele>
        <time>2022-06-25T07:08:19.000Z</time>
      </trkpt>
      <trkpt lat="46.888" lon="3.52465">
        <ele>219.39999389648</ele>
        <time>2022-06-25T07:08:22.000Z</time>
      </trkpt>
      <trkpt lat="46.8879" lon="3.52448">
        <ele>220</ele>
        <time>2022-06-25T07:08:26.000Z</time>
      </trkpt>
      <trkpt lat="46.88785" lon="3.52439">
        <ele>220.19999694824</ele>
        <time>2022-06-25T07:08:28.000Z</time>
      </trkpt>
      <trkpt lat="46.88781" lon="3.5243">
        <ele>220.19999694824</ele>
        <time>2022-06-25T07:08:30.000Z</time>
      </trkpt>
      <trkpt lat="46.8877" lon="3.52406">
        <ele>220.80000305176</ele>
        <time>2022-06-25T07:08:35.000Z</time>
      </trkpt>
      <trkpt lat="46.88759" lon="3.52379">
        <ele>221.19999694824</ele>
        <time>2022-06-25T07:08:40.000Z</time>
      </trkpt>
      <trkpt lat="46.88748" lon="3.52356">
        <ele>221</ele>
        <time>2022-06-25T07:08:44.000Z</time>
      </trkpt>
      <trkpt lat="46.88744" lon="3.52341">
        <ele>221</ele>
        <time>2022-06-25T07:08:46.000Z</time>
      </trkpt>
      <trkpt lat="46.88745" lon="3.52314">
        <ele>221.19999694824</ele>
        <time>2022-06-25T07:08:50.000Z</time>
      </trkpt>
      <trkpt lat="46.88745" lon="3.52308">
        <ele>221.19999694824</ele>
        <time>2022-06-25T07:08:51.000Z</time>
      </trkpt>
      <trkpt lat="46.88747" lon="3.52291">
        <ele>221.39999389648</ele>
        <time>2022-06-25T07:08:54.000Z</time>
      </trkpt>
      <trkpt lat="46.88747" lon="3.5228">
        <ele>221.60000610352</ele>
        <time>2022-06-25T07:08:56.000Z</time>
      </trkpt>
      <trkpt lat="46.88747" lon="3.52275">
        <ele>221.60000610352</ele>
        <time>2022-06-25T07:08:57.000Z</time>
      </trkpt>
      <trkpt lat="46.88747" lon="3.52275">
        <ele>221.60000610352</ele>
        <time>2022-06-25T07:08:58.000Z</time>
      </trkpt>
      <trkpt lat="46.88748" lon="3.52253">
        <ele>221.60000610352</ele>
        <time>2022-06-25T07:09:01.000Z</time>
      </trkpt>
      <trkpt lat="46.8875" lon="3.52228">
        <ele>222.19999694824</ele>
        <time>2022-06-25T07:09:05.000Z</time>
      </trkpt>
      <trkpt lat="46.88751" lon="3.52222">
        <ele>222.60000610352</ele>
        <time>2022-06-25T07:09:06.000Z</time>
      </trkpt>
      <trkpt lat="46.88752" lon="3.52199">
        <ele>223.60000610352</ele>
        <time>2022-06-25T07:09:10.000Z</time>
      </trkpt>
      <trkpt lat="46.88754" lon="3.5217">
        <ele>224.19999694824</ele>
        <time>2022-06-25T07:09:15.000Z</time>
      </trkpt>
      <trkpt lat="46.88756" lon="3.52145">
        <ele>225.19999694824</ele>
        <time>2022-06-25T07:09:19.000Z</time>
      </trkpt>
      <trkpt lat="46.88756" lon="3.52108">
        <ele>226.60000610352</ele>
        <time>2022-06-25T07:09:25.000Z</time>
      </trkpt>
      <trkpt lat="46.88757" lon="3.52101">
        <ele>227</ele>
        <time>2022-06-25T07:09:26.000Z</time>
      </trkpt>
      <trkpt lat="46.88758" lon="3.52068">
        <ele>227.80000305176</ele>
        <time>2022-06-25T07:09:31.000Z</time>
      </trkpt>
      <trkpt lat="46.88759" lon="3.52051">
        <ele>228</ele>
        <time>2022-06-25T07:09:34.000Z</time>
      </trkpt>
      <trkpt lat="46.8876" lon="3.52039">
        <ele>228.60000610352</ele>
        <time>2022-06-25T07:09:36.000Z</time>
      </trkpt>
      <trkpt lat="46.88763" lon="3.51985">
        <ele>229.60000610352</ele>
        <time>2022-06-25T07:09:45.000Z</time>
      </trkpt>
      <trkpt lat="46.88763" lon="3.51956">
        <ele>230.19999694824</ele>
        <time>2022-06-25T07:09:50.000Z</time>
      </trkpt>
      <trkpt lat="46.88763" lon="3.51926">
        <ele>230.19999694824</ele>
        <time>2022-06-25T07:09:55.000Z</time>
      </trkpt>
      <trkpt lat="46.88762" lon="3.51913">
        <ele>230.19999694824</ele>
        <time>2022-06-25T07:09:57.000Z</time>
      </trkpt>
      <trkpt lat="46.88762" lon="3.51907">
        <ele>230</ele>
        <time>2022-06-25T07:09:58.000Z</time>
      </trkpt>
      <trkpt lat="46.88758" lon="3.51874">
        <ele>229.60000610352</ele>
        <time>2022-06-25T07:10:03.000Z</time>
      </trkpt>
      <trkpt lat="46.88756" lon="3.51863">
        <ele>229.60000610352</ele>
        <time>2022-06-25T07:10:05.000Z</time>
      </trkpt>
      <trkpt lat="46.88753" lon="3.51821">
        <ele>229.39999389648</ele>
        <time>2022-06-25T07:10:11.000Z</time>
      </trkpt>
      <trkpt lat="46.88755" lon="3.51743">
        <ele>231.60000610352</ele>
        <time>2022-06-25T07:10:21.000Z</time>
      </trkpt>
      <trkpt lat="46.88758" lon="3.51712">
        <ele>231.60000610352</ele>
        <time>2022-06-25T07:10:25.000Z</time>
      </trkpt>
      <trkpt lat="46.88761" lon="3.51687">
        <ele>232</ele>
        <time>2022-06-25T07:10:28.000Z</time>
      </trkpt>
      <trkpt lat="46.88762" lon="3.51662">
        <ele>232.19999694824</ele>
        <time>2022-06-25T07:10:31.000Z</time>
      </trkpt>
      <trkpt lat="46.88762" lon="3.51637">
        <ele>232.19999694824</ele>
        <time>2022-06-25T07:10:34.000Z</time>
      </trkpt>
      <trkpt lat="46.88755" lon="3.51559">
        <ele>234.39999389648</ele>
        <time>2022-06-25T07:10:43.000Z</time>
      </trkpt>
      <trkpt lat="46.88751" lon="3.51514">
        <ele>235.80000305176</ele>
        <time>2022-06-25T07:10:49.000Z</time>
      </trkpt>
      <trkpt lat="46.88749" lon="3.51499">
        <ele>236.19999694824</ele>
        <time>2022-06-25T07:10:51.000Z</time>
      </trkpt>
      <trkpt lat="46.88748" lon="3.51455">
        <ele>236</ele>
        <time>2022-06-25T07:10:57.000Z</time>
      </trkpt>
      <trkpt lat="46.88747" lon="3.5144">
        <ele>236.19999694824</ele>
        <time>2022-06-25T07:10:59.000Z</time>
      </trkpt>
      <trkpt lat="46.88749" lon="3.5141">
        <ele>237.19999694824</ele>
        <time>2022-06-25T07:11:03.000Z</time>
      </trkpt>
      <trkpt lat="46.88751" lon="3.51383">
        <ele>237.39999389648</ele>
        <time>2022-06-25T07:11:07.000Z</time>
      </trkpt>
      <trkpt lat="46.88752" lon="3.51375">
        <ele>237.39999389648</ele>
        <time>2022-06-25T07:11:08.000Z</time>
      </trkpt>
      <trkpt lat="46.88755" lon="3.51331">
        <ele>236.60000610352</ele>
        <time>2022-06-25T07:11:14.000Z</time>
      </trkpt>
      <trkpt lat="46.88754" lon="3.51324">
        <ele>236.39999389648</ele>
        <time>2022-06-25T07:11:15.000Z</time>
      </trkpt>
      <trkpt lat="46.88754" lon="3.51317">
        <ele>236.19999694824</ele>
        <time>2022-06-25T07:11:16.000Z</time>
      </trkpt>
      <trkpt lat="46.88749" lon="3.51248">
        <ele>237.60000610352</ele>
        <time>2022-06-25T07:11:25.000Z</time>
      </trkpt>
      <trkpt lat="46.88749" lon="3.5124">
        <ele>237.60000610352</ele>
        <time>2022-06-25T07:11:27.000Z</time>
      </trkpt>
      <trkpt lat="46.88743" lon="3.51178">
        <ele>239.39999389648</ele>
        <time>2022-06-25T07:11:34.000Z</time>
      </trkpt>
      <trkpt lat="46.88739" lon="3.51128">
        <ele>241.19999694824</ele>
        <time>2022-06-25T07:11:41.000Z</time>
      </trkpt>
      <trkpt lat="46.88734" lon="3.51065">
        <ele>243.60000610352</ele>
        <time>2022-06-25T07:11:48.000Z</time>
      </trkpt>
      <trkpt lat="46.88732" lon="3.51042">
        <ele>244.39999389648</ele>
        <time>2022-06-25T07:11:51.000Z</time>
      </trkpt>
      <trkpt lat="46.8873" lon="3.5101">
        <ele>244.19999694824</ele>
        <time>2022-06-25T07:11:55.000Z</time>
      </trkpt>
      <trkpt lat="46.8873" lon="3.51003">
        <ele>244</ele>
        <time>2022-06-25T07:11:56.000Z</time>
      </trkpt>
      <trkpt lat="46.8873" lon="3.50949">
        <ele>244</ele>
        <time>2022-06-25T07:12:03.000Z</time>
      </trkpt>
      <trkpt lat="46.8873" lon="3.50949">
        <ele>244</ele>
        <time>2022-06-25T07:12:04.000Z</time>
      </trkpt>
      <trkpt lat="46.88729" lon="3.50934">
        <ele>244.39999389648</ele>
        <time>2022-06-25T07:12:05.000Z</time>
      </trkpt>
      <trkpt lat="46.88723" lon="3.50904">
        <ele>245.19999694824</ele>
        <time>2022-06-25T07:12:09.000Z</time>
      </trkpt>
      <trkpt lat="46.88722" lon="3.50897">
        <ele>245.39999389648</ele>
        <time>2022-06-25T07:12:10.000Z</time>
      </trkpt>
      <trkpt lat="46.88711" lon="3.50863">
        <ele>246.19999694824</ele>
        <time>2022-06-25T07:12:15.000Z</time>
      </trkpt>
      <trkpt lat="46.88709" lon="3.50856">
        <ele>246.39999389648</ele>
        <time>2022-06-25T07:12:16.000Z</time>
      </trkpt>
      <trkpt lat="46.88695" lon="3.50811">
        <ele>247.80000305176</ele>
        <time>2022-06-25T07:12:23.000Z</time>
      </trkpt>
      <trkpt lat="46.88695" lon="3.50811">
        <ele>247.80000305176</ele>
        <time>2022-06-25T07:12:24.000Z</time>
      </trkpt>
      <trkpt lat="46.88692" lon="3.50799">
        <ele>248.60000610352</ele>
        <time>2022-06-25T07:12:25.000Z</time>
      </trkpt>
      <trkpt lat="46.88682" lon="3.50759">
        <ele>250.60000610352</ele>
        <time>2022-06-25T07:12:31.000Z</time>
      </trkpt>
      <trkpt lat="46.88681" lon="3.50752">
        <ele>250.80000305176</ele>
        <time>2022-06-25T07:12:32.000Z</time>
      </trkpt>
      <trkpt lat="46.8868" lon="3.50738">
        <ele>250.80000305176</ele>
        <time>2022-06-25T07:12:34.000Z</time>
      </trkpt>
      <trkpt lat="46.8868" lon="3.50725">
        <ele>251</ele>
        <time>2022-06-25T07:12:36.000Z</time>
      </trkpt>
      <trkpt lat="46.88681" lon="3.50692">
        <ele>251</ele>
        <time>2022-06-25T07:12:41.000Z</time>
      </trkpt>
      <trkpt lat="46.88681" lon="3.50661">
        <ele>252</ele>
        <time>2022-06-25T07:12:46.000Z</time>
      </trkpt>
      <trkpt lat="46.88682" lon="3.50651">
        <ele>252</ele>
        <time>2022-06-25T07:12:48.000Z</time>
      </trkpt>
      <trkpt lat="46.88689" lon="3.50634">
        <ele>252</ele>
        <time>2022-06-25T07:12:52.000Z</time>
      </trkpt>
      <trkpt lat="46.88702" lon="3.50612">
        <ele>252.80000305176</ele>
        <time>2022-06-25T07:12:57.000Z</time>
      </trkpt>
      <trkpt lat="46.88702" lon="3.50607">
        <ele>252.80000305176</ele>
        <time>2022-06-25T07:12:58.000Z</time>
      </trkpt>
      <trkpt lat="46.88696" lon="3.50601">
        <ele>252.60000610352</ele>
        <time>2022-06-25T07:13:01.000Z</time>
      </trkpt>
      <trkpt lat="46.88664" lon="3.50576">
        <ele>251.60000610352</ele>
        <time>2022-06-25T07:13:07.000Z</time>
      </trkpt>
      <trkpt lat="46.88621" lon="3.5055">
        <ele>251.19999694824</ele>
        <time>2022-06-25T07:13:15.000Z</time>
      </trkpt>
      <trkpt lat="46.8858" lon="3.5052">
        <ele>251</ele>
        <time>2022-06-25T07:13:23.000Z</time>
      </trkpt>
      <trkpt lat="46.88541" lon="3.50483">
        <ele>251.60000610352</ele>
        <time>2022-06-25T07:13:31.000Z</time>
      </trkpt>
      <trkpt lat="46.88513" lon="3.50456">
        <ele>253.19999694824</ele>
        <time>2022-06-25T07:13:37.000Z</time>
      </trkpt>
      <trkpt lat="46.88503" lon="3.50449">
        <ele>254</ele>
        <time>2022-06-25T07:13:39.000Z</time>
      </trkpt>
      <trkpt lat="46.88476" lon="3.50424">
        <ele>256.39999389648</ele>
        <time>2022-06-25T07:13:45.000Z</time>
      </trkpt>
      <trkpt lat="46.88467" lon="3.50417">
        <ele>257</ele>
        <time>2022-06-25T07:13:47.000Z</time>
      </trkpt>
      <trkpt lat="46.88443" lon="3.50407">
        <ele>257.20001220703</ele>
        <time>2022-06-25T07:13:52.000Z</time>
      </trkpt>
      <trkpt lat="46.88422" lon="3.504">
        <ele>257</ele>
        <time>2022-06-25T07:13:56.000Z</time>
      </trkpt>
      <trkpt lat="46.88412" lon="3.50397">
        <ele>256.79998779297</ele>
        <time>2022-06-25T07:13:58.000Z</time>
      </trkpt>
      <trkpt lat="46.88406" lon="3.50395">
        <ele>256.79998779297</ele>
        <time>2022-06-25T07:13:59.000Z</time>
      </trkpt>
      <trkpt lat="46.88372" lon="3.50379">
        <ele>255.60000610352</ele>
        <time>2022-06-25T07:14:06.000Z</time>
      </trkpt>
      <trkpt lat="46.88367" lon="3.50377">
        <ele>255.60000610352</ele>
        <time>2022-06-25T07:14:07.000Z</time>
      </trkpt>
      <trkpt lat="46.88353" lon="3.50371">
        <ele>255.60000610352</ele>
        <time>2022-06-25T07:14:10.000Z</time>
      </trkpt>
      <trkpt lat="46.88343" lon="3.50368">
        <ele>255.60000610352</ele>
        <time>2022-06-25T07:14:12.000Z</time>
      </trkpt>
      <trkpt lat="46.88339" lon="3.50366">
        <ele>255.80000305176</ele>
        <time>2022-06-25T07:14:13.000Z</time>
      </trkpt>
      <trkpt lat="46.88319" lon="3.50359">
        <ele>257</ele>
        <time>2022-06-25T07:14:17.000Z</time>
      </trkpt>
      <trkpt lat="46.88311" lon="3.50357">
        <ele>257.39999389648</ele>
        <time>2022-06-25T07:14:19.000Z</time>
      </trkpt>
      <trkpt lat="46.88306" lon="3.50355">
        <ele>257.39999389648</ele>
        <time>2022-06-25T07:14:20.000Z</time>
      </trkpt>
      <trkpt lat="46.88301" lon="3.50353">
        <ele>257.60000610352</ele>
        <time>2022-06-25T07:14:21.000Z</time>
      </trkpt>
      <trkpt lat="46.88261" lon="3.50343">
        <ele>257.39999389648</ele>
        <time>2022-06-25T07:14:29.000Z</time>
      </trkpt>
      <trkpt lat="46.88256" lon="3.50343">
        <ele>257.39999389648</ele>
        <time>2022-06-25T07:14:30.000Z</time>
      </trkpt>
      <trkpt lat="46.88216" lon="3.50344">
        <ele>256.79998779297</ele>
        <time>2022-06-25T07:14:37.000Z</time>
      </trkpt>
      <trkpt lat="46.88162" lon="3.50349">
        <ele>256.79998779297</ele>
        <time>2022-06-25T07:14:46.000Z</time>
      </trkpt>
      <trkpt lat="46.88112" lon="3.50352">
        <ele>256.20001220703</ele>
        <time>2022-06-25T07:14:54.000Z</time>
      </trkpt>
      <trkpt lat="46.88107" lon="3.50352">
        <ele>256.20001220703</ele>
        <time>2022-06-25T07:14:55.000Z</time>
      </trkpt>
      <trkpt lat="46.88054" lon="3.50353">
        <ele>256.60000610352</ele>
        <time>2022-06-25T07:15:04.000Z</time>
      </trkpt>
      <trkpt lat="46.88008" lon="3.50348">
        <ele>258</ele>
        <time>2022-06-25T07:15:12.000Z</time>
      </trkpt>
      <trkpt lat="46.8796" lon="3.50341">
        <ele>259.60000610352</ele>
        <time>2022-06-25T07:15:21.000Z</time>
      </trkpt>
      <trkpt lat="46.87929" lon="3.5034">
        <ele>260.79998779297</ele>
        <time>2022-06-25T07:15:27.000Z</time>
      </trkpt>
      <trkpt lat="46.87914" lon="3.50342">
        <ele>261.60000610352</ele>
        <time>2022-06-25T07:15:30.000Z</time>
      </trkpt>
      <trkpt lat="46.87894" lon="3.50344">
        <ele>262.60000610352</ele>
        <time>2022-06-25T07:15:34.000Z</time>
      </trkpt>
      <trkpt lat="46.87879" lon="3.50345">
        <ele>262.60000610352</ele>
        <time>2022-06-25T07:15:37.000Z</time>
      </trkpt>
      <trkpt lat="46.87854" lon="3.50348">
        <ele>262.39999389648</ele>
        <time>2022-06-25T07:15:42.000Z</time>
      </trkpt>
      <trkpt lat="46.87839" lon="3.50349">
        <ele>261.79998779297</ele>
        <time>2022-06-25T07:15:45.000Z</time>
      </trkpt>
      <trkpt lat="46.8782" lon="3.50351">
        <ele>261.39999389648</ele>
        <time>2022-06-25T07:15:49.000Z</time>
      </trkpt>
      <trkpt lat="46.87815" lon="3.50351">
        <ele>261.39999389648</ele>
        <time>2022-06-25T07:15:50.000Z</time>
      </trkpt>
      <trkpt lat="46.878" lon="3.50353">
        <ele>261.20001220703</ele>
        <time>2022-06-25T07:15:53.000Z</time>
      </trkpt>
      <trkpt lat="46.87767" lon="3.50357">
        <ele>262</ele>
        <time>2022-06-25T07:16:00.000Z</time>
      </trkpt>
      <trkpt lat="46.87762" lon="3.50357">
        <ele>262</ele>
        <time>2022-06-25T07:16:01.000Z</time>
      </trkpt>
      <trkpt lat="46.87729" lon="3.50366">
        <ele>263.79998779297</ele>
        <time>2022-06-25T07:16:08.000Z</time>
      </trkpt>
      <trkpt lat="46.87724" lon="3.50368">
        <ele>263.79998779297</ele>
        <time>2022-06-25T07:16:09.000Z</time>
      </trkpt>
      <trkpt lat="46.87684" lon="3.50382">
        <ele>264.20001220703</ele>
        <time>2022-06-25T07:16:17.000Z</time>
      </trkpt>
      <trkpt lat="46.87654" lon="3.5039">
        <ele>264.79998779297</ele>
        <time>2022-06-25T07:16:23.000Z</time>
      </trkpt>
      <trkpt lat="46.8763" lon="3.50397">
        <ele>266.20001220703</ele>
        <time>2022-06-25T07:16:28.000Z</time>
      </trkpt>
      <trkpt lat="46.87596" lon="3.50405">
        <ele>267.79998779297</ele>
        <time>2022-06-25T07:16:35.000Z</time>
      </trkpt>
      <trkpt lat="46.87592" lon="3.50405">
        <ele>268</ele>
        <time>2022-06-25T07:16:36.000Z</time>
      </trkpt>
      <trkpt lat="46.87577" lon="3.50403">
        <ele>268.60000610352</ele>
        <time>2022-06-25T07:16:39.000Z</time>
      </trkpt>
      <trkpt lat="46.87561" lon="3.50397">
        <ele>269.20001220703</ele>
        <time>2022-06-25T07:16:42.000Z</time>
      </trkpt>
      <trkpt lat="46.87556" lon="3.50395">
        <ele>269.20001220703</ele>
        <time>2022-06-25T07:16:43.000Z</time>
      </trkpt>
      <trkpt lat="46.87523" lon="3.50373">
        <ele>268.39999389648</ele>
        <time>2022-06-25T07:16:50.000Z</time>
      </trkpt>
      <trkpt lat="46.87514" lon="3.50366">
        <ele>268.20001220703</ele>
        <time>2022-06-25T07:16:52.000Z</time>
      </trkpt>
      <trkpt lat="46.87487" lon="3.50348">
        <ele>266.20001220703</ele>
        <time>2022-06-25T07:16:58.000Z</time>
      </trkpt>
      <trkpt lat="46.8746" lon="3.50329">
        <ele>263.39999389648</ele>
        <time>2022-06-25T07:17:03.000Z</time>
      </trkpt>
      <trkpt lat="46.87448" lon="3.5032">
        <ele>262.60000610352</ele>
        <time>2022-06-25T07:17:05.000Z</time>
      </trkpt>
      <trkpt lat="46.87427" lon="3.50307">
        <ele>262</ele>
        <time>2022-06-25T07:17:08.000Z</time>
      </trkpt>
      <trkpt lat="46.87412" lon="3.50296">
        <ele>262</ele>
        <time>2022-06-25T07:17:10.000Z</time>
      </trkpt>
      <trkpt lat="46.87389" lon="3.5028">
        <ele>261.20001220703</ele>
        <time>2022-06-25T07:17:13.000Z</time>
      </trkpt>
      <trkpt lat="46.8738" lon="3.50274">
        <ele>260.60000610352</ele>
        <time>2022-06-25T07:17:14.000Z</time>
      </trkpt>
      <trkpt lat="46.87364" lon="3.50262">
        <ele>258.79998779297</ele>
        <time>2022-06-25T07:17:16.000Z</time>
      </trkpt>
      <trkpt lat="46.87338" lon="3.50245">
        <ele>255</ele>
        <time>2022-06-25T07:17:19.000Z</time>
      </trkpt>
      <trkpt lat="46.8732" lon="3.50233">
        <ele>252</ele>
        <time>2022-06-25T07:17:21.000Z</time>
      </trkpt>
      <trkpt lat="46.87301" lon="3.50223">
        <ele>250</ele>
        <time>2022-06-25T07:17:23.000Z</time>
      </trkpt>
      <trkpt lat="46.87282" lon="3.50218">
        <ele>248.60000610352</ele>
        <time>2022-06-25T07:17:25.000Z</time>
      </trkpt>
      <trkpt lat="46.87272" lon="3.50217">
        <ele>248.19999694824</ele>
        <time>2022-06-25T07:17:26.000Z</time>
      </trkpt>
      <trkpt lat="46.87252" lon="3.50217">
        <ele>247.39999389648</ele>
        <time>2022-06-25T07:17:28.000Z</time>
      </trkpt>
      <trkpt lat="46.87241" lon="3.50218">
        <ele>247.19999694824</ele>
        <time>2022-06-25T07:17:29.000Z</time>
      </trkpt>
      <trkpt lat="46.87231" lon="3.50219">
        <ele>246.80000305176</ele>
        <time>2022-06-25T07:17:30.000Z</time>
      </trkpt>
      <trkpt lat="46.8721" lon="3.50222">
        <ele>245.39999389648</ele>
        <time>2022-06-25T07:17:32.000Z</time>
      </trkpt>
      <trkpt lat="46.8719" lon="3.50224">
        <ele>244.60000610352</ele>
        <time>2022-06-25T07:17:34.000Z</time>
      </trkpt>
      <trkpt lat="46.8718" lon="3.50225">
        <ele>244.19999694824</ele>
        <time>2022-06-25T07:17:35.000Z</time>
      </trkpt>
      <trkpt lat="46.8715" lon="3.50228">
        <ele>243</ele>
        <time>2022-06-25T07:17:38.000Z</time>
      </trkpt>
      <trkpt lat="46.87141" lon="3.50229">
        <ele>242.60000610352</ele>
        <time>2022-06-25T07:17:39.000Z</time>
      </trkpt>
      <trkpt lat="46.87131" lon="3.5023">
        <ele>242.39999389648</ele>
        <time>2022-06-25T07:17:40.000Z</time>
      </trkpt>
      <trkpt lat="46.87112" lon="3.50232">
        <ele>241.39999389648</ele>
        <time>2022-06-25T07:17:42.000Z</time>
      </trkpt>
      <trkpt lat="46.87075" lon="3.50236">
        <ele>238.60000610352</ele>
        <time>2022-06-25T07:17:46.000Z</time>
      </trkpt>
      <trkpt lat="46.87066" lon="3.50237">
        <ele>238</ele>
        <time>2022-06-25T07:17:47.000Z</time>
      </trkpt>
      <trkpt lat="46.87048" lon="3.50239">
        <ele>237.60000610352</ele>
        <time>2022-06-25T07:17:49.000Z</time>
      </trkpt>
      <trkpt lat="46.87022" lon="3.5024">
        <ele>237.60000610352</ele>
        <time>2022-06-25T07:17:52.000Z</time>
      </trkpt>
      <trkpt lat="46.87005" lon="3.50239">
        <ele>237.60000610352</ele>
        <time>2022-06-25T07:17:54.000Z</time>
      </trkpt>
      <trkpt lat="46.86994" lon="3.50237">
        <ele>237.39999389648</ele>
        <time>2022-06-25T07:17:55.000Z</time>
      </trkpt>
      <trkpt lat="46.8697" lon="3.50232">
        <ele>236.19999694824</ele>
        <time>2022-06-25T07:17:58.000Z</time>
      </trkpt>
      <trkpt lat="46.86947" lon="3.50226">
        <ele>234.80000305176</ele>
        <time>2022-06-25T07:18:01.000Z</time>
      </trkpt>
      <trkpt lat="46.86939" lon="3.50224">
        <ele>234.39999389648</ele>
        <time>2022-06-25T07:18:02.000Z</time>
      </trkpt>
      <trkpt lat="46.86916" lon="3.50218">
        <ele>233.39999389648</ele>
        <time>2022-06-25T07:18:05.000Z</time>
      </trkpt>
      <trkpt lat="46.86892" lon="3.50212">
        <ele>232.39999389648</ele>
        <time>2022-06-25T07:18:08.000Z</time>
      </trkpt>
      <trkpt lat="46.86869" lon="3.50206">
        <ele>231</ele>
        <time>2022-06-25T07:18:11.000Z</time>
      </trkpt>
      <trkpt lat="46.86854" lon="3.50202">
        <ele>231</ele>
        <time>2022-06-25T07:18:13.000Z</time>
      </trkpt>
      <trkpt lat="46.86823" lon="3.50193">
        <ele>230.19999694824</ele>
        <time>2022-06-25T07:18:17.000Z</time>
      </trkpt>
      <trkpt lat="46.86799" lon="3.50187">
        <ele>228</ele>
        <time>2022-06-25T07:18:20.000Z</time>
      </trkpt>
      <trkpt lat="46.86775" lon="3.50181">
        <ele>224.60000610352</ele>
        <time>2022-06-25T07:18:23.000Z</time>
      </trkpt>
      <trkpt lat="46.86742" lon="3.50174">
        <ele>221.60000610352</ele>
        <time>2022-06-25T07:18:27.000Z</time>
      </trkpt>
      <trkpt lat="46.86725" lon="3.5017">
        <ele>221.19999694824</ele>
        <time>2022-06-25T07:18:29.000Z</time>
      </trkpt>
      <trkpt lat="46.86717" lon="3.50168">
        <ele>221.60000610352</ele>
        <time>2022-06-25T07:18:30.000Z</time>
      </trkpt>
      <trkpt lat="46.86692" lon="3.50162">
        <ele>222.60000610352</ele>
        <time>2022-06-25T07:18:33.000Z</time>
      </trkpt>
      <trkpt lat="46.8666" lon="3.50154">
        <ele>223.60000610352</ele>
        <time>2022-06-25T07:18:37.000Z</time>
      </trkpt>
      <trkpt lat="46.86654" lon="3.50152">
        <ele>223.80000305176</ele>
        <time>2022-06-25T07:18:38.000Z</time>
      </trkpt>
      <trkpt lat="46.8661" lon="3.50141">
        <ele>223.60000610352</ele>
        <time>2022-06-25T07:18:44.000Z</time>
      </trkpt>
      <trkpt lat="46.86587" lon="3.50135">
        <ele>223.60000610352</ele>
        <time>2022-06-25T07:18:47.000Z</time>
      </trkpt>
      <trkpt lat="46.86558" lon="3.50128">
        <ele>222.60000610352</ele>
        <time>2022-06-25T07:18:51.000Z</time>
      </trkpt>
      <trkpt lat="46.86529" lon="3.5012">
        <ele>221</ele>
        <time>2022-06-25T07:18:55.000Z</time>
      </trkpt>
      <trkpt lat="46.86508" lon="3.50115">
        <ele>220.39999389648</ele>
        <time>2022-06-25T07:18:58.000Z</time>
      </trkpt>
      <trkpt lat="46.86481" lon="3.50108">
        <ele>219.80000305176</ele>
        <time>2022-06-25T07:19:02.000Z</time>
      </trkpt>
      <trkpt lat="46.86446" lon="3.50101">
        <ele>218.60000610352</ele>
        <time>2022-06-25T07:19:07.000Z</time>
      </trkpt>
      <trkpt lat="46.86439" lon="3.50099">
        <ele>218.60000610352</ele>
        <time>2022-06-25T07:19:08.000Z</time>
      </trkpt>
      <trkpt lat="46.86395" lon="3.50089">
        <ele>219.39999389648</ele>
        <time>2022-06-25T07:19:14.000Z</time>
      </trkpt>
      <trkpt lat="46.86338" lon="3.50074">
        <ele>221.60000610352</ele>
        <time>2022-06-25T07:19:22.000Z</time>
      </trkpt>
      <trkpt lat="46.8633" lon="3.50072">
        <ele>221.60000610352</ele>
        <time>2022-06-25T07:19:23.000Z</time>
      </trkpt>
      <trkpt lat="46.86308" lon="3.50068">
        <ele>221.80000305176</ele>
        <time>2022-06-25T07:19:26.000Z</time>
      </trkpt>
      <trkpt lat="46.86274" lon="3.50059">
        <ele>222.19999694824</ele>
        <time>2022-06-25T07:19:31.000Z</time>
      </trkpt>
      <trkpt lat="46.86216" lon="3.50043">
        <ele>222</ele>
        <time>2022-06-25T07:19:40.000Z</time>
      </trkpt>
      <trkpt lat="46.86183" lon="3.50035">
        <ele>221.39999389648</ele>
        <time>2022-06-25T07:19:46.000Z</time>
      </trkpt>
      <trkpt lat="46.86177" lon="3.50034">
        <ele>221.39999389648</ele>
        <time>2022-06-25T07:19:47.000Z</time>
      </trkpt>
      <trkpt lat="46.86153" lon="3.50029">
        <ele>224.39999389648</ele>
        <time>2022-06-25T07:19:52.000Z</time>
      </trkpt>
      <trkpt lat="46.86149" lon="3.50028">
        <ele>225</ele>
        <time>2022-06-25T07:19:53.000Z</time>
      </trkpt>
      <trkpt lat="46.8613" lon="3.50022">
        <ele>227</ele>
        <time>2022-06-25T07:19:57.000Z</time>
      </trkpt>
      <trkpt lat="46.86111" lon="3.50017">
        <ele>228.39999389648</ele>
        <time>2022-06-25T07:20:01.000Z</time>
      </trkpt>
      <trkpt lat="46.86106" lon="3.50015">
        <ele>228.60000610352</ele>
        <time>2022-06-25T07:20:02.000Z</time>
      </trkpt>
      <trkpt lat="46.86102" lon="3.50013">
        <ele>228.80000305176</ele>
        <time>2022-06-25T07:20:03.000Z</time>
      </trkpt>
      <trkpt lat="46.86093" lon="3.50011">
        <ele>229.39999389648</ele>
        <time>2022-06-25T07:20:05.000Z</time>
      </trkpt>
      <trkpt lat="46.86083" lon="3.5001">
        <ele>230.39999389648</ele>
        <time>2022-06-25T07:20:07.000Z</time>
      </trkpt>
      <trkpt lat="46.86074" lon="3.50008">
        <ele>231.39999389648</ele>
        <time>2022-06-25T07:20:09.000Z</time>
      </trkpt>
      <trkpt lat="46.86054" lon="3.50003">
        <ele>233</ele>
        <time>2022-06-25T07:20:13.000Z</time>
      </trkpt>
      <trkpt lat="46.86045" lon="3.5">
        <ele>233.39999389648</ele>
        <time>2022-06-25T07:20:15.000Z</time>
      </trkpt>
      <trkpt lat="46.86041" lon="3.49999">
        <ele>233.60000610352</ele>
        <time>2022-06-25T07:20:16.000Z</time>
      </trkpt>
      <trkpt lat="46.86036" lon="3.49998">
        <ele>234</ele>
        <time>2022-06-25T07:20:17.000Z</time>
      </trkpt>
      <trkpt lat="46.86027" lon="3.49995">
        <ele>234.39999389648</ele>
        <time>2022-06-25T07:20:19.000Z</time>
      </trkpt>
      <trkpt lat="46.86017" lon="3.49994">
        <ele>235</ele>
        <time>2022-06-25T07:20:21.000Z</time>
      </trkpt>
      <trkpt lat="46.86009" lon="3.49992">
        <ele>235.60000610352</ele>
        <time>2022-06-25T07:20:23.000Z</time>
      </trkpt>
      <trkpt lat="46.86" lon="3.49991">
        <ele>236</ele>
        <time>2022-06-25T07:20:25.000Z</time>
      </trkpt>
      <trkpt lat="46.85982" lon="3.49989">
        <ele>236</ele>
        <time>2022-06-25T07:20:29.000Z</time>
      </trkpt>
      <trkpt lat="46.85976" lon="3.49989">
        <ele>236.19999694824</ele>
        <time>2022-06-25T07:20:30.000Z</time>
      </trkpt>
      <trkpt lat="46.85956" lon="3.49988">
        <ele>237</ele>
        <time>2022-06-25T07:20:34.000Z</time>
      </trkpt>
      <trkpt lat="46.85943" lon="3.49988">
        <ele>237.39999389648</ele>
        <time>2022-06-25T07:20:37.000Z</time>
      </trkpt>
      <trkpt lat="46.85938" lon="3.49988">
        <ele>237.60000610352</ele>
        <time>2022-06-25T07:20:38.000Z</time>
      </trkpt>
      <trkpt lat="46.85934" lon="3.49988">
        <ele>237.80000305176</ele>
        <time>2022-06-25T07:20:39.000Z</time>
      </trkpt>
      <trkpt lat="46.85913" lon="3.49991">
        <ele>239</ele>
        <time>2022-06-25T07:20:43.000Z</time>
      </trkpt>
      <trkpt lat="46.85905" lon="3.49992">
        <ele>239.60000610352</ele>
        <time>2022-06-25T07:20:45.000Z</time>
      </trkpt>
      <trkpt lat="46.85896" lon="3.49993">
        <ele>240.19999694824</ele>
        <time>2022-06-25T07:20:47.000Z</time>
      </trkpt>
      <trkpt lat="46.85891" lon="3.49993">
        <ele>240.60000610352</ele>
        <time>2022-06-25T07:20:48.000Z</time>
      </trkpt>
      <trkpt lat="46.85877" lon="3.49995">
        <ele>241</ele>
        <time>2022-06-25T07:20:51.000Z</time>
      </trkpt>
      <trkpt lat="46.85868" lon="3.49995">
        <ele>241</ele>
        <time>2022-06-25T07:20:53.000Z</time>
      </trkpt>
      <trkpt lat="46.85858" lon="3.49996">
        <ele>241</ele>
        <time>2022-06-25T07:20:55.000Z</time>
      </trkpt>
      <trkpt lat="46.85854" lon="3.49996">
        <ele>241</ele>
        <time>2022-06-25T07:20:56.000Z</time>
      </trkpt>
      <trkpt lat="46.85844" lon="3.49996">
        <ele>241</ele>
        <time>2022-06-25T07:20:58.000Z</time>
      </trkpt>
      <trkpt lat="46.85825" lon="3.49996">
        <ele>240.39999389648</ele>
        <time>2022-06-25T07:21:02.000Z</time>
      </trkpt>
      <trkpt lat="46.85816" lon="3.49997">
        <ele>240</ele>
        <time>2022-06-25T07:21:04.000Z</time>
      </trkpt>
      <trkpt lat="46.85806" lon="3.49998">
        <ele>240.19999694824</ele>
        <time>2022-06-25T07:21:06.000Z</time>
      </trkpt>
      <trkpt lat="46.85782" lon="3.50001">
        <ele>241.19999694824</ele>
        <time>2022-06-25T07:21:11.000Z</time>
      </trkpt>
      <trkpt lat="46.85773" lon="3.50001">
        <ele>241.60000610352</ele>
        <time>2022-06-25T07:21:13.000Z</time>
      </trkpt>
      <trkpt lat="46.8576" lon="3.50003">
        <ele>242</ele>
        <time>2022-06-25T07:21:16.000Z</time>
      </trkpt>
      <trkpt lat="46.85739" lon="3.50005">
        <ele>241</ele>
        <time>2022-06-25T07:21:21.000Z</time>
      </trkpt>
      <trkpt lat="46.85735" lon="3.50004">
        <ele>241</ele>
        <time>2022-06-25T07:21:22.000Z</time>
      </trkpt>
      <trkpt lat="46.8573" lon="3.50004">
        <ele>241</ele>
        <time>2022-06-25T07:21:23.000Z</time>
      </trkpt>
      <trkpt lat="46.8572" lon="3.50004">
        <ele>241</ele>
        <time>2022-06-25T07:21:25.000Z</time>
      </trkpt>
      <trkpt lat="46.857" lon="3.50002">
        <ele>241</ele>
        <time>2022-06-25T07:21:29.000Z</time>
      </trkpt>
      <trkpt lat="46.85689" lon="3.50001">
        <ele>241</ele>
        <time>2022-06-25T07:21:31.000Z</time>
      </trkpt>
      <trkpt lat="46.85664" lon="3.49998">
        <ele>240.60000610352</ele>
        <time>2022-06-25T07:21:36.000Z</time>
      </trkpt>
      <trkpt lat="46.8563" lon="3.49991">
        <ele>239.60000610352</ele>
        <time>2022-06-25T07:21:42.000Z</time>
      </trkpt>
      <trkpt lat="46.85586" lon="3.49979">
        <ele>238.80000305176</ele>
        <time>2022-06-25T07:21:49.000Z</time>
      </trkpt>
      <trkpt lat="46.85559" lon="3.49974">
        <ele>238.60000610352</ele>
        <time>2022-06-25T07:21:53.000Z</time>
      </trkpt>
      <trkpt lat="46.85532" lon="3.4997">
        <ele>238</ele>
        <time>2022-06-25T07:21:57.000Z</time>
      </trkpt>
      <trkpt lat="46.85511" lon="3.49966">
        <ele>238.19999694824</ele>
        <time>2022-06-25T07:22:00.000Z</time>
      </trkpt>
      <trkpt lat="46.85489" lon="3.49961">
        <ele>237.39999389648</ele>
        <time>2022-06-25T07:22:03.000Z</time>
      </trkpt>
      <trkpt lat="46.85475" lon="3.49958">
        <ele>236.80000305176</ele>
        <time>2022-06-25T07:22:05.000Z</time>
      </trkpt>
      <trkpt lat="46.85446" lon="3.49952">
        <ele>236.80000305176</ele>
        <time>2022-06-25T07:22:09.000Z</time>
      </trkpt>
      <trkpt lat="46.85392" lon="3.49939">
        <ele>239.80000305176</ele>
        <time>2022-06-25T07:22:17.000Z</time>
      </trkpt>
      <trkpt lat="46.85372" lon="3.49936">
        <ele>240.80000305176</ele>
        <time>2022-06-25T07:22:20.000Z</time>
      </trkpt>
      <trkpt lat="46.85348" lon="3.49931">
        <ele>240.60000610352</ele>
        <time>2022-06-25T07:22:24.000Z</time>
      </trkpt>
      <trkpt lat="46.85325" lon="3.49927">
        <ele>239.60000610352</ele>
        <time>2022-06-25T07:22:28.000Z</time>
      </trkpt>
      <trkpt lat="46.85308" lon="3.49924">
        <ele>239.39999389648</ele>
        <time>2022-06-25T07:22:31.000Z</time>
      </trkpt>
      <trkpt lat="46.85254" lon="3.49918">
        <ele>240.19999694824</ele>
        <time>2022-06-25T07:22:40.000Z</time>
      </trkpt>
      <trkpt lat="46.85242" lon="3.49918">
        <ele>240.60000610352</ele>
        <time>2022-06-25T07:22:42.000Z</time>
      </trkpt>
      <trkpt lat="46.85194" lon="3.49916">
        <ele>239.60000610352</ele>
        <time>2022-06-25T07:22:50.000Z</time>
      </trkpt>
      <trkpt lat="46.85152" lon="3.49915">
        <ele>238.19999694824</ele>
        <time>2022-06-25T07:22:57.000Z</time>
      </trkpt>
      <trkpt lat="46.85098" lon="3.49912">
        <ele>237.39999389648</ele>
        <time>2022-06-25T07:23:06.000Z</time>
      </trkpt>
      <trkpt lat="46.85081" lon="3.49911">
        <ele>237.19999694824</ele>
        <time>2022-06-25T07:23:09.000Z</time>
      </trkpt>
      <trkpt lat="46.85057" lon="3.49909">
        <ele>236.60000610352</ele>
        <time>2022-06-25T07:23:13.000Z</time>
      </trkpt>
      <trkpt lat="46.84998" lon="3.49903">
        <ele>233.60000610352</ele>
        <time>2022-06-25T07:23:23.000Z</time>
      </trkpt>
      <trkpt lat="46.84976" lon="3.49901">
        <ele>232.80000305176</ele>
        <time>2022-06-25T07:23:27.000Z</time>
      </trkpt>
      <trkpt lat="46.84959" lon="3.49899">
        <ele>232.60000610352</ele>
        <time>2022-06-25T07:23:30.000Z</time>
      </trkpt>
      <trkpt lat="46.84937" lon="3.49895">
        <ele>232.80000305176</ele>
        <time>2022-06-25T07:23:34.000Z</time>
      </trkpt>
      <trkpt lat="46.84914" lon="3.49892">
        <ele>233.39999389648</ele>
        <time>2022-06-25T07:23:38.000Z</time>
      </trkpt>
      <trkpt lat="46.84861" lon="3.49878">
        <ele>235</ele>
        <time>2022-06-25T07:23:47.000Z</time>
      </trkpt>
      <trkpt lat="46.84855" lon="3.49876">
        <ele>235.19999694824</ele>
        <time>2022-06-25T07:23:48.000Z</time>
      </trkpt>
      <trkpt lat="46.84812" lon="3.49858">
        <ele>235.80000305176</ele>
        <time>2022-06-25T07:23:55.000Z</time>
      </trkpt>
      <trkpt lat="46.84783" lon="3.49838">
        <ele>235.19999694824</ele>
        <time>2022-06-25T07:24:00.000Z</time>
      </trkpt>
      <trkpt lat="46.84778" lon="3.49833">
        <ele>235</ele>
        <time>2022-06-25T07:24:01.000Z</time>
      </trkpt>
      <trkpt lat="46.84743" lon="3.49804">
        <ele>232.80000305176</ele>
        <time>2022-06-25T07:24:07.000Z</time>
      </trkpt>
      <trkpt lat="46.84702" lon="3.49765">
        <ele>228.80000305176</ele>
        <time>2022-06-25T07:24:15.000Z</time>
      </trkpt>
      <trkpt lat="46.84696" lon="3.4976">
        <ele>228.19999694824</ele>
        <time>2022-06-25T07:24:16.000Z</time>
      </trkpt>
      <trkpt lat="46.84657" lon="3.49723">
        <ele>226.19999694824</ele>
        <time>2022-06-25T07:24:23.000Z</time>
      </trkpt>
      <trkpt lat="46.84645" lon="3.49713">
        <ele>226.39999389648</ele>
        <time>2022-06-25T07:24:25.000Z</time>
      </trkpt>
      <trkpt lat="46.84613" lon="3.49682">
        <ele>227</ele>
        <time>2022-06-25T07:24:31.000Z</time>
      </trkpt>
      <trkpt lat="46.84587" lon="3.49658">
        <ele>227.80000305176</ele>
        <time>2022-06-25T07:24:36.000Z</time>
      </trkpt>
      <trkpt lat="46.84558" lon="3.49631">
        <ele>230.19999694824</ele>
        <time>2022-06-25T07:24:42.000Z</time>
      </trkpt>
      <trkpt lat="46.84517" lon="3.49594">
        <ele>230.19999694824</ele>
        <time>2022-06-25T07:24:50.000Z</time>
      </trkpt>
      <trkpt lat="46.84476" lon="3.49556">
        <ele>228.60000610352</ele>
        <time>2022-06-25T07:24:58.000Z</time>
      </trkpt>
      <trkpt lat="46.84428" lon="3.49513">
        <ele>225.60000610352</ele>
        <time>2022-06-25T07:25:07.000Z</time>
      </trkpt>
      <trkpt lat="46.84423" lon="3.49509">
        <ele>225.60000610352</ele>
        <time>2022-06-25T07:25:08.000Z</time>
      </trkpt>
      <trkpt lat="46.84374" lon="3.49474">
        <ele>227</ele>
        <time>2022-06-25T07:25:17.000Z</time>
      </trkpt>
      <trkpt lat="46.84369" lon="3.4947">
        <ele>227</ele>
        <time>2022-06-25T07:25:18.000Z</time>
      </trkpt>
      <trkpt lat="46.84319" lon="3.49438">
        <ele>226.19999694824</ele>
        <time>2022-06-25T07:25:27.000Z</time>
      </trkpt>
      <trkpt lat="46.84296" lon="3.49424">
        <ele>224</ele>
        <time>2022-06-25T07:25:31.000Z</time>
      </trkpt>
      <trkpt lat="46.84284" lon="3.49418">
        <ele>222.60000610352</ele>
        <time>2022-06-25T07:25:33.000Z</time>
      </trkpt>
      <trkpt lat="46.84277" lon="3.49416">
        <ele>221.80000305176</ele>
        <time>2022-06-25T07:25:34.000Z</time>
      </trkpt>
      <trkpt lat="46.84269" lon="3.49416">
        <ele>221</ele>
        <time>2022-06-25T07:25:35.000Z</time>
      </trkpt>
      <trkpt lat="46.84255" lon="3.49419">
        <ele>219.60000610352</ele>
        <time>2022-06-25T07:25:37.000Z</time>
      </trkpt>
      <trkpt lat="46.84247" lon="3.49424">
        <ele>219.19999694824</ele>
        <time>2022-06-25T07:25:38.000Z</time>
      </trkpt>
      <trkpt lat="46.84241" lon="3.49429">
        <ele>218.60000610352</ele>
        <time>2022-06-25T07:25:39.000Z</time>
      </trkpt>
      <trkpt lat="46.84229" lon="3.49446">
        <ele>217.80000305176</ele>
        <time>2022-06-25T07:25:41.000Z</time>
      </trkpt>
      <trkpt lat="46.8422" lon="3.49467">
        <ele>216.80000305176</ele>
        <time>2022-06-25T07:25:43.000Z</time>
      </trkpt>
      <trkpt lat="46.84212" lon="3.49489">
        <ele>216</ele>
        <time>2022-06-25T07:25:45.000Z</time>
      </trkpt>
      <trkpt lat="46.84208" lon="3.495">
        <ele>215.39999389648</ele>
        <time>2022-06-25T07:25:46.000Z</time>
      </trkpt>
      <trkpt lat="46.842" lon="3.49521">
        <ele>213.60000610352</ele>
        <time>2022-06-25T07:25:48.000Z</time>
      </trkpt>
      <trkpt lat="46.84192" lon="3.4954">
        <ele>212.19999694824</ele>
        <time>2022-06-25T07:25:50.000Z</time>
      </trkpt>
      <trkpt lat="46.84179" lon="3.49553">
        <ele>211.19999694824</ele>
        <time>2022-06-25T07:25:52.000Z</time>
      </trkpt>
      <trkpt lat="46.84171" lon="3.49555">
        <ele>210.60000610352</ele>
        <time>2022-06-25T07:25:53.000Z</time>
      </trkpt>
      <trkpt lat="46.84163" lon="3.49554">
        <ele>210</ele>
        <time>2022-06-25T07:25:54.000Z</time>
      </trkpt>
      <trkpt lat="46.84149" lon="3.49547">
        <ele>209</ele>
        <time>2022-06-25T07:25:56.000Z</time>
      </trkpt>
      <trkpt lat="46.84143" lon="3.49543">
        <ele>208.19999694824</ele>
        <time>2022-06-25T07:25:57.000Z</time>
      </trkpt>
      <trkpt lat="46.84139" lon="3.4954">
        <ele>207.60000610352</ele>
        <time>2022-06-25T07:25:58.000Z</time>
      </trkpt>
      <trkpt lat="46.84135" lon="3.49536">
        <ele>207</ele>
        <time>2022-06-25T07:25:59.000Z</time>
      </trkpt>
      <trkpt lat="46.84129" lon="3.49528">
        <ele>206.19999694824</ele>
        <time>2022-06-25T07:26:01.000Z</time>
      </trkpt>
      <trkpt lat="46.84127" lon="3.49523">
        <ele>205.60000610352</ele>
        <time>2022-06-25T07:26:02.000Z</time>
      </trkpt>
      <trkpt lat="46.84126" lon="3.49516">
        <ele>205</ele>
        <time>2022-06-25T07:26:03.000Z</time>
      </trkpt>
      <trkpt lat="46.84127" lon="3.49508">
        <ele>204.39999389648</ele>
        <time>2022-06-25T07:26:04.000Z</time>
      </trkpt>
      <trkpt lat="46.84128" lon="3.49499">
        <ele>204.19999694824</ele>
        <time>2022-06-25T07:26:05.000Z</time>
      </trkpt>
      <trkpt lat="46.84131" lon="3.4948">
        <ele>204.19999694824</ele>
        <time>2022-06-25T07:26:07.000Z</time>
      </trkpt>
      <trkpt lat="46.84136" lon="3.49451">
        <ele>203.39999389648</ele>
        <time>2022-06-25T07:26:10.000Z</time>
      </trkpt>
      <trkpt lat="46.84143" lon="3.49395">
        <ele>202.60000610352</ele>
        <time>2022-06-25T07:26:15.000Z</time>
      </trkpt>
      <trkpt lat="46.84147" lon="3.49373">
        <ele>202.19999694824</ele>
        <time>2022-06-25T07:26:17.000Z</time>
      </trkpt>
      <trkpt lat="46.84151" lon="3.49338">
        <ele>202.60000610352</ele>
        <time>2022-06-25T07:26:20.000Z</time>
      </trkpt>
      <trkpt lat="46.84157" lon="3.49303">
        <ele>202</ele>
        <time>2022-06-25T07:26:23.000Z</time>
      </trkpt>
      <trkpt lat="46.84161" lon="3.49279">
        <ele>200.80000305176</ele>
        <time>2022-06-25T07:26:25.000Z</time>
      </trkpt>
      <trkpt lat="46.84171" lon="3.49245">
        <ele>198.19999694824</ele>
        <time>2022-06-25T07:26:28.000Z</time>
      </trkpt>
      <trkpt lat="46.84184" lon="3.4921">
        <ele>196.39999389648</ele>
        <time>2022-06-25T07:26:31.000Z</time>
      </trkpt>
      <trkpt lat="46.84194" lon="3.49187">
        <ele>195.80000305176</ele>
        <time>2022-06-25T07:26:33.000Z</time>
      </trkpt>
      <trkpt lat="46.84199" lon="3.49175">
        <ele>195.19999694824</ele>
        <time>2022-06-25T07:26:34.000Z</time>
      </trkpt>
      <trkpt lat="46.84203" lon="3.49162">
        <ele>194.80000305176</ele>
        <time>2022-06-25T07:26:35.000Z</time>
      </trkpt>
      <trkpt lat="46.84207" lon="3.49149">
        <ele>194.60000610352</ele>
        <time>2022-06-25T07:26:36.000Z</time>
      </trkpt>
      <trkpt lat="46.84209" lon="3.49136">
        <ele>194</ele>
        <time>2022-06-25T07:26:37.000Z</time>
      </trkpt>
      <trkpt lat="46.84211" lon="3.49123">
        <ele>193.60000610352</ele>
        <time>2022-06-25T07:26:38.000Z</time>
      </trkpt>
      <trkpt lat="46.84213" lon="3.49096">
        <ele>193.80000305176</ele>
        <time>2022-06-25T07:26:40.000Z</time>
      </trkpt>
      <trkpt lat="46.84212" lon="3.49084">
        <ele>194</ele>
        <time>2022-06-25T07:26:41.000Z</time>
      </trkpt>
      <trkpt lat="46.84203" lon="3.49028">
        <ele>195</ele>
        <time>2022-06-25T07:26:46.000Z</time>
      </trkpt>
      <trkpt lat="46.84197" lon="3.49009">
        <ele>195.39999389648</ele>
        <time>2022-06-25T07:26:48.000Z</time>
      </trkpt>
      <trkpt lat="46.84186" lon="3.48976">
        <ele>196</ele>
        <time>2022-06-25T07:26:52.000Z</time>
      </trkpt>
      <trkpt lat="46.84167" lon="3.48922">
        <ele>196.39999389648</ele>
        <time>2022-06-25T07:26:59.000Z</time>
      </trkpt>
      <trkpt lat="46.84159" lon="3.48898">
        <ele>196.39999389648</ele>
        <time>2022-06-25T07:27:02.000Z</time>
      </trkpt>
      <trkpt lat="46.84144" lon="3.48853">
        <ele>195.80000305176</ele>
        <time>2022-06-25T07:27:07.000Z</time>
      </trkpt>
      <trkpt lat="46.84122" lon="3.4878">
        <ele>195.19999694824</ele>
        <time>2022-06-25T07:27:15.000Z</time>
      </trkpt>
      <trkpt lat="46.84103" lon="3.48721">
        <ele>195.80000305176</ele>
        <time>2022-06-25T07:27:22.000Z</time>
      </trkpt>
      <trkpt lat="46.84091" lon="3.48686">
        <ele>196</ele>
        <time>2022-06-25T07:27:26.000Z</time>
      </trkpt>
      <trkpt lat="46.84082" lon="3.48672">
        <ele>195.60000610352</ele>
        <time>2022-06-25T07:27:28.000Z</time>
      </trkpt>
      <trkpt lat="46.84065" lon="3.48657">
        <ele>195</ele>
        <time>2022-06-25T07:27:31.000Z</time>
      </trkpt>
      <trkpt lat="46.84059" lon="3.48653">
        <ele>194.80000305176</ele>
        <time>2022-06-25T07:27:32.000Z</time>
      </trkpt>
      <trkpt lat="46.84018" lon="3.4863">
        <ele>193.39999389648</ele>
        <time>2022-06-25T07:27:39.000Z</time>
      </trkpt>
      <trkpt lat="46.83997" lon="3.48624">
        <ele>193</ele>
        <time>2022-06-25T07:27:43.000Z</time>
      </trkpt>
      <trkpt lat="46.83993" lon="3.48623">
        <ele>193</ele>
        <time>2022-06-25T07:27:44.000Z</time>
      </trkpt>
      <trkpt lat="46.83989" lon="3.48619">
        <ele>193</ele>
        <time>2022-06-25T07:27:46.000Z</time>
      </trkpt>
      <trkpt lat="46.83986" lon="3.48613">
        <ele>193</ele>
        <time>2022-06-25T07:27:49.000Z</time>
      </trkpt>
      <trkpt lat="46.83983" lon="3.48613">
        <ele>193</ele>
        <time>2022-06-25T07:27:50.000Z</time>
      </trkpt>
      <trkpt lat="46.83968" lon="3.48617">
        <ele>193</ele>
        <time>2022-06-25T07:27:54.000Z</time>
      </trkpt>
      <trkpt lat="46.83948" lon="3.48611">
        <ele>193</ele>
        <time>2022-06-25T07:27:58.000Z</time>
      </trkpt>
      <trkpt lat="46.83943" lon="3.48607">
        <ele>193</ele>
        <time>2022-06-25T07:27:59.000Z</time>
      </trkpt>
      <trkpt lat="46.83939" lon="3.48601">
        <ele>193</ele>
        <time>2022-06-25T07:28:00.000Z</time>
      </trkpt>
      <trkpt lat="46.83931" lon="3.48586">
        <ele>193</ele>
        <time>2022-06-25T07:28:02.000Z</time>
      </trkpt>
      <trkpt lat="46.83926" lon="3.4856">
        <ele>193</ele>
        <time>2022-06-25T07:28:05.000Z</time>
      </trkpt>
      <trkpt lat="46.83929" lon="3.48547">
        <ele>193</ele>
        <time>2022-06-25T07:28:07.000Z</time>
      </trkpt>
      <trkpt lat="46.83933" lon="3.48541">
        <ele>193</ele>
        <time>2022-06-25T07:28:08.000Z</time>
      </trkpt>
      <trkpt lat="46.83935" lon="3.48535">
        <ele>193</ele>
        <time>2022-06-25T07:28:09.000Z</time>
      </trkpt>
      <trkpt lat="46.83934" lon="3.4852">
        <ele>192.80000305176</ele>
        <time>2022-06-25T07:28:11.000Z</time>
      </trkpt>
      <trkpt lat="46.83922" lon="3.48454">
        <ele>192</ele>
        <time>2022-06-25T07:28:19.000Z</time>
      </trkpt>
      <trkpt lat="46.8392" lon="3.48445">
        <ele>192</ele>
        <time>2022-06-25T07:28:20.000Z</time>
      </trkpt>
      <trkpt lat="46.8391" lon="3.48384">
        <ele>193</ele>
        <time>2022-06-25T07:28:27.000Z</time>
      </trkpt>
      <trkpt lat="46.83898" lon="3.48316">
        <ele>193</ele>
        <time>2022-06-25T07:28:35.000Z</time>
      </trkpt>
      <trkpt lat="46.83884" lon="3.48238">
        <ele>192.39999389648</ele>
        <time>2022-06-25T07:28:44.000Z</time>
      </trkpt>
      <trkpt lat="46.83882" lon="3.48229">
        <ele>192.39999389648</ele>
        <time>2022-06-25T07:28:45.000Z</time>
      </trkpt>
      <trkpt lat="46.8387" lon="3.48152">
        <ele>193</ele>
        <time>2022-06-25T07:28:54.000Z</time>
      </trkpt>
      <trkpt lat="46.83859" lon="3.48092">
        <ele>192</ele>
        <time>2022-06-25T07:29:01.000Z</time>
      </trkpt>
      <trkpt lat="46.83846" lon="3.48013">
        <ele>193</ele>
        <time>2022-06-25T07:29:10.000Z</time>
      </trkpt>
      <trkpt lat="46.83834" lon="3.47937">
        <ele>192</ele>
        <time>2022-06-25T07:29:19.000Z</time>
      </trkpt>
      <trkpt lat="46.83819" lon="3.47853">
        <ele>192.19999694824</ele>
        <time>2022-06-25T07:29:29.000Z</time>
      </trkpt>
      <trkpt lat="46.83806" lon="3.47776">
        <ele>192.60000610352</ele>
        <time>2022-06-25T07:29:38.000Z</time>
      </trkpt>
      <trkpt lat="46.83801" lon="3.4775">
        <ele>193</ele>
        <time>2022-06-25T07:29:41.000Z</time>
      </trkpt>
      <trkpt lat="46.83788" lon="3.47673">
        <ele>192.80000305176</ele>
        <time>2022-06-25T07:29:50.000Z</time>
      </trkpt>
      <trkpt lat="46.83786" lon="3.47665">
        <ele>193</ele>
        <time>2022-06-25T07:29:51.000Z</time>
      </trkpt>
      <trkpt lat="46.83776" lon="3.47604">
        <ele>193.80000305176</ele>
        <time>2022-06-25T07:29:58.000Z</time>
      </trkpt>
      <trkpt lat="46.83764" lon="3.47527">
        <ele>193.80000305176</ele>
        <time>2022-06-25T07:30:07.000Z</time>
      </trkpt>
      <trkpt lat="46.83753" lon="3.47471">
        <ele>193</ele>
        <time>2022-06-25T07:30:14.000Z</time>
      </trkpt>
      <trkpt lat="46.83743" lon="3.4741">
        <ele>192</ele>
        <time>2022-06-25T07:30:22.000Z</time>
      </trkpt>
      <trkpt lat="46.8374" lon="3.4739">
        <ele>191.80000305176</ele>
        <time>2022-06-25T07:30:25.000Z</time>
      </trkpt>
      <trkpt lat="46.83738" lon="3.47385">
        <ele>191.60000610352</ele>
        <time>2022-06-25T07:30:26.000Z</time>
      </trkpt>
      <trkpt lat="46.83735" lon="3.47378">
        <ele>191.60000610352</ele>
        <time>2022-06-25T07:30:28.000Z</time>
      </trkpt>
      <trkpt lat="46.83733" lon="3.47366">
        <ele>191.19999694824</ele>
        <time>2022-06-25T07:30:30.000Z</time>
      </trkpt>
      <trkpt lat="46.83732" lon="3.47359">
        <ele>191</ele>
        <time>2022-06-25T07:30:31.000Z</time>
      </trkpt>
      <trkpt lat="46.83726" lon="3.47336">
        <ele>190.19999694824</ele>
        <time>2022-06-25T07:30:34.000Z</time>
      </trkpt>
      <trkpt lat="46.83708" lon="3.47264">
        <ele>188.80000305176</ele>
        <time>2022-06-25T07:30:43.000Z</time>
      </trkpt>
      <trkpt lat="46.83699" lon="3.47201">
        <ele>189.19999694824</ele>
        <time>2022-06-25T07:30:51.000Z</time>
      </trkpt>
      <trkpt lat="46.83695" lon="3.47178">
        <ele>189.39999389648</ele>
        <time>2022-06-25T07:30:54.000Z</time>
      </trkpt>
      <trkpt lat="46.83691" lon="3.47153">
        <ele>189.39999389648</ele>
        <time>2022-06-25T07:30:57.000Z</time>
      </trkpt>
      <trkpt lat="46.83684" lon="3.47105">
        <ele>190</ele>
        <time>2022-06-25T07:31:03.000Z</time>
      </trkpt>
      <trkpt lat="46.83677" lon="3.47063">
        <ele>190.80000305176</ele>
        <time>2022-06-25T07:31:08.000Z</time>
      </trkpt>
      <trkpt lat="46.83676" lon="3.47047">
        <ele>190.80000305176</ele>
        <time>2022-06-25T07:31:10.000Z</time>
      </trkpt>
      <trkpt lat="46.83666" lon="3.4699">
        <ele>190</ele>
        <time>2022-06-25T07:31:17.000Z</time>
      </trkpt>
      <trkpt lat="46.83657" lon="3.46935">
        <ele>190.19999694824</ele>
        <time>2022-06-25T07:31:24.000Z</time>
      </trkpt>
      <trkpt lat="46.83645" lon="3.46871">
        <ele>190</ele>
        <time>2022-06-25T07:31:32.000Z</time>
      </trkpt>
      <trkpt lat="46.83639" lon="3.46846">
        <ele>189.39999389648</ele>
        <time>2022-06-25T07:31:35.000Z</time>
      </trkpt>
      <trkpt lat="46.83635" lon="3.46822">
        <ele>189</ele>
        <time>2022-06-25T07:31:38.000Z</time>
      </trkpt>
      <trkpt lat="46.83624" lon="3.46758">
        <ele>189</ele>
        <time>2022-06-25T07:31:46.000Z</time>
      </trkpt>
      <trkpt lat="46.83613" lon="3.46696">
        <ele>191.80000305176</ele>
        <time>2022-06-25T07:31:54.000Z</time>
      </trkpt>
      <trkpt lat="46.83607" lon="3.46667">
        <ele>192.39999389648</ele>
        <time>2022-06-25T07:31:59.000Z</time>
      </trkpt>
      <trkpt lat="46.83605" lon="3.46664">
        <ele>192.39999389648</ele>
        <time>2022-06-25T07:32:02.000Z</time>
      </trkpt>
      <trkpt lat="46.83605" lon="3.46664">
        <ele>192.39999389648</ele>
        <time>2022-06-25T07:32:13.000Z</time>
      </trkpt>
      <trkpt lat="46.83605" lon="3.46663">
        <ele>192.39999389648</ele>
        <time>2022-06-25T07:32:17.000Z</time>
      </trkpt>
      <trkpt lat="46.83598" lon="3.46661">
        <ele>192.60000610352</ele>
        <time>2022-06-25T07:32:19.000Z</time>
      </trkpt>
      <trkpt lat="46.83578" lon="3.46664">
        <ele>193.60000610352</ele>
        <time>2022-06-25T07:32:23.000Z</time>
      </trkpt>
      <trkpt lat="46.83546" lon="3.46667">
        <ele>194</ele>
        <time>2022-06-25T07:32:28.000Z</time>
      </trkpt>
      <trkpt lat="46.83505" lon="3.46661">
        <ele>192.80000305176</ele>
        <time>2022-06-25T07:32:34.000Z</time>
      </trkpt>
      <trkpt lat="46.83475" lon="3.46645">
        <ele>191.80000305176</ele>
        <time>2022-06-25T07:32:39.000Z</time>
      </trkpt>
      <trkpt lat="46.83447" lon="3.46622">
        <ele>190.80000305176</ele>
        <time>2022-06-25T07:32:45.000Z</time>
      </trkpt>
      <trkpt lat="46.83397" lon="3.46578">
        <ele>189</ele>
        <time>2022-06-25T07:32:55.000Z</time>
      </trkpt>
      <trkpt lat="46.83391" lon="3.46573">
        <ele>189.39999389648</ele>
        <time>2022-06-25T07:32:56.000Z</time>
      </trkpt>
      <trkpt lat="46.83346" lon="3.46537">
        <ele>192.19999694824</ele>
        <time>2022-06-25T07:33:04.000Z</time>
      </trkpt>
      <trkpt lat="46.83302" lon="3.46524">
        <ele>192.80000305176</ele>
        <time>2022-06-25T07:33:11.000Z</time>
      </trkpt>
      <trkpt lat="46.8326" lon="3.46526">
        <ele>192</ele>
        <time>2022-06-25T07:33:18.000Z</time>
      </trkpt>
      <trkpt lat="46.83219" lon="3.46539">
        <ele>192</ele>
        <time>2022-06-25T07:33:25.000Z</time>
      </trkpt>
      <trkpt lat="46.83179" lon="3.46554">
        <ele>192.80000305176</ele>
        <time>2022-06-25T07:33:32.000Z</time>
      </trkpt>
      <trkpt lat="46.83128" lon="3.46574">
        <ele>194</ele>
        <time>2022-06-25T07:33:41.000Z</time>
      </trkpt>
      <trkpt lat="46.83094" lon="3.46603">
        <ele>193</ele>
        <time>2022-06-25T07:33:48.000Z</time>
      </trkpt>
      <trkpt lat="46.83048" lon="3.46655">
        <ele>193</ele>
        <time>2022-06-25T07:33:58.000Z</time>
      </trkpt>
      <trkpt lat="46.83037" lon="3.46659">
        <ele>192.80000305176</ele>
        <time>2022-06-25T07:34:00.000Z</time>
      </trkpt>
      <trkpt lat="46.83033" lon="3.46657">
        <ele>192.60000610352</ele>
        <time>2022-06-25T07:34:01.000Z</time>
      </trkpt>
      <trkpt lat="46.83029" lon="3.46652">
        <ele>192.19999694824</ele>
        <time>2022-06-25T07:34:02.000Z</time>
      </trkpt>
      <trkpt lat="46.83025" lon="3.46644">
        <ele>191.80000305176</ele>
        <time>2022-06-25T07:34:03.000Z</time>
      </trkpt>
      <trkpt lat="46.82998" lon="3.4658">
        <ele>190</ele>
        <time>2022-06-25T07:34:12.000Z</time>
      </trkpt>
      <trkpt lat="46.82988" lon="3.46557">
        <ele>189.19999694824</ele>
        <time>2022-06-25T07:34:15.000Z</time>
      </trkpt>
      <trkpt lat="46.82966" lon="3.46508">
        <ele>189</ele>
        <time>2022-06-25T07:34:22.000Z</time>
      </trkpt>
      <trkpt lat="46.82963" lon="3.46499">
        <ele>189</ele>
        <time>2022-06-25T07:34:23.000Z</time>
      </trkpt>
      <trkpt lat="46.82939" lon="3.46447">
        <ele>192.80000305176</ele>
        <time>2022-06-25T07:34:31.000Z</time>
      </trkpt>
      <trkpt lat="46.82927" lon="3.46419">
        <ele>195.60000610352</ele>
        <time>2022-06-25T07:34:35.000Z</time>
      </trkpt>
      <trkpt lat="46.82926" lon="3.46407">
        <ele>197</ele>
        <time>2022-06-25T07:34:37.000Z</time>
      </trkpt>
      <trkpt lat="46.82933" lon="3.46396">
        <ele>197.80000305176</ele>
        <time>2022-06-25T07:34:39.000Z</time>
      </trkpt>
      <trkpt lat="46.82938" lon="3.46392">
        <ele>197.80000305176</ele>
        <time>2022-06-25T07:34:40.000Z</time>
      </trkpt>
      <trkpt lat="46.82951" lon="3.46378">
        <ele>197.60000610352</ele>
        <time>2022-06-25T07:34:43.000Z</time>
      </trkpt>
      <trkpt lat="46.82968" lon="3.46359">
        <ele>197</ele>
        <time>2022-06-25T07:34:47.000Z</time>
      </trkpt>
      <trkpt lat="46.82986" lon="3.46329">
        <ele>195.60000610352</ele>
        <time>2022-06-25T07:34:52.000Z</time>
      </trkpt>
      <trkpt lat="46.82994" lon="3.46317">
        <ele>195.19999694824</ele>
        <time>2022-06-25T07:34:54.000Z</time>
      </trkpt>
      <trkpt lat="46.82997" lon="3.46312">
        <ele>195.19999694824</ele>
        <time>2022-06-25T07:34:55.000Z</time>
      </trkpt>
      <trkpt lat="46.83005" lon="3.46304">
        <ele>195.19999694824</ele>
        <time>2022-06-25T07:34:57.000Z</time>
      </trkpt>
      <trkpt lat="46.83009" lon="3.46299">
        <ele>195</ele>
        <time>2022-06-25T07:34:58.000Z</time>
      </trkpt>
      <trkpt lat="46.8301" lon="3.46293">
        <ele>195</ele>
        <time>2022-06-25T07:34:59.000Z</time>
      </trkpt>
      <trkpt lat="46.8301" lon="3.46279">
        <ele>195</ele>
        <time>2022-06-25T07:35:01.000Z</time>
      </trkpt>
      <trkpt lat="46.83009" lon="3.46261">
        <ele>195</ele>
        <time>2022-06-25T07:35:04.000Z</time>
      </trkpt>
      <trkpt lat="46.8301" lon="3.46254">
        <ele>195</ele>
        <time>2022-06-25T07:35:05.000Z</time>
      </trkpt>
      <trkpt lat="46.83018" lon="3.46221">
        <ele>194.60000610352</ele>
        <time>2022-06-25T07:35:09.000Z</time>
      </trkpt>
      <trkpt lat="46.83037" lon="3.46162">
        <ele>195</ele>
        <time>2022-06-25T07:35:16.000Z</time>
      </trkpt>
      <trkpt lat="46.8304" lon="3.46143">
        <ele>194.80000305176</ele>
        <time>2022-06-25T07:35:18.000Z</time>
      </trkpt>
      <trkpt lat="46.8304" lon="3.46122">
        <ele>195</ele>
        <time>2022-06-25T07:35:20.000Z</time>
      </trkpt>
      <trkpt lat="46.83034" lon="3.46053">
        <ele>195.80000305176</ele>
        <time>2022-06-25T07:35:27.000Z</time>
      </trkpt>
      <trkpt lat="46.83024" lon="3.45977">
        <ele>195</ele>
        <time>2022-06-25T07:35:35.000Z</time>
      </trkpt>
      <trkpt lat="46.83007" lon="3.45922">
        <ele>194.39999389648</ele>
        <time>2022-06-25T07:35:41.000Z</time>
      </trkpt>
      <trkpt lat="46.82984" lon="3.45886">
        <ele>194</ele>
        <time>2022-06-25T07:35:46.000Z</time>
      </trkpt>
      <trkpt lat="46.82956" lon="3.45861">
        <ele>194.80000305176</ele>
        <time>2022-06-25T07:35:51.000Z</time>
      </trkpt>
      <trkpt lat="46.82951" lon="3.45858">
        <ele>195</ele>
        <time>2022-06-25T07:35:52.000Z</time>
      </trkpt>
      <trkpt lat="46.82927" lon="3.45845">
        <ele>195</ele>
        <time>2022-06-25T07:35:56.000Z</time>
      </trkpt>
      <trkpt lat="46.82908" lon="3.45843">
        <ele>194.19999694824</ele>
        <time>2022-06-25T07:35:59.000Z</time>
      </trkpt>
      <trkpt lat="46.82896" lon="3.45845">
        <ele>193.80000305176</ele>
        <time>2022-06-25T07:36:01.000Z</time>
      </trkpt>
      <trkpt lat="46.82851" lon="3.4586">
        <ele>193</ele>
        <time>2022-06-25T07:36:09.000Z</time>
      </trkpt>
      <trkpt lat="46.82827" lon="3.4587">
        <ele>194</ele>
        <time>2022-06-25T07:36:14.000Z</time>
      </trkpt>
      <trkpt lat="46.82817" lon="3.4587">
        <ele>194.19999694824</ele>
        <time>2022-06-25T07:36:16.000Z</time>
      </trkpt>
      <trkpt lat="46.8281" lon="3.45863">
        <ele>194</ele>
        <time>2022-06-25T07:36:18.000Z</time>
      </trkpt>
      <trkpt lat="46.82808" lon="3.45856">
        <ele>194</ele>
        <time>2022-06-25T07:36:19.000Z</time>
      </trkpt>
      <trkpt lat="46.828" lon="3.45817">
        <ele>194</ele>
        <time>2022-06-25T07:36:24.000Z</time>
      </trkpt>
      <trkpt lat="46.82795" lon="3.45793">
        <ele>193.80000305176</ele>
        <time>2022-06-25T07:36:27.000Z</time>
      </trkpt>
      <trkpt lat="46.82792" lon="3.45777">
        <ele>193.60000610352</ele>
        <time>2022-06-25T07:36:29.000Z</time>
      </trkpt>
      <trkpt lat="46.82784" lon="3.45746">
        <ele>194.19999694824</ele>
        <time>2022-06-25T07:36:33.000Z</time>
      </trkpt>
      <trkpt lat="46.82783" lon="3.45739">
        <ele>194.19999694824</ele>
        <time>2022-06-25T07:36:34.000Z</time>
      </trkpt>
      <trkpt lat="46.82763" lon="3.45663">
        <ele>195</ele>
        <time>2022-06-25T07:36:43.000Z</time>
      </trkpt>
      <trkpt lat="46.82751" lon="3.45629">
        <ele>194.60000610352</ele>
        <time>2022-06-25T07:36:47.000Z</time>
      </trkpt>
      <trkpt lat="46.82748" lon="3.4562">
        <ele>194.39999389648</ele>
        <time>2022-06-25T07:36:48.000Z</time>
      </trkpt>
      <trkpt lat="46.82745" lon="3.45611">
        <ele>194</ele>
        <time>2022-06-25T07:36:49.000Z</time>
      </trkpt>
      <trkpt lat="46.82731" lon="3.45567">
        <ele>193</ele>
        <time>2022-06-25T07:36:54.000Z</time>
      </trkpt>
      <trkpt lat="46.82721" lon="3.45532">
        <ele>193</ele>
        <time>2022-06-25T07:36:58.000Z</time>
      </trkpt>
      <trkpt lat="46.82718" lon="3.45505">
        <ele>193</ele>
        <time>2022-06-25T07:37:01.000Z</time>
      </trkpt>
      <trkpt lat="46.82718" lon="3.45497">
        <ele>193</ele>
        <time>2022-06-25T07:37:02.000Z</time>
      </trkpt>
      <trkpt lat="46.82718" lon="3.45489">
        <ele>192.60000610352</ele>
        <time>2022-06-25T07:37:03.000Z</time>
      </trkpt>
      <trkpt lat="46.82717" lon="3.45481">
        <ele>192.39999389648</ele>
        <time>2022-06-25T07:37:04.000Z</time>
      </trkpt>
      <trkpt lat="46.82714" lon="3.45474">
        <ele>192.39999389648</ele>
        <time>2022-06-25T07:37:05.000Z</time>
      </trkpt>
      <trkpt lat="46.82703" lon="3.45466">
        <ele>192</ele>
        <time>2022-06-25T07:37:07.000Z</time>
      </trkpt>
      <trkpt lat="46.82698" lon="3.45461">
        <ele>192</ele>
        <time>2022-06-25T07:37:08.000Z</time>
      </trkpt>
      <trkpt lat="46.82694" lon="3.45454">
        <ele>192</ele>
        <time>2022-06-25T07:37:09.000Z</time>
      </trkpt>
      <trkpt lat="46.82688" lon="3.45438">
        <ele>192.19999694824</ele>
        <time>2022-06-25T07:37:11.000Z</time>
      </trkpt>
      <trkpt lat="46.82664" lon="3.45377">
        <ele>193.39999389648</ele>
        <time>2022-06-25T07:37:19.000Z</time>
      </trkpt>
      <trkpt lat="46.82638" lon="3.45341">
        <ele>194</ele>
        <time>2022-06-25T07:37:25.000Z</time>
      </trkpt>
      <trkpt lat="46.82633" lon="3.45336">
        <ele>194</ele>
        <time>2022-06-25T07:37:26.000Z</time>
      </trkpt>
      <trkpt lat="46.8261" lon="3.45321">
        <ele>194</ele>
        <time>2022-06-25T07:37:30.000Z</time>
      </trkpt>
      <trkpt lat="46.82569" lon="3.45306">
        <ele>193.19999694824</ele>
        <time>2022-06-25T07:37:37.000Z</time>
      </trkpt>
      <trkpt lat="46.82513" lon="3.4529">
        <ele>192</ele>
        <time>2022-06-25T07:37:46.000Z</time>
      </trkpt>
      <trkpt lat="46.825" lon="3.45285">
        <ele>192.39999389648</ele>
        <time>2022-06-25T07:37:48.000Z</time>
      </trkpt>
      <trkpt lat="46.82463" lon="3.45275">
        <ele>193.60000610352</ele>
        <time>2022-06-25T07:37:54.000Z</time>
      </trkpt>
      <trkpt lat="46.82451" lon="3.45271">
        <ele>193.80000305176</ele>
        <time>2022-06-25T07:37:56.000Z</time>
      </trkpt>
      <trkpt lat="46.82398" lon="3.45251">
        <ele>194</ele>
        <time>2022-06-25T07:38:05.000Z</time>
      </trkpt>
      <trkpt lat="46.82344" lon="3.45232">
        <ele>191.80000305176</ele>
        <time>2022-06-25T07:38:14.000Z</time>
      </trkpt>
      <trkpt lat="46.82333" lon="3.45228">
        <ele>191.80000305176</ele>
        <time>2022-06-25T07:38:16.000Z</time>
      </trkpt>
      <trkpt lat="46.8228" lon="3.4521">
        <ele>193</ele>
        <time>2022-06-25T07:38:25.000Z</time>
      </trkpt>
      <trkpt lat="46.82275" lon="3.45208">
        <ele>193</ele>
        <time>2022-06-25T07:38:26.000Z</time>
      </trkpt>
      <trkpt lat="46.82269" lon="3.45206">
        <ele>193</ele>
        <time>2022-06-25T07:38:27.000Z</time>
      </trkpt>
      <trkpt lat="46.82223" lon="3.45191">
        <ele>191.60000610352</ele>
        <time>2022-06-25T07:38:35.000Z</time>
      </trkpt>
      <trkpt lat="46.82171" lon="3.45174">
        <ele>190.60000610352</ele>
        <time>2022-06-25T07:38:44.000Z</time>
      </trkpt>
      <trkpt lat="46.82113" lon="3.45156">
        <ele>192.19999694824</ele>
        <time>2022-06-25T07:38:54.000Z</time>
      </trkpt>
      <trkpt lat="46.82097" lon="3.4515">
        <ele>192</ele>
        <time>2022-06-25T07:38:57.000Z</time>
      </trkpt>
      <trkpt lat="46.8204" lon="3.45131">
        <ele>193</ele>
        <time>2022-06-25T07:39:07.000Z</time>
      </trkpt>
      <trkpt lat="46.82033" lon="3.45129">
        <ele>192.80000305176</ele>
        <time>2022-06-25T07:39:08.000Z</time>
      </trkpt>
      <trkpt lat="46.81977" lon="3.45112">
        <ele>192.39999389648</ele>
        <time>2022-06-25T07:39:18.000Z</time>
      </trkpt>
      <trkpt lat="46.81948" lon="3.45103">
        <ele>193.80000305176</ele>
        <time>2022-06-25T07:39:24.000Z</time>
      </trkpt>
      <trkpt lat="46.8194" lon="3.451">
        <ele>193.80000305176</ele>
        <time>2022-06-25T07:39:26.000Z</time>
      </trkpt>
      <trkpt lat="46.81926" lon="3.45095">
        <ele>193.80000305176</ele>
        <time>2022-06-25T07:39:29.000Z</time>
      </trkpt>
      <trkpt lat="46.81918" lon="3.45092">
        <ele>194</ele>
        <time>2022-06-25T07:39:31.000Z</time>
      </trkpt>
      <trkpt lat="46.81908" lon="3.45089">
        <ele>194.19999694824</ele>
        <time>2022-06-25T07:39:33.000Z</time>
      </trkpt>
      <trkpt lat="46.81874" lon="3.45078">
        <ele>194.80000305176</ele>
        <time>2022-06-25T07:39:39.000Z</time>
      </trkpt>
      <trkpt lat="46.81834" lon="3.45064">
        <ele>194.60000610352</ele>
        <time>2022-06-25T07:39:45.000Z</time>
      </trkpt>
      <trkpt lat="46.8179" lon="3.45049">
        <ele>193.39999389648</ele>
        <time>2022-06-25T07:39:51.000Z</time>
      </trkpt>
      <trkpt lat="46.81758" lon="3.45038">
        <ele>193.60000610352</ele>
        <time>2022-06-25T07:39:56.000Z</time>
      </trkpt>
      <trkpt lat="46.81752" lon="3.45036">
        <ele>193.39999389648</ele>
        <time>2022-06-25T07:39:57.000Z</time>
      </trkpt>
      <trkpt lat="46.81713" lon="3.45023">
        <ele>192.60000610352</ele>
        <time>2022-06-25T07:40:04.000Z</time>
      </trkpt>
      <trkpt lat="46.81662" lon="3.45005">
        <ele>195.19999694824</ele>
        <time>2022-06-25T07:40:13.000Z</time>
      </trkpt>
      <trkpt lat="46.81616" lon="3.44991">
        <ele>198.60000610352</ele>
        <time>2022-06-25T07:40:22.000Z</time>
      </trkpt>
      <trkpt lat="46.81598" lon="3.44985">
        <ele>200.19999694824</ele>
        <time>2022-06-25T07:40:26.000Z</time>
      </trkpt>
      <trkpt lat="46.81586" lon="3.4498">
        <ele>200.80000305176</ele>
        <time>2022-06-25T07:40:29.000Z</time>
      </trkpt>
      <trkpt lat="46.81581" lon="3.44978">
        <ele>201.19999694824</ele>
        <time>2022-06-25T07:40:30.000Z</time>
      </trkpt>
      <trkpt lat="46.81557" lon="3.44971">
        <ele>202.19999694824</ele>
        <time>2022-06-25T07:40:35.000Z</time>
      </trkpt>
      <trkpt lat="46.81552" lon="3.44969">
        <ele>202.60000610352</ele>
        <time>2022-06-25T07:40:36.000Z</time>
      </trkpt>
      <trkpt lat="46.81518" lon="3.44957">
        <ele>204.19999694824</ele>
        <time>2022-06-25T07:40:43.000Z</time>
      </trkpt>
      <trkpt lat="46.81503" lon="3.44954">
        <ele>204.80000305176</ele>
        <time>2022-06-25T07:40:46.000Z</time>
      </trkpt>
      <trkpt lat="46.81494" lon="3.44951">
        <ele>205.19999694824</ele>
        <time>2022-06-25T07:40:48.000Z</time>
      </trkpt>
      <trkpt lat="46.81477" lon="3.44946">
        <ele>205.60000610352</ele>
        <time>2022-06-25T07:40:51.000Z</time>
      </trkpt>
      <trkpt lat="46.81462" lon="3.44943">
        <ele>205.39999389648</ele>
        <time>2022-06-25T07:40:54.000Z</time>
      </trkpt>
      <trkpt lat="46.81457" lon="3.44942">
        <ele>205.19999694824</ele>
        <time>2022-06-25T07:40:55.000Z</time>
      </trkpt>
      <trkpt lat="46.81449" lon="3.4494">
        <ele>205.39999389648</ele>
        <time>2022-06-25T07:40:57.000Z</time>
      </trkpt>
      <trkpt lat="46.81409" lon="3.44927">
        <ele>207.80000305176</ele>
        <time>2022-06-25T07:41:05.000Z</time>
      </trkpt>
      <trkpt lat="46.814" lon="3.44924">
        <ele>208.19999694824</ele>
        <time>2022-06-25T07:41:07.000Z</time>
      </trkpt>
      <trkpt lat="46.81363" lon="3.44912">
        <ele>208.80000305176</ele>
        <time>2022-06-25T07:41:14.000Z</time>
      </trkpt>
      <trkpt lat="46.81358" lon="3.44911">
        <ele>208.39999389648</ele>
        <time>2022-06-25T07:41:15.000Z</time>
      </trkpt>
      <trkpt lat="46.81332" lon="3.44901">
        <ele>208</ele>
        <time>2022-06-25T07:41:20.000Z</time>
      </trkpt>
      <trkpt lat="46.81328" lon="3.44899">
        <ele>208.19999694824</ele>
        <time>2022-06-25T07:41:21.000Z</time>
      </trkpt>
      <trkpt lat="46.81322" lon="3.44897">
        <ele>208.19999694824</ele>
        <time>2022-06-25T07:41:22.000Z</time>
      </trkpt>
      <trkpt lat="46.81308" lon="3.44892">
        <ele>208.39999389648</ele>
        <time>2022-06-25T07:41:25.000Z</time>
      </trkpt>
      <trkpt lat="46.81299" lon="3.4489">
        <ele>208.80000305176</ele>
        <time>2022-06-25T07:41:27.000Z</time>
      </trkpt>
      <trkpt lat="46.81293" lon="3.44887">
        <ele>209</ele>
        <time>2022-06-25T07:41:28.000Z</time>
      </trkpt>
      <trkpt lat="46.81268" lon="3.44878">
        <ele>210.39999389648</ele>
        <time>2022-06-25T07:41:33.000Z</time>
      </trkpt>
      <trkpt lat="46.81245" lon="3.4487">
        <ele>211.19999694824</ele>
        <time>2022-06-25T07:41:37.000Z</time>
      </trkpt>
      <trkpt lat="46.81213" lon="3.44858">
        <ele>211.60000610352</ele>
        <time>2022-06-25T07:41:43.000Z</time>
      </trkpt>
      <trkpt lat="46.81204" lon="3.44855">
        <ele>211.60000610352</ele>
        <time>2022-06-25T07:41:45.000Z</time>
      </trkpt>
      <trkpt lat="46.81154" lon="3.44838">
        <ele>210.60000610352</ele>
        <time>2022-06-25T07:41:54.000Z</time>
      </trkpt>
      <trkpt lat="46.81131" lon="3.44831">
        <ele>210.39999389648</ele>
        <time>2022-06-25T07:41:58.000Z</time>
      </trkpt>
      <trkpt lat="46.8111" lon="3.44824">
        <ele>210.19999694824</ele>
        <time>2022-06-25T07:42:02.000Z</time>
      </trkpt>
      <trkpt lat="46.81104" lon="3.44822">
        <ele>210.39999389648</ele>
        <time>2022-06-25T07:42:03.000Z</time>
      </trkpt>
      <trkpt lat="46.81055" lon="3.44807">
        <ele>211.80000305176</ele>
        <time>2022-06-25T07:42:12.000Z</time>
      </trkpt>
      <trkpt lat="46.81012" lon="3.44795">
        <ele>212.19999694824</ele>
        <time>2022-06-25T07:42:20.000Z</time>
      </trkpt>
      <trkpt lat="46.81007" lon="3.44793">
        <ele>212.19999694824</ele>
        <time>2022-06-25T07:42:21.000Z</time>
      </trkpt>
      <trkpt lat="46.81" lon="3.44785">
        <ele>213.19999694824</ele>
        <time>2022-06-25T07:42:23.000Z</time>
      </trkpt>
      <trkpt lat="46.81001" lon="3.44773">
        <ele>214.19999694824</ele>
        <time>2022-06-25T07:42:25.000Z</time>
      </trkpt>
      <trkpt lat="46.81003" lon="3.44765">
        <ele>214.80000305176</ele>
        <time>2022-06-25T07:42:26.000Z</time>
      </trkpt>
      <trkpt lat="46.81006" lon="3.44753">
        <ele>215.60000610352</ele>
        <time>2022-06-25T07:42:28.000Z</time>
      </trkpt>
      <trkpt lat="46.8101" lon="3.44737">
        <ele>216</ele>
        <time>2022-06-25T07:42:31.000Z</time>
      </trkpt>
      <trkpt lat="46.81012" lon="3.44716">
        <ele>215.80000305176</ele>
        <time>2022-06-25T07:42:36.000Z</time>
      </trkpt>
      <trkpt lat="46.81011" lon="3.44712">
        <ele>215.60000610352</ele>
        <time>2022-06-25T07:42:40.000Z</time>
      </trkpt>
      <trkpt lat="46.81011" lon="3.4471">
        <ele>215.60000610352</ele>
        <time>2022-06-25T07:42:46.000Z</time>
      </trkpt>
      <trkpt lat="46.81011" lon="3.4471">
        <ele>215.60000610352</ele>
        <time>2022-06-25T07:42:56.000Z</time>
      </trkpt>
      <trkpt lat="46.81011" lon="3.4471">
        <ele>215.60000610352</ele>
        <time>2022-06-25T07:43:30.000Z</time>
      </trkpt>
      <trkpt lat="46.81011" lon="3.4471">
        <ele>215.60000610352</ele>
        <time>2022-06-25T07:44:01.000Z</time>
      </trkpt>
      <trkpt lat="46.81011" lon="3.4471">
        <ele>215.60000610352</ele>
        <time>2022-06-25T07:44:27.000Z</time>
      </trkpt>
      <trkpt lat="46.81011" lon="3.4471">
        <ele>215.60000610352</ele>
        <time>2022-06-25T07:44:50.000Z</time>
      </trkpt>
      <trkpt lat="46.81011" lon="3.4471">
        <ele>215.60000610352</ele>
        <time>2022-06-25T07:45:11.000Z</time>
      </trkpt>
      <trkpt lat="46.81011" lon="3.4471">
        <ele>215.60000610352</ele>
        <time>2022-06-25T07:45:33.000Z</time>
      </trkpt>
      <trkpt lat="46.81011" lon="3.4471">
        <ele>215.60000610352</ele>
        <time>2022-06-25T07:45:57.000Z</time>
      </trkpt>
      <trkpt lat="46.81011" lon="3.4471">
        <ele>215.60000610352</ele>
        <time>2022-06-25T07:46:21.000Z</time>
      </trkpt>
      <trkpt lat="46.81011" lon="3.4471">
        <ele>215.60000610352</ele>
        <time>2022-06-25T07:46:47.000Z</time>
      </trkpt>
      <trkpt lat="46.81011" lon="3.4471">
        <ele>215.60000610352</ele>
        <time>2022-06-25T07:47:15.000Z</time>
      </trkpt>
      <trkpt lat="46.81011" lon="3.4471">
        <ele>215.60000610352</ele>
        <time>2022-06-25T07:47:44.000Z</time>
      </trkpt>
      <trkpt lat="46.81011" lon="3.4471">
        <ele>215.60000610352</ele>
        <time>2022-06-25T07:48:03.000Z</time>
      </trkpt>
      <trkpt lat="46.81011" lon="3.4471">
        <ele>215.60000610352</ele>
        <time>2022-06-25T07:48:11.000Z</time>
      </trkpt>
      <trkpt lat="46.81011" lon="3.4471">
        <ele>215.60000610352</ele>
        <time>2022-06-25T07:48:12.000Z</time>
      </trkpt>
      <trkpt lat="46.81014" lon="3.44701">
        <ele>215.19999694824</ele>
        <time>2022-06-25T07:48:15.000Z</time>
      </trkpt>
      <trkpt lat="46.81018" lon="3.4468">
        <ele>214.80000305176</ele>
        <time>2022-06-25T07:48:20.000Z</time>
      </trkpt>
      <trkpt lat="46.81022" lon="3.44651">
        <ele>214.39999389648</ele>
        <time>2022-06-25T07:48:25.000Z</time>
      </trkpt>
      <trkpt lat="46.81027" lon="3.44624">
        <ele>213.39999389648</ele>
        <time>2022-06-25T07:48:29.000Z</time>
      </trkpt>
      <trkpt lat="46.81029" lon="3.44609">
        <ele>213.19999694824</ele>
        <time>2022-06-25T07:48:31.000Z</time>
      </trkpt>
      <trkpt lat="46.8104" lon="3.44548">
        <ele>212.19999694824</ele>
        <time>2022-06-25T07:48:39.000Z</time>
      </trkpt>
      <trkpt lat="46.8105" lon="3.4449">
        <ele>211.60000610352</ele>
        <time>2022-06-25T07:48:46.000Z</time>
      </trkpt>
      <trkpt lat="46.81057" lon="3.44443">
        <ele>210.80000305176</ele>
        <time>2022-06-25T07:48:52.000Z</time>
      </trkpt>
      <trkpt lat="46.81058" lon="3.44434">
        <ele>210.80000305176</ele>
        <time>2022-06-25T07:48:53.000Z</time>
      </trkpt>
      <trkpt lat="46.81062" lon="3.44418">
        <ele>211</ele>
        <time>2022-06-25T07:48:55.000Z</time>
      </trkpt>
      <trkpt lat="46.81065" lon="3.44402">
        <ele>211</ele>
        <time>2022-06-25T07:48:57.000Z</time>
      </trkpt>
      <trkpt lat="46.81073" lon="3.44354">
        <ele>212</ele>
        <time>2022-06-25T07:49:03.000Z</time>
      </trkpt>
      <trkpt lat="46.81075" lon="3.44347">
        <ele>212</ele>
        <time>2022-06-25T07:49:04.000Z</time>
      </trkpt>
      <trkpt lat="46.81079" lon="3.44332">
        <ele>211.39999389648</ele>
        <time>2022-06-25T07:49:06.000Z</time>
      </trkpt>
      <trkpt lat="46.81081" lon="3.44323">
        <ele>211.39999389648</ele>
        <time>2022-06-25T07:49:07.000Z</time>
      </trkpt>
      <trkpt lat="46.81086" lon="3.44298">
        <ele>210.19999694824</ele>
        <time>2022-06-25T07:49:10.000Z</time>
      </trkpt>
      <trkpt lat="46.81088" lon="3.44283">
        <ele>209.60000610352</ele>
        <time>2022-06-25T07:49:12.000Z</time>
      </trkpt>
      <trkpt lat="46.81091" lon="3.44265">
        <ele>208.19999694824</ele>
        <time>2022-06-25T07:49:14.000Z</time>
      </trkpt>
      <trkpt lat="46.81095" lon="3.44235">
        <ele>206.19999694824</ele>
        <time>2022-06-25T07:49:17.000Z</time>
      </trkpt>
      <trkpt lat="46.81096" lon="3.44224">
        <ele>205.80000305176</ele>
        <time>2022-06-25T07:49:18.000Z</time>
      </trkpt>
      <trkpt lat="46.81094" lon="3.442">
        <ele>205.19999694824</ele>
        <time>2022-06-25T07:49:20.000Z</time>
      </trkpt>
      <trkpt lat="46.81093" lon="3.44188">
        <ele>204.80000305176</ele>
        <time>2022-06-25T07:49:21.000Z</time>
      </trkpt>
      <trkpt lat="46.8109" lon="3.44176">
        <ele>204.39999389648</ele>
        <time>2022-06-25T07:49:22.000Z</time>
      </trkpt>
      <trkpt lat="46.81088" lon="3.44168">
        <ele>204</ele>
        <time>2022-06-25T07:49:23.000Z</time>
      </trkpt>
      <trkpt lat="46.81084" lon="3.44157">
        <ele>203.39999389648</ele>
        <time>2022-06-25T07:49:24.000Z</time>
      </trkpt>
      <trkpt lat="46.81075" lon="3.44138">
        <ele>202</ele>
        <time>2022-06-25T07:49:26.000Z</time>
      </trkpt>
      <trkpt lat="46.81064" lon="3.4412">
        <ele>201.39999389648</ele>
        <time>2022-06-25T07:49:28.000Z</time>
      </trkpt>
      <trkpt lat="46.81047" lon="3.44097">
        <ele>201.19999694824</ele>
        <time>2022-06-25T07:49:31.000Z</time>
      </trkpt>
      <trkpt lat="46.81035" lon="3.44084">
        <ele>201</ele>
        <time>2022-06-25T07:49:33.000Z</time>
      </trkpt>
      <trkpt lat="46.81025" lon="3.4407">
        <ele>201</ele>
        <time>2022-06-25T07:49:35.000Z</time>
      </trkpt>
      <trkpt lat="46.81015" lon="3.44057">
        <ele>200.80000305176</ele>
        <time>2022-06-25T07:49:37.000Z</time>
      </trkpt>
      <trkpt lat="46.81006" lon="3.44046">
        <ele>201</ele>
        <time>2022-06-25T07:49:39.000Z</time>
      </trkpt>
      <trkpt lat="46.80976" lon="3.44006">
        <ele>201.80000305176</ele>
        <time>2022-06-25T07:49:46.000Z</time>
      </trkpt>
      <trkpt lat="46.80964" lon="3.43992">
        <ele>202.39999389648</ele>
        <time>2022-06-25T07:49:49.000Z</time>
      </trkpt>
      <trkpt lat="46.80951" lon="3.43975">
        <ele>203.60000610352</ele>
        <time>2022-06-25T07:49:52.000Z</time>
      </trkpt>
      <trkpt lat="46.80944" lon="3.43965">
        <ele>203.60000610352</ele>
        <time>2022-06-25T07:49:54.000Z</time>
      </trkpt>
      <trkpt lat="46.80915" lon="3.43922">
        <ele>203</ele>
        <time>2022-06-25T07:50:02.000Z</time>
      </trkpt>
      <trkpt lat="46.80911" lon="3.43916">
        <ele>203</ele>
        <time>2022-06-25T07:50:03.000Z</time>
      </trkpt>
      <trkpt lat="46.80908" lon="3.4391">
        <ele>203.19999694824</ele>
        <time>2022-06-25T07:50:04.000Z</time>
      </trkpt>
      <trkpt lat="46.80902" lon="3.43897">
        <ele>203.60000610352</ele>
        <time>2022-06-25T07:50:06.000Z</time>
      </trkpt>
      <trkpt lat="46.80899" lon="3.43886">
        <ele>204</ele>
        <time>2022-06-25T07:50:08.000Z</time>
      </trkpt>
      <trkpt lat="46.80895" lon="3.43866">
        <ele>204.80000305176</ele>
        <time>2022-06-25T07:50:11.000Z</time>
      </trkpt>
      <trkpt lat="46.80893" lon="3.43853">
        <ele>205.39999389648</ele>
        <time>2022-06-25T07:50:13.000Z</time>
      </trkpt>
      <trkpt lat="46.80891" lon="3.43833">
        <ele>206.19999694824</ele>
        <time>2022-06-25T07:50:16.000Z</time>
      </trkpt>
      <trkpt lat="46.80886" lon="3.43792">
        <ele>207.39999389648</ele>
        <time>2022-06-25T07:50:22.000Z</time>
      </trkpt>
      <trkpt lat="46.80882" lon="3.4377">
        <ele>207.39999389648</ele>
        <time>2022-06-25T07:50:25.000Z</time>
      </trkpt>
      <trkpt lat="46.80874" lon="3.43719">
        <ele>207</ele>
        <time>2022-06-25T07:50:32.000Z</time>
      </trkpt>
      <trkpt lat="46.80872" lon="3.43711">
        <ele>207</ele>
        <time>2022-06-25T07:50:33.000Z</time>
      </trkpt>
      <trkpt lat="46.80871" lon="3.43704">
        <ele>207</ele>
        <time>2022-06-25T07:50:34.000Z</time>
      </trkpt>
      <trkpt lat="46.80856" lon="3.43665">
        <ele>206.60000610352</ele>
        <time>2022-06-25T07:50:40.000Z</time>
      </trkpt>
      <trkpt lat="46.80831" lon="3.43615">
        <ele>206</ele>
        <time>2022-06-25T07:50:48.000Z</time>
      </trkpt>
      <trkpt lat="46.80827" lon="3.43608">
        <ele>206</ele>
        <time>2022-06-25T07:50:49.000Z</time>
      </trkpt>
      <trkpt lat="46.80794" lon="3.43556">
        <ele>207.80000305176</ele>
        <time>2022-06-25T07:50:58.000Z</time>
      </trkpt>
      <trkpt lat="46.8079" lon="3.43551">
        <ele>207.80000305176</ele>
        <time>2022-06-25T07:50:59.000Z</time>
      </trkpt>
      <trkpt lat="46.80756" lon="3.43509">
        <ele>209</ele>
        <time>2022-06-25T07:51:07.000Z</time>
      </trkpt>
      <trkpt lat="46.80729" lon="3.43479">
        <ele>209.80000305176</ele>
        <time>2022-06-25T07:51:13.000Z</time>
      </trkpt>
      <trkpt lat="46.80706" lon="3.43456">
        <ele>210.80000305176</ele>
        <time>2022-06-25T07:51:18.000Z</time>
      </trkpt>
      <trkpt lat="46.80692" lon="3.43444">
        <ele>211.39999389648</ele>
        <time>2022-06-25T07:51:21.000Z</time>
      </trkpt>
      <trkpt lat="46.80672" lon="3.43426">
        <ele>212.80000305176</ele>
        <time>2022-06-25T07:51:25.000Z</time>
      </trkpt>
      <trkpt lat="46.80667" lon="3.43421">
        <ele>213</ele>
        <time>2022-06-25T07:51:26.000Z</time>
      </trkpt>
      <trkpt lat="46.80655" lon="3.43406">
        <ele>214</ele>
        <time>2022-06-25T07:51:29.000Z</time>
      </trkpt>
      <trkpt lat="46.80644" lon="3.4339">
        <ele>215</ele>
        <time>2022-06-25T07:51:32.000Z</time>
      </trkpt>
      <trkpt lat="46.80637" lon="3.43378">
        <ele>215</ele>
        <time>2022-06-25T07:51:34.000Z</time>
      </trkpt>
      <trkpt lat="46.80633" lon="3.43372">
        <ele>215</ele>
        <time>2022-06-25T07:51:35.000Z</time>
      </trkpt>
      <trkpt lat="46.80621" lon="3.43346">
        <ele>214.60000610352</ele>
        <time>2022-06-25T07:51:39.000Z</time>
      </trkpt>
      <trkpt lat="46.80603" lon="3.43301">
        <ele>213</ele>
        <time>2022-06-25T07:51:46.000Z</time>
      </trkpt>
      <trkpt lat="46.80595" lon="3.43283">
        <ele>213</ele>
        <time>2022-06-25T07:51:49.000Z</time>
      </trkpt>
      <trkpt lat="46.8058" lon="3.43252">
        <ele>213</ele>
        <time>2022-06-25T07:51:54.000Z</time>
      </trkpt>
      <trkpt lat="46.80577" lon="3.43246">
        <ele>213.19999694824</ele>
        <time>2022-06-25T07:51:55.000Z</time>
      </trkpt>
      <trkpt lat="46.80571" lon="3.43234">
        <ele>214</ele>
        <time>2022-06-25T07:51:57.000Z</time>
      </trkpt>
      <trkpt lat="46.80567" lon="3.43222">
        <ele>214.80000305176</ele>
        <time>2022-06-25T07:51:59.000Z</time>
      </trkpt>
      <trkpt lat="46.80564" lon="3.43216">
        <ele>215.19999694824</ele>
        <time>2022-06-25T07:52:00.000Z</time>
      </trkpt>
      <trkpt lat="46.80555" lon="3.43196">
        <ele>216.19999694824</ele>
        <time>2022-06-25T07:52:03.000Z</time>
      </trkpt>
      <trkpt lat="46.80543" lon="3.4317">
        <ele>216.80000305176</ele>
        <time>2022-06-25T07:52:07.000Z</time>
      </trkpt>
      <trkpt lat="46.8054" lon="3.43162">
        <ele>216.80000305176</ele>
        <time>2022-06-25T07:52:08.000Z</time>
      </trkpt>
      <trkpt lat="46.80525" lon="3.43131">
        <ele>217.39999389648</ele>
        <time>2022-06-25T07:52:13.000Z</time>
      </trkpt>
      <trkpt lat="46.80521" lon="3.43125">
        <ele>217.60000610352</ele>
        <time>2022-06-25T07:52:14.000Z</time>
      </trkpt>
      <trkpt lat="46.8051" lon="3.431">
        <ele>218</ele>
        <time>2022-06-25T07:52:18.000Z</time>
      </trkpt>
      <trkpt lat="46.80505" lon="3.43088">
        <ele>218.19999694824</ele>
        <time>2022-06-25T07:52:20.000Z</time>
      </trkpt>
      <trkpt lat="46.80503" lon="3.43082">
        <ele>218.39999389648</ele>
        <time>2022-06-25T07:52:21.000Z</time>
      </trkpt>
      <trkpt lat="46.80494" lon="3.4306">
        <ele>218.60000610352</ele>
        <time>2022-06-25T07:52:24.000Z</time>
      </trkpt>
      <trkpt lat="46.80491" lon="3.43055">
        <ele>218.60000610352</ele>
        <time>2022-06-25T07:52:25.000Z</time>
      </trkpt>
      <trkpt lat="46.80487" lon="3.43042">
        <ele>218.39999389648</ele>
        <time>2022-06-25T07:52:27.000Z</time>
      </trkpt>
      <trkpt lat="46.80485" lon="3.42993">
        <ele>216.60000610352</ele>
        <time>2022-06-25T07:52:33.000Z</time>
      </trkpt>
      <trkpt lat="46.80484" lon="3.42985">
        <ele>216.39999389648</ele>
        <time>2022-06-25T07:52:34.000Z</time>
      </trkpt>
      <trkpt lat="46.80484" lon="3.42936">
        <ele>215.80000305176</ele>
        <time>2022-06-25T07:52:40.000Z</time>
      </trkpt>
      <trkpt lat="46.80484" lon="3.42892">
        <ele>215</ele>
        <time>2022-06-25T07:52:45.000Z</time>
      </trkpt>
      <trkpt lat="46.80487" lon="3.42867">
        <ele>215</ele>
        <time>2022-06-25T07:52:48.000Z</time>
      </trkpt>
      <trkpt lat="46.80485" lon="3.42852">
        <ele>214.60000610352</ele>
        <time>2022-06-25T07:52:50.000Z</time>
      </trkpt>
      <trkpt lat="46.80484" lon="3.42836">
        <ele>214</ele>
        <time>2022-06-25T07:52:52.000Z</time>
      </trkpt>
      <trkpt lat="46.8048" lon="3.42818">
        <ele>214</ele>
        <time>2022-06-25T07:52:54.000Z</time>
      </trkpt>
      <trkpt lat="46.80475" lon="3.42801">
        <ele>214.19999694824</ele>
        <time>2022-06-25T07:52:56.000Z</time>
      </trkpt>
      <trkpt lat="46.80454" lon="3.42745">
        <ele>216</ele>
        <time>2022-06-25T07:53:04.000Z</time>
      </trkpt>
      <trkpt lat="46.80442" lon="3.42719">
        <ele>216.39999389648</ele>
        <time>2022-06-25T07:53:08.000Z</time>
      </trkpt>
      <trkpt lat="46.80437" lon="3.42707">
        <ele>216.60000610352</ele>
        <time>2022-06-25T07:53:10.000Z</time>
      </trkpt>
      <trkpt lat="46.80416" lon="3.42661">
        <ele>216.39999389648</ele>
        <time>2022-06-25T07:53:17.000Z</time>
      </trkpt>
      <trkpt lat="46.80411" lon="3.42645">
        <ele>217.19999694824</ele>
        <time>2022-06-25T07:53:19.000Z</time>
      </trkpt>
      <trkpt lat="46.80401" lon="3.42622">
        <ele>217.80000305176</ele>
        <time>2022-06-25T07:53:22.000Z</time>
      </trkpt>
      <trkpt lat="46.80375" lon="3.42564">
        <ele>217.80000305176</ele>
        <time>2022-06-25T07:53:30.000Z</time>
      </trkpt>
      <trkpt lat="46.80347" lon="3.42497">
        <ele>218.80000305176</ele>
        <time>2022-06-25T07:53:40.000Z</time>
      </trkpt>
      <trkpt lat="46.80338" lon="3.42477">
        <ele>219.19999694824</ele>
        <time>2022-06-25T07:53:43.000Z</time>
      </trkpt>
      <trkpt lat="46.80326" lon="3.42451">
        <ele>220.19999694824</ele>
        <time>2022-06-25T07:53:47.000Z</time>
      </trkpt>
      <trkpt lat="46.80321" lon="3.42437">
        <ele>220.39999389648</ele>
        <time>2022-06-25T07:53:49.000Z</time>
      </trkpt>
      <trkpt lat="46.80305" lon="3.42396">
        <ele>220.39999389648</ele>
        <time>2022-06-25T07:53:55.000Z</time>
      </trkpt>
      <trkpt lat="46.8029" lon="3.42361">
        <ele>220</ele>
        <time>2022-06-25T07:54:00.000Z</time>
      </trkpt>
      <trkpt lat="46.80284" lon="3.42348">
        <ele>220</ele>
        <time>2022-06-25T07:54:02.000Z</time>
      </trkpt>
      <trkpt lat="46.80281" lon="3.42341">
        <ele>220</ele>
        <time>2022-06-25T07:54:03.000Z</time>
      </trkpt>
      <trkpt lat="46.80278" lon="3.42335">
        <ele>220</ele>
        <time>2022-06-25T07:54:04.000Z</time>
      </trkpt>
      <trkpt lat="46.8027" lon="3.42314">
        <ele>220</ele>
        <time>2022-06-25T07:54:07.000Z</time>
      </trkpt>
      <trkpt lat="46.80259" lon="3.42288">
        <ele>220.60000610352</ele>
        <time>2022-06-25T07:54:11.000Z</time>
      </trkpt>
      <trkpt lat="46.80253" lon="3.42274">
        <ele>220.80000305176</ele>
        <time>2022-06-25T07:54:13.000Z</time>
      </trkpt>
      <trkpt lat="46.8025" lon="3.42268">
        <ele>221</ele>
        <time>2022-06-25T07:54:14.000Z</time>
      </trkpt>
      <trkpt lat="46.80244" lon="3.42255">
        <ele>221.19999694824</ele>
        <time>2022-06-25T07:54:16.000Z</time>
      </trkpt>
      <trkpt lat="46.80242" lon="3.42249">
        <ele>221.39999389648</ele>
        <time>2022-06-25T07:54:17.000Z</time>
      </trkpt>
      <trkpt lat="46.80228" lon="3.42216">
        <ele>221</ele>
        <time>2022-06-25T07:54:22.000Z</time>
      </trkpt>
      <trkpt lat="46.80226" lon="3.42209">
        <ele>221.19999694824</ele>
        <time>2022-06-25T07:54:23.000Z</time>
      </trkpt>
      <trkpt lat="46.80223" lon="3.42203">
        <ele>221.19999694824</ele>
        <time>2022-06-25T07:54:24.000Z</time>
      </trkpt>
      <trkpt lat="46.80204" lon="3.42158">
        <ele>222</ele>
        <time>2022-06-25T07:54:31.000Z</time>
      </trkpt>
      <trkpt lat="46.80199" lon="3.42145">
        <ele>222</ele>
        <time>2022-06-25T07:54:33.000Z</time>
      </trkpt>
      <trkpt lat="46.80189" lon="3.42117">
        <ele>222</ele>
        <time>2022-06-25T07:54:37.000Z</time>
      </trkpt>
      <trkpt lat="46.80177" lon="3.42091">
        <ele>222</ele>
        <time>2022-06-25T07:54:41.000Z</time>
      </trkpt>
      <trkpt lat="46.80171" lon="3.42079">
        <ele>222</ele>
        <time>2022-06-25T07:54:43.000Z</time>
      </trkpt>
      <trkpt lat="46.80169" lon="3.42072">
        <ele>222.19999694824</ele>
        <time>2022-06-25T07:54:44.000Z</time>
      </trkpt>
      <trkpt lat="46.80144" lon="3.42014">
        <ele>223</ele>
        <time>2022-06-25T07:54:53.000Z</time>
      </trkpt>
      <trkpt lat="46.80131" lon="3.41981">
        <ele>223</ele>
        <time>2022-06-25T07:54:58.000Z</time>
      </trkpt>
      <trkpt lat="46.80124" lon="3.41968">
        <ele>222.80000305176</ele>
        <time>2022-06-25T07:55:00.000Z</time>
      </trkpt>
      <trkpt lat="46.80101" lon="3.41918">
        <ele>222</ele>
        <time>2022-06-25T07:55:08.000Z</time>
      </trkpt>
      <trkpt lat="46.80085" lon="3.41878">
        <ele>220.60000610352</ele>
        <time>2022-06-25T07:55:14.000Z</time>
      </trkpt>
      <trkpt lat="46.80082" lon="3.41871">
        <ele>220.39999389648</ele>
        <time>2022-06-25T07:55:15.000Z</time>
      </trkpt>
      <trkpt lat="46.8007" lon="3.41843">
        <ele>219.39999389648</ele>
        <time>2022-06-25T07:55:19.000Z</time>
      </trkpt>
      <trkpt lat="46.80063" lon="3.41826">
        <ele>218.80000305176</ele>
        <time>2022-06-25T07:55:22.000Z</time>
      </trkpt>
      <trkpt lat="46.8006" lon="3.41813">
        <ele>218.39999389648</ele>
        <time>2022-06-25T07:55:24.000Z</time>
      </trkpt>
      <trkpt lat="46.80045" lon="3.41777">
        <ele>218</ele>
        <time>2022-06-25T07:55:29.000Z</time>
      </trkpt>
      <trkpt lat="46.80025" lon="3.41728">
        <ele>218.19999694824</ele>
        <time>2022-06-25T07:55:37.000Z</time>
      </trkpt>
      <trkpt lat="46.80022" lon="3.41722">
        <ele>218.39999389648</ele>
        <time>2022-06-25T07:55:38.000Z</time>
      </trkpt>
      <trkpt lat="46.80013" lon="3.41704">
        <ele>218.80000305176</ele>
        <time>2022-06-25T07:55:41.000Z</time>
      </trkpt>
      <trkpt lat="46.80005" lon="3.41691">
        <ele>219</ele>
        <time>2022-06-25T07:55:43.000Z</time>
      </trkpt>
      <trkpt lat="46.80002" lon="3.41686">
        <ele>219</ele>
        <time>2022-06-25T07:55:44.000Z</time>
      </trkpt>
      <trkpt lat="46.79993" lon="3.41673">
        <ele>218.80000305176</ele>
        <time>2022-06-25T07:55:46.000Z</time>
      </trkpt>
      <trkpt lat="46.79981" lon="3.41657">
        <ele>218.80000305176</ele>
        <time>2022-06-25T07:55:49.000Z</time>
      </trkpt>
      <trkpt lat="46.79971" lon="3.41645">
        <ele>218</ele>
        <time>2022-06-25T07:55:51.000Z</time>
      </trkpt>
      <trkpt lat="46.79949" lon="3.41622">
        <ele>216.39999389648</ele>
        <time>2022-06-25T07:55:56.000Z</time>
      </trkpt>
      <trkpt lat="46.79945" lon="3.41618">
        <ele>216</ele>
        <time>2022-06-25T07:55:57.000Z</time>
      </trkpt>
      <trkpt lat="46.7994" lon="3.41609">
        <ele>215.60000610352</ele>
        <time>2022-06-25T07:56:00.000Z</time>
      </trkpt>
      <trkpt lat="46.79941" lon="3.41603">
        <ele>215.60000610352</ele>
        <time>2022-06-25T07:56:01.000Z</time>
      </trkpt>
      <trkpt lat="46.79942" lon="3.41599">
        <ele>215.60000610352</ele>
        <time>2022-06-25T07:56:02.000Z</time>
      </trkpt>
      <trkpt lat="46.79945" lon="3.41593">
        <ele>215.39999389648</ele>
        <time>2022-06-25T07:56:03.000Z</time>
      </trkpt>
      <trkpt lat="46.79955" lon="3.41575">
        <ele>215</ele>
        <time>2022-06-25T07:56:06.000Z</time>
      </trkpt>
      <trkpt lat="46.79967" lon="3.41553">
        <ele>215</ele>
        <time>2022-06-25T07:56:10.000Z</time>
      </trkpt>
      <trkpt lat="46.79987" lon="3.41521">
        <ele>213.60000610352</ele>
        <time>2022-06-25T07:56:15.000Z</time>
      </trkpt>
      <trkpt lat="46.79991" lon="3.41514">
        <ele>213.19999694824</ele>
        <time>2022-06-25T07:56:16.000Z</time>
      </trkpt>
      <trkpt lat="46.80011" lon="3.4148">
        <ele>212.39999389648</ele>
        <time>2022-06-25T07:56:21.000Z</time>
      </trkpt>
      <trkpt lat="46.80018" lon="3.41466">
        <ele>212.39999389648</ele>
        <time>2022-06-25T07:56:23.000Z</time>
      </trkpt>
      <trkpt lat="46.80034" lon="3.41439">
        <ele>211.80000305176</ele>
        <time>2022-06-25T07:56:27.000Z</time>
      </trkpt>
      <trkpt lat="46.80066" lon="3.41383">
        <ele>209.80000305176</ele>
        <time>2022-06-25T07:56:35.000Z</time>
      </trkpt>
      <trkpt lat="46.8007" lon="3.41376">
        <ele>209.60000610352</ele>
        <time>2022-06-25T07:56:36.000Z</time>
      </trkpt>
      <trkpt lat="46.80097" lon="3.41331">
        <ele>208</ele>
        <time>2022-06-25T07:56:42.000Z</time>
      </trkpt>
      <trkpt lat="46.80106" lon="3.41315">
        <ele>207.80000305176</ele>
        <time>2022-06-25T07:56:44.000Z</time>
      </trkpt>
      <trkpt lat="46.80119" lon="3.4129">
        <ele>207</ele>
        <time>2022-06-25T07:56:47.000Z</time>
      </trkpt>
      <trkpt lat="46.80126" lon="3.41272">
        <ele>206.60000610352</ele>
        <time>2022-06-25T07:56:49.000Z</time>
      </trkpt>
      <trkpt lat="46.80138" lon="3.41233">
        <ele>204.39999389648</ele>
        <time>2022-06-25T07:56:53.000Z</time>
      </trkpt>
      <trkpt lat="46.80141" lon="3.41222">
        <ele>204</ele>
        <time>2022-06-25T07:56:54.000Z</time>
      </trkpt>
      <trkpt lat="46.80156" lon="3.4117">
        <ele>203.19999694824</ele>
        <time>2022-06-25T07:56:59.000Z</time>
      </trkpt>
      <trkpt lat="46.80165" lon="3.41134">
        <ele>202</ele>
        <time>2022-06-25T07:57:02.000Z</time>
      </trkpt>
      <trkpt lat="46.80168" lon="3.41125">
        <ele>201.80000305176</ele>
        <time>2022-06-25T07:57:03.000Z</time>
      </trkpt>
      <trkpt lat="46.8018" lon="3.4108">
        <ele>202</ele>
        <time>2022-06-25T07:57:07.000Z</time>
      </trkpt>
      <trkpt lat="46.80189" lon="3.41046">
        <ele>201.80000305176</ele>
        <time>2022-06-25T07:57:10.000Z</time>
      </trkpt>
      <trkpt lat="46.80193" lon="3.41033">
        <ele>202</ele>
        <time>2022-06-25T07:57:11.000Z</time>
      </trkpt>
      <trkpt lat="46.80205" lon="3.4099">
        <ele>201.80000305176</ele>
        <time>2022-06-25T07:57:15.000Z</time>
      </trkpt>
      <trkpt lat="46.80213" lon="3.40956">
        <ele>201.19999694824</ele>
        <time>2022-06-25T07:57:18.000Z</time>
      </trkpt>
      <trkpt lat="46.80219" lon="3.40933">
        <ele>200.60000610352</ele>
        <time>2022-06-25T07:57:20.000Z</time>
      </trkpt>
      <trkpt lat="46.80232" lon="3.40886">
        <ele>200</ele>
        <time>2022-06-25T07:57:24.000Z</time>
      </trkpt>
      <trkpt lat="46.80236" lon="3.40872">
        <ele>199.19999694824</ele>
        <time>2022-06-25T07:57:25.000Z</time>
      </trkpt>
      <trkpt lat="46.80241" lon="3.40853">
        <ele>199.19999694824</ele>
        <time>2022-06-25T07:57:27.000Z</time>
      </trkpt>
      <trkpt lat="46.80253" lon="3.40812">
        <ele>200.39999389648</ele>
        <time>2022-06-25T07:57:31.000Z</time>
      </trkpt>
      <trkpt lat="46.80262" lon="3.40784">
        <ele>202</ele>
        <time>2022-06-25T07:57:34.000Z</time>
      </trkpt>
      <trkpt lat="46.80269" lon="3.40758">
        <ele>202.19999694824</ele>
        <time>2022-06-25T07:57:37.000Z</time>
      </trkpt>
      <trkpt lat="46.80283" lon="3.40706">
        <ele>202.19999694824</ele>
        <time>2022-06-25T07:57:43.000Z</time>
      </trkpt>
      <trkpt lat="46.80287" lon="3.40689">
        <ele>202</ele>
        <time>2022-06-25T07:57:45.000Z</time>
      </trkpt>
      <trkpt lat="46.80291" lon="3.40673">
        <ele>201.80000305176</ele>
        <time>2022-06-25T07:57:47.000Z</time>
      </trkpt>
      <trkpt lat="46.80293" lon="3.40667">
        <ele>201.80000305176</ele>
        <time>2022-06-25T07:57:48.000Z</time>
      </trkpt>
      <trkpt lat="46.80295" lon="3.40658">
        <ele>201.60000610352</ele>
        <time>2022-06-25T07:57:49.000Z</time>
      </trkpt>
      <trkpt lat="46.80301" lon="3.40634">
        <ele>200.60000610352</ele>
        <time>2022-06-25T07:57:52.000Z</time>
      </trkpt>
      <trkpt lat="46.80319" lon="3.4057">
        <ele>199.39999389648</ele>
        <time>2022-06-25T07:57:59.000Z</time>
      </trkpt>
      <trkpt lat="46.80325" lon="3.40552">
        <ele>198.39999389648</ele>
        <time>2022-06-25T07:58:01.000Z</time>
      </trkpt>
      <trkpt lat="46.80334" lon="3.40533">
        <ele>197.19999694824</ele>
        <time>2022-06-25T07:58:03.000Z</time>
      </trkpt>
      <trkpt lat="46.80337" lon="3.40523">
        <ele>196.60000610352</ele>
        <time>2022-06-25T07:58:04.000Z</time>
      </trkpt>
      <trkpt lat="46.80359" lon="3.40481">
        <ele>195.60000610352</ele>
        <time>2022-06-25T07:58:09.000Z</time>
      </trkpt>
      <trkpt lat="46.8037" lon="3.40456">
        <ele>195.60000610352</ele>
        <time>2022-06-25T07:58:12.000Z</time>
      </trkpt>
      <trkpt lat="46.80375" lon="3.40437">
        <ele>195.39999389648</ele>
        <time>2022-06-25T07:58:14.000Z</time>
      </trkpt>
      <trkpt lat="46.80378" lon="3.40401">
        <ele>194.80000305176</ele>
        <time>2022-06-25T07:58:18.000Z</time>
      </trkpt>
      <trkpt lat="46.80376" lon="3.40324">
        <ele>194.19999694824</ele>
        <time>2022-06-25T07:58:26.000Z</time>
      </trkpt>
      <trkpt lat="46.80379" lon="3.40284">
        <ele>192.60000610352</ele>
        <time>2022-06-25T07:58:30.000Z</time>
      </trkpt>
      <trkpt lat="46.80381" lon="3.40274">
        <ele>192.39999389648</ele>
        <time>2022-06-25T07:58:31.000Z</time>
      </trkpt>
      <trkpt lat="46.80397" lon="3.40198">
        <ele>192</ele>
        <time>2022-06-25T07:58:39.000Z</time>
      </trkpt>
      <trkpt lat="46.80399" lon="3.40188">
        <ele>192</ele>
        <time>2022-06-25T07:58:40.000Z</time>
      </trkpt>
      <trkpt lat="46.80416" lon="3.40112">
        <ele>192.39999389648</ele>
        <time>2022-06-25T07:58:48.000Z</time>
      </trkpt>
      <trkpt lat="46.80419" lon="3.40102">
        <ele>192.19999694824</ele>
        <time>2022-06-25T07:58:49.000Z</time>
      </trkpt>
      <trkpt lat="46.80428" lon="3.40063">
        <ele>191.60000610352</ele>
        <time>2022-06-25T07:58:53.000Z</time>
      </trkpt>
      <trkpt lat="46.80439" lon="3.40016">
        <ele>190.19999694824</ele>
        <time>2022-06-25T07:58:58.000Z</time>
      </trkpt>
      <trkpt lat="46.80456" lon="3.39961">
        <ele>190.39999389648</ele>
        <time>2022-06-25T07:59:04.000Z</time>
      </trkpt>
      <trkpt lat="46.80461" lon="3.39954">
        <ele>191.19999694824</ele>
        <time>2022-06-25T07:59:05.000Z</time>
      </trkpt>
      <trkpt lat="46.80466" lon="3.39948">
        <ele>191.60000610352</ele>
        <time>2022-06-25T07:59:06.000Z</time>
      </trkpt>
      <trkpt lat="46.80479" lon="3.39942">
        <ele>192.80000305176</ele>
        <time>2022-06-25T07:59:08.000Z</time>
      </trkpt>
      <trkpt lat="46.80492" lon="3.39942">
        <ele>194.19999694824</ele>
        <time>2022-06-25T07:59:10.000Z</time>
      </trkpt>
      <trkpt lat="46.80498" lon="3.39944">
        <ele>195</ele>
        <time>2022-06-25T07:59:11.000Z</time>
      </trkpt>
      <trkpt lat="46.80521" lon="3.39956">
        <ele>197</ele>
        <time>2022-06-25T07:59:16.000Z</time>
      </trkpt>
      <trkpt lat="46.80526" lon="3.39958">
        <ele>197.19999694824</ele>
        <time>2022-06-25T07:59:17.000Z</time>
      </trkpt>
      <trkpt lat="46.80537" lon="3.39962">
        <ele>198</ele>
        <time>2022-06-25T07:59:20.000Z</time>
      </trkpt>
      <trkpt lat="46.80548" lon="3.39967">
        <ele>198.80000305176</ele>
        <time>2022-06-25T07:59:23.000Z</time>
      </trkpt>
      <trkpt lat="46.80552" lon="3.39968">
        <ele>199.19999694824</ele>
        <time>2022-06-25T07:59:24.000Z</time>
      </trkpt>
      <trkpt lat="46.80563" lon="3.39973">
        <ele>200</ele>
        <time>2022-06-25T07:59:27.000Z</time>
      </trkpt>
      <trkpt lat="46.80576" lon="3.39979">
        <ele>200.80000305176</ele>
        <time>2022-06-25T07:59:31.000Z</time>
      </trkpt>
      <trkpt lat="46.80579" lon="3.3998">
        <ele>201</ele>
        <time>2022-06-25T07:59:32.000Z</time>
      </trkpt>
      <trkpt lat="46.80586" lon="3.3998">
        <ele>201.60000610352</ele>
        <time>2022-06-25T07:59:34.000Z</time>
      </trkpt>
      <trkpt lat="46.80593" lon="3.39975">
        <ele>202.19999694824</ele>
        <time>2022-06-25T07:59:36.000Z</time>
      </trkpt>
      <trkpt lat="46.80597" lon="3.39972">
        <ele>202.19999694824</ele>
        <time>2022-06-25T07:59:37.000Z</time>
      </trkpt>
      <trkpt lat="46.806" lon="3.39968">
        <ele>202.19999694824</ele>
        <time>2022-06-25T07:59:38.000Z</time>
      </trkpt>
      <trkpt lat="46.80609" lon="3.39956">
        <ele>202.19999694824</ele>
        <time>2022-06-25T07:59:41.000Z</time>
      </trkpt>
      <trkpt lat="46.80612" lon="3.39952">
        <ele>202.39999389648</ele>
        <time>2022-06-25T07:59:42.000Z</time>
      </trkpt>
      <trkpt lat="46.80633" lon="3.3993">
        <ele>203</ele>
        <time>2022-06-25T07:59:48.000Z</time>
      </trkpt>
      <trkpt lat="46.80636" lon="3.39926">
        <ele>203</ele>
        <time>2022-06-25T07:59:49.000Z</time>
      </trkpt>
      <trkpt lat="46.80645" lon="3.39914">
        <ele>203</ele>
        <time>2022-06-25T07:59:52.000Z</time>
      </trkpt>
      <trkpt lat="46.80654" lon="3.39899">
        <ele>203.19999694824</ele>
        <time>2022-06-25T07:59:55.000Z</time>
      </trkpt>
      <trkpt lat="46.80657" lon="3.39894">
        <ele>203.19999694824</ele>
        <time>2022-06-25T07:59:56.000Z</time>
      </trkpt>
      <trkpt lat="46.8068" lon="3.39839">
        <ele>204.80000305176</ele>
        <time>2022-06-25T08:00:05.000Z</time>
      </trkpt>
      <trkpt lat="46.8069" lon="3.39813">
        <ele>204.60000610352</ele>
        <time>2022-06-25T08:00:09.000Z</time>
      </trkpt>
      <trkpt lat="46.80701" lon="3.3979">
        <ele>205.60000610352</ele>
        <time>2022-06-25T08:00:13.000Z</time>
      </trkpt>
      <trkpt lat="46.80709" lon="3.39771">
        <ele>206.19999694824</ele>
        <time>2022-06-25T08:00:16.000Z</time>
      </trkpt>
      <trkpt lat="46.80725" lon="3.39743">
        <ele>206.19999694824</ele>
        <time>2022-06-25T08:00:21.000Z</time>
      </trkpt>
      <trkpt lat="46.8076" lon="3.397">
        <ele>204.60000610352</ele>
        <time>2022-06-25T08:00:29.000Z</time>
      </trkpt>
      <trkpt lat="46.80797" lon="3.39654">
        <ele>205.39999389648</ele>
        <time>2022-06-25T08:00:37.000Z</time>
      </trkpt>
      <trkpt lat="46.80827" lon="3.396">
        <ele>207</ele>
        <time>2022-06-25T08:00:45.000Z</time>
      </trkpt>
      <trkpt lat="46.80854" lon="3.3955">
        <ele>208.39999389648</ele>
        <time>2022-06-25T08:00:53.000Z</time>
      </trkpt>
      <trkpt lat="46.80861" lon="3.39537">
        <ele>208.60000610352</ele>
        <time>2022-06-25T08:00:55.000Z</time>
      </trkpt>
      <trkpt lat="46.8087" lon="3.39519">
        <ele>209</ele>
        <time>2022-06-25T08:00:58.000Z</time>
      </trkpt>
      <trkpt lat="46.80878" lon="3.39507">
        <ele>209</ele>
        <time>2022-06-25T08:01:00.000Z</time>
      </trkpt>
      <trkpt lat="46.80881" lon="3.39501">
        <ele>209</ele>
        <time>2022-06-25T08:01:01.000Z</time>
      </trkpt>
      <trkpt lat="46.80885" lon="3.39495">
        <ele>209</ele>
        <time>2022-06-25T08:01:02.000Z</time>
      </trkpt>
      <trkpt lat="46.80898" lon="3.39481">
        <ele>209</ele>
        <time>2022-06-25T08:01:05.000Z</time>
      </trkpt>
      <trkpt lat="46.80925" lon="3.39467">
        <ele>207</ele>
        <time>2022-06-25T08:01:10.000Z</time>
      </trkpt>
      <trkpt lat="46.80931" lon="3.39465">
        <ele>207</ele>
        <time>2022-06-25T08:01:11.000Z</time>
      </trkpt>
      <trkpt lat="46.80969" lon="3.39453">
        <ele>206.19999694824</ele>
        <time>2022-06-25T08:01:17.000Z</time>
      </trkpt>
      <trkpt lat="46.81013" lon="3.39447">
        <ele>205.19999694824</ele>
        <time>2022-06-25T08:01:23.000Z</time>
      </trkpt>
      <trkpt lat="46.81021" lon="3.39446">
        <ele>205.39999389648</ele>
        <time>2022-06-25T08:01:24.000Z</time>
      </trkpt>
      <trkpt lat="46.81059" lon="3.39448">
        <ele>205.19999694824</ele>
        <time>2022-06-25T08:01:29.000Z</time>
      </trkpt>
      <trkpt lat="46.81067" lon="3.39451">
        <ele>205</ele>
        <time>2022-06-25T08:01:30.000Z</time>
      </trkpt>
      <trkpt lat="46.81098" lon="3.39462">
        <ele>203.60000610352</ele>
        <time>2022-06-25T08:01:34.000Z</time>
      </trkpt>
      <trkpt lat="46.81122" lon="3.3947">
        <ele>202</ele>
        <time>2022-06-25T08:01:37.000Z</time>
      </trkpt>
      <trkpt lat="46.81172" lon="3.3949">
        <ele>200</ele>
        <time>2022-06-25T08:01:43.000Z</time>
      </trkpt>
      <trkpt lat="46.8118" lon="3.39494">
        <ele>199.80000305176</ele>
        <time>2022-06-25T08:01:44.000Z</time>
      </trkpt>
      <trkpt lat="46.81197" lon="3.39502">
        <ele>199.60000610352</ele>
        <time>2022-06-25T08:01:46.000Z</time>
      </trkpt>
      <trkpt lat="46.81231" lon="3.39516">
        <ele>199.60000610352</ele>
        <time>2022-06-25T08:01:50.000Z</time>
      </trkpt>
      <trkpt lat="46.81257" lon="3.39522">
        <ele>199</ele>
        <time>2022-06-25T08:01:53.000Z</time>
      </trkpt>
      <trkpt lat="46.81274" lon="3.39526">
        <ele>197.80000305176</ele>
        <time>2022-06-25T08:01:55.000Z</time>
      </trkpt>
      <trkpt lat="46.813" lon="3.3953">
        <ele>196.60000610352</ele>
        <time>2022-06-25T08:01:58.000Z</time>
      </trkpt>
      <trkpt lat="46.81317" lon="3.3953">
        <ele>196</ele>
        <time>2022-06-25T08:02:00.000Z</time>
      </trkpt>
      <trkpt lat="46.81358" lon="3.3952">
        <ele>194.39999389648</ele>
        <time>2022-06-25T08:02:05.000Z</time>
      </trkpt>
      <trkpt lat="46.81398" lon="3.39492">
        <ele>193</ele>
        <time>2022-06-25T08:02:10.000Z</time>
      </trkpt>
      <trkpt lat="46.81413" lon="3.39482">
        <ele>192.60000610352</ele>
        <time>2022-06-25T08:02:12.000Z</time>
      </trkpt>
      <trkpt lat="46.81435" lon="3.39468">
        <ele>192.60000610352</ele>
        <time>2022-06-25T08:02:15.000Z</time>
      </trkpt>
      <trkpt lat="46.81442" lon="3.39464">
        <ele>192.39999389648</ele>
        <time>2022-06-25T08:02:16.000Z</time>
      </trkpt>
      <trkpt lat="46.81449" lon="3.39461">
        <ele>192.19999694824</ele>
        <time>2022-06-25T08:02:17.000Z</time>
      </trkpt>
      <trkpt lat="46.81456" lon="3.39459">
        <ele>192</ele>
        <time>2022-06-25T08:02:18.000Z</time>
      </trkpt>
      <trkpt lat="46.81485" lon="3.39455">
        <ele>192.19999694824</ele>
        <time>2022-06-25T08:02:22.000Z</time>
      </trkpt>
      <trkpt lat="46.81491" lon="3.39454">
        <ele>192.39999389648</ele>
        <time>2022-06-25T08:02:23.000Z</time>
      </trkpt>
      <trkpt lat="46.81516" lon="3.39446">
        <ele>193.39999389648</ele>
        <time>2022-06-25T08:02:27.000Z</time>
      </trkpt>
      <trkpt lat="46.8152" lon="3.39442">
        <ele>193.80000305176</ele>
        <time>2022-06-25T08:02:28.000Z</time>
      </trkpt>
      <trkpt lat="46.81523" lon="3.39435">
        <ele>194</ele>
        <time>2022-06-25T08:02:29.000Z</time>
      </trkpt>
      <trkpt lat="46.81519" lon="3.39424">
        <ele>193.80000305176</ele>
        <time>2022-06-25T08:02:31.000Z</time>
      </trkpt>
      <trkpt lat="46.81512" lon="3.39409">
        <ele>193.39999389648</ele>
        <time>2022-06-25T08:02:33.000Z</time>
      </trkpt>
      <trkpt lat="46.8151" lon="3.39401">
        <ele>193.60000610352</ele>
        <time>2022-06-25T08:02:34.000Z</time>
      </trkpt>
      <trkpt lat="46.81506" lon="3.39384">
        <ele>193.80000305176</ele>
        <time>2022-06-25T08:02:36.000Z</time>
      </trkpt>
      <trkpt lat="46.81499" lon="3.3935">
        <ele>194.80000305176</ele>
        <time>2022-06-25T08:02:40.000Z</time>
      </trkpt>
      <trkpt lat="46.81492" lon="3.39316">
        <ele>195.39999389648</ele>
        <time>2022-06-25T08:02:44.000Z</time>
      </trkpt>
      <trkpt lat="46.81487" lon="3.39284">
        <ele>195.19999694824</ele>
        <time>2022-06-25T08:02:48.000Z</time>
      </trkpt>
      <trkpt lat="46.81474" lon="3.392">
        <ele>194.39999389648</ele>
        <time>2022-06-25T08:02:58.000Z</time>
      </trkpt>
      <trkpt lat="46.81471" lon="3.39175">
        <ele>194.80000305176</ele>
        <time>2022-06-25T08:03:01.000Z</time>
      </trkpt>
      <trkpt lat="46.81461" lon="3.3911">
        <ele>195.39999389648</ele>
        <time>2022-06-25T08:03:09.000Z</time>
      </trkpt>
      <trkpt lat="46.81458" lon="3.39085">
        <ele>195.60000610352</ele>
        <time>2022-06-25T08:03:12.000Z</time>
      </trkpt>
      <trkpt lat="46.81446" lon="3.39004">
        <ele>196.60000610352</ele>
        <time>2022-06-25T08:03:22.000Z</time>
      </trkpt>
      <trkpt lat="46.81444" lon="3.38996">
        <ele>196.19999694824</ele>
        <time>2022-06-25T08:03:23.000Z</time>
      </trkpt>
      <trkpt lat="46.81442" lon="3.3898">
        <ele>196</ele>
        <time>2022-06-25T08:03:25.000Z</time>
      </trkpt>
      <trkpt lat="46.8143" lon="3.38897">
        <ele>194</ele>
        <time>2022-06-25T08:03:35.000Z</time>
      </trkpt>
      <trkpt lat="46.81428" lon="3.38888">
        <ele>194</ele>
        <time>2022-06-25T08:03:36.000Z</time>
      </trkpt>
      <trkpt lat="46.81415" lon="3.38804">
        <ele>195</ele>
        <time>2022-06-25T08:03:46.000Z</time>
      </trkpt>
      <trkpt lat="46.81411" lon="3.38778">
        <ele>195.39999389648</ele>
        <time>2022-06-25T08:03:49.000Z</time>
      </trkpt>
      <trkpt lat="46.81399" lon="3.38697">
        <ele>194</ele>
        <time>2022-06-25T08:03:58.000Z</time>
      </trkpt>
      <trkpt lat="46.81386" lon="3.38618">
        <ele>195.39999389648</ele>
        <time>2022-06-25T08:04:07.000Z</time>
      </trkpt>
      <trkpt lat="46.81381" lon="3.38592">
        <ele>195.60000610352</ele>
        <time>2022-06-25T08:04:10.000Z</time>
      </trkpt>
      <trkpt lat="46.81371" lon="3.3854">
        <ele>196</ele>
        <time>2022-06-25T08:04:16.000Z</time>
      </trkpt>
      <trkpt lat="46.81364" lon="3.38504">
        <ele>196</ele>
        <time>2022-06-25T08:04:20.000Z</time>
      </trkpt>
      <trkpt lat="46.8135" lon="3.38426">
        <ele>194.19999694824</ele>
        <time>2022-06-25T08:04:29.000Z</time>
      </trkpt>
      <trkpt lat="46.81349" lon="3.38417">
        <ele>194</ele>
        <time>2022-06-25T08:04:30.000Z</time>
      </trkpt>
      <trkpt lat="46.81335" lon="3.38336">
        <ele>193.80000305176</ele>
        <time>2022-06-25T08:04:39.000Z</time>
      </trkpt>
      <trkpt lat="46.81333" lon="3.38328">
        <ele>193.60000610352</ele>
        <time>2022-06-25T08:04:40.000Z</time>
      </trkpt>
      <trkpt lat="46.8132" lon="3.38258">
        <ele>193</ele>
        <time>2022-06-25T08:04:48.000Z</time>
      </trkpt>
      <trkpt lat="46.81306" lon="3.3818">
        <ele>193.60000610352</ele>
        <time>2022-06-25T08:04:57.000Z</time>
      </trkpt>
      <trkpt lat="46.81303" lon="3.38163">
        <ele>194.39999389648</ele>
        <time>2022-06-25T08:04:59.000Z</time>
      </trkpt>
      <trkpt lat="46.81288" lon="3.38084">
        <ele>196</ele>
        <time>2022-06-25T08:05:08.000Z</time>
      </trkpt>
      <trkpt lat="46.81286" lon="3.38078">
        <ele>196</ele>
        <time>2022-06-25T08:05:09.000Z</time>
      </trkpt>
      <trkpt lat="46.81261" lon="3.38008">
        <ele>197.19999694824</ele>
        <time>2022-06-25T08:05:18.000Z</time>
      </trkpt>
      <trkpt lat="46.81231" lon="3.37954">
        <ele>196</ele>
        <time>2022-06-25T08:05:26.000Z</time>
      </trkpt>
      <trkpt lat="46.812" lon="3.37913">
        <ele>196.19999694824</ele>
        <time>2022-06-25T08:05:33.000Z</time>
      </trkpt>
      <trkpt lat="46.81175" lon="3.37882">
        <ele>196.80000305176</ele>
        <time>2022-06-25T08:05:39.000Z</time>
      </trkpt>
      <trkpt lat="46.81149" lon="3.37851">
        <ele>195.80000305176</ele>
        <time>2022-06-25T08:05:45.000Z</time>
      </trkpt>
      <trkpt lat="46.81118" lon="3.37812">
        <ele>194.80000305176</ele>
        <time>2022-06-25T08:05:52.000Z</time>
      </trkpt>
      <trkpt lat="46.81079" lon="3.37765">
        <ele>192</ele>
        <time>2022-06-25T08:05:59.000Z</time>
      </trkpt>
      <trkpt lat="46.81035" lon="3.37705">
        <ele>190.39999389648</ele>
        <time>2022-06-25T08:06:08.000Z</time>
      </trkpt>
      <trkpt lat="46.81002" lon="3.37662">
        <ele>191.19999694824</ele>
        <time>2022-06-25T08:06:15.000Z</time>
      </trkpt>
      <trkpt lat="46.80979" lon="3.37629">
        <ele>193.19999694824</ele>
        <time>2022-06-25T08:06:20.000Z</time>
      </trkpt>
      <trkpt lat="46.80971" lon="3.37613">
        <ele>193.80000305176</ele>
        <time>2022-06-25T08:06:22.000Z</time>
      </trkpt>
      <trkpt lat="46.80962" lon="3.3759">
        <ele>193.60000610352</ele>
        <time>2022-06-25T08:06:25.000Z</time>
      </trkpt>
      <trkpt lat="46.80957" lon="3.37571">
        <ele>193.80000305176</ele>
        <time>2022-06-25T08:06:27.000Z</time>
      </trkpt>
      <trkpt lat="46.80956" lon="3.37562">
        <ele>194</ele>
        <time>2022-06-25T08:06:28.000Z</time>
      </trkpt>
      <trkpt lat="46.80949" lon="3.37503">
        <ele>193.60000610352</ele>
        <time>2022-06-25T08:06:35.000Z</time>
      </trkpt>
      <trkpt lat="46.80953" lon="3.37451">
        <ele>193.60000610352</ele>
        <time>2022-06-25T08:06:41.000Z</time>
      </trkpt>
      <trkpt lat="46.80969" lon="3.37398">
        <ele>194.80000305176</ele>
        <time>2022-06-25T08:06:48.000Z</time>
      </trkpt>
      <trkpt lat="46.80997" lon="3.37341">
        <ele>195.60000610352</ele>
        <time>2022-06-25T08:06:56.000Z</time>
      </trkpt>
      <trkpt lat="46.81031" lon="3.3728">
        <ele>193.60000610352</ele>
        <time>2022-06-25T08:07:05.000Z</time>
      </trkpt>
      <trkpt lat="46.81034" lon="3.37274">
        <ele>193.39999389648</ele>
        <time>2022-06-25T08:07:06.000Z</time>
      </trkpt>
      <trkpt lat="46.81068" lon="3.37209">
        <ele>193.19999694824</ele>
        <time>2022-06-25T08:07:15.000Z</time>
      </trkpt>
      <trkpt lat="46.81071" lon="3.37201">
        <ele>193.19999694824</ele>
        <time>2022-06-25T08:07:16.000Z</time>
      </trkpt>
      <trkpt lat="46.81105" lon="3.37131">
        <ele>191.60000610352</ele>
        <time>2022-06-25T08:07:25.000Z</time>
      </trkpt>
      <trkpt lat="46.81111" lon="3.37118">
        <ele>191.39999389648</ele>
        <time>2022-06-25T08:07:27.000Z</time>
      </trkpt>
      <trkpt lat="46.81144" lon="3.37052">
        <ele>189.80000305176</ele>
        <time>2022-06-25T08:07:36.000Z</time>
      </trkpt>
      <trkpt lat="46.81149" lon="3.3704">
        <ele>189.60000610352</ele>
        <time>2022-06-25T08:07:38.000Z</time>
      </trkpt>
      <trkpt lat="46.81153" lon="3.37024">
        <ele>189</ele>
        <time>2022-06-25T08:07:40.000Z</time>
      </trkpt>
      <trkpt lat="46.81151" lon="3.37011">
        <ele>189</ele>
        <time>2022-06-25T08:07:42.000Z</time>
      </trkpt>
      <trkpt lat="46.81142" lon="3.37">
        <ele>188.80000305176</ele>
        <time>2022-06-25T08:07:44.000Z</time>
      </trkpt>
      <trkpt lat="46.81136" lon="3.36999">
        <ele>188.60000610352</ele>
        <time>2022-06-25T08:07:45.000Z</time>
      </trkpt>
      <trkpt lat="46.81128" lon="3.37">
        <ele>188.39999389648</ele>
        <time>2022-06-25T08:07:46.000Z</time>
      </trkpt>
      <trkpt lat="46.81087" lon="3.37003">
        <ele>189.39999389648</ele>
        <time>2022-06-25T08:07:53.000Z</time>
      </trkpt>
      <trkpt lat="46.8105" lon="3.37009">
        <ele>192</ele>
        <time>2022-06-25T08:08:00.000Z</time>
      </trkpt>
      <trkpt lat="46.81001" lon="3.37019">
        <ele>194</ele>
        <time>2022-06-25T08:08:09.000Z</time>
      </trkpt>
      <trkpt lat="46.80996" lon="3.37019">
        <ele>194.39999389648</ele>
        <time>2022-06-25T08:08:10.000Z</time>
      </trkpt>
      <trkpt lat="46.80969" lon="3.37017">
        <ele>196.60000610352</ele>
        <time>2022-06-25T08:08:15.000Z</time>
      </trkpt>
      <trkpt lat="46.80939" lon="3.37011">
        <ele>199.80000305176</ele>
        <time>2022-06-25T08:08:21.000Z</time>
      </trkpt>
      <trkpt lat="46.80934" lon="3.3701">
        <ele>200.39999389648</ele>
        <time>2022-06-25T08:08:22.000Z</time>
      </trkpt>
      <trkpt lat="46.80929" lon="3.37009">
        <ele>200.80000305176</ele>
        <time>2022-06-25T08:08:23.000Z</time>
      </trkpt>
      <trkpt lat="46.8091" lon="3.37004">
        <ele>200.80000305176</ele>
        <time>2022-06-25T08:08:27.000Z</time>
      </trkpt>
      <trkpt lat="46.80904" lon="3.37002">
        <ele>200.60000610352</ele>
        <time>2022-06-25T08:08:28.000Z</time>
      </trkpt>
      <trkpt lat="46.80875" lon="3.36991">
        <ele>199.19999694824</ele>
        <time>2022-06-25T08:08:34.000Z</time>
      </trkpt>
      <trkpt lat="46.80864" lon="3.36988">
        <ele>198.80000305176</ele>
        <time>2022-06-25T08:08:36.000Z</time>
      </trkpt>
      <trkpt lat="46.80829" lon="3.3698">
        <ele>198.19999694824</ele>
        <time>2022-06-25T08:08:43.000Z</time>
      </trkpt>
      <trkpt lat="46.80813" lon="3.36979">
        <ele>198.39999389648</ele>
        <time>2022-06-25T08:08:46.000Z</time>
      </trkpt>
      <trkpt lat="46.80763" lon="3.36972">
        <ele>200.60000610352</ele>
        <time>2022-06-25T08:08:56.000Z</time>
      </trkpt>
      <trkpt lat="46.80758" lon="3.36972">
        <ele>200.80000305176</ele>
        <time>2022-06-25T08:08:57.000Z</time>
      </trkpt>
      <trkpt lat="46.80717" lon="3.36967">
        <ele>200.19999694824</ele>
        <time>2022-06-25T08:09:05.000Z</time>
      </trkpt>
      <trkpt lat="46.80711" lon="3.36966">
        <ele>200.39999389648</ele>
        <time>2022-06-25T08:09:06.000Z</time>
      </trkpt>
      <trkpt lat="46.80664" lon="3.3696">
        <ele>198.60000610352</ele>
        <time>2022-06-25T08:09:15.000Z</time>
      </trkpt>
      <trkpt lat="46.80605" lon="3.36964">
        <ele>197.39999389648</ele>
        <time>2022-06-25T08:09:26.000Z</time>
      </trkpt>
      <trkpt lat="46.80561" lon="3.36978">
        <ele>198.80000305176</ele>
        <time>2022-06-25T08:09:34.000Z</time>
      </trkpt>
      <trkpt lat="46.80546" lon="3.36982">
        <ele>198.80000305176</ele>
        <time>2022-06-25T08:09:37.000Z</time>
      </trkpt>
      <trkpt lat="46.80536" lon="3.36979">
        <ele>198</ele>
        <time>2022-06-25T08:09:39.000Z</time>
      </trkpt>
      <trkpt lat="46.80528" lon="3.36964">
        <ele>196</ele>
        <time>2022-06-25T08:09:41.000Z</time>
      </trkpt>
      <trkpt lat="46.80522" lon="3.36925">
        <ele>191.80000305176</ele>
        <time>2022-06-25T08:09:45.000Z</time>
      </trkpt>
      <trkpt lat="46.8052" lon="3.36915">
        <ele>190.60000610352</ele>
        <time>2022-06-25T08:09:46.000Z</time>
      </trkpt>
      <trkpt lat="46.80516" lon="3.3688">
        <ele>188.80000305176</ele>
        <time>2022-06-25T08:09:49.000Z</time>
      </trkpt>
      <trkpt lat="46.80511" lon="3.36842">
        <ele>187.39999389648</ele>
        <time>2022-06-25T08:09:52.000Z</time>
      </trkpt>
      <trkpt lat="46.80504" lon="3.36786">
        <ele>187.19999694824</ele>
        <time>2022-06-25T08:09:57.000Z</time>
      </trkpt>
      <trkpt lat="46.80502" lon="3.36768">
        <ele>187.19999694824</ele>
        <time>2022-06-25T08:09:59.000Z</time>
      </trkpt>
      <trkpt lat="46.805" lon="3.36757">
        <ele>187.60000610352</ele>
        <time>2022-06-25T08:10:00.000Z</time>
      </trkpt>
      <trkpt lat="46.80496" lon="3.36742">
        <ele>188.39999389648</ele>
        <time>2022-06-25T08:10:02.000Z</time>
      </trkpt>
      <trkpt lat="46.80493" lon="3.36735">
        <ele>188.80000305176</ele>
        <time>2022-06-25T08:10:03.000Z</time>
      </trkpt>
      <trkpt lat="46.80489" lon="3.3673">
        <ele>189.19999694824</ele>
        <time>2022-06-25T08:10:04.000Z</time>
      </trkpt>
      <trkpt lat="46.80477" lon="3.36715">
        <ele>189.80000305176</ele>
        <time>2022-06-25T08:10:07.000Z</time>
      </trkpt>
      <trkpt lat="46.80467" lon="3.36705">
        <ele>189.39999389648</ele>
        <time>2022-06-25T08:10:09.000Z</time>
      </trkpt>
      <trkpt lat="46.80456" lon="3.36696">
        <ele>189</ele>
        <time>2022-06-25T08:10:11.000Z</time>
      </trkpt>
      <trkpt lat="46.80449" lon="3.36692">
        <ele>188.80000305176</ele>
        <time>2022-06-25T08:10:12.000Z</time>
      </trkpt>
      <trkpt lat="46.80438" lon="3.36688">
        <ele>188.60000610352</ele>
        <time>2022-06-25T08:10:14.000Z</time>
      </trkpt>
      <trkpt lat="46.80426" lon="3.36686">
        <ele>188.39999389648</ele>
        <time>2022-06-25T08:10:16.000Z</time>
      </trkpt>
      <trkpt lat="46.8042" lon="3.36687">
        <ele>188.19999694824</ele>
        <time>2022-06-25T08:10:17.000Z</time>
      </trkpt>
      <trkpt lat="46.80414" lon="3.36688">
        <ele>188.19999694824</ele>
        <time>2022-06-25T08:10:18.000Z</time>
      </trkpt>
      <trkpt lat="46.80391" lon="3.36694">
        <ele>188.39999389648</ele>
        <time>2022-06-25T08:10:22.000Z</time>
      </trkpt>
      <trkpt lat="46.80351" lon="3.36708">
        <ele>191.19999694824</ele>
        <time>2022-06-25T08:10:30.000Z</time>
      </trkpt>
      <trkpt lat="46.80324" lon="3.36715">
        <ele>193.80000305176</ele>
        <time>2022-06-25T08:10:36.000Z</time>
      </trkpt>
      <trkpt lat="46.80319" lon="3.36716">
        <ele>194.39999389648</ele>
        <time>2022-06-25T08:10:37.000Z</time>
      </trkpt>
      <trkpt lat="46.80301" lon="3.36722">
        <ele>196.19999694824</ele>
        <time>2022-06-25T08:10:41.000Z</time>
      </trkpt>
      <trkpt lat="46.80293" lon="3.36725">
        <ele>196.80000305176</ele>
        <time>2022-06-25T08:10:43.000Z</time>
      </trkpt>
      <trkpt lat="46.80289" lon="3.36726">
        <ele>197.19999694824</ele>
        <time>2022-06-25T08:10:44.000Z</time>
      </trkpt>
      <trkpt lat="46.8028" lon="3.36728">
        <ele>198</ele>
        <time>2022-06-25T08:10:46.000Z</time>
      </trkpt>
      <trkpt lat="46.80263" lon="3.36736">
        <ele>198.39999389648</ele>
        <time>2022-06-25T08:10:50.000Z</time>
      </trkpt>
      <trkpt lat="46.80258" lon="3.36737">
        <ele>198.19999694824</ele>
        <time>2022-06-25T08:10:51.000Z</time>
      </trkpt>
      <trkpt lat="46.8025" lon="3.3674">
        <ele>198.60000610352</ele>
        <time>2022-06-25T08:10:53.000Z</time>
      </trkpt>
      <trkpt lat="46.8024" lon="3.36744">
        <ele>199.19999694824</ele>
        <time>2022-06-25T08:10:55.000Z</time>
      </trkpt>
      <trkpt lat="46.80226" lon="3.36749">
        <ele>200</ele>
        <time>2022-06-25T08:10:58.000Z</time>
      </trkpt>
      <trkpt lat="46.80221" lon="3.3675">
        <ele>200.19999694824</ele>
        <time>2022-06-25T08:10:59.000Z</time>
      </trkpt>
      <trkpt lat="46.80202" lon="3.36755">
        <ele>201.19999694824</ele>
        <time>2022-06-25T08:11:03.000Z</time>
      </trkpt>
      <trkpt lat="46.80197" lon="3.36755">
        <ele>201.39999389648</ele>
        <time>2022-06-25T08:11:04.000Z</time>
      </trkpt>
      <trkpt lat="46.80191" lon="3.36756">
        <ele>201.80000305176</ele>
        <time>2022-06-25T08:11:05.000Z</time>
      </trkpt>
      <trkpt lat="46.80186" lon="3.36757">
        <ele>202</ele>
        <time>2022-06-25T08:11:06.000Z</time>
      </trkpt>
      <trkpt lat="46.80156" lon="3.36758">
        <ele>203.80000305176</ele>
        <time>2022-06-25T08:11:12.000Z</time>
      </trkpt>
      <trkpt lat="46.80112" lon="3.36754">
        <ele>202.60000610352</ele>
        <time>2022-06-25T08:11:20.000Z</time>
      </trkpt>
      <trkpt lat="46.80083" lon="3.36752">
        <ele>200.80000305176</ele>
        <time>2022-06-25T08:11:25.000Z</time>
      </trkpt>
      <trkpt lat="46.80071" lon="3.36751">
        <ele>200.60000610352</ele>
        <time>2022-06-25T08:11:27.000Z</time>
      </trkpt>
      <trkpt lat="46.80028" lon="3.36748">
        <ele>201.39999389648</ele>
        <time>2022-06-25T08:11:35.000Z</time>
      </trkpt>
      <trkpt lat="46.80021" lon="3.36747">
        <ele>201.19999694824</ele>
        <time>2022-06-25T08:11:36.000Z</time>
      </trkpt>
      <trkpt lat="46.79998" lon="3.36739">
        <ele>201.39999389648</ele>
        <time>2022-06-25T08:11:40.000Z</time>
      </trkpt>
      <trkpt lat="46.79993" lon="3.36737">
        <ele>201.60000610352</ele>
        <time>2022-06-25T08:11:41.000Z</time>
      </trkpt>
      <trkpt lat="46.7998" lon="3.36726">
        <ele>202.19999694824</ele>
        <time>2022-06-25T08:11:44.000Z</time>
      </trkpt>
      <trkpt lat="46.7997" lon="3.36718">
        <ele>202.60000610352</ele>
        <time>2022-06-25T08:11:46.000Z</time>
      </trkpt>
      <trkpt lat="46.79937" lon="3.36694">
        <ele>202.60000610352</ele>
        <time>2022-06-25T08:11:53.000Z</time>
      </trkpt>
      <trkpt lat="46.79918" lon="3.36677">
        <ele>202.39999389648</ele>
        <time>2022-06-25T08:11:57.000Z</time>
      </trkpt>
      <trkpt lat="46.79902" lon="3.36665">
        <ele>202.19999694824</ele>
        <time>2022-06-25T08:12:00.000Z</time>
      </trkpt>
      <trkpt lat="46.79863" lon="3.36631">
        <ele>203.60000610352</ele>
        <time>2022-06-25T08:12:08.000Z</time>
      </trkpt>
      <trkpt lat="46.79838" lon="3.36611">
        <ele>201.80000305176</ele>
        <time>2022-06-25T08:12:13.000Z</time>
      </trkpt>
      <trkpt lat="46.79819" lon="3.36595">
        <ele>199</ele>
        <time>2022-06-25T08:12:17.000Z</time>
      </trkpt>
      <trkpt lat="46.79809" lon="3.36587">
        <ele>197.80000305176</ele>
        <time>2022-06-25T08:12:19.000Z</time>
      </trkpt>
      <trkpt lat="46.79797" lon="3.3657">
        <ele>197.19999694824</ele>
        <time>2022-06-25T08:12:22.000Z</time>
      </trkpt>
      <trkpt lat="46.79785" lon="3.36548">
        <ele>197</ele>
        <time>2022-06-25T08:12:25.000Z</time>
      </trkpt>
      <trkpt lat="46.79768" lon="3.36511">
        <ele>196.60000610352</ele>
        <time>2022-06-25T08:12:30.000Z</time>
      </trkpt>
      <trkpt lat="46.79749" lon="3.3647">
        <ele>195</ele>
        <time>2022-06-25T08:12:35.000Z</time>
      </trkpt>
      <trkpt lat="46.79744" lon="3.3646">
        <ele>194.80000305176</ele>
        <time>2022-06-25T08:12:36.000Z</time>
      </trkpt>
      <trkpt lat="46.79733" lon="3.36436">
        <ele>194.39999389648</ele>
        <time>2022-06-25T08:12:39.000Z</time>
      </trkpt>
      <trkpt lat="46.79715" lon="3.36398">
        <ele>194</ele>
        <time>2022-06-25T08:12:43.000Z</time>
      </trkpt>
      <trkpt lat="46.79708" lon="3.36382">
        <ele>193</ele>
        <time>2022-06-25T08:12:45.000Z</time>
      </trkpt>
      <trkpt lat="46.79683" lon="3.36329">
        <ele>193.39999389648</ele>
        <time>2022-06-25T08:12:51.000Z</time>
      </trkpt>
      <trkpt lat="46.79676" lon="3.36313">
        <ele>194</ele>
        <time>2022-06-25T08:12:53.000Z</time>
      </trkpt>
      <trkpt lat="46.79661" lon="3.36282">
        <ele>195.80000305176</ele>
        <time>2022-06-25T08:12:57.000Z</time>
      </trkpt>
      <trkpt lat="46.79642" lon="3.36237">
        <ele>197.80000305176</ele>
        <time>2022-06-25T08:13:03.000Z</time>
      </trkpt>
      <trkpt lat="46.79619" lon="3.36189">
        <ele>197</ele>
        <time>2022-06-25T08:13:10.000Z</time>
      </trkpt>
      <trkpt lat="46.79603" lon="3.36159">
        <ele>196.60000610352</ele>
        <time>2022-06-25T08:13:15.000Z</time>
      </trkpt>
      <trkpt lat="46.79598" lon="3.36148">
        <ele>196.80000305176</ele>
        <time>2022-06-25T08:13:17.000Z</time>
      </trkpt>
      <trkpt lat="46.79585" lon="3.36122">
        <ele>196.80000305176</ele>
        <time>2022-06-25T08:13:21.000Z</time>
      </trkpt>
      <trkpt lat="46.79569" lon="3.36089">
        <ele>196.80000305176</ele>
        <time>2022-06-25T08:13:26.000Z</time>
      </trkpt>
      <trkpt lat="46.79544" lon="3.36035">
        <ele>198.80000305176</ele>
        <time>2022-06-25T08:13:34.000Z</time>
      </trkpt>
      <trkpt lat="46.79536" lon="3.36014">
        <ele>199</ele>
        <time>2022-06-25T08:13:37.000Z</time>
      </trkpt>
      <trkpt lat="46.79528" lon="3.35993">
        <ele>198.39999389648</ele>
        <time>2022-06-25T08:13:40.000Z</time>
      </trkpt>
      <trkpt lat="46.79521" lon="3.35955">
        <ele>198</ele>
        <time>2022-06-25T08:13:45.000Z</time>
      </trkpt>
      <trkpt lat="46.7952" lon="3.35947">
        <ele>197.80000305176</ele>
        <time>2022-06-25T08:13:46.000Z</time>
      </trkpt>
      <trkpt lat="46.7952" lon="3.35931">
        <ele>198.19999694824</ele>
        <time>2022-06-25T08:13:48.000Z</time>
      </trkpt>
      <trkpt lat="46.79521" lon="3.35901">
        <ele>198.39999389648</ele>
        <time>2022-06-25T08:13:52.000Z</time>
      </trkpt>
      <trkpt lat="46.79522" lon="3.35878">
        <ele>199.19999694824</ele>
        <time>2022-06-25T08:13:55.000Z</time>
      </trkpt>
      <trkpt lat="46.79526" lon="3.35835">
        <ele>200.80000305176</ele>
        <time>2022-06-25T08:14:01.000Z</time>
      </trkpt>
      <trkpt lat="46.79527" lon="3.35805">
        <ele>201.39999389648</ele>
        <time>2022-06-25T08:14:05.000Z</time>
      </trkpt>
      <trkpt lat="46.79527" lon="3.35782">
        <ele>201.80000305176</ele>
        <time>2022-06-25T08:14:08.000Z</time>
      </trkpt>
      <trkpt lat="46.79526" lon="3.35759">
        <ele>202.19999694824</ele>
        <time>2022-06-25T08:14:11.000Z</time>
      </trkpt>
      <trkpt lat="46.79521" lon="3.35744">
        <ele>202</ele>
        <time>2022-06-25T08:14:13.000Z</time>
      </trkpt>
      <trkpt lat="46.79515" lon="3.3573">
        <ele>201.39999389648</ele>
        <time>2022-06-25T08:14:15.000Z</time>
      </trkpt>
      <trkpt lat="46.79502" lon="3.35711">
        <ele>200.19999694824</ele>
        <time>2022-06-25T08:14:19.000Z</time>
      </trkpt>
      <trkpt lat="46.79474" lon="3.35673">
        <ele>197.19999694824</ele>
        <time>2022-06-25T08:14:24.000Z</time>
      </trkpt>
      <trkpt lat="46.79456" lon="3.35648">
        <ele>196.19999694824</ele>
        <time>2022-06-25T08:14:27.000Z</time>
      </trkpt>
      <trkpt lat="46.79438" lon="3.35622">
        <ele>196.60000610352</ele>
        <time>2022-06-25T08:14:30.000Z</time>
      </trkpt>
      <trkpt lat="46.79432" lon="3.35613">
        <ele>196.80000305176</ele>
        <time>2022-06-25T08:14:31.000Z</time>
      </trkpt>
      <trkpt lat="46.79415" lon="3.3559">
        <ele>197.39999389648</ele>
        <time>2022-06-25T08:14:34.000Z</time>
      </trkpt>
      <trkpt lat="46.79401" lon="3.35569">
        <ele>197.39999389648</ele>
        <time>2022-06-25T08:14:37.000Z</time>
      </trkpt>
      <trkpt lat="46.79366" lon="3.35527">
        <ele>197.19999694824</ele>
        <time>2022-06-25T08:14:44.000Z</time>
      </trkpt>
      <trkpt lat="46.7933" lon="3.35501">
        <ele>201</ele>
        <time>2022-06-25T08:14:51.000Z</time>
      </trkpt>
      <trkpt lat="46.7928" lon="3.35468">
        <ele>201.60000610352</ele>
        <time>2022-06-25T08:15:01.000Z</time>
      </trkpt>
      <trkpt lat="46.79247" lon="3.35446">
        <ele>201.19999694824</ele>
        <time>2022-06-25T08:15:08.000Z</time>
      </trkpt>
      <trkpt lat="46.79227" lon="3.35433">
        <ele>201.60000610352</ele>
        <time>2022-06-25T08:15:12.000Z</time>
      </trkpt>
      <trkpt lat="46.79219" lon="3.35428">
        <ele>202.39999389648</ele>
        <time>2022-06-25T08:15:14.000Z</time>
      </trkpt>
      <trkpt lat="46.7921" lon="3.35421">
        <ele>203.19999694824</ele>
        <time>2022-06-25T08:15:16.000Z</time>
      </trkpt>
      <trkpt lat="46.792" lon="3.35414">
        <ele>204</ele>
        <time>2022-06-25T08:15:18.000Z</time>
      </trkpt>
      <trkpt lat="46.79178" lon="3.35397">
        <ele>205.39999389648</ele>
        <time>2022-06-25T08:15:24.000Z</time>
      </trkpt>
      <trkpt lat="46.79174" lon="3.35395">
        <ele>205.60000610352</ele>
        <time>2022-06-25T08:15:25.000Z</time>
      </trkpt>
      <trkpt lat="46.7917" lon="3.35391">
        <ele>205.60000610352</ele>
        <time>2022-06-25T08:15:26.000Z</time>
      </trkpt>
      <trkpt lat="46.79161" lon="3.35381">
        <ele>205.80000305176</ele>
        <time>2022-06-25T08:15:29.000Z</time>
      </trkpt>
      <trkpt lat="46.79158" lon="3.35377">
        <ele>206</ele>
        <time>2022-06-25T08:15:30.000Z</time>
      </trkpt>
      <trkpt lat="46.79152" lon="3.3537">
        <ele>206.19999694824</ele>
        <time>2022-06-25T08:15:32.000Z</time>
      </trkpt>
      <trkpt lat="46.7914" lon="3.35353">
        <ele>207.39999389648</ele>
        <time>2022-06-25T08:15:37.000Z</time>
      </trkpt>
      <trkpt lat="46.79129" lon="3.35338">
        <ele>209</ele>
        <time>2022-06-25T08:15:41.000Z</time>
      </trkpt>
      <trkpt lat="46.7912" lon="3.35323">
        <ele>210.60000610352</ele>
        <time>2022-06-25T08:15:45.000Z</time>
      </trkpt>
      <trkpt lat="46.7911" lon="3.35308">
        <ele>212.60000610352</ele>
        <time>2022-06-25T08:15:49.000Z</time>
      </trkpt>
      <trkpt lat="46.79101" lon="3.35293">
        <ele>214.39999389648</ele>
        <time>2022-06-25T08:15:53.000Z</time>
      </trkpt>
      <trkpt lat="46.79091" lon="3.35279">
        <ele>215.60000610352</ele>
        <time>2022-06-25T08:15:57.000Z</time>
      </trkpt>
      <trkpt lat="46.79082" lon="3.35263">
        <ele>216.39999389648</ele>
        <time>2022-06-25T08:16:01.000Z</time>
      </trkpt>
      <trkpt lat="46.79071" lon="3.35248">
        <ele>217</ele>
        <time>2022-06-25T08:16:05.000Z</time>
      </trkpt>
      <trkpt lat="46.79062" lon="3.35235">
        <ele>217.39999389648</ele>
        <time>2022-06-25T08:16:08.000Z</time>
      </trkpt>
      <trkpt lat="46.7906" lon="3.35231">
        <ele>217.39999389648</ele>
        <time>2022-06-25T08:16:09.000Z</time>
      </trkpt>
      <trkpt lat="46.79051" lon="3.35218">
        <ele>217.60000610352</ele>
        <time>2022-06-25T08:16:12.000Z</time>
      </trkpt>
      <trkpt lat="46.79044" lon="3.35206">
        <ele>218.19999694824</ele>
        <time>2022-06-25T08:16:15.000Z</time>
      </trkpt>
      <trkpt lat="46.79037" lon="3.35194">
        <ele>218.80000305176</ele>
        <time>2022-06-25T08:16:18.000Z</time>
      </trkpt>
      <trkpt lat="46.79032" lon="3.35188">
        <ele>219</ele>
        <time>2022-06-25T08:16:20.000Z</time>
      </trkpt>
      <trkpt lat="46.79022" lon="3.35174">
        <ele>219</ele>
        <time>2022-06-25T08:16:24.000Z</time>
      </trkpt>
      <trkpt lat="46.79012" lon="3.35161">
        <ele>219.19999694824</ele>
        <time>2022-06-25T08:16:28.000Z</time>
      </trkpt>
      <trkpt lat="46.79009" lon="3.35158">
        <ele>219.39999389648</ele>
        <time>2022-06-25T08:16:29.000Z</time>
      </trkpt>
      <trkpt lat="46.79" lon="3.35147">
        <ele>220.39999389648</ele>
        <time>2022-06-25T08:16:32.000Z</time>
      </trkpt>
      <trkpt lat="46.78998" lon="3.35144">
        <ele>220.60000610352</ele>
        <time>2022-06-25T08:16:33.000Z</time>
      </trkpt>
      <trkpt lat="46.78991" lon="3.35138">
        <ele>221.39999389648</ele>
        <time>2022-06-25T08:16:35.000Z</time>
      </trkpt>
      <trkpt lat="46.78982" lon="3.3513">
        <ele>222.19999694824</ele>
        <time>2022-06-25T08:16:38.000Z</time>
      </trkpt>
      <trkpt lat="46.78961" lon="3.35115">
        <ele>224.19999694824</ele>
        <time>2022-06-25T08:16:44.000Z</time>
      </trkpt>
      <trkpt lat="46.78952" lon="3.35108">
        <ele>225</ele>
        <time>2022-06-25T08:16:47.000Z</time>
      </trkpt>
      <trkpt lat="46.78938" lon="3.35101">
        <ele>225.80000305176</ele>
        <time>2022-06-25T08:16:51.000Z</time>
      </trkpt>
      <trkpt lat="46.7893" lon="3.35096">
        <ele>226.19999694824</ele>
        <time>2022-06-25T08:16:53.000Z</time>
      </trkpt>
      <trkpt lat="46.78923" lon="3.35093">
        <ele>226.60000610352</ele>
        <time>2022-06-25T08:16:55.000Z</time>
      </trkpt>
      <trkpt lat="46.78901" lon="3.35079">
        <ele>227</ele>
        <time>2022-06-25T08:17:01.000Z</time>
      </trkpt>
      <trkpt lat="46.78893" lon="3.35073">
        <ele>227</ele>
        <time>2022-06-25T08:17:03.000Z</time>
      </trkpt>
      <trkpt lat="46.78877" lon="3.35057">
        <ele>227</ele>
        <time>2022-06-25T08:17:08.000Z</time>
      </trkpt>
      <trkpt lat="46.78871" lon="3.35049">
        <ele>227</ele>
        <time>2022-06-25T08:17:10.000Z</time>
      </trkpt>
      <trkpt lat="46.78851" lon="3.3502">
        <ele>227.60000610352</ele>
        <time>2022-06-25T08:17:16.000Z</time>
      </trkpt>
      <trkpt lat="46.78848" lon="3.35015">
        <ele>227.80000305176</ele>
        <time>2022-06-25T08:17:17.000Z</time>
      </trkpt>
      <trkpt lat="46.78845" lon="3.35011">
        <ele>227.80000305176</ele>
        <time>2022-06-25T08:17:18.000Z</time>
      </trkpt>
      <trkpt lat="46.78823" lon="3.3498">
        <ele>228.60000610352</ele>
        <time>2022-06-25T08:17:24.000Z</time>
      </trkpt>
      <trkpt lat="46.78813" lon="3.34966">
        <ele>229</ele>
        <time>2022-06-25T08:17:27.000Z</time>
      </trkpt>
      <trkpt lat="46.78791" lon="3.34934">
        <ele>229.80000305176</ele>
        <time>2022-06-25T08:17:33.000Z</time>
      </trkpt>
      <trkpt lat="46.78783" lon="3.34924">
        <ele>230</ele>
        <time>2022-06-25T08:17:35.000Z</time>
      </trkpt>
      <trkpt lat="46.78749" lon="3.34878">
        <ele>230</ele>
        <time>2022-06-25T08:17:44.000Z</time>
      </trkpt>
      <trkpt lat="46.78734" lon="3.34856">
        <ele>230</ele>
        <time>2022-06-25T08:17:48.000Z</time>
      </trkpt>
      <trkpt lat="46.7873" lon="3.34851">
        <ele>230</ele>
        <time>2022-06-25T08:17:49.000Z</time>
      </trkpt>
      <trkpt lat="46.7872" lon="3.34833">
        <ele>230.39999389648</ele>
        <time>2022-06-25T08:17:52.000Z</time>
      </trkpt>
      <trkpt lat="46.78714" lon="3.34819">
        <ele>230.60000610352</ele>
        <time>2022-06-25T08:17:54.000Z</time>
      </trkpt>
      <trkpt lat="46.78696" lon="3.34756">
        <ele>232.39999389648</ele>
        <time>2022-06-25T08:18:02.000Z</time>
      </trkpt>
      <trkpt lat="46.78692" lon="3.34723">
        <ele>234</ele>
        <time>2022-06-25T08:18:06.000Z</time>
      </trkpt>
      <trkpt lat="46.78691" lon="3.34708">
        <ele>234.80000305176</ele>
        <time>2022-06-25T08:18:08.000Z</time>
      </trkpt>
      <trkpt lat="46.78688" lon="3.34682">
        <ele>235.39999389648</ele>
        <time>2022-06-25T08:18:11.000Z</time>
      </trkpt>
      <trkpt lat="46.78684" lon="3.34653">
        <ele>235.60000610352</ele>
        <time>2022-06-25T08:18:15.000Z</time>
      </trkpt>
      <trkpt lat="46.7868" lon="3.34608">
        <ele>236.39999389648</ele>
        <time>2022-06-25T08:18:21.000Z</time>
      </trkpt>
      <trkpt lat="46.78679" lon="3.34596">
        <ele>236.80000305176</ele>
        <time>2022-06-25T08:18:23.000Z</time>
      </trkpt>
      <trkpt lat="46.78677" lon="3.3458">
        <ele>237.19999694824</ele>
        <time>2022-06-25T08:18:25.000Z</time>
      </trkpt>
      <trkpt lat="46.78676" lon="3.34554">
        <ele>238</ele>
        <time>2022-06-25T08:18:28.000Z</time>
      </trkpt>
      <trkpt lat="46.78673" lon="3.34532">
        <ele>237.80000305176</ele>
        <time>2022-06-25T08:18:31.000Z</time>
      </trkpt>
      <trkpt lat="46.78668" lon="3.34516">
        <ele>237.39999389648</ele>
        <time>2022-06-25T08:18:33.000Z</time>
      </trkpt>
      <trkpt lat="46.78666" lon="3.34508">
        <ele>236.80000305176</ele>
        <time>2022-06-25T08:18:34.000Z</time>
      </trkpt>
      <trkpt lat="46.78657" lon="3.34479">
        <ele>235.39999389648</ele>
        <time>2022-06-25T08:18:38.000Z</time>
      </trkpt>
      <trkpt lat="46.78653" lon="3.34459">
        <ele>235</ele>
        <time>2022-06-25T08:18:41.000Z</time>
      </trkpt>
      <trkpt lat="46.7864" lon="3.34428">
        <ele>235</ele>
        <time>2022-06-25T08:18:46.000Z</time>
      </trkpt>
      <trkpt lat="46.78629" lon="3.34405">
        <ele>235.19999694824</ele>
        <time>2022-06-25T08:18:50.000Z</time>
      </trkpt>
      <trkpt lat="46.78617" lon="3.34383">
        <ele>236.19999694824</ele>
        <time>2022-06-25T08:18:54.000Z</time>
      </trkpt>
      <trkpt lat="46.78611" lon="3.3437">
        <ele>236.80000305176</ele>
        <time>2022-06-25T08:18:56.000Z</time>
      </trkpt>
      <trkpt lat="46.78595" lon="3.34336">
        <ele>237.80000305176</ele>
        <time>2022-06-25T08:19:02.000Z</time>
      </trkpt>
      <trkpt lat="46.78578" lon="3.34304">
        <ele>238.39999389648</ele>
        <time>2022-06-25T08:19:08.000Z</time>
      </trkpt>
      <trkpt lat="46.78569" lon="3.34287">
        <ele>238.19999694824</ele>
        <time>2022-06-25T08:19:11.000Z</time>
      </trkpt>
      <trkpt lat="46.78564" lon="3.34277">
        <ele>238</ele>
        <time>2022-06-25T08:19:13.000Z</time>
      </trkpt>
      <trkpt lat="46.7855" lon="3.34248">
        <ele>238.39999389648</ele>
        <time>2022-06-25T08:19:18.000Z</time>
      </trkpt>
      <trkpt lat="46.78541" lon="3.34229">
        <ele>238.80000305176</ele>
        <time>2022-06-25T08:19:21.000Z</time>
      </trkpt>
      <trkpt lat="46.7852" lon="3.34189">
        <ele>241.19999694824</ele>
        <time>2022-06-25T08:19:28.000Z</time>
      </trkpt>
      <trkpt lat="46.78515" lon="3.34179">
        <ele>241.60000610352</ele>
        <time>2022-06-25T08:19:30.000Z</time>
      </trkpt>
      <trkpt lat="46.78504" lon="3.3416">
        <ele>242.19999694824</ele>
        <time>2022-06-25T08:19:33.000Z</time>
      </trkpt>
      <trkpt lat="46.78496" lon="3.34151">
        <ele>242.80000305176</ele>
        <time>2022-06-25T08:19:35.000Z</time>
      </trkpt>
      <trkpt lat="46.78469" lon="3.34135">
        <ele>244.80000305176</ele>
        <time>2022-06-25T08:19:41.000Z</time>
      </trkpt>
      <trkpt lat="46.78464" lon="3.34134">
        <ele>245.19999694824</ele>
        <time>2022-06-25T08:19:42.000Z</time>
      </trkpt>
      <trkpt lat="46.78459" lon="3.34132">
        <ele>245.60000610352</ele>
        <time>2022-06-25T08:19:43.000Z</time>
      </trkpt>
      <trkpt lat="46.7844" lon="3.34129">
        <ele>245.80000305176</ele>
        <time>2022-06-25T08:19:47.000Z</time>
      </trkpt>
      <trkpt lat="46.78431" lon="3.34128">
        <ele>245.80000305176</ele>
        <time>2022-06-25T08:19:49.000Z</time>
      </trkpt>
      <trkpt lat="46.78394" lon="3.34125">
        <ele>243.80000305176</ele>
        <time>2022-06-25T08:19:56.000Z</time>
      </trkpt>
      <trkpt lat="46.78338" lon="3.34121">
        <ele>242.60000610352</ele>
        <time>2022-06-25T08:20:06.000Z</time>
      </trkpt>
      <trkpt lat="46.78287" lon="3.34118">
        <ele>243</ele>
        <time>2022-06-25T08:20:15.000Z</time>
      </trkpt>
      <trkpt lat="46.78235" lon="3.34115">
        <ele>243.60000610352</ele>
        <time>2022-06-25T08:20:24.000Z</time>
      </trkpt>
      <trkpt lat="46.78213" lon="3.34109">
        <ele>244</ele>
        <time>2022-06-25T08:20:28.000Z</time>
      </trkpt>
      <trkpt lat="46.78203" lon="3.34104">
        <ele>244</ele>
        <time>2022-06-25T08:20:30.000Z</time>
      </trkpt>
      <trkpt lat="46.7817" lon="3.34078">
        <ele>244</ele>
        <time>2022-06-25T08:20:37.000Z</time>
      </trkpt>
      <trkpt lat="46.78136" lon="3.34046">
        <ele>245.19999694824</ele>
        <time>2022-06-25T08:20:45.000Z</time>
      </trkpt>
      <trkpt lat="46.78132" lon="3.34042">
        <ele>245.39999389648</ele>
        <time>2022-06-25T08:20:46.000Z</time>
      </trkpt>
      <trkpt lat="46.78098" lon="3.3401">
        <ele>246.39999389648</ele>
        <time>2022-06-25T08:20:54.000Z</time>
      </trkpt>
      <trkpt lat="46.78089" lon="3.34002">
        <ele>246.80000305176</ele>
        <time>2022-06-25T08:20:56.000Z</time>
      </trkpt>
      <trkpt lat="46.78046" lon="3.33964">
        <ele>247.60000610352</ele>
        <time>2022-06-25T08:21:06.000Z</time>
      </trkpt>
      <trkpt lat="46.78008" lon="3.33928">
        <ele>248</ele>
        <time>2022-06-25T08:21:15.000Z</time>
      </trkpt>
      <trkpt lat="46.78" lon="3.33921">
        <ele>248</ele>
        <time>2022-06-25T08:21:17.000Z</time>
      </trkpt>
      <trkpt lat="46.77978" lon="3.33902">
        <ele>248.39999389648</ele>
        <time>2022-06-25T08:21:22.000Z</time>
      </trkpt>
      <trkpt lat="46.77968" lon="3.33893">
        <ele>248.19999694824</ele>
        <time>2022-06-25T08:21:24.000Z</time>
      </trkpt>
      <trkpt lat="46.77942" lon="3.33868">
        <ele>248</ele>
        <time>2022-06-25T08:21:30.000Z</time>
      </trkpt>
      <trkpt lat="46.77914" lon="3.33842">
        <ele>248.60000610352</ele>
        <time>2022-06-25T08:21:36.000Z</time>
      </trkpt>
      <trkpt lat="46.77906" lon="3.33834">
        <ele>248.80000305176</ele>
        <time>2022-06-25T08:21:38.000Z</time>
      </trkpt>
      <trkpt lat="46.77873" lon="3.33806">
        <ele>249.80000305176</ele>
        <time>2022-06-25T08:21:45.000Z</time>
      </trkpt>
      <trkpt lat="46.77835" lon="3.33771">
        <ele>251</ele>
        <time>2022-06-25T08:21:53.000Z</time>
      </trkpt>
      <trkpt lat="46.7783" lon="3.33767">
        <ele>251</ele>
        <time>2022-06-25T08:21:54.000Z</time>
      </trkpt>
      <trkpt lat="46.77813" lon="3.33752">
        <ele>251</ele>
        <time>2022-06-25T08:21:58.000Z</time>
      </trkpt>
      <trkpt lat="46.77804" lon="3.33744">
        <ele>251.60000610352</ele>
        <time>2022-06-25T08:22:00.000Z</time>
      </trkpt>
      <trkpt lat="46.7779" lon="3.33733">
        <ele>252.19999694824</ele>
        <time>2022-06-25T08:22:03.000Z</time>
      </trkpt>
      <trkpt lat="46.77775" lon="3.33718">
        <ele>253.19999694824</ele>
        <time>2022-06-25T08:22:06.000Z</time>
      </trkpt>
      <trkpt lat="46.77748" lon="3.33693">
        <ele>254</ele>
        <time>2022-06-25T08:22:12.000Z</time>
      </trkpt>
      <trkpt lat="46.7771" lon="3.33658">
        <ele>255.19999694824</ele>
        <time>2022-06-25T08:22:20.000Z</time>
      </trkpt>
      <trkpt lat="46.7767" lon="3.3362">
        <ele>254.19999694824</ele>
        <time>2022-06-25T08:22:29.000Z</time>
      </trkpt>
      <trkpt lat="46.77665" lon="3.33616">
        <ele>254</ele>
        <time>2022-06-25T08:22:30.000Z</time>
      </trkpt>
      <trkpt lat="46.77639" lon="3.3359">
        <ele>253.19999694824</ele>
        <time>2022-06-25T08:22:36.000Z</time>
      </trkpt>
      <trkpt lat="46.77604" lon="3.33566">
        <ele>251</ele>
        <time>2022-06-25T08:22:43.000Z</time>
      </trkpt>
      <trkpt lat="46.77587" lon="3.33566">
        <ele>250.60000610352</ele>
        <time>2022-06-25T08:22:46.000Z</time>
      </trkpt>
      <trkpt lat="46.7758" lon="3.33569">
        <ele>250.60000610352</ele>
        <time>2022-06-25T08:22:47.000Z</time>
      </trkpt>
      <trkpt lat="46.77575" lon="3.33571">
        <ele>250.39999389648</ele>
        <time>2022-06-25T08:22:48.000Z</time>
      </trkpt>
      <trkpt lat="46.77566" lon="3.33578">
        <ele>250</ele>
        <time>2022-06-25T08:22:50.000Z</time>
      </trkpt>
      <trkpt lat="46.77556" lon="3.33587">
        <ele>250.19999694824</ele>
        <time>2022-06-25T08:22:52.000Z</time>
      </trkpt>
      <trkpt lat="46.77552" lon="3.33593">
        <ele>250.39999389648</ele>
        <time>2022-06-25T08:22:53.000Z</time>
      </trkpt>
      <trkpt lat="46.77537" lon="3.33621">
        <ele>249.39999389648</ele>
        <time>2022-06-25T08:22:57.000Z</time>
      </trkpt>
      <trkpt lat="46.77534" lon="3.33628">
        <ele>249.39999389648</ele>
        <time>2022-06-25T08:22:58.000Z</time>
      </trkpt>
      <trkpt lat="46.77515" lon="3.33669">
        <ele>248</ele>
        <time>2022-06-25T08:23:03.000Z</time>
      </trkpt>
      <trkpt lat="46.77496" lon="3.33713">
        <ele>247.60000610352</ele>
        <time>2022-06-25T08:23:08.000Z</time>
      </trkpt>
      <trkpt lat="46.77484" lon="3.3374">
        <ele>246.39999389648</ele>
        <time>2022-06-25T08:23:11.000Z</time>
      </trkpt>
      <trkpt lat="46.77473" lon="3.33765">
        <ele>245.80000305176</ele>
        <time>2022-06-25T08:23:14.000Z</time>
      </trkpt>
      <trkpt lat="46.77455" lon="3.33806">
        <ele>246.19999694824</ele>
        <time>2022-06-25T08:23:19.000Z</time>
      </trkpt>
      <trkpt lat="46.77451" lon="3.33814">
        <ele>246.39999389648</ele>
        <time>2022-06-25T08:23:20.000Z</time>
      </trkpt>
      <trkpt lat="46.77423" lon="3.33878">
        <ele>246.80000305176</ele>
        <time>2022-06-25T08:23:28.000Z</time>
      </trkpt>
      <trkpt lat="46.77413" lon="3.33901">
        <ele>246.19999694824</ele>
        <time>2022-06-25T08:23:31.000Z</time>
      </trkpt>
      <trkpt lat="46.7739" lon="3.33951">
        <ele>246.19999694824</ele>
        <time>2022-06-25T08:23:37.000Z</time>
      </trkpt>
      <trkpt lat="46.77358" lon="3.34007">
        <ele>246</ele>
        <time>2022-06-25T08:23:45.000Z</time>
      </trkpt>
      <trkpt lat="46.77324" lon="3.34045">
        <ele>244.19999694824</ele>
        <time>2022-06-25T08:23:52.000Z</time>
      </trkpt>
      <trkpt lat="46.77304" lon="3.34065">
        <ele>243.60000610352</ele>
        <time>2022-06-25T08:23:57.000Z</time>
      </trkpt>
      <trkpt lat="46.77299" lon="3.3407">
        <ele>243.60000610352</ele>
        <time>2022-06-25T08:23:59.000Z</time>
      </trkpt>
      <trkpt lat="46.77295" lon="3.34069">
        <ele>243.60000610352</ele>
        <time>2022-06-25T08:24:01.000Z</time>
      </trkpt>
      <trkpt lat="46.77294" lon="3.34067">
        <ele>243.60000610352</ele>
        <time>2022-06-25T08:24:02.000Z</time>
      </trkpt>
      <trkpt lat="46.77293" lon="3.34051">
        <ele>243.19999694824</ele>
        <time>2022-06-25T08:24:05.000Z</time>
      </trkpt>
      <trkpt lat="46.77294" lon="3.34044">
        <ele>243</ele>
        <time>2022-06-25T08:24:06.000Z</time>
      </trkpt>
      <trkpt lat="46.77294" lon="3.3403">
        <ele>242.60000610352</ele>
        <time>2022-06-25T08:24:08.000Z</time>
      </trkpt>
      <trkpt lat="46.77293" lon="3.34002">
        <ele>241.60000610352</ele>
        <time>2022-06-25T08:24:11.000Z</time>
      </trkpt>
      <trkpt lat="46.77292" lon="3.33985">
        <ele>241.80000305176</ele>
        <time>2022-06-25T08:24:13.000Z</time>
      </trkpt>
      <trkpt lat="46.7729" lon="3.33935">
        <ele>243.39999389648</ele>
        <time>2022-06-25T08:24:18.000Z</time>
      </trkpt>
      <trkpt lat="46.77285" lon="3.33862">
        <ele>244.19999694824</ele>
        <time>2022-06-25T08:24:25.000Z</time>
      </trkpt>
      <trkpt lat="46.77284" lon="3.33841">
        <ele>244</ele>
        <time>2022-06-25T08:24:27.000Z</time>
      </trkpt>
      <trkpt lat="46.77282" lon="3.33811">
        <ele>243.19999694824</ele>
        <time>2022-06-25T08:24:30.000Z</time>
      </trkpt>
      <trkpt lat="46.7728" lon="3.33749">
        <ele>241</ele>
        <time>2022-06-25T08:24:36.000Z</time>
      </trkpt>
      <trkpt lat="46.77275" lon="3.33697">
        <ele>242</ele>
        <time>2022-06-25T08:24:41.000Z</time>
      </trkpt>
      <trkpt lat="46.77273" lon="3.33676">
        <ele>242.60000610352</ele>
        <time>2022-06-25T08:24:43.000Z</time>
      </trkpt>
      <trkpt lat="46.77264" lon="3.33591">
        <ele>244.60000610352</ele>
        <time>2022-06-25T08:24:51.000Z</time>
      </trkpt>
      <trkpt lat="46.77262" lon="3.33573">
        <ele>244.80000305176</ele>
        <time>2022-06-25T08:24:53.000Z</time>
      </trkpt>
      <trkpt lat="46.77256" lon="3.33507">
        <ele>246.60000610352</ele>
        <time>2022-06-25T08:25:00.000Z</time>
      </trkpt>
      <trkpt lat="46.77255" lon="3.33481">
        <ele>248</ele>
        <time>2022-06-25T08:25:03.000Z</time>
      </trkpt>
      <trkpt lat="46.77252" lon="3.33448">
        <ele>250.39999389648</ele>
        <time>2022-06-25T08:25:07.000Z</time>
      </trkpt>
      <trkpt lat="46.77252" lon="3.33431">
        <ele>251.39999389648</ele>
        <time>2022-06-25T08:25:09.000Z</time>
      </trkpt>
      <trkpt lat="46.7725" lon="3.33404">
        <ele>252</ele>
        <time>2022-06-25T08:25:13.000Z</time>
      </trkpt>
      <trkpt lat="46.77248" lon="3.33389">
        <ele>252.39999389648</ele>
        <time>2022-06-25T08:25:15.000Z</time>
      </trkpt>
      <trkpt lat="46.77244" lon="3.3336">
        <ele>253</ele>
        <time>2022-06-25T08:25:19.000Z</time>
      </trkpt>
      <trkpt lat="46.77243" lon="3.33347">
        <ele>253.39999389648</ele>
        <time>2022-06-25T08:25:21.000Z</time>
      </trkpt>
      <trkpt lat="46.7724" lon="3.33308">
        <ele>254</ele>
        <time>2022-06-25T08:25:26.000Z</time>
      </trkpt>
      <trkpt lat="46.77238" lon="3.33291">
        <ele>254</ele>
        <time>2022-06-25T08:25:28.000Z</time>
      </trkpt>
      <trkpt lat="46.77233" lon="3.33249">
        <ele>254</ele>
        <time>2022-06-25T08:25:33.000Z</time>
      </trkpt>
      <trkpt lat="46.7723" lon="3.33215">
        <ele>253</ele>
        <time>2022-06-25T08:25:37.000Z</time>
      </trkpt>
      <trkpt lat="46.77229" lon="3.33207">
        <ele>253</ele>
        <time>2022-06-25T08:25:38.000Z</time>
      </trkpt>
      <trkpt lat="46.77225" lon="3.33165">
        <ele>252</ele>
        <time>2022-06-25T08:25:43.000Z</time>
      </trkpt>
      <trkpt lat="46.77225" lon="3.33151">
        <ele>252</ele>
        <time>2022-06-25T08:25:45.000Z</time>
      </trkpt>
      <trkpt lat="46.7722" lon="3.33114">
        <ele>252.39999389648</ele>
        <time>2022-06-25T08:25:49.000Z</time>
      </trkpt>
      <trkpt lat="46.77212" lon="3.33038">
        <ele>253.19999694824</ele>
        <time>2022-06-25T08:25:58.000Z</time>
      </trkpt>
      <trkpt lat="46.7721" lon="3.33012">
        <ele>253.19999694824</ele>
        <time>2022-06-25T08:26:01.000Z</time>
      </trkpt>
      <trkpt lat="46.77204" lon="3.32966">
        <ele>253</ele>
        <time>2022-06-25T08:26:07.000Z</time>
      </trkpt>
      <trkpt lat="46.77196" lon="3.3289">
        <ele>251.19999694824</ele>
        <time>2022-06-25T08:26:16.000Z</time>
      </trkpt>
      <trkpt lat="46.77188" lon="3.32813">
        <ele>248.39999389648</ele>
        <time>2022-06-25T08:26:25.000Z</time>
      </trkpt>
      <trkpt lat="46.77182" lon="3.3275">
        <ele>247.19999694824</ele>
        <time>2022-06-25T08:26:32.000Z</time>
      </trkpt>
      <trkpt lat="46.7718" lon="3.32731">
        <ele>247.19999694824</ele>
        <time>2022-06-25T08:26:34.000Z</time>
      </trkpt>
      <trkpt lat="46.77179" lon="3.32715">
        <ele>247.19999694824</ele>
        <time>2022-06-25T08:26:36.000Z</time>
      </trkpt>
      <trkpt lat="46.77178" lon="3.32694">
        <ele>247.60000610352</ele>
        <time>2022-06-25T08:26:38.000Z</time>
      </trkpt>
      <trkpt lat="46.77175" lon="3.32669">
        <ele>247</ele>
        <time>2022-06-25T08:26:41.000Z</time>
      </trkpt>
      <trkpt lat="46.77172" lon="3.3264">
        <ele>246.80000305176</ele>
        <time>2022-06-25T08:26:44.000Z</time>
      </trkpt>
      <trkpt lat="46.77168" lon="3.326">
        <ele>246</ele>
        <time>2022-06-25T08:26:48.000Z</time>
      </trkpt>
      <trkpt lat="46.77165" lon="3.32569">
        <ele>244.80000305176</ele>
        <time>2022-06-25T08:26:51.000Z</time>
      </trkpt>
      <trkpt lat="46.7716" lon="3.32526">
        <ele>241.80000305176</ele>
        <time>2022-06-25T08:26:55.000Z</time>
      </trkpt>
      <trkpt lat="46.77155" lon="3.32486">
        <ele>237</ele>
        <time>2022-06-25T08:26:59.000Z</time>
      </trkpt>
      <trkpt lat="46.77154" lon="3.32474">
        <ele>235.39999389648</ele>
        <time>2022-06-25T08:27:00.000Z</time>
      </trkpt>
      <trkpt lat="46.77149" lon="3.32424">
        <ele>233</ele>
        <time>2022-06-25T08:27:05.000Z</time>
      </trkpt>
      <trkpt lat="46.77146" lon="3.32394">
        <ele>233.60000610352</ele>
        <time>2022-06-25T08:27:08.000Z</time>
      </trkpt>
      <trkpt lat="46.77143" lon="3.32365">
        <ele>234.80000305176</ele>
        <time>2022-06-25T08:27:11.000Z</time>
      </trkpt>
      <trkpt lat="46.77139" lon="3.3232">
        <ele>236</ele>
        <time>2022-06-25T08:27:16.000Z</time>
      </trkpt>
      <trkpt lat="46.77134" lon="3.32269">
        <ele>237</ele>
        <time>2022-06-25T08:27:23.000Z</time>
      </trkpt>
      <trkpt lat="46.7713" lon="3.32229">
        <ele>236.80000305176</ele>
        <time>2022-06-25T08:27:28.000Z</time>
      </trkpt>
      <trkpt lat="46.77128" lon="3.32208">
        <ele>236.60000610352</ele>
        <time>2022-06-25T08:27:31.000Z</time>
      </trkpt>
      <trkpt lat="46.77122" lon="3.32154">
        <ele>236.60000610352</ele>
        <time>2022-06-25T08:27:38.000Z</time>
      </trkpt>
      <trkpt lat="46.7712" lon="3.32139">
        <ele>237</ele>
        <time>2022-06-25T08:27:40.000Z</time>
      </trkpt>
      <trkpt lat="46.77115" lon="3.32086">
        <ele>238.60000610352</ele>
        <time>2022-06-25T08:27:47.000Z</time>
      </trkpt>
      <trkpt lat="46.77111" lon="3.32049">
        <ele>241</ele>
        <time>2022-06-25T08:27:52.000Z</time>
      </trkpt>
      <trkpt lat="46.7711" lon="3.3204">
        <ele>241.80000305176</ele>
        <time>2022-06-25T08:27:53.000Z</time>
      </trkpt>
      <trkpt lat="46.77108" lon="3.32018">
        <ele>243.19999694824</ele>
        <time>2022-06-25T08:27:56.000Z</time>
      </trkpt>
      <trkpt lat="46.77103" lon="3.31967">
        <ele>245.39999389648</ele>
        <time>2022-06-25T08:28:03.000Z</time>
      </trkpt>
      <trkpt lat="46.77102" lon="3.31959">
        <ele>245.39999389648</ele>
        <time>2022-06-25T08:28:04.000Z</time>
      </trkpt>
      <trkpt lat="46.77101" lon="3.31943">
        <ele>245.39999389648</ele>
        <time>2022-06-25T08:28:06.000Z</time>
      </trkpt>
      <trkpt lat="46.77098" lon="3.31907">
        <ele>245</ele>
        <time>2022-06-25T08:28:11.000Z</time>
      </trkpt>
      <trkpt lat="46.77094" lon="3.31865">
        <ele>246.39999389648</ele>
        <time>2022-06-25T08:28:17.000Z</time>
      </trkpt>
      <trkpt lat="46.77093" lon="3.31849">
        <ele>247.19999694824</ele>
        <time>2022-06-25T08:28:19.000Z</time>
      </trkpt>
      <trkpt lat="46.7709" lon="3.31814">
        <ele>248.60000610352</ele>
        <time>2022-06-25T08:28:24.000Z</time>
      </trkpt>
      <trkpt lat="46.77087" lon="3.31787">
        <ele>249.80000305176</ele>
        <time>2022-06-25T08:28:28.000Z</time>
      </trkpt>
      <trkpt lat="46.77083" lon="3.31757">
        <ele>250.80000305176</ele>
        <time>2022-06-25T08:28:32.000Z</time>
      </trkpt>
      <trkpt lat="46.77077" lon="3.317">
        <ele>250</ele>
        <time>2022-06-25T08:28:39.000Z</time>
      </trkpt>
      <trkpt lat="46.77075" lon="3.31677">
        <ele>249</ele>
        <time>2022-06-25T08:28:42.000Z</time>
      </trkpt>
      <trkpt lat="46.7707" lon="3.31626">
        <ele>248.80000305176</ele>
        <time>2022-06-25T08:28:48.000Z</time>
      </trkpt>
      <trkpt lat="46.77069" lon="3.316">
        <ele>249.19999694824</ele>
        <time>2022-06-25T08:28:52.000Z</time>
      </trkpt>
      <trkpt lat="46.77069" lon="3.31587">
        <ele>249.19999694824</ele>
        <time>2022-06-25T08:28:54.000Z</time>
      </trkpt>
      <trkpt lat="46.77069" lon="3.31564">
        <ele>250.39999389648</ele>
        <time>2022-06-25T08:29:00.000Z</time>
      </trkpt>
      <trkpt lat="46.77069" lon="3.31555">
        <ele>251.19999694824</ele>
        <time>2022-06-25T08:29:04.000Z</time>
      </trkpt>
      <trkpt lat="46.7707" lon="3.31542">
        <ele>251.80000305176</ele>
        <time>2022-06-25T08:29:07.000Z</time>
      </trkpt>
      <trkpt lat="46.77073" lon="3.3152">
        <ele>252.80000305176</ele>
        <time>2022-06-25T08:29:11.000Z</time>
      </trkpt>
      <trkpt lat="46.77073" lon="3.31514">
        <ele>253</ele>
        <time>2022-06-25T08:29:12.000Z</time>
      </trkpt>
      <trkpt lat="46.77075" lon="3.31489">
        <ele>253.39999389648</ele>
        <time>2022-06-25T08:29:16.000Z</time>
      </trkpt>
      <trkpt lat="46.77076" lon="3.31474">
        <ele>253.60000610352</ele>
        <time>2022-06-25T08:29:18.000Z</time>
      </trkpt>
      <trkpt lat="46.77082" lon="3.3142">
        <ele>253.60000610352</ele>
        <time>2022-06-25T08:29:25.000Z</time>
      </trkpt>
      <trkpt lat="46.77083" lon="3.31414">
        <ele>253.39999389648</ele>
        <time>2022-06-25T08:29:26.000Z</time>
      </trkpt>
      <trkpt lat="46.77092" lon="3.31356">
        <ele>253</ele>
        <time>2022-06-25T08:29:34.000Z</time>
      </trkpt>
      <trkpt lat="46.77096" lon="3.31336">
        <ele>252.39999389648</ele>
        <time>2022-06-25T08:29:37.000Z</time>
      </trkpt>
      <trkpt lat="46.77098" lon="3.3132">
        <ele>252.19999694824</ele>
        <time>2022-06-25T08:29:39.000Z</time>
      </trkpt>
      <trkpt lat="46.77099" lon="3.31312">
        <ele>252.39999389648</ele>
        <time>2022-06-25T08:29:40.000Z</time>
      </trkpt>
      <trkpt lat="46.77101" lon="3.31306">
        <ele>252.39999389648</ele>
        <time>2022-06-25T08:29:41.000Z</time>
      </trkpt>
      <trkpt lat="46.77107" lon="3.31264">
        <ele>252.60000610352</ele>
        <time>2022-06-25T08:29:46.000Z</time>
      </trkpt>
      <trkpt lat="46.77118" lon="3.31186">
        <ele>254</ele>
        <time>2022-06-25T08:29:55.000Z</time>
      </trkpt>
      <trkpt lat="46.7712" lon="3.31177">
        <ele>254</ele>
        <time>2022-06-25T08:29:56.000Z</time>
      </trkpt>
      <trkpt lat="46.77129" lon="3.31114">
        <ele>254.39999389648</ele>
        <time>2022-06-25T08:30:04.000Z</time>
      </trkpt>
      <trkpt lat="46.77137" lon="3.31062">
        <ele>256</ele>
        <time>2022-06-25T08:30:10.000Z</time>
      </trkpt>
      <trkpt lat="46.77143" lon="3.31028">
        <ele>256</ele>
        <time>2022-06-25T08:30:14.000Z</time>
      </trkpt>
      <trkpt lat="46.77154" lon="3.30954">
        <ele>254</ele>
        <time>2022-06-25T08:30:22.000Z</time>
      </trkpt>
      <trkpt lat="46.77167" lon="3.30872">
        <ele>254.80000305176</ele>
        <time>2022-06-25T08:30:31.000Z</time>
      </trkpt>
      <trkpt lat="46.7717" lon="3.30853">
        <ele>254.80000305176</ele>
        <time>2022-06-25T08:30:33.000Z</time>
      </trkpt>
      <trkpt lat="46.77183" lon="3.30774">
        <ele>258</ele>
        <time>2022-06-25T08:30:42.000Z</time>
      </trkpt>
      <trkpt lat="46.77186" lon="3.30753">
        <ele>257.39999389648</ele>
        <time>2022-06-25T08:30:44.000Z</time>
      </trkpt>
      <trkpt lat="46.77194" lon="3.30703">
        <ele>255.19999694824</ele>
        <time>2022-06-25T08:30:49.000Z</time>
      </trkpt>
      <trkpt lat="46.77195" lon="3.30695">
        <ele>254.80000305176</ele>
        <time>2022-06-25T08:30:50.000Z</time>
      </trkpt>
      <trkpt lat="46.77199" lon="3.30671">
        <ele>253.60000610352</ele>
        <time>2022-06-25T08:30:52.000Z</time>
      </trkpt>
      <trkpt lat="46.77201" lon="3.30659">
        <ele>253</ele>
        <time>2022-06-25T08:30:53.000Z</time>
      </trkpt>
      <trkpt lat="46.7721" lon="3.30601">
        <ele>251.60000610352</ele>
        <time>2022-06-25T08:30:58.000Z</time>
      </trkpt>
      <trkpt lat="46.77213" lon="3.30581">
        <ele>251</ele>
        <time>2022-06-25T08:31:00.000Z</time>
      </trkpt>
      <trkpt lat="46.7722" lon="3.30533">
        <ele>253</ele>
        <time>2022-06-25T08:31:05.000Z</time>
      </trkpt>
      <trkpt lat="46.77229" lon="3.30475">
        <ele>254.80000305176</ele>
        <time>2022-06-25T08:31:12.000Z</time>
      </trkpt>
      <trkpt lat="46.77234" lon="3.30445">
        <ele>255.80000305176</ele>
        <time>2022-06-25T08:31:16.000Z</time>
      </trkpt>
      <trkpt lat="46.77241" lon="3.30403">
        <ele>258.39999389648</ele>
        <time>2022-06-25T08:31:22.000Z</time>
      </trkpt>
      <trkpt lat="46.77243" lon="3.30396">
        <ele>258.60000610352</ele>
        <time>2022-06-25T08:31:23.000Z</time>
      </trkpt>
      <trkpt lat="46.7725" lon="3.30353">
        <ele>259.20001220703</ele>
        <time>2022-06-25T08:31:29.000Z</time>
      </trkpt>
      <trkpt lat="46.77251" lon="3.30346">
        <ele>259.20001220703</ele>
        <time>2022-06-25T08:31:30.000Z</time>
      </trkpt>
      <trkpt lat="46.77252" lon="3.30339">
        <ele>259.20001220703</ele>
        <time>2022-06-25T08:31:31.000Z</time>
      </trkpt>
      <trkpt lat="46.77259" lon="3.30298">
        <ele>260</ele>
        <time>2022-06-25T08:31:37.000Z</time>
      </trkpt>
      <trkpt lat="46.77261" lon="3.30289">
        <ele>260.39999389648</ele>
        <time>2022-06-25T08:31:38.000Z</time>
      </trkpt>
      <trkpt lat="46.77265" lon="3.3026">
        <ele>261</ele>
        <time>2022-06-25T08:31:42.000Z</time>
      </trkpt>
      <trkpt lat="46.77271" lon="3.30227">
        <ele>262.20001220703</ele>
        <time>2022-06-25T08:31:47.000Z</time>
      </trkpt>
      <trkpt lat="46.77272" lon="3.3022">
        <ele>262.39999389648</ele>
        <time>2022-06-25T08:31:48.000Z</time>
      </trkpt>
      <trkpt lat="46.77277" lon="3.30192">
        <ele>263.60000610352</ele>
        <time>2022-06-25T08:31:52.000Z</time>
      </trkpt>
      <trkpt lat="46.77281" lon="3.30158">
        <ele>266</ele>
        <time>2022-06-25T08:31:57.000Z</time>
      </trkpt>
      <trkpt lat="46.77283" lon="3.30146">
        <ele>266.60000610352</ele>
        <time>2022-06-25T08:31:59.000Z</time>
      </trkpt>
      <trkpt lat="46.77287" lon="3.30115">
        <ele>267</ele>
        <time>2022-06-25T08:32:03.000Z</time>
      </trkpt>
      <trkpt lat="46.77293" lon="3.30082">
        <ele>266.79998779297</ele>
        <time>2022-06-25T08:32:08.000Z</time>
      </trkpt>
      <trkpt lat="46.77294" lon="3.30075">
        <ele>266.60000610352</ele>
        <time>2022-06-25T08:32:09.000Z</time>
      </trkpt>
      <trkpt lat="46.77301" lon="3.30024">
        <ele>265.60000610352</ele>
        <time>2022-06-25T08:32:16.000Z</time>
      </trkpt>
      <trkpt lat="46.77303" lon="3.3001">
        <ele>266</ele>
        <time>2022-06-25T08:32:18.000Z</time>
      </trkpt>
      <trkpt lat="46.77308" lon="3.29987">
        <ele>267</ele>
        <time>2022-06-25T08:32:21.000Z</time>
      </trkpt>
      <trkpt lat="46.77316" lon="3.29935">
        <ele>269.20001220703</ele>
        <time>2022-06-25T08:32:28.000Z</time>
      </trkpt>
      <trkpt lat="46.77317" lon="3.29927">
        <ele>269.20001220703</ele>
        <time>2022-06-25T08:32:29.000Z</time>
      </trkpt>
      <trkpt lat="46.77326" lon="3.29885">
        <ele>268.79998779297</ele>
        <time>2022-06-25T08:32:34.000Z</time>
      </trkpt>
      <trkpt lat="46.77336" lon="3.29822">
        <ele>268.20001220703</ele>
        <time>2022-06-25T08:32:41.000Z</time>
      </trkpt>
      <trkpt lat="46.77349" lon="3.29742">
        <ele>270</ele>
        <time>2022-06-25T08:32:49.000Z</time>
      </trkpt>
      <trkpt lat="46.7736" lon="3.2968">
        <ele>272.39999389648</ele>
        <time>2022-06-25T08:32:55.000Z</time>
      </trkpt>
      <trkpt lat="46.77363" lon="3.29669">
        <ele>272.20001220703</ele>
        <time>2022-06-25T08:32:56.000Z</time>
      </trkpt>
      <trkpt lat="46.77367" lon="3.29641">
        <ele>271.39999389648</ele>
        <time>2022-06-25T08:32:59.000Z</time>
      </trkpt>
      <trkpt lat="46.77374" lon="3.29597">
        <ele>268.20001220703</ele>
        <time>2022-06-25T08:33:03.000Z</time>
      </trkpt>
      <trkpt lat="46.77387" lon="3.29518">
        <ele>265.79998779297</ele>
        <time>2022-06-25T08:33:10.000Z</time>
      </trkpt>
      <trkpt lat="46.77389" lon="3.29509">
        <ele>265.79998779297</ele>
        <time>2022-06-25T08:33:11.000Z</time>
      </trkpt>
      <trkpt lat="46.77391" lon="3.29495">
        <ele>265.60000610352</ele>
        <time>2022-06-25T08:33:12.000Z</time>
      </trkpt>
      <trkpt lat="46.77401" lon="3.29415">
        <ele>265.20001220703</ele>
        <time>2022-06-25T08:33:19.000Z</time>
      </trkpt>
      <trkpt lat="46.77403" lon="3.294">
        <ele>265.39999389648</ele>
        <time>2022-06-25T08:33:20.000Z</time>
      </trkpt>
      <trkpt lat="46.77405" lon="3.2938">
        <ele>266</ele>
        <time>2022-06-25T08:33:22.000Z</time>
      </trkpt>
      <trkpt lat="46.77412" lon="3.29332">
        <ele>266.60000610352</ele>
        <time>2022-06-25T08:33:26.000Z</time>
      </trkpt>
      <trkpt lat="46.77417" lon="3.29299">
        <ele>267</ele>
        <time>2022-06-25T08:33:29.000Z</time>
      </trkpt>
      <trkpt lat="46.77427" lon="3.29234">
        <ele>266.79998779297</ele>
        <time>2022-06-25T08:33:35.000Z</time>
      </trkpt>
      <trkpt lat="46.77441" lon="3.29151">
        <ele>265.39999389648</ele>
        <time>2022-06-25T08:33:43.000Z</time>
      </trkpt>
      <trkpt lat="46.77443" lon="3.2914">
        <ele>265.39999389648</ele>
        <time>2022-06-25T08:33:44.000Z</time>
      </trkpt>
      <trkpt lat="46.77444" lon="3.29132">
        <ele>265.20001220703</ele>
        <time>2022-06-25T08:33:45.000Z</time>
      </trkpt>
      <trkpt lat="46.77457" lon="3.29056">
        <ele>264.20001220703</ele>
        <time>2022-06-25T08:33:52.000Z</time>
      </trkpt>
      <trkpt lat="46.7747" lon="3.28975">
        <ele>262</ele>
        <time>2022-06-25T08:34:00.000Z</time>
      </trkpt>
      <trkpt lat="46.77472" lon="3.28963">
        <ele>262</ele>
        <time>2022-06-25T08:34:01.000Z</time>
      </trkpt>
      <trkpt lat="46.77476" lon="3.28942">
        <ele>262.39999389648</ele>
        <time>2022-06-25T08:34:03.000Z</time>
      </trkpt>
      <trkpt lat="46.77488" lon="3.28869">
        <ele>263.20001220703</ele>
        <time>2022-06-25T08:34:10.000Z</time>
      </trkpt>
      <trkpt lat="46.77501" lon="3.28786">
        <ele>263</ele>
        <time>2022-06-25T08:34:18.000Z</time>
      </trkpt>
      <trkpt lat="46.77508" lon="3.28734">
        <ele>262.39999389648</ele>
        <time>2022-06-25T08:34:23.000Z</time>
      </trkpt>
      <trkpt lat="46.77514" lon="3.28702">
        <ele>263.60000610352</ele>
        <time>2022-06-25T08:34:26.000Z</time>
      </trkpt>
      <trkpt lat="46.77527" lon="3.28625">
        <ele>264</ele>
        <time>2022-06-25T08:34:34.000Z</time>
      </trkpt>
      <trkpt lat="46.77539" lon="3.28547">
        <ele>266</ele>
        <time>2022-06-25T08:34:42.000Z</time>
      </trkpt>
      <trkpt lat="46.77547" lon="3.28496">
        <ele>265.60000610352</ele>
        <time>2022-06-25T08:34:47.000Z</time>
      </trkpt>
      <trkpt lat="46.77549" lon="3.28486">
        <ele>265</ele>
        <time>2022-06-25T08:34:48.000Z</time>
      </trkpt>
      <trkpt lat="46.77553" lon="3.28456">
        <ele>261.60000610352</ele>
        <time>2022-06-25T08:34:51.000Z</time>
      </trkpt>
      <trkpt lat="46.77556" lon="3.28433">
        <ele>258.20001220703</ele>
        <time>2022-06-25T08:34:53.000Z</time>
      </trkpt>
      <trkpt lat="46.77567" lon="3.28362">
        <ele>251.19999694824</ele>
        <time>2022-06-25T08:35:00.000Z</time>
      </trkpt>
      <trkpt lat="46.77573" lon="3.28319">
        <ele>251</ele>
        <time>2022-06-25T08:35:04.000Z</time>
      </trkpt>
      <trkpt lat="46.77583" lon="3.28255">
        <ele>252.19999694824</ele>
        <time>2022-06-25T08:35:10.000Z</time>
      </trkpt>
      <trkpt lat="46.77587" lon="3.28227">
        <ele>252</ele>
        <time>2022-06-25T08:35:13.000Z</time>
      </trkpt>
      <trkpt lat="46.77595" lon="3.2818">
        <ele>251.80000305176</ele>
        <time>2022-06-25T08:35:18.000Z</time>
      </trkpt>
      <trkpt lat="46.77605" lon="3.28115">
        <ele>252.19999694824</ele>
        <time>2022-06-25T08:35:25.000Z</time>
      </trkpt>
      <trkpt lat="46.77607" lon="3.28106">
        <ele>252.39999389648</ele>
        <time>2022-06-25T08:35:26.000Z</time>
      </trkpt>
      <trkpt lat="46.77615" lon="3.28095">
        <ele>252.19999694824</ele>
        <time>2022-06-25T08:35:28.000Z</time>
      </trkpt>
      <trkpt lat="46.77649" lon="3.28068">
        <ele>249.60000610352</ele>
        <time>2022-06-25T08:35:34.000Z</time>
      </trkpt>
      <trkpt lat="46.77657" lon="3.28062">
        <ele>250</ele>
        <time>2022-06-25T08:35:35.000Z</time>
      </trkpt>
      <trkpt lat="46.7769" lon="3.28045">
        <ele>248.80000305176</ele>
        <time>2022-06-25T08:35:40.000Z</time>
      </trkpt>
      <trkpt lat="46.77713" lon="3.28034">
        <ele>247.19999694824</ele>
        <time>2022-06-25T08:35:43.000Z</time>
      </trkpt>
      <trkpt lat="46.77736" lon="3.28024">
        <ele>244.80000305176</ele>
        <time>2022-06-25T08:35:46.000Z</time>
      </trkpt>
      <trkpt lat="46.77746" lon="3.28019">
        <ele>244.39999389648</ele>
        <time>2022-06-25T08:35:47.000Z</time>
      </trkpt>
      <trkpt lat="46.77785" lon="3.27999">
        <ele>244</ele>
        <time>2022-06-25T08:35:52.000Z</time>
      </trkpt>
      <trkpt lat="46.77802" lon="3.27991">
        <ele>243.39999389648</ele>
        <time>2022-06-25T08:35:54.000Z</time>
      </trkpt>
      <trkpt lat="46.77817" lon="3.27985">
        <ele>243</ele>
        <time>2022-06-25T08:35:56.000Z</time>
      </trkpt>
      <trkpt lat="46.7785" lon="3.27969">
        <ele>241.39999389648</ele>
        <time>2022-06-25T08:36:00.000Z</time>
      </trkpt>
      <trkpt lat="46.77858" lon="3.27964">
        <ele>240.80000305176</ele>
        <time>2022-06-25T08:36:01.000Z</time>
      </trkpt>
      <trkpt lat="46.77883" lon="3.27952">
        <ele>239</ele>
        <time>2022-06-25T08:36:04.000Z</time>
      </trkpt>
      <trkpt lat="46.77908" lon="3.2794">
        <ele>239</ele>
        <time>2022-06-25T08:36:07.000Z</time>
      </trkpt>
      <trkpt lat="46.77915" lon="3.27937">
        <ele>239</ele>
        <time>2022-06-25T08:36:08.000Z</time>
      </trkpt>
      <trkpt lat="46.77952" lon="3.2792">
        <ele>239</ele>
        <time>2022-06-25T08:36:13.000Z</time>
      </trkpt>
      <trkpt lat="46.7796" lon="3.27916">
        <ele>239.19999694824</ele>
        <time>2022-06-25T08:36:14.000Z</time>
      </trkpt>
      <trkpt lat="46.78005" lon="3.27894">
        <ele>240.39999389648</ele>
        <time>2022-06-25T08:36:20.000Z</time>
      </trkpt>
      <trkpt lat="46.78043" lon="3.27876">
        <ele>242.39999389648</ele>
        <time>2022-06-25T08:36:26.000Z</time>
      </trkpt>
      <trkpt lat="46.78079" lon="3.2786">
        <ele>244.39999389648</ele>
        <time>2022-06-25T08:36:33.000Z</time>
      </trkpt>
      <trkpt lat="46.78104" lon="3.27848">
        <ele>246</ele>
        <time>2022-06-25T08:36:38.000Z</time>
      </trkpt>
      <trkpt lat="46.78115" lon="3.27843">
        <ele>246.80000305176</ele>
        <time>2022-06-25T08:36:40.000Z</time>
      </trkpt>
      <trkpt lat="46.78125" lon="3.27838">
        <ele>247.39999389648</ele>
        <time>2022-06-25T08:36:42.000Z</time>
      </trkpt>
      <trkpt lat="46.78151" lon="3.27825">
        <ele>249.39999389648</ele>
        <time>2022-06-25T08:36:47.000Z</time>
      </trkpt>
      <trkpt lat="46.78161" lon="3.2782">
        <ele>250.19999694824</ele>
        <time>2022-06-25T08:36:49.000Z</time>
      </trkpt>
      <trkpt lat="46.78178" lon="3.27812">
        <ele>252.19999694824</ele>
        <time>2022-06-25T08:36:52.000Z</time>
      </trkpt>
      <trkpt lat="46.78207" lon="3.27795">
        <ele>256.39999389648</ele>
        <time>2022-06-25T08:36:58.000Z</time>
      </trkpt>
      <trkpt lat="46.78215" lon="3.27789">
        <ele>257</ele>
        <time>2022-06-25T08:37:00.000Z</time>
      </trkpt>
      <trkpt lat="46.78236" lon="3.27777">
        <ele>257.20001220703</ele>
        <time>2022-06-25T08:37:04.000Z</time>
      </trkpt>
      <trkpt lat="46.78279" lon="3.27755">
        <ele>255.60000610352</ele>
        <time>2022-06-25T08:37:12.000Z</time>
      </trkpt>
      <trkpt lat="46.78323" lon="3.27736">
        <ele>257.39999389648</ele>
        <time>2022-06-25T08:37:20.000Z</time>
      </trkpt>
      <trkpt lat="46.78339" lon="3.27728">
        <ele>257.39999389648</ele>
        <time>2022-06-25T08:37:23.000Z</time>
      </trkpt>
      <trkpt lat="46.78354" lon="3.27719">
        <ele>257.20001220703</ele>
        <time>2022-06-25T08:37:26.000Z</time>
      </trkpt>
      <trkpt lat="46.78366" lon="3.27714">
        <ele>257</ele>
        <time>2022-06-25T08:37:28.000Z</time>
      </trkpt>
      <trkpt lat="46.78407" lon="3.27697">
        <ele>258</ele>
        <time>2022-06-25T08:37:35.000Z</time>
      </trkpt>
      <trkpt lat="46.78416" lon="3.27693">
        <ele>258.60000610352</ele>
        <time>2022-06-25T08:37:37.000Z</time>
      </trkpt>
      <trkpt lat="46.78444" lon="3.2768">
        <ele>258.60000610352</ele>
        <time>2022-06-25T08:37:43.000Z</time>
      </trkpt>
      <trkpt lat="46.78454" lon="3.27674">
        <ele>258.60000610352</ele>
        <time>2022-06-25T08:37:45.000Z</time>
      </trkpt>
      <trkpt lat="46.78484" lon="3.27659">
        <ele>258.20001220703</ele>
        <time>2022-06-25T08:37:51.000Z</time>
      </trkpt>
      <trkpt lat="46.78494" lon="3.27655">
        <ele>258.60000610352</ele>
        <time>2022-06-25T08:37:53.000Z</time>
      </trkpt>
      <trkpt lat="46.78522" lon="3.2764">
        <ele>259.79998779297</ele>
        <time>2022-06-25T08:37:58.000Z</time>
      </trkpt>
      <trkpt lat="46.78563" lon="3.27623">
        <ele>258.60000610352</ele>
        <time>2022-06-25T08:38:05.000Z</time>
      </trkpt>
      <trkpt lat="46.78608" lon="3.27603">
        <ele>257</ele>
        <time>2022-06-25T08:38:12.000Z</time>
      </trkpt>
      <trkpt lat="46.78653" lon="3.27584">
        <ele>257.39999389648</ele>
        <time>2022-06-25T08:38:19.000Z</time>
      </trkpt>
      <trkpt lat="46.7869" lon="3.27565">
        <ele>260.60000610352</ele>
        <time>2022-06-25T08:38:25.000Z</time>
      </trkpt>
      <trkpt lat="46.78703" lon="3.27558">
        <ele>262</ele>
        <time>2022-06-25T08:38:27.000Z</time>
      </trkpt>
      <trkpt lat="46.78727" lon="3.27546">
        <ele>260</ele>
        <time>2022-06-25T08:38:31.000Z</time>
      </trkpt>
      <trkpt lat="46.78772" lon="3.27524">
        <ele>255.60000610352</ele>
        <time>2022-06-25T08:38:38.000Z</time>
      </trkpt>
      <trkpt lat="46.78799" lon="3.27512">
        <ele>254.60000610352</ele>
        <time>2022-06-25T08:38:42.000Z</time>
      </trkpt>
      <trkpt lat="46.78826" lon="3.27499">
        <ele>253.19999694824</ele>
        <time>2022-06-25T08:38:46.000Z</time>
      </trkpt>
      <trkpt lat="46.78871" lon="3.27478">
        <ele>254</ele>
        <time>2022-06-25T08:38:53.000Z</time>
      </trkpt>
      <trkpt lat="46.78891" lon="3.27467">
        <ele>254</ele>
        <time>2022-06-25T08:38:56.000Z</time>
      </trkpt>
      <trkpt lat="46.78948" lon="3.27441">
        <ele>254.19999694824</ele>
        <time>2022-06-25T08:39:05.000Z</time>
      </trkpt>
      <trkpt lat="46.78955" lon="3.27439">
        <ele>254.19999694824</ele>
        <time>2022-06-25T08:39:06.000Z</time>
      </trkpt>
      <trkpt lat="46.78967" lon="3.27434">
        <ele>255.19999694824</ele>
        <time>2022-06-25T08:39:08.000Z</time>
      </trkpt>
      <trkpt lat="46.78986" lon="3.27424">
        <ele>256.79998779297</ele>
        <time>2022-06-25T08:39:11.000Z</time>
      </trkpt>
      <trkpt lat="46.79023" lon="3.27407">
        <ele>257.60000610352</ele>
        <time>2022-06-25T08:39:18.000Z</time>
      </trkpt>
      <trkpt lat="46.79032" lon="3.27404">
        <ele>257.20001220703</ele>
        <time>2022-06-25T08:39:22.000Z</time>
      </trkpt>
      <trkpt lat="46.79033" lon="3.27404">
        <ele>257.20001220703</ele>
        <time>2022-06-25T08:39:26.000Z</time>
      </trkpt>
      <trkpt lat="46.79034" lon="3.27403">
        <ele>257.20001220703</ele>
        <time>2022-06-25T08:39:34.000Z</time>
      </trkpt>
      <trkpt lat="46.79034" lon="3.27403">
        <ele>257.20001220703</ele>
        <time>2022-06-25T08:39:36.000Z</time>
      </trkpt>
      <trkpt lat="46.79034" lon="3.27403">
        <ele>257.20001220703</ele>
        <time>2022-06-25T08:44:25.000Z</time>
      </trkpt>
      <trkpt lat="46.79039" lon="3.27398">
        <ele>256.79998779297</ele>
        <time>2022-06-25T08:44:28.000Z</time>
      </trkpt>
      <trkpt lat="46.79041" lon="3.27397">
        <ele>256.79998779297</ele>
        <time>2022-06-25T08:44:29.000Z</time>
      </trkpt>
      <trkpt lat="46.79046" lon="3.27396">
        <ele>256.60000610352</ele>
        <time>2022-06-25T08:44:32.000Z</time>
      </trkpt>
      <trkpt lat="46.79056" lon="3.27391">
        <ele>256.79998779297</ele>
        <time>2022-06-25T08:44:35.000Z</time>
      </trkpt>
      <trkpt lat="46.79065" lon="3.27385">
        <ele>256.79998779297</ele>
        <time>2022-06-25T08:44:37.000Z</time>
      </trkpt>
      <trkpt lat="46.79094" lon="3.27368">
        <ele>256.79998779297</ele>
        <time>2022-06-25T08:44:43.000Z</time>
      </trkpt>
      <trkpt lat="46.79129" lon="3.27353">
        <ele>255.60000610352</ele>
        <time>2022-06-25T08:44:48.000Z</time>
      </trkpt>
      <trkpt lat="46.79163" lon="3.27336">
        <ele>253.60000610352</ele>
        <time>2022-06-25T08:44:53.000Z</time>
      </trkpt>
      <trkpt lat="46.79186" lon="3.27325">
        <ele>252</ele>
        <time>2022-06-25T08:44:56.000Z</time>
      </trkpt>
      <trkpt lat="46.7921" lon="3.27314">
        <ele>251</ele>
        <time>2022-06-25T08:44:59.000Z</time>
      </trkpt>
      <trkpt lat="46.79263" lon="3.27291">
        <ele>250.80000305176</ele>
        <time>2022-06-25T08:45:06.000Z</time>
      </trkpt>
      <trkpt lat="46.7927" lon="3.27288">
        <ele>250.60000610352</ele>
        <time>2022-06-25T08:45:07.000Z</time>
      </trkpt>
      <trkpt lat="46.79314" lon="3.27269">
        <ele>249.80000305176</ele>
        <time>2022-06-25T08:45:13.000Z</time>
      </trkpt>
      <trkpt lat="46.79333" lon="3.2726">
        <ele>249.19999694824</ele>
        <time>2022-06-25T08:45:16.000Z</time>
      </trkpt>
      <trkpt lat="46.79354" lon="3.27251">
        <ele>248.80000305176</ele>
        <time>2022-06-25T08:45:20.000Z</time>
      </trkpt>
      <trkpt lat="46.79377" lon="3.27238">
        <ele>247.80000305176</ele>
        <time>2022-06-25T08:45:23.000Z</time>
      </trkpt>
      <trkpt lat="46.79391" lon="3.2723">
        <ele>247.39999389648</ele>
        <time>2022-06-25T08:45:25.000Z</time>
      </trkpt>
      <trkpt lat="46.79406" lon="3.27223">
        <ele>247</ele>
        <time>2022-06-25T08:45:27.000Z</time>
      </trkpt>
      <trkpt lat="46.7942" lon="3.27216">
        <ele>246.19999694824</ele>
        <time>2022-06-25T08:45:29.000Z</time>
      </trkpt>
      <trkpt lat="46.79437" lon="3.27208">
        <ele>245.80000305176</ele>
        <time>2022-06-25T08:45:31.000Z</time>
      </trkpt>
      <trkpt lat="46.79458" lon="3.27196">
        <ele>244.39999389648</ele>
        <time>2022-06-25T08:45:34.000Z</time>
      </trkpt>
      <trkpt lat="46.79463" lon="3.27193">
        <ele>244.19999694824</ele>
        <time>2022-06-25T08:45:35.000Z</time>
      </trkpt>
      <trkpt lat="46.79475" lon="3.27187">
        <ele>244</ele>
        <time>2022-06-25T08:45:37.000Z</time>
      </trkpt>
      <trkpt lat="46.7948" lon="3.27186">
        <ele>243.80000305176</ele>
        <time>2022-06-25T08:45:38.000Z</time>
      </trkpt>
      <trkpt lat="46.79485" lon="3.27184">
        <ele>243.80000305176</ele>
        <time>2022-06-25T08:45:39.000Z</time>
      </trkpt>
      <trkpt lat="46.79492" lon="3.27179">
        <ele>243.80000305176</ele>
        <time>2022-06-25T08:45:40.000Z</time>
      </trkpt>
      <trkpt lat="46.79505" lon="3.27172">
        <ele>243.80000305176</ele>
        <time>2022-06-25T08:45:42.000Z</time>
      </trkpt>
      <trkpt lat="46.79529" lon="3.27163">
        <ele>244</ele>
        <time>2022-06-25T08:45:45.000Z</time>
      </trkpt>
      <trkpt lat="46.79544" lon="3.27157">
        <ele>244.19999694824</ele>
        <time>2022-06-25T08:45:47.000Z</time>
      </trkpt>
      <trkpt lat="46.79577" lon="3.27143">
        <ele>244.39999389648</ele>
        <time>2022-06-25T08:45:52.000Z</time>
      </trkpt>
      <trkpt lat="46.79594" lon="3.27136">
        <ele>244</ele>
        <time>2022-06-25T08:45:54.000Z</time>
      </trkpt>
      <trkpt lat="46.79621" lon="3.27125">
        <ele>242.60000610352</ele>
        <time>2022-06-25T08:45:58.000Z</time>
      </trkpt>
      <trkpt lat="46.7963" lon="3.27119">
        <ele>242.39999389648</ele>
        <time>2022-06-25T08:45:59.000Z</time>
      </trkpt>
      <trkpt lat="46.7966" lon="3.27105">
        <ele>242.39999389648</ele>
        <time>2022-06-25T08:46:03.000Z</time>
      </trkpt>
      <trkpt lat="46.79694" lon="3.27087">
        <ele>241.39999389648</ele>
        <time>2022-06-25T08:46:08.000Z</time>
      </trkpt>
      <trkpt lat="46.79714" lon="3.27078">
        <ele>240.39999389648</ele>
        <time>2022-06-25T08:46:11.000Z</time>
      </trkpt>
      <trkpt lat="46.79764" lon="3.27052">
        <ele>238.19999694824</ele>
        <time>2022-06-25T08:46:18.000Z</time>
      </trkpt>
      <trkpt lat="46.79821" lon="3.27024">
        <ele>238.39999389648</ele>
        <time>2022-06-25T08:46:26.000Z</time>
      </trkpt>
      <trkpt lat="46.79855" lon="3.27006">
        <ele>237.39999389648</ele>
        <time>2022-06-25T08:46:31.000Z</time>
      </trkpt>
      <trkpt lat="46.79864" lon="3.27002">
        <ele>237.39999389648</ele>
        <time>2022-06-25T08:46:32.000Z</time>
      </trkpt>
      <trkpt lat="46.79878" lon="3.26995">
        <ele>237.19999694824</ele>
        <time>2022-06-25T08:46:34.000Z</time>
      </trkpt>
      <trkpt lat="46.79933" lon="3.26969">
        <ele>236.60000610352</ele>
        <time>2022-06-25T08:46:42.000Z</time>
      </trkpt>
      <trkpt lat="46.79939" lon="3.26967">
        <ele>236.60000610352</ele>
        <time>2022-06-25T08:46:43.000Z</time>
      </trkpt>
      <trkpt lat="46.79983" lon="3.26947">
        <ele>239.39999389648</ele>
        <time>2022-06-25T08:46:50.000Z</time>
      </trkpt>
      <trkpt lat="46.8002" lon="3.26928">
        <ele>240.60000610352</ele>
        <time>2022-06-25T08:46:57.000Z</time>
      </trkpt>
      <trkpt lat="46.80025" lon="3.26926">
        <ele>240.60000610352</ele>
        <time>2022-06-25T08:46:58.000Z</time>
      </trkpt>
      <trkpt lat="46.80044" lon="3.26916">
        <ele>240.19999694824</ele>
        <time>2022-06-25T08:47:02.000Z</time>
      </trkpt>
      <trkpt lat="46.80078" lon="3.269">
        <ele>241.60000610352</ele>
        <time>2022-06-25T08:47:08.000Z</time>
      </trkpt>
      <trkpt lat="46.80109" lon="3.26882">
        <ele>242</ele>
        <time>2022-06-25T08:47:13.000Z</time>
      </trkpt>
      <trkpt lat="46.80144" lon="3.26866">
        <ele>239.19999694824</ele>
        <time>2022-06-25T08:47:18.000Z</time>
      </trkpt>
      <trkpt lat="46.80175" lon="3.26852">
        <ele>236</ele>
        <time>2022-06-25T08:47:22.000Z</time>
      </trkpt>
      <trkpt lat="46.80184" lon="3.26848">
        <ele>235.39999389648</ele>
        <time>2022-06-25T08:47:23.000Z</time>
      </trkpt>
      <trkpt lat="46.80219" lon="3.26834">
        <ele>233.60000610352</ele>
        <time>2022-06-25T08:47:27.000Z</time>
      </trkpt>
      <trkpt lat="46.80234" lon="3.26827">
        <ele>233.19999694824</ele>
        <time>2022-06-25T08:47:29.000Z</time>
      </trkpt>
      <trkpt lat="46.80265" lon="3.26812">
        <ele>234.19999694824</ele>
        <time>2022-06-25T08:47:33.000Z</time>
      </trkpt>
      <trkpt lat="46.80279" lon="3.26806">
        <ele>234.80000305176</ele>
        <time>2022-06-25T08:47:35.000Z</time>
      </trkpt>
      <trkpt lat="46.80319" lon="3.26788">
        <ele>235.39999389648</ele>
        <time>2022-06-25T08:47:41.000Z</time>
      </trkpt>
      <trkpt lat="46.80332" lon="3.26781">
        <ele>234.39999389648</ele>
        <time>2022-06-25T08:47:43.000Z</time>
      </trkpt>
      <trkpt lat="46.80374" lon="3.26762">
        <ele>230.60000610352</ele>
        <time>2022-06-25T08:47:49.000Z</time>
      </trkpt>
      <trkpt lat="46.80417" lon="3.26744">
        <ele>225.80000305176</ele>
        <time>2022-06-25T08:47:55.000Z</time>
      </trkpt>
      <trkpt lat="46.80434" lon="3.26737">
        <ele>224.19999694824</ele>
        <time>2022-06-25T08:47:57.000Z</time>
      </trkpt>
      <trkpt lat="46.80455" lon="3.26725">
        <ele>223</ele>
        <time>2022-06-25T08:48:00.000Z</time>
      </trkpt>
      <trkpt lat="46.80463" lon="3.26721">
        <ele>222.60000610352</ele>
        <time>2022-06-25T08:48:01.000Z</time>
      </trkpt>
      <trkpt lat="46.80485" lon="3.26709">
        <ele>222</ele>
        <time>2022-06-25T08:48:04.000Z</time>
      </trkpt>
      <trkpt lat="46.80516" lon="3.26694">
        <ele>222.80000305176</ele>
        <time>2022-06-25T08:48:08.000Z</time>
      </trkpt>
      <trkpt lat="46.80531" lon="3.26686">
        <ele>224</ele>
        <time>2022-06-25T08:48:10.000Z</time>
      </trkpt>
      <trkpt lat="46.80538" lon="3.26681">
        <ele>224.80000305176</ele>
        <time>2022-06-25T08:48:11.000Z</time>
      </trkpt>
      <trkpt lat="46.8056" lon="3.2667">
        <ele>226.80000305176</ele>
        <time>2022-06-25T08:48:14.000Z</time>
      </trkpt>
      <trkpt lat="46.80592" lon="3.26654">
        <ele>225.80000305176</ele>
        <time>2022-06-25T08:48:18.000Z</time>
      </trkpt>
      <trkpt lat="46.806" lon="3.26651">
        <ele>225</ele>
        <time>2022-06-25T08:48:19.000Z</time>
      </trkpt>
      <trkpt lat="46.80638" lon="3.26632">
        <ele>223.39999389648</ele>
        <time>2022-06-25T08:48:24.000Z</time>
      </trkpt>
      <trkpt lat="46.80666" lon="3.26619">
        <ele>222.80000305176</ele>
        <time>2022-06-25T08:48:28.000Z</time>
      </trkpt>
      <trkpt lat="46.80702" lon="3.266">
        <ele>222.39999389648</ele>
        <time>2022-06-25T08:48:33.000Z</time>
      </trkpt>
      <trkpt lat="46.80748" lon="3.26578">
        <ele>223</ele>
        <time>2022-06-25T08:48:40.000Z</time>
      </trkpt>
      <trkpt lat="46.80792" lon="3.26559">
        <ele>224.39999389648</ele>
        <time>2022-06-25T08:48:47.000Z</time>
      </trkpt>
      <trkpt lat="46.80829" lon="3.26543">
        <ele>222.60000610352</ele>
        <time>2022-06-25T08:48:53.000Z</time>
      </trkpt>
      <trkpt lat="46.80874" lon="3.26524">
        <ele>224</ele>
        <time>2022-06-25T08:49:00.000Z</time>
      </trkpt>
      <trkpt lat="46.809" lon="3.26511">
        <ele>225.19999694824</ele>
        <time>2022-06-25T08:49:04.000Z</time>
      </trkpt>
      <trkpt lat="46.80913" lon="3.26504">
        <ele>225</ele>
        <time>2022-06-25T08:49:06.000Z</time>
      </trkpt>
      <trkpt lat="46.80963" lon="3.2648">
        <ele>222.39999389648</ele>
        <time>2022-06-25T08:49:14.000Z</time>
      </trkpt>
      <trkpt lat="46.80977" lon="3.26475">
        <ele>221.60000610352</ele>
        <time>2022-06-25T08:49:16.000Z</time>
      </trkpt>
      <trkpt lat="46.81002" lon="3.2646">
        <ele>220.19999694824</ele>
        <time>2022-06-25T08:49:20.000Z</time>
      </trkpt>
      <trkpt lat="46.81037" lon="3.26444">
        <ele>218.60000610352</ele>
        <time>2022-06-25T08:49:26.000Z</time>
      </trkpt>
      <trkpt lat="46.81089" lon="3.26416">
        <ele>213.39999389648</ele>
        <time>2022-06-25T08:49:35.000Z</time>
      </trkpt>
      <trkpt lat="46.81095" lon="3.26412">
        <ele>212.80000305176</ele>
        <time>2022-06-25T08:49:36.000Z</time>
      </trkpt>
      <trkpt lat="46.81107" lon="3.26402">
        <ele>212.39999389648</ele>
        <time>2022-06-25T08:49:38.000Z</time>
      </trkpt>
      <trkpt lat="46.8113" lon="3.26377">
        <ele>211.80000305176</ele>
        <time>2022-06-25T08:49:42.000Z</time>
      </trkpt>
      <trkpt lat="46.81145" lon="3.26355">
        <ele>212</ele>
        <time>2022-06-25T08:49:45.000Z</time>
      </trkpt>
      <trkpt lat="46.81149" lon="3.26348">
        <ele>212.39999389648</ele>
        <time>2022-06-25T08:49:46.000Z</time>
      </trkpt>
      <trkpt lat="46.81159" lon="3.26329">
        <ele>212.80000305176</ele>
        <time>2022-06-25T08:49:48.000Z</time>
      </trkpt>
      <trkpt lat="46.81186" lon="3.26258">
        <ele>212</ele>
        <time>2022-06-25T08:49:55.000Z</time>
      </trkpt>
      <trkpt lat="46.81199" lon="3.26216">
        <ele>210.39999389648</ele>
        <time>2022-06-25T08:49:59.000Z</time>
      </trkpt>
      <trkpt lat="46.81217" lon="3.26161">
        <ele>208.60000610352</ele>
        <time>2022-06-25T08:50:04.000Z</time>
      </trkpt>
      <trkpt lat="46.81235" lon="3.26105">
        <ele>206.80000305176</ele>
        <time>2022-06-25T08:50:09.000Z</time>
      </trkpt>
      <trkpt lat="46.81249" lon="3.26061">
        <ele>205.80000305176</ele>
        <time>2022-06-25T08:50:13.000Z</time>
      </trkpt>
      <trkpt lat="46.81252" lon="3.2605">
        <ele>205.39999389648</ele>
        <time>2022-06-25T08:50:14.000Z</time>
      </trkpt>
      <trkpt lat="46.81268" lon="3.25997">
        <ele>204.19999694824</ele>
        <time>2022-06-25T08:50:19.000Z</time>
      </trkpt>
      <trkpt lat="46.81278" lon="3.25966">
        <ele>203.60000610352</ele>
        <time>2022-06-25T08:50:22.000Z</time>
      </trkpt>
      <trkpt lat="46.81291" lon="3.25925">
        <ele>202.60000610352</ele>
        <time>2022-06-25T08:50:26.000Z</time>
      </trkpt>
      <trkpt lat="46.81307" lon="3.25872">
        <ele>201.39999389648</ele>
        <time>2022-06-25T08:50:31.000Z</time>
      </trkpt>
      <trkpt lat="46.8131" lon="3.25864">
        <ele>201.60000610352</ele>
        <time>2022-06-25T08:50:32.000Z</time>
      </trkpt>
      <trkpt lat="46.81331" lon="3.25795">
        <ele>200.60000610352</ele>
        <time>2022-06-25T08:50:39.000Z</time>
      </trkpt>
      <trkpt lat="46.81354" lon="3.25726">
        <ele>199.19999694824</ele>
        <time>2022-06-25T08:50:47.000Z</time>
      </trkpt>
      <trkpt lat="46.81365" lon="3.25673">
        <ele>199.19999694824</ele>
        <time>2022-06-25T08:50:53.000Z</time>
      </trkpt>
      <trkpt lat="46.81365" lon="3.25664">
        <ele>199.80000305176</ele>
        <time>2022-06-25T08:50:54.000Z</time>
      </trkpt>
      <trkpt lat="46.81362" lon="3.25628">
        <ele>202</ele>
        <time>2022-06-25T08:50:58.000Z</time>
      </trkpt>
      <trkpt lat="46.81357" lon="3.25604">
        <ele>203</ele>
        <time>2022-06-25T08:51:01.000Z</time>
      </trkpt>
      <trkpt lat="46.81348" lon="3.25581">
        <ele>203</ele>
        <time>2022-06-25T08:51:04.000Z</time>
      </trkpt>
      <trkpt lat="46.81318" lon="3.25518">
        <ele>203.39999389648</ele>
        <time>2022-06-25T08:51:13.000Z</time>
      </trkpt>
      <trkpt lat="46.81287" lon="3.25448">
        <ele>203.60000610352</ele>
        <time>2022-06-25T08:51:23.000Z</time>
      </trkpt>
      <trkpt lat="46.8127" lon="3.25414">
        <ele>203.60000610352</ele>
        <time>2022-06-25T08:51:28.000Z</time>
      </trkpt>
      <trkpt lat="46.81256" lon="3.25384">
        <ele>203</ele>
        <time>2022-06-25T08:51:32.000Z</time>
      </trkpt>
      <trkpt lat="46.81229" lon="3.25328">
        <ele>204</ele>
        <time>2022-06-25T08:51:40.000Z</time>
      </trkpt>
      <trkpt lat="46.81221" lon="3.25307">
        <ele>204.60000610352</ele>
        <time>2022-06-25T08:51:43.000Z</time>
      </trkpt>
      <trkpt lat="46.81214" lon="3.25292">
        <ele>205</ele>
        <time>2022-06-25T08:51:45.000Z</time>
      </trkpt>
      <trkpt lat="46.81196" lon="3.25237">
        <ele>205.19999694824</ele>
        <time>2022-06-25T08:51:52.000Z</time>
      </trkpt>
      <trkpt lat="46.81186" lon="3.25194">
        <ele>205.60000610352</ele>
        <time>2022-06-25T08:51:57.000Z</time>
      </trkpt>
      <trkpt lat="46.81183" lon="3.25177">
        <ele>205.60000610352</ele>
        <time>2022-06-25T08:51:59.000Z</time>
      </trkpt>
      <trkpt lat="46.81181" lon="3.2515">
        <ele>205.60000610352</ele>
        <time>2022-06-25T08:52:02.000Z</time>
      </trkpt>
      <trkpt lat="46.81181" lon="3.25119">
        <ele>205.60000610352</ele>
        <time>2022-06-25T08:52:06.000Z</time>
      </trkpt>
      <trkpt lat="46.81188" lon="3.25063">
        <ele>206.39999389648</ele>
        <time>2022-06-25T08:52:13.000Z</time>
      </trkpt>
      <trkpt lat="46.81198" lon="3.25024">
        <ele>207.60000610352</ele>
        <time>2022-06-25T08:52:18.000Z</time>
      </trkpt>
      <trkpt lat="46.81205" lon="3.25004">
        <ele>208</ele>
        <time>2022-06-25T08:52:21.000Z</time>
      </trkpt>
      <trkpt lat="46.81224" lon="3.24967">
        <ele>207</ele>
        <time>2022-06-25T08:52:27.000Z</time>
      </trkpt>
      <trkpt lat="46.81231" lon="3.24956">
        <ele>206.60000610352</ele>
        <time>2022-06-25T08:52:29.000Z</time>
      </trkpt>
      <trkpt lat="46.81259" lon="3.2492">
        <ele>205.39999389648</ele>
        <time>2022-06-25T08:52:36.000Z</time>
      </trkpt>
      <trkpt lat="46.81301" lon="3.24886">
        <ele>204.60000610352</ele>
        <time>2022-06-25T08:52:44.000Z</time>
      </trkpt>
      <trkpt lat="46.81352" lon="3.24854">
        <ele>206</ele>
        <time>2022-06-25T08:52:53.000Z</time>
      </trkpt>
      <trkpt lat="46.81404" lon="3.24823">
        <ele>205.19999694824</ele>
        <time>2022-06-25T08:53:02.000Z</time>
      </trkpt>
      <trkpt lat="46.8141" lon="3.24819">
        <ele>205.39999389648</ele>
        <time>2022-06-25T08:53:03.000Z</time>
      </trkpt>
      <trkpt lat="46.8146" lon="3.24789">
        <ele>207.19999694824</ele>
        <time>2022-06-25T08:53:12.000Z</time>
      </trkpt>
      <trkpt lat="46.81469" lon="3.24784">
        <ele>207.60000610352</ele>
        <time>2022-06-25T08:53:14.000Z</time>
      </trkpt>
      <trkpt lat="46.81482" lon="3.24776">
        <ele>208.19999694824</ele>
        <time>2022-06-25T08:53:17.000Z</time>
      </trkpt>
      <trkpt lat="46.81496" lon="3.24768">
        <ele>209.60000610352</ele>
        <time>2022-06-25T08:53:20.000Z</time>
      </trkpt>
      <trkpt lat="46.81508" lon="3.24761">
        <ele>211</ele>
        <time>2022-06-25T08:53:23.000Z</time>
      </trkpt>
      <trkpt lat="46.8152" lon="3.24755">
        <ele>213.39999389648</ele>
        <time>2022-06-25T08:53:26.000Z</time>
      </trkpt>
      <trkpt lat="46.81524" lon="3.24752">
        <ele>214</ele>
        <time>2022-06-25T08:53:27.000Z</time>
      </trkpt>
      <trkpt lat="46.81532" lon="3.24748">
        <ele>214.60000610352</ele>
        <time>2022-06-25T08:53:29.000Z</time>
      </trkpt>
      <trkpt lat="46.81544" lon="3.2474">
        <ele>216.60000610352</ele>
        <time>2022-06-25T08:53:32.000Z</time>
      </trkpt>
      <trkpt lat="46.81557" lon="3.24733">
        <ele>219.39999389648</ele>
        <time>2022-06-25T08:53:35.000Z</time>
      </trkpt>
      <trkpt lat="46.81575" lon="3.24719">
        <ele>222.60000610352</ele>
        <time>2022-06-25T08:53:40.000Z</time>
      </trkpt>
      <trkpt lat="46.81578" lon="3.24717">
        <ele>223</ele>
        <time>2022-06-25T08:53:41.000Z</time>
      </trkpt>
      <trkpt lat="46.81589" lon="3.24709">
        <ele>224.60000610352</ele>
        <time>2022-06-25T08:53:44.000Z</time>
      </trkpt>
      <trkpt lat="46.81601" lon="3.24701">
        <ele>225.60000610352</ele>
        <time>2022-06-25T08:53:47.000Z</time>
      </trkpt>
      <trkpt lat="46.81609" lon="3.24696">
        <ele>226</ele>
        <time>2022-06-25T08:53:49.000Z</time>
      </trkpt>
      <trkpt lat="46.81624" lon="3.24687">
        <ele>226.19999694824</ele>
        <time>2022-06-25T08:53:53.000Z</time>
      </trkpt>
      <trkpt lat="46.81633" lon="3.24683">
        <ele>226.39999389648</ele>
        <time>2022-06-25T08:53:55.000Z</time>
      </trkpt>
      <trkpt lat="46.81652" lon="3.24676">
        <ele>227.60000610352</ele>
        <time>2022-06-25T08:53:59.000Z</time>
      </trkpt>
      <trkpt lat="46.81658" lon="3.24673">
        <ele>228</ele>
        <time>2022-06-25T08:54:00.000Z</time>
      </trkpt>
      <trkpt lat="46.81678" lon="3.24659">
        <ele>230.19999694824</ele>
        <time>2022-06-25T08:54:04.000Z</time>
      </trkpt>
      <trkpt lat="46.81689" lon="3.24653">
        <ele>230.39999389648</ele>
        <time>2022-06-25T08:54:06.000Z</time>
      </trkpt>
      <trkpt lat="46.81698" lon="3.24648">
        <ele>231.19999694824</ele>
        <time>2022-06-25T08:54:08.000Z</time>
      </trkpt>
      <trkpt lat="46.81702" lon="3.24646">
        <ele>232</ele>
        <time>2022-06-25T08:54:09.000Z</time>
      </trkpt>
      <trkpt lat="46.81723" lon="3.24639">
        <ele>232</ele>
        <time>2022-06-25T08:54:12.000Z</time>
      </trkpt>
      <trkpt lat="46.81727" lon="3.24637">
        <ele>232</ele>
        <time>2022-06-25T08:54:13.000Z</time>
      </trkpt>
      <trkpt lat="46.81731" lon="3.24636">
        <ele>231.80000305176</ele>
        <time>2022-06-25T08:54:14.000Z</time>
      </trkpt>
      <trkpt lat="46.81741" lon="3.24634">
        <ele>231.19999694824</ele>
        <time>2022-06-25T08:54:16.000Z</time>
      </trkpt>
      <trkpt lat="46.81745" lon="3.24631">
        <ele>231</ele>
        <time>2022-06-25T08:54:17.000Z</time>
      </trkpt>
      <trkpt lat="46.81755" lon="3.24629">
        <ele>230.39999389648</ele>
        <time>2022-06-25T08:54:19.000Z</time>
      </trkpt>
      <trkpt lat="46.81777" lon="3.24632">
        <ele>228.80000305176</ele>
        <time>2022-06-25T08:54:23.000Z</time>
      </trkpt>
      <trkpt lat="46.81817" lon="3.24637">
        <ele>226</ele>
        <time>2022-06-25T08:54:31.000Z</time>
      </trkpt>
      <trkpt lat="46.81859" lon="3.24645">
        <ele>225</ele>
        <time>2022-06-25T08:54:39.000Z</time>
      </trkpt>
      <trkpt lat="46.81912" lon="3.24652">
        <ele>225</ele>
        <time>2022-06-25T08:54:48.000Z</time>
      </trkpt>
      <trkpt lat="46.8197" lon="3.24654">
        <ele>223.39999389648</ele>
        <time>2022-06-25T08:54:58.000Z</time>
      </trkpt>
      <trkpt lat="46.81975" lon="3.24654">
        <ele>223.19999694824</ele>
        <time>2022-06-25T08:54:59.000Z</time>
      </trkpt>
      <trkpt lat="46.82031" lon="3.24654">
        <ele>225.60000610352</ele>
        <time>2022-06-25T08:55:09.000Z</time>
      </trkpt>
      <trkpt lat="46.82064" lon="3.24657">
        <ele>228</ele>
        <time>2022-06-25T08:55:15.000Z</time>
      </trkpt>
      <trkpt lat="46.82079" lon="3.24663">
        <ele>228.19999694824</ele>
        <time>2022-06-25T08:55:18.000Z</time>
      </trkpt>
      <trkpt lat="46.82096" lon="3.24669">
        <ele>228.19999694824</ele>
        <time>2022-06-25T08:55:21.000Z</time>
      </trkpt>
      <trkpt lat="46.82101" lon="3.2467">
        <ele>228</ele>
        <time>2022-06-25T08:55:22.000Z</time>
      </trkpt>
      <trkpt lat="46.82131" lon="3.24676">
        <ele>228</ele>
        <time>2022-06-25T08:55:27.000Z</time>
      </trkpt>
      <trkpt lat="46.82187" lon="3.24689">
        <ele>226.60000610352</ele>
        <time>2022-06-25T08:55:36.000Z</time>
      </trkpt>
      <trkpt lat="46.822" lon="3.24692">
        <ele>226.19999694824</ele>
        <time>2022-06-25T08:55:38.000Z</time>
      </trkpt>
      <trkpt lat="46.82246" lon="3.24703">
        <ele>225</ele>
        <time>2022-06-25T08:55:45.000Z</time>
      </trkpt>
      <trkpt lat="46.82253" lon="3.24704">
        <ele>224.60000610352</ele>
        <time>2022-06-25T08:55:46.000Z</time>
      </trkpt>
      <trkpt lat="46.8229" lon="3.2471">
        <ele>221.80000305176</ele>
        <time>2022-06-25T08:55:52.000Z</time>
      </trkpt>
      <trkpt lat="46.82305" lon="3.2471">
        <ele>221.39999389648</ele>
        <time>2022-06-25T08:55:54.000Z</time>
      </trkpt>
      <trkpt lat="46.82359" lon="3.24708">
        <ele>221.80000305176</ele>
        <time>2022-06-25T08:56:03.000Z</time>
      </trkpt>
      <trkpt lat="46.82376" lon="3.24707">
        <ele>221.80000305176</ele>
        <time>2022-06-25T08:56:06.000Z</time>
      </trkpt>
      <trkpt lat="46.82423" lon="3.24705">
        <ele>222.60000610352</ele>
        <time>2022-06-25T08:56:14.000Z</time>
      </trkpt>
      <trkpt lat="46.82465" lon="3.24705">
        <ele>224.39999389648</ele>
        <time>2022-06-25T08:56:21.000Z</time>
      </trkpt>
      <trkpt lat="46.8252" lon="3.24702">
        <ele>224</ele>
        <time>2022-06-25T08:56:30.000Z</time>
      </trkpt>
      <trkpt lat="46.82532" lon="3.24702">
        <ele>223.60000610352</ele>
        <time>2022-06-25T08:56:32.000Z</time>
      </trkpt>
      <trkpt lat="46.82572" lon="3.24702">
        <ele>223.80000305176</ele>
        <time>2022-06-25T08:56:39.000Z</time>
      </trkpt>
      <trkpt lat="46.82583" lon="3.24701">
        <ele>224.39999389648</ele>
        <time>2022-06-25T08:56:41.000Z</time>
      </trkpt>
      <trkpt lat="46.82595" lon="3.247">
        <ele>225.19999694824</ele>
        <time>2022-06-25T08:56:43.000Z</time>
      </trkpt>
      <trkpt lat="46.82642" lon="3.24699">
        <ele>227</ele>
        <time>2022-06-25T08:56:51.000Z</time>
      </trkpt>
      <trkpt lat="46.82702" lon="3.24697">
        <ele>226.39999389648</ele>
        <time>2022-06-25T08:57:01.000Z</time>
      </trkpt>
      <trkpt lat="46.82748" lon="3.24696">
        <ele>226.39999389648</ele>
        <time>2022-06-25T08:57:09.000Z</time>
      </trkpt>
      <trkpt lat="46.82759" lon="3.24695">
        <ele>226.19999694824</ele>
        <time>2022-06-25T08:57:11.000Z</time>
      </trkpt>
      <trkpt lat="46.82794" lon="3.24694">
        <ele>226.19999694824</ele>
        <time>2022-06-25T08:57:17.000Z</time>
      </trkpt>
      <trkpt lat="46.82812" lon="3.24694">
        <ele>226.19999694824</ele>
        <time>2022-06-25T08:57:20.000Z</time>
      </trkpt>
      <trkpt lat="46.82866" lon="3.24692">
        <ele>227.39999389648</ele>
        <time>2022-06-25T08:57:29.000Z</time>
      </trkpt>
      <trkpt lat="46.8292" lon="3.2469">
        <ele>227</ele>
        <time>2022-06-25T08:57:38.000Z</time>
      </trkpt>
      <trkpt lat="46.82937" lon="3.24689">
        <ele>227.39999389648</ele>
        <time>2022-06-25T08:57:41.000Z</time>
      </trkpt>
      <trkpt lat="46.82966" lon="3.24688">
        <ele>228</ele>
        <time>2022-06-25T08:57:46.000Z</time>
      </trkpt>
      <trkpt lat="46.82972" lon="3.24688">
        <ele>228</ele>
        <time>2022-06-25T08:57:47.000Z</time>
      </trkpt>
      <trkpt lat="46.82995" lon="3.24687">
        <ele>229</ele>
        <time>2022-06-25T08:57:51.000Z</time>
      </trkpt>
      <trkpt lat="46.83018" lon="3.24685">
        <ele>230.60000610352</ele>
        <time>2022-06-25T08:57:55.000Z</time>
      </trkpt>
      <trkpt lat="46.83028" lon="3.24683">
        <ele>231.19999694824</ele>
        <time>2022-06-25T08:57:57.000Z</time>
      </trkpt>
      <trkpt lat="46.83032" lon="3.24679">
        <ele>231.39999389648</ele>
        <time>2022-06-25T08:57:58.000Z</time>
      </trkpt>
      <trkpt lat="46.83035" lon="3.24674">
        <ele>231.39999389648</ele>
        <time>2022-06-25T08:57:59.000Z</time>
      </trkpt>
      <trkpt lat="46.83038" lon="3.24668">
        <ele>231.39999389648</ele>
        <time>2022-06-25T08:58:00.000Z</time>
      </trkpt>
      <trkpt lat="46.8304" lon="3.24662">
        <ele>231.19999694824</ele>
        <time>2022-06-25T08:58:01.000Z</time>
      </trkpt>
      <trkpt lat="46.83054" lon="3.24627">
        <ele>229.19999694824</ele>
        <time>2022-06-25T08:58:06.000Z</time>
      </trkpt>
      <trkpt lat="46.83057" lon="3.24619">
        <ele>228.80000305176</ele>
        <time>2022-06-25T08:58:07.000Z</time>
      </trkpt>
      <trkpt lat="46.83062" lon="3.24605">
        <ele>228.19999694824</ele>
        <time>2022-06-25T08:58:09.000Z</time>
      </trkpt>
      <trkpt lat="46.83091" lon="3.24537">
        <ele>227</ele>
        <time>2022-06-25T08:58:18.000Z</time>
      </trkpt>
      <trkpt lat="46.83097" lon="3.24522">
        <ele>227.19999694824</ele>
        <time>2022-06-25T08:58:20.000Z</time>
      </trkpt>
      <trkpt lat="46.83125" lon="3.24454">
        <ele>226.80000305176</ele>
        <time>2022-06-25T08:58:29.000Z</time>
      </trkpt>
      <trkpt lat="46.83128" lon="3.24447">
        <ele>226.60000610352</ele>
        <time>2022-06-25T08:58:30.000Z</time>
      </trkpt>
      <trkpt lat="46.8315" lon="3.24394">
        <ele>227.19999694824</ele>
        <time>2022-06-25T08:58:37.000Z</time>
      </trkpt>
      <trkpt lat="46.83181" lon="3.24321">
        <ele>229.60000610352</ele>
        <time>2022-06-25T08:58:47.000Z</time>
      </trkpt>
      <trkpt lat="46.83184" lon="3.24314">
        <ele>230</ele>
        <time>2022-06-25T08:58:48.000Z</time>
      </trkpt>
      <trkpt lat="46.83189" lon="3.243">
        <ele>231</ele>
        <time>2022-06-25T08:58:50.000Z</time>
      </trkpt>
      <trkpt lat="46.83207" lon="3.24259">
        <ele>231.60000610352</ele>
        <time>2022-06-25T08:58:56.000Z</time>
      </trkpt>
      <trkpt lat="46.83215" lon="3.24238">
        <ele>231.80000305176</ele>
        <time>2022-06-25T08:58:59.000Z</time>
      </trkpt>
      <trkpt lat="46.83232" lon="3.24197">
        <ele>232</ele>
        <time>2022-06-25T08:59:05.000Z</time>
      </trkpt>
      <trkpt lat="46.83237" lon="3.24184">
        <ele>232.60000610352</ele>
        <time>2022-06-25T08:59:07.000Z</time>
      </trkpt>
      <trkpt lat="46.83244" lon="3.24156">
        <ele>234</ele>
        <time>2022-06-25T08:59:11.000Z</time>
      </trkpt>
      <trkpt lat="46.83248" lon="3.24142">
        <ele>234.60000610352</ele>
        <time>2022-06-25T08:59:13.000Z</time>
      </trkpt>
      <trkpt lat="46.83262" lon="3.24082">
        <ele>235</ele>
        <time>2022-06-25T08:59:21.000Z</time>
      </trkpt>
      <trkpt lat="46.83264" lon="3.24074">
        <ele>235</ele>
        <time>2022-06-25T08:59:22.000Z</time>
      </trkpt>
      <trkpt lat="46.83276" lon="3.24022">
        <ele>235</ele>
        <time>2022-06-25T08:59:29.000Z</time>
      </trkpt>
      <trkpt lat="46.83279" lon="3.24007">
        <ele>235.19999694824</ele>
        <time>2022-06-25T08:59:31.000Z</time>
      </trkpt>
      <trkpt lat="46.83287" lon="3.2397">
        <ele>236</ele>
        <time>2022-06-25T08:59:36.000Z</time>
      </trkpt>
      <trkpt lat="46.83306" lon="3.23896">
        <ele>234.19999694824</ele>
        <time>2022-06-25T08:59:46.000Z</time>
      </trkpt>
      <trkpt lat="46.83323" lon="3.23851">
        <ele>233.80000305176</ele>
        <time>2022-06-25T08:59:52.000Z</time>
      </trkpt>
      <trkpt lat="46.83326" lon="3.23843">
        <ele>233.60000610352</ele>
        <time>2022-06-25T08:59:53.000Z</time>
      </trkpt>
      <trkpt lat="46.83333" lon="3.23826">
        <ele>233.60000610352</ele>
        <time>2022-06-25T08:59:55.000Z</time>
      </trkpt>
      <trkpt lat="46.83348" lon="3.23803">
        <ele>233</ele>
        <time>2022-06-25T08:59:58.000Z</time>
      </trkpt>
      <trkpt lat="46.83382" lon="3.23771">
        <ele>232.39999389648</ele>
        <time>2022-06-25T09:00:03.000Z</time>
      </trkpt>
      <trkpt lat="46.83396" lon="3.23758">
        <ele>232.39999389648</ele>
        <time>2022-06-25T09:00:05.000Z</time>
      </trkpt>
      <trkpt lat="46.83425" lon="3.23732">
        <ele>231.80000305176</ele>
        <time>2022-06-25T09:00:09.000Z</time>
      </trkpt>
      <trkpt lat="46.83441" lon="3.23719">
        <ele>231.39999389648</ele>
        <time>2022-06-25T09:00:11.000Z</time>
      </trkpt>
      <trkpt lat="46.83464" lon="3.23699">
        <ele>230.39999389648</ele>
        <time>2022-06-25T09:00:14.000Z</time>
      </trkpt>
      <trkpt lat="46.83496" lon="3.23671">
        <ele>230.80000305176</ele>
        <time>2022-06-25T09:00:19.000Z</time>
      </trkpt>
      <trkpt lat="46.83522" lon="3.23648">
        <ele>231.19999694824</ele>
        <time>2022-06-25T09:00:23.000Z</time>
      </trkpt>
      <trkpt lat="46.8354" lon="3.23632">
        <ele>230.19999694824</ele>
        <time>2022-06-25T09:00:26.000Z</time>
      </trkpt>
      <trkpt lat="46.83553" lon="3.2362">
        <ele>230</ele>
        <time>2022-06-25T09:00:28.000Z</time>
      </trkpt>
      <trkpt lat="46.83582" lon="3.23594">
        <ele>228.19999694824</ele>
        <time>2022-06-25T09:00:32.000Z</time>
      </trkpt>
      <trkpt lat="46.8359" lon="3.23588">
        <ele>228</ele>
        <time>2022-06-25T09:00:33.000Z</time>
      </trkpt>
      <trkpt lat="46.83597" lon="3.23581">
        <ele>227.60000610352</ele>
        <time>2022-06-25T09:00:34.000Z</time>
      </trkpt>
      <trkpt lat="46.83613" lon="3.23567">
        <ele>226.60000610352</ele>
        <time>2022-06-25T09:00:36.000Z</time>
      </trkpt>
      <trkpt lat="46.83637" lon="3.23542">
        <ele>222.39999389648</ele>
        <time>2022-06-25T09:00:39.000Z</time>
      </trkpt>
      <trkpt lat="46.83653" lon="3.23525">
        <ele>219.80000305176</ele>
        <time>2022-06-25T09:00:41.000Z</time>
      </trkpt>
      <trkpt lat="46.83679" lon="3.23496">
        <ele>216</ele>
        <time>2022-06-25T09:00:44.000Z</time>
      </trkpt>
      <trkpt lat="46.83697" lon="3.23473">
        <ele>214.80000305176</ele>
        <time>2022-06-25T09:00:46.000Z</time>
      </trkpt>
      <trkpt lat="46.83707" lon="3.23463">
        <ele>213.80000305176</ele>
        <time>2022-06-25T09:00:47.000Z</time>
      </trkpt>
      <trkpt lat="46.83725" lon="3.2344">
        <ele>211.39999389648</ele>
        <time>2022-06-25T09:00:49.000Z</time>
      </trkpt>
      <trkpt lat="46.83734" lon="3.23428">
        <ele>209.80000305176</ele>
        <time>2022-06-25T09:00:50.000Z</time>
      </trkpt>
      <trkpt lat="46.83743" lon="3.23415">
        <ele>207.80000305176</ele>
        <time>2022-06-25T09:00:51.000Z</time>
      </trkpt>
      <trkpt lat="46.8376" lon="3.23389">
        <ele>204.60000610352</ele>
        <time>2022-06-25T09:00:53.000Z</time>
      </trkpt>
      <trkpt lat="46.83768" lon="3.23376">
        <ele>203.60000610352</ele>
        <time>2022-06-25T09:00:54.000Z</time>
      </trkpt>
      <trkpt lat="46.83776" lon="3.23364">
        <ele>202.80000305176</ele>
        <time>2022-06-25T09:00:55.000Z</time>
      </trkpt>
      <trkpt lat="46.83784" lon="3.23352">
        <ele>202</ele>
        <time>2022-06-25T09:00:56.000Z</time>
      </trkpt>
      <trkpt lat="46.83799" lon="3.23327">
        <ele>202.39999389648</ele>
        <time>2022-06-25T09:00:58.000Z</time>
      </trkpt>
      <trkpt lat="46.83829" lon="3.2328">
        <ele>204.80000305176</ele>
        <time>2022-06-25T09:01:02.000Z</time>
      </trkpt>
      <trkpt lat="46.83836" lon="3.23268">
        <ele>204.60000610352</ele>
        <time>2022-06-25T09:01:03.000Z</time>
      </trkpt>
      <trkpt lat="46.83844" lon="3.23256">
        <ele>205</ele>
        <time>2022-06-25T09:01:04.000Z</time>
      </trkpt>
      <trkpt lat="46.83868" lon="3.23218">
        <ele>203.19999694824</ele>
        <time>2022-06-25T09:01:07.000Z</time>
      </trkpt>
      <trkpt lat="46.83881" lon="3.23197">
        <ele>201.39999389648</ele>
        <time>2022-06-25T09:01:09.000Z</time>
      </trkpt>
      <trkpt lat="46.83897" lon="3.23172">
        <ele>199.39999389648</ele>
        <time>2022-06-25T09:01:11.000Z</time>
      </trkpt>
      <trkpt lat="46.83903" lon="3.23162">
        <ele>198.39999389648</ele>
        <time>2022-06-25T09:01:12.000Z</time>
      </trkpt>
      <trkpt lat="46.83923" lon="3.23128">
        <ele>195.80000305176</ele>
        <time>2022-06-25T09:01:15.000Z</time>
      </trkpt>
      <trkpt lat="46.83942" lon="3.23095">
        <ele>195.80000305176</ele>
        <time>2022-06-25T09:01:18.000Z</time>
      </trkpt>
      <trkpt lat="46.83947" lon="3.23083">
        <ele>196.19999694824</ele>
        <time>2022-06-25T09:01:19.000Z</time>
      </trkpt>
      <trkpt lat="46.83966" lon="3.23028">
        <ele>196.80000305176</ele>
        <time>2022-06-25T09:01:24.000Z</time>
      </trkpt>
      <trkpt lat="46.83969" lon="3.23018">
        <ele>197.19999694824</ele>
        <time>2022-06-25T09:01:25.000Z</time>
      </trkpt>
      <trkpt lat="46.83988" lon="3.2296">
        <ele>197.19999694824</ele>
        <time>2022-06-25T09:01:31.000Z</time>
      </trkpt>
      <trkpt lat="46.84012" lon="3.22886">
        <ele>196.39999389648</ele>
        <time>2022-06-25T09:01:39.000Z</time>
      </trkpt>
      <trkpt lat="46.84036" lon="3.22813">
        <ele>197</ele>
        <time>2022-06-25T09:01:47.000Z</time>
      </trkpt>
      <trkpt lat="46.8404" lon="3.22804">
        <ele>197</ele>
        <time>2022-06-25T09:01:48.000Z</time>
      </trkpt>
      <trkpt lat="46.84066" lon="3.22735">
        <ele>198</ele>
        <time>2022-06-25T09:01:56.000Z</time>
      </trkpt>
      <trkpt lat="46.84069" lon="3.22726">
        <ele>198.19999694824</ele>
        <time>2022-06-25T09:01:57.000Z</time>
      </trkpt>
      <trkpt lat="46.84095" lon="3.22657">
        <ele>197</ele>
        <time>2022-06-25T09:02:05.000Z</time>
      </trkpt>
      <trkpt lat="46.84099" lon="3.22649">
        <ele>196.39999389648</ele>
        <time>2022-06-25T09:02:06.000Z</time>
      </trkpt>
      <trkpt lat="46.84128" lon="3.22575">
        <ele>194.80000305176</ele>
        <time>2022-06-25T09:02:15.000Z</time>
      </trkpt>
      <trkpt lat="46.84131" lon="3.22566">
        <ele>194.80000305176</ele>
        <time>2022-06-25T09:02:16.000Z</time>
      </trkpt>
      <trkpt lat="46.84135" lon="3.22557">
        <ele>194.80000305176</ele>
        <time>2022-06-25T09:02:17.000Z</time>
      </trkpt>
      <trkpt lat="46.84161" lon="3.22488">
        <ele>196.80000305176</ele>
        <time>2022-06-25T09:02:25.000Z</time>
      </trkpt>
      <trkpt lat="46.84165" lon="3.22479">
        <ele>196.60000610352</ele>
        <time>2022-06-25T09:02:26.000Z</time>
      </trkpt>
      <trkpt lat="46.84176" lon="3.2245">
        <ele>195</ele>
        <time>2022-06-25T09:02:29.000Z</time>
      </trkpt>
      <trkpt lat="46.84196" lon="3.22401">
        <ele>193.39999389648</ele>
        <time>2022-06-25T09:02:34.000Z</time>
      </trkpt>
      <trkpt lat="46.84216" lon="3.22347">
        <ele>191.80000305176</ele>
        <time>2022-06-25T09:02:39.000Z</time>
      </trkpt>
      <trkpt lat="46.84225" lon="3.22326">
        <ele>191</ele>
        <time>2022-06-25T09:02:41.000Z</time>
      </trkpt>
      <trkpt lat="46.84237" lon="3.22294">
        <ele>189.80000305176</ele>
        <time>2022-06-25T09:02:44.000Z</time>
      </trkpt>
      <trkpt lat="46.84253" lon="3.22255">
        <ele>189.19999694824</ele>
        <time>2022-06-25T09:02:48.000Z</time>
      </trkpt>
      <trkpt lat="46.84277" lon="3.2219">
        <ele>189.80000305176</ele>
        <time>2022-06-25T09:02:55.000Z</time>
      </trkpt>
      <trkpt lat="46.84305" lon="3.22118">
        <ele>190.39999389648</ele>
        <time>2022-06-25T09:03:03.000Z</time>
      </trkpt>
      <trkpt lat="46.84315" lon="3.22092">
        <ele>190</ele>
        <time>2022-06-25T09:03:06.000Z</time>
      </trkpt>
      <trkpt lat="46.84335" lon="3.22042">
        <ele>191</ele>
        <time>2022-06-25T09:03:12.000Z</time>
      </trkpt>
      <trkpt lat="46.84353" lon="3.21998">
        <ele>192.39999389648</ele>
        <time>2022-06-25T09:03:18.000Z</time>
      </trkpt>
      <trkpt lat="46.84366" lon="3.21978">
        <ele>193.60000610352</ele>
        <time>2022-06-25T09:03:22.000Z</time>
      </trkpt>
      <trkpt lat="46.8437" lon="3.21974">
        <ele>194</ele>
        <time>2022-06-25T09:03:23.000Z</time>
      </trkpt>
      <trkpt lat="46.84384" lon="3.21964">
        <ele>195</ele>
        <time>2022-06-25T09:03:27.000Z</time>
      </trkpt>
      <trkpt lat="46.84394" lon="3.21957">
        <ele>196</ele>
        <time>2022-06-25T09:03:30.000Z</time>
      </trkpt>
      <trkpt lat="46.84397" lon="3.21955">
        <ele>196.19999694824</ele>
        <time>2022-06-25T09:03:31.000Z</time>
      </trkpt>
      <trkpt lat="46.84415" lon="3.21947">
        <ele>197.80000305176</ele>
        <time>2022-06-25T09:03:36.000Z</time>
      </trkpt>
      <trkpt lat="46.84422" lon="3.21944">
        <ele>198.39999389648</ele>
        <time>2022-06-25T09:03:38.000Z</time>
      </trkpt>
      <trkpt lat="46.8443" lon="3.2194">
        <ele>199.19999694824</ele>
        <time>2022-06-25T09:03:40.000Z</time>
      </trkpt>
      <trkpt lat="46.84444" lon="3.21932">
        <ele>199.60000610352</ele>
        <time>2022-06-25T09:03:44.000Z</time>
      </trkpt>
      <trkpt lat="46.84454" lon="3.21925">
        <ele>200.39999389648</ele>
        <time>2022-06-25T09:03:47.000Z</time>
      </trkpt>
      <trkpt lat="46.84462" lon="3.21922">
        <ele>200.80000305176</ele>
        <time>2022-06-25T09:03:49.000Z</time>
      </trkpt>
      <trkpt lat="46.84477" lon="3.21914">
        <ele>201.60000610352</ele>
        <time>2022-06-25T09:03:53.000Z</time>
      </trkpt>
      <trkpt lat="46.84494" lon="3.21905">
        <ele>202</ele>
        <time>2022-06-25T09:03:57.000Z</time>
      </trkpt>
      <trkpt lat="46.84502" lon="3.21901">
        <ele>202</ele>
        <time>2022-06-25T09:03:59.000Z</time>
      </trkpt>
      <trkpt lat="46.84523" lon="3.21889">
        <ele>201.80000305176</ele>
        <time>2022-06-25T09:04:04.000Z</time>
      </trkpt>
      <trkpt lat="46.84528" lon="3.21887">
        <ele>201.80000305176</ele>
        <time>2022-06-25T09:04:05.000Z</time>
      </trkpt>
      <trkpt lat="46.84566" lon="3.21867">
        <ele>202.60000610352</ele>
        <time>2022-06-25T09:04:13.000Z</time>
      </trkpt>
      <trkpt lat="46.84616" lon="3.2184">
        <ele>204.39999389648</ele>
        <time>2022-06-25T09:04:23.000Z</time>
      </trkpt>
      <trkpt lat="46.84626" lon="3.21836">
        <ele>204.39999389648</ele>
        <time>2022-06-25T09:04:25.000Z</time>
      </trkpt>
      <trkpt lat="46.84652" lon="3.21822">
        <ele>203.80000305176</ele>
        <time>2022-06-25T09:04:30.000Z</time>
      </trkpt>
      <trkpt lat="46.84703" lon="3.21794">
        <ele>204.19999694824</ele>
        <time>2022-06-25T09:04:40.000Z</time>
      </trkpt>
      <trkpt lat="46.8472" lon="3.21786">
        <ele>205</ele>
        <time>2022-06-25T09:04:43.000Z</time>
      </trkpt>
      <trkpt lat="46.84725" lon="3.21784">
        <ele>205</ele>
        <time>2022-06-25T09:04:44.000Z</time>
      </trkpt>
      <trkpt lat="46.84746" lon="3.21773">
        <ele>205.39999389648</ele>
        <time>2022-06-25T09:04:48.000Z</time>
      </trkpt>
      <trkpt lat="46.84798" lon="3.21745">
        <ele>205.19999694824</ele>
        <time>2022-06-25T09:04:57.000Z</time>
      </trkpt>
      <trkpt lat="46.84839" lon="3.21723">
        <ele>206.39999389648</ele>
        <time>2022-06-25T09:05:04.000Z</time>
      </trkpt>
      <trkpt lat="46.8489" lon="3.21697">
        <ele>206.19999694824</ele>
        <time>2022-06-25T09:05:13.000Z</time>
      </trkpt>
      <trkpt lat="46.84895" lon="3.21694">
        <ele>206.39999389648</ele>
        <time>2022-06-25T09:05:14.000Z</time>
      </trkpt>
      <trkpt lat="46.84914" lon="3.21685">
        <ele>207.19999694824</ele>
        <time>2022-06-25T09:05:18.000Z</time>
      </trkpt>
      <trkpt lat="46.84919" lon="3.21682">
        <ele>207.19999694824</ele>
        <time>2022-06-25T09:05:19.000Z</time>
      </trkpt>
      <trkpt lat="46.84942" lon="3.21669">
        <ele>209</ele>
        <time>2022-06-25T09:05:24.000Z</time>
      </trkpt>
      <trkpt lat="46.84947" lon="3.21667">
        <ele>209</ele>
        <time>2022-06-25T09:05:25.000Z</time>
      </trkpt>
      <trkpt lat="46.84971" lon="3.21654">
        <ele>210.60000610352</ele>
        <time>2022-06-25T09:05:30.000Z</time>
      </trkpt>
      <trkpt lat="46.84986" lon="3.21646">
        <ele>211</ele>
        <time>2022-06-25T09:05:33.000Z</time>
      </trkpt>
      <trkpt lat="46.84996" lon="3.21642">
        <ele>211.19999694824</ele>
        <time>2022-06-25T09:05:35.000Z</time>
      </trkpt>
      <trkpt lat="46.8503" lon="3.21623">
        <ele>212</ele>
        <time>2022-06-25T09:05:42.000Z</time>
      </trkpt>
      <trkpt lat="46.85048" lon="3.21613">
        <ele>212.80000305176</ele>
        <time>2022-06-25T09:05:46.000Z</time>
      </trkpt>
      <trkpt lat="46.85062" lon="3.21606">
        <ele>213.80000305176</ele>
        <time>2022-06-25T09:05:49.000Z</time>
      </trkpt>
      <trkpt lat="46.85078" lon="3.21598">
        <ele>214.80000305176</ele>
        <time>2022-06-25T09:05:52.000Z</time>
      </trkpt>
      <trkpt lat="46.85092" lon="3.21591">
        <ele>216</ele>
        <time>2022-06-25T09:05:55.000Z</time>
      </trkpt>
      <trkpt lat="46.85113" lon="3.2158">
        <ele>217.60000610352</ele>
        <time>2022-06-25T09:05:59.000Z</time>
      </trkpt>
      <trkpt lat="46.8515" lon="3.2156">
        <ele>218.80000305176</ele>
        <time>2022-06-25T09:06:06.000Z</time>
      </trkpt>
      <trkpt lat="46.85203" lon="3.21532">
        <ele>216</ele>
        <time>2022-06-25T09:06:16.000Z</time>
      </trkpt>
      <trkpt lat="46.85219" lon="3.21524">
        <ele>215.60000610352</ele>
        <time>2022-06-25T09:06:19.000Z</time>
      </trkpt>
      <trkpt lat="46.85266" lon="3.21498">
        <ele>219</ele>
        <time>2022-06-25T09:06:28.000Z</time>
      </trkpt>
      <trkpt lat="46.85278" lon="3.21492">
        <ele>220.60000610352</ele>
        <time>2022-06-25T09:06:30.000Z</time>
      </trkpt>
      <trkpt lat="46.8531" lon="3.21475">
        <ele>223.60000610352</ele>
        <time>2022-06-25T09:06:36.000Z</time>
      </trkpt>
      <trkpt lat="46.85316" lon="3.21472">
        <ele>224</ele>
        <time>2022-06-25T09:06:37.000Z</time>
      </trkpt>
      <trkpt lat="46.85327" lon="3.21467">
        <ele>224.39999389648</ele>
        <time>2022-06-25T09:06:39.000Z</time>
      </trkpt>
      <trkpt lat="46.85351" lon="3.21452">
        <ele>225.39999389648</ele>
        <time>2022-06-25T09:06:43.000Z</time>
      </trkpt>
      <trkpt lat="46.85379" lon="3.21434">
        <ele>224.80000305176</ele>
        <time>2022-06-25T09:06:47.000Z</time>
      </trkpt>
      <trkpt lat="46.85389" lon="3.21428">
        <ele>223</ele>
        <time>2022-06-25T09:06:48.000Z</time>
      </trkpt>
      <trkpt lat="46.85404" lon="3.21419">
        <ele>221.19999694824</ele>
        <time>2022-06-25T09:06:50.000Z</time>
      </trkpt>
      <trkpt lat="46.85431" lon="3.21404">
        <ele>216.60000610352</ele>
        <time>2022-06-25T09:06:53.000Z</time>
      </trkpt>
      <trkpt lat="46.8544" lon="3.21399">
        <ele>215.80000305176</ele>
        <time>2022-06-25T09:06:54.000Z</time>
      </trkpt>
      <trkpt lat="46.85468" lon="3.21383">
        <ele>211</ele>
        <time>2022-06-25T09:06:57.000Z</time>
      </trkpt>
      <trkpt lat="46.85505" lon="3.21363">
        <ele>205.80000305176</ele>
        <time>2022-06-25T09:07:01.000Z</time>
      </trkpt>
      <trkpt lat="46.85527" lon="3.21351">
        <ele>205</ele>
        <time>2022-06-25T09:07:04.000Z</time>
      </trkpt>
      <trkpt lat="46.85545" lon="3.21342">
        <ele>204.80000305176</ele>
        <time>2022-06-25T09:07:06.000Z</time>
      </trkpt>
      <trkpt lat="46.8556" lon="3.21334">
        <ele>204.60000610352</ele>
        <time>2022-06-25T09:07:08.000Z</time>
      </trkpt>
      <trkpt lat="46.85594" lon="3.21317">
        <ele>205.60000610352</ele>
        <time>2022-06-25T09:07:13.000Z</time>
      </trkpt>
      <trkpt lat="46.85645" lon="3.21299">
        <ele>206</ele>
        <time>2022-06-25T09:07:20.000Z</time>
      </trkpt>
      <trkpt lat="46.85694" lon="3.21288">
        <ele>204.80000305176</ele>
        <time>2022-06-25T09:07:27.000Z</time>
      </trkpt>
      <trkpt lat="46.85746" lon="3.21277">
        <ele>202.80000305176</ele>
        <time>2022-06-25T09:07:34.000Z</time>
      </trkpt>
      <trkpt lat="46.8576" lon="3.21274">
        <ele>201.80000305176</ele>
        <time>2022-06-25T09:07:36.000Z</time>
      </trkpt>
      <trkpt lat="46.85776" lon="3.2127">
        <ele>201.39999389648</ele>
        <time>2022-06-25T09:07:38.000Z</time>
      </trkpt>
      <trkpt lat="46.85825" lon="3.21258">
        <ele>199.60000610352</ele>
        <time>2022-06-25T09:07:44.000Z</time>
      </trkpt>
      <trkpt lat="46.85831" lon="3.21256">
        <ele>199.39999389648</ele>
        <time>2022-06-25T09:07:45.000Z</time>
      </trkpt>
      <trkpt lat="46.85856" lon="3.21247">
        <ele>198.60000610352</ele>
        <time>2022-06-25T09:07:48.000Z</time>
      </trkpt>
      <trkpt lat="46.85882" lon="3.21235">
        <ele>197.39999389648</ele>
        <time>2022-06-25T09:07:51.000Z</time>
      </trkpt>
      <trkpt lat="46.85901" lon="3.21224">
        <ele>196.19999694824</ele>
        <time>2022-06-25T09:07:53.000Z</time>
      </trkpt>
      <trkpt lat="46.85926" lon="3.2121">
        <ele>194.80000305176</ele>
        <time>2022-06-25T09:07:56.000Z</time>
      </trkpt>
      <trkpt lat="46.85934" lon="3.21204">
        <ele>194.39999389648</ele>
        <time>2022-06-25T09:07:57.000Z</time>
      </trkpt>
      <trkpt lat="46.85942" lon="3.21197">
        <ele>193.80000305176</ele>
        <time>2022-06-25T09:07:58.000Z</time>
      </trkpt>
      <trkpt lat="46.85951" lon="3.21186">
        <ele>193</ele>
        <time>2022-06-25T09:07:59.000Z</time>
      </trkpt>
      <trkpt lat="46.85956" lon="3.21178">
        <ele>193</ele>
        <time>2022-06-25T09:08:00.000Z</time>
      </trkpt>
      <trkpt lat="46.85963" lon="3.21168">
        <ele>192.80000305176</ele>
        <time>2022-06-25T09:08:01.000Z</time>
      </trkpt>
      <trkpt lat="46.85976" lon="3.21146">
        <ele>191.19999694824</ele>
        <time>2022-06-25T09:08:03.000Z</time>
      </trkpt>
      <trkpt lat="46.85986" lon="3.21129">
        <ele>190.80000305176</ele>
        <time>2022-06-25T09:08:05.000Z</time>
      </trkpt>
      <trkpt lat="46.85992" lon="3.21118">
        <ele>190.60000610352</ele>
        <time>2022-06-25T09:08:06.000Z</time>
      </trkpt>
      <trkpt lat="46.85995" lon="3.2111">
        <ele>190.80000305176</ele>
        <time>2022-06-25T09:08:07.000Z</time>
      </trkpt>
      <trkpt lat="46.85999" lon="3.21097">
        <ele>191.19999694824</ele>
        <time>2022-06-25T09:08:08.000Z</time>
      </trkpt>
      <trkpt lat="46.86004" lon="3.21078">
        <ele>192.60000610352</ele>
        <time>2022-06-25T09:08:10.000Z</time>
      </trkpt>
      <trkpt lat="46.86005" lon="3.21065">
        <ele>193</ele>
        <time>2022-06-25T09:08:11.000Z</time>
      </trkpt>
      <trkpt lat="46.86005" lon="3.21004">
        <ele>193.80000305176</ele>
        <time>2022-06-25T09:08:17.000Z</time>
      </trkpt>
      <trkpt lat="46.86004" lon="3.20935">
        <ele>194</ele>
        <time>2022-06-25T09:08:24.000Z</time>
      </trkpt>
      <trkpt lat="46.86004" lon="3.20858">
        <ele>194.19999694824</ele>
        <time>2022-06-25T09:08:32.000Z</time>
      </trkpt>
      <trkpt lat="46.86004" lon="3.20848">
        <ele>193.80000305176</ele>
        <time>2022-06-25T09:08:33.000Z</time>
      </trkpt>
      <trkpt lat="46.86004" lon="3.20793">
        <ele>193</ele>
        <time>2022-06-25T09:08:39.000Z</time>
      </trkpt>
      <trkpt lat="46.86003" lon="3.20769">
        <ele>193</ele>
        <time>2022-06-25T09:08:42.000Z</time>
      </trkpt>
      <trkpt lat="46.86003" lon="3.20725">
        <ele>193.80000305176</ele>
        <time>2022-06-25T09:08:47.000Z</time>
      </trkpt>
      <trkpt lat="46.86003" lon="3.2065">
        <ele>195.80000305176</ele>
        <time>2022-06-25T09:08:56.000Z</time>
      </trkpt>
      <trkpt lat="46.86003" lon="3.2064">
        <ele>196.19999694824</ele>
        <time>2022-06-25T09:08:57.000Z</time>
      </trkpt>
      <trkpt lat="46.86003" lon="3.20569">
        <ele>196.80000305176</ele>
        <time>2022-06-25T09:09:06.000Z</time>
      </trkpt>
      <trkpt lat="46.86003" lon="3.20554">
        <ele>197.19999694824</ele>
        <time>2022-06-25T09:09:08.000Z</time>
      </trkpt>
      <trkpt lat="46.86003" lon="3.20479">
        <ele>197.80000305176</ele>
        <time>2022-06-25T09:09:17.000Z</time>
      </trkpt>
      <trkpt lat="46.86003" lon="3.20471">
        <ele>197.80000305176</ele>
        <time>2022-06-25T09:09:18.000Z</time>
      </trkpt>
      <trkpt lat="46.86003" lon="3.20396">
        <ele>199.19999694824</ele>
        <time>2022-06-25T09:09:27.000Z</time>
      </trkpt>
      <trkpt lat="46.86003" lon="3.20374">
        <ele>200</ele>
        <time>2022-06-25T09:09:30.000Z</time>
      </trkpt>
      <trkpt lat="46.86004" lon="3.20319">
        <ele>201</ele>
        <time>2022-06-25T09:09:37.000Z</time>
      </trkpt>
      <trkpt lat="46.86006" lon="3.20295">
        <ele>201</ele>
        <time>2022-06-25T09:09:40.000Z</time>
      </trkpt>
      <trkpt lat="46.86019" lon="3.20216">
        <ele>201.60000610352</ele>
        <time>2022-06-25T09:09:50.000Z</time>
      </trkpt>
      <trkpt lat="46.86024" lon="3.20193">
        <ele>202</ele>
        <time>2022-06-25T09:09:53.000Z</time>
      </trkpt>
      <trkpt lat="46.86038" lon="3.20145">
        <ele>202</ele>
        <time>2022-06-25T09:09:59.000Z</time>
      </trkpt>
      <trkpt lat="46.86063" lon="3.20072">
        <ele>201.80000305176</ele>
        <time>2022-06-25T09:10:09.000Z</time>
      </trkpt>
      <trkpt lat="46.86068" lon="3.20058">
        <ele>202.19999694824</ele>
        <time>2022-06-25T09:10:11.000Z</time>
      </trkpt>
      <trkpt lat="46.8609" lon="3.1999">
        <ele>202.60000610352</ele>
        <time>2022-06-25T09:10:20.000Z</time>
      </trkpt>
      <trkpt lat="46.86098" lon="3.1994">
        <ele>201.60000610352</ele>
        <time>2022-06-25T09:10:25.000Z</time>
      </trkpt>
      <trkpt lat="46.86098" lon="3.1988">
        <ele>200.19999694824</ele>
        <time>2022-06-25T09:10:31.000Z</time>
      </trkpt>
      <trkpt lat="46.86097" lon="3.19862">
        <ele>200.80000305176</ele>
        <time>2022-06-25T09:10:33.000Z</time>
      </trkpt>
      <trkpt lat="46.86093" lon="3.19837">
        <ele>201</ele>
        <time>2022-06-25T09:10:36.000Z</time>
      </trkpt>
      <trkpt lat="46.86085" lon="3.19766">
        <ele>202.60000610352</ele>
        <time>2022-06-25T09:10:45.000Z</time>
      </trkpt>
      <trkpt lat="46.86082" lon="3.19742">
        <ele>203.19999694824</ele>
        <time>2022-06-25T09:10:48.000Z</time>
      </trkpt>
      <trkpt lat="46.86075" lon="3.19689">
        <ele>203.39999389648</ele>
        <time>2022-06-25T09:10:55.000Z</time>
      </trkpt>
      <trkpt lat="46.86072" lon="3.19658">
        <ele>203.19999694824</ele>
        <time>2022-06-25T09:10:59.000Z</time>
      </trkpt>
      <trkpt lat="46.86069" lon="3.19635">
        <ele>203.19999694824</ele>
        <time>2022-06-25T09:11:02.000Z</time>
      </trkpt>
      <trkpt lat="46.86064" lon="3.19587">
        <ele>203</ele>
        <time>2022-06-25T09:11:08.000Z</time>
      </trkpt>
      <trkpt lat="46.8606" lon="3.19554">
        <ele>203.60000610352</ele>
        <time>2022-06-25T09:11:12.000Z</time>
      </trkpt>
      <trkpt lat="46.86051" lon="3.19479">
        <ele>206.39999389648</ele>
        <time>2022-06-25T09:11:21.000Z</time>
      </trkpt>
      <trkpt lat="46.86049" lon="3.19464">
        <ele>207.39999389648</ele>
        <time>2022-06-25T09:11:23.000Z</time>
      </trkpt>
      <trkpt lat="46.86039" lon="3.19393">
        <ele>209</ele>
        <time>2022-06-25T09:11:32.000Z</time>
      </trkpt>
      <trkpt lat="46.86038" lon="3.19385">
        <ele>209</ele>
        <time>2022-06-25T09:11:33.000Z</time>
      </trkpt>
      <trkpt lat="46.86031" lon="3.19313">
        <ele>209.39999389648</ele>
        <time>2022-06-25T09:11:42.000Z</time>
      </trkpt>
      <trkpt lat="46.8603" lon="3.19305">
        <ele>209.60000610352</ele>
        <time>2022-06-25T09:11:43.000Z</time>
      </trkpt>
      <trkpt lat="46.86028" lon="3.19274">
        <ele>211.39999389648</ele>
        <time>2022-06-25T09:11:47.000Z</time>
      </trkpt>
      <trkpt lat="46.86028" lon="3.19266">
        <ele>211.80000305176</ele>
        <time>2022-06-25T09:11:48.000Z</time>
      </trkpt>
      <trkpt lat="46.86031" lon="3.19234">
        <ele>212</ele>
        <time>2022-06-25T09:11:52.000Z</time>
      </trkpt>
      <trkpt lat="46.86034" lon="3.19211">
        <ele>212.80000305176</ele>
        <time>2022-06-25T09:11:55.000Z</time>
      </trkpt>
      <trkpt lat="46.86037" lon="3.19173">
        <ele>212</ele>
        <time>2022-06-25T09:12:00.000Z</time>
      </trkpt>
      <trkpt lat="46.86037" lon="3.19166">
        <ele>212</ele>
        <time>2022-06-25T09:12:01.000Z</time>
      </trkpt>
      <trkpt lat="46.86034" lon="3.19126">
        <ele>213.19999694824</ele>
        <time>2022-06-25T09:12:06.000Z</time>
      </trkpt>
      <trkpt lat="46.8603" lon="3.19081">
        <ele>213.80000305176</ele>
        <time>2022-06-25T09:12:12.000Z</time>
      </trkpt>
      <trkpt lat="46.86026" lon="3.19045">
        <ele>214.39999389648</ele>
        <time>2022-06-25T09:12:17.000Z</time>
      </trkpt>
      <trkpt lat="46.86022" lon="3.19009">
        <ele>216</ele>
        <time>2022-06-25T09:12:22.000Z</time>
      </trkpt>
      <trkpt lat="46.86021" lon="3.18995">
        <ele>216.39999389648</ele>
        <time>2022-06-25T09:12:24.000Z</time>
      </trkpt>
      <trkpt lat="46.86017" lon="3.1896">
        <ele>218.19999694824</ele>
        <time>2022-06-25T09:12:29.000Z</time>
      </trkpt>
      <trkpt lat="46.86015" lon="3.18946">
        <ele>218.60000610352</ele>
        <time>2022-06-25T09:12:31.000Z</time>
      </trkpt>
      <trkpt lat="46.86009" lon="3.18919">
        <ele>219.60000610352</ele>
        <time>2022-06-25T09:12:35.000Z</time>
      </trkpt>
      <trkpt lat="46.86007" lon="3.18913">
        <ele>219.80000305176</ele>
        <time>2022-06-25T09:12:36.000Z</time>
      </trkpt>
      <trkpt lat="46.86001" lon="3.18901">
        <ele>220.19999694824</ele>
        <time>2022-06-25T09:12:38.000Z</time>
      </trkpt>
      <trkpt lat="46.85992" lon="3.18885">
        <ele>220.80000305176</ele>
        <time>2022-06-25T09:12:41.000Z</time>
      </trkpt>
      <trkpt lat="46.85977" lon="3.18866">
        <ele>222.19999694824</ele>
        <time>2022-06-25T09:12:45.000Z</time>
      </trkpt>
      <trkpt lat="46.85973" lon="3.18861">
        <ele>222.80000305176</ele>
        <time>2022-06-25T09:12:46.000Z</time>
      </trkpt>
      <trkpt lat="46.85948" lon="3.18835">
        <ele>224.39999389648</ele>
        <time>2022-06-25T09:12:52.000Z</time>
      </trkpt>
      <trkpt lat="46.85944" lon="3.1883">
        <ele>224.39999389648</ele>
        <time>2022-06-25T09:12:53.000Z</time>
      </trkpt>
      <trkpt lat="46.85928" lon="3.18813">
        <ele>224.80000305176</ele>
        <time>2022-06-25T09:12:57.000Z</time>
      </trkpt>
      <trkpt lat="46.85912" lon="3.18797">
        <ele>225</ele>
        <time>2022-06-25T09:13:01.000Z</time>
      </trkpt>
      <trkpt lat="46.85904" lon="3.18788">
        <ele>225</ele>
        <time>2022-06-25T09:13:03.000Z</time>
      </trkpt>
      <trkpt lat="46.85877" lon="3.18757">
        <ele>226.39999389648</ele>
        <time>2022-06-25T09:13:10.000Z</time>
      </trkpt>
      <trkpt lat="46.85874" lon="3.18753">
        <ele>226.60000610352</ele>
        <time>2022-06-25T09:13:11.000Z</time>
      </trkpt>
      <trkpt lat="46.85858" lon="3.18732">
        <ele>227.80000305176</ele>
        <time>2022-06-25T09:13:16.000Z</time>
      </trkpt>
      <trkpt lat="46.85852" lon="3.18723">
        <ele>228.39999389648</ele>
        <time>2022-06-25T09:13:18.000Z</time>
      </trkpt>
      <trkpt lat="46.85847" lon="3.18715">
        <ele>228.80000305176</ele>
        <time>2022-06-25T09:13:20.000Z</time>
      </trkpt>
      <trkpt lat="46.85834" lon="3.18695">
        <ele>231</ele>
        <time>2022-06-25T09:13:25.000Z</time>
      </trkpt>
      <trkpt lat="46.85829" lon="3.18687">
        <ele>232</ele>
        <time>2022-06-25T09:13:27.000Z</time>
      </trkpt>
      <trkpt lat="46.85822" lon="3.18673">
        <ele>233.39999389648</ele>
        <time>2022-06-25T09:13:30.000Z</time>
      </trkpt>
      <trkpt lat="46.85816" lon="3.18653">
        <ele>235.19999694824</ele>
        <time>2022-06-25T09:13:34.000Z</time>
      </trkpt>
      <trkpt lat="46.85813" lon="3.18642">
        <ele>235.60000610352</ele>
        <time>2022-06-25T09:13:36.000Z</time>
      </trkpt>
      <trkpt lat="46.85812" lon="3.1862">
        <ele>236</ele>
        <time>2022-06-25T09:13:40.000Z</time>
      </trkpt>
      <trkpt lat="46.85816" lon="3.18602">
        <ele>236</ele>
        <time>2022-06-25T09:13:43.000Z</time>
      </trkpt>
      <trkpt lat="46.85816" lon="3.18596">
        <ele>235.80000305176</ele>
        <time>2022-06-25T09:13:44.000Z</time>
      </trkpt>
      <trkpt lat="46.85816" lon="3.1859">
        <ele>235.60000610352</ele>
        <time>2022-06-25T09:13:45.000Z</time>
      </trkpt>
      <trkpt lat="46.85815" lon="3.18585">
        <ele>235.39999389648</ele>
        <time>2022-06-25T09:13:46.000Z</time>
      </trkpt>
      <trkpt lat="46.85808" lon="3.18578">
        <ele>235.19999694824</ele>
        <time>2022-06-25T09:13:48.000Z</time>
      </trkpt>
      <trkpt lat="46.85803" lon="3.18576">
        <ele>235</ele>
        <time>2022-06-25T09:13:49.000Z</time>
      </trkpt>
      <trkpt lat="46.85789" lon="3.18574">
        <ele>235</ele>
        <time>2022-06-25T09:13:52.000Z</time>
      </trkpt>
      <trkpt lat="46.85784" lon="3.18572">
        <ele>235</ele>
        <time>2022-06-25T09:13:53.000Z</time>
      </trkpt>
      <trkpt lat="46.85779" lon="3.18567">
        <ele>235</ele>
        <time>2022-06-25T09:13:54.000Z</time>
      </trkpt>
      <trkpt lat="46.85771" lon="3.18556">
        <ele>235</ele>
        <time>2022-06-25T09:13:56.000Z</time>
      </trkpt>
      <trkpt lat="46.85752" lon="3.18512">
        <ele>235.19999694824</ele>
        <time>2022-06-25T09:14:03.000Z</time>
      </trkpt>
      <trkpt lat="46.85722" lon="3.18457">
        <ele>235.60000610352</ele>
        <time>2022-06-25T09:14:12.000Z</time>
      </trkpt>
      <trkpt lat="46.85719" lon="3.18452">
        <ele>235.60000610352</ele>
        <time>2022-06-25T09:14:13.000Z</time>
      </trkpt>
      <trkpt lat="46.85691" lon="3.18412">
        <ele>234.19999694824</ele>
        <time>2022-06-25T09:14:21.000Z</time>
      </trkpt>
      <trkpt lat="46.85682" lon="3.18398">
        <ele>233.60000610352</ele>
        <time>2022-06-25T09:14:24.000Z</time>
      </trkpt>
      <trkpt lat="46.85675" lon="3.18388">
        <ele>233.19999694824</ele>
        <time>2022-06-25T09:14:26.000Z</time>
      </trkpt>
      <trkpt lat="46.85651" lon="3.1836">
        <ele>233</ele>
        <time>2022-06-25T09:14:32.000Z</time>
      </trkpt>
      <trkpt lat="46.85645" lon="3.18346">
        <ele>232.60000610352</ele>
        <time>2022-06-25T09:14:34.000Z</time>
      </trkpt>
      <trkpt lat="46.85644" lon="3.18337">
        <ele>232.19999694824</ele>
        <time>2022-06-25T09:14:35.000Z</time>
      </trkpt>
      <trkpt lat="46.85644" lon="3.18326">
        <ele>231.80000305176</ele>
        <time>2022-06-25T09:14:36.000Z</time>
      </trkpt>
      <trkpt lat="46.85646" lon="3.18299">
        <ele>231</ele>
        <time>2022-06-25T09:14:39.000Z</time>
      </trkpt>
      <trkpt lat="46.85647" lon="3.1829">
        <ele>230.80000305176</ele>
        <time>2022-06-25T09:14:40.000Z</time>
      </trkpt>
      <trkpt lat="46.85656" lon="3.18239">
        <ele>230.60000610352</ele>
        <time>2022-06-25T09:14:46.000Z</time>
      </trkpt>
      <trkpt lat="46.85659" lon="3.18185">
        <ele>231.80000305176</ele>
        <time>2022-06-25T09:14:53.000Z</time>
      </trkpt>
      <trkpt lat="46.85661" lon="3.1814">
        <ele>233.80000305176</ele>
        <time>2022-06-25T09:14:59.000Z</time>
      </trkpt>
      <trkpt lat="46.85664" lon="3.18119">
        <ele>234.39999389648</ele>
        <time>2022-06-25T09:15:02.000Z</time>
      </trkpt>
      <trkpt lat="46.85665" lon="3.1811">
        <ele>234.60000610352</ele>
        <time>2022-06-25T09:15:03.000Z</time>
      </trkpt>
      <trkpt lat="46.85668" lon="3.18082">
        <ele>235.39999389648</ele>
        <time>2022-06-25T09:15:07.000Z</time>
      </trkpt>
      <trkpt lat="46.85669" lon="3.18067">
        <ele>236</ele>
        <time>2022-06-25T09:15:09.000Z</time>
      </trkpt>
      <trkpt lat="46.85672" lon="3.18013">
        <ele>236.80000305176</ele>
        <time>2022-06-25T09:15:16.000Z</time>
      </trkpt>
      <trkpt lat="46.85673" lon="3.18006">
        <ele>236.80000305176</ele>
        <time>2022-06-25T09:15:17.000Z</time>
      </trkpt>
      <trkpt lat="46.85679" lon="3.17983">
        <ele>236.80000305176</ele>
        <time>2022-06-25T09:15:20.000Z</time>
      </trkpt>
      <trkpt lat="46.8568" lon="3.17974">
        <ele>236.80000305176</ele>
        <time>2022-06-25T09:15:21.000Z</time>
      </trkpt>
      <trkpt lat="46.8568" lon="3.17967">
        <ele>236.80000305176</ele>
        <time>2022-06-25T09:15:22.000Z</time>
      </trkpt>
      <trkpt lat="46.85675" lon="3.17952">
        <ele>236.80000305176</ele>
        <time>2022-06-25T09:15:24.000Z</time>
      </trkpt>
      <trkpt lat="46.85673" lon="3.17944">
        <ele>236.80000305176</ele>
        <time>2022-06-25T09:15:25.000Z</time>
      </trkpt>
      <trkpt lat="46.85671" lon="3.17918">
        <ele>236.80000305176</ele>
        <time>2022-06-25T09:15:28.000Z</time>
      </trkpt>
      <trkpt lat="46.85668" lon="3.17835">
        <ele>236.39999389648</ele>
        <time>2022-06-25T09:15:38.000Z</time>
      </trkpt>
      <trkpt lat="46.85668" lon="3.17826">
        <ele>236.39999389648</ele>
        <time>2022-06-25T09:15:39.000Z</time>
      </trkpt>
      <trkpt lat="46.85668" lon="3.17808">
        <ele>236.39999389648</ele>
        <time>2022-06-25T09:15:41.000Z</time>
      </trkpt>
      <trkpt lat="46.85666" lon="3.17777">
        <ele>236.60000610352</ele>
        <time>2022-06-25T09:15:45.000Z</time>
      </trkpt>
      <trkpt lat="46.85664" lon="3.17744">
        <ele>237</ele>
        <time>2022-06-25T09:15:49.000Z</time>
      </trkpt>
      <trkpt lat="46.85661" lon="3.17728">
        <ele>237.39999389648</ele>
        <time>2022-06-25T09:15:51.000Z</time>
      </trkpt>
      <trkpt lat="46.85649" lon="3.17674">
        <ele>240.39999389648</ele>
        <time>2022-06-25T09:15:58.000Z</time>
      </trkpt>
      <trkpt lat="46.85644" lon="3.17657">
        <ele>240.80000305176</ele>
        <time>2022-06-25T09:16:00.000Z</time>
      </trkpt>
      <trkpt lat="46.85632" lon="3.17605">
        <ele>240.39999389648</ele>
        <time>2022-06-25T09:16:07.000Z</time>
      </trkpt>
      <trkpt lat="46.85627" lon="3.17588">
        <ele>240.19999694824</ele>
        <time>2022-06-25T09:16:09.000Z</time>
      </trkpt>
      <trkpt lat="46.85615" lon="3.17546">
        <ele>240.19999694824</ele>
        <time>2022-06-25T09:16:15.000Z</time>
      </trkpt>
      <trkpt lat="46.85608" lon="3.17507">
        <ele>239.60000610352</ele>
        <time>2022-06-25T09:16:20.000Z</time>
      </trkpt>
      <trkpt lat="46.85607" lon="3.17499">
        <ele>239.19999694824</ele>
        <time>2022-06-25T09:16:21.000Z</time>
      </trkpt>
      <trkpt lat="46.85604" lon="3.17475">
        <ele>239</ele>
        <time>2022-06-25T09:16:24.000Z</time>
      </trkpt>
      <trkpt lat="46.85602" lon="3.17442">
        <ele>239</ele>
        <time>2022-06-25T09:16:28.000Z</time>
      </trkpt>
      <trkpt lat="46.85598" lon="3.17394">
        <ele>241.19999694824</ele>
        <time>2022-06-25T09:16:34.000Z</time>
      </trkpt>
      <trkpt lat="46.85596" lon="3.17386">
        <ele>241.60000610352</ele>
        <time>2022-06-25T09:16:35.000Z</time>
      </trkpt>
      <trkpt lat="46.85594" lon="3.17379">
        <ele>242.19999694824</ele>
        <time>2022-06-25T09:16:36.000Z</time>
      </trkpt>
      <trkpt lat="46.85584" lon="3.17329">
        <ele>245.39999389648</ele>
        <time>2022-06-25T09:16:42.000Z</time>
      </trkpt>
      <trkpt lat="46.85577" lon="3.17291">
        <ele>245.39999389648</ele>
        <time>2022-06-25T09:16:48.000Z</time>
      </trkpt>
      <trkpt lat="46.85574" lon="3.17267">
        <ele>245.19999694824</ele>
        <time>2022-06-25T09:16:53.000Z</time>
      </trkpt>
      <trkpt lat="46.85578" lon="3.17254">
        <ele>245</ele>
        <time>2022-06-25T09:16:55.000Z</time>
      </trkpt>
      <trkpt lat="46.85584" lon="3.17242">
        <ele>244.80000305176</ele>
        <time>2022-06-25T09:16:57.000Z</time>
      </trkpt>
      <trkpt lat="46.85587" lon="3.17236">
        <ele>244.60000610352</ele>
        <time>2022-06-25T09:16:58.000Z</time>
      </trkpt>
      <trkpt lat="46.85605" lon="3.17205">
        <ele>243.80000305176</ele>
        <time>2022-06-25T09:17:03.000Z</time>
      </trkpt>
      <trkpt lat="46.85609" lon="3.17198">
        <ele>243.60000610352</ele>
        <time>2022-06-25T09:17:04.000Z</time>
      </trkpt>
      <trkpt lat="46.85632" lon="3.17148">
        <ele>243</ele>
        <time>2022-06-25T09:17:11.000Z</time>
      </trkpt>
      <trkpt lat="46.85639" lon="3.17126">
        <ele>243.80000305176</ele>
        <time>2022-06-25T09:17:14.000Z</time>
      </trkpt>
      <trkpt lat="46.85646" lon="3.17106">
        <ele>244</ele>
        <time>2022-06-25T09:17:17.000Z</time>
      </trkpt>
      <trkpt lat="46.85651" lon="3.17084">
        <ele>245.39999389648</ele>
        <time>2022-06-25T09:17:20.000Z</time>
      </trkpt>
      <trkpt lat="46.85661" lon="3.17045">
        <ele>246.60000610352</ele>
        <time>2022-06-25T09:17:25.000Z</time>
      </trkpt>
      <trkpt lat="46.85672" lon="3.16983">
        <ele>243</ele>
        <time>2022-06-25T09:17:32.000Z</time>
      </trkpt>
      <trkpt lat="46.85689" lon="3.1691">
        <ele>241.39999389648</ele>
        <time>2022-06-25T09:17:40.000Z</time>
      </trkpt>
      <trkpt lat="46.85705" lon="3.16855">
        <ele>241</ele>
        <time>2022-06-25T09:17:46.000Z</time>
      </trkpt>
      <trkpt lat="46.85707" lon="3.16846">
        <ele>240.80000305176</ele>
        <time>2022-06-25T09:17:47.000Z</time>
      </trkpt>
      <trkpt lat="46.85711" lon="3.1683">
        <ele>240.80000305176</ele>
        <time>2022-06-25T09:17:49.000Z</time>
      </trkpt>
      <trkpt lat="46.85713" lon="3.16819">
        <ele>240.60000610352</ele>
        <time>2022-06-25T09:17:50.000Z</time>
      </trkpt>
      <trkpt lat="46.85717" lon="3.16783">
        <ele>240.60000610352</ele>
        <time>2022-06-25T09:17:54.000Z</time>
      </trkpt>
      <trkpt lat="46.85716" lon="3.16722">
        <ele>240</ele>
        <time>2022-06-25T09:18:00.000Z</time>
      </trkpt>
      <trkpt lat="46.85715" lon="3.16692">
        <ele>240</ele>
        <time>2022-06-25T09:18:03.000Z</time>
      </trkpt>
      <trkpt lat="46.85711" lon="3.16652">
        <ele>239.80000305176</ele>
        <time>2022-06-25T09:18:07.000Z</time>
      </trkpt>
      <trkpt lat="46.85711" lon="3.16642">
        <ele>239.80000305176</ele>
        <time>2022-06-25T09:18:08.000Z</time>
      </trkpt>
      <trkpt lat="46.8571" lon="3.16609">
        <ele>240.80000305176</ele>
        <time>2022-06-25T09:18:11.000Z</time>
      </trkpt>
      <trkpt lat="46.85712" lon="3.16592">
        <ele>240.39999389648</ele>
        <time>2022-06-25T09:18:13.000Z</time>
      </trkpt>
      <trkpt lat="46.85718" lon="3.16571">
        <ele>240</ele>
        <time>2022-06-25T09:18:15.000Z</time>
      </trkpt>
      <trkpt lat="46.85722" lon="3.16562">
        <ele>239.39999389648</ele>
        <time>2022-06-25T09:18:16.000Z</time>
      </trkpt>
      <trkpt lat="46.85727" lon="3.16554">
        <ele>238.60000610352</ele>
        <time>2022-06-25T09:18:17.000Z</time>
      </trkpt>
      <trkpt lat="46.85749" lon="3.16528">
        <ele>237.39999389648</ele>
        <time>2022-06-25T09:18:21.000Z</time>
      </trkpt>
      <trkpt lat="46.85767" lon="3.16508">
        <ele>237.19999694824</ele>
        <time>2022-06-25T09:18:24.000Z</time>
      </trkpt>
      <trkpt lat="46.85772" lon="3.16501">
        <ele>237.39999389648</ele>
        <time>2022-06-25T09:18:25.000Z</time>
      </trkpt>
      <trkpt lat="46.85812" lon="3.16453">
        <ele>238.19999694824</ele>
        <time>2022-06-25T09:18:32.000Z</time>
      </trkpt>
      <trkpt lat="46.85855" lon="3.16401">
        <ele>237</ele>
        <time>2022-06-25T09:18:40.000Z</time>
      </trkpt>
      <trkpt lat="46.85867" lon="3.16386">
        <ele>237</ele>
        <time>2022-06-25T09:18:42.000Z</time>
      </trkpt>
      <trkpt lat="46.85877" lon="3.16374">
        <ele>237.39999389648</ele>
        <time>2022-06-25T09:18:44.000Z</time>
      </trkpt>
      <trkpt lat="46.85911" lon="3.16331">
        <ele>237.80000305176</ele>
        <time>2022-06-25T09:18:50.000Z</time>
      </trkpt>
      <trkpt lat="46.85935" lon="3.16302">
        <ele>236</ele>
        <time>2022-06-25T09:18:54.000Z</time>
      </trkpt>
      <trkpt lat="46.85964" lon="3.16266">
        <ele>234.19999694824</ele>
        <time>2022-06-25T09:18:59.000Z</time>
      </trkpt>
      <trkpt lat="46.85971" lon="3.16256">
        <ele>233</ele>
        <time>2022-06-25T09:19:00.000Z</time>
      </trkpt>
      <trkpt lat="46.85989" lon="3.16237">
        <ele>231.19999694824</ele>
        <time>2022-06-25T09:19:03.000Z</time>
      </trkpt>
      <trkpt lat="46.85995" lon="3.16235">
        <ele>230.60000610352</ele>
        <time>2022-06-25T09:19:04.000Z</time>
      </trkpt>
      <trkpt lat="46.86003" lon="3.16235">
        <ele>230.19999694824</ele>
        <time>2022-06-25T09:19:05.000Z</time>
      </trkpt>
      <trkpt lat="46.86015" lon="3.16229">
        <ele>229.39999389648</ele>
        <time>2022-06-25T09:19:07.000Z</time>
      </trkpt>
      <trkpt lat="46.86021" lon="3.16221">
        <ele>229</ele>
        <time>2022-06-25T09:19:08.000Z</time>
      </trkpt>
      <trkpt lat="46.86025" lon="3.1621">
        <ele>228.39999389648</ele>
        <time>2022-06-25T09:19:09.000Z</time>
      </trkpt>
      <trkpt lat="46.86023" lon="3.16189">
        <ele>227.60000610352</ele>
        <time>2022-06-25T09:19:11.000Z</time>
      </trkpt>
      <trkpt lat="46.86017" lon="3.16171">
        <ele>227.80000305176</ele>
        <time>2022-06-25T09:19:13.000Z</time>
      </trkpt>
      <trkpt lat="46.86015" lon="3.16159">
        <ele>227.80000305176</ele>
        <time>2022-06-25T09:19:14.000Z</time>
      </trkpt>
      <trkpt lat="46.86017" lon="3.1615">
        <ele>227.39999389648</ele>
        <time>2022-06-25T09:19:15.000Z</time>
      </trkpt>
      <trkpt lat="46.86022" lon="3.16135">
        <ele>226.80000305176</ele>
        <time>2022-06-25T09:19:17.000Z</time>
      </trkpt>
      <trkpt lat="46.86033" lon="3.16097">
        <ele>226</ele>
        <time>2022-06-25T09:19:21.000Z</time>
      </trkpt>
      <trkpt lat="46.86041" lon="3.16064">
        <ele>225.60000610352</ele>
        <time>2022-06-25T09:19:24.000Z</time>
      </trkpt>
      <trkpt lat="46.86048" lon="3.16032">
        <ele>225</ele>
        <time>2022-06-25T09:19:27.000Z</time>
      </trkpt>
      <trkpt lat="46.8605" lon="3.1602">
        <ele>224.60000610352</ele>
        <time>2022-06-25T09:19:28.000Z</time>
      </trkpt>
      <trkpt lat="46.86057" lon="3.15986">
        <ele>223.39999389648</ele>
        <time>2022-06-25T09:19:31.000Z</time>
      </trkpt>
      <trkpt lat="46.86059" lon="3.15974">
        <ele>223.19999694824</ele>
        <time>2022-06-25T09:19:32.000Z</time>
      </trkpt>
      <trkpt lat="46.86065" lon="3.1594">
        <ele>222.19999694824</ele>
        <time>2022-06-25T09:19:35.000Z</time>
      </trkpt>
      <trkpt lat="46.86071" lon="3.15913">
        <ele>220.80000305176</ele>
        <time>2022-06-25T09:19:37.000Z</time>
      </trkpt>
      <trkpt lat="46.86079" lon="3.15888">
        <ele>220</ele>
        <time>2022-06-25T09:19:39.000Z</time>
      </trkpt>
      <trkpt lat="46.86088" lon="3.15865">
        <ele>219.60000610352</ele>
        <time>2022-06-25T09:19:41.000Z</time>
      </trkpt>
      <trkpt lat="46.86094" lon="3.15853">
        <ele>219</ele>
        <time>2022-06-25T09:19:42.000Z</time>
      </trkpt>
      <trkpt lat="46.8612" lon="3.15812">
        <ele>216.60000610352</ele>
        <time>2022-06-25T09:19:46.000Z</time>
      </trkpt>
      <trkpt lat="46.86145" lon="3.15788">
        <ele>215.19999694824</ele>
        <time>2022-06-25T09:19:49.000Z</time>
      </trkpt>
      <trkpt lat="46.86154" lon="3.15782">
        <ele>214.19999694824</ele>
        <time>2022-06-25T09:19:50.000Z</time>
      </trkpt>
      <trkpt lat="46.86174" lon="3.15772">
        <ele>213.19999694824</ele>
        <time>2022-06-25T09:19:52.000Z</time>
      </trkpt>
      <trkpt lat="46.86191" lon="3.15767">
        <ele>212.39999389648</ele>
        <time>2022-06-25T09:19:54.000Z</time>
      </trkpt>
      <trkpt lat="46.86231" lon="3.15764">
        <ele>212.80000305176</ele>
        <time>2022-06-25T09:19:58.000Z</time>
      </trkpt>
      <trkpt lat="46.8624" lon="3.15765">
        <ele>213.39999389648</ele>
        <time>2022-06-25T09:19:59.000Z</time>
      </trkpt>
      <trkpt lat="46.86252" lon="3.15768">
        <ele>214.39999389648</ele>
        <time>2022-06-25T09:20:00.000Z</time>
      </trkpt>
      <trkpt lat="46.8626" lon="3.15771">
        <ele>215</ele>
        <time>2022-06-25T09:20:01.000Z</time>
      </trkpt>
      <trkpt lat="46.86276" lon="3.15778">
        <ele>215</ele>
        <time>2022-06-25T09:20:03.000Z</time>
      </trkpt>
      <trkpt lat="46.86312" lon="3.15803">
        <ele>213.80000305176</ele>
        <time>2022-06-25T09:20:08.000Z</time>
      </trkpt>
      <trkpt lat="46.8636" lon="3.15836">
        <ele>212.60000610352</ele>
        <time>2022-06-25T09:20:15.000Z</time>
      </trkpt>
      <trkpt lat="46.86402" lon="3.15847">
        <ele>212</ele>
        <time>2022-06-25T09:20:21.000Z</time>
      </trkpt>
      <trkpt lat="46.86425" lon="3.15845">
        <ele>211.80000305176</ele>
        <time>2022-06-25T09:20:24.000Z</time>
      </trkpt>
      <trkpt lat="46.86438" lon="3.15841">
        <ele>211.19999694824</ele>
        <time>2022-06-25T09:20:26.000Z</time>
      </trkpt>
      <trkpt lat="46.86454" lon="3.15835">
        <ele>210.39999389648</ele>
        <time>2022-06-25T09:20:28.000Z</time>
      </trkpt>
      <trkpt lat="46.86468" lon="3.15824">
        <ele>208.60000610352</ele>
        <time>2022-06-25T09:20:30.000Z</time>
      </trkpt>
      <trkpt lat="46.86473" lon="3.15819">
        <ele>207.80000305176</ele>
        <time>2022-06-25T09:20:31.000Z</time>
      </trkpt>
      <trkpt lat="46.86492" lon="3.15796">
        <ele>206.39999389648</ele>
        <time>2022-06-25T09:20:34.000Z</time>
      </trkpt>
      <trkpt lat="46.86522" lon="3.15756">
        <ele>206.80000305176</ele>
        <time>2022-06-25T09:20:39.000Z</time>
      </trkpt>
      <trkpt lat="46.86536" lon="3.15738">
        <ele>207.19999694824</ele>
        <time>2022-06-25T09:20:42.000Z</time>
      </trkpt>
      <trkpt lat="46.86549" lon="3.15738">
        <ele>206.60000610352</ele>
        <time>2022-06-25T09:20:44.000Z</time>
      </trkpt>
      <trkpt lat="46.86558" lon="3.1575">
        <ele>206.60000610352</ele>
        <time>2022-06-25T09:20:46.000Z</time>
      </trkpt>
      <trkpt lat="46.86562" lon="3.15759">
        <ele>206.80000305176</ele>
        <time>2022-06-25T09:20:47.000Z</time>
      </trkpt>
      <trkpt lat="46.86571" lon="3.15773">
        <ele>206.80000305176</ele>
        <time>2022-06-25T09:20:49.000Z</time>
      </trkpt>
      <trkpt lat="46.86595" lon="3.15816">
        <ele>206</ele>
        <time>2022-06-25T09:20:55.000Z</time>
      </trkpt>
      <trkpt lat="46.86622" lon="3.15863">
        <ele>204.60000610352</ele>
        <time>2022-06-25T09:21:01.000Z</time>
      </trkpt>
      <trkpt lat="46.86627" lon="3.1587">
        <ele>204.19999694824</ele>
        <time>2022-06-25T09:21:02.000Z</time>
      </trkpt>
      <trkpt lat="46.86664" lon="3.15931">
        <ele>203</ele>
        <time>2022-06-25T09:21:10.000Z</time>
      </trkpt>
      <trkpt lat="46.86669" lon="3.15939">
        <ele>203</ele>
        <time>2022-06-25T09:21:11.000Z</time>
      </trkpt>
      <trkpt lat="46.86679" lon="3.15955">
        <ele>203.39999389648</ele>
        <time>2022-06-25T09:21:13.000Z</time>
      </trkpt>
      <trkpt lat="46.8669" lon="3.15971">
        <ele>203.19999694824</ele>
        <time>2022-06-25T09:21:15.000Z</time>
      </trkpt>
      <trkpt lat="46.86704" lon="3.15994">
        <ele>202.80000305176</ele>
        <time>2022-06-25T09:21:18.000Z</time>
      </trkpt>
      <trkpt lat="46.86705" lon="3.16003">
        <ele>202</ele>
        <time>2022-06-25T09:21:19.000Z</time>
      </trkpt>
      <trkpt lat="46.86705" lon="3.16012">
        <ele>201.39999389648</ele>
        <time>2022-06-25T09:21:20.000Z</time>
      </trkpt>
      <trkpt lat="46.86702" lon="3.16031">
        <ele>200</ele>
        <time>2022-06-25T09:21:22.000Z</time>
      </trkpt>
      <trkpt lat="46.86702" lon="3.1604">
        <ele>199.39999389648</ele>
        <time>2022-06-25T09:21:23.000Z</time>
      </trkpt>
      <trkpt lat="46.86703" lon="3.16049">
        <ele>198.80000305176</ele>
        <time>2022-06-25T09:21:24.000Z</time>
      </trkpt>
      <trkpt lat="46.86706" lon="3.16059">
        <ele>198.80000305176</ele>
        <time>2022-06-25T09:21:25.000Z</time>
      </trkpt>
      <trkpt lat="46.8671" lon="3.16066">
        <ele>198.80000305176</ele>
        <time>2022-06-25T09:21:26.000Z</time>
      </trkpt>
      <trkpt lat="46.8672" lon="3.16077">
        <ele>199.80000305176</ele>
        <time>2022-06-25T09:21:28.000Z</time>
      </trkpt>
      <trkpt lat="46.86726" lon="3.1608">
        <ele>200.60000610352</ele>
        <time>2022-06-25T09:21:29.000Z</time>
      </trkpt>
      <trkpt lat="46.86733" lon="3.1608">
        <ele>201.19999694824</ele>
        <time>2022-06-25T09:21:30.000Z</time>
      </trkpt>
      <trkpt lat="46.8674" lon="3.16079">
        <ele>201.39999389648</ele>
        <time>2022-06-25T09:21:31.000Z</time>
      </trkpt>
      <trkpt lat="46.86746" lon="3.16077">
        <ele>201.60000610352</ele>
        <time>2022-06-25T09:21:32.000Z</time>
      </trkpt>
      <trkpt lat="46.86756" lon="3.16065">
        <ele>201.60000610352</ele>
        <time>2022-06-25T09:21:34.000Z</time>
      </trkpt>
      <trkpt lat="46.86762" lon="3.16047">
        <ele>201</ele>
        <time>2022-06-25T09:21:36.000Z</time>
      </trkpt>
      <trkpt lat="46.86764" lon="3.16038">
        <ele>201</ele>
        <time>2022-06-25T09:21:37.000Z</time>
      </trkpt>
      <trkpt lat="46.86764" lon="3.16028">
        <ele>201</ele>
        <time>2022-06-25T09:21:38.000Z</time>
      </trkpt>
      <trkpt lat="46.86764" lon="3.16007">
        <ele>201.19999694824</ele>
        <time>2022-06-25T09:21:40.000Z</time>
      </trkpt>
      <trkpt lat="46.86766" lon="3.15997">
        <ele>201.60000610352</ele>
        <time>2022-06-25T09:21:41.000Z</time>
      </trkpt>
      <trkpt lat="46.86768" lon="3.15988">
        <ele>201.39999389648</ele>
        <time>2022-06-25T09:21:42.000Z</time>
      </trkpt>
      <trkpt lat="46.86775" lon="3.15973">
        <ele>201.19999694824</ele>
        <time>2022-06-25T09:21:44.000Z</time>
      </trkpt>
      <trkpt lat="46.86809" lon="3.15914">
        <ele>200.19999694824</ele>
        <time>2022-06-25T09:21:51.000Z</time>
      </trkpt>
      <trkpt lat="46.86814" lon="3.15906">
        <ele>200</ele>
        <time>2022-06-25T09:21:52.000Z</time>
      </trkpt>
      <trkpt lat="46.86846" lon="3.15855">
        <ele>197.80000305176</ele>
        <time>2022-06-25T09:21:58.000Z</time>
      </trkpt>
      <trkpt lat="46.86864" lon="3.15827">
        <ele>195.80000305176</ele>
        <time>2022-06-25T09:22:01.000Z</time>
      </trkpt>
      <trkpt lat="46.86874" lon="3.15811">
        <ele>194.80000305176</ele>
        <time>2022-06-25T09:22:03.000Z</time>
      </trkpt>
      <trkpt lat="46.86907" lon="3.15756">
        <ele>192.80000305176</ele>
        <time>2022-06-25T09:22:09.000Z</time>
      </trkpt>
      <trkpt lat="46.8693" lon="3.1572">
        <ele>191.19999694824</ele>
        <time>2022-06-25T09:22:13.000Z</time>
      </trkpt>
      <trkpt lat="46.86957" lon="3.15676">
        <ele>191.39999389648</ele>
        <time>2022-06-25T09:22:18.000Z</time>
      </trkpt>
      <trkpt lat="46.86982" lon="3.15635">
        <ele>191.19999694824</ele>
        <time>2022-06-25T09:22:23.000Z</time>
      </trkpt>
      <trkpt lat="46.86993" lon="3.15618">
        <ele>191</ele>
        <time>2022-06-25T09:22:25.000Z</time>
      </trkpt>
      <trkpt lat="46.8702" lon="3.15579">
        <ele>190.19999694824</ele>
        <time>2022-06-25T09:22:30.000Z</time>
      </trkpt>
      <trkpt lat="46.87026" lon="3.15572">
        <ele>190</ele>
        <time>2022-06-25T09:22:31.000Z</time>
      </trkpt>
      <trkpt lat="46.87058" lon="3.15543">
        <ele>190.80000305176</ele>
        <time>2022-06-25T09:22:36.000Z</time>
      </trkpt>
      <trkpt lat="46.87065" lon="3.15538">
        <ele>190.80000305176</ele>
        <time>2022-06-25T09:22:37.000Z</time>
      </trkpt>
      <trkpt lat="46.87108" lon="3.15516">
        <ele>190.39999389648</ele>
        <time>2022-06-25T09:22:43.000Z</time>
      </trkpt>
      <trkpt lat="46.8716" lon="3.15507">
        <ele>187.19999694824</ele>
        <time>2022-06-25T09:22:50.000Z</time>
      </trkpt>
      <trkpt lat="46.87196" lon="3.15508">
        <ele>187</ele>
        <time>2022-06-25T09:22:55.000Z</time>
      </trkpt>
      <trkpt lat="46.87224" lon="3.15509">
        <ele>187</ele>
        <time>2022-06-25T09:22:59.000Z</time>
      </trkpt>
      <trkpt lat="46.87275" lon="3.15516">
        <ele>188</ele>
        <time>2022-06-25T09:23:06.000Z</time>
      </trkpt>
      <trkpt lat="46.87282" lon="3.1552">
        <ele>188</ele>
        <time>2022-06-25T09:23:07.000Z</time>
      </trkpt>
      <trkpt lat="46.87293" lon="3.15532">
        <ele>188.60000610352</ele>
        <time>2022-06-25T09:23:09.000Z</time>
      </trkpt>
      <trkpt lat="46.87304" lon="3.15547">
        <ele>189</ele>
        <time>2022-06-25T09:23:11.000Z</time>
      </trkpt>
      <trkpt lat="46.87311" lon="3.15551">
        <ele>189.19999694824</ele>
        <time>2022-06-25T09:23:12.000Z</time>
      </trkpt>
      <trkpt lat="46.87319" lon="3.15553">
        <ele>189.19999694824</ele>
        <time>2022-06-25T09:23:13.000Z</time>
      </trkpt>
      <trkpt lat="46.87333" lon="3.1555">
        <ele>189</ele>
        <time>2022-06-25T09:23:15.000Z</time>
      </trkpt>
      <trkpt lat="46.87345" lon="3.15536">
        <ele>189</ele>
        <time>2022-06-25T09:23:17.000Z</time>
      </trkpt>
      <trkpt lat="46.87349" lon="3.15527">
        <ele>189</ele>
        <time>2022-06-25T09:23:18.000Z</time>
      </trkpt>
      <trkpt lat="46.87351" lon="3.15516">
        <ele>189</ele>
        <time>2022-06-25T09:23:19.000Z</time>
      </trkpt>
      <trkpt lat="46.87351" lon="3.15493">
        <ele>189</ele>
        <time>2022-06-25T09:23:21.000Z</time>
      </trkpt>
      <trkpt lat="46.87347" lon="3.1547">
        <ele>188.19999694824</ele>
        <time>2022-06-25T09:23:23.000Z</time>
      </trkpt>
      <trkpt lat="46.87347" lon="3.15448">
        <ele>187.39999389648</ele>
        <time>2022-06-25T09:23:25.000Z</time>
      </trkpt>
      <trkpt lat="46.87353" lon="3.15427">
        <ele>187</ele>
        <time>2022-06-25T09:23:27.000Z</time>
      </trkpt>
      <trkpt lat="46.87357" lon="3.15418">
        <ele>186.80000305176</ele>
        <time>2022-06-25T09:23:28.000Z</time>
      </trkpt>
      <trkpt lat="46.87369" lon="3.1539">
        <ele>186</ele>
        <time>2022-06-25T09:23:31.000Z</time>
      </trkpt>
      <trkpt lat="46.87376" lon="3.15371">
        <ele>186</ele>
        <time>2022-06-25T09:23:33.000Z</time>
      </trkpt>
      <trkpt lat="46.87381" lon="3.15361">
        <ele>186</ele>
        <time>2022-06-25T09:23:34.000Z</time>
      </trkpt>
      <trkpt lat="46.87392" lon="3.15348">
        <ele>186</ele>
        <time>2022-06-25T09:23:36.000Z</time>
      </trkpt>
      <trkpt lat="46.87405" lon="3.15344">
        <ele>185.80000305176</ele>
        <time>2022-06-25T09:23:38.000Z</time>
      </trkpt>
      <trkpt lat="46.87411" lon="3.15341">
        <ele>185.60000610352</ele>
        <time>2022-06-25T09:23:39.000Z</time>
      </trkpt>
      <trkpt lat="46.87417" lon="3.15337">
        <ele>185.60000610352</ele>
        <time>2022-06-25T09:23:40.000Z</time>
      </trkpt>
      <trkpt lat="46.87429" lon="3.15328">
        <ele>186</ele>
        <time>2022-06-25T09:23:42.000Z</time>
      </trkpt>
      <trkpt lat="46.87436" lon="3.15326">
        <ele>186.39999389648</ele>
        <time>2022-06-25T09:23:43.000Z</time>
      </trkpt>
      <trkpt lat="46.87443" lon="3.15326">
        <ele>186.60000610352</ele>
        <time>2022-06-25T09:23:44.000Z</time>
      </trkpt>
      <trkpt lat="46.87464" lon="3.15331">
        <ele>187</ele>
        <time>2022-06-25T09:23:47.000Z</time>
      </trkpt>
      <trkpt lat="46.87485" lon="3.15334">
        <ele>187.60000610352</ele>
        <time>2022-06-25T09:23:50.000Z</time>
      </trkpt>
      <trkpt lat="46.87506" lon="3.15333">
        <ele>187.60000610352</ele>
        <time>2022-06-25T09:23:53.000Z</time>
      </trkpt>
      <trkpt lat="46.87553" lon="3.15322">
        <ele>189.60000610352</ele>
        <time>2022-06-25T09:24:00.000Z</time>
      </trkpt>
      <trkpt lat="46.87597" lon="3.15314">
        <ele>192.19999694824</ele>
        <time>2022-06-25T09:24:07.000Z</time>
      </trkpt>
      <trkpt lat="46.87614" lon="3.15313">
        <ele>192.80000305176</ele>
        <time>2022-06-25T09:24:10.000Z</time>
      </trkpt>
      <trkpt lat="46.87625" lon="3.15314">
        <ele>193.19999694824</ele>
        <time>2022-06-25T09:24:12.000Z</time>
      </trkpt>
      <trkpt lat="46.87636" lon="3.15315">
        <ele>193.60000610352</ele>
        <time>2022-06-25T09:24:14.000Z</time>
      </trkpt>
      <trkpt lat="46.8766" lon="3.15317">
        <ele>194.39999389648</ele>
        <time>2022-06-25T09:24:18.000Z</time>
      </trkpt>
      <trkpt lat="46.87677" lon="3.1532">
        <ele>195</ele>
        <time>2022-06-25T09:24:21.000Z</time>
      </trkpt>
      <trkpt lat="46.8771" lon="3.15329">
        <ele>194.60000610352</ele>
        <time>2022-06-25T09:24:27.000Z</time>
      </trkpt>
      <trkpt lat="46.87733" lon="3.15333">
        <ele>194.39999389648</ele>
        <time>2022-06-25T09:24:31.000Z</time>
      </trkpt>
      <trkpt lat="46.87785" lon="3.15345">
        <ele>195.19999694824</ele>
        <time>2022-06-25T09:24:40.000Z</time>
      </trkpt>
      <trkpt lat="46.87839" lon="3.15356">
        <ele>195</ele>
        <time>2022-06-25T09:24:49.000Z</time>
      </trkpt>
      <trkpt lat="46.87852" lon="3.15356">
        <ele>195</ele>
        <time>2022-06-25T09:24:51.000Z</time>
      </trkpt>
      <trkpt lat="46.87895" lon="3.15358">
        <ele>194.19999694824</ele>
        <time>2022-06-25T09:24:58.000Z</time>
      </trkpt>
      <trkpt lat="46.879" lon="3.15357">
        <ele>194</ele>
        <time>2022-06-25T09:24:59.000Z</time>
      </trkpt>
      <trkpt lat="46.87906" lon="3.15354">
        <ele>194.19999694824</ele>
        <time>2022-06-25T09:25:00.000Z</time>
      </trkpt>
      <trkpt lat="46.87917" lon="3.15347">
        <ele>194.80000305176</ele>
        <time>2022-06-25T09:25:02.000Z</time>
      </trkpt>
      <trkpt lat="46.87923" lon="3.15344">
        <ele>195.19999694824</ele>
        <time>2022-06-25T09:25:03.000Z</time>
      </trkpt>
      <trkpt lat="46.8796" lon="3.15335">
        <ele>196.19999694824</ele>
        <time>2022-06-25T09:25:09.000Z</time>
      </trkpt>
      <trkpt lat="46.88001" lon="3.15332">
        <ele>199</ele>
        <time>2022-06-25T09:25:16.000Z</time>
      </trkpt>
      <trkpt lat="46.88006" lon="3.15332">
        <ele>199.60000610352</ele>
        <time>2022-06-25T09:25:17.000Z</time>
      </trkpt>
      <trkpt lat="46.88039" lon="3.15336">
        <ele>201</ele>
        <time>2022-06-25T09:25:23.000Z</time>
      </trkpt>
      <trkpt lat="46.88044" lon="3.15337">
        <ele>201</ele>
        <time>2022-06-25T09:25:24.000Z</time>
      </trkpt>
      <trkpt lat="46.88065" lon="3.1534">
        <ele>201</ele>
        <time>2022-06-25T09:25:28.000Z</time>
      </trkpt>
      <trkpt lat="46.8808" lon="3.15345">
        <ele>200.39999389648</ele>
        <time>2022-06-25T09:25:31.000Z</time>
      </trkpt>
      <trkpt lat="46.88086" lon="3.15347">
        <ele>200.19999694824</ele>
        <time>2022-06-25T09:25:32.000Z</time>
      </trkpt>
      <trkpt lat="46.88111" lon="3.15356">
        <ele>200</ele>
        <time>2022-06-25T09:25:37.000Z</time>
      </trkpt>
      <trkpt lat="46.88148" lon="3.15362">
        <ele>201</ele>
        <time>2022-06-25T09:25:44.000Z</time>
      </trkpt>
      <trkpt lat="46.88153" lon="3.15362">
        <ele>201.19999694824</ele>
        <time>2022-06-25T09:25:45.000Z</time>
      </trkpt>
      <trkpt lat="46.88175" lon="3.15356">
        <ele>202</ele>
        <time>2022-06-25T09:25:49.000Z</time>
      </trkpt>
      <trkpt lat="46.8818" lon="3.15354">
        <ele>202</ele>
        <time>2022-06-25T09:25:50.000Z</time>
      </trkpt>
      <trkpt lat="46.88185" lon="3.15351">
        <ele>202.39999389648</ele>
        <time>2022-06-25T09:25:51.000Z</time>
      </trkpt>
      <trkpt lat="46.88201" lon="3.15339">
        <ele>203</ele>
        <time>2022-06-25T09:25:54.000Z</time>
      </trkpt>
      <trkpt lat="46.88214" lon="3.15327">
        <ele>203.39999389648</ele>
        <time>2022-06-25T09:25:57.000Z</time>
      </trkpt>
      <trkpt lat="46.8822" lon="3.1532">
        <ele>203.60000610352</ele>
        <time>2022-06-25T09:25:58.000Z</time>
      </trkpt>
      <trkpt lat="46.88234" lon="3.15299">
        <ele>205</ele>
        <time>2022-06-25T09:26:02.000Z</time>
      </trkpt>
      <trkpt lat="46.88242" lon="3.15286">
        <ele>205.80000305176</ele>
        <time>2022-06-25T09:26:04.000Z</time>
      </trkpt>
      <trkpt lat="46.88247" lon="3.15274">
        <ele>206</ele>
        <time>2022-06-25T09:26:06.000Z</time>
      </trkpt>
      <trkpt lat="46.88253" lon="3.15262">
        <ele>205.60000610352</ele>
        <time>2022-06-25T09:26:08.000Z</time>
      </trkpt>
      <trkpt lat="46.88263" lon="3.15243">
        <ele>206</ele>
        <time>2022-06-25T09:26:11.000Z</time>
      </trkpt>
      <trkpt lat="46.88269" lon="3.15227">
        <ele>205.60000610352</ele>
        <time>2022-06-25T09:26:13.000Z</time>
      </trkpt>
      <trkpt lat="46.88281" lon="3.15209">
        <ele>205.19999694824</ele>
        <time>2022-06-25T09:26:16.000Z</time>
      </trkpt>
      <trkpt lat="46.8829" lon="3.152">
        <ele>205.39999389648</ele>
        <time>2022-06-25T09:26:18.000Z</time>
      </trkpt>
      <trkpt lat="46.88307" lon="3.1519">
        <ele>205.80000305176</ele>
        <time>2022-06-25T09:26:21.000Z</time>
      </trkpt>
      <trkpt lat="46.88312" lon="3.15189">
        <ele>205.80000305176</ele>
        <time>2022-06-25T09:26:22.000Z</time>
      </trkpt>
      <trkpt lat="46.88353" lon="3.15173">
        <ele>207.39999389648</ele>
        <time>2022-06-25T09:26:30.000Z</time>
      </trkpt>
      <trkpt lat="46.88364" lon="3.15164">
        <ele>207.80000305176</ele>
        <time>2022-06-25T09:26:34.000Z</time>
      </trkpt>
      <trkpt lat="46.8838" lon="3.15153">
        <ele>207.60000610352</ele>
        <time>2022-06-25T09:26:38.000Z</time>
      </trkpt>
      <trkpt lat="46.88394" lon="3.15143">
        <ele>207.19999694824</ele>
        <time>2022-06-25T09:26:41.000Z</time>
      </trkpt>
      <trkpt lat="46.884" lon="3.15134">
        <ele>207</ele>
        <time>2022-06-25T09:26:43.000Z</time>
      </trkpt>
      <trkpt lat="46.88404" lon="3.15129">
        <ele>206.80000305176</ele>
        <time>2022-06-25T09:26:44.000Z</time>
      </trkpt>
      <trkpt lat="46.88407" lon="3.15124">
        <ele>206.60000610352</ele>
        <time>2022-06-25T09:26:45.000Z</time>
      </trkpt>
      <trkpt lat="46.88411" lon="3.15112">
        <ele>206</ele>
        <time>2022-06-25T09:26:47.000Z</time>
      </trkpt>
      <trkpt lat="46.88413" lon="3.15105">
        <ele>205.60000610352</ele>
        <time>2022-06-25T09:26:48.000Z</time>
      </trkpt>
      <trkpt lat="46.88414" lon="3.15097">
        <ele>205.39999389648</ele>
        <time>2022-06-25T09:26:49.000Z</time>
      </trkpt>
      <trkpt lat="46.88416" lon="3.15084">
        <ele>205.39999389648</ele>
        <time>2022-06-25T09:26:51.000Z</time>
      </trkpt>
      <trkpt lat="46.88418" lon="3.15078">
        <ele>205.39999389648</ele>
        <time>2022-06-25T09:26:52.000Z</time>
      </trkpt>
      <trkpt lat="46.88421" lon="3.1506">
        <ele>204.80000305176</ele>
        <time>2022-06-25T09:26:54.000Z</time>
      </trkpt>
      <trkpt lat="46.88426" lon="3.15036">
        <ele>204.19999694824</ele>
        <time>2022-06-25T09:26:57.000Z</time>
      </trkpt>
      <trkpt lat="46.8844" lon="3.14984">
        <ele>205</ele>
        <time>2022-06-25T09:27:04.000Z</time>
      </trkpt>
      <trkpt lat="46.88441" lon="3.14978">
        <ele>205</ele>
        <time>2022-06-25T09:27:05.000Z</time>
      </trkpt>
      <trkpt lat="46.88441" lon="3.14971">
        <ele>205</ele>
        <time>2022-06-25T09:27:06.000Z</time>
      </trkpt>
      <trkpt lat="46.88437" lon="3.14954">
        <ele>205</ele>
        <time>2022-06-25T09:27:08.000Z</time>
      </trkpt>
      <trkpt lat="46.88435" lon="3.14946">
        <ele>205</ele>
        <time>2022-06-25T09:27:09.000Z</time>
      </trkpt>
      <trkpt lat="46.88433" lon="3.14922">
        <ele>205.19999694824</ele>
        <time>2022-06-25T09:27:12.000Z</time>
      </trkpt>
      <trkpt lat="46.8843" lon="3.14877">
        <ele>206.19999694824</ele>
        <time>2022-06-25T09:27:18.000Z</time>
      </trkpt>
      <trkpt lat="46.8843" lon="3.14871">
        <ele>206.39999389648</ele>
        <time>2022-06-25T09:27:19.000Z</time>
      </trkpt>
      <trkpt lat="46.88428" lon="3.14863">
        <ele>206.60000610352</ele>
        <time>2022-06-25T09:27:20.000Z</time>
      </trkpt>
      <trkpt lat="46.88425" lon="3.14857">
        <ele>206.80000305176</ele>
        <time>2022-06-25T09:27:21.000Z</time>
      </trkpt>
      <trkpt lat="46.8842" lon="3.14849">
        <ele>206.80000305176</ele>
        <time>2022-06-25T09:27:23.000Z</time>
      </trkpt>
      <trkpt lat="46.88416" lon="3.14846">
        <ele>206.80000305176</ele>
        <time>2022-06-25T09:27:24.000Z</time>
      </trkpt>
      <trkpt lat="46.88411" lon="3.14843">
        <ele>206.80000305176</ele>
        <time>2022-06-25T09:27:25.000Z</time>
      </trkpt>
      <trkpt lat="46.88401" lon="3.14841">
        <ele>206.39999389648</ele>
        <time>2022-06-25T09:27:28.000Z</time>
      </trkpt>
      <trkpt lat="46.88399" lon="3.1484">
        <ele>206.39999389648</ele>
        <time>2022-06-25T09:27:29.000Z</time>
      </trkpt>
      <trkpt lat="46.88398" lon="3.14839">
        <ele>206.39999389648</ele>
        <time>2022-06-25T09:27:31.000Z</time>
      </trkpt>
      <trkpt lat="46.88398" lon="3.14839">
        <ele>206.39999389648</ele>
        <time>2022-06-25T09:27:38.000Z</time>
      </trkpt>
      <trkpt lat="46.88398" lon="3.14838">
        <ele>206.39999389648</ele>
        <time>2022-06-25T09:27:46.000Z</time>
      </trkpt>
      <trkpt lat="46.88396" lon="3.1483">
        <ele>206.60000610352</ele>
        <time>2022-06-25T09:27:55.000Z</time>
      </trkpt>
      <trkpt lat="46.88393" lon="3.14816">
        <ele>206.80000305176</ele>
        <time>2022-06-25T09:28:01.000Z</time>
      </trkpt>
      <trkpt lat="46.88392" lon="3.14811">
        <ele>206.80000305176</ele>
        <time>2022-06-25T09:28:04.000Z</time>
      </trkpt>
      <trkpt lat="46.88392" lon="3.1481">
        <ele>206.80000305176</ele>
        <time>2022-06-25T09:28:06.000Z</time>
      </trkpt>
      <trkpt lat="46.88389" lon="3.14802">
        <ele>206.60000610352</ele>
        <time>2022-06-25T09:28:12.000Z</time>
      </trkpt>
      <trkpt lat="46.88388" lon="3.14801">
        <ele>206.60000610352</ele>
        <time>2022-06-25T09:28:13.000Z</time>
      </trkpt>
      <trkpt lat="46.88388" lon="3.148">
        <ele>206.60000610352</ele>
        <time>2022-06-25T09:28:19.000Z</time>
      </trkpt>
      <trkpt lat="46.88388" lon="3.148">
        <ele>206.60000610352</ele>
        <time>2022-06-25T09:28:20.000Z</time>
      </trkpt>
      <trkpt lat="46.88388" lon="3.148">
        <ele>206.60000610352</ele>
        <time>2022-06-25T09:28:24.000Z</time>
      </trkpt>
    </trkseg>
  </trk>
</gpx>